<?xml version="1.0" encoding="UTF-8"?>
<gpx version="1.1" creator="https://www.youtrack.es" xsi:schemaLocation="http://www.topografix.com/GPX/1/1 http://www.topografix.com/GPX/1/1/gpx.xsd http://www.garmin.com/xmlschemas/GpxExtensions/v3 http://www.garmin.com/xmlschemas/GpxExtensionsv3.xsd http://www.garmin.com/xmlschemas/TrackPointExtension/v1 http://www.garmin.com/xmlschemas/TrackPointExtensionv1.xsd" xmlns:gpxtpx="http://www.garmin.com/xmlschemas/TrackPointExtension/v1" xmlns:gpxx="http://www.garmin.com/xmlschemas/GpxExtensions/v3" xmlns:xsi="http://www.w3.org/2001/XMLSchema-instance">
  <metadata>
    <link href="https://www.youtrack.es">
      <text>YouTrack.es</text>
    </link>
    <time>2026-05-10T12:04:15Z</time>
  </metadata>
  <trk>
    <src>https://www.youtrack.es</src>
    <link href="https://www.youtrack.es/ruta/6539-caminhos-de-santiago">
      <text>YouTrack.es</text>
    </link>
    <trkseg>
      <trkpt lat="42.3852780" lon="-8.6304500">
        <ele>15.4</ele>
        <time>2019-06-21T17:26:31Z</time>
      </trkpt>
      <trkpt lat="42.3853420" lon="-8.6304430">
        <ele>15.8</ele>
        <time>2019-06-21T17:28:40Z</time>
      </trkpt>
      <trkpt lat="42.3853660" lon="-8.6304420">
        <ele>15.8</ele>
        <time>2019-06-21T17:28:41Z</time>
      </trkpt>
      <trkpt lat="42.3853990" lon="-8.6304380">
        <ele>16.4</ele>
        <time>2019-06-21T17:28:42Z</time>
      </trkpt>
      <trkpt lat="42.3856600" lon="-8.6304290">
        <ele>16.6</ele>
        <time>2019-06-21T17:28:49Z</time>
      </trkpt>
      <trkpt lat="42.3859280" lon="-8.6304100">
        <ele>16.8</ele>
        <time>2019-06-21T17:28:57Z</time>
      </trkpt>
      <trkpt lat="42.3860790" lon="-8.6304030">
        <ele>17.2</ele>
        <time>2019-06-21T17:29:03Z</time>
      </trkpt>
      <trkpt lat="42.3862030" lon="-8.6304460">
        <ele>16.8</ele>
        <time>2019-06-21T17:29:07Z</time>
      </trkpt>
      <trkpt lat="42.3863960" lon="-8.6304020">
        <ele>16.6</ele>
        <time>2019-06-21T17:29:11Z</time>
      </trkpt>
      <trkpt lat="42.3864470" lon="-8.6303750">
        <ele>16.4</ele>
        <time>2019-06-21T17:29:12Z</time>
      </trkpt>
      <trkpt lat="42.3866440" lon="-8.6302350">
        <ele>16.2</ele>
        <time>2019-06-21T17:29:16Z</time>
      </trkpt>
      <trkpt lat="42.3869940" lon="-8.6299630">
        <ele>15.8</ele>
        <time>2019-06-21T17:29:23Z</time>
      </trkpt>
      <trkpt lat="42.3872780" lon="-8.6298290">
        <ele>15.8</ele>
        <time>2019-06-21T17:29:28Z</time>
      </trkpt>
      <trkpt lat="42.3874550" lon="-8.6297250">
        <ele>15.2</ele>
        <time>2019-06-21T17:29:31Z</time>
      </trkpt>
      <trkpt lat="42.3876720" lon="-8.6295720">
        <ele>15.0</ele>
        <time>2019-06-21T17:29:35Z</time>
      </trkpt>
      <trkpt lat="42.3878280" lon="-8.6295110">
        <ele>14.8</ele>
        <time>2019-06-21T17:29:38Z</time>
      </trkpt>
      <trkpt lat="42.3879410" lon="-8.6295160">
        <ele>14.6</ele>
        <time>2019-06-21T17:29:40Z</time>
      </trkpt>
      <trkpt lat="42.3880980" lon="-8.6295890">
        <ele>14.8</ele>
        <time>2019-06-21T17:29:43Z</time>
      </trkpt>
      <trkpt lat="42.3881470" lon="-8.6296110">
        <ele>14.4</ele>
        <time>2019-06-21T17:29:44Z</time>
      </trkpt>
      <trkpt lat="42.3882440" lon="-8.6296560">
        <ele>14.2</ele>
        <time>2019-06-21T17:29:46Z</time>
      </trkpt>
      <trkpt lat="42.3885000" lon="-8.6297470">
        <ele>14.6</ele>
        <time>2019-06-21T17:29:51Z</time>
      </trkpt>
      <trkpt lat="42.3887760" lon="-8.6298330">
        <ele>14.6</ele>
        <time>2019-06-21T17:29:56Z</time>
      </trkpt>
      <trkpt lat="42.3889500" lon="-8.6299070">
        <ele>14.6</ele>
        <time>2019-06-21T17:29:59Z</time>
      </trkpt>
      <trkpt lat="42.3891120" lon="-8.6299540">
        <ele>14.6</ele>
        <time>2019-06-21T17:30:02Z</time>
      </trkpt>
      <trkpt lat="42.3892640" lon="-8.6299890">
        <ele>14.4</ele>
        <time>2019-06-21T17:30:05Z</time>
      </trkpt>
      <trkpt lat="42.3896740" lon="-8.6300530">
        <ele>14.0</ele>
        <time>2019-06-21T17:30:13Z</time>
      </trkpt>
      <trkpt lat="42.3899610" lon="-8.6300470">
        <ele>13.0</ele>
        <time>2019-06-21T17:30:18Z</time>
      </trkpt>
      <trkpt lat="42.3900830" lon="-8.6300310">
        <ele>12.6</ele>
        <time>2019-06-21T17:30:20Z</time>
      </trkpt>
      <trkpt lat="42.3903180" lon="-8.6299800">
        <ele>12.0</ele>
        <time>2019-06-21T17:30:24Z</time>
      </trkpt>
      <trkpt lat="42.3904300" lon="-8.6299190">
        <ele>11.4</ele>
        <time>2019-06-21T17:30:26Z</time>
      </trkpt>
      <trkpt lat="42.3907840" lon="-8.6298150">
        <ele>11.0</ele>
        <time>2019-06-21T17:30:32Z</time>
      </trkpt>
      <trkpt lat="42.3909510" lon="-8.6297760">
        <ele>11.0</ele>
        <time>2019-06-21T17:30:35Z</time>
      </trkpt>
      <trkpt lat="42.3911160" lon="-8.6297540">
        <ele>10.2</ele>
        <time>2019-06-21T17:30:38Z</time>
      </trkpt>
      <trkpt lat="42.3914490" lon="-8.6298090">
        <ele>9.8</ele>
        <time>2019-06-21T17:30:44Z</time>
      </trkpt>
      <trkpt lat="42.3917690" lon="-8.6298810">
        <ele>9.4</ele>
        <time>2019-06-21T17:30:49Z</time>
      </trkpt>
      <trkpt lat="42.3918380" lon="-8.6298940">
        <ele>9.4</ele>
        <time>2019-06-21T17:30:50Z</time>
      </trkpt>
      <trkpt lat="42.3920310" lon="-8.6299280">
        <ele>9.2</ele>
        <time>2019-06-21T17:30:53Z</time>
      </trkpt>
      <trkpt lat="42.3922130" lon="-8.6298890">
        <ele>9.2</ele>
        <time>2019-06-21T17:30:56Z</time>
      </trkpt>
      <trkpt lat="42.3922710" lon="-8.6298690">
        <ele>9.0</ele>
        <time>2019-06-21T17:30:57Z</time>
      </trkpt>
      <trkpt lat="42.3925740" lon="-8.6297600">
        <ele>8.6</ele>
        <time>2019-06-21T17:31:02Z</time>
      </trkpt>
      <trkpt lat="42.3926360" lon="-8.6297500">
        <ele>8.4</ele>
        <time>2019-06-21T17:31:03Z</time>
      </trkpt>
      <trkpt lat="42.3929030" lon="-8.6296660">
        <ele>8.2</ele>
        <time>2019-06-21T17:31:08Z</time>
      </trkpt>
      <trkpt lat="42.3933160" lon="-8.6295460">
        <ele>8.2</ele>
        <time>2019-06-21T17:31:15Z</time>
      </trkpt>
      <trkpt lat="42.3937320" lon="-8.6295010">
        <ele>8.4</ele>
        <time>2019-06-21T17:31:22Z</time>
      </trkpt>
      <trkpt lat="42.3941180" lon="-8.6294730">
        <ele>8.2</ele>
        <time>2019-06-21T17:31:28Z</time>
      </trkpt>
      <trkpt lat="42.3941810" lon="-8.6294580">
        <ele>8.0</ele>
        <time>2019-06-21T17:31:29Z</time>
      </trkpt>
      <trkpt lat="42.3943080" lon="-8.6294070">
        <ele>7.6</ele>
        <time>2019-06-21T17:31:31Z</time>
      </trkpt>
      <trkpt lat="42.3945430" lon="-8.6292860">
        <ele>7.6</ele>
        <time>2019-06-21T17:31:35Z</time>
      </trkpt>
      <trkpt lat="42.3948320" lon="-8.6291010">
        <ele>7.0</ele>
        <time>2019-06-21T17:31:41Z</time>
      </trkpt>
      <trkpt lat="42.3950020" lon="-8.6289880">
        <ele>7.2</ele>
        <time>2019-06-21T17:31:46Z</time>
      </trkpt>
      <trkpt lat="42.3951840" lon="-8.6288970">
        <ele>7.0</ele>
        <time>2019-06-21T17:31:50Z</time>
      </trkpt>
      <trkpt lat="42.3952370" lon="-8.6288830">
        <ele>6.8</ele>
        <time>2019-06-21T17:31:51Z</time>
      </trkpt>
      <trkpt lat="42.3957270" lon="-8.6287760">
        <ele>7.2</ele>
        <time>2019-06-21T17:32:00Z</time>
      </trkpt>
      <trkpt lat="42.3959830" lon="-8.6287660">
        <ele>8.2</ele>
        <time>2019-06-21T17:32:05Z</time>
      </trkpt>
      <trkpt lat="42.3960270" lon="-8.6287770">
        <ele>8.0</ele>
        <time>2019-06-21T17:32:06Z</time>
      </trkpt>
      <trkpt lat="42.3960680" lon="-8.6288000">
        <ele>8.2</ele>
        <time>2019-06-21T17:32:07Z</time>
      </trkpt>
      <trkpt lat="42.3961740" lon="-8.6288990">
        <ele>8.0</ele>
        <time>2019-06-21T17:32:10Z</time>
      </trkpt>
      <trkpt lat="42.3962100" lon="-8.6289330">
        <ele>8.2</ele>
        <time>2019-06-21T17:32:11Z</time>
      </trkpt>
      <trkpt lat="42.3963160" lon="-8.6290540">
        <ele>8.8</ele>
        <time>2019-06-21T17:32:14Z</time>
      </trkpt>
      <trkpt lat="42.3964420" lon="-8.6292330">
        <ele>9.4</ele>
        <time>2019-06-21T17:32:18Z</time>
      </trkpt>
      <trkpt lat="42.3965930" lon="-8.6294420">
        <ele>9.6</ele>
        <time>2019-06-21T17:32:23Z</time>
      </trkpt>
      <trkpt lat="42.3966460" lon="-8.6295130">
        <ele>10.0</ele>
        <time>2019-06-21T17:32:25Z</time>
      </trkpt>
      <trkpt lat="42.3966660" lon="-8.6295440">
        <ele>10.2</ele>
        <time>2019-06-21T17:32:26Z</time>
      </trkpt>
      <trkpt lat="42.3967540" lon="-8.6296280">
        <ele>10.2</ele>
        <time>2019-06-21T17:32:31Z</time>
      </trkpt>
      <trkpt lat="42.3968800" lon="-8.6297550">
        <ele>10.4</ele>
        <time>2019-06-21T17:32:39Z</time>
      </trkpt>
      <trkpt lat="42.3970120" lon="-8.6298120">
        <ele>11.2</ele>
        <time>2019-06-21T17:32:45Z</time>
      </trkpt>
      <trkpt lat="42.3972680" lon="-8.6299120">
        <ele>11.8</ele>
        <time>2019-06-21T17:32:53Z</time>
      </trkpt>
      <trkpt lat="42.3975620" lon="-8.6299410">
        <ele>12.2</ele>
        <time>2019-06-21T17:33:00Z</time>
      </trkpt>
      <trkpt lat="42.3976480" lon="-8.6299390">
        <ele>12.2</ele>
        <time>2019-06-21T17:33:02Z</time>
      </trkpt>
      <trkpt lat="42.3976930" lon="-8.6299340">
        <ele>12.4</ele>
        <time>2019-06-21T17:33:03Z</time>
      </trkpt>
      <trkpt lat="42.3978590" lon="-8.6298930">
        <ele>13.2</ele>
        <time>2019-06-21T17:33:07Z</time>
      </trkpt>
      <trkpt lat="42.3979010" lon="-8.6298760">
        <ele>13.2</ele>
        <time>2019-06-21T17:33:08Z</time>
      </trkpt>
      <trkpt lat="42.3981970" lon="-8.6297650">
        <ele>14.4</ele>
        <time>2019-06-21T17:33:15Z</time>
      </trkpt>
      <trkpt lat="42.3983190" lon="-8.6297420">
        <ele>15.0</ele>
        <time>2019-06-21T17:33:18Z</time>
      </trkpt>
      <trkpt lat="42.3984930" lon="-8.6297420">
        <ele>15.2</ele>
        <time>2019-06-21T17:33:22Z</time>
      </trkpt>
      <trkpt lat="42.3986660" lon="-8.6297860">
        <ele>15.4</ele>
        <time>2019-06-21T17:33:26Z</time>
      </trkpt>
      <trkpt lat="42.3988420" lon="-8.6298270">
        <ele>16.4</ele>
        <time>2019-06-21T17:33:30Z</time>
      </trkpt>
      <trkpt lat="42.3991230" lon="-8.6299260">
        <ele>16.2</ele>
        <time>2019-06-21T17:33:36Z</time>
      </trkpt>
      <trkpt lat="42.3991700" lon="-8.6299470">
        <ele>16.4</ele>
        <time>2019-06-21T17:33:37Z</time>
      </trkpt>
      <trkpt lat="42.3992150" lon="-8.6299790">
        <ele>16.4</ele>
        <time>2019-06-21T17:33:38Z</time>
      </trkpt>
      <trkpt lat="42.3994570" lon="-8.6301260">
        <ele>16.8</ele>
        <time>2019-06-21T17:33:43Z</time>
      </trkpt>
      <trkpt lat="42.3999480" lon="-8.6303530">
        <ele>17.4</ele>
        <time>2019-06-21T17:33:53Z</time>
      </trkpt>
      <trkpt lat="42.3999920" lon="-8.6303770">
        <ele>17.6</ele>
        <time>2019-06-21T17:33:54Z</time>
      </trkpt>
      <trkpt lat="42.4004070" lon="-8.6306130">
        <ele>18.4</ele>
        <time>2019-06-21T17:34:03Z</time>
      </trkpt>
      <trkpt lat="42.4007810" lon="-8.6309450">
        <ele>18.4</ele>
        <time>2019-06-21T17:34:11Z</time>
      </trkpt>
      <trkpt lat="42.4008270" lon="-8.6309920">
        <ele>18.6</ele>
        <time>2019-06-21T17:34:12Z</time>
      </trkpt>
      <trkpt lat="42.4008700" lon="-8.6310430">
        <ele>18.4</ele>
        <time>2019-06-21T17:34:13Z</time>
      </trkpt>
      <trkpt lat="42.4010020" lon="-8.6311930">
        <ele>18.0</ele>
        <time>2019-06-21T17:34:16Z</time>
      </trkpt>
      <trkpt lat="42.4010510" lon="-8.6312380">
        <ele>17.8</ele>
        <time>2019-06-21T17:34:17Z</time>
      </trkpt>
      <trkpt lat="42.4010980" lon="-8.6312880">
        <ele>17.6</ele>
        <time>2019-06-21T17:34:18Z</time>
      </trkpt>
      <trkpt lat="42.4014140" lon="-8.6316320">
        <ele>17.0</ele>
        <time>2019-06-21T17:34:25Z</time>
      </trkpt>
      <trkpt lat="42.4014620" lon="-8.6316810">
        <ele>16.4</ele>
        <time>2019-06-21T17:34:26Z</time>
      </trkpt>
      <trkpt lat="42.4016040" lon="-8.6318430">
        <ele>16.0</ele>
        <time>2019-06-21T17:34:29Z</time>
      </trkpt>
      <trkpt lat="42.4017590" lon="-8.6320080">
        <ele>15.4</ele>
        <time>2019-06-21T17:34:32Z</time>
      </trkpt>
      <trkpt lat="42.4019330" lon="-8.6321640">
        <ele>14.0</ele>
        <time>2019-06-21T17:34:35Z</time>
      </trkpt>
      <trkpt lat="42.4020710" lon="-8.6321720">
        <ele>13.6</ele>
        <time>2019-06-21T17:34:37Z</time>
      </trkpt>
      <trkpt lat="42.4023510" lon="-8.6321630">
        <ele>12.8</ele>
        <time>2019-06-21T17:34:41Z</time>
      </trkpt>
      <trkpt lat="42.4027000" lon="-8.6321290">
        <ele>12.0</ele>
        <time>2019-06-21T17:34:46Z</time>
      </trkpt>
      <trkpt lat="42.4029080" lon="-8.6321290">
        <ele>12.2</ele>
        <time>2019-06-21T17:34:49Z</time>
      </trkpt>
      <trkpt lat="42.4031780" lon="-8.6321510">
        <ele>12.4</ele>
        <time>2019-06-21T17:34:53Z</time>
      </trkpt>
      <trkpt lat="42.4034420" lon="-8.6321780">
        <ele>12.6</ele>
        <time>2019-06-21T17:34:57Z</time>
      </trkpt>
      <trkpt lat="42.4037050" lon="-8.6322230">
        <ele>12.8</ele>
        <time>2019-06-21T17:35:01Z</time>
      </trkpt>
      <trkpt lat="42.4037730" lon="-8.6322330">
        <ele>12.6</ele>
        <time>2019-06-21T17:35:02Z</time>
      </trkpt>
      <trkpt lat="42.4041250" lon="-8.6322800">
        <ele>11.6</ele>
        <time>2019-06-21T17:35:07Z</time>
      </trkpt>
      <trkpt lat="42.4042730" lon="-8.6322980">
        <ele>11.0</ele>
        <time>2019-06-21T17:35:09Z</time>
      </trkpt>
      <trkpt lat="42.4044210" lon="-8.6323230">
        <ele>10.4</ele>
        <time>2019-06-21T17:35:11Z</time>
      </trkpt>
      <trkpt lat="42.4046520" lon="-8.6323680">
        <ele>9.2</ele>
        <time>2019-06-21T17:35:14Z</time>
      </trkpt>
      <trkpt lat="42.4048050" lon="-8.6324110">
        <ele>8.6</ele>
        <time>2019-06-21T17:35:16Z</time>
      </trkpt>
      <trkpt lat="42.4051960" lon="-8.6324980">
        <ele>8.2</ele>
        <time>2019-06-21T17:35:21Z</time>
      </trkpt>
      <trkpt lat="42.4053640" lon="-8.6325040">
        <ele>7.6</ele>
        <time>2019-06-21T17:35:23Z</time>
      </trkpt>
      <trkpt lat="42.4056950" lon="-8.6325360">
        <ele>7.0</ele>
        <time>2019-06-21T17:35:27Z</time>
      </trkpt>
      <trkpt lat="42.4059200" lon="-8.6325840">
        <ele>6.8</ele>
        <time>2019-06-21T17:35:30Z</time>
      </trkpt>
      <trkpt lat="42.4061200" lon="-8.6326570">
        <ele>6.6</ele>
        <time>2019-06-21T17:35:33Z</time>
      </trkpt>
      <trkpt lat="42.4062440" lon="-8.6326980">
        <ele>6.8</ele>
        <time>2019-06-21T17:35:35Z</time>
      </trkpt>
      <trkpt lat="42.4063670" lon="-8.6327550">
        <ele>6.0</ele>
        <time>2019-06-21T17:35:37Z</time>
      </trkpt>
      <trkpt lat="42.4066200" lon="-8.6328840">
        <ele>5.6</ele>
        <time>2019-06-21T17:35:41Z</time>
      </trkpt>
      <trkpt lat="42.4071560" lon="-8.6331120">
        <ele>5.0</ele>
        <time>2019-06-21T17:35:49Z</time>
      </trkpt>
      <trkpt lat="42.4076050" lon="-8.6331980">
        <ele>4.4</ele>
        <time>2019-06-21T17:35:56Z</time>
      </trkpt>
      <trkpt lat="42.4079860" lon="-8.6332770">
        <ele>4.6</ele>
        <time>2019-06-21T17:36:03Z</time>
      </trkpt>
      <trkpt lat="42.4084520" lon="-8.6333680">
        <ele>5.2</ele>
        <time>2019-06-21T17:36:12Z</time>
      </trkpt>
      <trkpt lat="42.4087460" lon="-8.6333610">
        <ele>5.4</ele>
        <time>2019-06-21T17:36:18Z</time>
      </trkpt>
      <trkpt lat="42.4088270" lon="-8.6333550">
        <ele>6.2</ele>
        <time>2019-06-21T17:36:20Z</time>
      </trkpt>
      <trkpt lat="42.4090720" lon="-8.6333280">
        <ele>6.8</ele>
        <time>2019-06-21T17:36:26Z</time>
      </trkpt>
      <trkpt lat="42.4091850" lon="-8.6333120">
        <ele>7.2</ele>
        <time>2019-06-21T17:36:29Z</time>
      </trkpt>
      <trkpt lat="42.4093040" lon="-8.6332780">
        <ele>7.6</ele>
        <time>2019-06-21T17:36:32Z</time>
      </trkpt>
      <trkpt lat="42.4095400" lon="-8.6331920">
        <ele>7.8</ele>
        <time>2019-06-21T17:36:38Z</time>
      </trkpt>
      <trkpt lat="42.4098600" lon="-8.6331240">
        <ele>8.0</ele>
        <time>2019-06-21T17:36:46Z</time>
      </trkpt>
      <trkpt lat="42.4099430" lon="-8.6331200">
        <ele>8.2</ele>
        <time>2019-06-21T17:36:48Z</time>
      </trkpt>
      <trkpt lat="42.4101380" lon="-8.6331070">
        <ele>8.0</ele>
        <time>2019-06-21T17:36:52Z</time>
      </trkpt>
      <trkpt lat="42.4105460" lon="-8.6330510">
        <ele>7.4</ele>
        <time>2019-06-21T17:37:00Z</time>
      </trkpt>
      <trkpt lat="42.4106020" lon="-8.6330480">
        <ele>7.2</ele>
        <time>2019-06-21T17:37:01Z</time>
      </trkpt>
      <trkpt lat="42.4107930" lon="-8.6330600">
        <ele>6.2</ele>
        <time>2019-06-21T17:37:04Z</time>
      </trkpt>
      <trkpt lat="42.4108620" lon="-8.6330680">
        <ele>5.8</ele>
        <time>2019-06-21T17:37:05Z</time>
      </trkpt>
      <trkpt lat="42.4109320" lon="-8.6330790">
        <ele>5.6</ele>
        <time>2019-06-21T17:37:06Z</time>
      </trkpt>
      <trkpt lat="42.4110780" lon="-8.6331010">
        <ele>5.0</ele>
        <time>2019-06-21T17:37:08Z</time>
      </trkpt>
      <trkpt lat="42.4111540" lon="-8.6331070">
        <ele>4.8</ele>
        <time>2019-06-21T17:37:09Z</time>
      </trkpt>
      <trkpt lat="42.4113870" lon="-8.6330950">
        <ele>3.8</ele>
        <time>2019-06-21T17:37:12Z</time>
      </trkpt>
      <trkpt lat="42.4114660" lon="-8.6330870">
        <ele>3.6</ele>
        <time>2019-06-21T17:37:13Z</time>
      </trkpt>
      <trkpt lat="42.4117020" lon="-8.6330580">
        <ele>2.4</ele>
        <time>2019-06-21T17:37:16Z</time>
      </trkpt>
      <trkpt lat="42.4120120" lon="-8.6330360">
        <ele>2.0</ele>
        <time>2019-06-21T17:37:20Z</time>
      </trkpt>
      <trkpt lat="42.4122400" lon="-8.6330280">
        <ele>1.2</ele>
        <time>2019-06-21T17:37:23Z</time>
      </trkpt>
      <trkpt lat="42.4124570" lon="-8.6330410">
        <ele>0.2</ele>
        <time>2019-06-21T17:37:26Z</time>
      </trkpt>
      <trkpt lat="42.4125280" lon="-8.6330550">
        <ele>0.0</ele>
        <time>2019-06-21T17:37:27Z</time>
      </trkpt>
      <trkpt lat="42.4127390" lon="-8.6331050">
        <ele>-1.0</ele>
        <time>2019-06-21T17:37:30Z</time>
      </trkpt>
      <trkpt lat="42.4130890" lon="-8.6331390">
        <ele>-1.8</ele>
        <time>2019-06-21T17:37:35Z</time>
      </trkpt>
      <trkpt lat="42.4132270" lon="-8.6331270">
        <ele>-2.8</ele>
        <time>2019-06-21T17:37:37Z</time>
      </trkpt>
      <trkpt lat="42.4134760" lon="-8.6330740">
        <ele>-2.6</ele>
        <time>2019-06-21T17:37:41Z</time>
      </trkpt>
      <trkpt lat="42.4140360" lon="-8.6330050">
        <ele>-3.6</ele>
        <time>2019-06-21T17:37:50Z</time>
      </trkpt>
      <trkpt lat="42.4140970" lon="-8.6330160">
        <ele>-3.6</ele>
        <time>2019-06-21T17:37:51Z</time>
      </trkpt>
      <trkpt lat="42.4141570" lon="-8.6330310">
        <ele>-3.8</ele>
        <time>2019-06-21T17:37:52Z</time>
      </trkpt>
      <trkpt lat="42.4144090" lon="-8.6330950">
        <ele>-3.8</ele>
        <time>2019-06-21T17:37:56Z</time>
      </trkpt>
      <trkpt lat="42.4149250" lon="-8.6332120">
        <ele>-4.4</ele>
        <time>2019-06-21T17:38:04Z</time>
      </trkpt>
      <trkpt lat="42.4151740" lon="-8.6332120">
        <ele>-4.6</ele>
        <time>2019-06-21T17:38:08Z</time>
      </trkpt>
      <trkpt lat="42.4152880" lon="-8.6331830">
        <ele>-4.6</ele>
        <time>2019-06-21T17:38:10Z</time>
      </trkpt>
      <trkpt lat="42.4153940" lon="-8.6331450">
        <ele>-4.8</ele>
        <time>2019-06-21T17:38:12Z</time>
      </trkpt>
      <trkpt lat="42.4154990" lon="-8.6331100">
        <ele>-4.2</ele>
        <time>2019-06-21T17:38:14Z</time>
      </trkpt>
      <trkpt lat="42.4155540" lon="-8.6331050">
        <ele>-4.0</ele>
        <time>2019-06-21T17:38:15Z</time>
      </trkpt>
      <trkpt lat="42.4157180" lon="-8.6331320">
        <ele>-4.2</ele>
        <time>2019-06-21T17:38:18Z</time>
      </trkpt>
      <trkpt lat="42.4158210" lon="-8.6331670">
        <ele>-4.4</ele>
        <time>2019-06-21T17:38:20Z</time>
      </trkpt>
      <trkpt lat="42.4162120" lon="-8.6333620">
        <ele>-4.4</ele>
        <time>2019-06-21T17:38:28Z</time>
      </trkpt>
      <trkpt lat="42.4164430" lon="-8.6334970">
        <ele>-4.6</ele>
        <time>2019-06-21T17:38:34Z</time>
      </trkpt>
      <trkpt lat="42.4164720" lon="-8.6335160">
        <ele>-4.6</ele>
        <time>2019-06-21T17:38:35Z</time>
      </trkpt>
      <trkpt lat="42.4165650" lon="-8.6335380">
        <ele>-4.6</ele>
        <time>2019-06-21T17:38:40Z</time>
      </trkpt>
      <trkpt lat="42.4166090" lon="-8.6335340">
        <ele>-4.6</ele>
        <time>2019-06-21T17:38:58Z</time>
      </trkpt>
      <trkpt lat="42.4167030" lon="-8.6334620">
        <ele>-4.0</ele>
        <time>2019-06-21T17:39:03Z</time>
      </trkpt>
      <trkpt lat="42.4167190" lon="-8.6333660">
        <ele>-4.8</ele>
        <time>2019-06-21T17:39:08Z</time>
      </trkpt>
      <trkpt lat="42.4168510" lon="-8.6333370">
        <ele>-3.2</ele>
        <time>2019-06-21T17:39:57Z</time>
      </trkpt>
      <trkpt lat="42.4168650" lon="-8.6333800">
        <ele>-3.6</ele>
        <time>2019-06-21T17:39:59Z</time>
      </trkpt>
      <trkpt lat="42.4169560" lon="-8.6334790">
        <ele>-4.2</ele>
        <time>2019-06-21T17:40:03Z</time>
      </trkpt>
      <trkpt lat="42.4171140" lon="-8.6335290">
        <ele>-4.6</ele>
        <time>2019-06-21T17:40:08Z</time>
      </trkpt>
      <trkpt lat="42.4173040" lon="-8.6335440">
        <ele>-4.6</ele>
        <time>2019-06-21T17:40:14Z</time>
      </trkpt>
      <trkpt lat="42.4173360" lon="-8.6335450">
        <ele>-4.6</ele>
        <time>2019-06-21T17:40:15Z</time>
      </trkpt>
      <trkpt lat="42.4175680" lon="-8.6335600">
        <ele>-4.4</ele>
        <time>2019-06-21T17:40:21Z</time>
      </trkpt>
      <trkpt lat="42.4177780" lon="-8.6336150">
        <ele>-4.2</ele>
        <time>2019-06-21T17:40:27Z</time>
      </trkpt>
      <trkpt lat="42.4179530" lon="-8.6337240">
        <ele>-4.2</ele>
        <time>2019-06-21T17:40:31Z</time>
      </trkpt>
      <trkpt lat="42.4179910" lon="-8.6337610">
        <ele>-4.2</ele>
        <time>2019-06-21T17:40:32Z</time>
      </trkpt>
      <trkpt lat="42.4180740" lon="-8.6339020">
        <ele>-4.0</ele>
        <time>2019-06-21T17:40:35Z</time>
      </trkpt>
      <trkpt lat="42.4181010" lon="-8.6339570">
        <ele>-4.2</ele>
        <time>2019-06-21T17:40:36Z</time>
      </trkpt>
      <trkpt lat="42.4182330" lon="-8.6342430">
        <ele>-4.4</ele>
        <time>2019-06-21T17:40:41Z</time>
      </trkpt>
      <trkpt lat="42.4182510" lon="-8.6343050">
        <ele>-4.4</ele>
        <time>2019-06-21T17:40:42Z</time>
      </trkpt>
      <trkpt lat="42.4183000" lon="-8.6344920">
        <ele>-4.8</ele>
        <time>2019-06-21T17:40:45Z</time>
      </trkpt>
      <trkpt lat="42.4183190" lon="-8.6346250">
        <ele>-4.6</ele>
        <time>2019-06-21T17:40:47Z</time>
      </trkpt>
      <trkpt lat="42.4183470" lon="-8.6349000">
        <ele>-5.4</ele>
        <time>2019-06-21T17:40:51Z</time>
      </trkpt>
      <trkpt lat="42.4183900" lon="-8.6351200">
        <ele>-5.4</ele>
        <time>2019-06-21T17:40:54Z</time>
      </trkpt>
      <trkpt lat="42.4185230" lon="-8.6356310">
        <ele>-6.2</ele>
        <time>2019-06-21T17:41:01Z</time>
      </trkpt>
      <trkpt lat="42.4185770" lon="-8.6358430">
        <ele>-6.4</ele>
        <time>2019-06-21T17:41:04Z</time>
      </trkpt>
      <trkpt lat="42.4186390" lon="-8.6360440">
        <ele>-6.6</ele>
        <time>2019-06-21T17:41:07Z</time>
      </trkpt>
      <trkpt lat="42.4186680" lon="-8.6361010">
        <ele>-6.6</ele>
        <time>2019-06-21T17:41:08Z</time>
      </trkpt>
      <trkpt lat="42.4187930" lon="-8.6361860">
        <ele>-6.4</ele>
        <time>2019-06-21T17:41:11Z</time>
      </trkpt>
      <trkpt lat="42.4188450" lon="-8.6361940">
        <ele>-6.4</ele>
        <time>2019-06-21T17:41:12Z</time>
      </trkpt>
      <trkpt lat="42.4191110" lon="-8.6362720">
        <ele>-6.2</ele>
        <time>2019-06-21T17:41:17Z</time>
      </trkpt>
      <trkpt lat="42.4195490" lon="-8.6364790">
        <ele>-5.8</ele>
        <time>2019-06-21T17:41:26Z</time>
      </trkpt>
      <trkpt lat="42.4196260" lon="-8.6365050">
        <ele>-5.4</ele>
        <time>2019-06-21T17:41:28Z</time>
      </trkpt>
      <trkpt lat="42.4197950" lon="-8.6365410">
        <ele>-4.8</ele>
        <time>2019-06-21T17:41:33Z</time>
      </trkpt>
      <trkpt lat="42.4198590" lon="-8.6365410">
        <ele>-4.4</ele>
        <time>2019-06-21T17:41:38Z</time>
      </trkpt>
      <trkpt lat="42.4199290" lon="-8.6365560">
        <ele>-3.8</ele>
        <time>2019-06-21T17:42:37Z</time>
      </trkpt>
      <trkpt lat="42.4199520" lon="-8.6365610">
        <ele>-3.6</ele>
        <time>2019-06-21T17:42:38Z</time>
      </trkpt>
      <trkpt lat="42.4199760" lon="-8.6365630">
        <ele>-3.6</ele>
        <time>2019-06-21T17:42:39Z</time>
      </trkpt>
      <trkpt lat="42.4201490" lon="-8.6365530">
        <ele>-3.4</ele>
        <time>2019-06-21T17:42:46Z</time>
      </trkpt>
      <trkpt lat="42.4202510" lon="-8.6365580">
        <ele>-2.2</ele>
        <time>2019-06-21T17:42:49Z</time>
      </trkpt>
      <trkpt lat="42.4204340" lon="-8.6365570">
        <ele>-2.0</ele>
        <time>2019-06-21T17:42:54Z</time>
      </trkpt>
      <trkpt lat="42.4205440" lon="-8.6365510">
        <ele>-1.4</ele>
        <time>2019-06-21T17:42:57Z</time>
      </trkpt>
      <trkpt lat="42.4205810" lon="-8.6365490">
        <ele>-1.2</ele>
        <time>2019-06-21T17:42:58Z</time>
      </trkpt>
      <trkpt lat="42.4207220" lon="-8.6365370">
        <ele>-0.8</ele>
        <time>2019-06-21T17:43:02Z</time>
      </trkpt>
      <trkpt lat="42.4208260" lon="-8.6365230">
        <ele>-0.4</ele>
        <time>2019-06-21T17:43:05Z</time>
      </trkpt>
      <trkpt lat="42.4209190" lon="-8.6365250">
        <ele>0.0</ele>
        <time>2019-06-21T17:43:08Z</time>
      </trkpt>
      <trkpt lat="42.4210580" lon="-8.6365060">
        <ele>0.0</ele>
        <time>2019-06-21T17:43:12Z</time>
      </trkpt>
      <trkpt lat="42.4212870" lon="-8.6364700">
        <ele>-0.2</ele>
        <time>2019-06-21T17:43:19Z</time>
      </trkpt>
      <trkpt lat="42.4215350" lon="-8.6364330">
        <ele>-0.2</ele>
        <time>2019-06-21T17:43:27Z</time>
      </trkpt>
      <trkpt lat="42.4215610" lon="-8.6364270">
        <ele>0.0</ele>
        <time>2019-06-21T17:43:28Z</time>
      </trkpt>
      <trkpt lat="42.4216630" lon="-8.6363840">
        <ele>-0.2</ele>
        <time>2019-06-21T17:43:32Z</time>
      </trkpt>
      <trkpt lat="42.4216980" lon="-8.6363730">
        <ele>-0.2</ele>
        <time>2019-06-21T17:43:34Z</time>
      </trkpt>
      <trkpt lat="42.4217530" lon="-8.6363670">
        <ele>-0.2</ele>
        <time>2019-06-21T17:43:38Z</time>
      </trkpt>
      <trkpt lat="42.4217810" lon="-8.6363650">
        <ele>-0.2</ele>
        <time>2019-06-21T17:43:40Z</time>
      </trkpt>
      <trkpt lat="42.4218490" lon="-8.6363270">
        <ele>-0.4</ele>
        <time>2019-06-21T17:44:15Z</time>
      </trkpt>
      <trkpt lat="42.4218250" lon="-8.6363180">
        <ele>-0.2</ele>
        <time>2019-06-21T17:44:16Z</time>
      </trkpt>
      <trkpt lat="42.4217500" lon="-8.6362980">
        <ele>-0.4</ele>
        <time>2019-06-21T17:44:19Z</time>
      </trkpt>
      <trkpt lat="42.4216920" lon="-8.6363030">
        <ele>0.0</ele>
        <time>2019-06-21T17:44:21Z</time>
      </trkpt>
      <trkpt lat="42.4216570" lon="-8.6363040">
        <ele>0.0</ele>
        <time>2019-06-21T17:44:22Z</time>
      </trkpt>
      <trkpt lat="42.4214650" lon="-8.6363340">
        <ele>0.0</ele>
        <time>2019-06-21T17:44:27Z</time>
      </trkpt>
      <trkpt lat="42.4213080" lon="-8.6363390">
        <ele>0.0</ele>
        <time>2019-06-21T17:44:31Z</time>
      </trkpt>
      <trkpt lat="42.4211990" lon="-8.6363300">
        <ele>0.0</ele>
        <time>2019-06-21T17:44:34Z</time>
      </trkpt>
      <trkpt lat="42.4208910" lon="-8.6363430">
        <ele>-0.4</ele>
        <time>2019-06-21T17:44:44Z</time>
      </trkpt>
      <trkpt lat="42.4205990" lon="-8.6363490">
        <ele>-0.6</ele>
        <time>2019-06-21T17:44:52Z</time>
      </trkpt>
      <trkpt lat="42.4204780" lon="-8.6363070">
        <ele>-0.4</ele>
        <time>2019-06-21T17:44:57Z</time>
      </trkpt>
      <trkpt lat="42.4204640" lon="-8.6362900">
        <ele>-0.4</ele>
        <time>2019-06-21T17:44:58Z</time>
      </trkpt>
      <trkpt lat="42.4204400" lon="-8.6362000">
        <ele>-1.0</ele>
        <time>2019-06-21T17:45:04Z</time>
      </trkpt>
      <trkpt lat="42.4204410" lon="-8.6362010">
        <ele>-1.0</ele>
        <time>2019-06-21T17:45:05Z</time>
      </trkpt>
      <trkpt lat="42.4203520" lon="-8.6361940">
        <ele>0.2</ele>
        <time>2019-06-21T17:45:23Z</time>
      </trkpt>
      <trkpt lat="42.4203320" lon="-8.6361970">
        <ele>0.0</ele>
        <time>2019-06-21T17:45:24Z</time>
      </trkpt>
      <trkpt lat="42.4203060" lon="-8.6362040">
        <ele>0.0</ele>
        <time>2019-06-21T17:45:25Z</time>
      </trkpt>
      <trkpt lat="42.4201210" lon="-8.6362190">
        <ele>-0.2</ele>
        <time>2019-06-21T17:45:32Z</time>
      </trkpt>
      <trkpt lat="42.4200940" lon="-8.6362240">
        <ele>-0.2</ele>
        <time>2019-06-21T17:45:33Z</time>
      </trkpt>
      <trkpt lat="42.4200020" lon="-8.6362440">
        <ele>-0.4</ele>
        <time>2019-06-21T17:45:37Z</time>
      </trkpt>
      <trkpt lat="42.4199520" lon="-8.6362750">
        <ele>-0.2</ele>
        <time>2019-06-21T17:45:40Z</time>
      </trkpt>
      <trkpt lat="42.4199450" lon="-8.6362930">
        <ele>-0.2</ele>
        <time>2019-06-21T17:45:41Z</time>
      </trkpt>
      <trkpt lat="42.4199070" lon="-8.6363360">
        <ele>-0.2</ele>
        <time>2019-06-21T17:45:44Z</time>
      </trkpt>
      <trkpt lat="42.4198730" lon="-8.6363450">
        <ele>-0.2</ele>
        <time>2019-06-21T17:45:46Z</time>
      </trkpt>
      <trkpt lat="42.4198530" lon="-8.6363460">
        <ele>-0.2</ele>
        <time>2019-06-21T17:45:47Z</time>
      </trkpt>
      <trkpt lat="42.4197100" lon="-8.6363500">
        <ele>-0.2</ele>
        <time>2019-06-21T17:45:54Z</time>
      </trkpt>
      <trkpt lat="42.4196630" lon="-8.6363210">
        <ele>-0.4</ele>
        <time>2019-06-21T17:45:59Z</time>
      </trkpt>
      <trkpt lat="42.3852780" lon="-8.6304500">
        <ele>15.4</ele>
        <time>2019-06-21T17:26:31Z</time>
      </trkpt>
      <trkpt lat="42.3853420" lon="-8.6304430">
        <ele>15.8</ele>
        <time>2019-06-21T17:28:40Z</time>
      </trkpt>
      <trkpt lat="42.3853660" lon="-8.6304420">
        <ele>15.8</ele>
        <time>2019-06-21T17:28:41Z</time>
      </trkpt>
      <trkpt lat="42.3853990" lon="-8.6304380">
        <ele>16.4</ele>
        <time>2019-06-21T17:28:42Z</time>
      </trkpt>
      <trkpt lat="42.3856600" lon="-8.6304290">
        <ele>16.6</ele>
        <time>2019-06-21T17:28:49Z</time>
      </trkpt>
      <trkpt lat="42.3859280" lon="-8.6304100">
        <ele>16.8</ele>
        <time>2019-06-21T17:28:57Z</time>
      </trkpt>
      <trkpt lat="42.3860790" lon="-8.6304030">
        <ele>17.2</ele>
        <time>2019-06-21T17:29:03Z</time>
      </trkpt>
      <trkpt lat="42.3862030" lon="-8.6304460">
        <ele>16.8</ele>
        <time>2019-06-21T17:29:07Z</time>
      </trkpt>
      <trkpt lat="42.3863960" lon="-8.6304020">
        <ele>16.6</ele>
        <time>2019-06-21T17:29:11Z</time>
      </trkpt>
      <trkpt lat="42.3864470" lon="-8.6303750">
        <ele>16.4</ele>
        <time>2019-06-21T17:29:12Z</time>
      </trkpt>
      <trkpt lat="42.3866440" lon="-8.6302350">
        <ele>16.2</ele>
        <time>2019-06-21T17:29:16Z</time>
      </trkpt>
      <trkpt lat="42.3869940" lon="-8.6299630">
        <ele>15.8</ele>
        <time>2019-06-21T17:29:23Z</time>
      </trkpt>
      <trkpt lat="42.3872780" lon="-8.6298290">
        <ele>15.8</ele>
        <time>2019-06-21T17:29:28Z</time>
      </trkpt>
      <trkpt lat="42.3874550" lon="-8.6297250">
        <ele>15.2</ele>
        <time>2019-06-21T17:29:31Z</time>
      </trkpt>
      <trkpt lat="42.3876720" lon="-8.6295720">
        <ele>15.0</ele>
        <time>2019-06-21T17:29:35Z</time>
      </trkpt>
      <trkpt lat="42.3878280" lon="-8.6295110">
        <ele>14.8</ele>
        <time>2019-06-21T17:29:38Z</time>
      </trkpt>
      <trkpt lat="42.3879410" lon="-8.6295160">
        <ele>14.6</ele>
        <time>2019-06-21T17:29:40Z</time>
      </trkpt>
      <trkpt lat="42.3880980" lon="-8.6295890">
        <ele>14.8</ele>
        <time>2019-06-21T17:29:43Z</time>
      </trkpt>
      <trkpt lat="42.3881470" lon="-8.6296110">
        <ele>14.4</ele>
        <time>2019-06-21T17:29:44Z</time>
      </trkpt>
      <trkpt lat="42.3882440" lon="-8.6296560">
        <ele>14.2</ele>
        <time>2019-06-21T17:29:46Z</time>
      </trkpt>
      <trkpt lat="42.3885000" lon="-8.6297470">
        <ele>14.6</ele>
        <time>2019-06-21T17:29:51Z</time>
      </trkpt>
      <trkpt lat="42.3887760" lon="-8.6298330">
        <ele>14.6</ele>
        <time>2019-06-21T17:29:56Z</time>
      </trkpt>
      <trkpt lat="42.3889500" lon="-8.6299070">
        <ele>14.6</ele>
        <time>2019-06-21T17:29:59Z</time>
      </trkpt>
      <trkpt lat="42.3891120" lon="-8.6299540">
        <ele>14.6</ele>
        <time>2019-06-21T17:30:02Z</time>
      </trkpt>
      <trkpt lat="42.3892640" lon="-8.6299890">
        <ele>14.4</ele>
        <time>2019-06-21T17:30:05Z</time>
      </trkpt>
      <trkpt lat="42.3896740" lon="-8.6300530">
        <ele>14.0</ele>
        <time>2019-06-21T17:30:13Z</time>
      </trkpt>
      <trkpt lat="42.3899610" lon="-8.6300470">
        <ele>13.0</ele>
        <time>2019-06-21T17:30:18Z</time>
      </trkpt>
      <trkpt lat="42.3900830" lon="-8.6300310">
        <ele>12.6</ele>
        <time>2019-06-21T17:30:20Z</time>
      </trkpt>
      <trkpt lat="42.3903180" lon="-8.6299800">
        <ele>12.0</ele>
        <time>2019-06-21T17:30:24Z</time>
      </trkpt>
      <trkpt lat="42.3904300" lon="-8.6299190">
        <ele>11.4</ele>
        <time>2019-06-21T17:30:26Z</time>
      </trkpt>
      <trkpt lat="42.3907840" lon="-8.6298150">
        <ele>11.0</ele>
        <time>2019-06-21T17:30:32Z</time>
      </trkpt>
      <trkpt lat="42.3909510" lon="-8.6297760">
        <ele>11.0</ele>
        <time>2019-06-21T17:30:35Z</time>
      </trkpt>
      <trkpt lat="42.3911160" lon="-8.6297540">
        <ele>10.2</ele>
        <time>2019-06-21T17:30:38Z</time>
      </trkpt>
      <trkpt lat="42.3914490" lon="-8.6298090">
        <ele>9.8</ele>
        <time>2019-06-21T17:30:44Z</time>
      </trkpt>
      <trkpt lat="42.3917690" lon="-8.6298810">
        <ele>9.4</ele>
        <time>2019-06-21T17:30:49Z</time>
      </trkpt>
      <trkpt lat="42.3918380" lon="-8.6298940">
        <ele>9.4</ele>
        <time>2019-06-21T17:30:50Z</time>
      </trkpt>
      <trkpt lat="42.3920310" lon="-8.6299280">
        <ele>9.2</ele>
        <time>2019-06-21T17:30:53Z</time>
      </trkpt>
      <trkpt lat="42.3922130" lon="-8.6298890">
        <ele>9.2</ele>
        <time>2019-06-21T17:30:56Z</time>
      </trkpt>
      <trkpt lat="42.3922710" lon="-8.6298690">
        <ele>9.0</ele>
        <time>2019-06-21T17:30:57Z</time>
      </trkpt>
      <trkpt lat="42.3925740" lon="-8.6297600">
        <ele>8.6</ele>
        <time>2019-06-21T17:31:02Z</time>
      </trkpt>
      <trkpt lat="42.3926360" lon="-8.6297500">
        <ele>8.4</ele>
        <time>2019-06-21T17:31:03Z</time>
      </trkpt>
      <trkpt lat="42.3929030" lon="-8.6296660">
        <ele>8.2</ele>
        <time>2019-06-21T17:31:08Z</time>
      </trkpt>
      <trkpt lat="42.3933160" lon="-8.6295460">
        <ele>8.2</ele>
        <time>2019-06-21T17:31:15Z</time>
      </trkpt>
      <trkpt lat="42.3937320" lon="-8.6295010">
        <ele>8.4</ele>
        <time>2019-06-21T17:31:22Z</time>
      </trkpt>
      <trkpt lat="42.3941180" lon="-8.6294730">
        <ele>8.2</ele>
        <time>2019-06-21T17:31:28Z</time>
      </trkpt>
      <trkpt lat="42.3941810" lon="-8.6294580">
        <ele>8.0</ele>
        <time>2019-06-21T17:31:29Z</time>
      </trkpt>
      <trkpt lat="42.3943080" lon="-8.6294070">
        <ele>7.6</ele>
        <time>2019-06-21T17:31:31Z</time>
      </trkpt>
      <trkpt lat="42.3945430" lon="-8.6292860">
        <ele>7.6</ele>
        <time>2019-06-21T17:31:35Z</time>
      </trkpt>
      <trkpt lat="42.3948320" lon="-8.6291010">
        <ele>7.0</ele>
        <time>2019-06-21T17:31:41Z</time>
      </trkpt>
      <trkpt lat="42.3950020" lon="-8.6289880">
        <ele>7.2</ele>
        <time>2019-06-21T17:31:46Z</time>
      </trkpt>
      <trkpt lat="42.3951840" lon="-8.6288970">
        <ele>7.0</ele>
        <time>2019-06-21T17:31:50Z</time>
      </trkpt>
      <trkpt lat="42.3952370" lon="-8.6288830">
        <ele>6.8</ele>
        <time>2019-06-21T17:31:51Z</time>
      </trkpt>
      <trkpt lat="42.3957270" lon="-8.6287760">
        <ele>7.2</ele>
        <time>2019-06-21T17:32:00Z</time>
      </trkpt>
      <trkpt lat="42.3959830" lon="-8.6287660">
        <ele>8.2</ele>
        <time>2019-06-21T17:32:05Z</time>
      </trkpt>
      <trkpt lat="42.3960270" lon="-8.6287770">
        <ele>8.0</ele>
        <time>2019-06-21T17:32:06Z</time>
      </trkpt>
      <trkpt lat="42.3960680" lon="-8.6288000">
        <ele>8.2</ele>
        <time>2019-06-21T17:32:07Z</time>
      </trkpt>
      <trkpt lat="42.3961740" lon="-8.6288990">
        <ele>8.0</ele>
        <time>2019-06-21T17:32:10Z</time>
      </trkpt>
      <trkpt lat="42.3962100" lon="-8.6289330">
        <ele>8.2</ele>
        <time>2019-06-21T17:32:11Z</time>
      </trkpt>
      <trkpt lat="42.3963160" lon="-8.6290540">
        <ele>8.8</ele>
        <time>2019-06-21T17:32:14Z</time>
      </trkpt>
      <trkpt lat="42.3964420" lon="-8.6292330">
        <ele>9.4</ele>
        <time>2019-06-21T17:32:18Z</time>
      </trkpt>
      <trkpt lat="42.3965930" lon="-8.6294420">
        <ele>9.6</ele>
        <time>2019-06-21T17:32:23Z</time>
      </trkpt>
      <trkpt lat="42.3966460" lon="-8.6295130">
        <ele>10.0</ele>
        <time>2019-06-21T17:32:25Z</time>
      </trkpt>
      <trkpt lat="42.3966660" lon="-8.6295440">
        <ele>10.2</ele>
        <time>2019-06-21T17:32:26Z</time>
      </trkpt>
      <trkpt lat="42.3967540" lon="-8.6296280">
        <ele>10.2</ele>
        <time>2019-06-21T17:32:31Z</time>
      </trkpt>
      <trkpt lat="42.3968800" lon="-8.6297550">
        <ele>10.4</ele>
        <time>2019-06-21T17:32:39Z</time>
      </trkpt>
      <trkpt lat="42.3970120" lon="-8.6298120">
        <ele>11.2</ele>
        <time>2019-06-21T17:32:45Z</time>
      </trkpt>
      <trkpt lat="42.3972680" lon="-8.6299120">
        <ele>11.8</ele>
        <time>2019-06-21T17:32:53Z</time>
      </trkpt>
      <trkpt lat="42.3975620" lon="-8.6299410">
        <ele>12.2</ele>
        <time>2019-06-21T17:33:00Z</time>
      </trkpt>
      <trkpt lat="42.3976480" lon="-8.6299390">
        <ele>12.2</ele>
        <time>2019-06-21T17:33:02Z</time>
      </trkpt>
      <trkpt lat="42.3976930" lon="-8.6299340">
        <ele>12.4</ele>
        <time>2019-06-21T17:33:03Z</time>
      </trkpt>
      <trkpt lat="42.3978590" lon="-8.6298930">
        <ele>13.2</ele>
        <time>2019-06-21T17:33:07Z</time>
      </trkpt>
      <trkpt lat="42.3979010" lon="-8.6298760">
        <ele>13.2</ele>
        <time>2019-06-21T17:33:08Z</time>
      </trkpt>
      <trkpt lat="42.3981970" lon="-8.6297650">
        <ele>14.4</ele>
        <time>2019-06-21T17:33:15Z</time>
      </trkpt>
      <trkpt lat="42.3983190" lon="-8.6297420">
        <ele>15.0</ele>
        <time>2019-06-21T17:33:18Z</time>
      </trkpt>
      <trkpt lat="42.3984930" lon="-8.6297420">
        <ele>15.2</ele>
        <time>2019-06-21T17:33:22Z</time>
      </trkpt>
      <trkpt lat="42.3986660" lon="-8.6297860">
        <ele>15.4</ele>
        <time>2019-06-21T17:33:26Z</time>
      </trkpt>
      <trkpt lat="42.3988420" lon="-8.6298270">
        <ele>16.4</ele>
        <time>2019-06-21T17:33:30Z</time>
      </trkpt>
      <trkpt lat="42.3991230" lon="-8.6299260">
        <ele>16.2</ele>
        <time>2019-06-21T17:33:36Z</time>
      </trkpt>
      <trkpt lat="42.3991700" lon="-8.6299470">
        <ele>16.4</ele>
        <time>2019-06-21T17:33:37Z</time>
      </trkpt>
      <trkpt lat="42.3992150" lon="-8.6299790">
        <ele>16.4</ele>
        <time>2019-06-21T17:33:38Z</time>
      </trkpt>
      <trkpt lat="42.3994570" lon="-8.6301260">
        <ele>16.8</ele>
        <time>2019-06-21T17:33:43Z</time>
      </trkpt>
      <trkpt lat="42.3999480" lon="-8.6303530">
        <ele>17.4</ele>
        <time>2019-06-21T17:33:53Z</time>
      </trkpt>
      <trkpt lat="42.3999920" lon="-8.6303770">
        <ele>17.6</ele>
        <time>2019-06-21T17:33:54Z</time>
      </trkpt>
      <trkpt lat="42.4004070" lon="-8.6306130">
        <ele>18.4</ele>
        <time>2019-06-21T17:34:03Z</time>
      </trkpt>
      <trkpt lat="42.4007810" lon="-8.6309450">
        <ele>18.4</ele>
        <time>2019-06-21T17:34:11Z</time>
      </trkpt>
      <trkpt lat="42.4008270" lon="-8.6309920">
        <ele>18.6</ele>
        <time>2019-06-21T17:34:12Z</time>
      </trkpt>
      <trkpt lat="42.4008700" lon="-8.6310430">
        <ele>18.4</ele>
        <time>2019-06-21T17:34:13Z</time>
      </trkpt>
      <trkpt lat="42.4010020" lon="-8.6311930">
        <ele>18.0</ele>
        <time>2019-06-21T17:34:16Z</time>
      </trkpt>
      <trkpt lat="42.4010510" lon="-8.6312380">
        <ele>17.8</ele>
        <time>2019-06-21T17:34:17Z</time>
      </trkpt>
      <trkpt lat="42.4010980" lon="-8.6312880">
        <ele>17.6</ele>
        <time>2019-06-21T17:34:18Z</time>
      </trkpt>
      <trkpt lat="42.4014140" lon="-8.6316320">
        <ele>17.0</ele>
        <time>2019-06-21T17:34:25Z</time>
      </trkpt>
      <trkpt lat="42.4014620" lon="-8.6316810">
        <ele>16.4</ele>
        <time>2019-06-21T17:34:26Z</time>
      </trkpt>
      <trkpt lat="42.4016040" lon="-8.6318430">
        <ele>16.0</ele>
        <time>2019-06-21T17:34:29Z</time>
      </trkpt>
      <trkpt lat="42.4017590" lon="-8.6320080">
        <ele>15.4</ele>
        <time>2019-06-21T17:34:32Z</time>
      </trkpt>
      <trkpt lat="42.4019330" lon="-8.6321640">
        <ele>14.0</ele>
        <time>2019-06-21T17:34:35Z</time>
      </trkpt>
      <trkpt lat="42.4020710" lon="-8.6321720">
        <ele>13.6</ele>
        <time>2019-06-21T17:34:37Z</time>
      </trkpt>
      <trkpt lat="42.4023510" lon="-8.6321630">
        <ele>12.8</ele>
        <time>2019-06-21T17:34:41Z</time>
      </trkpt>
      <trkpt lat="42.4027000" lon="-8.6321290">
        <ele>12.0</ele>
        <time>2019-06-21T17:34:46Z</time>
      </trkpt>
      <trkpt lat="42.4029080" lon="-8.6321290">
        <ele>12.2</ele>
        <time>2019-06-21T17:34:49Z</time>
      </trkpt>
      <trkpt lat="42.4031780" lon="-8.6321510">
        <ele>12.4</ele>
        <time>2019-06-21T17:34:53Z</time>
      </trkpt>
      <trkpt lat="42.4034420" lon="-8.6321780">
        <ele>12.6</ele>
        <time>2019-06-21T17:34:57Z</time>
      </trkpt>
      <trkpt lat="42.4037050" lon="-8.6322230">
        <ele>12.8</ele>
        <time>2019-06-21T17:35:01Z</time>
      </trkpt>
      <trkpt lat="42.4037730" lon="-8.6322330">
        <ele>12.6</ele>
        <time>2019-06-21T17:35:02Z</time>
      </trkpt>
      <trkpt lat="42.4041250" lon="-8.6322800">
        <ele>11.6</ele>
        <time>2019-06-21T17:35:07Z</time>
      </trkpt>
      <trkpt lat="42.4042730" lon="-8.6322980">
        <ele>11.0</ele>
        <time>2019-06-21T17:35:09Z</time>
      </trkpt>
      <trkpt lat="42.4044210" lon="-8.6323230">
        <ele>10.4</ele>
        <time>2019-06-21T17:35:11Z</time>
      </trkpt>
      <trkpt lat="42.4046520" lon="-8.6323680">
        <ele>9.2</ele>
        <time>2019-06-21T17:35:14Z</time>
      </trkpt>
      <trkpt lat="42.4048050" lon="-8.6324110">
        <ele>8.6</ele>
        <time>2019-06-21T17:35:16Z</time>
      </trkpt>
      <trkpt lat="42.4051960" lon="-8.6324980">
        <ele>8.2</ele>
        <time>2019-06-21T17:35:21Z</time>
      </trkpt>
      <trkpt lat="42.4053640" lon="-8.6325040">
        <ele>7.6</ele>
        <time>2019-06-21T17:35:23Z</time>
      </trkpt>
      <trkpt lat="42.4056950" lon="-8.6325360">
        <ele>7.0</ele>
        <time>2019-06-21T17:35:27Z</time>
      </trkpt>
      <trkpt lat="42.4059200" lon="-8.6325840">
        <ele>6.8</ele>
        <time>2019-06-21T17:35:30Z</time>
      </trkpt>
      <trkpt lat="42.4061200" lon="-8.6326570">
        <ele>6.6</ele>
        <time>2019-06-21T17:35:33Z</time>
      </trkpt>
      <trkpt lat="42.4062440" lon="-8.6326980">
        <ele>6.8</ele>
        <time>2019-06-21T17:35:35Z</time>
      </trkpt>
      <trkpt lat="42.4063670" lon="-8.6327550">
        <ele>6.0</ele>
        <time>2019-06-21T17:35:37Z</time>
      </trkpt>
      <trkpt lat="42.4066200" lon="-8.6328840">
        <ele>5.6</ele>
        <time>2019-06-21T17:35:41Z</time>
      </trkpt>
      <trkpt lat="42.4071560" lon="-8.6331120">
        <ele>5.0</ele>
        <time>2019-06-21T17:35:49Z</time>
      </trkpt>
      <trkpt lat="42.4076050" lon="-8.6331980">
        <ele>4.4</ele>
        <time>2019-06-21T17:35:56Z</time>
      </trkpt>
      <trkpt lat="42.4079860" lon="-8.6332770">
        <ele>4.6</ele>
        <time>2019-06-21T17:36:03Z</time>
      </trkpt>
      <trkpt lat="42.4084520" lon="-8.6333680">
        <ele>5.2</ele>
        <time>2019-06-21T17:36:12Z</time>
      </trkpt>
      <trkpt lat="42.4087460" lon="-8.6333610">
        <ele>5.4</ele>
        <time>2019-06-21T17:36:18Z</time>
      </trkpt>
      <trkpt lat="42.4088270" lon="-8.6333550">
        <ele>6.2</ele>
        <time>2019-06-21T17:36:20Z</time>
      </trkpt>
      <trkpt lat="42.4090720" lon="-8.6333280">
        <ele>6.8</ele>
        <time>2019-06-21T17:36:26Z</time>
      </trkpt>
      <trkpt lat="42.4091850" lon="-8.6333120">
        <ele>7.2</ele>
        <time>2019-06-21T17:36:29Z</time>
      </trkpt>
      <trkpt lat="42.4093040" lon="-8.6332780">
        <ele>7.6</ele>
        <time>2019-06-21T17:36:32Z</time>
      </trkpt>
      <trkpt lat="42.4095400" lon="-8.6331920">
        <ele>7.8</ele>
        <time>2019-06-21T17:36:38Z</time>
      </trkpt>
      <trkpt lat="42.4098600" lon="-8.6331240">
        <ele>8.0</ele>
        <time>2019-06-21T17:36:46Z</time>
      </trkpt>
      <trkpt lat="42.4099430" lon="-8.6331200">
        <ele>8.2</ele>
        <time>2019-06-21T17:36:48Z</time>
      </trkpt>
      <trkpt lat="42.4101380" lon="-8.6331070">
        <ele>8.0</ele>
        <time>2019-06-21T17:36:52Z</time>
      </trkpt>
      <trkpt lat="42.4105460" lon="-8.6330510">
        <ele>7.4</ele>
        <time>2019-06-21T17:37:00Z</time>
      </trkpt>
      <trkpt lat="42.4106020" lon="-8.6330480">
        <ele>7.2</ele>
        <time>2019-06-21T17:37:01Z</time>
      </trkpt>
      <trkpt lat="42.4107930" lon="-8.6330600">
        <ele>6.2</ele>
        <time>2019-06-21T17:37:04Z</time>
      </trkpt>
      <trkpt lat="42.4108620" lon="-8.6330680">
        <ele>5.8</ele>
        <time>2019-06-21T17:37:05Z</time>
      </trkpt>
      <trkpt lat="42.4109320" lon="-8.6330790">
        <ele>5.6</ele>
        <time>2019-06-21T17:37:06Z</time>
      </trkpt>
      <trkpt lat="42.4110780" lon="-8.6331010">
        <ele>5.0</ele>
        <time>2019-06-21T17:37:08Z</time>
      </trkpt>
      <trkpt lat="42.4111540" lon="-8.6331070">
        <ele>4.8</ele>
        <time>2019-06-21T17:37:09Z</time>
      </trkpt>
      <trkpt lat="42.4113870" lon="-8.6330950">
        <ele>3.8</ele>
        <time>2019-06-21T17:37:12Z</time>
      </trkpt>
      <trkpt lat="42.4114660" lon="-8.6330870">
        <ele>3.6</ele>
        <time>2019-06-21T17:37:13Z</time>
      </trkpt>
      <trkpt lat="42.4117020" lon="-8.6330580">
        <ele>2.4</ele>
        <time>2019-06-21T17:37:16Z</time>
      </trkpt>
      <trkpt lat="42.4120120" lon="-8.6330360">
        <ele>2.0</ele>
        <time>2019-06-21T17:37:20Z</time>
      </trkpt>
      <trkpt lat="42.4122400" lon="-8.6330280">
        <ele>1.2</ele>
        <time>2019-06-21T17:37:23Z</time>
      </trkpt>
      <trkpt lat="42.4124570" lon="-8.6330410">
        <ele>0.2</ele>
        <time>2019-06-21T17:37:26Z</time>
      </trkpt>
      <trkpt lat="42.4125280" lon="-8.6330550">
        <ele>0.0</ele>
        <time>2019-06-21T17:37:27Z</time>
      </trkpt>
      <trkpt lat="42.4127390" lon="-8.6331050">
        <ele>-1.0</ele>
        <time>2019-06-21T17:37:30Z</time>
      </trkpt>
      <trkpt lat="42.4130890" lon="-8.6331390">
        <ele>-1.8</ele>
        <time>2019-06-21T17:37:35Z</time>
      </trkpt>
      <trkpt lat="42.4132270" lon="-8.6331270">
        <ele>-2.8</ele>
        <time>2019-06-21T17:37:37Z</time>
      </trkpt>
      <trkpt lat="42.4134760" lon="-8.6330740">
        <ele>-2.6</ele>
        <time>2019-06-21T17:37:41Z</time>
      </trkpt>
      <trkpt lat="42.4140360" lon="-8.6330050">
        <ele>-3.6</ele>
        <time>2019-06-21T17:37:50Z</time>
      </trkpt>
      <trkpt lat="42.4140970" lon="-8.6330160">
        <ele>-3.6</ele>
        <time>2019-06-21T17:37:51Z</time>
      </trkpt>
      <trkpt lat="42.4141570" lon="-8.6330310">
        <ele>-3.8</ele>
        <time>2019-06-21T17:37:52Z</time>
      </trkpt>
      <trkpt lat="42.4144090" lon="-8.6330950">
        <ele>-3.8</ele>
        <time>2019-06-21T17:37:56Z</time>
      </trkpt>
      <trkpt lat="42.4149250" lon="-8.6332120">
        <ele>-4.4</ele>
        <time>2019-06-21T17:38:04Z</time>
      </trkpt>
      <trkpt lat="42.4151740" lon="-8.6332120">
        <ele>-4.6</ele>
        <time>2019-06-21T17:38:08Z</time>
      </trkpt>
      <trkpt lat="42.4152880" lon="-8.6331830">
        <ele>-4.6</ele>
        <time>2019-06-21T17:38:10Z</time>
      </trkpt>
      <trkpt lat="42.4153940" lon="-8.6331450">
        <ele>-4.8</ele>
        <time>2019-06-21T17:38:12Z</time>
      </trkpt>
      <trkpt lat="42.4154990" lon="-8.6331100">
        <ele>-4.2</ele>
        <time>2019-06-21T17:38:14Z</time>
      </trkpt>
      <trkpt lat="42.4155540" lon="-8.6331050">
        <ele>-4.0</ele>
        <time>2019-06-21T17:38:15Z</time>
      </trkpt>
      <trkpt lat="42.4157180" lon="-8.6331320">
        <ele>-4.2</ele>
        <time>2019-06-21T17:38:18Z</time>
      </trkpt>
      <trkpt lat="42.4158210" lon="-8.6331670">
        <ele>-4.4</ele>
        <time>2019-06-21T17:38:20Z</time>
      </trkpt>
      <trkpt lat="42.4162120" lon="-8.6333620">
        <ele>-4.4</ele>
        <time>2019-06-21T17:38:28Z</time>
      </trkpt>
      <trkpt lat="42.4164430" lon="-8.6334970">
        <ele>-4.6</ele>
        <time>2019-06-21T17:38:34Z</time>
      </trkpt>
      <trkpt lat="42.4164720" lon="-8.6335160">
        <ele>-4.6</ele>
        <time>2019-06-21T17:38:35Z</time>
      </trkpt>
      <trkpt lat="42.4165650" lon="-8.6335380">
        <ele>-4.6</ele>
        <time>2019-06-21T17:38:40Z</time>
      </trkpt>
      <trkpt lat="42.4166090" lon="-8.6335340">
        <ele>-4.6</ele>
        <time>2019-06-21T17:38:58Z</time>
      </trkpt>
      <trkpt lat="42.4167030" lon="-8.6334620">
        <ele>-4.0</ele>
        <time>2019-06-21T17:39:03Z</time>
      </trkpt>
      <trkpt lat="42.4167190" lon="-8.6333660">
        <ele>-4.8</ele>
        <time>2019-06-21T17:39:08Z</time>
      </trkpt>
      <trkpt lat="42.4168510" lon="-8.6333370">
        <ele>-3.2</ele>
        <time>2019-06-21T17:39:57Z</time>
      </trkpt>
      <trkpt lat="42.4168650" lon="-8.6333800">
        <ele>-3.6</ele>
        <time>2019-06-21T17:39:59Z</time>
      </trkpt>
      <trkpt lat="42.4169560" lon="-8.6334790">
        <ele>-4.2</ele>
        <time>2019-06-21T17:40:03Z</time>
      </trkpt>
      <trkpt lat="42.4171140" lon="-8.6335290">
        <ele>-4.6</ele>
        <time>2019-06-21T17:40:08Z</time>
      </trkpt>
      <trkpt lat="42.4173040" lon="-8.6335440">
        <ele>-4.6</ele>
        <time>2019-06-21T17:40:14Z</time>
      </trkpt>
      <trkpt lat="42.4173360" lon="-8.6335450">
        <ele>-4.6</ele>
        <time>2019-06-21T17:40:15Z</time>
      </trkpt>
      <trkpt lat="42.4175680" lon="-8.6335600">
        <ele>-4.4</ele>
        <time>2019-06-21T17:40:21Z</time>
      </trkpt>
      <trkpt lat="42.4177780" lon="-8.6336150">
        <ele>-4.2</ele>
        <time>2019-06-21T17:40:27Z</time>
      </trkpt>
      <trkpt lat="42.4179530" lon="-8.6337240">
        <ele>-4.2</ele>
        <time>2019-06-21T17:40:31Z</time>
      </trkpt>
      <trkpt lat="42.4179910" lon="-8.6337610">
        <ele>-4.2</ele>
        <time>2019-06-21T17:40:32Z</time>
      </trkpt>
      <trkpt lat="42.4180740" lon="-8.6339020">
        <ele>-4.0</ele>
        <time>2019-06-21T17:40:35Z</time>
      </trkpt>
      <trkpt lat="42.4181010" lon="-8.6339570">
        <ele>-4.2</ele>
        <time>2019-06-21T17:40:36Z</time>
      </trkpt>
      <trkpt lat="42.4182330" lon="-8.6342430">
        <ele>-4.4</ele>
        <time>2019-06-21T17:40:41Z</time>
      </trkpt>
      <trkpt lat="42.4182510" lon="-8.6343050">
        <ele>-4.4</ele>
        <time>2019-06-21T17:40:42Z</time>
      </trkpt>
      <trkpt lat="42.4183000" lon="-8.6344920">
        <ele>-4.8</ele>
        <time>2019-06-21T17:40:45Z</time>
      </trkpt>
      <trkpt lat="42.4183190" lon="-8.6346250">
        <ele>-4.6</ele>
        <time>2019-06-21T17:40:47Z</time>
      </trkpt>
      <trkpt lat="42.4183470" lon="-8.6349000">
        <ele>-5.4</ele>
        <time>2019-06-21T17:40:51Z</time>
      </trkpt>
      <trkpt lat="42.4183900" lon="-8.6351200">
        <ele>-5.4</ele>
        <time>2019-06-21T17:40:54Z</time>
      </trkpt>
      <trkpt lat="42.4185230" lon="-8.6356310">
        <ele>-6.2</ele>
        <time>2019-06-21T17:41:01Z</time>
      </trkpt>
      <trkpt lat="42.4185770" lon="-8.6358430">
        <ele>-6.4</ele>
        <time>2019-06-21T17:41:04Z</time>
      </trkpt>
      <trkpt lat="42.4186390" lon="-8.6360440">
        <ele>-6.6</ele>
        <time>2019-06-21T17:41:07Z</time>
      </trkpt>
      <trkpt lat="42.4186680" lon="-8.6361010">
        <ele>-6.6</ele>
        <time>2019-06-21T17:41:08Z</time>
      </trkpt>
      <trkpt lat="42.4187930" lon="-8.6361860">
        <ele>-6.4</ele>
        <time>2019-06-21T17:41:11Z</time>
      </trkpt>
      <trkpt lat="42.4188450" lon="-8.6361940">
        <ele>-6.4</ele>
        <time>2019-06-21T17:41:12Z</time>
      </trkpt>
      <trkpt lat="42.4191110" lon="-8.6362720">
        <ele>-6.2</ele>
        <time>2019-06-21T17:41:17Z</time>
      </trkpt>
      <trkpt lat="42.4195490" lon="-8.6364790">
        <ele>-5.8</ele>
        <time>2019-06-21T17:41:26Z</time>
      </trkpt>
      <trkpt lat="42.4196260" lon="-8.6365050">
        <ele>-5.4</ele>
        <time>2019-06-21T17:41:28Z</time>
      </trkpt>
      <trkpt lat="42.4197950" lon="-8.6365410">
        <ele>-4.8</ele>
        <time>2019-06-21T17:41:33Z</time>
      </trkpt>
      <trkpt lat="42.4198590" lon="-8.6365410">
        <ele>-4.4</ele>
        <time>2019-06-21T17:41:38Z</time>
      </trkpt>
      <trkpt lat="42.4199290" lon="-8.6365560">
        <ele>-3.8</ele>
        <time>2019-06-21T17:42:37Z</time>
      </trkpt>
      <trkpt lat="42.4199520" lon="-8.6365610">
        <ele>-3.6</ele>
        <time>2019-06-21T17:42:38Z</time>
      </trkpt>
      <trkpt lat="42.4199760" lon="-8.6365630">
        <ele>-3.6</ele>
        <time>2019-06-21T17:42:39Z</time>
      </trkpt>
      <trkpt lat="42.4201490" lon="-8.6365530">
        <ele>-3.4</ele>
        <time>2019-06-21T17:42:46Z</time>
      </trkpt>
      <trkpt lat="42.4202510" lon="-8.6365580">
        <ele>-2.2</ele>
        <time>2019-06-21T17:42:49Z</time>
      </trkpt>
      <trkpt lat="42.4204340" lon="-8.6365570">
        <ele>-2.0</ele>
        <time>2019-06-21T17:42:54Z</time>
      </trkpt>
      <trkpt lat="42.4205440" lon="-8.6365510">
        <ele>-1.4</ele>
        <time>2019-06-21T17:42:57Z</time>
      </trkpt>
      <trkpt lat="42.4205810" lon="-8.6365490">
        <ele>-1.2</ele>
        <time>2019-06-21T17:42:58Z</time>
      </trkpt>
      <trkpt lat="42.4207220" lon="-8.6365370">
        <ele>-0.8</ele>
        <time>2019-06-21T17:43:02Z</time>
      </trkpt>
      <trkpt lat="42.4208260" lon="-8.6365230">
        <ele>-0.4</ele>
        <time>2019-06-21T17:43:05Z</time>
      </trkpt>
      <trkpt lat="42.4209190" lon="-8.6365250">
        <ele>0.0</ele>
        <time>2019-06-21T17:43:08Z</time>
      </trkpt>
      <trkpt lat="42.4210580" lon="-8.6365060">
        <ele>0.0</ele>
        <time>2019-06-21T17:43:12Z</time>
      </trkpt>
      <trkpt lat="42.4212870" lon="-8.6364700">
        <ele>-0.2</ele>
        <time>2019-06-21T17:43:19Z</time>
      </trkpt>
      <trkpt lat="42.4215350" lon="-8.6364330">
        <ele>-0.2</ele>
        <time>2019-06-21T17:43:27Z</time>
      </trkpt>
      <trkpt lat="42.4215610" lon="-8.6364270">
        <ele>0.0</ele>
        <time>2019-06-21T17:43:28Z</time>
      </trkpt>
      <trkpt lat="42.4216630" lon="-8.6363840">
        <ele>-0.2</ele>
        <time>2019-06-21T17:43:32Z</time>
      </trkpt>
      <trkpt lat="42.4216980" lon="-8.6363730">
        <ele>-0.2</ele>
        <time>2019-06-21T17:43:34Z</time>
      </trkpt>
      <trkpt lat="42.4217530" lon="-8.6363670">
        <ele>-0.2</ele>
        <time>2019-06-21T17:43:38Z</time>
      </trkpt>
      <trkpt lat="42.4217810" lon="-8.6363650">
        <ele>-0.2</ele>
        <time>2019-06-21T17:43:40Z</time>
      </trkpt>
      <trkpt lat="42.4218490" lon="-8.6363270">
        <ele>-0.4</ele>
        <time>2019-06-21T17:44:15Z</time>
      </trkpt>
      <trkpt lat="42.4218250" lon="-8.6363180">
        <ele>-0.2</ele>
        <time>2019-06-21T17:44:16Z</time>
      </trkpt>
      <trkpt lat="42.4217500" lon="-8.6362980">
        <ele>-0.4</ele>
        <time>2019-06-21T17:44:19Z</time>
      </trkpt>
      <trkpt lat="42.4216920" lon="-8.6363030">
        <ele>0.0</ele>
        <time>2019-06-21T17:44:21Z</time>
      </trkpt>
      <trkpt lat="42.4216570" lon="-8.6363040">
        <ele>0.0</ele>
        <time>2019-06-21T17:44:22Z</time>
      </trkpt>
      <trkpt lat="42.4214650" lon="-8.6363340">
        <ele>0.0</ele>
        <time>2019-06-21T17:44:27Z</time>
      </trkpt>
      <trkpt lat="42.4213080" lon="-8.6363390">
        <ele>0.0</ele>
        <time>2019-06-21T17:44:31Z</time>
      </trkpt>
      <trkpt lat="42.4211990" lon="-8.6363300">
        <ele>0.0</ele>
        <time>2019-06-21T17:44:34Z</time>
      </trkpt>
      <trkpt lat="42.4208910" lon="-8.6363430">
        <ele>-0.4</ele>
        <time>2019-06-21T17:44:44Z</time>
      </trkpt>
      <trkpt lat="42.4205990" lon="-8.6363490">
        <ele>-0.6</ele>
        <time>2019-06-21T17:44:52Z</time>
      </trkpt>
      <trkpt lat="42.4204780" lon="-8.6363070">
        <ele>-0.4</ele>
        <time>2019-06-21T17:44:57Z</time>
      </trkpt>
      <trkpt lat="42.4204640" lon="-8.6362900">
        <ele>-0.4</ele>
        <time>2019-06-21T17:44:58Z</time>
      </trkpt>
      <trkpt lat="42.4204400" lon="-8.6362000">
        <ele>-1.0</ele>
        <time>2019-06-21T17:45:04Z</time>
      </trkpt>
      <trkpt lat="42.4204410" lon="-8.6362010">
        <ele>-1.0</ele>
        <time>2019-06-21T17:45:05Z</time>
      </trkpt>
      <trkpt lat="42.4203520" lon="-8.6361940">
        <ele>0.2</ele>
        <time>2019-06-21T17:45:23Z</time>
      </trkpt>
      <trkpt lat="42.4203320" lon="-8.6361970">
        <ele>0.0</ele>
        <time>2019-06-21T17:45:24Z</time>
      </trkpt>
      <trkpt lat="42.4203060" lon="-8.6362040">
        <ele>0.0</ele>
        <time>2019-06-21T17:45:25Z</time>
      </trkpt>
      <trkpt lat="42.4201210" lon="-8.6362190">
        <ele>-0.2</ele>
        <time>2019-06-21T17:45:32Z</time>
      </trkpt>
      <trkpt lat="42.4200940" lon="-8.6362240">
        <ele>-0.2</ele>
        <time>2019-06-21T17:45:33Z</time>
      </trkpt>
      <trkpt lat="42.4200020" lon="-8.6362440">
        <ele>-0.4</ele>
        <time>2019-06-21T17:45:37Z</time>
      </trkpt>
      <trkpt lat="42.4199520" lon="-8.6362750">
        <ele>-0.2</ele>
        <time>2019-06-21T17:45:40Z</time>
      </trkpt>
      <trkpt lat="42.4199450" lon="-8.6362930">
        <ele>-0.2</ele>
        <time>2019-06-21T17:45:41Z</time>
      </trkpt>
      <trkpt lat="42.4199070" lon="-8.6363360">
        <ele>-0.2</ele>
        <time>2019-06-21T17:45:44Z</time>
      </trkpt>
      <trkpt lat="42.4198730" lon="-8.6363450">
        <ele>-0.2</ele>
        <time>2019-06-21T17:45:46Z</time>
      </trkpt>
      <trkpt lat="42.4198530" lon="-8.6363460">
        <ele>-0.2</ele>
        <time>2019-06-21T17:45:47Z</time>
      </trkpt>
      <trkpt lat="42.4197100" lon="-8.6363500">
        <ele>-0.2</ele>
        <time>2019-06-21T17:45:54Z</time>
      </trkpt>
      <trkpt lat="42.4196630" lon="-8.6363210">
        <ele>-0.4</ele>
        <time>2019-06-21T17:45:59Z</time>
      </trkpt>
      <trkpt lat="41.7694480" lon="-8.5895200">
        <ele>25.2</ele>
        <time>2019-06-21T06:37:15Z</time>
      </trkpt>
      <trkpt lat="41.7694510" lon="-8.5895030">
        <ele>25.2</ele>
        <time>2019-06-21T06:37:19Z</time>
      </trkpt>
      <trkpt lat="41.7694780" lon="-8.5894780">
        <ele>25.8</ele>
        <time>2019-06-21T06:37:28Z</time>
      </trkpt>
      <trkpt lat="41.7695560" lon="-8.5894660">
        <ele>25.6</ele>
        <time>2019-06-21T06:37:36Z</time>
      </trkpt>
      <trkpt lat="41.7696200" lon="-8.5894450">
        <ele>25.4</ele>
        <time>2019-06-21T06:38:37Z</time>
      </trkpt>
      <trkpt lat="41.7696330" lon="-8.5894400">
        <ele>25.4</ele>
        <time>2019-06-21T06:38:38Z</time>
      </trkpt>
      <trkpt lat="41.7696480" lon="-8.5894360">
        <ele>25.4</ele>
        <time>2019-06-21T06:38:39Z</time>
      </trkpt>
      <trkpt lat="41.7697310" lon="-8.5894480">
        <ele>25.4</ele>
        <time>2019-06-21T06:38:44Z</time>
      </trkpt>
      <trkpt lat="41.7697660" lon="-8.5894620">
        <ele>25.4</ele>
        <time>2019-06-21T06:38:46Z</time>
      </trkpt>
      <trkpt lat="41.7698660" lon="-8.5896030">
        <ele>25.6</ele>
        <time>2019-06-21T06:38:54Z</time>
      </trkpt>
      <trkpt lat="41.7698820" lon="-8.5896140">
        <ele>25.6</ele>
        <time>2019-06-21T06:38:55Z</time>
      </trkpt>
      <trkpt lat="41.7699130" lon="-8.5895960">
        <ele>25.6</ele>
        <time>2019-06-21T06:38:58Z</time>
      </trkpt>
      <trkpt lat="41.7699730" lon="-8.5895470">
        <ele>25.6</ele>
        <time>2019-06-21T06:39:03Z</time>
      </trkpt>
      <trkpt lat="41.7700160" lon="-8.5895320">
        <ele>25.6</ele>
        <time>2019-06-21T06:39:06Z</time>
      </trkpt>
      <trkpt lat="41.7700890" lon="-8.5895030">
        <ele>25.6</ele>
        <time>2019-06-21T06:39:10Z</time>
      </trkpt>
      <trkpt lat="41.7701550" lon="-8.5894810">
        <ele>25.6</ele>
        <time>2019-06-21T06:39:13Z</time>
      </trkpt>
      <trkpt lat="41.7702810" lon="-8.5893940">
        <ele>25.6</ele>
        <time>2019-06-21T06:39:20Z</time>
      </trkpt>
      <trkpt lat="41.7704850" lon="-8.5893220">
        <ele>25.4</ele>
        <time>2019-06-21T06:39:27Z</time>
      </trkpt>
      <trkpt lat="41.7705260" lon="-8.5893140">
        <ele>25.4</ele>
        <time>2019-06-21T06:39:28Z</time>
      </trkpt>
      <trkpt lat="41.7707420" lon="-8.5892580">
        <ele>24.8</ele>
        <time>2019-06-21T06:39:34Z</time>
      </trkpt>
      <trkpt lat="41.7708960" lon="-8.5892050">
        <ele>24.8</ele>
        <time>2019-06-21T06:39:39Z</time>
      </trkpt>
      <trkpt lat="41.7709570" lon="-8.5891860">
        <ele>24.6</ele>
        <time>2019-06-21T06:39:41Z</time>
      </trkpt>
      <trkpt lat="41.7711960" lon="-8.5891390">
        <ele>24.4</ele>
        <time>2019-06-21T06:39:48Z</time>
      </trkpt>
      <trkpt lat="41.7713550" lon="-8.5891410">
        <ele>24.6</ele>
        <time>2019-06-21T06:39:53Z</time>
      </trkpt>
      <trkpt lat="41.7714160" lon="-8.5891460">
        <ele>24.6</ele>
        <time>2019-06-21T06:39:55Z</time>
      </trkpt>
      <trkpt lat="41.7715650" lon="-8.5891150">
        <ele>24.2</ele>
        <time>2019-06-21T06:40:01Z</time>
      </trkpt>
      <trkpt lat="41.7715830" lon="-8.5890970">
        <ele>24.0</ele>
        <time>2019-06-21T06:40:02Z</time>
      </trkpt>
      <trkpt lat="41.7716800" lon="-8.5889630">
        <ele>24.0</ele>
        <time>2019-06-21T06:40:08Z</time>
      </trkpt>
      <trkpt lat="41.7718070" lon="-8.5887250">
        <ele>23.8</ele>
        <time>2019-06-21T06:40:16Z</time>
      </trkpt>
      <trkpt lat="41.7719640" lon="-8.5884550">
        <ele>24.0</ele>
        <time>2019-06-21T06:40:24Z</time>
      </trkpt>
      <trkpt lat="41.7721080" lon="-8.5882570">
        <ele>23.6</ele>
        <time>2019-06-21T06:40:31Z</time>
      </trkpt>
      <trkpt lat="41.7721950" lon="-8.5882480">
        <ele>23.6</ele>
        <time>2019-06-21T06:40:34Z</time>
      </trkpt>
      <trkpt lat="41.7722250" lon="-8.5882540">
        <ele>23.6</ele>
        <time>2019-06-21T06:40:35Z</time>
      </trkpt>
      <trkpt lat="41.7723210" lon="-8.5882730">
        <ele>23.6</ele>
        <time>2019-06-21T06:40:38Z</time>
      </trkpt>
      <trkpt lat="41.7723880" lon="-8.5882880">
        <ele>23.6</ele>
        <time>2019-06-21T06:40:40Z</time>
      </trkpt>
      <trkpt lat="41.7725210" lon="-8.5883220">
        <ele>23.6</ele>
        <time>2019-06-21T06:40:44Z</time>
      </trkpt>
      <trkpt lat="41.7726250" lon="-8.5883440">
        <ele>23.6</ele>
        <time>2019-06-21T06:40:47Z</time>
      </trkpt>
      <trkpt lat="41.7728200" lon="-8.5884010">
        <ele>23.6</ele>
        <time>2019-06-21T06:40:53Z</time>
      </trkpt>
      <trkpt lat="41.7729110" lon="-8.5884120">
        <ele>23.6</ele>
        <time>2019-06-21T06:40:56Z</time>
      </trkpt>
      <trkpt lat="41.7730100" lon="-8.5884000">
        <ele>23.4</ele>
        <time>2019-06-21T06:40:59Z</time>
      </trkpt>
      <trkpt lat="41.7732300" lon="-8.5882660">
        <ele>23.6</ele>
        <time>2019-06-21T06:41:06Z</time>
      </trkpt>
      <trkpt lat="41.7733830" lon="-8.5880690">
        <ele>23.6</ele>
        <time>2019-06-21T06:41:12Z</time>
      </trkpt>
      <trkpt lat="41.7734590" lon="-8.5878680">
        <ele>23.6</ele>
        <time>2019-06-21T06:41:18Z</time>
      </trkpt>
      <trkpt lat="41.7734720" lon="-8.5878730">
        <ele>23.8</ele>
        <time>2019-06-21T06:41:22Z</time>
      </trkpt>
      <trkpt lat="41.7734680" lon="-8.5878940">
        <ele>23.8</ele>
        <time>2019-06-21T06:41:23Z</time>
      </trkpt>
      <trkpt lat="41.7734320" lon="-8.5879810">
        <ele>23.8</ele>
        <time>2019-06-21T06:41:27Z</time>
      </trkpt>
      <trkpt lat="41.7733300" lon="-8.5881530">
        <ele>23.6</ele>
        <time>2019-06-21T06:41:33Z</time>
      </trkpt>
      <trkpt lat="41.7731380" lon="-8.5883100">
        <ele>23.6</ele>
        <time>2019-06-21T06:41:40Z</time>
      </trkpt>
      <trkpt lat="41.7730710" lon="-8.5884170">
        <ele>23.2</ele>
        <time>2019-06-21T06:41:44Z</time>
      </trkpt>
      <trkpt lat="41.7730850" lon="-8.5884440">
        <ele>23.2</ele>
        <time>2019-06-21T06:41:45Z</time>
      </trkpt>
      <trkpt lat="41.7731470" lon="-8.5884920">
        <ele>23.0</ele>
        <time>2019-06-21T06:41:48Z</time>
      </trkpt>
      <trkpt lat="41.7731890" lon="-8.5885300">
        <ele>23.0</ele>
        <time>2019-06-21T06:41:50Z</time>
      </trkpt>
      <trkpt lat="41.7733460" lon="-8.5886890">
        <ele>23.0</ele>
        <time>2019-06-21T06:41:58Z</time>
      </trkpt>
      <trkpt lat="41.7735540" lon="-8.5888860">
        <ele>22.8</ele>
        <time>2019-06-21T06:42:07Z</time>
      </trkpt>
      <trkpt lat="41.7737740" lon="-8.5891040">
        <ele>22.8</ele>
        <time>2019-06-21T06:42:16Z</time>
      </trkpt>
      <trkpt lat="41.7739260" lon="-8.5892600">
        <ele>22.8</ele>
        <time>2019-06-21T06:42:23Z</time>
      </trkpt>
      <trkpt lat="41.7741460" lon="-8.5894650">
        <ele>23.2</ele>
        <time>2019-06-21T06:42:32Z</time>
      </trkpt>
      <trkpt lat="41.7743490" lon="-8.5896010">
        <ele>23.0</ele>
        <time>2019-06-21T06:42:39Z</time>
      </trkpt>
      <trkpt lat="41.7744350" lon="-8.5896590">
        <ele>23.0</ele>
        <time>2019-06-21T06:42:42Z</time>
      </trkpt>
      <trkpt lat="41.7746680" lon="-8.5898190">
        <ele>23.0</ele>
        <time>2019-06-21T06:42:50Z</time>
      </trkpt>
      <trkpt lat="41.7748200" lon="-8.5898890">
        <ele>22.8</ele>
        <time>2019-06-21T06:42:55Z</time>
      </trkpt>
      <trkpt lat="41.7748430" lon="-8.5898990">
        <ele>22.8</ele>
        <time>2019-06-21T06:42:56Z</time>
      </trkpt>
      <trkpt lat="41.7748630" lon="-8.5899000">
        <ele>22.4</ele>
        <time>2019-06-21T06:42:57Z</time>
      </trkpt>
      <trkpt lat="41.7748990" lon="-8.5898980">
        <ele>22.2</ele>
        <time>2019-06-21T06:42:59Z</time>
      </trkpt>
      <trkpt lat="41.7749170" lon="-8.5899050">
        <ele>22.0</ele>
        <time>2019-06-21T06:43:00Z</time>
      </trkpt>
      <trkpt lat="41.7749500" lon="-8.5899230">
        <ele>21.8</ele>
        <time>2019-06-21T06:43:02Z</time>
      </trkpt>
      <trkpt lat="41.7749960" lon="-8.5899760">
        <ele>22.0</ele>
        <time>2019-06-21T06:43:05Z</time>
      </trkpt>
      <trkpt lat="41.7750910" lon="-8.5900390">
        <ele>21.6</ele>
        <time>2019-06-21T06:43:10Z</time>
      </trkpt>
      <trkpt lat="41.7752240" lon="-8.5901060">
        <ele>21.8</ele>
        <time>2019-06-21T06:43:16Z</time>
      </trkpt>
      <trkpt lat="41.7753540" lon="-8.5901750">
        <ele>23.2</ele>
        <time>2019-06-21T06:43:46Z</time>
      </trkpt>
      <trkpt lat="41.7753520" lon="-8.5901750">
        <ele>23.4</ele>
        <time>2019-06-21T06:43:47Z</time>
      </trkpt>
      <trkpt lat="41.7754050" lon="-8.5901700">
        <ele>24.2</ele>
        <time>2019-06-21T06:43:52Z</time>
      </trkpt>
      <trkpt lat="41.7754160" lon="-8.5901660">
        <ele>24.4</ele>
        <time>2019-06-21T06:43:53Z</time>
      </trkpt>
      <trkpt lat="41.7754510" lon="-8.5901510">
        <ele>24.8</ele>
        <time>2019-06-21T06:43:57Z</time>
      </trkpt>
      <trkpt lat="41.7754960" lon="-8.5901580">
        <ele>25.0</ele>
        <time>2019-06-21T06:44:02Z</time>
      </trkpt>
      <trkpt lat="41.7755520" lon="-8.5901890">
        <ele>24.6</ele>
        <time>2019-06-21T06:44:06Z</time>
      </trkpt>
      <trkpt lat="41.7756620" lon="-8.5902020">
        <ele>21.8</ele>
        <time>2019-06-21T06:44:29Z</time>
      </trkpt>
      <trkpt lat="41.7756990" lon="-8.5901780">
        <ele>22.0</ele>
        <time>2019-06-21T06:44:32Z</time>
      </trkpt>
      <trkpt lat="41.7758340" lon="-8.5901010">
        <ele>22.2</ele>
        <time>2019-06-21T06:44:39Z</time>
      </trkpt>
      <trkpt lat="41.7760100" lon="-8.5900150">
        <ele>22.4</ele>
        <time>2019-06-21T06:44:46Z</time>
      </trkpt>
      <trkpt lat="41.7762140" lon="-8.5899580">
        <ele>22.4</ele>
        <time>2019-06-21T06:44:54Z</time>
      </trkpt>
      <trkpt lat="41.7762770" lon="-8.5899500">
        <ele>22.4</ele>
        <time>2019-06-21T06:44:59Z</time>
      </trkpt>
      <trkpt lat="41.7763440" lon="-8.5899230">
        <ele>22.4</ele>
        <time>2019-06-21T06:45:05Z</time>
      </trkpt>
      <trkpt lat="41.7763680" lon="-8.5899170">
        <ele>22.4</ele>
        <time>2019-06-21T06:45:08Z</time>
      </trkpt>
      <trkpt lat="41.7764220" lon="-8.5898950">
        <ele>22.4</ele>
        <time>2019-06-21T06:45:12Z</time>
      </trkpt>
      <trkpt lat="41.7765790" lon="-8.5898300">
        <ele>22.6</ele>
        <time>2019-06-21T06:45:19Z</time>
      </trkpt>
      <trkpt lat="41.7767530" lon="-8.5897800">
        <ele>23.0</ele>
        <time>2019-06-21T06:45:26Z</time>
      </trkpt>
      <trkpt lat="41.7767760" lon="-8.5897710">
        <ele>23.0</ele>
        <time>2019-06-21T06:45:27Z</time>
      </trkpt>
      <trkpt lat="41.7769650" lon="-8.5897150">
        <ele>22.6</ele>
        <time>2019-06-21T06:45:35Z</time>
      </trkpt>
      <trkpt lat="41.7771160" lon="-8.5897030">
        <ele>22.8</ele>
        <time>2019-06-21T06:45:41Z</time>
      </trkpt>
      <trkpt lat="41.7772490" lon="-8.5896990">
        <ele>22.6</ele>
        <time>2019-06-21T06:45:46Z</time>
      </trkpt>
      <trkpt lat="41.7774090" lon="-8.5896820">
        <ele>22.8</ele>
        <time>2019-06-21T06:45:53Z</time>
      </trkpt>
      <trkpt lat="41.7774590" lon="-8.5896800">
        <ele>22.8</ele>
        <time>2019-06-21T06:45:55Z</time>
      </trkpt>
      <trkpt lat="41.7775400" lon="-8.5897090">
        <ele>23.0</ele>
        <time>2019-06-21T06:45:58Z</time>
      </trkpt>
      <trkpt lat="41.7776730" lon="-8.5898040">
        <ele>23.0</ele>
        <time>2019-06-21T06:46:04Z</time>
      </trkpt>
      <trkpt lat="41.7778310" lon="-8.5898640">
        <ele>23.0</ele>
        <time>2019-06-21T06:46:10Z</time>
      </trkpt>
      <trkpt lat="41.7779710" lon="-8.5898980">
        <ele>23.4</ele>
        <time>2019-06-21T06:46:15Z</time>
      </trkpt>
      <trkpt lat="41.7781250" lon="-8.5899690">
        <ele>23.2</ele>
        <time>2019-06-21T06:46:21Z</time>
      </trkpt>
      <trkpt lat="41.7782780" lon="-8.5900340">
        <ele>23.6</ele>
        <time>2019-06-21T06:46:27Z</time>
      </trkpt>
      <trkpt lat="41.7784910" lon="-8.5901030">
        <ele>23.8</ele>
        <time>2019-06-21T06:46:35Z</time>
      </trkpt>
      <trkpt lat="41.7787170" lon="-8.5902140">
        <ele>24.0</ele>
        <time>2019-06-21T06:46:44Z</time>
      </trkpt>
      <trkpt lat="41.7787390" lon="-8.5902230">
        <ele>23.8</ele>
        <time>2019-06-21T06:46:45Z</time>
      </trkpt>
      <trkpt lat="41.7789120" lon="-8.5903120">
        <ele>24.0</ele>
        <time>2019-06-21T06:46:53Z</time>
      </trkpt>
      <trkpt lat="41.7790300" lon="-8.5903390">
        <ele>24.0</ele>
        <time>2019-06-21T06:46:59Z</time>
      </trkpt>
      <trkpt lat="41.7790460" lon="-8.5903370">
        <ele>24.0</ele>
        <time>2019-06-21T06:47:00Z</time>
      </trkpt>
      <trkpt lat="41.7791210" lon="-8.5903080">
        <ele>25.0</ele>
        <time>2019-06-21T06:47:06Z</time>
      </trkpt>
      <trkpt lat="41.7791290" lon="-8.5902980">
        <ele>25.2</ele>
        <time>2019-06-21T06:47:07Z</time>
      </trkpt>
      <trkpt lat="41.7791600" lon="-8.5902500">
        <ele>26.0</ele>
        <time>2019-06-21T06:47:11Z</time>
      </trkpt>
      <trkpt lat="41.7791830" lon="-8.5902320">
        <ele>26.0</ele>
        <time>2019-06-21T06:47:13Z</time>
      </trkpt>
      <trkpt lat="41.7792120" lon="-8.5902190">
        <ele>25.6</ele>
        <time>2019-06-21T06:47:55Z</time>
      </trkpt>
      <trkpt lat="41.7793740" lon="-8.5902160">
        <ele>24.6</ele>
        <time>2019-06-21T06:48:00Z</time>
      </trkpt>
      <trkpt lat="41.7795850" lon="-8.5902110">
        <ele>24.6</ele>
        <time>2019-06-21T06:48:07Z</time>
      </trkpt>
      <trkpt lat="41.7797610" lon="-8.5902110">
        <ele>24.6</ele>
        <time>2019-06-21T06:48:14Z</time>
      </trkpt>
      <trkpt lat="41.7799440" lon="-8.5902880">
        <ele>24.4</ele>
        <time>2019-06-21T06:48:20Z</time>
      </trkpt>
      <trkpt lat="41.7801210" lon="-8.5903860">
        <ele>24.6</ele>
        <time>2019-06-21T06:48:26Z</time>
      </trkpt>
      <trkpt lat="41.7802680" lon="-8.5904740">
        <ele>24.8</ele>
        <time>2019-06-21T06:48:31Z</time>
      </trkpt>
      <trkpt lat="41.7803340" lon="-8.5904980">
        <ele>24.8</ele>
        <time>2019-06-21T06:48:33Z</time>
      </trkpt>
      <trkpt lat="41.7805190" lon="-8.5905390">
        <ele>25.4</ele>
        <time>2019-06-21T06:48:39Z</time>
      </trkpt>
      <trkpt lat="41.7806240" lon="-8.5905910">
        <ele>25.6</ele>
        <time>2019-06-21T06:48:43Z</time>
      </trkpt>
      <trkpt lat="41.7806490" lon="-8.5906150">
        <ele>25.6</ele>
        <time>2019-06-21T06:48:44Z</time>
      </trkpt>
      <trkpt lat="41.7807980" lon="-8.5907340">
        <ele>26.2</ele>
        <time>2019-06-21T06:48:50Z</time>
      </trkpt>
      <trkpt lat="41.7808230" lon="-8.5907530">
        <ele>26.2</ele>
        <time>2019-06-21T06:48:51Z</time>
      </trkpt>
      <trkpt lat="41.7809700" lon="-8.5908860">
        <ele>26.8</ele>
        <time>2019-06-21T06:48:57Z</time>
      </trkpt>
      <trkpt lat="41.7809970" lon="-8.5909060">
        <ele>26.8</ele>
        <time>2019-06-21T06:48:58Z</time>
      </trkpt>
      <trkpt lat="41.7811850" lon="-8.5910650">
        <ele>27.0</ele>
        <time>2019-06-21T06:49:05Z</time>
      </trkpt>
      <trkpt lat="41.7813570" lon="-8.5911640">
        <ele>27.2</ele>
        <time>2019-06-21T06:49:11Z</time>
      </trkpt>
      <trkpt lat="41.7814350" lon="-8.5911960">
        <ele>27.2</ele>
        <time>2019-06-21T06:49:14Z</time>
      </trkpt>
      <trkpt lat="41.7815000" lon="-8.5912470">
        <ele>27.2</ele>
        <time>2019-06-21T06:49:17Z</time>
      </trkpt>
      <trkpt lat="41.7815960" lon="-8.5913060">
        <ele>27.6</ele>
        <time>2019-06-21T06:49:21Z</time>
      </trkpt>
      <trkpt lat="41.7817430" lon="-8.5913920">
        <ele>27.8</ele>
        <time>2019-06-21T06:49:27Z</time>
      </trkpt>
      <trkpt lat="41.7819130" lon="-8.5915670">
        <ele>27.6</ele>
        <time>2019-06-21T06:49:33Z</time>
      </trkpt>
      <trkpt lat="41.7821620" lon="-8.5918600">
        <ele>27.4</ele>
        <time>2019-06-21T06:49:41Z</time>
      </trkpt>
      <trkpt lat="41.7823670" lon="-8.5919970">
        <ele>27.0</ele>
        <time>2019-06-21T06:49:47Z</time>
      </trkpt>
      <trkpt lat="41.7825200" lon="-8.5920010">
        <ele>27.2</ele>
        <time>2019-06-21T06:49:51Z</time>
      </trkpt>
      <trkpt lat="41.7825950" lon="-8.5920030">
        <ele>27.2</ele>
        <time>2019-06-21T06:49:53Z</time>
      </trkpt>
      <trkpt lat="41.7827850" lon="-8.5919470">
        <ele>27.2</ele>
        <time>2019-06-21T06:49:58Z</time>
      </trkpt>
      <trkpt lat="41.7830200" lon="-8.5918940">
        <ele>26.8</ele>
        <time>2019-06-21T06:50:05Z</time>
      </trkpt>
      <trkpt lat="41.7832060" lon="-8.5918550">
        <ele>26.8</ele>
        <time>2019-06-21T06:50:11Z</time>
      </trkpt>
      <trkpt lat="41.7832750" lon="-8.5918490">
        <ele>26.8</ele>
        <time>2019-06-21T06:50:13Z</time>
      </trkpt>
      <trkpt lat="41.7835230" lon="-8.5918920">
        <ele>26.8</ele>
        <time>2019-06-21T06:50:20Z</time>
      </trkpt>
      <trkpt lat="41.7837510" lon="-8.5918470">
        <ele>26.8</ele>
        <time>2019-06-21T06:50:27Z</time>
      </trkpt>
      <trkpt lat="41.7839910" lon="-8.5917170">
        <ele>27.0</ele>
        <time>2019-06-21T06:50:35Z</time>
      </trkpt>
      <trkpt lat="41.7842170" lon="-8.5916030">
        <ele>27.0</ele>
        <time>2019-06-21T06:50:42Z</time>
      </trkpt>
      <trkpt lat="41.7844700" lon="-8.5914700">
        <ele>27.0</ele>
        <time>2019-06-21T06:50:49Z</time>
      </trkpt>
      <trkpt lat="41.7847850" lon="-8.5913770">
        <ele>27.0</ele>
        <time>2019-06-21T06:50:57Z</time>
      </trkpt>
      <trkpt lat="41.7850170" lon="-8.5913140">
        <ele>27.0</ele>
        <time>2019-06-21T06:51:03Z</time>
      </trkpt>
      <trkpt lat="41.7851900" lon="-8.5912680">
        <ele>27.4</ele>
        <time>2019-06-21T06:51:08Z</time>
      </trkpt>
      <trkpt lat="41.7853330" lon="-8.5912210">
        <ele>27.4</ele>
        <time>2019-06-21T06:51:12Z</time>
      </trkpt>
      <trkpt lat="41.7856110" lon="-8.5911670">
        <ele>27.8</ele>
        <time>2019-06-21T06:51:20Z</time>
      </trkpt>
      <trkpt lat="41.7856510" lon="-8.5911540">
        <ele>28.4</ele>
        <time>2019-06-21T06:51:22Z</time>
      </trkpt>
      <trkpt lat="41.7857220" lon="-8.5911320">
        <ele>29.0</ele>
        <time>2019-06-21T06:51:26Z</time>
      </trkpt>
      <trkpt lat="41.7858870" lon="-8.5910690">
        <ele>28.6</ele>
        <time>2019-06-21T06:51:31Z</time>
      </trkpt>
      <trkpt lat="41.7861770" lon="-8.5909820">
        <ele>27.8</ele>
        <time>2019-06-21T06:51:38Z</time>
      </trkpt>
      <trkpt lat="41.7864100" lon="-8.5909420">
        <ele>27.8</ele>
        <time>2019-06-21T06:51:44Z</time>
      </trkpt>
      <trkpt lat="41.7866740" lon="-8.5909190">
        <ele>27.8</ele>
        <time>2019-06-21T06:51:51Z</time>
      </trkpt>
      <trkpt lat="41.7869180" lon="-8.5909530">
        <ele>27.8</ele>
        <time>2019-06-21T06:51:58Z</time>
      </trkpt>
      <trkpt lat="41.7871130" lon="-8.5910240">
        <ele>28.2</ele>
        <time>2019-06-21T06:52:04Z</time>
      </trkpt>
      <trkpt lat="41.7873240" lon="-8.5910590">
        <ele>28.4</ele>
        <time>2019-06-21T06:52:10Z</time>
      </trkpt>
      <trkpt lat="41.7875940" lon="-8.5911860">
        <ele>28.4</ele>
        <time>2019-06-21T06:52:18Z</time>
      </trkpt>
      <trkpt lat="41.7878680" lon="-8.5912750">
        <ele>29.2</ele>
        <time>2019-06-21T06:52:26Z</time>
      </trkpt>
      <trkpt lat="41.7881480" lon="-8.5912620">
        <ele>29.4</ele>
        <time>2019-06-21T06:52:34Z</time>
      </trkpt>
      <trkpt lat="41.7882540" lon="-8.5912560">
        <ele>29.6</ele>
        <time>2019-06-21T06:52:37Z</time>
      </trkpt>
      <trkpt lat="41.7885050" lon="-8.5912420">
        <ele>29.8</ele>
        <time>2019-06-21T06:52:44Z</time>
      </trkpt>
      <trkpt lat="41.7887240" lon="-8.5913260">
        <ele>30.2</ele>
        <time>2019-06-21T06:52:51Z</time>
      </trkpt>
      <trkpt lat="41.7887710" lon="-8.5913780">
        <ele>30.6</ele>
        <time>2019-06-21T06:52:53Z</time>
      </trkpt>
      <trkpt lat="41.7888950" lon="-8.5915040">
        <ele>30.6</ele>
        <time>2019-06-21T06:52:58Z</time>
      </trkpt>
      <trkpt lat="41.7890800" lon="-8.5915800">
        <ele>30.8</ele>
        <time>2019-06-21T06:53:04Z</time>
      </trkpt>
      <trkpt lat="41.7892660" lon="-8.5916860">
        <ele>31.6</ele>
        <time>2019-06-21T06:53:10Z</time>
      </trkpt>
      <trkpt lat="41.7893300" lon="-8.5917240">
        <ele>31.6</ele>
        <time>2019-06-21T06:53:12Z</time>
      </trkpt>
      <trkpt lat="41.7895210" lon="-8.5918360">
        <ele>31.8</ele>
        <time>2019-06-21T06:53:18Z</time>
      </trkpt>
      <trkpt lat="41.7897520" lon="-8.5920120">
        <ele>32.4</ele>
        <time>2019-06-21T06:53:26Z</time>
      </trkpt>
      <trkpt lat="41.7899270" lon="-8.5920750">
        <ele>32.6</ele>
        <time>2019-06-21T06:53:32Z</time>
      </trkpt>
      <trkpt lat="41.7899590" lon="-8.5920800">
        <ele>32.8</ele>
        <time>2019-06-21T06:53:33Z</time>
      </trkpt>
      <trkpt lat="41.7901970" lon="-8.5920940">
        <ele>33.6</ele>
        <time>2019-06-21T06:53:41Z</time>
      </trkpt>
      <trkpt lat="41.7902220" lon="-8.5920920">
        <ele>34.0</ele>
        <time>2019-06-21T06:53:42Z</time>
      </trkpt>
      <trkpt lat="41.7903320" lon="-8.5920800">
        <ele>34.4</ele>
        <time>2019-06-21T06:53:47Z</time>
      </trkpt>
      <trkpt lat="41.7903560" lon="-8.5920690">
        <ele>34.6</ele>
        <time>2019-06-21T06:53:48Z</time>
      </trkpt>
      <trkpt lat="41.7905110" lon="-8.5919690">
        <ele>34.8</ele>
        <time>2019-06-21T06:53:54Z</time>
      </trkpt>
      <trkpt lat="41.7906510" lon="-8.5917630">
        <ele>34.4</ele>
        <time>2019-06-21T06:54:00Z</time>
      </trkpt>
      <trkpt lat="41.7907280" lon="-8.5914970">
        <ele>33.8</ele>
        <time>2019-06-21T06:54:06Z</time>
      </trkpt>
      <trkpt lat="41.7907180" lon="-8.5914160">
        <ele>33.4</ele>
        <time>2019-06-21T06:54:09Z</time>
      </trkpt>
      <trkpt lat="41.7907170" lon="-8.5913620">
        <ele>33.4</ele>
        <time>2019-06-21T06:54:11Z</time>
      </trkpt>
      <trkpt lat="41.7907470" lon="-8.5913150">
        <ele>33.2</ele>
        <time>2019-06-21T06:54:13Z</time>
      </trkpt>
      <trkpt lat="41.7908030" lon="-8.5913110">
        <ele>33.2</ele>
        <time>2019-06-21T06:54:15Z</time>
      </trkpt>
      <trkpt lat="41.7908520" lon="-8.5913290">
        <ele>33.4</ele>
        <time>2019-06-21T06:54:17Z</time>
      </trkpt>
      <trkpt lat="41.7909330" lon="-8.5913970">
        <ele>34.2</ele>
        <time>2019-06-21T06:54:21Z</time>
      </trkpt>
      <trkpt lat="41.7910500" lon="-8.5915150">
        <ele>35.0</ele>
        <time>2019-06-21T06:54:28Z</time>
      </trkpt>
      <trkpt lat="41.7910790" lon="-8.5915560">
        <ele>35.4</ele>
        <time>2019-06-21T06:54:30Z</time>
      </trkpt>
      <trkpt lat="41.7911430" lon="-8.5916250">
        <ele>36.2</ele>
        <time>2019-06-21T06:54:34Z</time>
      </trkpt>
      <trkpt lat="41.7912140" lon="-8.5917130">
        <ele>37.2</ele>
        <time>2019-06-21T06:54:39Z</time>
      </trkpt>
      <trkpt lat="41.7912260" lon="-8.5917300">
        <ele>37.4</ele>
        <time>2019-06-21T06:54:40Z</time>
      </trkpt>
      <trkpt lat="41.7912850" lon="-8.5918080">
        <ele>38.2</ele>
        <time>2019-06-21T06:54:45Z</time>
      </trkpt>
      <trkpt lat="41.7913290" lon="-8.5918430">
        <ele>38.8</ele>
        <time>2019-06-21T06:54:48Z</time>
      </trkpt>
      <trkpt lat="41.7913670" lon="-8.5918910">
        <ele>39.4</ele>
        <time>2019-06-21T06:54:51Z</time>
      </trkpt>
      <trkpt lat="41.7914100" lon="-8.5919530">
        <ele>40.4</ele>
        <time>2019-06-21T06:54:55Z</time>
      </trkpt>
      <trkpt lat="41.7914220" lon="-8.5919650">
        <ele>40.6</ele>
        <time>2019-06-21T06:54:56Z</time>
      </trkpt>
      <trkpt lat="41.7914800" lon="-8.5920320">
        <ele>41.4</ele>
        <time>2019-06-21T06:55:01Z</time>
      </trkpt>
      <trkpt lat="41.7915030" lon="-8.5920520">
        <ele>42.0</ele>
        <time>2019-06-21T06:55:03Z</time>
      </trkpt>
      <trkpt lat="41.7915560" lon="-8.5921200">
        <ele>42.6</ele>
        <time>2019-06-21T06:55:08Z</time>
      </trkpt>
      <trkpt lat="41.7915750" lon="-8.5921490">
        <ele>43.0</ele>
        <time>2019-06-21T06:55:10Z</time>
      </trkpt>
      <trkpt lat="41.7916210" lon="-8.5922340">
        <ele>43.8</ele>
        <time>2019-06-21T06:55:15Z</time>
      </trkpt>
      <trkpt lat="41.7916510" lon="-8.5922860">
        <ele>44.2</ele>
        <time>2019-06-21T06:55:18Z</time>
      </trkpt>
      <trkpt lat="41.7917070" lon="-8.5923620">
        <ele>44.8</ele>
        <time>2019-06-21T06:55:23Z</time>
      </trkpt>
      <trkpt lat="41.7917400" lon="-8.5923750">
        <ele>44.8</ele>
        <time>2019-06-21T06:55:25Z</time>
      </trkpt>
      <trkpt lat="41.7918880" lon="-8.5924420">
        <ele>45.8</ele>
        <time>2019-06-21T06:55:33Z</time>
      </trkpt>
      <trkpt lat="41.7919080" lon="-8.5924500">
        <ele>45.8</ele>
        <time>2019-06-21T06:55:34Z</time>
      </trkpt>
      <trkpt lat="41.7920390" lon="-8.5925070">
        <ele>46.6</ele>
        <time>2019-06-21T06:55:41Z</time>
      </trkpt>
      <trkpt lat="41.7920900" lon="-8.5925370">
        <ele>46.8</ele>
        <time>2019-06-21T06:55:44Z</time>
      </trkpt>
      <trkpt lat="41.7922060" lon="-8.5925740">
        <ele>46.6</ele>
        <time>2019-06-21T06:55:49Z</time>
      </trkpt>
      <trkpt lat="41.7922880" lon="-8.5925890">
        <ele>46.4</ele>
        <time>2019-06-21T06:55:51Z</time>
      </trkpt>
      <trkpt lat="41.7923920" lon="-8.5925820">
        <ele>45.6</ele>
        <time>2019-06-21T06:55:53Z</time>
      </trkpt>
      <trkpt lat="41.7925080" lon="-8.5925860">
        <ele>44.8</ele>
        <time>2019-06-21T06:55:55Z</time>
      </trkpt>
      <trkpt lat="41.7925630" lon="-8.5925970">
        <ele>44.4</ele>
        <time>2019-06-21T06:55:56Z</time>
      </trkpt>
      <trkpt lat="41.7926140" lon="-8.5926090">
        <ele>44.2</ele>
        <time>2019-06-21T06:55:57Z</time>
      </trkpt>
      <trkpt lat="41.7927640" lon="-8.5926270">
        <ele>43.6</ele>
        <time>2019-06-21T06:56:00Z</time>
      </trkpt>
      <trkpt lat="41.7928070" lon="-8.5926270">
        <ele>43.4</ele>
        <time>2019-06-21T06:56:01Z</time>
      </trkpt>
      <trkpt lat="41.7928500" lon="-8.5926340">
        <ele>43.2</ele>
        <time>2019-06-21T06:56:02Z</time>
      </trkpt>
      <trkpt lat="41.7929420" lon="-8.5926470">
        <ele>42.8</ele>
        <time>2019-06-21T06:56:04Z</time>
      </trkpt>
      <trkpt lat="41.7930380" lon="-8.5926740">
        <ele>42.2</ele>
        <time>2019-06-21T06:56:06Z</time>
      </trkpt>
      <trkpt lat="41.7931310" lon="-8.5927330">
        <ele>42.0</ele>
        <time>2019-06-21T06:56:08Z</time>
      </trkpt>
      <trkpt lat="41.7933030" lon="-8.5928770">
        <ele>41.6</ele>
        <time>2019-06-21T06:56:12Z</time>
      </trkpt>
      <trkpt lat="41.7933880" lon="-8.5929430">
        <ele>41.4</ele>
        <time>2019-06-21T06:56:14Z</time>
      </trkpt>
      <trkpt lat="41.7934850" lon="-8.5929600">
        <ele>41.4</ele>
        <time>2019-06-21T06:56:16Z</time>
      </trkpt>
      <trkpt lat="41.7935320" lon="-8.5929410">
        <ele>41.2</ele>
        <time>2019-06-21T06:56:17Z</time>
      </trkpt>
      <trkpt lat="41.7936650" lon="-8.5928490">
        <ele>41.0</ele>
        <time>2019-06-21T06:56:20Z</time>
      </trkpt>
      <trkpt lat="41.7939540" lon="-8.5926970">
        <ele>40.2</ele>
        <time>2019-06-21T06:56:26Z</time>
      </trkpt>
      <trkpt lat="41.7940100" lon="-8.5926830">
        <ele>40.0</ele>
        <time>2019-06-21T06:56:27Z</time>
      </trkpt>
      <trkpt lat="41.7942630" lon="-8.5926680">
        <ele>39.0</ele>
        <time>2019-06-21T06:56:32Z</time>
      </trkpt>
      <trkpt lat="41.7942990" lon="-8.5926320">
        <ele>38.6</ele>
        <time>2019-06-21T06:56:34Z</time>
      </trkpt>
      <trkpt lat="41.7943020" lon="-8.5925890">
        <ele>38.4</ele>
        <time>2019-06-21T06:56:35Z</time>
      </trkpt>
      <trkpt lat="41.7942980" lon="-8.5924700">
        <ele>38.0</ele>
        <time>2019-06-21T06:56:37Z</time>
      </trkpt>
      <trkpt lat="41.7943120" lon="-8.5923230">
        <ele>37.2</ele>
        <time>2019-06-21T06:56:39Z</time>
      </trkpt>
      <trkpt lat="41.7943270" lon="-8.5922550">
        <ele>37.0</ele>
        <time>2019-06-21T06:56:40Z</time>
      </trkpt>
      <trkpt lat="41.7944140" lon="-8.5921810">
        <ele>36.4</ele>
        <time>2019-06-21T06:56:42Z</time>
      </trkpt>
      <trkpt lat="41.7944660" lon="-8.5921540">
        <ele>36.2</ele>
        <time>2019-06-21T06:56:43Z</time>
      </trkpt>
      <trkpt lat="41.7945680" lon="-8.5920980">
        <ele>35.8</ele>
        <time>2019-06-21T06:56:45Z</time>
      </trkpt>
      <trkpt lat="41.7948150" lon="-8.5919270">
        <ele>35.2</ele>
        <time>2019-06-21T06:56:50Z</time>
      </trkpt>
      <trkpt lat="41.7948600" lon="-8.5918880">
        <ele>35.2</ele>
        <time>2019-06-21T06:56:51Z</time>
      </trkpt>
      <trkpt lat="41.7949060" lon="-8.5918600">
        <ele>35.0</ele>
        <time>2019-06-21T06:56:52Z</time>
      </trkpt>
      <trkpt lat="41.7949550" lon="-8.5918570">
        <ele>34.8</ele>
        <time>2019-06-21T06:56:53Z</time>
      </trkpt>
      <trkpt lat="41.7949950" lon="-8.5918740">
        <ele>34.8</ele>
        <time>2019-06-21T06:56:54Z</time>
      </trkpt>
      <trkpt lat="41.7950430" lon="-8.5919170">
        <ele>35.0</ele>
        <time>2019-06-21T06:56:56Z</time>
      </trkpt>
      <trkpt lat="41.7950530" lon="-8.5919270">
        <ele>35.2</ele>
        <time>2019-06-21T06:56:57Z</time>
      </trkpt>
      <trkpt lat="41.7950920" lon="-8.5919720">
        <ele>36.0</ele>
        <time>2019-06-21T06:57:00Z</time>
      </trkpt>
      <trkpt lat="41.7951060" lon="-8.5919840">
        <ele>36.2</ele>
        <time>2019-06-21T06:57:01Z</time>
      </trkpt>
      <trkpt lat="41.7951200" lon="-8.5919910">
        <ele>36.2</ele>
        <time>2019-06-21T06:57:02Z</time>
      </trkpt>
      <trkpt lat="41.7951520" lon="-8.5920000">
        <ele>36.6</ele>
        <time>2019-06-21T06:57:04Z</time>
      </trkpt>
      <trkpt lat="41.7951820" lon="-8.5919940">
        <ele>36.8</ele>
        <time>2019-06-21T06:57:06Z</time>
      </trkpt>
      <trkpt lat="41.7952080" lon="-8.5919670">
        <ele>37.0</ele>
        <time>2019-06-21T06:57:08Z</time>
      </trkpt>
      <trkpt lat="41.7952430" lon="-8.5918850">
        <ele>37.8</ele>
        <time>2019-06-21T06:57:13Z</time>
      </trkpt>
      <trkpt lat="41.7952470" lon="-8.5918650">
        <ele>37.8</ele>
        <time>2019-06-21T06:57:14Z</time>
      </trkpt>
      <trkpt lat="41.7952560" lon="-8.5918510">
        <ele>38.0</ele>
        <time>2019-06-21T06:57:15Z</time>
      </trkpt>
      <trkpt lat="41.7952630" lon="-8.5918360">
        <ele>38.2</ele>
        <time>2019-06-21T06:57:16Z</time>
      </trkpt>
      <trkpt lat="41.7953030" lon="-8.5917970">
        <ele>38.6</ele>
        <time>2019-06-21T06:57:19Z</time>
      </trkpt>
      <trkpt lat="41.7954190" lon="-8.5917180">
        <ele>38.6</ele>
        <time>2019-06-21T06:57:26Z</time>
      </trkpt>
      <trkpt lat="41.7955320" lon="-8.5916220">
        <ele>38.6</ele>
        <time>2019-06-21T06:57:31Z</time>
      </trkpt>
      <trkpt lat="41.7955870" lon="-8.5915700">
        <ele>38.0</ele>
        <time>2019-06-21T06:57:33Z</time>
      </trkpt>
      <trkpt lat="41.7956720" lon="-8.5914340">
        <ele>37.0</ele>
        <time>2019-06-21T06:57:37Z</time>
      </trkpt>
      <trkpt lat="41.7956920" lon="-8.5913920">
        <ele>36.8</ele>
        <time>2019-06-21T06:57:38Z</time>
      </trkpt>
      <trkpt lat="41.7957570" lon="-8.5913180">
        <ele>36.2</ele>
        <time>2019-06-21T06:57:40Z</time>
      </trkpt>
      <trkpt lat="41.7957980" lon="-8.5912850">
        <ele>36.0</ele>
        <time>2019-06-21T06:57:41Z</time>
      </trkpt>
      <trkpt lat="41.7958390" lon="-8.5912540">
        <ele>35.8</ele>
        <time>2019-06-21T06:57:42Z</time>
      </trkpt>
      <trkpt lat="41.7959900" lon="-8.5911230">
        <ele>35.0</ele>
        <time>2019-06-21T06:57:46Z</time>
      </trkpt>
      <trkpt lat="41.7960210" lon="-8.5910860">
        <ele>34.6</ele>
        <time>2019-06-21T06:57:47Z</time>
      </trkpt>
      <trkpt lat="41.7960520" lon="-8.5910470">
        <ele>34.4</ele>
        <time>2019-06-21T06:57:48Z</time>
      </trkpt>
      <trkpt lat="41.7961040" lon="-8.5909560">
        <ele>34.6</ele>
        <time>2019-06-21T06:57:50Z</time>
      </trkpt>
      <trkpt lat="41.7962030" lon="-8.5907700">
        <ele>34.4</ele>
        <time>2019-06-21T06:57:54Z</time>
      </trkpt>
      <trkpt lat="41.7962240" lon="-8.5907200">
        <ele>34.2</ele>
        <time>2019-06-21T06:57:55Z</time>
      </trkpt>
      <trkpt lat="41.7962580" lon="-8.5906210">
        <ele>33.8</ele>
        <time>2019-06-21T06:57:57Z</time>
      </trkpt>
      <trkpt lat="41.7963100" lon="-8.5904240">
        <ele>33.6</ele>
        <time>2019-06-21T06:58:01Z</time>
      </trkpt>
      <trkpt lat="41.7963630" lon="-8.5903640">
        <ele>33.4</ele>
        <time>2019-06-21T06:58:03Z</time>
      </trkpt>
      <trkpt lat="41.7964310" lon="-8.5903280">
        <ele>33.2</ele>
        <time>2019-06-21T06:58:05Z</time>
      </trkpt>
      <trkpt lat="41.7965050" lon="-8.5903100">
        <ele>33.2</ele>
        <time>2019-06-21T06:58:07Z</time>
      </trkpt>
      <trkpt lat="41.7966150" lon="-8.5903190">
        <ele>32.8</ele>
        <time>2019-06-21T06:58:10Z</time>
      </trkpt>
      <trkpt lat="41.7966490" lon="-8.5903210">
        <ele>32.8</ele>
        <time>2019-06-21T06:58:11Z</time>
      </trkpt>
      <trkpt lat="41.7968550" lon="-8.5903910">
        <ele>32.8</ele>
        <time>2019-06-21T06:58:17Z</time>
      </trkpt>
      <trkpt lat="41.7970810" lon="-8.5905850">
        <ele>33.0</ele>
        <time>2019-06-21T06:58:24Z</time>
      </trkpt>
      <trkpt lat="41.7971660" lon="-8.5907050">
        <ele>33.2</ele>
        <time>2019-06-21T06:58:29Z</time>
      </trkpt>
      <trkpt lat="41.7971900" lon="-8.5907330">
        <ele>33.6</ele>
        <time>2019-06-21T06:58:31Z</time>
      </trkpt>
      <trkpt lat="41.7972020" lon="-8.5907470">
        <ele>34.0</ele>
        <time>2019-06-21T06:58:32Z</time>
      </trkpt>
      <trkpt lat="41.7972260" lon="-8.5907870">
        <ele>34.4</ele>
        <time>2019-06-21T06:58:35Z</time>
      </trkpt>
      <trkpt lat="41.7972570" lon="-8.5908360">
        <ele>35.0</ele>
        <time>2019-06-21T06:58:39Z</time>
      </trkpt>
      <trkpt lat="41.7972960" lon="-8.5908840">
        <ele>35.6</ele>
        <time>2019-06-21T06:58:43Z</time>
      </trkpt>
      <trkpt lat="41.7973200" lon="-8.5909190">
        <ele>35.8</ele>
        <time>2019-06-21T06:58:46Z</time>
      </trkpt>
      <trkpt lat="41.7973470" lon="-8.5909690">
        <ele>36.0</ele>
        <time>2019-06-21T06:58:50Z</time>
      </trkpt>
      <trkpt lat="41.7973620" lon="-8.5909910">
        <ele>36.4</ele>
        <time>2019-06-21T06:58:52Z</time>
      </trkpt>
      <trkpt lat="41.7974110" lon="-8.5910400">
        <ele>36.8</ele>
        <time>2019-06-21T06:58:56Z</time>
      </trkpt>
      <trkpt lat="41.7974360" lon="-8.5910780">
        <ele>37.0</ele>
        <time>2019-06-21T06:58:58Z</time>
      </trkpt>
      <trkpt lat="41.7975560" lon="-8.5912280">
        <ele>36.6</ele>
        <time>2019-06-21T06:59:05Z</time>
      </trkpt>
      <trkpt lat="41.7976270" lon="-8.5913300">
        <ele>36.4</ele>
        <time>2019-06-21T06:59:09Z</time>
      </trkpt>
      <trkpt lat="41.7976780" lon="-8.5914160">
        <ele>36.4</ele>
        <time>2019-06-21T06:59:12Z</time>
      </trkpt>
      <trkpt lat="41.7978340" lon="-8.5915390">
        <ele>36.6</ele>
        <time>2019-06-21T06:59:19Z</time>
      </trkpt>
      <trkpt lat="41.7978960" lon="-8.5915930">
        <ele>37.0</ele>
        <time>2019-06-21T06:59:22Z</time>
      </trkpt>
      <trkpt lat="41.7979970" lon="-8.5916650">
        <ele>37.8</ele>
        <time>2019-06-21T06:59:27Z</time>
      </trkpt>
      <trkpt lat="41.7980520" lon="-8.5917300">
        <ele>38.2</ele>
        <time>2019-06-21T06:59:30Z</time>
      </trkpt>
      <trkpt lat="41.7981410" lon="-8.5918560">
        <ele>38.2</ele>
        <time>2019-06-21T06:59:35Z</time>
      </trkpt>
      <trkpt lat="41.7983180" lon="-8.5919380">
        <ele>37.6</ele>
        <time>2019-06-21T06:59:40Z</time>
      </trkpt>
      <trkpt lat="41.7983690" lon="-8.5919390">
        <ele>37.4</ele>
        <time>2019-06-21T06:59:41Z</time>
      </trkpt>
      <trkpt lat="41.7984240" lon="-8.5919250">
        <ele>37.0</ele>
        <time>2019-06-21T06:59:42Z</time>
      </trkpt>
      <trkpt lat="41.7984750" lon="-8.5918990">
        <ele>36.8</ele>
        <time>2019-06-21T06:59:43Z</time>
      </trkpt>
      <trkpt lat="41.7985720" lon="-8.5918370">
        <ele>36.6</ele>
        <time>2019-06-21T06:59:45Z</time>
      </trkpt>
      <trkpt lat="41.7987110" lon="-8.5917760">
        <ele>36.6</ele>
        <time>2019-06-21T06:59:48Z</time>
      </trkpt>
      <trkpt lat="41.7987490" lon="-8.5917760">
        <ele>36.6</ele>
        <time>2019-06-21T06:59:49Z</time>
      </trkpt>
      <trkpt lat="41.7988110" lon="-8.5917980">
        <ele>37.2</ele>
        <time>2019-06-21T06:59:52Z</time>
      </trkpt>
      <trkpt lat="41.7988760" lon="-8.5918290">
        <ele>38.2</ele>
        <time>2019-06-21T06:59:56Z</time>
      </trkpt>
      <trkpt lat="41.7989290" lon="-8.5918390">
        <ele>39.0</ele>
        <time>2019-06-21T07:00:00Z</time>
      </trkpt>
      <trkpt lat="41.7989400" lon="-8.5918320">
        <ele>39.2</ele>
        <time>2019-06-21T07:00:01Z</time>
      </trkpt>
      <trkpt lat="41.7990020" lon="-8.5917880">
        <ele>40.2</ele>
        <time>2019-06-21T07:00:06Z</time>
      </trkpt>
      <trkpt lat="41.7990110" lon="-8.5917750">
        <ele>40.4</ele>
        <time>2019-06-21T07:00:07Z</time>
      </trkpt>
      <trkpt lat="41.7990480" lon="-8.5916880">
        <ele>41.6</ele>
        <time>2019-06-21T07:00:12Z</time>
      </trkpt>
      <trkpt lat="41.7990530" lon="-8.5916690">
        <ele>41.8</ele>
        <time>2019-06-21T07:00:13Z</time>
      </trkpt>
      <trkpt lat="41.7990760" lon="-8.5915750">
        <ele>42.8</ele>
        <time>2019-06-21T07:00:18Z</time>
      </trkpt>
      <trkpt lat="41.7990980" lon="-8.5915160">
        <ele>43.4</ele>
        <time>2019-06-21T07:00:21Z</time>
      </trkpt>
      <trkpt lat="41.7991100" lon="-8.5914790">
        <ele>43.8</ele>
        <time>2019-06-21T07:00:23Z</time>
      </trkpt>
      <trkpt lat="41.7991440" lon="-8.5914210">
        <ele>44.4</ele>
        <time>2019-06-21T07:00:27Z</time>
      </trkpt>
      <trkpt lat="41.7992000" lon="-8.5913290">
        <ele>45.0</ele>
        <time>2019-06-21T07:00:32Z</time>
      </trkpt>
      <trkpt lat="41.7992150" lon="-8.5912870">
        <ele>45.4</ele>
        <time>2019-06-21T07:00:34Z</time>
      </trkpt>
      <trkpt lat="41.7992250" lon="-8.5912670">
        <ele>45.4</ele>
        <time>2019-06-21T07:00:35Z</time>
      </trkpt>
      <trkpt lat="41.7992800" lon="-8.5911870">
        <ele>46.4</ele>
        <time>2019-06-21T07:00:40Z</time>
      </trkpt>
      <trkpt lat="41.7994170" lon="-8.5911550">
        <ele>46.0</ele>
        <time>2019-06-21T07:00:45Z</time>
      </trkpt>
      <trkpt lat="41.7995470" lon="-8.5911080">
        <ele>45.4</ele>
        <time>2019-06-21T07:00:48Z</time>
      </trkpt>
      <trkpt lat="41.7996460" lon="-8.5910840">
        <ele>45.0</ele>
        <time>2019-06-21T07:00:50Z</time>
      </trkpt>
      <trkpt lat="41.7997530" lon="-8.5910750">
        <ele>44.6</ele>
        <time>2019-06-21T07:00:52Z</time>
      </trkpt>
      <trkpt lat="41.7998670" lon="-8.5911030">
        <ele>44.2</ele>
        <time>2019-06-21T07:00:54Z</time>
      </trkpt>
      <trkpt lat="41.7999250" lon="-8.5911240">
        <ele>44.0</ele>
        <time>2019-06-21T07:00:55Z</time>
      </trkpt>
      <trkpt lat="41.8000390" lon="-8.5911780">
        <ele>43.4</ele>
        <time>2019-06-21T07:00:57Z</time>
      </trkpt>
      <trkpt lat="41.8001980" lon="-8.5912730">
        <ele>43.4</ele>
        <time>2019-06-21T07:01:00Z</time>
      </trkpt>
      <trkpt lat="41.8002470" lon="-8.5913140">
        <ele>43.2</ele>
        <time>2019-06-21T07:01:01Z</time>
      </trkpt>
      <trkpt lat="41.8002940" lon="-8.5913550">
        <ele>43.2</ele>
        <time>2019-06-21T07:01:02Z</time>
      </trkpt>
      <trkpt lat="41.8004670" lon="-8.5915320">
        <ele>43.2</ele>
        <time>2019-06-21T07:01:06Z</time>
      </trkpt>
      <trkpt lat="41.8005030" lon="-8.5915820">
        <ele>43.0</ele>
        <time>2019-06-21T07:01:07Z</time>
      </trkpt>
      <trkpt lat="41.8005370" lon="-8.5916340">
        <ele>43.0</ele>
        <time>2019-06-21T07:01:08Z</time>
      </trkpt>
      <trkpt lat="41.8005970" lon="-8.5917370">
        <ele>42.6</ele>
        <time>2019-06-21T07:01:10Z</time>
      </trkpt>
      <trkpt lat="41.8006520" lon="-8.5918400">
        <ele>42.6</ele>
        <time>2019-06-21T07:01:12Z</time>
      </trkpt>
      <trkpt lat="41.8006760" lon="-8.5918950">
        <ele>42.4</ele>
        <time>2019-06-21T07:01:13Z</time>
      </trkpt>
      <trkpt lat="41.8007230" lon="-8.5919950">
        <ele>42.4</ele>
        <time>2019-06-21T07:01:15Z</time>
      </trkpt>
      <trkpt lat="41.8008410" lon="-8.5922110">
        <ele>42.2</ele>
        <time>2019-06-21T07:01:20Z</time>
      </trkpt>
      <trkpt lat="41.8008900" lon="-8.5922840">
        <ele>42.2</ele>
        <time>2019-06-21T07:01:22Z</time>
      </trkpt>
      <trkpt lat="41.8010690" lon="-8.5925660">
        <ele>41.8</ele>
        <time>2019-06-21T07:01:29Z</time>
      </trkpt>
      <trkpt lat="41.8011120" lon="-8.5926680">
        <ele>41.8</ele>
        <time>2019-06-21T07:01:31Z</time>
      </trkpt>
      <trkpt lat="41.8011640" lon="-8.5928260">
        <ele>41.6</ele>
        <time>2019-06-21T07:01:34Z</time>
      </trkpt>
      <trkpt lat="41.8012480" lon="-8.5929700">
        <ele>42.0</ele>
        <time>2019-06-21T07:01:38Z</time>
      </trkpt>
      <trkpt lat="41.8013500" lon="-8.5930660">
        <ele>42.6</ele>
        <time>2019-06-21T07:01:42Z</time>
      </trkpt>
      <trkpt lat="41.8014010" lon="-8.5931190">
        <ele>43.2</ele>
        <time>2019-06-21T07:01:44Z</time>
      </trkpt>
      <trkpt lat="41.8014690" lon="-8.5931850">
        <ele>44.0</ele>
        <time>2019-06-21T07:01:47Z</time>
      </trkpt>
      <trkpt lat="41.8015230" lon="-8.5932320">
        <ele>44.4</ele>
        <time>2019-06-21T07:01:49Z</time>
      </trkpt>
      <trkpt lat="41.8015780" lon="-8.5932810">
        <ele>44.8</ele>
        <time>2019-06-21T07:01:51Z</time>
      </trkpt>
      <trkpt lat="41.8016990" lon="-8.5934070">
        <ele>45.0</ele>
        <time>2019-06-21T07:01:56Z</time>
      </trkpt>
      <trkpt lat="41.8017480" lon="-8.5934490">
        <ele>45.0</ele>
        <time>2019-06-21T07:01:58Z</time>
      </trkpt>
      <trkpt lat="41.8018950" lon="-8.5934920">
        <ele>45.0</ele>
        <time>2019-06-21T07:02:04Z</time>
      </trkpt>
      <trkpt lat="41.8020040" lon="-8.5934240">
        <ele>45.2</ele>
        <time>2019-06-21T07:02:08Z</time>
      </trkpt>
      <trkpt lat="41.8020940" lon="-8.5933650">
        <ele>45.4</ele>
        <time>2019-06-21T07:02:12Z</time>
      </trkpt>
      <trkpt lat="41.8021830" lon="-8.5932830">
        <ele>45.6</ele>
        <time>2019-06-21T07:02:16Z</time>
      </trkpt>
      <trkpt lat="41.8023550" lon="-8.5932270">
        <ele>45.6</ele>
        <time>2019-06-21T07:02:22Z</time>
      </trkpt>
      <trkpt lat="41.8024680" lon="-8.5933290">
        <ele>46.2</ele>
        <time>2019-06-21T07:02:27Z</time>
      </trkpt>
      <trkpt lat="41.8025470" lon="-8.5933790">
        <ele>46.6</ele>
        <time>2019-06-21T07:02:31Z</time>
      </trkpt>
      <trkpt lat="41.8025790" lon="-8.5933830">
        <ele>46.8</ele>
        <time>2019-06-21T07:02:33Z</time>
      </trkpt>
      <trkpt lat="41.8026080" lon="-8.5933610">
        <ele>47.2</ele>
        <time>2019-06-21T07:02:36Z</time>
      </trkpt>
      <trkpt lat="41.8026280" lon="-8.5933230">
        <ele>47.4</ele>
        <time>2019-06-21T07:02:39Z</time>
      </trkpt>
      <trkpt lat="41.8026430" lon="-8.5932900">
        <ele>47.6</ele>
        <time>2019-06-21T07:02:41Z</time>
      </trkpt>
      <trkpt lat="41.8026830" lon="-8.5932170">
        <ele>48.2</ele>
        <time>2019-06-21T07:02:46Z</time>
      </trkpt>
      <trkpt lat="41.8026950" lon="-8.5931930">
        <ele>48.4</ele>
        <time>2019-06-21T07:02:47Z</time>
      </trkpt>
      <trkpt lat="41.8027300" lon="-8.5931450">
        <ele>49.0</ele>
        <time>2019-06-21T07:02:50Z</time>
      </trkpt>
      <trkpt lat="41.8027650" lon="-8.5931070">
        <ele>49.8</ele>
        <time>2019-06-21T07:02:53Z</time>
      </trkpt>
      <trkpt lat="41.8027770" lon="-8.5930920">
        <ele>50.0</ele>
        <time>2019-06-21T07:02:54Z</time>
      </trkpt>
      <trkpt lat="41.8027960" lon="-8.5930600">
        <ele>50.4</ele>
        <time>2019-06-21T07:02:56Z</time>
      </trkpt>
      <trkpt lat="41.8028120" lon="-8.5930310">
        <ele>50.6</ele>
        <time>2019-06-21T07:02:58Z</time>
      </trkpt>
      <trkpt lat="41.8028210" lon="-8.5930240">
        <ele>50.8</ele>
        <time>2019-06-21T07:02:59Z</time>
      </trkpt>
      <trkpt lat="41.8028350" lon="-8.5929960">
        <ele>51.0</ele>
        <time>2019-06-21T07:03:01Z</time>
      </trkpt>
      <trkpt lat="41.8028430" lon="-8.5929830">
        <ele>51.2</ele>
        <time>2019-06-21T07:03:02Z</time>
      </trkpt>
      <trkpt lat="41.8028820" lon="-8.5929220">
        <ele>51.8</ele>
        <time>2019-06-21T07:03:06Z</time>
      </trkpt>
      <trkpt lat="41.8029530" lon="-8.5928180">
        <ele>52.2</ele>
        <time>2019-06-21T07:03:13Z</time>
      </trkpt>
      <trkpt lat="41.8030100" lon="-8.5927200">
        <ele>53.6</ele>
        <time>2019-06-21T07:03:20Z</time>
      </trkpt>
      <trkpt lat="41.8030360" lon="-8.5926830">
        <ele>54.2</ele>
        <time>2019-06-21T07:03:23Z</time>
      </trkpt>
      <trkpt lat="41.8030600" lon="-8.5926340">
        <ele>54.6</ele>
        <time>2019-06-21T07:03:26Z</time>
      </trkpt>
      <trkpt lat="41.8030800" lon="-8.5925800">
        <ele>55.2</ele>
        <time>2019-06-21T07:03:29Z</time>
      </trkpt>
      <trkpt lat="41.8031120" lon="-8.5925460">
        <ele>55.8</ele>
        <time>2019-06-21T07:03:32Z</time>
      </trkpt>
      <trkpt lat="41.8031260" lon="-8.5925200">
        <ele>56.2</ele>
        <time>2019-06-21T07:03:34Z</time>
      </trkpt>
      <trkpt lat="41.8031370" lon="-8.5925080">
        <ele>56.4</ele>
        <time>2019-06-21T07:03:35Z</time>
      </trkpt>
      <trkpt lat="41.8031820" lon="-8.5924390">
        <ele>57.0</ele>
        <time>2019-06-21T07:03:40Z</time>
      </trkpt>
      <trkpt lat="41.8031950" lon="-8.5924300">
        <ele>57.0</ele>
        <time>2019-06-21T07:03:41Z</time>
      </trkpt>
      <trkpt lat="41.8032770" lon="-8.5924430">
        <ele>58.0</ele>
        <time>2019-06-21T07:03:47Z</time>
      </trkpt>
      <trkpt lat="41.8033240" lon="-8.5925280">
        <ele>58.2</ele>
        <time>2019-06-21T07:03:52Z</time>
      </trkpt>
      <trkpt lat="41.8033930" lon="-8.5926290">
        <ele>57.6</ele>
        <time>2019-06-21T07:03:56Z</time>
      </trkpt>
      <trkpt lat="41.8034170" lon="-8.5926600">
        <ele>57.2</ele>
        <time>2019-06-21T07:03:57Z</time>
      </trkpt>
      <trkpt lat="41.8034430" lon="-8.5926930">
        <ele>56.6</ele>
        <time>2019-06-21T07:03:58Z</time>
      </trkpt>
      <trkpt lat="41.8034990" lon="-8.5927700">
        <ele>55.6</ele>
        <time>2019-06-21T07:04:00Z</time>
      </trkpt>
      <trkpt lat="41.8035550" lon="-8.5928490">
        <ele>54.6</ele>
        <time>2019-06-21T07:04:02Z</time>
      </trkpt>
      <trkpt lat="41.8035790" lon="-8.5928910">
        <ele>54.2</ele>
        <time>2019-06-21T07:04:03Z</time>
      </trkpt>
      <trkpt lat="41.8036240" lon="-8.5929690">
        <ele>53.0</ele>
        <time>2019-06-21T07:04:05Z</time>
      </trkpt>
      <trkpt lat="41.8036700" lon="-8.5930450">
        <ele>51.6</ele>
        <time>2019-06-21T07:04:07Z</time>
      </trkpt>
      <trkpt lat="41.8037330" lon="-8.5931090">
        <ele>50.6</ele>
        <time>2019-06-21T07:04:09Z</time>
      </trkpt>
      <trkpt lat="41.8037730" lon="-8.5931300">
        <ele>50.2</ele>
        <time>2019-06-21T07:04:10Z</time>
      </trkpt>
      <trkpt lat="41.8039060" lon="-8.5931880">
        <ele>49.6</ele>
        <time>2019-06-21T07:04:13Z</time>
      </trkpt>
      <trkpt lat="41.8039510" lon="-8.5932040">
        <ele>49.2</ele>
        <time>2019-06-21T07:04:14Z</time>
      </trkpt>
      <trkpt lat="41.8039960" lon="-8.5932210">
        <ele>48.8</ele>
        <time>2019-06-21T07:04:15Z</time>
      </trkpt>
      <trkpt lat="41.8040970" lon="-8.5932980">
        <ele>48.0</ele>
        <time>2019-06-21T07:04:19Z</time>
      </trkpt>
      <trkpt lat="41.8041560" lon="-8.5933950">
        <ele>48.0</ele>
        <time>2019-06-21T07:04:33Z</time>
      </trkpt>
      <trkpt lat="41.8041670" lon="-8.5934250">
        <ele>47.8</ele>
        <time>2019-06-21T07:04:36Z</time>
      </trkpt>
      <trkpt lat="41.8041690" lon="-8.5934360">
        <ele>47.8</ele>
        <time>2019-06-21T07:04:37Z</time>
      </trkpt>
      <trkpt lat="41.8041760" lon="-8.5934490">
        <ele>47.6</ele>
        <time>2019-06-21T07:04:38Z</time>
      </trkpt>
      <trkpt lat="41.8042250" lon="-8.5936090">
        <ele>47.6</ele>
        <time>2019-06-21T07:04:46Z</time>
      </trkpt>
      <trkpt lat="41.8042030" lon="-8.5937810">
        <ele>47.4</ele>
        <time>2019-06-21T07:04:54Z</time>
      </trkpt>
      <trkpt lat="41.8042010" lon="-8.5939140">
        <ele>47.2</ele>
        <time>2019-06-21T07:04:59Z</time>
      </trkpt>
      <trkpt lat="41.8042070" lon="-8.5939370">
        <ele>47.0</ele>
        <time>2019-06-21T07:05:00Z</time>
      </trkpt>
      <trkpt lat="41.8042410" lon="-8.5940310">
        <ele>47.0</ele>
        <time>2019-06-21T07:05:04Z</time>
      </trkpt>
      <trkpt lat="41.8042770" lon="-8.5940940">
        <ele>47.0</ele>
        <time>2019-06-21T07:05:07Z</time>
      </trkpt>
      <trkpt lat="41.8042880" lon="-8.5941120">
        <ele>47.0</ele>
        <time>2019-06-21T07:05:08Z</time>
      </trkpt>
      <trkpt lat="41.8043130" lon="-8.5941510">
        <ele>47.0</ele>
        <time>2019-06-21T07:05:10Z</time>
      </trkpt>
      <trkpt lat="41.8043520" lon="-8.5942180">
        <ele>47.0</ele>
        <time>2019-06-21T07:05:13Z</time>
      </trkpt>
      <trkpt lat="41.8043720" lon="-8.5942640">
        <ele>47.0</ele>
        <time>2019-06-21T07:05:15Z</time>
      </trkpt>
      <trkpt lat="41.8044280" lon="-8.5944530">
        <ele>46.8</ele>
        <time>2019-06-21T07:05:22Z</time>
      </trkpt>
      <trkpt lat="41.8044510" lon="-8.5945370">
        <ele>46.6</ele>
        <time>2019-06-21T07:05:25Z</time>
      </trkpt>
      <trkpt lat="41.8045060" lon="-8.5946280">
        <ele>46.8</ele>
        <time>2019-06-21T07:05:29Z</time>
      </trkpt>
      <trkpt lat="41.8046420" lon="-8.5948090">
        <ele>47.2</ele>
        <time>2019-06-21T07:05:36Z</time>
      </trkpt>
      <trkpt lat="41.8047840" lon="-8.5949470">
        <ele>47.2</ele>
        <time>2019-06-21T07:05:42Z</time>
      </trkpt>
      <trkpt lat="41.8048130" lon="-8.5949560">
        <ele>47.2</ele>
        <time>2019-06-21T07:05:43Z</time>
      </trkpt>
      <trkpt lat="41.8049210" lon="-8.5949410">
        <ele>47.6</ele>
        <time>2019-06-21T07:05:47Z</time>
      </trkpt>
      <trkpt lat="41.8049720" lon="-8.5949370">
        <ele>47.8</ele>
        <time>2019-06-21T07:05:49Z</time>
      </trkpt>
      <trkpt lat="41.8050340" lon="-8.5949680">
        <ele>48.4</ele>
        <time>2019-06-21T07:05:52Z</time>
      </trkpt>
      <trkpt lat="41.8050710" lon="-8.5949980">
        <ele>49.0</ele>
        <time>2019-06-21T07:05:54Z</time>
      </trkpt>
      <trkpt lat="41.8051260" lon="-8.5950330">
        <ele>49.4</ele>
        <time>2019-06-21T07:05:57Z</time>
      </trkpt>
      <trkpt lat="41.8051630" lon="-8.5950540">
        <ele>50.0</ele>
        <time>2019-06-21T07:05:59Z</time>
      </trkpt>
      <trkpt lat="41.8052170" lon="-8.5950640">
        <ele>50.4</ele>
        <time>2019-06-21T07:06:02Z</time>
      </trkpt>
      <trkpt lat="41.8053450" lon="-8.5951450">
        <ele>51.0</ele>
        <time>2019-06-21T07:06:08Z</time>
      </trkpt>
      <trkpt lat="41.8053760" lon="-8.5951720">
        <ele>50.8</ele>
        <time>2019-06-21T07:06:09Z</time>
      </trkpt>
      <trkpt lat="41.8055130" lon="-8.5952910">
        <ele>49.8</ele>
        <time>2019-06-21T07:06:12Z</time>
      </trkpt>
      <trkpt lat="41.8055490" lon="-8.5953530">
        <ele>49.4</ele>
        <time>2019-06-21T07:06:13Z</time>
      </trkpt>
      <trkpt lat="41.8056030" lon="-8.5954910">
        <ele>48.8</ele>
        <time>2019-06-21T07:06:15Z</time>
      </trkpt>
      <trkpt lat="41.8056510" lon="-8.5956310">
        <ele>48.8</ele>
        <time>2019-06-21T07:06:17Z</time>
      </trkpt>
      <trkpt lat="41.8058700" lon="-8.5960540">
        <ele>48.0</ele>
        <time>2019-06-21T07:06:24Z</time>
      </trkpt>
      <trkpt lat="41.8059850" lon="-8.5961960">
        <ele>47.6</ele>
        <time>2019-06-21T07:06:27Z</time>
      </trkpt>
      <trkpt lat="41.8060590" lon="-8.5962810">
        <ele>47.4</ele>
        <time>2019-06-21T07:06:29Z</time>
      </trkpt>
      <trkpt lat="41.8061220" lon="-8.5963670">
        <ele>47.4</ele>
        <time>2019-06-21T07:06:31Z</time>
      </trkpt>
      <trkpt lat="41.8062510" lon="-8.5965400">
        <ele>47.0</ele>
        <time>2019-06-21T07:06:35Z</time>
      </trkpt>
      <trkpt lat="41.8063360" lon="-8.5966740">
        <ele>47.0</ele>
        <time>2019-06-21T07:06:38Z</time>
      </trkpt>
      <trkpt lat="41.8064300" lon="-8.5968100">
        <ele>46.8</ele>
        <time>2019-06-21T07:06:41Z</time>
      </trkpt>
      <trkpt lat="41.8064650" lon="-8.5968470">
        <ele>46.8</ele>
        <time>2019-06-21T07:06:42Z</time>
      </trkpt>
      <trkpt lat="41.8065390" lon="-8.5969140">
        <ele>46.8</ele>
        <time>2019-06-21T07:06:44Z</time>
      </trkpt>
      <trkpt lat="41.8066180" lon="-8.5969760">
        <ele>47.0</ele>
        <time>2019-06-21T07:06:46Z</time>
      </trkpt>
      <trkpt lat="41.8069240" lon="-8.5972060">
        <ele>47.0</ele>
        <time>2019-06-21T07:06:54Z</time>
      </trkpt>
      <trkpt lat="41.8071700" lon="-8.5973790">
        <ele>47.2</ele>
        <time>2019-06-21T07:07:01Z</time>
      </trkpt>
      <trkpt lat="41.8074190" lon="-8.5974960">
        <ele>47.0</ele>
        <time>2019-06-21T07:07:08Z</time>
      </trkpt>
      <trkpt lat="41.8075610" lon="-8.5974910">
        <ele>48.0</ele>
        <time>2019-06-21T07:07:13Z</time>
      </trkpt>
      <trkpt lat="41.8076570" lon="-8.5975310">
        <ele>48.6</ele>
        <time>2019-06-21T07:07:17Z</time>
      </trkpt>
      <trkpt lat="41.8077070" lon="-8.5975620">
        <ele>49.0</ele>
        <time>2019-06-21T07:07:19Z</time>
      </trkpt>
      <trkpt lat="41.8078060" lon="-8.5976550">
        <ele>49.2</ele>
        <time>2019-06-21T07:07:23Z</time>
      </trkpt>
      <trkpt lat="41.8079160" lon="-8.5977710">
        <ele>49.2</ele>
        <time>2019-06-21T07:07:27Z</time>
      </trkpt>
      <trkpt lat="41.8081180" lon="-8.5979640">
        <ele>49.2</ele>
        <time>2019-06-21T07:07:33Z</time>
      </trkpt>
      <trkpt lat="41.8081560" lon="-8.5979950">
        <ele>49.0</ele>
        <time>2019-06-21T07:07:34Z</time>
      </trkpt>
      <trkpt lat="41.8084300" lon="-8.5981620">
        <ele>48.2</ele>
        <time>2019-06-21T07:07:40Z</time>
      </trkpt>
      <trkpt lat="41.8084770" lon="-8.5981900">
        <ele>48.2</ele>
        <time>2019-06-21T07:07:41Z</time>
      </trkpt>
      <trkpt lat="41.8087060" lon="-8.5983530">
        <ele>48.0</ele>
        <time>2019-06-21T07:07:47Z</time>
      </trkpt>
      <trkpt lat="41.8088190" lon="-8.5984230">
        <ele>49.0</ele>
        <time>2019-06-21T07:07:52Z</time>
      </trkpt>
      <trkpt lat="41.8088710" lon="-8.5984390">
        <ele>49.8</ele>
        <time>2019-06-21T07:07:55Z</time>
      </trkpt>
      <trkpt lat="41.8088970" lon="-8.5984480">
        <ele>50.4</ele>
        <time>2019-06-21T07:07:57Z</time>
      </trkpt>
      <trkpt lat="41.8089070" lon="-8.5984500">
        <ele>50.6</ele>
        <time>2019-06-21T07:07:58Z</time>
      </trkpt>
      <trkpt lat="41.8089280" lon="-8.5984620">
        <ele>51.0</ele>
        <time>2019-06-21T07:08:00Z</time>
      </trkpt>
      <trkpt lat="41.8089690" lon="-8.5984900">
        <ele>51.6</ele>
        <time>2019-06-21T07:08:04Z</time>
      </trkpt>
      <trkpt lat="41.8089780" lon="-8.5985070">
        <ele>51.8</ele>
        <time>2019-06-21T07:08:05Z</time>
      </trkpt>
      <trkpt lat="41.8089880" lon="-8.5985200">
        <ele>52.0</ele>
        <time>2019-06-21T07:08:06Z</time>
      </trkpt>
      <trkpt lat="41.8090000" lon="-8.5985280">
        <ele>52.2</ele>
        <time>2019-06-21T07:08:07Z</time>
      </trkpt>
      <trkpt lat="41.8090630" lon="-8.5985710">
        <ele>53.0</ele>
        <time>2019-06-21T07:08:12Z</time>
      </trkpt>
      <trkpt lat="41.8090880" lon="-8.5985770">
        <ele>53.4</ele>
        <time>2019-06-21T07:08:14Z</time>
      </trkpt>
      <trkpt lat="41.8091260" lon="-8.5985870">
        <ele>54.2</ele>
        <time>2019-06-21T07:08:17Z</time>
      </trkpt>
      <trkpt lat="41.8091570" lon="-8.5985980">
        <ele>54.8</ele>
        <time>2019-06-21T07:08:19Z</time>
      </trkpt>
      <trkpt lat="41.8091870" lon="-8.5986180">
        <ele>55.2</ele>
        <time>2019-06-21T07:08:21Z</time>
      </trkpt>
      <trkpt lat="41.8092390" lon="-8.5986290">
        <ele>55.8</ele>
        <time>2019-06-21T07:08:24Z</time>
      </trkpt>
      <trkpt lat="41.8092940" lon="-8.5986190">
        <ele>56.4</ele>
        <time>2019-06-21T07:08:27Z</time>
      </trkpt>
      <trkpt lat="41.8093940" lon="-8.5985920">
        <ele>57.6</ele>
        <time>2019-06-21T07:08:32Z</time>
      </trkpt>
      <trkpt lat="41.8094510" lon="-8.5985830">
        <ele>58.4</ele>
        <time>2019-06-21T07:08:35Z</time>
      </trkpt>
      <trkpt lat="41.8094900" lon="-8.5985800">
        <ele>58.8</ele>
        <time>2019-06-21T07:08:37Z</time>
      </trkpt>
      <trkpt lat="41.8095920" lon="-8.5985300">
        <ele>60.0</ele>
        <time>2019-06-21T07:08:43Z</time>
      </trkpt>
      <trkpt lat="41.8096100" lon="-8.5985190">
        <ele>60.2</ele>
        <time>2019-06-21T07:08:44Z</time>
      </trkpt>
      <trkpt lat="41.8097160" lon="-8.5984160">
        <ele>61.0</ele>
        <time>2019-06-21T07:08:51Z</time>
      </trkpt>
      <trkpt lat="41.8097300" lon="-8.5983980">
        <ele>61.2</ele>
        <time>2019-06-21T07:08:52Z</time>
      </trkpt>
      <trkpt lat="41.8097960" lon="-8.5983260">
        <ele>62.2</ele>
        <time>2019-06-21T07:08:57Z</time>
      </trkpt>
      <trkpt lat="41.8098590" lon="-8.5982950">
        <ele>63.0</ele>
        <time>2019-06-21T07:09:01Z</time>
      </trkpt>
      <trkpt lat="41.8098760" lon="-8.5983000">
        <ele>63.2</ele>
        <time>2019-06-21T07:09:02Z</time>
      </trkpt>
      <trkpt lat="41.8099450" lon="-8.5983110">
        <ele>64.0</ele>
        <time>2019-06-21T07:09:07Z</time>
      </trkpt>
      <trkpt lat="41.8099780" lon="-8.5983260">
        <ele>64.2</ele>
        <time>2019-06-21T07:09:09Z</time>
      </trkpt>
      <trkpt lat="41.8100680" lon="-8.5983870">
        <ele>63.8</ele>
        <time>2019-06-21T07:09:13Z</time>
      </trkpt>
      <trkpt lat="41.8101680" lon="-8.5985030">
        <ele>63.0</ele>
        <time>2019-06-21T07:09:17Z</time>
      </trkpt>
      <trkpt lat="41.8101890" lon="-8.5985350">
        <ele>62.6</ele>
        <time>2019-06-21T07:09:18Z</time>
      </trkpt>
      <trkpt lat="41.8102390" lon="-8.5986070">
        <ele>61.6</ele>
        <time>2019-06-21T07:09:20Z</time>
      </trkpt>
      <trkpt lat="41.8103070" lon="-8.5986720">
        <ele>60.8</ele>
        <time>2019-06-21T07:09:22Z</time>
      </trkpt>
      <trkpt lat="41.8103470" lon="-8.5987010">
        <ele>60.4</ele>
        <time>2019-06-21T07:09:23Z</time>
      </trkpt>
      <trkpt lat="41.8103910" lon="-8.5987190">
        <ele>60.2</ele>
        <time>2019-06-21T07:09:24Z</time>
      </trkpt>
      <trkpt lat="41.8104870" lon="-8.5987340">
        <ele>59.8</ele>
        <time>2019-06-21T07:09:26Z</time>
      </trkpt>
      <trkpt lat="41.8105310" lon="-8.5987360">
        <ele>59.4</ele>
        <time>2019-06-21T07:09:27Z</time>
      </trkpt>
      <trkpt lat="41.8105740" lon="-8.5987300">
        <ele>59.2</ele>
        <time>2019-06-21T07:09:28Z</time>
      </trkpt>
      <trkpt lat="41.8106360" lon="-8.5986950">
        <ele>58.4</ele>
        <time>2019-06-21T07:09:30Z</time>
      </trkpt>
      <trkpt lat="41.8106550" lon="-8.5986700">
        <ele>58.0</ele>
        <time>2019-06-21T07:09:31Z</time>
      </trkpt>
      <trkpt lat="41.8106870" lon="-8.5986190">
        <ele>57.4</ele>
        <time>2019-06-21T07:09:33Z</time>
      </trkpt>
      <trkpt lat="41.8107190" lon="-8.5985890">
        <ele>57.0</ele>
        <time>2019-06-21T07:09:35Z</time>
      </trkpt>
      <trkpt lat="41.8107540" lon="-8.5985710">
        <ele>56.0</ele>
        <time>2019-06-21T07:09:37Z</time>
      </trkpt>
      <trkpt lat="41.8108020" lon="-8.5985930">
        <ele>55.0</ele>
        <time>2019-06-21T07:09:38Z</time>
      </trkpt>
      <trkpt lat="41.8109260" lon="-8.5986930">
        <ele>53.6</ele>
        <time>2019-06-21T07:09:40Z</time>
      </trkpt>
      <trkpt lat="41.8111960" lon="-8.5988840">
        <ele>52.6</ele>
        <time>2019-06-21T07:09:45Z</time>
      </trkpt>
      <trkpt lat="41.8112480" lon="-8.5988970">
        <ele>52.6</ele>
        <time>2019-06-21T07:09:46Z</time>
      </trkpt>
      <trkpt lat="41.8113980" lon="-8.5988740">
        <ele>51.6</ele>
        <time>2019-06-21T07:09:50Z</time>
      </trkpt>
      <trkpt lat="41.8114950" lon="-8.5988450">
        <ele>51.4</ele>
        <time>2019-06-21T07:09:53Z</time>
      </trkpt>
      <trkpt lat="41.8115590" lon="-8.5988330">
        <ele>51.0</ele>
        <time>2019-06-21T07:09:55Z</time>
      </trkpt>
      <trkpt lat="41.8116170" lon="-8.5988240">
        <ele>51.0</ele>
        <time>2019-06-21T07:09:57Z</time>
      </trkpt>
      <trkpt lat="41.8116670" lon="-8.5988130">
        <ele>50.8</ele>
        <time>2019-06-21T07:09:59Z</time>
      </trkpt>
      <trkpt lat="41.8117350" lon="-8.5987280">
        <ele>51.0</ele>
        <time>2019-06-21T07:10:15Z</time>
      </trkpt>
      <trkpt lat="41.8117050" lon="-8.5986500">
        <ele>51.0</ele>
        <time>2019-06-21T07:10:23Z</time>
      </trkpt>
      <trkpt lat="41.8116900" lon="-8.5986140">
        <ele>52.2</ele>
        <time>2019-06-21T07:10:30Z</time>
      </trkpt>
      <trkpt lat="41.8117350" lon="-8.5986390">
        <ele>52.2</ele>
        <time>2019-06-21T07:10:33Z</time>
      </trkpt>
      <trkpt lat="41.8118610" lon="-8.5987100">
        <ele>51.4</ele>
        <time>2019-06-21T07:10:39Z</time>
      </trkpt>
      <trkpt lat="41.8119480" lon="-8.5987300">
        <ele>50.4</ele>
        <time>2019-06-21T07:10:43Z</time>
      </trkpt>
      <trkpt lat="41.8119850" lon="-8.5987350">
        <ele>50.2</ele>
        <time>2019-06-21T07:10:45Z</time>
      </trkpt>
      <trkpt lat="41.8120330" lon="-8.5987900">
        <ele>49.8</ele>
        <time>2019-06-21T07:10:51Z</time>
      </trkpt>
      <trkpt lat="41.8120590" lon="-8.5988140">
        <ele>49.8</ele>
        <time>2019-06-21T07:11:15Z</time>
      </trkpt>
      <trkpt lat="41.8120850" lon="-8.5988250">
        <ele>49.8</ele>
        <time>2019-06-21T07:11:17Z</time>
      </trkpt>
      <trkpt lat="41.8121370" lon="-8.5989010">
        <ele>50.4</ele>
        <time>2019-06-21T07:11:23Z</time>
      </trkpt>
      <trkpt lat="41.8121430" lon="-8.5989360">
        <ele>50.6</ele>
        <time>2019-06-21T07:11:25Z</time>
      </trkpt>
      <trkpt lat="41.8121680" lon="-8.5990250">
        <ele>51.0</ele>
        <time>2019-06-21T07:11:28Z</time>
      </trkpt>
      <trkpt lat="41.8121860" lon="-8.5991600">
        <ele>51.4</ele>
        <time>2019-06-21T07:11:32Z</time>
      </trkpt>
      <trkpt lat="41.8122120" lon="-8.5993090">
        <ele>52.0</ele>
        <time>2019-06-21T07:11:36Z</time>
      </trkpt>
      <trkpt lat="41.8122390" lon="-8.5993840">
        <ele>52.4</ele>
        <time>2019-06-21T07:11:39Z</time>
      </trkpt>
      <trkpt lat="41.8122520" lon="-8.5994030">
        <ele>52.6</ele>
        <time>2019-06-21T07:11:40Z</time>
      </trkpt>
      <trkpt lat="41.8122740" lon="-8.5994230">
        <ele>53.0</ele>
        <time>2019-06-21T07:11:42Z</time>
      </trkpt>
      <trkpt lat="41.8123080" lon="-8.5994520">
        <ele>53.2</ele>
        <time>2019-06-21T07:11:45Z</time>
      </trkpt>
      <trkpt lat="41.8123280" lon="-8.5994660">
        <ele>53.4</ele>
        <time>2019-06-21T07:11:46Z</time>
      </trkpt>
      <trkpt lat="41.8123400" lon="-8.5994690">
        <ele>53.6</ele>
        <time>2019-06-21T07:11:47Z</time>
      </trkpt>
      <trkpt lat="41.8124030" lon="-8.5994810">
        <ele>54.2</ele>
        <time>2019-06-21T07:11:51Z</time>
      </trkpt>
      <trkpt lat="41.8124340" lon="-8.5994960">
        <ele>54.8</ele>
        <time>2019-06-21T07:11:53Z</time>
      </trkpt>
      <trkpt lat="41.8124960" lon="-8.5995230">
        <ele>55.6</ele>
        <time>2019-06-21T07:11:58Z</time>
      </trkpt>
      <trkpt lat="41.8125060" lon="-8.5995250">
        <ele>55.8</ele>
        <time>2019-06-21T07:11:59Z</time>
      </trkpt>
      <trkpt lat="41.8125730" lon="-8.5995980">
        <ele>56.6</ele>
        <time>2019-06-21T07:12:05Z</time>
      </trkpt>
      <trkpt lat="41.8125830" lon="-8.5996120">
        <ele>56.8</ele>
        <time>2019-06-21T07:12:06Z</time>
      </trkpt>
      <trkpt lat="41.8125930" lon="-8.5996240">
        <ele>57.0</ele>
        <time>2019-06-21T07:12:07Z</time>
      </trkpt>
      <trkpt lat="41.8126180" lon="-8.5996310">
        <ele>57.4</ele>
        <time>2019-06-21T07:12:09Z</time>
      </trkpt>
      <trkpt lat="41.8126500" lon="-8.5996480">
        <ele>57.8</ele>
        <time>2019-06-21T07:12:12Z</time>
      </trkpt>
      <trkpt lat="41.8126600" lon="-8.5996590">
        <ele>58.0</ele>
        <time>2019-06-21T07:12:13Z</time>
      </trkpt>
      <trkpt lat="41.8127270" lon="-8.5996870">
        <ele>59.0</ele>
        <time>2019-06-21T07:12:18Z</time>
      </trkpt>
      <trkpt lat="41.8127440" lon="-8.5996810">
        <ele>59.0</ele>
        <time>2019-06-21T07:12:19Z</time>
      </trkpt>
      <trkpt lat="41.8128350" lon="-8.5997000">
        <ele>60.0</ele>
        <time>2019-06-21T07:12:25Z</time>
      </trkpt>
      <trkpt lat="41.8128480" lon="-8.5997040">
        <ele>60.4</ele>
        <time>2019-06-21T07:12:26Z</time>
      </trkpt>
      <trkpt lat="41.8129070" lon="-8.5997190">
        <ele>61.6</ele>
        <time>2019-06-21T07:12:31Z</time>
      </trkpt>
      <trkpt lat="41.8129180" lon="-8.5997200">
        <ele>61.8</ele>
        <time>2019-06-21T07:12:32Z</time>
      </trkpt>
      <trkpt lat="41.8129660" lon="-8.5997440">
        <ele>62.6</ele>
        <time>2019-06-21T07:12:36Z</time>
      </trkpt>
      <trkpt lat="41.8130130" lon="-8.5997710">
        <ele>63.6</ele>
        <time>2019-06-21T07:12:40Z</time>
      </trkpt>
      <trkpt lat="41.8130470" lon="-8.5997930">
        <ele>64.4</ele>
        <time>2019-06-21T07:12:44Z</time>
      </trkpt>
      <trkpt lat="41.8130700" lon="-8.5997960">
        <ele>64.6</ele>
        <time>2019-06-21T07:12:46Z</time>
      </trkpt>
      <trkpt lat="41.8130810" lon="-8.5997900">
        <ele>65.0</ele>
        <time>2019-06-21T07:12:47Z</time>
      </trkpt>
      <trkpt lat="41.8131210" lon="-8.5997300">
        <ele>66.0</ele>
        <time>2019-06-21T07:12:52Z</time>
      </trkpt>
      <trkpt lat="41.8131290" lon="-8.5996880">
        <ele>66.2</ele>
        <time>2019-06-21T07:12:54Z</time>
      </trkpt>
      <trkpt lat="41.8131250" lon="-8.5996540">
        <ele>66.4</ele>
        <time>2019-06-21T07:12:56Z</time>
      </trkpt>
      <trkpt lat="41.8131220" lon="-8.5995490">
        <ele>66.6</ele>
        <time>2019-06-21T07:13:02Z</time>
      </trkpt>
      <trkpt lat="41.8131310" lon="-8.5994400">
        <ele>66.2</ele>
        <time>2019-06-21T07:13:06Z</time>
      </trkpt>
      <trkpt lat="41.8131370" lon="-8.5993260">
        <ele>66.2</ele>
        <time>2019-06-21T07:13:09Z</time>
      </trkpt>
      <trkpt lat="41.8132190" lon="-8.5990490">
        <ele>65.8</ele>
        <time>2019-06-21T07:13:15Z</time>
      </trkpt>
      <trkpt lat="41.8133280" lon="-8.5989830">
        <ele>65.6</ele>
        <time>2019-06-21T07:13:19Z</time>
      </trkpt>
      <trkpt lat="41.8134190" lon="-8.5989490">
        <ele>65.4</ele>
        <time>2019-06-21T07:13:22Z</time>
      </trkpt>
      <trkpt lat="41.8134850" lon="-8.5989410">
        <ele>65.0</ele>
        <time>2019-06-21T07:13:24Z</time>
      </trkpt>
      <trkpt lat="41.8135130" lon="-8.5989470">
        <ele>65.0</ele>
        <time>2019-06-21T07:13:26Z</time>
      </trkpt>
      <trkpt lat="41.8136000" lon="-8.5989680">
        <ele>65.8</ele>
        <time>2019-06-21T07:13:32Z</time>
      </trkpt>
      <trkpt lat="41.8136280" lon="-8.5990030">
        <ele>66.0</ele>
        <time>2019-06-21T07:13:34Z</time>
      </trkpt>
      <trkpt lat="41.8136710" lon="-8.5990480">
        <ele>67.4</ele>
        <time>2019-06-21T07:13:37Z</time>
      </trkpt>
      <trkpt lat="41.8136970" lon="-8.5990690">
        <ele>68.4</ele>
        <time>2019-06-21T07:13:39Z</time>
      </trkpt>
      <trkpt lat="41.8137060" lon="-8.5990780">
        <ele>69.0</ele>
        <time>2019-06-21T07:13:40Z</time>
      </trkpt>
      <trkpt lat="41.8137500" lon="-8.5990910">
        <ele>70.2</ele>
        <time>2019-06-21T07:13:43Z</time>
      </trkpt>
      <trkpt lat="41.8137660" lon="-8.5991030">
        <ele>71.0</ele>
        <time>2019-06-21T07:13:45Z</time>
      </trkpt>
      <trkpt lat="41.8137900" lon="-8.5990960">
        <ele>71.4</ele>
        <time>2019-06-21T07:13:47Z</time>
      </trkpt>
      <trkpt lat="41.8138360" lon="-8.5990820">
        <ele>72.2</ele>
        <time>2019-06-21T07:13:51Z</time>
      </trkpt>
      <trkpt lat="41.8138580" lon="-8.5990700">
        <ele>72.6</ele>
        <time>2019-06-21T07:13:53Z</time>
      </trkpt>
      <trkpt lat="41.8138710" lon="-8.5990780">
        <ele>72.6</ele>
        <time>2019-06-21T07:13:54Z</time>
      </trkpt>
      <trkpt lat="41.8139030" lon="-8.5990750">
        <ele>72.6</ele>
        <time>2019-06-21T07:13:56Z</time>
      </trkpt>
      <trkpt lat="41.8139430" lon="-8.5990620">
        <ele>72.8</ele>
        <time>2019-06-21T07:14:16Z</time>
      </trkpt>
      <trkpt lat="41.8140220" lon="-8.5990350">
        <ele>73.2</ele>
        <time>2019-06-21T07:14:22Z</time>
      </trkpt>
      <trkpt lat="41.8140090" lon="-8.5990320">
        <ele>73.4</ele>
        <time>2019-06-21T07:14:33Z</time>
      </trkpt>
      <trkpt lat="41.8140020" lon="-8.5990260">
        <ele>73.4</ele>
        <time>2019-06-21T07:14:34Z</time>
      </trkpt>
      <trkpt lat="41.8140090" lon="-8.5990320">
        <ele>74.6</ele>
        <time>2019-06-21T07:19:09Z</time>
      </trkpt>
      <trkpt lat="41.8140150" lon="-8.5990350">
        <ele>74.6</ele>
        <time>2019-06-21T07:19:10Z</time>
      </trkpt>
      <trkpt lat="41.8140480" lon="-8.5990360">
        <ele>74.6</ele>
        <time>2019-06-21T07:19:15Z</time>
      </trkpt>
      <trkpt lat="41.8141330" lon="-8.5990110">
        <ele>74.8</ele>
        <time>2019-06-21T07:19:20Z</time>
      </trkpt>
      <trkpt lat="41.8142660" lon="-8.5989600">
        <ele>74.8</ele>
        <time>2019-06-21T07:19:26Z</time>
      </trkpt>
      <trkpt lat="41.8144470" lon="-8.5989370">
        <ele>74.2</ele>
        <time>2019-06-21T07:19:31Z</time>
      </trkpt>
      <trkpt lat="41.8144930" lon="-8.5989410">
        <ele>73.8</ele>
        <time>2019-06-21T07:19:32Z</time>
      </trkpt>
      <trkpt lat="41.8145430" lon="-8.5989420">
        <ele>73.6</ele>
        <time>2019-06-21T07:19:33Z</time>
      </trkpt>
      <trkpt lat="41.8147310" lon="-8.5989510">
        <ele>73.0</ele>
        <time>2019-06-21T07:19:37Z</time>
      </trkpt>
      <trkpt lat="41.8148990" lon="-8.5989460">
        <ele>73.2</ele>
        <time>2019-06-21T07:19:42Z</time>
      </trkpt>
      <trkpt lat="41.8150130" lon="-8.5989010">
        <ele>71.8</ele>
        <time>2019-06-21T07:19:45Z</time>
      </trkpt>
      <trkpt lat="41.8151110" lon="-8.5988660">
        <ele>70.6</ele>
        <time>2019-06-21T07:19:47Z</time>
      </trkpt>
      <trkpt lat="41.8152070" lon="-8.5988210">
        <ele>69.2</ele>
        <time>2019-06-21T07:19:49Z</time>
      </trkpt>
      <trkpt lat="41.8152570" lon="-8.5988390">
        <ele>69.0</ele>
        <time>2019-06-21T07:19:51Z</time>
      </trkpt>
      <trkpt lat="41.8153260" lon="-8.5988610">
        <ele>70.0</ele>
        <time>2019-06-21T07:19:56Z</time>
      </trkpt>
      <trkpt lat="41.8153600" lon="-8.5988730">
        <ele>70.0</ele>
        <time>2019-06-21T07:19:58Z</time>
      </trkpt>
      <trkpt lat="41.8153960" lon="-8.5988850">
        <ele>70.2</ele>
        <time>2019-06-21T07:20:00Z</time>
      </trkpt>
      <trkpt lat="41.8154330" lon="-8.5988890">
        <ele>70.6</ele>
        <time>2019-06-21T07:20:02Z</time>
      </trkpt>
      <trkpt lat="41.8154980" lon="-8.5989120">
        <ele>71.4</ele>
        <time>2019-06-21T07:20:07Z</time>
      </trkpt>
      <trkpt lat="41.8155590" lon="-8.5989430">
        <ele>72.4</ele>
        <time>2019-06-21T07:20:12Z</time>
      </trkpt>
      <trkpt lat="41.8155790" lon="-8.5989500">
        <ele>72.4</ele>
        <time>2019-06-21T07:20:14Z</time>
      </trkpt>
      <trkpt lat="41.8156410" lon="-8.5989590">
        <ele>73.4</ele>
        <time>2019-06-21T07:20:19Z</time>
      </trkpt>
      <trkpt lat="41.8156570" lon="-8.5989630">
        <ele>73.4</ele>
        <time>2019-06-21T07:20:20Z</time>
      </trkpt>
      <trkpt lat="41.8157300" lon="-8.5989740">
        <ele>74.2</ele>
        <time>2019-06-21T07:20:25Z</time>
      </trkpt>
      <trkpt lat="41.8157610" lon="-8.5989770">
        <ele>74.6</ele>
        <time>2019-06-21T07:20:27Z</time>
      </trkpt>
      <trkpt lat="41.8158060" lon="-8.5989870">
        <ele>75.2</ele>
        <time>2019-06-21T07:20:31Z</time>
      </trkpt>
      <trkpt lat="41.8158190" lon="-8.5989880">
        <ele>75.4</ele>
        <time>2019-06-21T07:20:32Z</time>
      </trkpt>
      <trkpt lat="41.8158290" lon="-8.5989890">
        <ele>75.8</ele>
        <time>2019-06-21T07:20:33Z</time>
      </trkpt>
      <trkpt lat="41.8158590" lon="-8.5990080">
        <ele>76.6</ele>
        <time>2019-06-21T07:20:36Z</time>
      </trkpt>
      <trkpt lat="41.8158810" lon="-8.5990170">
        <ele>76.8</ele>
        <time>2019-06-21T07:20:38Z</time>
      </trkpt>
      <trkpt lat="41.8159410" lon="-8.5990320">
        <ele>78.6</ele>
        <time>2019-06-21T07:20:44Z</time>
      </trkpt>
      <trkpt lat="41.8159670" lon="-8.5990080">
        <ele>78.8</ele>
        <time>2019-06-21T07:20:46Z</time>
      </trkpt>
      <trkpt lat="41.8159820" lon="-8.5989850">
        <ele>79.2</ele>
        <time>2019-06-21T07:20:48Z</time>
      </trkpt>
      <trkpt lat="41.8159990" lon="-8.5989580">
        <ele>79.6</ele>
        <time>2019-06-21T07:20:50Z</time>
      </trkpt>
      <trkpt lat="41.8160390" lon="-8.5988490">
        <ele>80.2</ele>
        <time>2019-06-21T07:20:56Z</time>
      </trkpt>
      <trkpt lat="41.8160520" lon="-8.5988050">
        <ele>80.4</ele>
        <time>2019-06-21T07:20:58Z</time>
      </trkpt>
      <trkpt lat="41.8160530" lon="-8.5987190">
        <ele>80.6</ele>
        <time>2019-06-21T07:21:01Z</time>
      </trkpt>
      <trkpt lat="41.8160580" lon="-8.5986860">
        <ele>80.6</ele>
        <time>2019-06-21T07:21:02Z</time>
      </trkpt>
      <trkpt lat="41.8160700" lon="-8.5985080">
        <ele>81.0</ele>
        <time>2019-06-21T07:21:08Z</time>
      </trkpt>
      <trkpt lat="41.8160560" lon="-8.5983130">
        <ele>81.4</ele>
        <time>2019-06-21T07:21:15Z</time>
      </trkpt>
      <trkpt lat="41.8161230" lon="-8.5981800">
        <ele>81.6</ele>
        <time>2019-06-21T07:21:21Z</time>
      </trkpt>
      <trkpt lat="41.8162540" lon="-8.5980950">
        <ele>81.0</ele>
        <time>2019-06-21T07:21:27Z</time>
      </trkpt>
      <trkpt lat="41.8162650" lon="-8.5980920">
        <ele>80.6</ele>
        <time>2019-06-21T07:21:28Z</time>
      </trkpt>
      <trkpt lat="41.8163270" lon="-8.5980860">
        <ele>80.0</ele>
        <time>2019-06-21T07:21:31Z</time>
      </trkpt>
      <trkpt lat="41.8163600" lon="-8.5980810">
        <ele>79.4</ele>
        <time>2019-06-21T07:21:32Z</time>
      </trkpt>
      <trkpt lat="41.8164570" lon="-8.5981050">
        <ele>79.6</ele>
        <time>2019-06-21T07:21:35Z</time>
      </trkpt>
      <trkpt lat="41.8165320" lon="-8.5981380">
        <ele>79.0</ele>
        <time>2019-06-21T07:21:37Z</time>
      </trkpt>
      <trkpt lat="41.8165770" lon="-8.5981180">
        <ele>78.6</ele>
        <time>2019-06-21T07:21:38Z</time>
      </trkpt>
      <trkpt lat="41.8166120" lon="-8.5980850">
        <ele>78.2</ele>
        <time>2019-06-21T07:21:39Z</time>
      </trkpt>
      <trkpt lat="41.8166390" lon="-8.5980310">
        <ele>78.0</ele>
        <time>2019-06-21T07:21:40Z</time>
      </trkpt>
      <trkpt lat="41.8166580" lon="-8.5979040">
        <ele>77.2</ele>
        <time>2019-06-21T07:21:42Z</time>
      </trkpt>
      <trkpt lat="41.8166700" lon="-8.5978340">
        <ele>77.0</ele>
        <time>2019-06-21T07:21:43Z</time>
      </trkpt>
      <trkpt lat="41.8166830" lon="-8.5977000">
        <ele>76.6</ele>
        <time>2019-06-21T07:21:45Z</time>
      </trkpt>
      <trkpt lat="41.8167160" lon="-8.5974630">
        <ele>76.6</ele>
        <time>2019-06-21T07:21:49Z</time>
      </trkpt>
      <trkpt lat="41.8167330" lon="-8.5973640">
        <ele>76.2</ele>
        <time>2019-06-21T07:21:51Z</time>
      </trkpt>
      <trkpt lat="41.8168080" lon="-8.5972440">
        <ele>75.4</ele>
        <time>2019-06-21T07:21:54Z</time>
      </trkpt>
      <trkpt lat="41.8168490" lon="-8.5972200">
        <ele>75.0</ele>
        <time>2019-06-21T07:21:55Z</time>
      </trkpt>
      <trkpt lat="41.8170000" lon="-8.5971260">
        <ele>74.2</ele>
        <time>2019-06-21T07:21:58Z</time>
      </trkpt>
      <trkpt lat="41.8170560" lon="-8.5970920">
        <ele>74.0</ele>
        <time>2019-06-21T07:21:59Z</time>
      </trkpt>
      <trkpt lat="41.8171980" lon="-8.5969940">
        <ele>73.0</ele>
        <time>2019-06-21T07:22:02Z</time>
      </trkpt>
      <trkpt lat="41.8172380" lon="-8.5969750">
        <ele>72.6</ele>
        <time>2019-06-21T07:22:03Z</time>
      </trkpt>
      <trkpt lat="41.8172780" lon="-8.5969670">
        <ele>72.0</ele>
        <time>2019-06-21T07:22:04Z</time>
      </trkpt>
      <trkpt lat="41.8173210" lon="-8.5969470">
        <ele>71.2</ele>
        <time>2019-06-21T07:22:05Z</time>
      </trkpt>
      <trkpt lat="41.8173670" lon="-8.5969310">
        <ele>71.0</ele>
        <time>2019-06-21T07:22:06Z</time>
      </trkpt>
      <trkpt lat="41.8174090" lon="-8.5969180">
        <ele>70.6</ele>
        <time>2019-06-21T07:22:07Z</time>
      </trkpt>
      <trkpt lat="41.8175350" lon="-8.5969100">
        <ele>69.2</ele>
        <time>2019-06-21T07:22:10Z</time>
      </trkpt>
      <trkpt lat="41.8176260" lon="-8.5968900">
        <ele>68.6</ele>
        <time>2019-06-21T07:22:12Z</time>
      </trkpt>
      <trkpt lat="41.8176800" lon="-8.5968820">
        <ele>68.2</ele>
        <time>2019-06-21T07:22:13Z</time>
      </trkpt>
      <trkpt lat="41.8177290" lon="-8.5968800">
        <ele>67.6</ele>
        <time>2019-06-21T07:22:14Z</time>
      </trkpt>
      <trkpt lat="41.8177760" lon="-8.5968870">
        <ele>66.8</ele>
        <time>2019-06-21T07:22:15Z</time>
      </trkpt>
      <trkpt lat="41.8178690" lon="-8.5969190">
        <ele>66.0</ele>
        <time>2019-06-21T07:22:17Z</time>
      </trkpt>
      <trkpt lat="41.8179120" lon="-8.5969380">
        <ele>65.6</ele>
        <time>2019-06-21T07:22:18Z</time>
      </trkpt>
      <trkpt lat="41.8179450" lon="-8.5969640">
        <ele>65.2</ele>
        <time>2019-06-21T07:22:19Z</time>
      </trkpt>
      <trkpt lat="41.8180200" lon="-8.5970120">
        <ele>64.4</ele>
        <time>2019-06-21T07:22:21Z</time>
      </trkpt>
      <trkpt lat="41.8180590" lon="-8.5970470">
        <ele>62.6</ele>
        <time>2019-06-21T07:22:22Z</time>
      </trkpt>
      <trkpt lat="41.8181410" lon="-8.5971220">
        <ele>62.4</ele>
        <time>2019-06-21T07:22:24Z</time>
      </trkpt>
      <trkpt lat="41.8181830" lon="-8.5971460">
        <ele>63.6</ele>
        <time>2019-06-21T07:22:25Z</time>
      </trkpt>
      <trkpt lat="41.8182770" lon="-8.5971700">
        <ele>63.6</ele>
        <time>2019-06-21T07:22:27Z</time>
      </trkpt>
      <trkpt lat="41.8183270" lon="-8.5972050">
        <ele>64.6</ele>
        <time>2019-06-21T07:22:29Z</time>
      </trkpt>
      <trkpt lat="41.8183680" lon="-8.5972340">
        <ele>64.8</ele>
        <time>2019-06-21T07:22:30Z</time>
      </trkpt>
      <trkpt lat="41.8183890" lon="-8.5972510">
        <ele>65.0</ele>
        <time>2019-06-21T07:22:31Z</time>
      </trkpt>
      <trkpt lat="41.8184100" lon="-8.5972710">
        <ele>65.0</ele>
        <time>2019-06-21T07:22:32Z</time>
      </trkpt>
      <trkpt lat="41.8184530" lon="-8.5973210">
        <ele>66.0</ele>
        <time>2019-06-21T07:22:34Z</time>
      </trkpt>
      <trkpt lat="41.8184840" lon="-8.5973700">
        <ele>66.2</ele>
        <time>2019-06-21T07:22:36Z</time>
      </trkpt>
      <trkpt lat="41.8185240" lon="-8.5974220">
        <ele>66.4</ele>
        <time>2019-06-21T07:22:38Z</time>
      </trkpt>
      <trkpt lat="41.8186200" lon="-8.5975050">
        <ele>67.0</ele>
        <time>2019-06-21T07:22:42Z</time>
      </trkpt>
      <trkpt lat="41.8186540" lon="-8.5975500">
        <ele>67.2</ele>
        <time>2019-06-21T07:22:44Z</time>
      </trkpt>
      <trkpt lat="41.8187130" lon="-8.5976430">
        <ele>67.8</ele>
        <time>2019-06-21T07:22:48Z</time>
      </trkpt>
      <trkpt lat="41.8187290" lon="-8.5977010">
        <ele>68.2</ele>
        <time>2019-06-21T07:22:50Z</time>
      </trkpt>
      <trkpt lat="41.8187380" lon="-8.5977230">
        <ele>68.8</ele>
        <time>2019-06-21T07:22:51Z</time>
      </trkpt>
      <trkpt lat="41.8187640" lon="-8.5978120">
        <ele>69.4</ele>
        <time>2019-06-21T07:22:54Z</time>
      </trkpt>
      <trkpt lat="41.8187900" lon="-8.5978880">
        <ele>70.2</ele>
        <time>2019-06-21T07:22:57Z</time>
      </trkpt>
      <trkpt lat="41.8188030" lon="-8.5979120">
        <ele>70.4</ele>
        <time>2019-06-21T07:22:58Z</time>
      </trkpt>
      <trkpt lat="41.8188770" lon="-8.5980260">
        <ele>70.8</ele>
        <time>2019-06-21T07:23:02Z</time>
      </trkpt>
      <trkpt lat="41.8189480" lon="-8.5981470">
        <ele>70.8</ele>
        <time>2019-06-21T07:23:05Z</time>
      </trkpt>
      <trkpt lat="41.8191180" lon="-8.5983410">
        <ele>70.4</ele>
        <time>2019-06-21T07:23:11Z</time>
      </trkpt>
      <trkpt lat="41.8192870" lon="-8.5985590">
        <ele>70.8</ele>
        <time>2019-06-21T07:23:18Z</time>
      </trkpt>
      <trkpt lat="41.8194650" lon="-8.5987990">
        <ele>69.4</ele>
        <time>2019-06-21T07:23:23Z</time>
      </trkpt>
      <trkpt lat="41.8195400" lon="-8.5988800">
        <ele>69.4</ele>
        <time>2019-06-21T07:23:25Z</time>
      </trkpt>
      <trkpt lat="41.8196030" lon="-8.5989370">
        <ele>69.4</ele>
        <time>2019-06-21T07:23:27Z</time>
      </trkpt>
      <trkpt lat="41.8196970" lon="-8.5990140">
        <ele>70.0</ele>
        <time>2019-06-21T07:23:31Z</time>
      </trkpt>
      <trkpt lat="41.8197420" lon="-8.5990420">
        <ele>70.0</ele>
        <time>2019-06-21T07:23:33Z</time>
      </trkpt>
      <trkpt lat="41.8198660" lon="-8.5990790">
        <ele>70.4</ele>
        <time>2019-06-21T07:23:38Z</time>
      </trkpt>
      <trkpt lat="41.8198940" lon="-8.5990840">
        <ele>70.6</ele>
        <time>2019-06-21T07:23:39Z</time>
      </trkpt>
      <trkpt lat="41.8201520" lon="-8.5991660">
        <ele>70.2</ele>
        <time>2019-06-21T07:23:46Z</time>
      </trkpt>
      <trkpt lat="41.8203690" lon="-8.5991490">
        <ele>70.2</ele>
        <time>2019-06-21T07:23:51Z</time>
      </trkpt>
      <trkpt lat="41.8206100" lon="-8.5990790">
        <ele>70.0</ele>
        <time>2019-06-21T07:23:57Z</time>
      </trkpt>
      <trkpt lat="41.8207210" lon="-8.5989980">
        <ele>70.2</ele>
        <time>2019-06-21T07:24:00Z</time>
      </trkpt>
      <trkpt lat="41.8208330" lon="-8.5989120">
        <ele>70.2</ele>
        <time>2019-06-21T07:24:03Z</time>
      </trkpt>
      <trkpt lat="41.8209820" lon="-8.5988440">
        <ele>70.8</ele>
        <time>2019-06-21T07:24:08Z</time>
      </trkpt>
      <trkpt lat="41.8210220" lon="-8.5988590">
        <ele>71.6</ele>
        <time>2019-06-21T07:24:11Z</time>
      </trkpt>
      <trkpt lat="41.8210530" lon="-8.5988600">
        <ele>72.2</ele>
        <time>2019-06-21T07:24:13Z</time>
      </trkpt>
      <trkpt lat="41.8210660" lon="-8.5988600">
        <ele>72.4</ele>
        <time>2019-06-21T07:24:14Z</time>
      </trkpt>
      <trkpt lat="41.8210790" lon="-8.5988560">
        <ele>72.6</ele>
        <time>2019-06-21T07:24:15Z</time>
      </trkpt>
      <trkpt lat="41.8211370" lon="-8.5988290">
        <ele>73.6</ele>
        <time>2019-06-21T07:24:19Z</time>
      </trkpt>
      <trkpt lat="41.8211500" lon="-8.5988200">
        <ele>73.8</ele>
        <time>2019-06-21T07:24:20Z</time>
      </trkpt>
      <trkpt lat="41.8212090" lon="-8.5987870">
        <ele>74.6</ele>
        <time>2019-06-21T07:24:24Z</time>
      </trkpt>
      <trkpt lat="41.8212390" lon="-8.5987630">
        <ele>75.0</ele>
        <time>2019-06-21T07:24:26Z</time>
      </trkpt>
      <trkpt lat="41.8213120" lon="-8.5986870">
        <ele>75.0</ele>
        <time>2019-06-21T07:24:31Z</time>
      </trkpt>
      <trkpt lat="41.8214690" lon="-8.5985740">
        <ele>74.2</ele>
        <time>2019-06-21T07:24:36Z</time>
      </trkpt>
      <trkpt lat="41.8215380" lon="-8.5985270">
        <ele>74.0</ele>
        <time>2019-06-21T07:24:38Z</time>
      </trkpt>
      <trkpt lat="41.8216390" lon="-8.5984550">
        <ele>73.8</ele>
        <time>2019-06-21T07:24:41Z</time>
      </trkpt>
      <trkpt lat="41.8216820" lon="-8.5984370">
        <ele>73.0</ele>
        <time>2019-06-21T07:24:43Z</time>
      </trkpt>
      <trkpt lat="41.8217070" lon="-8.5984310">
        <ele>73.0</ele>
        <time>2019-06-21T07:24:45Z</time>
      </trkpt>
      <trkpt lat="41.8217600" lon="-8.5984040">
        <ele>73.6</ele>
        <time>2019-06-21T07:26:14Z</time>
      </trkpt>
      <trkpt lat="41.8217730" lon="-8.5983980">
        <ele>73.8</ele>
        <time>2019-06-21T07:26:15Z</time>
      </trkpt>
      <trkpt lat="41.8218890" lon="-8.5983450">
        <ele>74.8</ele>
        <time>2019-06-21T07:26:24Z</time>
      </trkpt>
      <trkpt lat="41.8218970" lon="-8.5983340">
        <ele>74.8</ele>
        <time>2019-06-21T07:26:25Z</time>
      </trkpt>
      <trkpt lat="41.8219460" lon="-8.5982920">
        <ele>75.2</ele>
        <time>2019-06-21T07:26:56Z</time>
      </trkpt>
      <trkpt lat="41.8219630" lon="-8.5982740">
        <ele>75.4</ele>
        <time>2019-06-21T07:26:58Z</time>
      </trkpt>
      <trkpt lat="41.8219960" lon="-8.5982380">
        <ele>75.8</ele>
        <time>2019-06-21T07:27:03Z</time>
      </trkpt>
      <trkpt lat="41.8220250" lon="-8.5982230">
        <ele>75.6</ele>
        <time>2019-06-21T07:27:11Z</time>
      </trkpt>
      <trkpt lat="41.8220390" lon="-8.5982170">
        <ele>75.6</ele>
        <time>2019-06-21T07:27:12Z</time>
      </trkpt>
      <trkpt lat="41.8221180" lon="-8.5981310">
        <ele>75.8</ele>
        <time>2019-06-21T07:27:17Z</time>
      </trkpt>
      <trkpt lat="41.8221890" lon="-8.5980330">
        <ele>76.0</ele>
        <time>2019-06-21T07:27:22Z</time>
      </trkpt>
      <trkpt lat="41.8222680" lon="-8.5978850">
        <ele>75.8</ele>
        <time>2019-06-21T07:27:28Z</time>
      </trkpt>
      <trkpt lat="41.8222820" lon="-8.5976750">
        <ele>74.8</ele>
        <time>2019-06-21T07:27:33Z</time>
      </trkpt>
      <trkpt lat="41.8222900" lon="-8.5976180">
        <ele>74.6</ele>
        <time>2019-06-21T07:27:35Z</time>
      </trkpt>
      <trkpt lat="41.8223120" lon="-8.5975810">
        <ele>74.8</ele>
        <time>2019-06-21T07:27:37Z</time>
      </trkpt>
      <trkpt lat="41.8223730" lon="-8.5975130">
        <ele>75.8</ele>
        <time>2019-06-21T07:27:42Z</time>
      </trkpt>
      <trkpt lat="41.8224230" lon="-8.5974680">
        <ele>76.2</ele>
        <time>2019-06-21T07:27:46Z</time>
      </trkpt>
      <trkpt lat="41.8224360" lon="-8.5974550">
        <ele>76.4</ele>
        <time>2019-06-21T07:27:47Z</time>
      </trkpt>
      <trkpt lat="41.8224600" lon="-8.5974380">
        <ele>76.8</ele>
        <time>2019-06-21T07:27:49Z</time>
      </trkpt>
      <trkpt lat="41.8224970" lon="-8.5974130">
        <ele>77.4</ele>
        <time>2019-06-21T07:27:53Z</time>
      </trkpt>
      <trkpt lat="41.8225330" lon="-8.5973840">
        <ele>77.8</ele>
        <time>2019-06-21T07:27:56Z</time>
      </trkpt>
      <trkpt lat="41.8225880" lon="-8.5973270">
        <ele>78.6</ele>
        <time>2019-06-21T07:28:02Z</time>
      </trkpt>
      <trkpt lat="41.8225980" lon="-8.5973220">
        <ele>78.8</ele>
        <time>2019-06-21T07:28:03Z</time>
      </trkpt>
      <trkpt lat="41.8226070" lon="-8.5973150">
        <ele>78.8</ele>
        <time>2019-06-21T07:28:04Z</time>
      </trkpt>
      <trkpt lat="41.8226170" lon="-8.5973010">
        <ele>79.0</ele>
        <time>2019-06-21T07:28:05Z</time>
      </trkpt>
      <trkpt lat="41.8226510" lon="-8.5972410">
        <ele>78.6</ele>
        <time>2019-06-21T07:28:08Z</time>
      </trkpt>
      <trkpt lat="41.8226710" lon="-8.5971690">
        <ele>77.8</ele>
        <time>2019-06-21T07:28:10Z</time>
      </trkpt>
      <trkpt lat="41.8226990" lon="-8.5971010">
        <ele>76.6</ele>
        <time>2019-06-21T07:28:12Z</time>
      </trkpt>
      <trkpt lat="41.8227120" lon="-8.5970740">
        <ele>76.2</ele>
        <time>2019-06-21T07:28:13Z</time>
      </trkpt>
      <trkpt lat="41.8227510" lon="-8.5970300">
        <ele>76.0</ele>
        <time>2019-06-21T07:28:16Z</time>
      </trkpt>
      <trkpt lat="41.8227840" lon="-8.5970150">
        <ele>76.0</ele>
        <time>2019-06-21T07:28:18Z</time>
      </trkpt>
      <trkpt lat="41.8228360" lon="-8.5970050">
        <ele>76.0</ele>
        <time>2019-06-21T07:28:21Z</time>
      </trkpt>
      <trkpt lat="41.8228680" lon="-8.5970000">
        <ele>76.4</ele>
        <time>2019-06-21T07:28:23Z</time>
      </trkpt>
      <trkpt lat="41.8229130" lon="-8.5969790">
        <ele>76.8</ele>
        <time>2019-06-21T07:28:26Z</time>
      </trkpt>
      <trkpt lat="41.8229560" lon="-8.5969620">
        <ele>77.4</ele>
        <time>2019-06-21T07:28:29Z</time>
      </trkpt>
      <trkpt lat="41.8230220" lon="-8.5969580">
        <ele>77.4</ele>
        <time>2019-06-21T07:28:33Z</time>
      </trkpt>
      <trkpt lat="41.8230550" lon="-8.5969690">
        <ele>77.6</ele>
        <time>2019-06-21T07:28:35Z</time>
      </trkpt>
      <trkpt lat="41.8230740" lon="-8.5969740">
        <ele>77.8</ele>
        <time>2019-06-21T07:28:36Z</time>
      </trkpt>
      <trkpt lat="41.8231290" lon="-8.5969850">
        <ele>78.4</ele>
        <time>2019-06-21T07:28:39Z</time>
      </trkpt>
      <trkpt lat="41.8231610" lon="-8.5969910">
        <ele>78.6</ele>
        <time>2019-06-21T07:28:41Z</time>
      </trkpt>
      <trkpt lat="41.8231740" lon="-8.5969930">
        <ele>78.8</ele>
        <time>2019-06-21T07:28:42Z</time>
      </trkpt>
      <trkpt lat="41.8231990" lon="-8.5969830">
        <ele>79.2</ele>
        <time>2019-06-21T07:28:44Z</time>
      </trkpt>
      <trkpt lat="41.8232260" lon="-8.5969720">
        <ele>79.4</ele>
        <time>2019-06-21T07:28:46Z</time>
      </trkpt>
      <trkpt lat="41.8232480" lon="-8.5969530">
        <ele>80.0</ele>
        <time>2019-06-21T07:28:48Z</time>
      </trkpt>
      <trkpt lat="41.8232900" lon="-8.5969070">
        <ele>80.8</ele>
        <time>2019-06-21T07:28:52Z</time>
      </trkpt>
      <trkpt lat="41.8232970" lon="-8.5968920">
        <ele>81.0</ele>
        <time>2019-06-21T07:28:53Z</time>
      </trkpt>
      <trkpt lat="41.8233380" lon="-8.5968390">
        <ele>81.6</ele>
        <time>2019-06-21T07:28:58Z</time>
      </trkpt>
      <trkpt lat="41.8233640" lon="-8.5968140">
        <ele>81.8</ele>
        <time>2019-06-21T07:29:00Z</time>
      </trkpt>
      <trkpt lat="41.8233740" lon="-8.5967970">
        <ele>82.0</ele>
        <time>2019-06-21T07:29:01Z</time>
      </trkpt>
      <trkpt lat="41.8233840" lon="-8.5967780">
        <ele>82.0</ele>
        <time>2019-06-21T07:29:02Z</time>
      </trkpt>
      <trkpt lat="41.8234230" lon="-8.5967230">
        <ele>82.4</ele>
        <time>2019-06-21T07:29:05Z</time>
      </trkpt>
      <trkpt lat="41.8234380" lon="-8.5967050">
        <ele>82.4</ele>
        <time>2019-06-21T07:29:06Z</time>
      </trkpt>
      <trkpt lat="41.8235400" lon="-8.5965910">
        <ele>82.2</ele>
        <time>2019-06-21T07:29:11Z</time>
      </trkpt>
      <trkpt lat="41.8236390" lon="-8.5964130">
        <ele>82.0</ele>
        <time>2019-06-21T07:29:18Z</time>
      </trkpt>
      <trkpt lat="41.8236390" lon="-8.5963140">
        <ele>82.0</ele>
        <time>2019-06-21T07:29:20Z</time>
      </trkpt>
      <trkpt lat="41.8236330" lon="-8.5961810">
        <ele>80.8</ele>
        <time>2019-06-21T07:29:22Z</time>
      </trkpt>
      <trkpt lat="41.8236120" lon="-8.5959730">
        <ele>79.2</ele>
        <time>2019-06-21T07:29:25Z</time>
      </trkpt>
      <trkpt lat="41.8236030" lon="-8.5958510">
        <ele>77.8</ele>
        <time>2019-06-21T07:29:27Z</time>
      </trkpt>
      <trkpt lat="41.8236130" lon="-8.5957940">
        <ele>77.4</ele>
        <time>2019-06-21T07:29:28Z</time>
      </trkpt>
      <trkpt lat="41.8236540" lon="-8.5956920">
        <ele>77.2</ele>
        <time>2019-06-21T07:29:30Z</time>
      </trkpt>
      <trkpt lat="41.8236940" lon="-8.5955960">
        <ele>76.8</ele>
        <time>2019-06-21T07:29:32Z</time>
      </trkpt>
      <trkpt lat="41.8237090" lon="-8.5955560">
        <ele>76.6</ele>
        <time>2019-06-21T07:29:33Z</time>
      </trkpt>
      <trkpt lat="41.8237400" lon="-8.5955110">
        <ele>76.4</ele>
        <time>2019-06-21T07:29:35Z</time>
      </trkpt>
      <trkpt lat="41.8237550" lon="-8.5955040">
        <ele>76.2</ele>
        <time>2019-06-21T07:29:36Z</time>
      </trkpt>
      <trkpt lat="41.8237720" lon="-8.5955010">
        <ele>76.2</ele>
        <time>2019-06-21T07:29:37Z</time>
      </trkpt>
      <trkpt lat="41.8238610" lon="-8.5955440">
        <ele>76.4</ele>
        <time>2019-06-21T07:29:41Z</time>
      </trkpt>
      <trkpt lat="41.8238850" lon="-8.5955590">
        <ele>76.4</ele>
        <time>2019-06-21T07:29:42Z</time>
      </trkpt>
      <trkpt lat="41.8240290" lon="-8.5956710">
        <ele>76.8</ele>
        <time>2019-06-21T07:29:48Z</time>
      </trkpt>
      <trkpt lat="41.8240490" lon="-8.5957000">
        <ele>76.8</ele>
        <time>2019-06-21T07:29:49Z</time>
      </trkpt>
      <trkpt lat="41.8241480" lon="-8.5958450">
        <ele>77.2</ele>
        <time>2019-06-21T07:29:54Z</time>
      </trkpt>
      <trkpt lat="41.8242530" lon="-8.5959770">
        <ele>77.8</ele>
        <time>2019-06-21T07:29:59Z</time>
      </trkpt>
      <trkpt lat="41.8242960" lon="-8.5960330">
        <ele>78.0</ele>
        <time>2019-06-21T07:30:01Z</time>
      </trkpt>
      <trkpt lat="41.8244540" lon="-8.5962380">
        <ele>78.8</ele>
        <time>2019-06-21T07:30:08Z</time>
      </trkpt>
      <trkpt lat="41.8245260" lon="-8.5963180">
        <ele>79.4</ele>
        <time>2019-06-21T07:30:11Z</time>
      </trkpt>
      <trkpt lat="41.8246520" lon="-8.5964580">
        <ele>80.0</ele>
        <time>2019-06-21T07:30:16Z</time>
      </trkpt>
      <trkpt lat="41.8247050" lon="-8.5965100">
        <ele>80.2</ele>
        <time>2019-06-21T07:30:18Z</time>
      </trkpt>
      <trkpt lat="41.8248180" lon="-8.5966150">
        <ele>80.6</ele>
        <time>2019-06-21T07:30:22Z</time>
      </trkpt>
      <trkpt lat="41.8248990" lon="-8.5967040">
        <ele>81.0</ele>
        <time>2019-06-21T07:30:25Z</time>
      </trkpt>
      <trkpt lat="41.8249610" lon="-8.5967630">
        <ele>81.0</ele>
        <time>2019-06-21T07:30:27Z</time>
      </trkpt>
      <trkpt lat="41.8251750" lon="-8.5968890">
        <ele>81.4</ele>
        <time>2019-06-21T07:30:34Z</time>
      </trkpt>
      <trkpt lat="41.8253300" lon="-8.5967850">
        <ele>81.8</ele>
        <time>2019-06-21T07:30:39Z</time>
      </trkpt>
      <trkpt lat="41.8254240" lon="-8.5967040">
        <ele>82.0</ele>
        <time>2019-06-21T07:30:42Z</time>
      </trkpt>
      <trkpt lat="41.8255640" lon="-8.5965760">
        <ele>82.4</ele>
        <time>2019-06-21T07:30:47Z</time>
      </trkpt>
      <trkpt lat="41.8257800" lon="-8.5963920">
        <ele>82.8</ele>
        <time>2019-06-21T07:30:54Z</time>
      </trkpt>
      <trkpt lat="41.8258670" lon="-8.5963100">
        <ele>83.0</ele>
        <time>2019-06-21T07:30:57Z</time>
      </trkpt>
      <trkpt lat="41.8260840" lon="-8.5961600">
        <ele>84.2</ele>
        <time>2019-06-21T07:31:04Z</time>
      </trkpt>
      <trkpt lat="41.8263400" lon="-8.5960330">
        <ele>85.2</ele>
        <time>2019-06-21T07:31:12Z</time>
      </trkpt>
      <trkpt lat="41.8263690" lon="-8.5960180">
        <ele>85.2</ele>
        <time>2019-06-21T07:31:13Z</time>
      </trkpt>
      <trkpt lat="41.8266240" lon="-8.5959110">
        <ele>86.4</ele>
        <time>2019-06-21T07:31:21Z</time>
      </trkpt>
      <trkpt lat="41.8268110" lon="-8.5958040">
        <ele>87.0</ele>
        <time>2019-06-21T07:31:27Z</time>
      </trkpt>
      <trkpt lat="41.8269600" lon="-8.5957930">
        <ele>87.2</ele>
        <time>2019-06-21T07:31:31Z</time>
      </trkpt>
      <trkpt lat="41.8270030" lon="-8.5958020">
        <ele>87.2</ele>
        <time>2019-06-21T07:31:32Z</time>
      </trkpt>
      <trkpt lat="41.8273060" lon="-8.5958780">
        <ele>86.8</ele>
        <time>2019-06-21T07:31:39Z</time>
      </trkpt>
      <trkpt lat="41.8273530" lon="-8.5958810">
        <ele>86.6</ele>
        <time>2019-06-21T07:31:40Z</time>
      </trkpt>
      <trkpt lat="41.8275400" lon="-8.5958460">
        <ele>86.6</ele>
        <time>2019-06-21T07:31:44Z</time>
      </trkpt>
      <trkpt lat="41.8278280" lon="-8.5958570">
        <ele>86.8</ele>
        <time>2019-06-21T07:31:50Z</time>
      </trkpt>
      <trkpt lat="41.8280030" lon="-8.5958790">
        <ele>87.6</ele>
        <time>2019-06-21T07:31:54Z</time>
      </trkpt>
      <trkpt lat="41.8281690" lon="-8.5958700">
        <ele>88.0</ele>
        <time>2019-06-21T07:31:58Z</time>
      </trkpt>
      <trkpt lat="41.8282490" lon="-8.5958500">
        <ele>88.6</ele>
        <time>2019-06-21T07:32:00Z</time>
      </trkpt>
      <trkpt lat="41.8285320" lon="-8.5957880">
        <ele>89.6</ele>
        <time>2019-06-21T07:32:07Z</time>
      </trkpt>
      <trkpt lat="41.8287320" lon="-8.5957710">
        <ele>90.6</ele>
        <time>2019-06-21T07:32:12Z</time>
      </trkpt>
      <trkpt lat="41.8289880" lon="-8.5957360">
        <ele>90.8</ele>
        <time>2019-06-21T07:32:18Z</time>
      </trkpt>
      <trkpt lat="41.8291230" lon="-8.5957940">
        <ele>90.4</ele>
        <time>2019-06-21T07:32:22Z</time>
      </trkpt>
      <trkpt lat="41.8291740" lon="-8.5958260">
        <ele>91.8</ele>
        <time>2019-06-21T07:32:25Z</time>
      </trkpt>
      <trkpt lat="41.8292040" lon="-8.5958310">
        <ele>92.0</ele>
        <time>2019-06-21T07:32:27Z</time>
      </trkpt>
      <trkpt lat="41.8292540" lon="-8.5958280">
        <ele>92.0</ele>
        <time>2019-06-21T07:32:31Z</time>
      </trkpt>
      <trkpt lat="41.8292650" lon="-8.5958190">
        <ele>92.0</ele>
        <time>2019-06-21T07:32:32Z</time>
      </trkpt>
      <trkpt lat="41.8292990" lon="-8.5958040">
        <ele>91.6</ele>
        <time>2019-06-21T07:33:04Z</time>
      </trkpt>
      <trkpt lat="41.8293130" lon="-8.5958010">
        <ele>91.6</ele>
        <time>2019-06-21T07:33:05Z</time>
      </trkpt>
      <trkpt lat="41.8293300" lon="-8.5957920">
        <ele>91.6</ele>
        <time>2019-06-21T07:33:06Z</time>
      </trkpt>
      <trkpt lat="41.8294820" lon="-8.5957670">
        <ele>91.8</ele>
        <time>2019-06-21T07:33:13Z</time>
      </trkpt>
      <trkpt lat="41.8295420" lon="-8.5958050">
        <ele>92.0</ele>
        <time>2019-06-21T07:33:16Z</time>
      </trkpt>
      <trkpt lat="41.8295870" lon="-8.5958360">
        <ele>92.2</ele>
        <time>2019-06-21T07:33:18Z</time>
      </trkpt>
      <trkpt lat="41.8297140" lon="-8.5959570">
        <ele>93.0</ele>
        <time>2019-06-21T07:33:24Z</time>
      </trkpt>
      <trkpt lat="41.8297260" lon="-8.5959760">
        <ele>93.0</ele>
        <time>2019-06-21T07:33:25Z</time>
      </trkpt>
      <trkpt lat="41.8298080" lon="-8.5960700">
        <ele>94.2</ele>
        <time>2019-06-21T07:33:31Z</time>
      </trkpt>
      <trkpt lat="41.8298260" lon="-8.5960790">
        <ele>94.2</ele>
        <time>2019-06-21T07:33:32Z</time>
      </trkpt>
      <trkpt lat="41.8299510" lon="-8.5961350">
        <ele>95.2</ele>
        <time>2019-06-21T07:33:39Z</time>
      </trkpt>
      <trkpt lat="41.8299720" lon="-8.5961360">
        <ele>95.2</ele>
        <time>2019-06-21T07:33:40Z</time>
      </trkpt>
      <trkpt lat="41.8301300" lon="-8.5961440">
        <ele>96.0</ele>
        <time>2019-06-21T07:33:48Z</time>
      </trkpt>
      <trkpt lat="41.8301480" lon="-8.5961430">
        <ele>96.2</ele>
        <time>2019-06-21T07:33:49Z</time>
      </trkpt>
      <trkpt lat="41.8302350" lon="-8.5961350">
        <ele>96.8</ele>
        <time>2019-06-21T07:33:54Z</time>
      </trkpt>
      <trkpt lat="41.8302700" lon="-8.5961320">
        <ele>97.2</ele>
        <time>2019-06-21T07:33:56Z</time>
      </trkpt>
      <trkpt lat="41.8303490" lon="-8.5961400">
        <ele>97.8</ele>
        <time>2019-06-21T07:34:00Z</time>
      </trkpt>
      <trkpt lat="41.8304310" lon="-8.5961590">
        <ele>98.0</ele>
        <time>2019-06-21T07:34:04Z</time>
      </trkpt>
      <trkpt lat="41.8304930" lon="-8.5961630">
        <ele>98.4</ele>
        <time>2019-06-21T07:34:07Z</time>
      </trkpt>
      <trkpt lat="41.8306240" lon="-8.5961200">
        <ele>99.4</ele>
        <time>2019-06-21T07:34:14Z</time>
      </trkpt>
      <trkpt lat="41.8307690" lon="-8.5960520">
        <ele>100.0</ele>
        <time>2019-06-21T07:34:20Z</time>
      </trkpt>
      <trkpt lat="41.8309610" lon="-8.5960540">
        <ele>100.4</ele>
        <time>2019-06-21T07:34:27Z</time>
      </trkpt>
      <trkpt lat="41.8309860" lon="-8.5960580">
        <ele>100.4</ele>
        <time>2019-06-21T07:34:28Z</time>
      </trkpt>
      <trkpt lat="41.8311410" lon="-8.5960870">
        <ele>100.4</ele>
        <time>2019-06-21T07:34:33Z</time>
      </trkpt>
      <trkpt lat="41.8313050" lon="-8.5961150">
        <ele>100.4</ele>
        <time>2019-06-21T07:34:38Z</time>
      </trkpt>
      <trkpt lat="41.8313750" lon="-8.5961290">
        <ele>100.2</ele>
        <time>2019-06-21T07:34:40Z</time>
      </trkpt>
      <trkpt lat="41.8315790" lon="-8.5961890">
        <ele>99.6</ele>
        <time>2019-06-21T07:34:45Z</time>
      </trkpt>
      <trkpt lat="41.8316270" lon="-8.5962070">
        <ele>99.4</ele>
        <time>2019-06-21T07:34:46Z</time>
      </trkpt>
      <trkpt lat="41.8316750" lon="-8.5962310">
        <ele>99.4</ele>
        <time>2019-06-21T07:34:47Z</time>
      </trkpt>
      <trkpt lat="41.8318040" lon="-8.5963340">
        <ele>99.2</ele>
        <time>2019-06-21T07:34:50Z</time>
      </trkpt>
      <trkpt lat="41.8318700" lon="-8.5964050">
        <ele>99.2</ele>
        <time>2019-06-21T07:34:52Z</time>
      </trkpt>
      <trkpt lat="41.8320920" lon="-8.5967330">
        <ele>99.4</ele>
        <time>2019-06-21T07:35:00Z</time>
      </trkpt>
      <trkpt lat="41.8322630" lon="-8.5968840">
        <ele>99.8</ele>
        <time>2019-06-21T07:35:06Z</time>
      </trkpt>
      <trkpt lat="41.8323420" lon="-8.5968000">
        <ele>99.8</ele>
        <time>2019-06-21T07:35:09Z</time>
      </trkpt>
      <trkpt lat="41.8323670" lon="-8.5966210">
        <ele>100.2</ele>
        <time>2019-06-21T07:35:13Z</time>
      </trkpt>
      <trkpt lat="41.8323680" lon="-8.5965750">
        <ele>100.4</ele>
        <time>2019-06-21T07:35:14Z</time>
      </trkpt>
      <trkpt lat="41.8323640" lon="-8.5964930">
        <ele>100.6</ele>
        <time>2019-06-21T07:35:16Z</time>
      </trkpt>
      <trkpt lat="41.8323710" lon="-8.5963650">
        <ele>100.8</ele>
        <time>2019-06-21T07:35:19Z</time>
      </trkpt>
      <trkpt lat="41.8324490" lon="-8.5962220">
        <ele>101.6</ele>
        <time>2019-06-21T07:35:24Z</time>
      </trkpt>
      <trkpt lat="41.8325360" lon="-8.5961420">
        <ele>102.6</ele>
        <time>2019-06-21T07:35:28Z</time>
      </trkpt>
      <trkpt lat="41.8325730" lon="-8.5961110">
        <ele>103.2</ele>
        <time>2019-06-21T07:35:30Z</time>
      </trkpt>
      <trkpt lat="41.8326110" lon="-8.5961180">
        <ele>103.6</ele>
        <time>2019-06-21T07:35:32Z</time>
      </trkpt>
      <trkpt lat="41.8326330" lon="-8.5961290">
        <ele>103.8</ele>
        <time>2019-06-21T07:35:33Z</time>
      </trkpt>
      <trkpt lat="41.8326540" lon="-8.5961400">
        <ele>104.2</ele>
        <time>2019-06-21T07:35:34Z</time>
      </trkpt>
      <trkpt lat="41.8327590" lon="-8.5962060">
        <ele>104.8</ele>
        <time>2019-06-21T07:35:39Z</time>
      </trkpt>
      <trkpt lat="41.8327880" lon="-8.5962180">
        <ele>105.4</ele>
        <time>2019-06-21T07:35:41Z</time>
      </trkpt>
      <trkpt lat="41.8328680" lon="-8.5962410">
        <ele>106.2</ele>
        <time>2019-06-21T07:35:45Z</time>
      </trkpt>
      <trkpt lat="41.8329040" lon="-8.5962670">
        <ele>106.8</ele>
        <time>2019-06-21T07:35:47Z</time>
      </trkpt>
      <trkpt lat="41.8329350" lon="-8.5962790">
        <ele>107.2</ele>
        <time>2019-06-21T07:35:49Z</time>
      </trkpt>
      <trkpt lat="41.8329920" lon="-8.5962950">
        <ele>107.8</ele>
        <time>2019-06-21T07:35:52Z</time>
      </trkpt>
      <trkpt lat="41.8330230" lon="-8.5963110">
        <ele>108.0</ele>
        <time>2019-06-21T07:35:54Z</time>
      </trkpt>
      <trkpt lat="41.8330510" lon="-8.5963340">
        <ele>108.4</ele>
        <time>2019-06-21T07:35:56Z</time>
      </trkpt>
      <trkpt lat="41.8330800" lon="-8.5963490">
        <ele>108.6</ele>
        <time>2019-06-21T07:35:59Z</time>
      </trkpt>
      <trkpt lat="41.8331630" lon="-8.5963760">
        <ele>109.0</ele>
        <time>2019-06-21T07:36:03Z</time>
      </trkpt>
      <trkpt lat="41.8332540" lon="-8.5964060">
        <ele>109.6</ele>
        <time>2019-06-21T07:36:08Z</time>
      </trkpt>
      <trkpt lat="41.8333020" lon="-8.5964190">
        <ele>110.0</ele>
        <time>2019-06-21T07:36:11Z</time>
      </trkpt>
      <trkpt lat="41.8334020" lon="-8.5964600">
        <ele>110.6</ele>
        <time>2019-06-21T07:36:16Z</time>
      </trkpt>
      <trkpt lat="41.8334390" lon="-8.5964660">
        <ele>110.8</ele>
        <time>2019-06-21T07:36:18Z</time>
      </trkpt>
      <trkpt lat="41.8335420" lon="-8.5964920">
        <ele>113.8</ele>
        <time>2019-06-21T07:36:26Z</time>
      </trkpt>
      <trkpt lat="41.8335400" lon="-8.5964910">
        <ele>115.0</ele>
        <time>2019-06-21T07:36:27Z</time>
      </trkpt>
      <trkpt lat="41.8338720" lon="-8.5965200">
        <ele>117.0</ele>
        <time>2019-06-21T07:36:50Z</time>
      </trkpt>
      <trkpt lat="41.8339020" lon="-8.5965210">
        <ele>113.8</ele>
        <time>2019-06-21T07:36:52Z</time>
      </trkpt>
      <trkpt lat="41.8339240" lon="-8.5965300">
        <ele>114.8</ele>
        <time>2019-06-21T07:36:54Z</time>
      </trkpt>
      <trkpt lat="41.8339370" lon="-8.5965370">
        <ele>117.8</ele>
        <time>2019-06-21T07:36:55Z</time>
      </trkpt>
      <trkpt lat="41.8339520" lon="-8.5965420">
        <ele>118.8</ele>
        <time>2019-06-21T07:36:56Z</time>
      </trkpt>
      <trkpt lat="41.8340350" lon="-8.5966030">
        <ele>118.2</ele>
        <time>2019-06-21T07:37:02Z</time>
      </trkpt>
      <trkpt lat="41.8340490" lon="-8.5966090">
        <ele>119.2</ele>
        <time>2019-06-21T07:37:03Z</time>
      </trkpt>
      <trkpt lat="41.8341620" lon="-8.5966660">
        <ele>119.6</ele>
        <time>2019-06-21T07:37:10Z</time>
      </trkpt>
      <trkpt lat="41.8342170" lon="-8.5967010">
        <ele>120.2</ele>
        <time>2019-06-21T07:37:14Z</time>
      </trkpt>
      <trkpt lat="41.8342830" lon="-8.5967310">
        <ele>120.8</ele>
        <time>2019-06-21T07:37:18Z</time>
      </trkpt>
      <trkpt lat="41.8343470" lon="-8.5967550">
        <ele>121.2</ele>
        <time>2019-06-21T07:37:22Z</time>
      </trkpt>
      <trkpt lat="41.8343950" lon="-8.5967740">
        <ele>121.8</ele>
        <time>2019-06-21T07:37:25Z</time>
      </trkpt>
      <trkpt lat="41.8345310" lon="-8.5967790">
        <ele>122.2</ele>
        <time>2019-06-21T07:37:32Z</time>
      </trkpt>
      <trkpt lat="41.8345500" lon="-8.5967790">
        <ele>122.4</ele>
        <time>2019-06-21T07:37:33Z</time>
      </trkpt>
      <trkpt lat="41.8346910" lon="-8.5967630">
        <ele>122.8</ele>
        <time>2019-06-21T07:37:40Z</time>
      </trkpt>
      <trkpt lat="41.8347790" lon="-8.5967390">
        <ele>123.2</ele>
        <time>2019-06-21T07:37:45Z</time>
      </trkpt>
      <trkpt lat="41.8347980" lon="-8.5967350">
        <ele>123.4</ele>
        <time>2019-06-21T07:37:46Z</time>
      </trkpt>
      <trkpt lat="41.8348780" lon="-8.5967230">
        <ele>123.4</ele>
        <time>2019-06-21T07:37:50Z</time>
      </trkpt>
      <trkpt lat="41.8349340" lon="-8.5967070">
        <ele>123.8</ele>
        <time>2019-06-21T07:37:53Z</time>
      </trkpt>
      <trkpt lat="41.8350090" lon="-8.5967100">
        <ele>124.4</ele>
        <time>2019-06-21T07:37:58Z</time>
      </trkpt>
      <trkpt lat="41.8350340" lon="-8.5967080">
        <ele>124.8</ele>
        <time>2019-06-21T07:38:00Z</time>
      </trkpt>
      <trkpt lat="41.8351290" lon="-8.5966970">
        <ele>125.6</ele>
        <time>2019-06-21T07:38:06Z</time>
      </trkpt>
      <trkpt lat="41.8351440" lon="-8.5966940">
        <ele>125.8</ele>
        <time>2019-06-21T07:38:07Z</time>
      </trkpt>
      <trkpt lat="41.8352040" lon="-8.5966930">
        <ele>126.4</ele>
        <time>2019-06-21T07:38:12Z</time>
      </trkpt>
      <trkpt lat="41.8352430" lon="-8.5967050">
        <ele>126.6</ele>
        <time>2019-06-21T07:38:14Z</time>
      </trkpt>
      <trkpt lat="41.8352690" lon="-8.5967090">
        <ele>126.6</ele>
        <time>2019-06-21T07:38:15Z</time>
      </trkpt>
      <trkpt lat="41.8354110" lon="-8.5967390">
        <ele>127.4</ele>
        <time>2019-06-21T07:38:22Z</time>
      </trkpt>
      <trkpt lat="41.8354290" lon="-8.5967410">
        <ele>127.8</ele>
        <time>2019-06-21T07:38:23Z</time>
      </trkpt>
      <trkpt lat="41.8354950" lon="-8.5967690">
        <ele>126.4</ele>
        <time>2019-06-21T07:38:27Z</time>
      </trkpt>
      <trkpt lat="41.8355320" lon="-8.5967830">
        <ele>127.4</ele>
        <time>2019-06-21T07:38:29Z</time>
      </trkpt>
      <trkpt lat="41.8355470" lon="-8.5967920">
        <ele>129.0</ele>
        <time>2019-06-21T07:38:30Z</time>
      </trkpt>
      <trkpt lat="41.8356400" lon="-8.5968410">
        <ele>128.8</ele>
        <time>2019-06-21T07:38:36Z</time>
      </trkpt>
      <trkpt lat="41.8357340" lon="-8.5968910">
        <ele>131.4</ele>
        <time>2019-06-21T07:38:41Z</time>
      </trkpt>
      <trkpt lat="41.8357660" lon="-8.5969120">
        <ele>133.2</ele>
        <time>2019-06-21T07:38:43Z</time>
      </trkpt>
      <trkpt lat="41.8357820" lon="-8.5969160">
        <ele>131.8</ele>
        <time>2019-06-21T07:38:44Z</time>
      </trkpt>
      <trkpt lat="41.8357960" lon="-8.5969240">
        <ele>131.6</ele>
        <time>2019-06-21T07:38:45Z</time>
      </trkpt>
      <trkpt lat="41.8359160" lon="-8.5969810">
        <ele>131.8</ele>
        <time>2019-06-21T07:38:52Z</time>
      </trkpt>
      <trkpt lat="41.8360090" lon="-8.5970140">
        <ele>132.8</ele>
        <time>2019-06-21T07:38:58Z</time>
      </trkpt>
      <trkpt lat="41.8360370" lon="-8.5970220">
        <ele>134.2</ele>
        <time>2019-06-21T07:39:00Z</time>
      </trkpt>
      <trkpt lat="41.8361330" lon="-8.5970480">
        <ele>134.8</ele>
        <time>2019-06-21T07:39:06Z</time>
      </trkpt>
      <trkpt lat="41.8361700" lon="-8.5970850">
        <ele>135.2</ele>
        <time>2019-06-21T07:39:09Z</time>
      </trkpt>
      <trkpt lat="41.8362300" lon="-8.5971090">
        <ele>135.8</ele>
        <time>2019-06-21T07:39:13Z</time>
      </trkpt>
      <trkpt lat="41.8363580" lon="-8.5971030">
        <ele>136.0</ele>
        <time>2019-06-21T07:39:19Z</time>
      </trkpt>
      <trkpt lat="41.8364500" lon="-8.5971490">
        <ele>136.0</ele>
        <time>2019-06-21T07:39:24Z</time>
      </trkpt>
      <trkpt lat="41.8364950" lon="-8.5971960">
        <ele>136.4</ele>
        <time>2019-06-21T07:39:27Z</time>
      </trkpt>
      <trkpt lat="41.8365200" lon="-8.5972150">
        <ele>137.0</ele>
        <time>2019-06-21T07:39:29Z</time>
      </trkpt>
      <trkpt lat="41.8365330" lon="-8.5972260">
        <ele>137.2</ele>
        <time>2019-06-21T07:39:30Z</time>
      </trkpt>
      <trkpt lat="41.8365600" lon="-8.5972440">
        <ele>137.4</ele>
        <time>2019-06-21T07:39:32Z</time>
      </trkpt>
      <trkpt lat="41.8365750" lon="-8.5972560">
        <ele>137.6</ele>
        <time>2019-06-21T07:39:33Z</time>
      </trkpt>
      <trkpt lat="41.8366160" lon="-8.5972990">
        <ele>138.2</ele>
        <time>2019-06-21T07:39:36Z</time>
      </trkpt>
      <trkpt lat="41.8366400" lon="-8.5973230">
        <ele>138.6</ele>
        <time>2019-06-21T07:39:38Z</time>
      </trkpt>
      <trkpt lat="41.8366920" lon="-8.5973920">
        <ele>139.4</ele>
        <time>2019-06-21T07:39:43Z</time>
      </trkpt>
      <trkpt lat="41.8367100" lon="-8.5974190">
        <ele>139.6</ele>
        <time>2019-06-21T07:39:45Z</time>
      </trkpt>
      <trkpt lat="41.8367510" lon="-8.5974820">
        <ele>140.8</ele>
        <time>2019-06-21T07:39:50Z</time>
      </trkpt>
      <trkpt lat="41.8367700" lon="-8.5975070">
        <ele>141.2</ele>
        <time>2019-06-21T07:39:52Z</time>
      </trkpt>
      <trkpt lat="41.8367910" lon="-8.5975480">
        <ele>142.0</ele>
        <time>2019-06-21T07:39:55Z</time>
      </trkpt>
      <trkpt lat="41.8368140" lon="-8.5975980">
        <ele>142.8</ele>
        <time>2019-06-21T07:39:59Z</time>
      </trkpt>
      <trkpt lat="41.8368270" lon="-8.5976270">
        <ele>143.2</ele>
        <time>2019-06-21T07:40:01Z</time>
      </trkpt>
      <trkpt lat="41.8368520" lon="-8.5977070">
        <ele>144.2</ele>
        <time>2019-06-21T07:40:06Z</time>
      </trkpt>
      <trkpt lat="41.8368540" lon="-8.5977370">
        <ele>144.6</ele>
        <time>2019-06-21T07:40:08Z</time>
      </trkpt>
      <trkpt lat="41.8368560" lon="-8.5977820">
        <ele>145.4</ele>
        <time>2019-06-21T07:40:11Z</time>
      </trkpt>
      <trkpt lat="41.8368790" lon="-8.5978540">
        <ele>146.4</ele>
        <time>2019-06-21T07:40:16Z</time>
      </trkpt>
      <trkpt lat="41.8368870" lon="-8.5978650">
        <ele>146.6</ele>
        <time>2019-06-21T07:40:17Z</time>
      </trkpt>
      <trkpt lat="41.8369300" lon="-8.5978940">
        <ele>147.6</ele>
        <time>2019-06-21T07:40:21Z</time>
      </trkpt>
      <trkpt lat="41.8369590" lon="-8.5979480">
        <ele>148.2</ele>
        <time>2019-06-21T07:40:25Z</time>
      </trkpt>
      <trkpt lat="41.8369460" lon="-8.5979800">
        <ele>148.6</ele>
        <time>2019-06-21T07:40:27Z</time>
      </trkpt>
      <trkpt lat="41.8369320" lon="-8.5980430">
        <ele>149.6</ele>
        <time>2019-06-21T07:40:31Z</time>
      </trkpt>
      <trkpt lat="41.8369350" lon="-8.5980590">
        <ele>149.8</ele>
        <time>2019-06-21T07:40:32Z</time>
      </trkpt>
      <trkpt lat="41.8369460" lon="-8.5980910">
        <ele>150.2</ele>
        <time>2019-06-21T07:40:34Z</time>
      </trkpt>
      <trkpt lat="41.8369630" lon="-8.5981160">
        <ele>150.8</ele>
        <time>2019-06-21T07:40:36Z</time>
      </trkpt>
      <trkpt lat="41.8369860" lon="-8.5981350">
        <ele>151.2</ele>
        <time>2019-06-21T07:40:38Z</time>
      </trkpt>
      <trkpt lat="41.8369930" lon="-8.5981540">
        <ele>151.6</ele>
        <time>2019-06-21T07:40:39Z</time>
      </trkpt>
      <trkpt lat="41.8369940" lon="-8.5981720">
        <ele>152.0</ele>
        <time>2019-06-21T07:40:40Z</time>
      </trkpt>
      <trkpt lat="41.8369990" lon="-8.5982280">
        <ele>152.8</ele>
        <time>2019-06-21T07:40:43Z</time>
      </trkpt>
      <trkpt lat="41.8370060" lon="-8.5982590">
        <ele>153.0</ele>
        <time>2019-06-21T07:40:45Z</time>
      </trkpt>
      <trkpt lat="41.8370390" lon="-8.5983370">
        <ele>154.2</ele>
        <time>2019-06-21T07:40:50Z</time>
      </trkpt>
      <trkpt lat="41.8370930" lon="-8.5984480">
        <ele>155.4</ele>
        <time>2019-06-21T07:40:57Z</time>
      </trkpt>
      <trkpt lat="41.8371350" lon="-8.5985470">
        <ele>156.4</ele>
        <time>2019-06-21T07:41:03Z</time>
      </trkpt>
      <trkpt lat="41.8371460" lon="-8.5985640">
        <ele>156.4</ele>
        <time>2019-06-21T07:41:04Z</time>
      </trkpt>
      <trkpt lat="41.8372200" lon="-8.5987280">
        <ele>156.6</ele>
        <time>2019-06-21T07:41:11Z</time>
      </trkpt>
      <trkpt lat="41.8373200" lon="-8.5989720">
        <ele>156.2</ele>
        <time>2019-06-21T07:41:18Z</time>
      </trkpt>
      <trkpt lat="41.8373950" lon="-8.5991480">
        <ele>156.2</ele>
        <time>2019-06-21T07:41:22Z</time>
      </trkpt>
      <trkpt lat="41.8374390" lon="-8.5992320">
        <ele>155.8</ele>
        <time>2019-06-21T07:41:24Z</time>
      </trkpt>
      <trkpt lat="41.8375250" lon="-8.5993320">
        <ele>155.8</ele>
        <time>2019-06-21T07:41:27Z</time>
      </trkpt>
      <trkpt lat="41.8375920" lon="-8.5993780">
        <ele>155.6</ele>
        <time>2019-06-21T07:41:29Z</time>
      </trkpt>
      <trkpt lat="41.8376280" lon="-8.5993910">
        <ele>155.6</ele>
        <time>2019-06-21T07:41:30Z</time>
      </trkpt>
      <trkpt lat="41.8377440" lon="-8.5993980">
        <ele>155.4</ele>
        <time>2019-06-21T07:41:33Z</time>
      </trkpt>
      <trkpt lat="41.8378060" lon="-8.5994090">
        <ele>155.6</ele>
        <time>2019-06-21T07:41:35Z</time>
      </trkpt>
      <trkpt lat="41.8379200" lon="-8.5995090">
        <ele>156.4</ele>
        <time>2019-06-21T07:41:40Z</time>
      </trkpt>
      <trkpt lat="41.8380670" lon="-8.5996870">
        <ele>157.4</ele>
        <time>2019-06-21T07:41:47Z</time>
      </trkpt>
      <trkpt lat="41.8380880" lon="-8.5997110">
        <ele>157.8</ele>
        <time>2019-06-21T07:41:48Z</time>
      </trkpt>
      <trkpt lat="41.8381580" lon="-8.5997960">
        <ele>158.4</ele>
        <time>2019-06-21T07:41:52Z</time>
      </trkpt>
      <trkpt lat="41.8381980" lon="-8.5998510">
        <ele>159.0</ele>
        <time>2019-06-21T07:41:55Z</time>
      </trkpt>
      <trkpt lat="41.8382410" lon="-8.5999010">
        <ele>159.6</ele>
        <time>2019-06-21T07:41:58Z</time>
      </trkpt>
      <trkpt lat="41.8383430" lon="-8.5999850">
        <ele>160.6</ele>
        <time>2019-06-21T07:42:04Z</time>
      </trkpt>
      <trkpt lat="41.8383620" lon="-8.5999990">
        <ele>160.8</ele>
        <time>2019-06-21T07:42:05Z</time>
      </trkpt>
      <trkpt lat="41.8384520" lon="-8.6001400">
        <ele>161.2</ele>
        <time>2019-06-21T07:42:11Z</time>
      </trkpt>
      <trkpt lat="41.8385300" lon="-8.6003640">
        <ele>161.6</ele>
        <time>2019-06-21T07:42:19Z</time>
      </trkpt>
      <trkpt lat="41.8385390" lon="-8.6003950">
        <ele>161.8</ele>
        <time>2019-06-21T07:42:20Z</time>
      </trkpt>
      <trkpt lat="41.8386100" lon="-8.6005450">
        <ele>162.0</ele>
        <time>2019-06-21T07:42:25Z</time>
      </trkpt>
      <trkpt lat="41.8387130" lon="-8.6006730">
        <ele>162.6</ele>
        <time>2019-06-21T07:42:31Z</time>
      </trkpt>
      <trkpt lat="41.8387300" lon="-8.6006930">
        <ele>162.6</ele>
        <time>2019-06-21T07:42:32Z</time>
      </trkpt>
      <trkpt lat="41.8387500" lon="-8.6007130">
        <ele>162.8</ele>
        <time>2019-06-21T07:42:33Z</time>
      </trkpt>
      <trkpt lat="41.8388800" lon="-8.6008120">
        <ele>163.0</ele>
        <time>2019-06-21T07:42:39Z</time>
      </trkpt>
      <trkpt lat="41.8389020" lon="-8.6008210">
        <ele>163.2</ele>
        <time>2019-06-21T07:42:40Z</time>
      </trkpt>
      <trkpt lat="41.8390460" lon="-8.6008470">
        <ele>163.4</ele>
        <time>2019-06-21T07:42:46Z</time>
      </trkpt>
      <trkpt lat="41.8390960" lon="-8.6008530">
        <ele>163.4</ele>
        <time>2019-06-21T07:42:48Z</time>
      </trkpt>
      <trkpt lat="41.8391540" lon="-8.6008680">
        <ele>163.8</ele>
        <time>2019-06-21T07:42:51Z</time>
      </trkpt>
      <trkpt lat="41.8391910" lon="-8.6008920">
        <ele>164.4</ele>
        <time>2019-06-21T07:42:54Z</time>
      </trkpt>
      <trkpt lat="41.8392390" lon="-8.6009230">
        <ele>165.0</ele>
        <time>2019-06-21T07:42:57Z</time>
      </trkpt>
      <trkpt lat="41.8392940" lon="-8.6009430">
        <ele>166.0</ele>
        <time>2019-06-21T07:43:00Z</time>
      </trkpt>
      <trkpt lat="41.8393100" lon="-8.6009530">
        <ele>166.2</ele>
        <time>2019-06-21T07:43:01Z</time>
      </trkpt>
      <trkpt lat="41.8394000" lon="-8.6009980">
        <ele>167.2</ele>
        <time>2019-06-21T07:43:07Z</time>
      </trkpt>
      <trkpt lat="41.8394910" lon="-8.6010200">
        <ele>168.2</ele>
        <time>2019-06-21T07:43:13Z</time>
      </trkpt>
      <trkpt lat="41.8395420" lon="-8.6010290">
        <ele>168.6</ele>
        <time>2019-06-21T07:43:16Z</time>
      </trkpt>
      <trkpt lat="41.8396170" lon="-8.6010450">
        <ele>169.4</ele>
        <time>2019-06-21T07:43:21Z</time>
      </trkpt>
      <trkpt lat="41.8396780" lon="-8.6010830">
        <ele>170.0</ele>
        <time>2019-06-21T07:43:25Z</time>
      </trkpt>
      <trkpt lat="41.8397900" lon="-8.6011330">
        <ele>170.4</ele>
        <time>2019-06-21T07:43:31Z</time>
      </trkpt>
      <trkpt lat="41.8399320" lon="-8.6012240">
        <ele>170.2</ele>
        <time>2019-06-21T07:43:37Z</time>
      </trkpt>
      <trkpt lat="41.8399590" lon="-8.6012310">
        <ele>170.2</ele>
        <time>2019-06-21T07:43:38Z</time>
      </trkpt>
      <trkpt lat="41.8401190" lon="-8.6012350">
        <ele>170.0</ele>
        <time>2019-06-21T07:43:44Z</time>
      </trkpt>
      <trkpt lat="41.8401440" lon="-8.6012340">
        <ele>170.0</ele>
        <time>2019-06-21T07:43:45Z</time>
      </trkpt>
      <trkpt lat="41.8401950" lon="-8.6012330">
        <ele>170.0</ele>
        <time>2019-06-21T07:43:47Z</time>
      </trkpt>
      <trkpt lat="41.8402520" lon="-8.6012120">
        <ele>169.8</ele>
        <time>2019-06-21T07:43:49Z</time>
      </trkpt>
      <trkpt lat="41.8403210" lon="-8.6011550">
        <ele>169.4</ele>
        <time>2019-06-21T07:43:51Z</time>
      </trkpt>
      <trkpt lat="41.8404070" lon="-8.6010680">
        <ele>169.0</ele>
        <time>2019-06-21T07:43:53Z</time>
      </trkpt>
      <trkpt lat="41.8405060" lon="-8.6009670">
        <ele>168.0</ele>
        <time>2019-06-21T07:43:55Z</time>
      </trkpt>
      <trkpt lat="41.8405630" lon="-8.6009220">
        <ele>167.4</ele>
        <time>2019-06-21T07:43:56Z</time>
      </trkpt>
      <trkpt lat="41.8406240" lon="-8.6008910">
        <ele>166.6</ele>
        <time>2019-06-21T07:43:57Z</time>
      </trkpt>
      <trkpt lat="41.8407430" lon="-8.6008550">
        <ele>165.4</ele>
        <time>2019-06-21T07:43:59Z</time>
      </trkpt>
      <trkpt lat="41.8408610" lon="-8.6008200">
        <ele>164.2</ele>
        <time>2019-06-21T07:44:01Z</time>
      </trkpt>
      <trkpt lat="41.8410430" lon="-8.6007670">
        <ele>164.2</ele>
        <time>2019-06-21T07:44:05Z</time>
      </trkpt>
      <trkpt lat="41.8411900" lon="-8.6008130">
        <ele>164.2</ele>
        <time>2019-06-21T07:44:10Z</time>
      </trkpt>
      <trkpt lat="41.8414390" lon="-8.6009310">
        <ele>163.6</ele>
        <time>2019-06-21T07:44:17Z</time>
      </trkpt>
      <trkpt lat="41.8414850" lon="-8.6009390">
        <ele>163.2</ele>
        <time>2019-06-21T07:44:18Z</time>
      </trkpt>
      <trkpt lat="41.8415260" lon="-8.6009380">
        <ele>163.0</ele>
        <time>2019-06-21T07:44:19Z</time>
      </trkpt>
      <trkpt lat="41.8416060" lon="-8.6009190">
        <ele>163.0</ele>
        <time>2019-06-21T07:44:21Z</time>
      </trkpt>
      <trkpt lat="41.8416400" lon="-8.6009020">
        <ele>163.0</ele>
        <time>2019-06-21T07:44:22Z</time>
      </trkpt>
      <trkpt lat="41.8417560" lon="-8.6008950">
        <ele>163.2</ele>
        <time>2019-06-21T07:44:26Z</time>
      </trkpt>
      <trkpt lat="41.8418600" lon="-8.6008380">
        <ele>163.0</ele>
        <time>2019-06-21T07:44:31Z</time>
      </trkpt>
      <trkpt lat="41.8419740" lon="-8.6007840">
        <ele>162.8</ele>
        <time>2019-06-21T07:44:37Z</time>
      </trkpt>
      <trkpt lat="41.8420380" lon="-8.6007400">
        <ele>163.0</ele>
        <time>2019-06-21T07:44:40Z</time>
      </trkpt>
      <trkpt lat="41.8421140" lon="-8.6006810">
        <ele>162.8</ele>
        <time>2019-06-21T07:44:43Z</time>
      </trkpt>
      <trkpt lat="41.8423350" lon="-8.6004750">
        <ele>163.2</ele>
        <time>2019-06-21T07:44:51Z</time>
      </trkpt>
      <trkpt lat="41.8424960" lon="-8.6002620">
        <ele>162.8</ele>
        <time>2019-06-21T07:44:57Z</time>
      </trkpt>
      <trkpt lat="41.8425620" lon="-8.6001820">
        <ele>161.6</ele>
        <time>2019-06-21T07:44:59Z</time>
      </trkpt>
      <trkpt lat="41.8425940" lon="-8.6001500">
        <ele>160.2</ele>
        <time>2019-06-21T07:45:00Z</time>
      </trkpt>
      <trkpt lat="41.8426400" lon="-8.6001290">
        <ele>159.8</ele>
        <time>2019-06-21T07:45:01Z</time>
      </trkpt>
      <trkpt lat="41.8426900" lon="-8.6001220">
        <ele>159.4</ele>
        <time>2019-06-21T07:45:02Z</time>
      </trkpt>
      <trkpt lat="41.8427360" lon="-8.6001170">
        <ele>158.8</ele>
        <time>2019-06-21T07:45:03Z</time>
      </trkpt>
      <trkpt lat="41.8427770" lon="-8.6001170">
        <ele>158.4</ele>
        <time>2019-06-21T07:45:04Z</time>
      </trkpt>
      <trkpt lat="41.8428140" lon="-8.6001310">
        <ele>157.8</ele>
        <time>2019-06-21T07:45:05Z</time>
      </trkpt>
      <trkpt lat="41.8428510" lon="-8.6001650">
        <ele>157.2</ele>
        <time>2019-06-21T07:45:06Z</time>
      </trkpt>
      <trkpt lat="41.8429290" lon="-8.6002560">
        <ele>156.6</ele>
        <time>2019-06-21T07:45:08Z</time>
      </trkpt>
      <trkpt lat="41.8429710" lon="-8.6003170">
        <ele>156.2</ele>
        <time>2019-06-21T07:45:09Z</time>
      </trkpt>
      <trkpt lat="41.8430130" lon="-8.6003710">
        <ele>155.4</ele>
        <time>2019-06-21T07:45:10Z</time>
      </trkpt>
      <trkpt lat="41.8431110" lon="-8.6004350">
        <ele>154.4</ele>
        <time>2019-06-21T07:45:12Z</time>
      </trkpt>
      <trkpt lat="41.8431680" lon="-8.6004420">
        <ele>154.2</ele>
        <time>2019-06-21T07:45:13Z</time>
      </trkpt>
      <trkpt lat="41.8432800" lon="-8.6004500">
        <ele>153.8</ele>
        <time>2019-06-21T07:45:15Z</time>
      </trkpt>
      <trkpt lat="41.8434610" lon="-8.6004620">
        <ele>153.8</ele>
        <time>2019-06-21T07:45:19Z</time>
      </trkpt>
      <trkpt lat="41.8435710" lon="-8.6004090">
        <ele>154.6</ele>
        <time>2019-06-21T07:45:23Z</time>
      </trkpt>
      <trkpt lat="41.8435780" lon="-8.6003800">
        <ele>154.8</ele>
        <time>2019-06-21T07:45:24Z</time>
      </trkpt>
      <trkpt lat="41.8435870" lon="-8.6002850">
        <ele>155.6</ele>
        <time>2019-06-21T07:45:27Z</time>
      </trkpt>
      <trkpt lat="41.8435740" lon="-8.6001670">
        <ele>156.6</ele>
        <time>2019-06-21T07:45:31Z</time>
      </trkpt>
      <trkpt lat="41.8435540" lon="-8.6000850">
        <ele>157.0</ele>
        <time>2019-06-21T07:45:34Z</time>
      </trkpt>
      <trkpt lat="41.8435650" lon="-8.5999460">
        <ele>157.6</ele>
        <time>2019-06-21T07:45:38Z</time>
      </trkpt>
      <trkpt lat="41.8435740" lon="-8.5999220">
        <ele>157.8</ele>
        <time>2019-06-21T07:45:39Z</time>
      </trkpt>
      <trkpt lat="41.8436040" lon="-8.5998760">
        <ele>158.6</ele>
        <time>2019-06-21T07:45:42Z</time>
      </trkpt>
      <trkpt lat="41.8436440" lon="-8.5998600">
        <ele>159.0</ele>
        <time>2019-06-21T07:45:45Z</time>
      </trkpt>
      <trkpt lat="41.8436840" lon="-8.5998690">
        <ele>159.8</ele>
        <time>2019-06-21T07:45:48Z</time>
      </trkpt>
      <trkpt lat="41.8437120" lon="-8.5999080">
        <ele>160.4</ele>
        <time>2019-06-21T07:45:51Z</time>
      </trkpt>
      <trkpt lat="41.8437190" lon="-8.5999460">
        <ele>160.6</ele>
        <time>2019-06-21T07:45:53Z</time>
      </trkpt>
      <trkpt lat="41.8437200" lon="-8.5999810">
        <ele>161.0</ele>
        <time>2019-06-21T07:45:55Z</time>
      </trkpt>
      <trkpt lat="41.8437380" lon="-8.6000250">
        <ele>161.4</ele>
        <time>2019-06-21T07:45:58Z</time>
      </trkpt>
      <trkpt lat="41.8437670" lon="-8.6000640">
        <ele>162.0</ele>
        <time>2019-06-21T07:46:01Z</time>
      </trkpt>
      <trkpt lat="41.8437990" lon="-8.6001110">
        <ele>163.0</ele>
        <time>2019-06-21T07:46:05Z</time>
      </trkpt>
      <trkpt lat="41.8438050" lon="-8.6001220">
        <ele>163.4</ele>
        <time>2019-06-21T07:46:07Z</time>
      </trkpt>
      <trkpt lat="41.8438130" lon="-8.6001320">
        <ele>163.6</ele>
        <time>2019-06-21T07:46:08Z</time>
      </trkpt>
      <trkpt lat="41.8438500" lon="-8.6001600">
        <ele>164.4</ele>
        <time>2019-06-21T07:46:12Z</time>
      </trkpt>
      <trkpt lat="41.8438780" lon="-8.6001900">
        <ele>165.2</ele>
        <time>2019-06-21T07:46:15Z</time>
      </trkpt>
      <trkpt lat="41.8438880" lon="-8.6001930">
        <ele>165.4</ele>
        <time>2019-06-21T07:46:16Z</time>
      </trkpt>
      <trkpt lat="41.8439410" lon="-8.6001890">
        <ele>166.4</ele>
        <time>2019-06-21T07:46:21Z</time>
      </trkpt>
      <trkpt lat="41.8440230" lon="-8.6001740">
        <ele>167.6</ele>
        <time>2019-06-21T07:46:28Z</time>
      </trkpt>
      <trkpt lat="41.8441100" lon="-8.6001600">
        <ele>168.6</ele>
        <time>2019-06-21T07:46:36Z</time>
      </trkpt>
      <trkpt lat="41.8441220" lon="-8.6001520">
        <ele>168.8</ele>
        <time>2019-06-21T07:46:37Z</time>
      </trkpt>
      <trkpt lat="41.8441850" lon="-8.6001090">
        <ele>169.6</ele>
        <time>2019-06-21T07:46:43Z</time>
      </trkpt>
      <trkpt lat="41.8441980" lon="-8.6001030">
        <ele>169.6</ele>
        <time>2019-06-21T07:46:44Z</time>
      </trkpt>
      <trkpt lat="41.8442080" lon="-8.6000980">
        <ele>169.8</ele>
        <time>2019-06-21T07:46:45Z</time>
      </trkpt>
      <trkpt lat="41.8442740" lon="-8.6000950">
        <ele>170.6</ele>
        <time>2019-06-21T07:46:50Z</time>
      </trkpt>
      <trkpt lat="41.8442870" lon="-8.6000990">
        <ele>170.8</ele>
        <time>2019-06-21T07:46:51Z</time>
      </trkpt>
      <trkpt lat="41.8442970" lon="-8.6001030">
        <ele>171.0</ele>
        <time>2019-06-21T07:46:52Z</time>
      </trkpt>
      <trkpt lat="41.8443200" lon="-8.6001140">
        <ele>171.4</ele>
        <time>2019-06-21T07:46:54Z</time>
      </trkpt>
      <trkpt lat="41.8443480" lon="-8.6001360">
        <ele>172.0</ele>
        <time>2019-06-21T07:46:57Z</time>
      </trkpt>
      <trkpt lat="41.8443740" lon="-8.6001620">
        <ele>172.6</ele>
        <time>2019-06-21T07:47:00Z</time>
      </trkpt>
      <trkpt lat="41.8444400" lon="-8.6002590">
        <ele>172.8</ele>
        <time>2019-06-21T07:47:07Z</time>
      </trkpt>
      <trkpt lat="41.8444700" lon="-8.6003290">
        <ele>173.0</ele>
        <time>2019-06-21T07:47:11Z</time>
      </trkpt>
      <trkpt lat="41.8445000" lon="-8.6003650">
        <ele>173.6</ele>
        <time>2019-06-21T07:47:14Z</time>
      </trkpt>
      <trkpt lat="41.8445180" lon="-8.6003980">
        <ele>174.2</ele>
        <time>2019-06-21T07:47:16Z</time>
      </trkpt>
      <trkpt lat="41.8445530" lon="-8.6004600">
        <ele>175.2</ele>
        <time>2019-06-21T07:47:21Z</time>
      </trkpt>
      <trkpt lat="41.8446170" lon="-8.6005460">
        <ele>175.8</ele>
        <time>2019-06-21T07:47:27Z</time>
      </trkpt>
      <trkpt lat="41.8446330" lon="-8.6005670">
        <ele>176.4</ele>
        <time>2019-06-21T07:47:29Z</time>
      </trkpt>
      <trkpt lat="41.8446630" lon="-8.6006140">
        <ele>177.2</ele>
        <time>2019-06-21T07:47:34Z</time>
      </trkpt>
      <trkpt lat="41.8446750" lon="-8.6006230">
        <ele>177.4</ele>
        <time>2019-06-21T07:47:35Z</time>
      </trkpt>
      <trkpt lat="41.8446850" lon="-8.6006340">
        <ele>177.6</ele>
        <time>2019-06-21T07:47:36Z</time>
      </trkpt>
      <trkpt lat="41.8447540" lon="-8.6006930">
        <ele>178.6</ele>
        <time>2019-06-21T07:47:42Z</time>
      </trkpt>
      <trkpt lat="41.8447640" lon="-8.6007050">
        <ele>179.0</ele>
        <time>2019-06-21T07:47:43Z</time>
      </trkpt>
      <trkpt lat="41.8448030" lon="-8.6007510">
        <ele>180.0</ele>
        <time>2019-06-21T07:47:47Z</time>
      </trkpt>
      <trkpt lat="41.8448440" lon="-8.6007890">
        <ele>180.2</ele>
        <time>2019-06-21T07:47:51Z</time>
      </trkpt>
      <trkpt lat="41.8449420" lon="-8.6008500">
        <ele>181.0</ele>
        <time>2019-06-21T07:48:00Z</time>
      </trkpt>
      <trkpt lat="41.8449800" lon="-8.6008740">
        <ele>182.0</ele>
        <time>2019-06-21T07:48:04Z</time>
      </trkpt>
      <trkpt lat="41.8450140" lon="-8.6008920">
        <ele>182.8</ele>
        <time>2019-06-21T07:48:07Z</time>
      </trkpt>
      <trkpt lat="41.8450250" lon="-8.6008990">
        <ele>183.0</ele>
        <time>2019-06-21T07:48:08Z</time>
      </trkpt>
      <trkpt lat="41.8450750" lon="-8.6009150">
        <ele>184.2</ele>
        <time>2019-06-21T07:48:12Z</time>
      </trkpt>
      <trkpt lat="41.8451170" lon="-8.6009200">
        <ele>185.2</ele>
        <time>2019-06-21T07:48:16Z</time>
      </trkpt>
      <trkpt lat="41.8451560" lon="-8.6009200">
        <ele>186.4</ele>
        <time>2019-06-21T07:48:20Z</time>
      </trkpt>
      <trkpt lat="41.8451980" lon="-8.6009180">
        <ele>187.2</ele>
        <time>2019-06-21T07:48:24Z</time>
      </trkpt>
      <trkpt lat="41.8452100" lon="-8.6009140">
        <ele>187.4</ele>
        <time>2019-06-21T07:48:25Z</time>
      </trkpt>
      <trkpt lat="41.8452220" lon="-8.6009180">
        <ele>187.6</ele>
        <time>2019-06-21T07:48:26Z</time>
      </trkpt>
      <trkpt lat="41.8452450" lon="-8.6009170">
        <ele>188.2</ele>
        <time>2019-06-21T07:48:28Z</time>
      </trkpt>
      <trkpt lat="41.8452590" lon="-8.6009080">
        <ele>188.4</ele>
        <time>2019-06-21T07:48:29Z</time>
      </trkpt>
      <trkpt lat="41.8452710" lon="-8.6009080">
        <ele>188.8</ele>
        <time>2019-06-21T07:48:30Z</time>
      </trkpt>
      <trkpt lat="41.8452990" lon="-8.6009090">
        <ele>189.4</ele>
        <time>2019-06-21T07:48:33Z</time>
      </trkpt>
      <trkpt lat="41.8453090" lon="-8.6009070">
        <ele>189.6</ele>
        <time>2019-06-21T07:48:34Z</time>
      </trkpt>
      <trkpt lat="41.8453320" lon="-8.6008970">
        <ele>190.2</ele>
        <time>2019-06-21T07:48:36Z</time>
      </trkpt>
      <trkpt lat="41.8453420" lon="-8.6008960">
        <ele>190.8</ele>
        <time>2019-06-21T07:48:37Z</time>
      </trkpt>
      <trkpt lat="41.8453580" lon="-8.6009080">
        <ele>191.2</ele>
        <time>2019-06-21T07:48:39Z</time>
      </trkpt>
      <trkpt lat="41.8453870" lon="-8.6009310">
        <ele>192.0</ele>
        <time>2019-06-21T07:48:42Z</time>
      </trkpt>
      <trkpt lat="41.8454340" lon="-8.6009590">
        <ele>193.2</ele>
        <time>2019-06-21T07:48:47Z</time>
      </trkpt>
      <trkpt lat="41.8454540" lon="-8.6009710">
        <ele>193.4</ele>
        <time>2019-06-21T07:48:49Z</time>
      </trkpt>
      <trkpt lat="41.8454900" lon="-8.6009810">
        <ele>193.6</ele>
        <time>2019-06-21T07:48:52Z</time>
      </trkpt>
      <trkpt lat="41.8455430" lon="-8.6010060">
        <ele>193.8</ele>
        <time>2019-06-21T07:48:56Z</time>
      </trkpt>
      <trkpt lat="41.8456320" lon="-8.6010580">
        <ele>194.0</ele>
        <time>2019-06-21T07:49:03Z</time>
      </trkpt>
      <trkpt lat="41.8456410" lon="-8.6010580">
        <ele>194.2</ele>
        <time>2019-06-21T07:49:04Z</time>
      </trkpt>
      <trkpt lat="41.8456490" lon="-8.6010470">
        <ele>194.2</ele>
        <time>2019-06-21T07:49:05Z</time>
      </trkpt>
      <trkpt lat="41.8456630" lon="-8.6010520">
        <ele>194.2</ele>
        <time>2019-06-21T07:49:08Z</time>
      </trkpt>
      <trkpt lat="41.8456920" lon="-8.6010600">
        <ele>194.4</ele>
        <time>2019-06-21T07:51:16Z</time>
      </trkpt>
      <trkpt lat="41.8457040" lon="-8.6010820">
        <ele>194.6</ele>
        <time>2019-06-21T07:51:40Z</time>
      </trkpt>
      <trkpt lat="41.8457020" lon="-8.6010800">
        <ele>194.6</ele>
        <time>2019-06-21T07:51:41Z</time>
      </trkpt>
      <trkpt lat="41.8457150" lon="-8.6010930">
        <ele>194.8</ele>
        <time>2019-06-21T07:52:21Z</time>
      </trkpt>
      <trkpt lat="41.8457220" lon="-8.6011030">
        <ele>194.8</ele>
        <time>2019-06-21T07:52:22Z</time>
      </trkpt>
      <trkpt lat="41.8457490" lon="-8.6011310">
        <ele>194.8</ele>
        <time>2019-06-21T07:52:25Z</time>
      </trkpt>
      <trkpt lat="41.8458040" lon="-8.6011670">
        <ele>195.2</ele>
        <time>2019-06-21T07:52:31Z</time>
      </trkpt>
      <trkpt lat="41.8458160" lon="-8.6011790">
        <ele>195.2</ele>
        <time>2019-06-21T07:52:32Z</time>
      </trkpt>
      <trkpt lat="41.8458840" lon="-8.6012410">
        <ele>195.4</ele>
        <time>2019-06-21T07:52:41Z</time>
      </trkpt>
      <trkpt lat="41.8459830" lon="-8.6013080">
        <ele>195.6</ele>
        <time>2019-06-21T07:52:48Z</time>
      </trkpt>
      <trkpt lat="41.8460080" lon="-8.6013270">
        <ele>195.6</ele>
        <time>2019-06-21T07:52:50Z</time>
      </trkpt>
      <trkpt lat="41.8460570" lon="-8.6013610">
        <ele>195.8</ele>
        <time>2019-06-21T07:52:54Z</time>
      </trkpt>
      <trkpt lat="41.8461410" lon="-8.6014130">
        <ele>196.0</ele>
        <time>2019-06-21T07:53:00Z</time>
      </trkpt>
      <trkpt lat="41.8461910" lon="-8.6014520">
        <ele>196.2</ele>
        <time>2019-06-21T07:53:04Z</time>
      </trkpt>
      <trkpt lat="41.8462170" lon="-8.6014730">
        <ele>196.4</ele>
        <time>2019-06-21T07:53:06Z</time>
      </trkpt>
      <trkpt lat="41.8463680" lon="-8.6015540">
        <ele>198.0</ele>
        <time>2019-06-21T07:53:19Z</time>
      </trkpt>
      <trkpt lat="41.8463830" lon="-8.6015650">
        <ele>198.2</ele>
        <time>2019-06-21T07:53:20Z</time>
      </trkpt>
      <trkpt lat="41.8464390" lon="-8.6016090">
        <ele>199.0</ele>
        <time>2019-06-21T07:53:25Z</time>
      </trkpt>
      <trkpt lat="41.8464600" lon="-8.6016190">
        <ele>199.4</ele>
        <time>2019-06-21T07:53:27Z</time>
      </trkpt>
      <trkpt lat="41.8465090" lon="-8.6016340">
        <ele>200.2</ele>
        <time>2019-06-21T07:53:31Z</time>
      </trkpt>
      <trkpt lat="41.8465230" lon="-8.6016330">
        <ele>200.4</ele>
        <time>2019-06-21T07:53:32Z</time>
      </trkpt>
      <trkpt lat="41.8465360" lon="-8.6016380">
        <ele>200.8</ele>
        <time>2019-06-21T07:53:33Z</time>
      </trkpt>
      <trkpt lat="41.8465710" lon="-8.6016480">
        <ele>201.2</ele>
        <time>2019-06-21T07:53:36Z</time>
      </trkpt>
      <trkpt lat="41.8466090" lon="-8.6016480">
        <ele>202.0</ele>
        <time>2019-06-21T07:53:40Z</time>
      </trkpt>
      <trkpt lat="41.8466180" lon="-8.6016430">
        <ele>202.4</ele>
        <time>2019-06-21T07:53:41Z</time>
      </trkpt>
      <trkpt lat="41.8466670" lon="-8.6016500">
        <ele>203.2</ele>
        <time>2019-06-21T07:53:45Z</time>
      </trkpt>
      <trkpt lat="41.8466810" lon="-8.6016560">
        <ele>203.4</ele>
        <time>2019-06-21T07:53:46Z</time>
      </trkpt>
      <trkpt lat="41.8467020" lon="-8.6016640">
        <ele>203.8</ele>
        <time>2019-06-21T07:53:48Z</time>
      </trkpt>
      <trkpt lat="41.8467340" lon="-8.6016800">
        <ele>204.6</ele>
        <time>2019-06-21T07:53:51Z</time>
      </trkpt>
      <trkpt lat="41.8467450" lon="-8.6016760">
        <ele>204.8</ele>
        <time>2019-06-21T07:53:52Z</time>
      </trkpt>
      <trkpt lat="41.8467740" lon="-8.6016630">
        <ele>205.4</ele>
        <time>2019-06-21T07:53:55Z</time>
      </trkpt>
      <trkpt lat="41.8467880" lon="-8.6016680">
        <ele>205.4</ele>
        <time>2019-06-21T07:53:56Z</time>
      </trkpt>
      <trkpt lat="41.8468010" lon="-8.6016820">
        <ele>205.4</ele>
        <time>2019-06-21T07:53:57Z</time>
      </trkpt>
      <trkpt lat="41.8468240" lon="-8.6017090">
        <ele>205.6</ele>
        <time>2019-06-21T07:53:59Z</time>
      </trkpt>
      <trkpt lat="41.8468580" lon="-8.6017560">
        <ele>206.2</ele>
        <time>2019-06-21T07:54:03Z</time>
      </trkpt>
      <trkpt lat="41.8468710" lon="-8.6017870">
        <ele>206.2</ele>
        <time>2019-06-21T07:54:05Z</time>
      </trkpt>
      <trkpt lat="41.8468920" lon="-8.6018240">
        <ele>206.6</ele>
        <time>2019-06-21T07:54:08Z</time>
      </trkpt>
      <trkpt lat="41.8469010" lon="-8.6018360">
        <ele>206.8</ele>
        <time>2019-06-21T07:54:09Z</time>
      </trkpt>
      <trkpt lat="41.8469450" lon="-8.6019340">
        <ele>208.0</ele>
        <time>2019-06-21T07:54:17Z</time>
      </trkpt>
      <trkpt lat="41.8469660" lon="-8.6020280">
        <ele>209.0</ele>
        <time>2019-06-21T07:54:24Z</time>
      </trkpt>
      <trkpt lat="41.8469700" lon="-8.6020370">
        <ele>209.0</ele>
        <time>2019-06-21T07:54:25Z</time>
      </trkpt>
      <trkpt lat="41.8470240" lon="-8.6021610">
        <ele>210.0</ele>
        <time>2019-06-21T07:54:35Z</time>
      </trkpt>
      <trkpt lat="41.8470370" lon="-8.6022400">
        <ele>210.0</ele>
        <time>2019-06-21T07:54:40Z</time>
      </trkpt>
      <trkpt lat="41.8470410" lon="-8.6022530">
        <ele>210.2</ele>
        <time>2019-06-21T07:54:41Z</time>
      </trkpt>
      <trkpt lat="41.8470700" lon="-8.6023250">
        <ele>210.4</ele>
        <time>2019-06-21T07:54:46Z</time>
      </trkpt>
      <trkpt lat="41.8470770" lon="-8.6023350">
        <ele>210.6</ele>
        <time>2019-06-21T07:54:47Z</time>
      </trkpt>
      <trkpt lat="41.8471010" lon="-8.6023900">
        <ele>210.6</ele>
        <time>2019-06-21T07:54:51Z</time>
      </trkpt>
      <trkpt lat="41.8471060" lon="-8.6024010">
        <ele>210.8</ele>
        <time>2019-06-21T07:54:52Z</time>
      </trkpt>
      <trkpt lat="41.8471230" lon="-8.6024280">
        <ele>211.0</ele>
        <time>2019-06-21T07:54:54Z</time>
      </trkpt>
      <trkpt lat="41.8471550" lon="-8.6025120">
        <ele>211.2</ele>
        <time>2019-06-21T07:55:00Z</time>
      </trkpt>
      <trkpt lat="41.8471720" lon="-8.6025410">
        <ele>211.2</ele>
        <time>2019-06-21T07:55:48Z</time>
      </trkpt>
      <trkpt lat="41.8471770" lon="-8.6025530">
        <ele>211.0</ele>
        <time>2019-06-21T07:55:49Z</time>
      </trkpt>
      <trkpt lat="41.8472140" lon="-8.6026010">
        <ele>211.4</ele>
        <time>2019-06-21T07:55:53Z</time>
      </trkpt>
      <trkpt lat="41.8472240" lon="-8.6026190">
        <ele>211.4</ele>
        <time>2019-06-21T07:55:54Z</time>
      </trkpt>
      <trkpt lat="41.8472600" lon="-8.6026710">
        <ele>212.0</ele>
        <time>2019-06-21T07:55:58Z</time>
      </trkpt>
      <trkpt lat="41.8472790" lon="-8.6027190">
        <ele>212.0</ele>
        <time>2019-06-21T07:56:01Z</time>
      </trkpt>
      <trkpt lat="41.8473250" lon="-8.6028220">
        <ele>212.6</ele>
        <time>2019-06-21T07:56:08Z</time>
      </trkpt>
      <trkpt lat="41.8473390" lon="-8.6028410">
        <ele>213.0</ele>
        <time>2019-06-21T07:56:10Z</time>
      </trkpt>
      <trkpt lat="41.8473520" lon="-8.6028830">
        <ele>213.8</ele>
        <time>2019-06-21T07:56:14Z</time>
      </trkpt>
      <trkpt lat="41.8473570" lon="-8.6028990">
        <ele>214.0</ele>
        <time>2019-06-21T07:56:15Z</time>
      </trkpt>
      <trkpt lat="41.8473650" lon="-8.6029130">
        <ele>214.0</ele>
        <time>2019-06-21T07:56:16Z</time>
      </trkpt>
      <trkpt lat="41.8474060" lon="-8.6029900">
        <ele>214.4</ele>
        <time>2019-06-21T07:56:21Z</time>
      </trkpt>
      <trkpt lat="41.8474180" lon="-8.6030260">
        <ele>214.6</ele>
        <time>2019-06-21T07:56:23Z</time>
      </trkpt>
      <trkpt lat="41.8474510" lon="-8.6030800">
        <ele>215.2</ele>
        <time>2019-06-21T07:56:28Z</time>
      </trkpt>
      <trkpt lat="41.8474840" lon="-8.6031190">
        <ele>215.6</ele>
        <time>2019-06-21T07:56:32Z</time>
      </trkpt>
      <trkpt lat="41.8475130" lon="-8.6031960">
        <ele>216.4</ele>
        <time>2019-06-21T07:56:38Z</time>
      </trkpt>
      <trkpt lat="41.8475310" lon="-8.6032270">
        <ele>216.6</ele>
        <time>2019-06-21T07:56:40Z</time>
      </trkpt>
      <trkpt lat="41.8475710" lon="-8.6032920">
        <ele>217.4</ele>
        <time>2019-06-21T07:56:45Z</time>
      </trkpt>
      <trkpt lat="41.8476010" lon="-8.6033060">
        <ele>217.4</ele>
        <time>2019-06-21T07:56:47Z</time>
      </trkpt>
      <trkpt lat="41.8477460" lon="-8.6032980">
        <ele>216.6</ele>
        <time>2019-06-21T07:56:52Z</time>
      </trkpt>
      <trkpt lat="41.8477790" lon="-8.6032980">
        <ele>216.2</ele>
        <time>2019-06-21T07:56:56Z</time>
      </trkpt>
      <trkpt lat="41.8478300" lon="-8.6032000">
        <ele>216.2</ele>
        <time>2019-06-21T08:01:19Z</time>
      </trkpt>
      <trkpt lat="41.8478280" lon="-8.6032090">
        <ele>216.2</ele>
        <time>2019-06-21T08:01:20Z</time>
      </trkpt>
      <trkpt lat="41.8479020" lon="-8.6029960">
        <ele>217.4</ele>
        <time>2019-06-21T08:01:33Z</time>
      </trkpt>
      <trkpt lat="41.8479250" lon="-8.6029290">
        <ele>217.6</ele>
        <time>2019-06-21T08:01:36Z</time>
      </trkpt>
      <trkpt lat="41.8479780" lon="-8.6028350">
        <ele>219.0</ele>
        <time>2019-06-21T08:01:42Z</time>
      </trkpt>
      <trkpt lat="41.8479990" lon="-8.6028150">
        <ele>219.6</ele>
        <time>2019-06-21T08:01:44Z</time>
      </trkpt>
      <trkpt lat="41.8480150" lon="-8.6028060">
        <ele>219.8</ele>
        <time>2019-06-21T08:01:45Z</time>
      </trkpt>
      <trkpt lat="41.8480630" lon="-8.6027620">
        <ele>220.8</ele>
        <time>2019-06-21T08:01:49Z</time>
      </trkpt>
      <trkpt lat="41.8480770" lon="-8.6027540">
        <ele>221.0</ele>
        <time>2019-06-21T08:01:50Z</time>
      </trkpt>
      <trkpt lat="41.8480980" lon="-8.6027460">
        <ele>221.4</ele>
        <time>2019-06-21T08:01:52Z</time>
      </trkpt>
      <trkpt lat="41.8481800" lon="-8.6027020">
        <ele>220.6</ele>
        <time>2019-06-21T08:01:56Z</time>
      </trkpt>
      <trkpt lat="41.8482580" lon="-8.6026600">
        <ele>219.6</ele>
        <time>2019-06-21T08:01:58Z</time>
      </trkpt>
      <trkpt lat="41.8483270" lon="-8.6026350">
        <ele>218.0</ele>
        <time>2019-06-21T08:02:00Z</time>
      </trkpt>
      <trkpt lat="41.8483590" lon="-8.6026270">
        <ele>217.4</ele>
        <time>2019-06-21T08:02:01Z</time>
      </trkpt>
      <trkpt lat="41.8483990" lon="-8.6026350">
        <ele>217.0</ele>
        <time>2019-06-21T08:02:02Z</time>
      </trkpt>
      <trkpt lat="41.8484630" lon="-8.6026800">
        <ele>216.4</ele>
        <time>2019-06-21T08:02:04Z</time>
      </trkpt>
      <trkpt lat="41.8486050" lon="-8.6027400">
        <ele>216.4</ele>
        <time>2019-06-21T08:02:10Z</time>
      </trkpt>
      <trkpt lat="41.8487000" lon="-8.6027880">
        <ele>216.4</ele>
        <time>2019-06-21T08:02:16Z</time>
      </trkpt>
      <trkpt lat="41.8488510" lon="-8.6028370">
        <ele>216.6</ele>
        <time>2019-06-21T08:02:23Z</time>
      </trkpt>
      <trkpt lat="41.8489800" lon="-8.6028810">
        <ele>217.2</ele>
        <time>2019-06-21T08:02:29Z</time>
      </trkpt>
      <trkpt lat="41.8491280" lon="-8.6029420">
        <ele>217.8</ele>
        <time>2019-06-21T08:02:37Z</time>
      </trkpt>
      <trkpt lat="41.8492350" lon="-8.6030020">
        <ele>217.8</ele>
        <time>2019-06-21T08:02:42Z</time>
      </trkpt>
      <trkpt lat="41.8492940" lon="-8.6030530">
        <ele>218.0</ele>
        <time>2019-06-21T08:02:46Z</time>
      </trkpt>
      <trkpt lat="41.8493150" lon="-8.6030760">
        <ele>218.0</ele>
        <time>2019-06-21T08:02:47Z</time>
      </trkpt>
      <trkpt lat="41.8493930" lon="-8.6031580">
        <ele>218.6</ele>
        <time>2019-06-21T08:02:51Z</time>
      </trkpt>
      <trkpt lat="41.8494400" lon="-8.6031990">
        <ele>219.0</ele>
        <time>2019-06-21T08:02:54Z</time>
      </trkpt>
      <trkpt lat="41.8494760" lon="-8.6032470">
        <ele>219.4</ele>
        <time>2019-06-21T08:02:56Z</time>
      </trkpt>
      <trkpt lat="41.8495650" lon="-8.6033900">
        <ele>219.6</ele>
        <time>2019-06-21T08:03:03Z</time>
      </trkpt>
      <trkpt lat="41.8498160" lon="-8.6035170">
        <ele>221.4</ele>
        <time>2019-06-21T08:03:21Z</time>
      </trkpt>
      <trkpt lat="41.8499550" lon="-8.6035450">
        <ele>224.0</ele>
        <time>2019-06-21T08:03:36Z</time>
      </trkpt>
      <trkpt lat="41.8499770" lon="-8.6035400">
        <ele>224.4</ele>
        <time>2019-06-21T08:03:38Z</time>
      </trkpt>
      <trkpt lat="41.8500740" lon="-8.6035670">
        <ele>224.8</ele>
        <time>2019-06-21T08:04:04Z</time>
      </trkpt>
      <trkpt lat="41.8502980" lon="-8.6037100">
        <ele>225.2</ele>
        <time>2019-06-21T08:04:26Z</time>
      </trkpt>
      <trkpt lat="41.8505650" lon="-8.6037240">
        <ele>226.4</ele>
        <time>2019-06-21T08:06:33Z</time>
      </trkpt>
      <trkpt lat="41.8505580" lon="-8.6037270">
        <ele>226.4</ele>
        <time>2019-06-21T08:06:34Z</time>
      </trkpt>
      <trkpt lat="41.8506310" lon="-8.6036850">
        <ele>226.4</ele>
        <time>2019-06-21T08:06:38Z</time>
      </trkpt>
      <trkpt lat="41.8507660" lon="-8.6036670">
        <ele>227.6</ele>
        <time>2019-06-21T08:06:45Z</time>
      </trkpt>
      <trkpt lat="41.8507860" lon="-8.6036660">
        <ele>228.0</ele>
        <time>2019-06-21T08:06:46Z</time>
      </trkpt>
      <trkpt lat="41.8508130" lon="-8.6036620">
        <ele>228.6</ele>
        <time>2019-06-21T08:06:48Z</time>
      </trkpt>
      <trkpt lat="41.8508290" lon="-8.6036630">
        <ele>229.0</ele>
        <time>2019-06-21T08:06:49Z</time>
      </trkpt>
      <trkpt lat="41.8508480" lon="-8.6036740">
        <ele>229.2</ele>
        <time>2019-06-21T08:06:50Z</time>
      </trkpt>
      <trkpt lat="41.8508530" lon="-8.6036740">
        <ele>229.6</ele>
        <time>2019-06-21T08:06:52Z</time>
      </trkpt>
      <trkpt lat="41.8509490" lon="-8.6036560">
        <ele>231.2</ele>
        <time>2019-06-21T08:06:58Z</time>
      </trkpt>
      <trkpt lat="41.8509940" lon="-8.6036680">
        <ele>231.8</ele>
        <time>2019-06-21T08:07:01Z</time>
      </trkpt>
      <trkpt lat="41.8510070" lon="-8.6036730">
        <ele>232.0</ele>
        <time>2019-06-21T08:07:02Z</time>
      </trkpt>
      <trkpt lat="41.8510200" lon="-8.6036750">
        <ele>232.6</ele>
        <time>2019-06-21T08:07:03Z</time>
      </trkpt>
      <trkpt lat="41.8511030" lon="-8.6036570">
        <ele>233.6</ele>
        <time>2019-06-21T08:07:09Z</time>
      </trkpt>
      <trkpt lat="41.8511520" lon="-8.6036360">
        <ele>234.8</ele>
        <time>2019-06-21T08:07:13Z</time>
      </trkpt>
      <trkpt lat="41.8512290" lon="-8.6036180">
        <ele>235.4</ele>
        <time>2019-06-21T08:07:18Z</time>
      </trkpt>
      <trkpt lat="41.8512810" lon="-8.6036180">
        <ele>236.0</ele>
        <time>2019-06-21T08:07:22Z</time>
      </trkpt>
      <trkpt lat="41.8512960" lon="-8.6036230">
        <ele>236.0</ele>
        <time>2019-06-21T08:07:23Z</time>
      </trkpt>
      <trkpt lat="41.8514000" lon="-8.6036880">
        <ele>236.6</ele>
        <time>2019-06-21T08:07:33Z</time>
      </trkpt>
      <trkpt lat="41.8514610" lon="-8.6037400">
        <ele>237.0</ele>
        <time>2019-06-21T08:07:38Z</time>
      </trkpt>
      <trkpt lat="41.8515170" lon="-8.6037460">
        <ele>237.2</ele>
        <time>2019-06-21T08:07:42Z</time>
      </trkpt>
      <trkpt lat="41.8515440" lon="-8.6037640">
        <ele>237.4</ele>
        <time>2019-06-21T08:07:44Z</time>
      </trkpt>
      <trkpt lat="41.8516710" lon="-8.6037890">
        <ele>237.6</ele>
        <time>2019-06-21T08:08:27Z</time>
      </trkpt>
      <trkpt lat="41.8517020" lon="-8.6037970">
        <ele>237.6</ele>
        <time>2019-06-21T08:08:28Z</time>
      </trkpt>
      <trkpt lat="41.8517350" lon="-8.6038020">
        <ele>237.8</ele>
        <time>2019-06-21T08:08:29Z</time>
      </trkpt>
      <trkpt lat="41.8518830" lon="-8.6038340">
        <ele>238.2</ele>
        <time>2019-06-21T08:08:35Z</time>
      </trkpt>
      <trkpt lat="41.8519130" lon="-8.6038380">
        <ele>238.4</ele>
        <time>2019-06-21T08:08:36Z</time>
      </trkpt>
      <trkpt lat="41.8519460" lon="-8.6038420">
        <ele>238.4</ele>
        <time>2019-06-21T08:08:38Z</time>
      </trkpt>
      <trkpt lat="41.8520030" lon="-8.6038440">
        <ele>239.0</ele>
        <time>2019-06-21T08:08:41Z</time>
      </trkpt>
      <trkpt lat="41.8520910" lon="-8.6038620">
        <ele>239.2</ele>
        <time>2019-06-21T08:08:45Z</time>
      </trkpt>
      <trkpt lat="41.8521180" lon="-8.6038810">
        <ele>239.4</ele>
        <time>2019-06-21T08:08:47Z</time>
      </trkpt>
      <trkpt lat="41.8521350" lon="-8.6038990">
        <ele>239.6</ele>
        <time>2019-06-21T08:08:48Z</time>
      </trkpt>
      <trkpt lat="41.8521890" lon="-8.6039610">
        <ele>240.2</ele>
        <time>2019-06-21T08:08:52Z</time>
      </trkpt>
      <trkpt lat="41.8522280" lon="-8.6039970">
        <ele>240.8</ele>
        <time>2019-06-21T08:08:54Z</time>
      </trkpt>
      <trkpt lat="41.8522700" lon="-8.6040500">
        <ele>241.6</ele>
        <time>2019-06-21T08:08:57Z</time>
      </trkpt>
      <trkpt lat="41.8522880" lon="-8.6040850">
        <ele>242.4</ele>
        <time>2019-06-21T08:08:59Z</time>
      </trkpt>
      <trkpt lat="41.8523000" lon="-8.6040990">
        <ele>243.0</ele>
        <time>2019-06-21T08:09:00Z</time>
      </trkpt>
      <trkpt lat="41.8523240" lon="-8.6041300">
        <ele>243.8</ele>
        <time>2019-06-21T08:09:02Z</time>
      </trkpt>
      <trkpt lat="41.8523260" lon="-8.6041540">
        <ele>244.4</ele>
        <time>2019-06-21T08:09:03Z</time>
      </trkpt>
      <trkpt lat="41.8523600" lon="-8.6042130">
        <ele>246.0</ele>
        <time>2019-06-21T08:09:06Z</time>
      </trkpt>
      <trkpt lat="41.8523810" lon="-8.6042580">
        <ele>247.0</ele>
        <time>2019-06-21T08:09:09Z</time>
      </trkpt>
      <trkpt lat="41.8523860" lon="-8.6042720">
        <ele>247.4</ele>
        <time>2019-06-21T08:09:10Z</time>
      </trkpt>
      <trkpt lat="41.8523920" lon="-8.6042970">
        <ele>248.0</ele>
        <time>2019-06-21T08:09:12Z</time>
      </trkpt>
      <trkpt lat="41.8524020" lon="-8.6043020">
        <ele>248.4</ele>
        <time>2019-06-21T08:09:13Z</time>
      </trkpt>
      <trkpt lat="41.8538180" lon="-8.6042830">
        <ele>263.6</ele>
        <time>2019-06-21T08:11:11Z</time>
      </trkpt>
      <trkpt lat="41.8538710" lon="-8.6043020">
        <ele>263.6</ele>
        <time>2019-06-21T08:11:14Z</time>
      </trkpt>
      <trkpt lat="41.8539480" lon="-8.6043330">
        <ele>263.8</ele>
        <time>2019-06-21T08:11:18Z</time>
      </trkpt>
      <trkpt lat="41.8539710" lon="-8.6043450">
        <ele>263.6</ele>
        <time>2019-06-21T08:11:19Z</time>
      </trkpt>
      <trkpt lat="41.8540850" lon="-8.6043640">
        <ele>264.4</ele>
        <time>2019-06-21T08:11:25Z</time>
      </trkpt>
      <trkpt lat="41.8541110" lon="-8.6043540">
        <ele>264.6</ele>
        <time>2019-06-21T08:11:27Z</time>
      </trkpt>
      <trkpt lat="41.8541360" lon="-8.6043370">
        <ele>264.6</ele>
        <time>2019-06-21T08:11:29Z</time>
      </trkpt>
      <trkpt lat="41.8541630" lon="-8.6043120">
        <ele>264.8</ele>
        <time>2019-06-21T08:11:31Z</time>
      </trkpt>
      <trkpt lat="41.8542960" lon="-8.6042260">
        <ele>265.4</ele>
        <time>2019-06-21T08:11:41Z</time>
      </trkpt>
      <trkpt lat="41.8543200" lon="-8.6042120">
        <ele>265.6</ele>
        <time>2019-06-21T08:11:43Z</time>
      </trkpt>
      <trkpt lat="41.8543360" lon="-8.6042060">
        <ele>265.8</ele>
        <time>2019-06-21T08:11:44Z</time>
      </trkpt>
      <trkpt lat="41.8544180" lon="-8.6041710">
        <ele>266.4</ele>
        <time>2019-06-21T08:11:50Z</time>
      </trkpt>
      <trkpt lat="41.8544310" lon="-8.6041630">
        <ele>266.8</ele>
        <time>2019-06-21T08:11:51Z</time>
      </trkpt>
      <trkpt lat="41.8544960" lon="-8.6041280">
        <ele>267.8</ele>
        <time>2019-06-21T08:11:56Z</time>
      </trkpt>
      <trkpt lat="41.8549030" lon="-8.6042050">
        <ele>271.8</ele>
        <time>2019-06-21T08:12:29Z</time>
      </trkpt>
      <trkpt lat="41.8549020" lon="-8.6042040">
        <ele>271.8</ele>
        <time>2019-06-21T08:12:30Z</time>
      </trkpt>
      <trkpt lat="41.8549250" lon="-8.6042280">
        <ele>273.4</ele>
        <time>2019-06-21T08:12:31Z</time>
      </trkpt>
      <trkpt lat="41.8549390" lon="-8.6042380">
        <ele>273.2</ele>
        <time>2019-06-21T08:12:32Z</time>
      </trkpt>
      <trkpt lat="41.8550030" lon="-8.6042690">
        <ele>273.4</ele>
        <time>2019-06-21T08:12:37Z</time>
      </trkpt>
      <trkpt lat="41.8551210" lon="-8.6043630">
        <ele>273.8</ele>
        <time>2019-06-21T08:12:44Z</time>
      </trkpt>
      <trkpt lat="41.8551580" lon="-8.6043940">
        <ele>274.2</ele>
        <time>2019-06-21T08:12:46Z</time>
      </trkpt>
      <trkpt lat="41.8552020" lon="-8.6044610">
        <ele>273.8</ele>
        <time>2019-06-21T08:12:49Z</time>
      </trkpt>
      <trkpt lat="41.8552970" lon="-8.6045880">
        <ele>273.6</ele>
        <time>2019-06-21T08:12:54Z</time>
      </trkpt>
      <trkpt lat="41.8553610" lon="-8.6045910">
        <ele>273.6</ele>
        <time>2019-06-21T08:12:57Z</time>
      </trkpt>
      <trkpt lat="41.8553830" lon="-8.6045660">
        <ele>273.4</ele>
        <time>2019-06-21T08:12:58Z</time>
      </trkpt>
      <trkpt lat="41.8554180" lon="-8.6045230">
        <ele>273.2</ele>
        <time>2019-06-21T08:13:00Z</time>
      </trkpt>
      <trkpt lat="41.8554600" lon="-8.6044440">
        <ele>273.4</ele>
        <time>2019-06-21T08:13:03Z</time>
      </trkpt>
      <trkpt lat="41.8554680" lon="-8.6044170">
        <ele>273.4</ele>
        <time>2019-06-21T08:13:04Z</time>
      </trkpt>
      <trkpt lat="41.8555130" lon="-8.6042750">
        <ele>273.4</ele>
        <time>2019-06-21T08:13:08Z</time>
      </trkpt>
      <trkpt lat="41.8555300" lon="-8.6042020">
        <ele>273.4</ele>
        <time>2019-06-21T08:13:10Z</time>
      </trkpt>
      <trkpt lat="41.8555520" lon="-8.6041060">
        <ele>273.6</ele>
        <time>2019-06-21T08:13:13Z</time>
      </trkpt>
      <trkpt lat="41.8556010" lon="-8.6039970">
        <ele>273.8</ele>
        <time>2019-06-21T08:13:17Z</time>
      </trkpt>
      <trkpt lat="41.8556980" lon="-8.6039040">
        <ele>274.4</ele>
        <time>2019-06-21T08:13:22Z</time>
      </trkpt>
      <trkpt lat="41.8557730" lon="-8.6038500">
        <ele>275.8</ele>
        <time>2019-06-21T08:13:27Z</time>
      </trkpt>
      <trkpt lat="41.8557880" lon="-8.6038470">
        <ele>276.0</ele>
        <time>2019-06-21T08:13:28Z</time>
      </trkpt>
      <trkpt lat="41.8558700" lon="-8.6038390">
        <ele>276.2</ele>
        <time>2019-06-21T08:13:32Z</time>
      </trkpt>
      <trkpt lat="41.8559220" lon="-8.6038230">
        <ele>276.4</ele>
        <time>2019-06-21T08:13:34Z</time>
      </trkpt>
      <trkpt lat="41.8561090" lon="-8.6038170">
        <ele>276.4</ele>
        <time>2019-06-21T08:13:40Z</time>
      </trkpt>
      <trkpt lat="41.8562610" lon="-8.6038230">
        <ele>276.4</ele>
        <time>2019-06-21T08:13:46Z</time>
      </trkpt>
      <trkpt lat="41.8563920" lon="-8.6038620">
        <ele>276.6</ele>
        <time>2019-06-21T08:13:53Z</time>
      </trkpt>
      <trkpt lat="41.8564550" lon="-8.6038900">
        <ele>276.6</ele>
        <time>2019-06-21T08:13:58Z</time>
      </trkpt>
      <trkpt lat="41.8564860" lon="-8.6039090">
        <ele>276.8</ele>
        <time>2019-06-21T08:14:00Z</time>
      </trkpt>
      <trkpt lat="41.8565250" lon="-8.6039360">
        <ele>277.8</ele>
        <time>2019-06-21T08:14:03Z</time>
      </trkpt>
      <trkpt lat="41.8565370" lon="-8.6039450">
        <ele>278.0</ele>
        <time>2019-06-21T08:14:04Z</time>
      </trkpt>
      <trkpt lat="41.8565780" lon="-8.6039760">
        <ele>279.4</ele>
        <time>2019-06-21T08:14:09Z</time>
      </trkpt>
      <trkpt lat="41.8565770" lon="-8.6039760">
        <ele>279.4</ele>
        <time>2019-06-21T08:14:10Z</time>
      </trkpt>
      <trkpt lat="41.8566160" lon="-8.6039860">
        <ele>279.8</ele>
        <time>2019-06-21T08:14:12Z</time>
      </trkpt>
      <trkpt lat="41.8566570" lon="-8.6040020">
        <ele>280.4</ele>
        <time>2019-06-21T08:14:15Z</time>
      </trkpt>
      <trkpt lat="41.8566830" lon="-8.6040150">
        <ele>281.0</ele>
        <time>2019-06-21T08:14:17Z</time>
      </trkpt>
      <trkpt lat="41.8567230" lon="-8.6040240">
        <ele>281.4</ele>
        <time>2019-06-21T08:14:20Z</time>
      </trkpt>
      <trkpt lat="41.8567660" lon="-8.6040460">
        <ele>282.4</ele>
        <time>2019-06-21T08:14:23Z</time>
      </trkpt>
      <trkpt lat="41.8567800" lon="-8.6040490">
        <ele>282.4</ele>
        <time>2019-06-21T08:14:24Z</time>
      </trkpt>
      <trkpt lat="41.8568160" lon="-8.6040500">
        <ele>283.0</ele>
        <time>2019-06-21T08:14:27Z</time>
      </trkpt>
      <trkpt lat="41.8568370" lon="-8.6040460">
        <ele>283.6</ele>
        <time>2019-06-21T08:14:29Z</time>
      </trkpt>
      <trkpt lat="41.8568910" lon="-8.6040740">
        <ele>284.8</ele>
        <time>2019-06-21T08:14:37Z</time>
      </trkpt>
      <trkpt lat="41.8569010" lon="-8.6040810">
        <ele>284.8</ele>
        <time>2019-06-21T08:14:38Z</time>
      </trkpt>
      <trkpt lat="41.8569110" lon="-8.6040890">
        <ele>285.2</ele>
        <time>2019-06-21T08:14:39Z</time>
      </trkpt>
      <trkpt lat="41.8569380" lon="-8.6041230">
        <ele>285.8</ele>
        <time>2019-06-21T08:14:42Z</time>
      </trkpt>
      <trkpt lat="41.8569720" lon="-8.6041610">
        <ele>286.6</ele>
        <time>2019-06-21T08:14:46Z</time>
      </trkpt>
      <trkpt lat="41.8569820" lon="-8.6041770">
        <ele>286.8</ele>
        <time>2019-06-21T08:14:48Z</time>
      </trkpt>
      <trkpt lat="41.8570220" lon="-8.6041940">
        <ele>287.8</ele>
        <time>2019-06-21T08:14:54Z</time>
      </trkpt>
      <trkpt lat="41.8570490" lon="-8.6041880">
        <ele>288.4</ele>
        <time>2019-06-21T08:14:59Z</time>
      </trkpt>
      <trkpt lat="41.8570490" lon="-8.6041880">
        <ele>288.6</ele>
        <time>2019-06-21T08:15:00Z</time>
      </trkpt>
      <trkpt lat="41.8571150" lon="-8.6041760">
        <ele>289.2</ele>
        <time>2019-06-21T08:15:06Z</time>
      </trkpt>
      <trkpt lat="41.8571480" lon="-8.6041750">
        <ele>289.6</ele>
        <time>2019-06-21T08:15:08Z</time>
      </trkpt>
      <trkpt lat="41.8571630" lon="-8.6041760">
        <ele>289.8</ele>
        <time>2019-06-21T08:15:09Z</time>
      </trkpt>
      <trkpt lat="41.8571810" lon="-8.6041790">
        <ele>289.8</ele>
        <time>2019-06-21T08:15:10Z</time>
      </trkpt>
      <trkpt lat="41.8572400" lon="-8.6041890">
        <ele>290.6</ele>
        <time>2019-06-21T08:15:14Z</time>
      </trkpt>
      <trkpt lat="41.8572700" lon="-8.6041960">
        <ele>290.8</ele>
        <time>2019-06-21T08:15:16Z</time>
      </trkpt>
      <trkpt lat="41.8573330" lon="-8.6042110">
        <ele>291.8</ele>
        <time>2019-06-21T08:15:21Z</time>
      </trkpt>
      <trkpt lat="41.8573550" lon="-8.6042340">
        <ele>292.2</ele>
        <time>2019-06-21T08:15:23Z</time>
      </trkpt>
      <trkpt lat="41.8573760" lon="-8.6042580">
        <ele>292.8</ele>
        <time>2019-06-21T08:15:25Z</time>
      </trkpt>
      <trkpt lat="41.8573870" lon="-8.6042670">
        <ele>293.2</ele>
        <time>2019-06-21T08:15:26Z</time>
      </trkpt>
      <trkpt lat="41.8574170" lon="-8.6042990">
        <ele>294.0</ele>
        <time>2019-06-21T08:15:29Z</time>
      </trkpt>
      <trkpt lat="41.8574350" lon="-8.6043170">
        <ele>295.2</ele>
        <time>2019-06-21T08:15:32Z</time>
      </trkpt>
      <trkpt lat="41.8574870" lon="-8.6043840">
        <ele>296.0</ele>
        <time>2019-06-21T08:15:38Z</time>
      </trkpt>
      <trkpt lat="41.8574980" lon="-8.6043930">
        <ele>296.2</ele>
        <time>2019-06-21T08:15:39Z</time>
      </trkpt>
      <trkpt lat="41.8575480" lon="-8.6044220">
        <ele>297.0</ele>
        <time>2019-06-21T08:15:44Z</time>
      </trkpt>
      <trkpt lat="41.8575600" lon="-8.6044260">
        <ele>297.2</ele>
        <time>2019-06-21T08:15:45Z</time>
      </trkpt>
      <trkpt lat="41.8575890" lon="-8.6044210">
        <ele>297.2</ele>
        <time>2019-06-21T08:15:48Z</time>
      </trkpt>
      <trkpt lat="41.8576110" lon="-8.6044170">
        <ele>297.0</ele>
        <time>2019-06-21T08:15:50Z</time>
      </trkpt>
      <trkpt lat="41.8576610" lon="-8.6043820">
        <ele>297.0</ele>
        <time>2019-06-21T08:15:54Z</time>
      </trkpt>
      <trkpt lat="41.8576740" lon="-8.6043800">
        <ele>296.8</ele>
        <time>2019-06-21T08:15:55Z</time>
      </trkpt>
      <trkpt lat="41.8576840" lon="-8.6043890">
        <ele>297.0</ele>
        <time>2019-06-21T08:17:21Z</time>
      </trkpt>
      <trkpt lat="41.8576840" lon="-8.6043900">
        <ele>297.0</ele>
        <time>2019-06-21T08:17:22Z</time>
      </trkpt>
      <trkpt lat="41.8577010" lon="-8.6043960">
        <ele>297.0</ele>
        <time>2019-06-21T08:17:24Z</time>
      </trkpt>
      <trkpt lat="41.8577200" lon="-8.6043980">
        <ele>297.8</ele>
        <time>2019-06-21T08:17:28Z</time>
      </trkpt>
      <trkpt lat="41.8577640" lon="-8.6043840">
        <ele>299.6</ele>
        <time>2019-06-21T08:18:06Z</time>
      </trkpt>
      <trkpt lat="41.8577630" lon="-8.6043830">
        <ele>299.8</ele>
        <time>2019-06-21T08:18:07Z</time>
      </trkpt>
      <trkpt lat="41.8577640" lon="-8.6043830">
        <ele>300.4</ele>
        <time>2019-06-21T08:18:10Z</time>
      </trkpt>
      <trkpt lat="41.8578730" lon="-8.6044240">
        <ele>303.4</ele>
        <time>2019-06-21T08:18:24Z</time>
      </trkpt>
      <trkpt lat="41.8578720" lon="-8.6044240">
        <ele>303.6</ele>
        <time>2019-06-21T08:18:25Z</time>
      </trkpt>
      <trkpt lat="41.8579820" lon="-8.6043970">
        <ele>305.0</ele>
        <time>2019-06-21T08:18:45Z</time>
      </trkpt>
      <trkpt lat="41.8579970" lon="-8.6043940">
        <ele>305.2</ele>
        <time>2019-06-21T08:18:46Z</time>
      </trkpt>
      <trkpt lat="41.8580510" lon="-8.6043880">
        <ele>305.6</ele>
        <time>2019-06-21T08:18:49Z</time>
      </trkpt>
      <trkpt lat="41.8580910" lon="-8.6043880">
        <ele>305.8</ele>
        <time>2019-06-21T08:18:51Z</time>
      </trkpt>
      <trkpt lat="41.8581110" lon="-8.6043880">
        <ele>306.2</ele>
        <time>2019-06-21T08:18:52Z</time>
      </trkpt>
      <trkpt lat="41.8581620" lon="-8.6043850">
        <ele>306.4</ele>
        <time>2019-06-21T08:18:55Z</time>
      </trkpt>
      <trkpt lat="41.8582370" lon="-8.6043680">
        <ele>306.8</ele>
        <time>2019-06-21T08:18:59Z</time>
      </trkpt>
      <trkpt lat="41.8582570" lon="-8.6043730">
        <ele>307.0</ele>
        <time>2019-06-21T08:19:00Z</time>
      </trkpt>
      <trkpt lat="41.8582940" lon="-8.6043760">
        <ele>307.2</ele>
        <time>2019-06-21T08:19:02Z</time>
      </trkpt>
      <trkpt lat="41.8583520" lon="-8.6043970">
        <ele>307.4</ele>
        <time>2019-06-21T08:19:05Z</time>
      </trkpt>
      <trkpt lat="41.8584580" lon="-8.6044410">
        <ele>308.2</ele>
        <time>2019-06-21T08:19:11Z</time>
      </trkpt>
      <trkpt lat="41.8584560" lon="-8.6044410">
        <ele>308.4</ele>
        <time>2019-06-21T08:19:12Z</time>
      </trkpt>
      <trkpt lat="41.8585550" lon="-8.6044700">
        <ele>309.0</ele>
        <time>2019-06-21T08:19:17Z</time>
      </trkpt>
      <trkpt lat="41.8586390" lon="-8.6045010">
        <ele>309.4</ele>
        <time>2019-06-21T08:19:22Z</time>
      </trkpt>
      <trkpt lat="41.8586770" lon="-8.6045140">
        <ele>309.6</ele>
        <time>2019-06-21T08:19:24Z</time>
      </trkpt>
      <trkpt lat="41.8587960" lon="-8.6045680">
        <ele>310.6</ele>
        <time>2019-06-21T08:19:31Z</time>
      </trkpt>
      <trkpt lat="41.8588140" lon="-8.6045750">
        <ele>310.8</ele>
        <time>2019-06-21T08:19:32Z</time>
      </trkpt>
      <trkpt lat="41.8588810" lon="-8.6045950">
        <ele>311.6</ele>
        <time>2019-06-21T08:19:36Z</time>
      </trkpt>
      <trkpt lat="41.8589420" lon="-8.6046350">
        <ele>312.4</ele>
        <time>2019-06-21T08:19:41Z</time>
      </trkpt>
      <trkpt lat="41.8591940" lon="-8.6048570">
        <ele>322.6</ele>
        <time>2019-06-21T08:20:39Z</time>
      </trkpt>
      <trkpt lat="41.8593320" lon="-8.6051080">
        <ele>332.8</ele>
        <time>2019-06-21T08:21:50Z</time>
      </trkpt>
      <trkpt lat="41.8593940" lon="-8.6051550">
        <ele>333.6</ele>
        <time>2019-06-21T08:21:56Z</time>
      </trkpt>
      <trkpt lat="41.8594340" lon="-8.6051680">
        <ele>334.2</ele>
        <time>2019-06-21T08:22:00Z</time>
      </trkpt>
      <trkpt lat="41.8594780" lon="-8.6051480">
        <ele>334.6</ele>
        <time>2019-06-21T08:22:06Z</time>
      </trkpt>
      <trkpt lat="41.8595320" lon="-8.6051540">
        <ele>335.0</ele>
        <time>2019-06-21T08:31:00Z</time>
      </trkpt>
      <trkpt lat="41.8595470" lon="-8.6051610">
        <ele>334.8</ele>
        <time>2019-06-21T08:31:01Z</time>
      </trkpt>
      <trkpt lat="41.8595880" lon="-8.6051900">
        <ele>336.0</ele>
        <time>2019-06-21T08:31:06Z</time>
      </trkpt>
      <trkpt lat="41.8595940" lon="-8.6051960">
        <ele>336.2</ele>
        <time>2019-06-21T08:31:08Z</time>
      </trkpt>
      <trkpt lat="41.8597170" lon="-8.6052950">
        <ele>338.4</ele>
        <time>2019-06-21T08:31:25Z</time>
      </trkpt>
      <trkpt lat="41.8597240" lon="-8.6053020">
        <ele>338.6</ele>
        <time>2019-06-21T08:31:26Z</time>
      </trkpt>
      <trkpt lat="41.8597580" lon="-8.6053140">
        <ele>339.8</ele>
        <time>2019-06-21T08:31:37Z</time>
      </trkpt>
      <trkpt lat="41.8598260" lon="-8.6053260">
        <ele>340.8</ele>
        <time>2019-06-21T08:31:46Z</time>
      </trkpt>
      <trkpt lat="41.8598220" lon="-8.6053260">
        <ele>340.8</ele>
        <time>2019-06-21T08:31:47Z</time>
      </trkpt>
      <trkpt lat="41.8599220" lon="-8.6053610">
        <ele>343.2</ele>
        <time>2019-06-21T08:32:05Z</time>
      </trkpt>
      <trkpt lat="41.8600000" lon="-8.6053870">
        <ele>345.0</ele>
        <time>2019-06-21T08:32:20Z</time>
      </trkpt>
      <trkpt lat="41.8600090" lon="-8.6053900">
        <ele>345.0</ele>
        <time>2019-06-21T08:32:21Z</time>
      </trkpt>
      <trkpt lat="41.8602450" lon="-8.6054170">
        <ele>351.6</ele>
        <time>2019-06-21T08:33:02Z</time>
      </trkpt>
      <trkpt lat="41.8603120" lon="-8.6054230">
        <ele>352.8</ele>
        <time>2019-06-21T08:33:11Z</time>
      </trkpt>
      <trkpt lat="41.8603750" lon="-8.6054290">
        <ele>353.4</ele>
        <time>2019-06-21T08:33:18Z</time>
      </trkpt>
      <trkpt lat="41.8603880" lon="-8.6054300">
        <ele>353.6</ele>
        <time>2019-06-21T08:33:19Z</time>
      </trkpt>
      <trkpt lat="41.8603950" lon="-8.6054310">
        <ele>353.8</ele>
        <time>2019-06-21T08:33:21Z</time>
      </trkpt>
      <trkpt lat="41.8604550" lon="-8.6054470">
        <ele>355.6</ele>
        <time>2019-06-21T08:33:33Z</time>
      </trkpt>
      <trkpt lat="41.8604760" lon="-8.6054510">
        <ele>355.8</ele>
        <time>2019-06-21T08:33:35Z</time>
      </trkpt>
      <trkpt lat="41.8605210" lon="-8.6054710">
        <ele>356.8</ele>
        <time>2019-06-21T08:33:44Z</time>
      </trkpt>
      <trkpt lat="41.8605380" lon="-8.6054840">
        <ele>357.0</ele>
        <time>2019-06-21T08:33:46Z</time>
      </trkpt>
      <trkpt lat="41.8605850" lon="-8.6055860">
        <ele>358.8</ele>
        <time>2019-06-21T08:34:02Z</time>
      </trkpt>
      <trkpt lat="41.8605820" lon="-8.6055850">
        <ele>359.0</ele>
        <time>2019-06-21T08:34:03Z</time>
      </trkpt>
      <trkpt lat="41.8606030" lon="-8.6056030">
        <ele>359.6</ele>
        <time>2019-06-21T08:34:09Z</time>
      </trkpt>
      <trkpt lat="41.8606360" lon="-8.6056450">
        <ele>361.2</ele>
        <time>2019-06-21T08:34:20Z</time>
      </trkpt>
      <trkpt lat="41.8606330" lon="-8.6056420">
        <ele>361.2</ele>
        <time>2019-06-21T08:34:21Z</time>
      </trkpt>
      <trkpt lat="41.8606600" lon="-8.6056490">
        <ele>362.0</ele>
        <time>2019-06-21T08:34:26Z</time>
      </trkpt>
      <trkpt lat="41.8606880" lon="-8.6056470">
        <ele>362.2</ele>
        <time>2019-06-21T08:34:28Z</time>
      </trkpt>
      <trkpt lat="41.8606860" lon="-8.6056490">
        <ele>362.2</ele>
        <time>2019-06-21T08:34:29Z</time>
      </trkpt>
      <trkpt lat="41.8607170" lon="-8.6056430">
        <ele>362.0</ele>
        <time>2019-06-21T08:34:59Z</time>
      </trkpt>
      <trkpt lat="41.8607250" lon="-8.6056440">
        <ele>362.2</ele>
        <time>2019-06-21T08:35:00Z</time>
      </trkpt>
      <trkpt lat="41.8607390" lon="-8.6056510">
        <ele>362.4</ele>
        <time>2019-06-21T08:35:16Z</time>
      </trkpt>
      <trkpt lat="41.8607810" lon="-8.6056540">
        <ele>362.4</ele>
        <time>2019-06-21T08:35:20Z</time>
      </trkpt>
      <trkpt lat="41.8608830" lon="-8.6056630">
        <ele>362.6</ele>
        <time>2019-06-21T08:35:28Z</time>
      </trkpt>
      <trkpt lat="41.8608930" lon="-8.6056680">
        <ele>362.6</ele>
        <time>2019-06-21T08:35:29Z</time>
      </trkpt>
      <trkpt lat="41.8609210" lon="-8.6057060">
        <ele>363.2</ele>
        <time>2019-06-21T08:35:34Z</time>
      </trkpt>
      <trkpt lat="41.8609190" lon="-8.6057040">
        <ele>363.4</ele>
        <time>2019-06-21T08:35:35Z</time>
      </trkpt>
      <trkpt lat="41.8609530" lon="-8.6057390">
        <ele>364.2</ele>
        <time>2019-06-21T08:35:39Z</time>
      </trkpt>
      <trkpt lat="41.8609590" lon="-8.6057490">
        <ele>364.4</ele>
        <time>2019-06-21T08:35:40Z</time>
      </trkpt>
      <trkpt lat="41.8609810" lon="-8.6057740">
        <ele>364.4</ele>
        <time>2019-06-21T08:35:43Z</time>
      </trkpt>
      <trkpt lat="41.8609970" lon="-8.6057770">
        <ele>364.8</ele>
        <time>2019-06-21T08:35:45Z</time>
      </trkpt>
      <trkpt lat="41.8610160" lon="-8.6057910">
        <ele>365.4</ele>
        <time>2019-06-21T08:35:50Z</time>
      </trkpt>
      <trkpt lat="41.8610340" lon="-8.6058300">
        <ele>366.2</ele>
        <time>2019-06-21T08:35:57Z</time>
      </trkpt>
      <trkpt lat="41.8610900" lon="-8.6058610">
        <ele>367.4</ele>
        <time>2019-06-21T08:36:08Z</time>
      </trkpt>
      <trkpt lat="41.8611040" lon="-8.6058830">
        <ele>367.8</ele>
        <time>2019-06-21T08:36:11Z</time>
      </trkpt>
      <trkpt lat="41.8611390" lon="-8.6059170">
        <ele>368.6</ele>
        <time>2019-06-21T08:36:42Z</time>
      </trkpt>
      <trkpt lat="41.8611390" lon="-8.6059170">
        <ele>368.4</ele>
        <time>2019-06-21T08:36:43Z</time>
      </trkpt>
      <trkpt lat="41.8611570" lon="-8.6059270">
        <ele>369.0</ele>
        <time>2019-06-21T08:36:46Z</time>
      </trkpt>
      <trkpt lat="41.8611660" lon="-8.6059220">
        <ele>369.2</ele>
        <time>2019-06-21T08:36:47Z</time>
      </trkpt>
      <trkpt lat="41.8611680" lon="-8.6059240">
        <ele>369.8</ele>
        <time>2019-06-21T08:36:51Z</time>
      </trkpt>
      <trkpt lat="41.8611720" lon="-8.6059240">
        <ele>370.4</ele>
        <time>2019-06-21T08:36:53Z</time>
      </trkpt>
      <trkpt lat="41.8611680" lon="-8.6059240">
        <ele>370.6</ele>
        <time>2019-06-21T08:36:55Z</time>
      </trkpt>
      <trkpt lat="41.8612010" lon="-8.6059320">
        <ele>370.8</ele>
        <time>2019-06-21T08:36:57Z</time>
      </trkpt>
      <trkpt lat="41.8611970" lon="-8.6059290">
        <ele>371.0</ele>
        <time>2019-06-21T08:36:58Z</time>
      </trkpt>
      <trkpt lat="41.8612460" lon="-8.6059550">
        <ele>371.8</ele>
        <time>2019-06-21T08:37:03Z</time>
      </trkpt>
      <trkpt lat="41.8612630" lon="-8.6059660">
        <ele>372.0</ele>
        <time>2019-06-21T08:37:05Z</time>
      </trkpt>
      <trkpt lat="41.8612970" lon="-8.6059720">
        <ele>373.0</ele>
        <time>2019-06-21T08:37:10Z</time>
      </trkpt>
      <trkpt lat="41.8613410" lon="-8.6059810">
        <ele>374.2</ele>
        <time>2019-06-21T08:37:17Z</time>
      </trkpt>
      <trkpt lat="41.8613850" lon="-8.6059430">
        <ele>374.6</ele>
        <time>2019-06-21T08:37:23Z</time>
      </trkpt>
      <trkpt lat="41.8614180" lon="-8.6059550">
        <ele>375.0</ele>
        <time>2019-06-21T08:37:26Z</time>
      </trkpt>
      <trkpt lat="41.8614330" lon="-8.6059630">
        <ele>375.2</ele>
        <time>2019-06-21T08:37:28Z</time>
      </trkpt>
      <trkpt lat="41.8614450" lon="-8.6059620">
        <ele>375.2</ele>
        <time>2019-06-21T08:37:29Z</time>
      </trkpt>
      <trkpt lat="41.8614660" lon="-8.6059610">
        <ele>376.0</ele>
        <time>2019-06-21T08:37:34Z</time>
      </trkpt>
      <trkpt lat="41.8614800" lon="-8.6059580">
        <ele>376.2</ele>
        <time>2019-06-21T08:37:36Z</time>
      </trkpt>
      <trkpt lat="41.8614890" lon="-8.6059600">
        <ele>376.2</ele>
        <time>2019-06-21T08:37:37Z</time>
      </trkpt>
      <trkpt lat="41.8615530" lon="-8.6059670">
        <ele>377.2</ele>
        <time>2019-06-21T08:37:43Z</time>
      </trkpt>
      <trkpt lat="41.8616010" lon="-8.6059940">
        <ele>378.4</ele>
        <time>2019-06-21T08:37:49Z</time>
      </trkpt>
      <trkpt lat="41.8616170" lon="-8.6060130">
        <ele>378.6</ele>
        <time>2019-06-21T08:37:51Z</time>
      </trkpt>
      <trkpt lat="41.8616340" lon="-8.6060230">
        <ele>379.4</ele>
        <time>2019-06-21T08:37:55Z</time>
      </trkpt>
      <trkpt lat="41.8616840" lon="-8.6060520">
        <ele>380.6</ele>
        <time>2019-06-21T08:38:02Z</time>
      </trkpt>
      <trkpt lat="41.8616950" lon="-8.6060600">
        <ele>380.8</ele>
        <time>2019-06-21T08:38:03Z</time>
      </trkpt>
      <trkpt lat="41.8617310" lon="-8.6060710">
        <ele>381.8</ele>
        <time>2019-06-21T08:38:09Z</time>
      </trkpt>
      <trkpt lat="41.8617340" lon="-8.6060710">
        <ele>381.8</ele>
        <time>2019-06-21T08:38:10Z</time>
      </trkpt>
      <trkpt lat="41.8617410" lon="-8.6060760">
        <ele>382.4</ele>
        <time>2019-06-21T08:38:19Z</time>
      </trkpt>
      <trkpt lat="41.8617720" lon="-8.6060830">
        <ele>383.0</ele>
        <time>2019-06-21T08:38:22Z</time>
      </trkpt>
      <trkpt lat="41.8617820" lon="-8.6060930">
        <ele>383.6</ele>
        <time>2019-06-21T08:38:25Z</time>
      </trkpt>
      <trkpt lat="41.8618160" lon="-8.6061320">
        <ele>384.2</ele>
        <time>2019-06-21T08:38:29Z</time>
      </trkpt>
      <trkpt lat="41.8618340" lon="-8.6061420">
        <ele>384.6</ele>
        <time>2019-06-21T08:38:31Z</time>
      </trkpt>
      <trkpt lat="41.8618670" lon="-8.6061590">
        <ele>385.2</ele>
        <time>2019-06-21T08:38:36Z</time>
      </trkpt>
      <trkpt lat="41.8618620" lon="-8.6061590">
        <ele>385.4</ele>
        <time>2019-06-21T08:38:37Z</time>
      </trkpt>
      <trkpt lat="41.8618930" lon="-8.6061780">
        <ele>386.4</ele>
        <time>2019-06-21T08:38:42Z</time>
      </trkpt>
      <trkpt lat="41.8619410" lon="-8.6062210">
        <ele>387.4</ele>
        <time>2019-06-21T08:38:49Z</time>
      </trkpt>
      <trkpt lat="41.8619880" lon="-8.6062230">
        <ele>388.6</ele>
        <time>2019-06-21T08:38:55Z</time>
      </trkpt>
      <trkpt lat="41.8620200" lon="-8.6062580">
        <ele>389.8</ele>
        <time>2019-06-21T08:39:01Z</time>
      </trkpt>
      <trkpt lat="41.8620150" lon="-8.6062600">
        <ele>390.0</ele>
        <time>2019-06-21T08:39:02Z</time>
      </trkpt>
      <trkpt lat="41.8620350" lon="-8.6062790">
        <ele>390.8</ele>
        <time>2019-06-21T08:39:06Z</time>
      </trkpt>
      <trkpt lat="41.8620440" lon="-8.6062810">
        <ele>391.0</ele>
        <time>2019-06-21T08:39:07Z</time>
      </trkpt>
      <trkpt lat="41.8620700" lon="-8.6062940">
        <ele>392.0</ele>
        <time>2019-06-21T08:39:12Z</time>
      </trkpt>
      <trkpt lat="41.8620930" lon="-8.6063230">
        <ele>392.4</ele>
        <time>2019-06-21T08:39:15Z</time>
      </trkpt>
      <trkpt lat="41.8621070" lon="-8.6063430">
        <ele>393.0</ele>
        <time>2019-06-21T08:39:18Z</time>
      </trkpt>
      <trkpt lat="41.8621240" lon="-8.6063760">
        <ele>393.4</ele>
        <time>2019-06-21T08:39:21Z</time>
      </trkpt>
      <trkpt lat="41.8621350" lon="-8.6063970">
        <ele>394.2</ele>
        <time>2019-06-21T08:39:25Z</time>
      </trkpt>
      <trkpt lat="41.8621700" lon="-8.6064330">
        <ele>394.8</ele>
        <time>2019-06-21T08:39:29Z</time>
      </trkpt>
      <trkpt lat="41.8621860" lon="-8.6064500">
        <ele>395.2</ele>
        <time>2019-06-21T08:39:31Z</time>
      </trkpt>
      <trkpt lat="41.8622050" lon="-8.6064860">
        <ele>395.8</ele>
        <time>2019-06-21T08:39:35Z</time>
      </trkpt>
      <trkpt lat="41.8622270" lon="-8.6065060">
        <ele>396.6</ele>
        <time>2019-06-21T08:39:38Z</time>
      </trkpt>
      <trkpt lat="41.8622390" lon="-8.6065250">
        <ele>396.8</ele>
        <time>2019-06-21T08:39:41Z</time>
      </trkpt>
      <trkpt lat="41.8622680" lon="-8.6065390">
        <ele>397.6</ele>
        <time>2019-06-21T08:39:46Z</time>
      </trkpt>
      <trkpt lat="41.8622800" lon="-8.6065600">
        <ele>398.0</ele>
        <time>2019-06-21T08:39:48Z</time>
      </trkpt>
      <trkpt lat="41.8622850" lon="-8.6065730">
        <ele>398.0</ele>
        <time>2019-06-21T08:39:49Z</time>
      </trkpt>
      <trkpt lat="41.8622850" lon="-8.6066170">
        <ele>398.6</ele>
        <time>2019-06-21T08:39:54Z</time>
      </trkpt>
      <trkpt lat="41.8622820" lon="-8.6066250">
        <ele>398.6</ele>
        <time>2019-06-21T08:39:55Z</time>
      </trkpt>
      <trkpt lat="41.8622710" lon="-8.6066890">
        <ele>398.8</ele>
        <time>2019-06-21T08:40:01Z</time>
      </trkpt>
      <trkpt lat="41.8622550" lon="-8.6067460">
        <ele>399.4</ele>
        <time>2019-06-21T08:40:07Z</time>
      </trkpt>
      <trkpt lat="41.8622470" lon="-8.6067550">
        <ele>399.8</ele>
        <time>2019-06-21T08:40:09Z</time>
      </trkpt>
      <trkpt lat="41.8622300" lon="-8.6067930">
        <ele>400.4</ele>
        <time>2019-06-21T08:40:14Z</time>
      </trkpt>
      <trkpt lat="41.8622350" lon="-8.6068620">
        <ele>400.6</ele>
        <time>2019-06-21T08:40:21Z</time>
      </trkpt>
      <trkpt lat="41.8622430" lon="-8.6068710">
        <ele>400.6</ele>
        <time>2019-06-21T08:40:27Z</time>
      </trkpt>
      <trkpt lat="41.8622430" lon="-8.6068710">
        <ele>400.6</ele>
        <time>2019-06-21T08:40:28Z</time>
      </trkpt>
      <trkpt lat="41.8622430" lon="-8.6068710">
        <ele>400.8</ele>
        <time>2019-06-21T08:40:32Z</time>
      </trkpt>
      <trkpt lat="41.8622430" lon="-8.6068710">
        <ele>400.6</ele>
        <time>2019-06-21T08:40:36Z</time>
      </trkpt>
      <trkpt lat="41.8622430" lon="-8.6068710">
        <ele>400.6</ele>
        <time>2019-06-21T08:40:44Z</time>
      </trkpt>
      <trkpt lat="41.8622430" lon="-8.6068710">
        <ele>400.6</ele>
        <time>2019-06-21T08:40:46Z</time>
      </trkpt>
      <trkpt lat="41.8622430" lon="-8.6068710">
        <ele>400.6</ele>
        <time>2019-06-21T08:40:52Z</time>
      </trkpt>
      <trkpt lat="41.8622430" lon="-8.6068710">
        <ele>400.6</ele>
        <time>2019-06-21T08:40:56Z</time>
      </trkpt>
      <trkpt lat="41.8622430" lon="-8.6068710">
        <ele>400.6</ele>
        <time>2019-06-21T08:41:01Z</time>
      </trkpt>
      <trkpt lat="41.8622410" lon="-8.6068670">
        <ele>400.8</ele>
        <time>2019-06-21T08:41:04Z</time>
      </trkpt>
      <trkpt lat="41.8622410" lon="-8.6068670">
        <ele>400.6</ele>
        <time>2019-06-21T08:41:13Z</time>
      </trkpt>
      <trkpt lat="41.8622410" lon="-8.6068670">
        <ele>400.6</ele>
        <time>2019-06-21T08:41:16Z</time>
      </trkpt>
      <trkpt lat="41.8622410" lon="-8.6068670">
        <ele>400.6</ele>
        <time>2019-06-21T08:41:20Z</time>
      </trkpt>
      <trkpt lat="41.8622450" lon="-8.6068690">
        <ele>400.6</ele>
        <time>2019-06-21T08:41:29Z</time>
      </trkpt>
      <trkpt lat="41.8622670" lon="-8.6068860">
        <ele>400.2</ele>
        <time>2019-06-21T08:41:35Z</time>
      </trkpt>
      <trkpt lat="41.8622690" lon="-8.6068830">
        <ele>400.0</ele>
        <time>2019-06-21T08:41:37Z</time>
      </trkpt>
      <trkpt lat="41.8622690" lon="-8.6068830">
        <ele>400.0</ele>
        <time>2019-06-21T08:41:45Z</time>
      </trkpt>
      <trkpt lat="41.8622690" lon="-8.6068830">
        <ele>399.8</ele>
        <time>2019-06-21T08:41:56Z</time>
      </trkpt>
      <trkpt lat="41.8622690" lon="-8.6068830">
        <ele>399.8</ele>
        <time>2019-06-21T08:42:00Z</time>
      </trkpt>
      <trkpt lat="41.8622690" lon="-8.6068830">
        <ele>400.0</ele>
        <time>2019-06-21T08:42:12Z</time>
      </trkpt>
      <trkpt lat="41.8622700" lon="-8.6068800">
        <ele>399.8</ele>
        <time>2019-06-21T08:42:28Z</time>
      </trkpt>
      <trkpt lat="41.8622700" lon="-8.6068800">
        <ele>399.8</ele>
        <time>2019-06-21T08:42:47Z</time>
      </trkpt>
      <trkpt lat="41.8622700" lon="-8.6068800">
        <ele>400.0</ele>
        <time>2019-06-21T08:43:05Z</time>
      </trkpt>
      <trkpt lat="41.8622700" lon="-8.6068800">
        <ele>400.0</ele>
        <time>2019-06-21T08:43:19Z</time>
      </trkpt>
      <trkpt lat="41.8622720" lon="-8.6068790">
        <ele>400.0</ele>
        <time>2019-06-21T08:43:35Z</time>
      </trkpt>
      <trkpt lat="41.8622720" lon="-8.6068790">
        <ele>400.0</ele>
        <time>2019-06-21T08:43:46Z</time>
      </trkpt>
      <trkpt lat="41.8622720" lon="-8.6068790">
        <ele>400.0</ele>
        <time>2019-06-21T08:43:49Z</time>
      </trkpt>
      <trkpt lat="41.8622720" lon="-8.6068790">
        <ele>400.0</ele>
        <time>2019-06-21T08:43:53Z</time>
      </trkpt>
      <trkpt lat="41.8622720" lon="-8.6068790">
        <ele>400.0</ele>
        <time>2019-06-21T08:43:54Z</time>
      </trkpt>
      <trkpt lat="41.8622720" lon="-8.6068790">
        <ele>400.0</ele>
        <time>2019-06-21T08:44:07Z</time>
      </trkpt>
      <trkpt lat="41.8622730" lon="-8.6068790">
        <ele>400.0</ele>
        <time>2019-06-21T08:44:24Z</time>
      </trkpt>
      <trkpt lat="41.8622730" lon="-8.6068790">
        <ele>400.2</ele>
        <time>2019-06-21T08:44:35Z</time>
      </trkpt>
      <trkpt lat="41.8622730" lon="-8.6068790">
        <ele>400.0</ele>
        <time>2019-06-21T08:44:40Z</time>
      </trkpt>
      <trkpt lat="41.8622730" lon="-8.6068810">
        <ele>400.0</ele>
        <time>2019-06-21T08:44:59Z</time>
      </trkpt>
      <trkpt lat="41.8622730" lon="-8.6068810">
        <ele>400.0</ele>
        <time>2019-06-21T08:45:18Z</time>
      </trkpt>
      <trkpt lat="41.8622730" lon="-8.6068810">
        <ele>400.0</ele>
        <time>2019-06-21T08:45:27Z</time>
      </trkpt>
      <trkpt lat="41.8622740" lon="-8.6068790">
        <ele>400.2</ele>
        <time>2019-06-21T08:45:38Z</time>
      </trkpt>
      <trkpt lat="41.8622740" lon="-8.6068790">
        <ele>400.0</ele>
        <time>2019-06-21T08:45:54Z</time>
      </trkpt>
      <trkpt lat="41.8622740" lon="-8.6068790">
        <ele>400.2</ele>
        <time>2019-06-21T08:46:06Z</time>
      </trkpt>
      <trkpt lat="41.8622710" lon="-8.6068780">
        <ele>400.0</ele>
        <time>2019-06-21T08:46:23Z</time>
      </trkpt>
      <trkpt lat="41.8622710" lon="-8.6068780">
        <ele>400.6</ele>
        <time>2019-06-21T08:46:35Z</time>
      </trkpt>
      <trkpt lat="41.8622710" lon="-8.6068780">
        <ele>400.8</ele>
        <time>2019-06-21T08:46:39Z</time>
      </trkpt>
      <trkpt lat="41.8622710" lon="-8.6068780">
        <ele>400.6</ele>
        <time>2019-06-21T08:46:42Z</time>
      </trkpt>
      <trkpt lat="41.8622710" lon="-8.6068780">
        <ele>400.6</ele>
        <time>2019-06-21T08:46:43Z</time>
      </trkpt>
      <trkpt lat="41.8622710" lon="-8.6068780">
        <ele>400.6</ele>
        <time>2019-06-21T08:46:46Z</time>
      </trkpt>
      <trkpt lat="41.8622710" lon="-8.6068780">
        <ele>400.6</ele>
        <time>2019-06-21T08:46:51Z</time>
      </trkpt>
      <trkpt lat="41.8622740" lon="-8.6068770">
        <ele>400.6</ele>
        <time>2019-06-21T08:46:59Z</time>
      </trkpt>
      <trkpt lat="41.8622740" lon="-8.6068770">
        <ele>400.6</ele>
        <time>2019-06-21T08:47:02Z</time>
      </trkpt>
      <trkpt lat="41.8622740" lon="-8.6068770">
        <ele>400.4</ele>
        <time>2019-06-21T08:47:05Z</time>
      </trkpt>
      <trkpt lat="41.8622740" lon="-8.6068770">
        <ele>400.4</ele>
        <time>2019-06-21T08:47:13Z</time>
      </trkpt>
      <trkpt lat="41.8622740" lon="-8.6068770">
        <ele>400.6</ele>
        <time>2019-06-21T08:47:21Z</time>
      </trkpt>
      <trkpt lat="41.8622760" lon="-8.6068750">
        <ele>400.4</ele>
        <time>2019-06-21T08:47:39Z</time>
      </trkpt>
      <trkpt lat="41.8622760" lon="-8.6068750">
        <ele>400.6</ele>
        <time>2019-06-21T08:47:59Z</time>
      </trkpt>
      <trkpt lat="41.8622760" lon="-8.6068750">
        <ele>400.8</ele>
        <time>2019-06-21T08:48:07Z</time>
      </trkpt>
      <trkpt lat="41.8622760" lon="-8.6068750">
        <ele>400.4</ele>
        <time>2019-06-21T08:48:13Z</time>
      </trkpt>
      <trkpt lat="41.8622790" lon="-8.6068790">
        <ele>400.6</ele>
        <time>2019-06-21T08:48:21Z</time>
      </trkpt>
      <trkpt lat="41.8622750" lon="-8.6068840">
        <ele>400.8</ele>
        <time>2019-06-21T08:48:23Z</time>
      </trkpt>
      <trkpt lat="41.8622790" lon="-8.6068790">
        <ele>400.6</ele>
        <time>2019-06-21T08:48:28Z</time>
      </trkpt>
      <trkpt lat="41.8622790" lon="-8.6068790">
        <ele>400.8</ele>
        <time>2019-06-21T08:48:29Z</time>
      </trkpt>
      <trkpt lat="41.8622790" lon="-8.6068790">
        <ele>400.6</ele>
        <time>2019-06-21T08:48:43Z</time>
      </trkpt>
      <trkpt lat="41.8622790" lon="-8.6068790">
        <ele>400.6</ele>
        <time>2019-06-21T08:48:49Z</time>
      </trkpt>
      <trkpt lat="41.8622800" lon="-8.6068740">
        <ele>400.6</ele>
        <time>2019-06-21T08:48:59Z</time>
      </trkpt>
      <trkpt lat="41.8622800" lon="-8.6068740">
        <ele>400.6</ele>
        <time>2019-06-21T08:49:12Z</time>
      </trkpt>
      <trkpt lat="41.8622800" lon="-8.6068740">
        <ele>400.6</ele>
        <time>2019-06-21T08:49:19Z</time>
      </trkpt>
      <trkpt lat="41.8622800" lon="-8.6068740">
        <ele>400.8</ele>
        <time>2019-06-21T08:49:22Z</time>
      </trkpt>
      <trkpt lat="41.8622800" lon="-8.6068740">
        <ele>400.8</ele>
        <time>2019-06-21T08:49:25Z</time>
      </trkpt>
      <trkpt lat="41.8622770" lon="-8.6068740">
        <ele>400.6</ele>
        <time>2019-06-21T08:49:37Z</time>
      </trkpt>
      <trkpt lat="41.8622770" lon="-8.6068740">
        <ele>401.2</ele>
        <time>2019-06-21T08:49:48Z</time>
      </trkpt>
      <trkpt lat="41.8622770" lon="-8.6068740">
        <ele>401.0</ele>
        <time>2019-06-21T08:49:58Z</time>
      </trkpt>
      <trkpt lat="41.8622770" lon="-8.6068740">
        <ele>400.6</ele>
        <time>2019-06-21T08:50:08Z</time>
      </trkpt>
      <trkpt lat="41.8622770" lon="-8.6068760">
        <ele>400.6</ele>
        <time>2019-06-21T08:50:18Z</time>
      </trkpt>
      <trkpt lat="41.8622770" lon="-8.6068760">
        <ele>400.4</ele>
        <time>2019-06-21T08:50:23Z</time>
      </trkpt>
      <trkpt lat="41.8622820" lon="-8.6068700">
        <ele>400.4</ele>
        <time>2019-06-21T08:50:24Z</time>
      </trkpt>
      <trkpt lat="41.8623590" lon="-8.6068220">
        <ele>400.0</ele>
        <time>2019-06-21T08:50:28Z</time>
      </trkpt>
      <trkpt lat="41.8624130" lon="-8.6068010">
        <ele>400.0</ele>
        <time>2019-06-21T08:50:33Z</time>
      </trkpt>
      <trkpt lat="41.8624330" lon="-8.6067910">
        <ele>400.2</ele>
        <time>2019-06-21T08:50:38Z</time>
      </trkpt>
      <trkpt lat="41.8624530" lon="-8.6067850">
        <ele>400.2</ele>
        <time>2019-06-21T08:50:39Z</time>
      </trkpt>
      <trkpt lat="41.8624760" lon="-8.6067740">
        <ele>400.8</ele>
        <time>2019-06-21T08:50:42Z</time>
      </trkpt>
      <trkpt lat="41.8624800" lon="-8.6067620">
        <ele>401.0</ele>
        <time>2019-06-21T08:50:43Z</time>
      </trkpt>
      <trkpt lat="41.8624970" lon="-8.6067480">
        <ele>401.6</ele>
        <time>2019-06-21T08:50:46Z</time>
      </trkpt>
      <trkpt lat="41.8625010" lon="-8.6067440">
        <ele>402.0</ele>
        <time>2019-06-21T08:50:47Z</time>
      </trkpt>
      <trkpt lat="41.8625210" lon="-8.6067320">
        <ele>402.6</ele>
        <time>2019-06-21T08:50:52Z</time>
      </trkpt>
      <trkpt lat="41.8625290" lon="-8.6067330">
        <ele>402.6</ele>
        <time>2019-06-21T08:50:58Z</time>
      </trkpt>
      <trkpt lat="41.8625400" lon="-8.6067480">
        <ele>402.8</ele>
        <time>2019-06-21T08:51:03Z</time>
      </trkpt>
      <trkpt lat="41.8625400" lon="-8.6067480">
        <ele>402.8</ele>
        <time>2019-06-21T08:51:04Z</time>
      </trkpt>
      <trkpt lat="41.8625450" lon="-8.6067650">
        <ele>403.0</ele>
        <time>2019-06-21T08:51:08Z</time>
      </trkpt>
      <trkpt lat="41.8625520" lon="-8.6067800">
        <ele>403.0</ele>
        <time>2019-06-21T08:51:09Z</time>
      </trkpt>
      <trkpt lat="41.8625610" lon="-8.6068420">
        <ele>403.0</ele>
        <time>2019-06-21T08:51:14Z</time>
      </trkpt>
      <trkpt lat="41.8625800" lon="-8.6069190">
        <ele>403.0</ele>
        <time>2019-06-21T08:51:20Z</time>
      </trkpt>
      <trkpt lat="41.8625900" lon="-8.6069320">
        <ele>403.0</ele>
        <time>2019-06-21T08:51:21Z</time>
      </trkpt>
      <trkpt lat="41.8626010" lon="-8.6069650">
        <ele>403.0</ele>
        <time>2019-06-21T08:51:23Z</time>
      </trkpt>
      <trkpt lat="41.8626340" lon="-8.6070390">
        <ele>403.2</ele>
        <time>2019-06-21T08:51:28Z</time>
      </trkpt>
      <trkpt lat="41.8626900" lon="-8.6071450">
        <ele>403.4</ele>
        <time>2019-06-21T08:51:34Z</time>
      </trkpt>
      <trkpt lat="41.8627350" lon="-8.6072440">
        <ele>403.8</ele>
        <time>2019-06-21T08:51:39Z</time>
      </trkpt>
      <trkpt lat="41.8628350" lon="-8.6074020">
        <ele>404.0</ele>
        <time>2019-06-21T08:51:45Z</time>
      </trkpt>
      <trkpt lat="41.8628660" lon="-8.6074830">
        <ele>404.4</ele>
        <time>2019-06-21T08:51:48Z</time>
      </trkpt>
      <trkpt lat="41.8628920" lon="-8.6076840">
        <ele>405.2</ele>
        <time>2019-06-21T08:51:55Z</time>
      </trkpt>
      <trkpt lat="41.8628540" lon="-8.6077790">
        <ele>405.2</ele>
        <time>2019-06-21T08:52:01Z</time>
      </trkpt>
      <trkpt lat="41.8628390" lon="-8.6077940">
        <ele>405.2</ele>
        <time>2019-06-21T08:52:08Z</time>
      </trkpt>
      <trkpt lat="41.8628220" lon="-8.6078250">
        <ele>405.0</ele>
        <time>2019-06-21T08:52:11Z</time>
      </trkpt>
      <trkpt lat="41.8628240" lon="-8.6078430">
        <ele>405.2</ele>
        <time>2019-06-21T08:52:13Z</time>
      </trkpt>
      <trkpt lat="41.8628260" lon="-8.6078520">
        <ele>405.0</ele>
        <time>2019-06-21T08:52:16Z</time>
      </trkpt>
      <trkpt lat="41.8628260" lon="-8.6078420">
        <ele>404.6</ele>
        <time>2019-06-21T08:52:18Z</time>
      </trkpt>
      <trkpt lat="41.8628290" lon="-8.6078480">
        <ele>404.8</ele>
        <time>2019-06-21T08:52:19Z</time>
      </trkpt>
      <trkpt lat="41.8628370" lon="-8.6078540">
        <ele>405.2</ele>
        <time>2019-06-21T08:52:26Z</time>
      </trkpt>
      <trkpt lat="41.8628370" lon="-8.6078540">
        <ele>405.2</ele>
        <time>2019-06-21T08:52:29Z</time>
      </trkpt>
      <trkpt lat="41.8628410" lon="-8.6078610">
        <ele>404.6</ele>
        <time>2019-06-21T08:52:33Z</time>
      </trkpt>
      <trkpt lat="41.8628410" lon="-8.6078610">
        <ele>404.4</ele>
        <time>2019-06-21T08:52:35Z</time>
      </trkpt>
      <trkpt lat="41.8628410" lon="-8.6078610">
        <ele>404.6</ele>
        <time>2019-06-21T08:52:47Z</time>
      </trkpt>
      <trkpt lat="41.8628410" lon="-8.6078610">
        <ele>404.6</ele>
        <time>2019-06-21T08:52:48Z</time>
      </trkpt>
      <trkpt lat="41.8628410" lon="-8.6078610">
        <ele>404.4</ele>
        <time>2019-06-21T08:52:51Z</time>
      </trkpt>
      <trkpt lat="41.8628410" lon="-8.6078610">
        <ele>404.4</ele>
        <time>2019-06-21T08:53:04Z</time>
      </trkpt>
      <trkpt lat="41.8628410" lon="-8.6078630">
        <ele>404.4</ele>
        <time>2019-06-21T08:53:15Z</time>
      </trkpt>
      <trkpt lat="41.8628410" lon="-8.6078630">
        <ele>404.4</ele>
        <time>2019-06-21T08:53:21Z</time>
      </trkpt>
      <trkpt lat="41.8628410" lon="-8.6078630">
        <ele>404.4</ele>
        <time>2019-06-21T08:53:31Z</time>
      </trkpt>
      <trkpt lat="41.8628410" lon="-8.6078630">
        <ele>404.4</ele>
        <time>2019-06-21T08:53:35Z</time>
      </trkpt>
      <trkpt lat="41.8628410" lon="-8.6078630">
        <ele>404.4</ele>
        <time>2019-06-21T08:53:37Z</time>
      </trkpt>
      <trkpt lat="41.8628410" lon="-8.6078630">
        <ele>404.4</ele>
        <time>2019-06-21T08:53:51Z</time>
      </trkpt>
      <trkpt lat="41.8628410" lon="-8.6078630">
        <ele>404.4</ele>
        <time>2019-06-21T08:53:56Z</time>
      </trkpt>
      <trkpt lat="41.8628410" lon="-8.6078630">
        <ele>404.4</ele>
        <time>2019-06-21T08:54:08Z</time>
      </trkpt>
      <trkpt lat="41.8628410" lon="-8.6078630">
        <ele>404.2</ele>
        <time>2019-06-21T08:54:19Z</time>
      </trkpt>
      <trkpt lat="41.8628410" lon="-8.6078630">
        <ele>404.4</ele>
        <time>2019-06-21T08:54:24Z</time>
      </trkpt>
      <trkpt lat="41.8628420" lon="-8.6078640">
        <ele>404.4</ele>
        <time>2019-06-21T08:54:35Z</time>
      </trkpt>
      <trkpt lat="41.8628420" lon="-8.6078640">
        <ele>404.4</ele>
        <time>2019-06-21T08:54:45Z</time>
      </trkpt>
      <trkpt lat="41.8628420" lon="-8.6078640">
        <ele>404.4</ele>
        <time>2019-06-21T08:54:59Z</time>
      </trkpt>
      <trkpt lat="41.8628410" lon="-8.6078640">
        <ele>404.4</ele>
        <time>2019-06-21T08:55:13Z</time>
      </trkpt>
      <trkpt lat="41.8628410" lon="-8.6078640">
        <ele>404.4</ele>
        <time>2019-06-21T08:55:28Z</time>
      </trkpt>
      <trkpt lat="41.8628410" lon="-8.6078640">
        <ele>404.4</ele>
        <time>2019-06-21T08:55:31Z</time>
      </trkpt>
      <trkpt lat="41.8628410" lon="-8.6078640">
        <ele>404.4</ele>
        <time>2019-06-21T08:55:42Z</time>
      </trkpt>
      <trkpt lat="41.8628430" lon="-8.6078650">
        <ele>404.4</ele>
        <time>2019-06-21T08:55:54Z</time>
      </trkpt>
      <trkpt lat="41.8628430" lon="-8.6078650">
        <ele>404.4</ele>
        <time>2019-06-21T08:56:03Z</time>
      </trkpt>
      <trkpt lat="41.8628430" lon="-8.6078650">
        <ele>404.4</ele>
        <time>2019-06-21T08:56:07Z</time>
      </trkpt>
      <trkpt lat="41.8628430" lon="-8.6078650">
        <ele>404.4</ele>
        <time>2019-06-21T08:56:20Z</time>
      </trkpt>
      <trkpt lat="41.8628430" lon="-8.6078650">
        <ele>404.4</ele>
        <time>2019-06-21T08:56:23Z</time>
      </trkpt>
      <trkpt lat="41.8628440" lon="-8.6078640">
        <ele>404.4</ele>
        <time>2019-06-21T08:56:38Z</time>
      </trkpt>
      <trkpt lat="41.8628440" lon="-8.6078640">
        <ele>404.4</ele>
        <time>2019-06-21T08:56:52Z</time>
      </trkpt>
      <trkpt lat="41.8628440" lon="-8.6078640">
        <ele>404.4</ele>
        <time>2019-06-21T08:57:05Z</time>
      </trkpt>
      <trkpt lat="41.8628480" lon="-8.6078690">
        <ele>404.4</ele>
        <time>2019-06-21T08:57:23Z</time>
      </trkpt>
      <trkpt lat="41.8628480" lon="-8.6078690">
        <ele>404.4</ele>
        <time>2019-06-21T08:57:28Z</time>
      </trkpt>
      <trkpt lat="41.8628360" lon="-8.6078650">
        <ele>405.0</ele>
        <time>2019-06-21T08:57:34Z</time>
      </trkpt>
      <trkpt lat="41.8628240" lon="-8.6078760">
        <ele>405.0</ele>
        <time>2019-06-21T08:57:36Z</time>
      </trkpt>
      <trkpt lat="41.8628370" lon="-8.6078970">
        <ele>405.0</ele>
        <time>2019-06-21T08:57:38Z</time>
      </trkpt>
      <trkpt lat="41.8628360" lon="-8.6079020">
        <ele>405.0</ele>
        <time>2019-06-21T08:57:39Z</time>
      </trkpt>
      <trkpt lat="41.8628290" lon="-8.6079150">
        <ele>405.2</ele>
        <time>2019-06-21T08:57:41Z</time>
      </trkpt>
      <trkpt lat="41.8628280" lon="-8.6079050">
        <ele>405.0</ele>
        <time>2019-06-21T08:57:43Z</time>
      </trkpt>
      <trkpt lat="41.8628280" lon="-8.6079050">
        <ele>404.6</ele>
        <time>2019-06-21T08:57:54Z</time>
      </trkpt>
      <trkpt lat="41.8628280" lon="-8.6079050">
        <ele>404.6</ele>
        <time>2019-06-21T08:57:59Z</time>
      </trkpt>
      <trkpt lat="41.8628280" lon="-8.6079050">
        <ele>404.6</ele>
        <time>2019-06-21T08:58:06Z</time>
      </trkpt>
      <trkpt lat="41.8628280" lon="-8.6079050">
        <ele>404.6</ele>
        <time>2019-06-21T08:58:10Z</time>
      </trkpt>
      <trkpt lat="41.8628280" lon="-8.6079050">
        <ele>404.6</ele>
        <time>2019-06-21T08:58:11Z</time>
      </trkpt>
      <trkpt lat="41.8628280" lon="-8.6079050">
        <ele>404.6</ele>
        <time>2019-06-21T08:58:21Z</time>
      </trkpt>
      <trkpt lat="41.8628270" lon="-8.6079090">
        <ele>404.6</ele>
        <time>2019-06-21T08:58:26Z</time>
      </trkpt>
      <trkpt lat="41.8628270" lon="-8.6079090">
        <ele>404.6</ele>
        <time>2019-06-21T08:58:37Z</time>
      </trkpt>
      <trkpt lat="41.8628270" lon="-8.6079090">
        <ele>404.6</ele>
        <time>2019-06-21T08:58:41Z</time>
      </trkpt>
      <trkpt lat="41.8628270" lon="-8.6079090">
        <ele>404.6</ele>
        <time>2019-06-21T08:58:48Z</time>
      </trkpt>
      <trkpt lat="41.8628270" lon="-8.6079090">
        <ele>404.6</ele>
        <time>2019-06-21T08:58:52Z</time>
      </trkpt>
      <trkpt lat="41.8628270" lon="-8.6079090">
        <ele>404.6</ele>
        <time>2019-06-21T08:58:58Z</time>
      </trkpt>
      <trkpt lat="41.8628250" lon="-8.6079140">
        <ele>404.8</ele>
        <time>2019-06-21T08:59:03Z</time>
      </trkpt>
      <trkpt lat="41.8628250" lon="-8.6079140">
        <ele>404.6</ele>
        <time>2019-06-21T08:59:13Z</time>
      </trkpt>
      <trkpt lat="41.8628250" lon="-8.6079140">
        <ele>404.6</ele>
        <time>2019-06-21T08:59:18Z</time>
      </trkpt>
      <trkpt lat="41.8628250" lon="-8.6079140">
        <ele>404.6</ele>
        <time>2019-06-21T08:59:24Z</time>
      </trkpt>
      <trkpt lat="41.8628250" lon="-8.6079140">
        <ele>404.6</ele>
        <time>2019-06-21T08:59:29Z</time>
      </trkpt>
      <trkpt lat="41.8628250" lon="-8.6079140">
        <ele>404.6</ele>
        <time>2019-06-21T08:59:38Z</time>
      </trkpt>
      <trkpt lat="41.8628240" lon="-8.6079130">
        <ele>404.6</ele>
        <time>2019-06-21T08:59:44Z</time>
      </trkpt>
      <trkpt lat="41.8628240" lon="-8.6079130">
        <ele>404.6</ele>
        <time>2019-06-21T08:59:58Z</time>
      </trkpt>
      <trkpt lat="41.8628240" lon="-8.6079130">
        <ele>404.6</ele>
        <time>2019-06-21T08:59:59Z</time>
      </trkpt>
      <trkpt lat="41.8628240" lon="-8.6079130">
        <ele>404.6</ele>
        <time>2019-06-21T09:00:13Z</time>
      </trkpt>
      <trkpt lat="41.8628240" lon="-8.6079130">
        <ele>404.8</ele>
        <time>2019-06-21T09:00:15Z</time>
      </trkpt>
      <trkpt lat="41.8628230" lon="-8.6079130">
        <ele>404.6</ele>
        <time>2019-06-21T09:00:32Z</time>
      </trkpt>
      <trkpt lat="41.8628230" lon="-8.6079130">
        <ele>404.6</ele>
        <time>2019-06-21T09:00:40Z</time>
      </trkpt>
      <trkpt lat="41.8628230" lon="-8.6079130">
        <ele>404.6</ele>
        <time>2019-06-21T09:00:49Z</time>
      </trkpt>
      <trkpt lat="41.8628230" lon="-8.6079130">
        <ele>404.6</ele>
        <time>2019-06-21T09:00:55Z</time>
      </trkpt>
      <trkpt lat="41.8628240" lon="-8.6079110">
        <ele>404.6</ele>
        <time>2019-06-21T09:01:03Z</time>
      </trkpt>
      <trkpt lat="41.8628240" lon="-8.6079110">
        <ele>404.6</ele>
        <time>2019-06-21T09:01:17Z</time>
      </trkpt>
      <trkpt lat="41.8628240" lon="-8.6079110">
        <ele>404.6</ele>
        <time>2019-06-21T09:01:34Z</time>
      </trkpt>
      <trkpt lat="41.8628220" lon="-8.6079100">
        <ele>404.6</ele>
        <time>2019-06-21T09:01:43Z</time>
      </trkpt>
      <trkpt lat="41.8628220" lon="-8.6079100">
        <ele>404.6</ele>
        <time>2019-06-21T09:01:54Z</time>
      </trkpt>
      <trkpt lat="41.8628220" lon="-8.6079100">
        <ele>404.6</ele>
        <time>2019-06-21T09:02:09Z</time>
      </trkpt>
      <trkpt lat="41.8628220" lon="-8.6079100">
        <ele>404.6</ele>
        <time>2019-06-21T09:02:13Z</time>
      </trkpt>
      <trkpt lat="41.8628240" lon="-8.6079080">
        <ele>404.6</ele>
        <time>2019-06-21T09:02:31Z</time>
      </trkpt>
      <trkpt lat="41.8628240" lon="-8.6079080">
        <ele>404.6</ele>
        <time>2019-06-21T09:02:41Z</time>
      </trkpt>
      <trkpt lat="41.8628240" lon="-8.6079080">
        <ele>404.4</ele>
        <time>2019-06-21T09:02:46Z</time>
      </trkpt>
      <trkpt lat="41.8628240" lon="-8.6079080">
        <ele>404.4</ele>
        <time>2019-06-21T09:03:00Z</time>
      </trkpt>
      <trkpt lat="41.8628250" lon="-8.6079090">
        <ele>404.4</ele>
        <time>2019-06-21T09:03:04Z</time>
      </trkpt>
      <trkpt lat="41.8628250" lon="-8.6079090">
        <ele>404.4</ele>
        <time>2019-06-21T09:03:17Z</time>
      </trkpt>
      <trkpt lat="41.8628250" lon="-8.6079090">
        <ele>404.4</ele>
        <time>2019-06-21T09:03:24Z</time>
      </trkpt>
      <trkpt lat="41.8628250" lon="-8.6079090">
        <ele>404.4</ele>
        <time>2019-06-21T09:03:45Z</time>
      </trkpt>
      <trkpt lat="41.8628250" lon="-8.6079090">
        <ele>404.4</ele>
        <time>2019-06-21T09:04:04Z</time>
      </trkpt>
      <trkpt lat="41.8628250" lon="-8.6079090">
        <ele>404.4</ele>
        <time>2019-06-21T09:04:06Z</time>
      </trkpt>
      <trkpt lat="41.8628230" lon="-8.6079130">
        <ele>404.4</ele>
        <time>2019-06-21T09:04:22Z</time>
      </trkpt>
      <trkpt lat="41.8628230" lon="-8.6079130">
        <ele>404.4</ele>
        <time>2019-06-21T09:04:34Z</time>
      </trkpt>
      <trkpt lat="41.8628230" lon="-8.6079130">
        <ele>404.4</ele>
        <time>2019-06-21T09:04:51Z</time>
      </trkpt>
      <trkpt lat="41.8628230" lon="-8.6079130">
        <ele>404.4</ele>
        <time>2019-06-21T09:05:00Z</time>
      </trkpt>
      <trkpt lat="41.8628240" lon="-8.6079130">
        <ele>404.4</ele>
        <time>2019-06-21T09:05:06Z</time>
      </trkpt>
      <trkpt lat="41.8628240" lon="-8.6079130">
        <ele>404.4</ele>
        <time>2019-06-21T09:05:08Z</time>
      </trkpt>
      <trkpt lat="41.8628240" lon="-8.6079130">
        <ele>404.4</ele>
        <time>2019-06-21T09:05:15Z</time>
      </trkpt>
      <trkpt lat="41.8628240" lon="-8.6079130">
        <ele>404.4</ele>
        <time>2019-06-21T09:05:22Z</time>
      </trkpt>
      <trkpt lat="41.8628240" lon="-8.6079130">
        <ele>404.4</ele>
        <time>2019-06-21T09:05:34Z</time>
      </trkpt>
      <trkpt lat="41.8628230" lon="-8.6079170">
        <ele>404.4</ele>
        <time>2019-06-21T09:05:46Z</time>
      </trkpt>
      <trkpt lat="41.8628230" lon="-8.6079170">
        <ele>404.4</ele>
        <time>2019-06-21T09:06:00Z</time>
      </trkpt>
      <trkpt lat="41.8628230" lon="-8.6079170">
        <ele>404.4</ele>
        <time>2019-06-21T09:06:05Z</time>
      </trkpt>
      <trkpt lat="41.8628230" lon="-8.6079170">
        <ele>404.4</ele>
        <time>2019-06-21T09:06:16Z</time>
      </trkpt>
      <trkpt lat="41.8628190" lon="-8.6079170">
        <ele>404.4</ele>
        <time>2019-06-21T09:06:25Z</time>
      </trkpt>
      <trkpt lat="41.8628190" lon="-8.6079170">
        <ele>404.6</ele>
        <time>2019-06-21T09:06:33Z</time>
      </trkpt>
      <trkpt lat="41.8628190" lon="-8.6079170">
        <ele>404.6</ele>
        <time>2019-06-21T09:06:42Z</time>
      </trkpt>
      <trkpt lat="41.8628190" lon="-8.6079170">
        <ele>404.4</ele>
        <time>2019-06-21T09:06:49Z</time>
      </trkpt>
      <trkpt lat="41.8628190" lon="-8.6079170">
        <ele>404.6</ele>
        <time>2019-06-21T09:06:55Z</time>
      </trkpt>
      <trkpt lat="41.8628190" lon="-8.6079150">
        <ele>404.4</ele>
        <time>2019-06-21T09:07:04Z</time>
      </trkpt>
      <trkpt lat="41.8628190" lon="-8.6079150">
        <ele>404.4</ele>
        <time>2019-06-21T09:07:19Z</time>
      </trkpt>
      <trkpt lat="41.8628190" lon="-8.6079150">
        <ele>404.6</ele>
        <time>2019-06-21T09:07:25Z</time>
      </trkpt>
      <trkpt lat="41.8628190" lon="-8.6079150">
        <ele>404.6</ele>
        <time>2019-06-21T09:07:31Z</time>
      </trkpt>
      <trkpt lat="41.8628190" lon="-8.6079150">
        <ele>404.6</ele>
        <time>2019-06-21T09:07:36Z</time>
      </trkpt>
      <trkpt lat="41.8628190" lon="-8.6079120">
        <ele>404.4</ele>
        <time>2019-06-21T09:07:41Z</time>
      </trkpt>
      <trkpt lat="41.8628190" lon="-8.6079120">
        <ele>404.6</ele>
        <time>2019-06-21T09:07:46Z</time>
      </trkpt>
      <trkpt lat="41.8628190" lon="-8.6079120">
        <ele>404.4</ele>
        <time>2019-06-21T09:07:54Z</time>
      </trkpt>
      <trkpt lat="41.8628190" lon="-8.6079120">
        <ele>404.6</ele>
        <time>2019-06-21T09:08:00Z</time>
      </trkpt>
      <trkpt lat="41.8628190" lon="-8.6079120">
        <ele>404.6</ele>
        <time>2019-06-21T09:08:05Z</time>
      </trkpt>
      <trkpt lat="41.8628190" lon="-8.6079120">
        <ele>404.6</ele>
        <time>2019-06-21T09:08:08Z</time>
      </trkpt>
      <trkpt lat="41.8628190" lon="-8.6079120">
        <ele>404.6</ele>
        <time>2019-06-21T09:08:09Z</time>
      </trkpt>
      <trkpt lat="41.8628190" lon="-8.6079120">
        <ele>404.6</ele>
        <time>2019-06-21T09:08:13Z</time>
      </trkpt>
      <trkpt lat="41.8628190" lon="-8.6079120">
        <ele>404.6</ele>
        <time>2019-06-21T09:08:18Z</time>
      </trkpt>
      <trkpt lat="41.8628190" lon="-8.6079140">
        <ele>404.6</ele>
        <time>2019-06-21T09:08:23Z</time>
      </trkpt>
      <trkpt lat="41.8628190" lon="-8.6079140">
        <ele>404.6</ele>
        <time>2019-06-21T09:08:38Z</time>
      </trkpt>
      <trkpt lat="41.8628190" lon="-8.6079140">
        <ele>404.6</ele>
        <time>2019-06-21T09:08:56Z</time>
      </trkpt>
      <trkpt lat="41.8628190" lon="-8.6079170">
        <ele>404.6</ele>
        <time>2019-06-21T09:09:15Z</time>
      </trkpt>
      <trkpt lat="41.8628190" lon="-8.6079170">
        <ele>404.4</ele>
        <time>2019-06-21T09:09:24Z</time>
      </trkpt>
      <trkpt lat="41.8628190" lon="-8.6079170">
        <ele>404.8</ele>
        <time>2019-06-21T09:09:30Z</time>
      </trkpt>
      <trkpt lat="41.8628190" lon="-8.6079170">
        <ele>404.8</ele>
        <time>2019-06-21T09:09:39Z</time>
      </trkpt>
      <trkpt lat="41.8628210" lon="-8.6079190">
        <ele>404.6</ele>
        <time>2019-06-21T09:09:42Z</time>
      </trkpt>
      <trkpt lat="41.8628210" lon="-8.6079190">
        <ele>404.8</ele>
        <time>2019-06-21T09:09:49Z</time>
      </trkpt>
      <trkpt lat="41.8628210" lon="-8.6079190">
        <ele>404.6</ele>
        <time>2019-06-21T09:09:53Z</time>
      </trkpt>
      <trkpt lat="41.8628210" lon="-8.6079190">
        <ele>404.8</ele>
        <time>2019-06-21T09:09:57Z</time>
      </trkpt>
      <trkpt lat="41.8628210" lon="-8.6079190">
        <ele>404.8</ele>
        <time>2019-06-21T09:09:59Z</time>
      </trkpt>
      <trkpt lat="41.8628210" lon="-8.6079190">
        <ele>404.8</ele>
        <time>2019-06-21T09:10:09Z</time>
      </trkpt>
      <trkpt lat="41.8628210" lon="-8.6079190">
        <ele>404.8</ele>
        <time>2019-06-21T09:10:13Z</time>
      </trkpt>
      <trkpt lat="41.8628200" lon="-8.6079230">
        <ele>404.8</ele>
        <time>2019-06-21T09:10:26Z</time>
      </trkpt>
      <trkpt lat="41.8628200" lon="-8.6079230">
        <ele>405.0</ele>
        <time>2019-06-21T09:10:31Z</time>
      </trkpt>
      <trkpt lat="41.8628200" lon="-8.6079230">
        <ele>404.8</ele>
        <time>2019-06-21T09:10:42Z</time>
      </trkpt>
      <trkpt lat="41.8628200" lon="-8.6079230">
        <ele>404.8</ele>
        <time>2019-06-21T09:10:59Z</time>
      </trkpt>
      <trkpt lat="41.8628240" lon="-8.6079150">
        <ele>405.0</ele>
        <time>2019-06-21T09:11:15Z</time>
      </trkpt>
      <trkpt lat="41.8628240" lon="-8.6079150">
        <ele>405.0</ele>
        <time>2019-06-21T09:11:34Z</time>
      </trkpt>
      <trkpt lat="41.8628240" lon="-8.6079150">
        <ele>405.0</ele>
        <time>2019-06-21T09:11:39Z</time>
      </trkpt>
      <trkpt lat="41.8628240" lon="-8.6079140">
        <ele>405.0</ele>
        <time>2019-06-21T09:11:45Z</time>
      </trkpt>
      <trkpt lat="41.8628240" lon="-8.6079140">
        <ele>405.0</ele>
        <time>2019-06-21T09:11:47Z</time>
      </trkpt>
      <trkpt lat="41.8628240" lon="-8.6079140">
        <ele>405.2</ele>
        <time>2019-06-21T09:11:58Z</time>
      </trkpt>
      <trkpt lat="41.8628240" lon="-8.6079140">
        <ele>405.2</ele>
        <time>2019-06-21T09:12:16Z</time>
      </trkpt>
      <trkpt lat="41.8628190" lon="-8.6079040">
        <ele>405.2</ele>
        <time>2019-06-21T09:12:27Z</time>
      </trkpt>
      <trkpt lat="41.8628190" lon="-8.6079040">
        <ele>405.4</ele>
        <time>2019-06-21T09:12:40Z</time>
      </trkpt>
      <trkpt lat="41.8628190" lon="-8.6079040">
        <ele>405.4</ele>
        <time>2019-06-21T09:12:53Z</time>
      </trkpt>
      <trkpt lat="41.8628190" lon="-8.6079040">
        <ele>405.4</ele>
        <time>2019-06-21T09:13:00Z</time>
      </trkpt>
      <trkpt lat="41.8628210" lon="-8.6079090">
        <ele>405.4</ele>
        <time>2019-06-21T09:13:02Z</time>
      </trkpt>
      <trkpt lat="41.8628210" lon="-8.6079090">
        <ele>405.4</ele>
        <time>2019-06-21T09:13:15Z</time>
      </trkpt>
      <trkpt lat="41.8628210" lon="-8.6079090">
        <ele>405.4</ele>
        <time>2019-06-21T09:13:26Z</time>
      </trkpt>
      <trkpt lat="41.8628210" lon="-8.6079090">
        <ele>405.4</ele>
        <time>2019-06-21T09:13:31Z</time>
      </trkpt>
      <trkpt lat="41.8628210" lon="-8.6079090">
        <ele>405.6</ele>
        <time>2019-06-21T09:13:35Z</time>
      </trkpt>
      <trkpt lat="41.8628210" lon="-8.6079100">
        <ele>405.4</ele>
        <time>2019-06-21T09:13:43Z</time>
      </trkpt>
      <trkpt lat="41.8628210" lon="-8.6079100">
        <ele>405.4</ele>
        <time>2019-06-21T09:13:47Z</time>
      </trkpt>
      <trkpt lat="41.8628210" lon="-8.6079100">
        <ele>405.6</ele>
        <time>2019-06-21T09:13:54Z</time>
      </trkpt>
      <trkpt lat="41.8628210" lon="-8.6079100">
        <ele>405.4</ele>
        <time>2019-06-21T09:14:02Z</time>
      </trkpt>
      <trkpt lat="41.8628210" lon="-8.6079100">
        <ele>405.4</ele>
        <time>2019-06-21T09:14:03Z</time>
      </trkpt>
      <trkpt lat="41.8628210" lon="-8.6079100">
        <ele>405.4</ele>
        <time>2019-06-21T09:14:13Z</time>
      </trkpt>
      <trkpt lat="41.8628210" lon="-8.6079100">
        <ele>405.4</ele>
        <time>2019-06-21T09:14:17Z</time>
      </trkpt>
      <trkpt lat="41.8628220" lon="-8.6079120">
        <ele>405.6</ele>
        <time>2019-06-21T09:14:26Z</time>
      </trkpt>
      <trkpt lat="41.8628220" lon="-8.6079120">
        <ele>405.6</ele>
        <time>2019-06-21T09:14:32Z</time>
      </trkpt>
      <trkpt lat="41.8628220" lon="-8.6079120">
        <ele>405.6</ele>
        <time>2019-06-21T09:14:41Z</time>
      </trkpt>
      <trkpt lat="41.8628220" lon="-8.6079120">
        <ele>405.6</ele>
        <time>2019-06-21T09:14:44Z</time>
      </trkpt>
      <trkpt lat="41.8628220" lon="-8.6079120">
        <ele>405.6</ele>
        <time>2019-06-21T09:14:53Z</time>
      </trkpt>
      <trkpt lat="41.8628210" lon="-8.6079000">
        <ele>405.6</ele>
        <time>2019-06-21T09:15:05Z</time>
      </trkpt>
      <trkpt lat="41.8628210" lon="-8.6079000">
        <ele>405.6</ele>
        <time>2019-06-21T09:15:19Z</time>
      </trkpt>
      <trkpt lat="41.8628210" lon="-8.6079000">
        <ele>405.6</ele>
        <time>2019-06-21T09:15:29Z</time>
      </trkpt>
      <trkpt lat="41.8628210" lon="-8.6079000">
        <ele>405.6</ele>
        <time>2019-06-21T09:15:30Z</time>
      </trkpt>
      <trkpt lat="41.8628210" lon="-8.6079000">
        <ele>405.6</ele>
        <time>2019-06-21T09:15:34Z</time>
      </trkpt>
      <trkpt lat="41.8628170" lon="-8.6078990">
        <ele>405.6</ele>
        <time>2019-06-21T09:15:47Z</time>
      </trkpt>
      <trkpt lat="41.8628170" lon="-8.6078990">
        <ele>405.6</ele>
        <time>2019-06-21T09:15:51Z</time>
      </trkpt>
      <trkpt lat="41.8628170" lon="-8.6078990">
        <ele>405.8</ele>
        <time>2019-06-21T09:15:57Z</time>
      </trkpt>
      <trkpt lat="41.8628170" lon="-8.6078990">
        <ele>405.8</ele>
        <time>2019-06-21T09:16:12Z</time>
      </trkpt>
      <trkpt lat="41.8628160" lon="-8.6079000">
        <ele>405.8</ele>
        <time>2019-06-21T09:16:23Z</time>
      </trkpt>
      <trkpt lat="41.8628160" lon="-8.6079000">
        <ele>405.6</ele>
        <time>2019-06-21T09:16:27Z</time>
      </trkpt>
      <trkpt lat="41.8628160" lon="-8.6079000">
        <ele>405.8</ele>
        <time>2019-06-21T09:16:31Z</time>
      </trkpt>
      <trkpt lat="41.8628160" lon="-8.6079000">
        <ele>405.6</ele>
        <time>2019-06-21T09:16:36Z</time>
      </trkpt>
      <trkpt lat="41.8628160" lon="-8.6079000">
        <ele>405.6</ele>
        <time>2019-06-21T09:16:43Z</time>
      </trkpt>
      <trkpt lat="41.8628160" lon="-8.6079000">
        <ele>405.8</ele>
        <time>2019-06-21T09:16:49Z</time>
      </trkpt>
      <trkpt lat="41.8628160" lon="-8.6079000">
        <ele>405.8</ele>
        <time>2019-06-21T09:16:52Z</time>
      </trkpt>
      <trkpt lat="41.8628160" lon="-8.6079000">
        <ele>405.8</ele>
        <time>2019-06-21T09:17:00Z</time>
      </trkpt>
      <trkpt lat="41.8628210" lon="-8.6078890">
        <ele>405.8</ele>
        <time>2019-06-21T09:17:03Z</time>
      </trkpt>
      <trkpt lat="41.8628210" lon="-8.6078890">
        <ele>405.8</ele>
        <time>2019-06-21T09:17:06Z</time>
      </trkpt>
      <trkpt lat="41.8628210" lon="-8.6078890">
        <ele>405.8</ele>
        <time>2019-06-21T09:17:14Z</time>
      </trkpt>
      <trkpt lat="41.8628210" lon="-8.6078890">
        <ele>405.6</ele>
        <time>2019-06-21T09:17:24Z</time>
      </trkpt>
      <trkpt lat="41.8628210" lon="-8.6078890">
        <ele>405.8</ele>
        <time>2019-06-21T09:17:30Z</time>
      </trkpt>
      <trkpt lat="41.8628210" lon="-8.6078890">
        <ele>405.6</ele>
        <time>2019-06-21T09:17:34Z</time>
      </trkpt>
      <trkpt lat="41.8628210" lon="-8.6078890">
        <ele>405.6</ele>
        <time>2019-06-21T09:17:39Z</time>
      </trkpt>
      <trkpt lat="41.8628210" lon="-8.6078920">
        <ele>405.8</ele>
        <time>2019-06-21T09:17:49Z</time>
      </trkpt>
      <trkpt lat="41.8628210" lon="-8.6078920">
        <ele>405.6</ele>
        <time>2019-06-21T09:18:00Z</time>
      </trkpt>
      <trkpt lat="41.8628210" lon="-8.6078920">
        <ele>405.6</ele>
        <time>2019-06-21T09:18:01Z</time>
      </trkpt>
      <trkpt lat="41.8628210" lon="-8.6078920">
        <ele>405.8</ele>
        <time>2019-06-21T09:18:20Z</time>
      </trkpt>
      <trkpt lat="41.8628220" lon="-8.6078900">
        <ele>405.6</ele>
        <time>2019-06-21T09:18:25Z</time>
      </trkpt>
      <trkpt lat="41.8628220" lon="-8.6078900">
        <ele>405.8</ele>
        <time>2019-06-21T09:18:38Z</time>
      </trkpt>
      <trkpt lat="41.8628220" lon="-8.6078900">
        <ele>405.6</ele>
        <time>2019-06-21T09:18:43Z</time>
      </trkpt>
      <trkpt lat="41.8628220" lon="-8.6078900">
        <ele>405.6</ele>
        <time>2019-06-21T09:18:49Z</time>
      </trkpt>
      <trkpt lat="41.8628220" lon="-8.6078900">
        <ele>405.6</ele>
        <time>2019-06-21T09:18:58Z</time>
      </trkpt>
      <trkpt lat="41.8628220" lon="-8.6078900">
        <ele>405.6</ele>
        <time>2019-06-21T09:18:59Z</time>
      </trkpt>
      <trkpt lat="41.8628250" lon="-8.6078940">
        <ele>405.6</ele>
        <time>2019-06-21T09:19:09Z</time>
      </trkpt>
      <trkpt lat="41.8628250" lon="-8.6078940">
        <ele>405.8</ele>
        <time>2019-06-21T09:19:20Z</time>
      </trkpt>
      <trkpt lat="41.8628250" lon="-8.6078940">
        <ele>405.8</ele>
        <time>2019-06-21T09:19:27Z</time>
      </trkpt>
      <trkpt lat="41.8628250" lon="-8.6078940">
        <ele>405.8</ele>
        <time>2019-06-21T09:19:29Z</time>
      </trkpt>
      <trkpt lat="41.8628250" lon="-8.6078940">
        <ele>405.8</ele>
        <time>2019-06-21T09:19:32Z</time>
      </trkpt>
      <trkpt lat="41.8628250" lon="-8.6078940">
        <ele>405.6</ele>
        <time>2019-06-21T09:19:35Z</time>
      </trkpt>
      <trkpt lat="41.8628250" lon="-8.6078940">
        <ele>405.8</ele>
        <time>2019-06-21T09:19:38Z</time>
      </trkpt>
      <trkpt lat="41.8628240" lon="-8.6078920">
        <ele>405.8</ele>
        <time>2019-06-21T09:19:42Z</time>
      </trkpt>
      <trkpt lat="41.8628240" lon="-8.6078920">
        <ele>405.8</ele>
        <time>2019-06-21T09:19:52Z</time>
      </trkpt>
      <trkpt lat="41.8628240" lon="-8.6078920">
        <ele>405.8</ele>
        <time>2019-06-21T09:20:04Z</time>
      </trkpt>
      <trkpt lat="41.8628240" lon="-8.6078920">
        <ele>405.8</ele>
        <time>2019-06-21T09:20:05Z</time>
      </trkpt>
      <trkpt lat="41.8628240" lon="-8.6078920">
        <ele>405.8</ele>
        <time>2019-06-21T09:20:11Z</time>
      </trkpt>
      <trkpt lat="41.8628270" lon="-8.6078940">
        <ele>405.8</ele>
        <time>2019-06-21T09:20:24Z</time>
      </trkpt>
      <trkpt lat="41.8628270" lon="-8.6078940">
        <ele>405.8</ele>
        <time>2019-06-21T09:20:28Z</time>
      </trkpt>
      <trkpt lat="41.8628270" lon="-8.6078940">
        <ele>405.6</ele>
        <time>2019-06-21T09:20:31Z</time>
      </trkpt>
      <trkpt lat="41.8628270" lon="-8.6078940">
        <ele>405.8</ele>
        <time>2019-06-21T09:20:37Z</time>
      </trkpt>
      <trkpt lat="41.8628270" lon="-8.6078940">
        <ele>405.6</ele>
        <time>2019-06-21T09:20:42Z</time>
      </trkpt>
      <trkpt lat="41.8628270" lon="-8.6078940">
        <ele>405.6</ele>
        <time>2019-06-21T09:20:54Z</time>
      </trkpt>
      <trkpt lat="41.8628270" lon="-8.6078940">
        <ele>405.8</ele>
        <time>2019-06-21T09:20:59Z</time>
      </trkpt>
      <trkpt lat="41.8628280" lon="-8.6079050">
        <ele>405.6</ele>
        <time>2019-06-21T09:21:07Z</time>
      </trkpt>
      <trkpt lat="41.8628280" lon="-8.6079050">
        <ele>405.6</ele>
        <time>2019-06-21T09:21:08Z</time>
      </trkpt>
      <trkpt lat="41.8628280" lon="-8.6079050">
        <ele>405.8</ele>
        <time>2019-06-21T09:21:17Z</time>
      </trkpt>
      <trkpt lat="41.8628280" lon="-8.6079050">
        <ele>405.8</ele>
        <time>2019-06-21T09:21:29Z</time>
      </trkpt>
      <trkpt lat="41.8628280" lon="-8.6079050">
        <ele>405.8</ele>
        <time>2019-06-21T09:21:40Z</time>
      </trkpt>
      <trkpt lat="41.8628300" lon="-8.6079070">
        <ele>405.8</ele>
        <time>2019-06-21T09:21:43Z</time>
      </trkpt>
      <trkpt lat="41.8628300" lon="-8.6079070">
        <ele>405.8</ele>
        <time>2019-06-21T09:21:59Z</time>
      </trkpt>
      <trkpt lat="41.8628300" lon="-8.6079070">
        <ele>405.6</ele>
        <time>2019-06-21T09:22:14Z</time>
      </trkpt>
      <trkpt lat="41.8628300" lon="-8.6079070">
        <ele>405.6</ele>
        <time>2019-06-21T09:22:16Z</time>
      </trkpt>
      <trkpt lat="41.8628320" lon="-8.6079070">
        <ele>405.8</ele>
        <time>2019-06-21T09:22:32Z</time>
      </trkpt>
      <trkpt lat="41.8628320" lon="-8.6079070">
        <ele>405.6</ele>
        <time>2019-06-21T09:22:46Z</time>
      </trkpt>
      <trkpt lat="41.8628320" lon="-8.6079070">
        <ele>405.6</ele>
        <time>2019-06-21T09:22:48Z</time>
      </trkpt>
      <trkpt lat="41.8628320" lon="-8.6079070">
        <ele>405.6</ele>
        <time>2019-06-21T09:22:59Z</time>
      </trkpt>
      <trkpt lat="41.8628320" lon="-8.6079070">
        <ele>405.6</ele>
        <time>2019-06-21T09:23:01Z</time>
      </trkpt>
      <trkpt lat="41.8628320" lon="-8.6079090">
        <ele>405.6</ele>
        <time>2019-06-21T09:23:17Z</time>
      </trkpt>
      <trkpt lat="41.8628320" lon="-8.6079090">
        <ele>405.6</ele>
        <time>2019-06-21T09:23:27Z</time>
      </trkpt>
      <trkpt lat="41.8628320" lon="-8.6079090">
        <ele>405.4</ele>
        <time>2019-06-21T09:23:29Z</time>
      </trkpt>
      <trkpt lat="41.8628320" lon="-8.6079090">
        <ele>405.6</ele>
        <time>2019-06-21T09:23:32Z</time>
      </trkpt>
      <trkpt lat="41.8628320" lon="-8.6079090">
        <ele>405.6</ele>
        <time>2019-06-21T09:23:37Z</time>
      </trkpt>
      <trkpt lat="41.8628320" lon="-8.6079090">
        <ele>405.6</ele>
        <time>2019-06-21T09:23:40Z</time>
      </trkpt>
      <trkpt lat="41.8628330" lon="-8.6079100">
        <ele>405.6</ele>
        <time>2019-06-21T09:23:47Z</time>
      </trkpt>
      <trkpt lat="41.8628330" lon="-8.6079100">
        <ele>405.4</ele>
        <time>2019-06-21T09:24:05Z</time>
      </trkpt>
      <trkpt lat="41.8628330" lon="-8.6079100">
        <ele>405.6</ele>
        <time>2019-06-21T09:24:07Z</time>
      </trkpt>
      <trkpt lat="41.8628330" lon="-8.6079100">
        <ele>405.6</ele>
        <time>2019-06-21T09:24:11Z</time>
      </trkpt>
      <trkpt lat="41.8628330" lon="-8.6079100">
        <ele>405.6</ele>
        <time>2019-06-21T09:24:20Z</time>
      </trkpt>
      <trkpt lat="41.8628300" lon="-8.6079090">
        <ele>405.6</ele>
        <time>2019-06-21T09:24:23Z</time>
      </trkpt>
      <trkpt lat="41.8628300" lon="-8.6079090">
        <ele>405.6</ele>
        <time>2019-06-21T09:24:41Z</time>
      </trkpt>
      <trkpt lat="41.8628300" lon="-8.6079090">
        <ele>405.4</ele>
        <time>2019-06-21T09:24:43Z</time>
      </trkpt>
      <trkpt lat="41.8628300" lon="-8.6079090">
        <ele>405.6</ele>
        <time>2019-06-21T09:24:46Z</time>
      </trkpt>
      <trkpt lat="41.8628300" lon="-8.6079090">
        <ele>405.4</ele>
        <time>2019-06-21T09:24:49Z</time>
      </trkpt>
      <trkpt lat="41.8628300" lon="-8.6079090">
        <ele>405.6</ele>
        <time>2019-06-21T09:24:52Z</time>
      </trkpt>
      <trkpt lat="41.8628300" lon="-8.6079090">
        <ele>405.6</ele>
        <time>2019-06-21T09:24:54Z</time>
      </trkpt>
      <trkpt lat="41.8628300" lon="-8.6079090">
        <ele>405.6</ele>
        <time>2019-06-21T09:24:56Z</time>
      </trkpt>
      <trkpt lat="41.8628290" lon="-8.6079070">
        <ele>405.4</ele>
        <time>2019-06-21T09:25:02Z</time>
      </trkpt>
      <trkpt lat="41.8628290" lon="-8.6079070">
        <ele>405.4</ele>
        <time>2019-06-21T09:25:06Z</time>
      </trkpt>
      <trkpt lat="41.8628290" lon="-8.6079070">
        <ele>405.6</ele>
        <time>2019-06-21T09:25:16Z</time>
      </trkpt>
      <trkpt lat="41.8628290" lon="-8.6079070">
        <ele>405.6</ele>
        <time>2019-06-21T09:25:34Z</time>
      </trkpt>
      <trkpt lat="41.8628290" lon="-8.6079070">
        <ele>406.0</ele>
        <time>2019-06-21T09:25:38Z</time>
      </trkpt>
      <trkpt lat="41.8628290" lon="-8.6079010">
        <ele>406.2</ele>
        <time>2019-06-21T09:25:43Z</time>
      </trkpt>
      <trkpt lat="41.8628290" lon="-8.6079010">
        <ele>406.2</ele>
        <time>2019-06-21T09:25:44Z</time>
      </trkpt>
      <trkpt lat="41.8628290" lon="-8.6079010">
        <ele>406.0</ele>
        <time>2019-06-21T09:25:56Z</time>
      </trkpt>
      <trkpt lat="41.8628290" lon="-8.6079010">
        <ele>406.0</ele>
        <time>2019-06-21T09:26:06Z</time>
      </trkpt>
      <trkpt lat="41.8628290" lon="-8.6079010">
        <ele>406.0</ele>
        <time>2019-06-21T09:26:07Z</time>
      </trkpt>
      <trkpt lat="41.8628290" lon="-8.6079010">
        <ele>405.8</ele>
        <time>2019-06-21T09:26:20Z</time>
      </trkpt>
      <trkpt lat="41.8628280" lon="-8.6079050">
        <ele>406.0</ele>
        <time>2019-06-21T09:26:28Z</time>
      </trkpt>
      <trkpt lat="41.8628280" lon="-8.6079050">
        <ele>406.0</ele>
        <time>2019-06-21T09:26:33Z</time>
      </trkpt>
      <trkpt lat="41.8628280" lon="-8.6079050">
        <ele>406.0</ele>
        <time>2019-06-21T09:26:37Z</time>
      </trkpt>
      <trkpt lat="41.8628280" lon="-8.6079050">
        <ele>406.0</ele>
        <time>2019-06-21T09:26:47Z</time>
      </trkpt>
      <trkpt lat="41.8628280" lon="-8.6079050">
        <ele>406.0</ele>
        <time>2019-06-21T09:26:56Z</time>
      </trkpt>
      <trkpt lat="41.8628270" lon="-8.6078950">
        <ele>406.0</ele>
        <time>2019-06-21T09:27:04Z</time>
      </trkpt>
      <trkpt lat="41.8628270" lon="-8.6078720">
        <ele>406.0</ele>
        <time>2019-06-21T09:27:07Z</time>
      </trkpt>
      <trkpt lat="41.8628370" lon="-8.6078400">
        <ele>406.0</ele>
        <time>2019-06-21T09:27:09Z</time>
      </trkpt>
      <trkpt lat="41.8629110" lon="-8.6077980">
        <ele>406.0</ele>
        <time>2019-06-21T09:27:15Z</time>
      </trkpt>
      <trkpt lat="41.8629470" lon="-8.6078540">
        <ele>406.6</ele>
        <time>2019-06-21T09:27:18Z</time>
      </trkpt>
      <trkpt lat="41.8629570" lon="-8.6078730">
        <ele>406.6</ele>
        <time>2019-06-21T09:27:19Z</time>
      </trkpt>
      <trkpt lat="41.8629780" lon="-8.6079220">
        <ele>407.2</ele>
        <time>2019-06-21T09:27:22Z</time>
      </trkpt>
      <trkpt lat="41.8630130" lon="-8.6079820">
        <ele>407.6</ele>
        <time>2019-06-21T09:27:25Z</time>
      </trkpt>
      <trkpt lat="41.8630230" lon="-8.6079950">
        <ele>407.6</ele>
        <time>2019-06-21T09:27:26Z</time>
      </trkpt>
      <trkpt lat="41.8630640" lon="-8.6081550">
        <ele>407.8</ele>
        <time>2019-06-21T09:27:32Z</time>
      </trkpt>
      <trkpt lat="41.8630380" lon="-8.6082160">
        <ele>408.0</ele>
        <time>2019-06-21T09:27:35Z</time>
      </trkpt>
      <trkpt lat="41.8630000" lon="-8.6082320">
        <ele>408.0</ele>
        <time>2019-06-21T09:27:37Z</time>
      </trkpt>
      <trkpt lat="41.8629070" lon="-8.6082430">
        <ele>408.0</ele>
        <time>2019-06-21T09:27:42Z</time>
      </trkpt>
      <trkpt lat="41.8628400" lon="-8.6082600">
        <ele>408.2</ele>
        <time>2019-06-21T09:27:46Z</time>
      </trkpt>
      <trkpt lat="41.8628000" lon="-8.6082680">
        <ele>408.2</ele>
        <time>2019-06-21T09:27:48Z</time>
      </trkpt>
      <trkpt lat="41.8627280" lon="-8.6083640">
        <ele>408.0</ele>
        <time>2019-06-21T09:27:54Z</time>
      </trkpt>
      <trkpt lat="41.8627100" lon="-8.6084080">
        <ele>407.8</ele>
        <time>2019-06-21T09:27:59Z</time>
      </trkpt>
      <trkpt lat="41.8627100" lon="-8.6084080">
        <ele>407.6</ele>
        <time>2019-06-21T09:28:09Z</time>
      </trkpt>
      <trkpt lat="41.8627100" lon="-8.6084080">
        <ele>407.6</ele>
        <time>2019-06-21T09:28:11Z</time>
      </trkpt>
      <trkpt lat="41.8627100" lon="-8.6084080">
        <ele>407.6</ele>
        <time>2019-06-21T09:28:13Z</time>
      </trkpt>
      <trkpt lat="41.8627100" lon="-8.6084080">
        <ele>407.6</ele>
        <time>2019-06-21T09:28:26Z</time>
      </trkpt>
      <trkpt lat="41.8627200" lon="-8.6084290">
        <ele>407.4</ele>
        <time>2019-06-21T09:28:31Z</time>
      </trkpt>
      <trkpt lat="41.8627390" lon="-8.6084780">
        <ele>407.6</ele>
        <time>2019-06-21T09:28:33Z</time>
      </trkpt>
      <trkpt lat="41.8627780" lon="-8.6085850">
        <ele>407.0</ele>
        <time>2019-06-21T09:28:36Z</time>
      </trkpt>
      <trkpt lat="41.8628210" lon="-8.6086700">
        <ele>406.8</ele>
        <time>2019-06-21T09:28:38Z</time>
      </trkpt>
      <trkpt lat="41.8628810" lon="-8.6088050">
        <ele>406.0</ele>
        <time>2019-06-21T09:28:41Z</time>
      </trkpt>
      <trkpt lat="41.8629590" lon="-8.6089520">
        <ele>404.8</ele>
        <time>2019-06-21T09:28:44Z</time>
      </trkpt>
      <trkpt lat="41.8629860" lon="-8.6089940">
        <ele>404.4</ele>
        <time>2019-06-21T09:28:45Z</time>
      </trkpt>
      <trkpt lat="41.8630100" lon="-8.6090340">
        <ele>403.4</ele>
        <time>2019-06-21T09:28:46Z</time>
      </trkpt>
      <trkpt lat="41.8630770" lon="-8.6091380">
        <ele>401.8</ele>
        <time>2019-06-21T09:28:49Z</time>
      </trkpt>
      <trkpt lat="41.8631120" lon="-8.6092250">
        <ele>400.8</ele>
        <time>2019-06-21T09:28:51Z</time>
      </trkpt>
      <trkpt lat="41.8631440" lon="-8.6093180">
        <ele>399.4</ele>
        <time>2019-06-21T09:28:53Z</time>
      </trkpt>
      <trkpt lat="41.8631900" lon="-8.6094780">
        <ele>398.8</ele>
        <time>2019-06-21T09:28:56Z</time>
      </trkpt>
      <trkpt lat="41.8632140" lon="-8.6095380">
        <ele>398.2</ele>
        <time>2019-06-21T09:28:57Z</time>
      </trkpt>
      <trkpt lat="41.8633470" lon="-8.6097950">
        <ele>397.0</ele>
        <time>2019-06-21T09:29:02Z</time>
      </trkpt>
      <trkpt lat="41.8634030" lon="-8.6098690">
        <ele>396.6</ele>
        <time>2019-06-21T09:29:04Z</time>
      </trkpt>
      <trkpt lat="41.8634650" lon="-8.6099540">
        <ele>395.6</ele>
        <time>2019-06-21T09:29:06Z</time>
      </trkpt>
      <trkpt lat="41.8635640" lon="-8.6101260">
        <ele>394.4</ele>
        <time>2019-06-21T09:29:09Z</time>
      </trkpt>
      <trkpt lat="41.8635910" lon="-8.6101820">
        <ele>393.6</ele>
        <time>2019-06-21T09:29:10Z</time>
      </trkpt>
      <trkpt lat="41.8636170" lon="-8.6102320">
        <ele>393.4</ele>
        <time>2019-06-21T09:29:11Z</time>
      </trkpt>
      <trkpt lat="41.8636820" lon="-8.6103090">
        <ele>392.4</ele>
        <time>2019-06-21T09:29:14Z</time>
      </trkpt>
      <trkpt lat="41.8636990" lon="-8.6103330">
        <ele>392.0</ele>
        <time>2019-06-21T09:29:15Z</time>
      </trkpt>
      <trkpt lat="41.8637220" lon="-8.6104540">
        <ele>390.8</ele>
        <time>2019-06-21T09:29:19Z</time>
      </trkpt>
      <trkpt lat="41.8637610" lon="-8.6106320">
        <ele>389.6</ele>
        <time>2019-06-21T09:29:23Z</time>
      </trkpt>
      <trkpt lat="41.8637590" lon="-8.6106730">
        <ele>389.4</ele>
        <time>2019-06-21T09:29:24Z</time>
      </trkpt>
      <trkpt lat="41.8637470" lon="-8.6108120">
        <ele>388.8</ele>
        <time>2019-06-21T09:29:29Z</time>
      </trkpt>
      <trkpt lat="41.8637710" lon="-8.6108670">
        <ele>388.4</ele>
        <time>2019-06-21T09:29:31Z</time>
      </trkpt>
      <trkpt lat="41.8638150" lon="-8.6109930">
        <ele>386.6</ele>
        <time>2019-06-21T09:29:33Z</time>
      </trkpt>
      <trkpt lat="41.8638290" lon="-8.6110590">
        <ele>384.8</ele>
        <time>2019-06-21T09:29:34Z</time>
      </trkpt>
      <trkpt lat="41.8638570" lon="-8.6111950">
        <ele>383.8</ele>
        <time>2019-06-21T09:29:37Z</time>
      </trkpt>
      <trkpt lat="41.8638840" lon="-8.6112340">
        <ele>383.4</ele>
        <time>2019-06-21T09:29:38Z</time>
      </trkpt>
      <trkpt lat="41.8639320" lon="-8.6112860">
        <ele>382.4</ele>
        <time>2019-06-21T09:29:40Z</time>
      </trkpt>
      <trkpt lat="41.8639500" lon="-8.6113200">
        <ele>381.6</ele>
        <time>2019-06-21T09:29:41Z</time>
      </trkpt>
      <trkpt lat="41.8639710" lon="-8.6113640">
        <ele>381.2</ele>
        <time>2019-06-21T09:29:42Z</time>
      </trkpt>
      <trkpt lat="41.8640150" lon="-8.6114640">
        <ele>380.0</ele>
        <time>2019-06-21T09:29:44Z</time>
      </trkpt>
      <trkpt lat="41.8640620" lon="-8.6115580">
        <ele>378.4</ele>
        <time>2019-06-21T09:29:46Z</time>
      </trkpt>
      <trkpt lat="41.8641060" lon="-8.6116120">
        <ele>377.2</ele>
        <time>2019-06-21T09:29:48Z</time>
      </trkpt>
      <trkpt lat="41.8641380" lon="-8.6116590">
        <ele>375.8</ele>
        <time>2019-06-21T09:29:50Z</time>
      </trkpt>
      <trkpt lat="41.8641700" lon="-8.6117010">
        <ele>374.6</ele>
        <time>2019-06-21T09:29:52Z</time>
      </trkpt>
      <trkpt lat="41.8642070" lon="-8.6117570">
        <ele>373.4</ele>
        <time>2019-06-21T09:29:55Z</time>
      </trkpt>
      <trkpt lat="41.8642420" lon="-8.6118190">
        <ele>371.2</ele>
        <time>2019-06-21T09:29:58Z</time>
      </trkpt>
      <trkpt lat="41.8642740" lon="-8.6118500">
        <ele>370.2</ele>
        <time>2019-06-21T09:30:01Z</time>
      </trkpt>
      <trkpt lat="41.8642870" lon="-8.6118590">
        <ele>369.8</ele>
        <time>2019-06-21T09:30:02Z</time>
      </trkpt>
      <trkpt lat="41.8643220" lon="-8.6118690">
        <ele>368.8</ele>
        <time>2019-06-21T09:30:04Z</time>
      </trkpt>
      <trkpt lat="41.8643650" lon="-8.6118880">
        <ele>368.0</ele>
        <time>2019-06-21T09:30:07Z</time>
      </trkpt>
      <trkpt lat="41.8643770" lon="-8.6118960">
        <ele>367.6</ele>
        <time>2019-06-21T09:30:08Z</time>
      </trkpt>
      <trkpt lat="41.8644070" lon="-8.6119530">
        <ele>366.4</ele>
        <time>2019-06-21T09:30:12Z</time>
      </trkpt>
      <trkpt lat="41.8644170" lon="-8.6119650">
        <ele>366.2</ele>
        <time>2019-06-21T09:30:13Z</time>
      </trkpt>
      <trkpt lat="41.8644230" lon="-8.6119880">
        <ele>365.4</ele>
        <time>2019-06-21T09:30:17Z</time>
      </trkpt>
      <trkpt lat="41.8644230" lon="-8.6119880">
        <ele>365.2</ele>
        <time>2019-06-21T09:30:18Z</time>
      </trkpt>
      <trkpt lat="41.8644310" lon="-8.6119940">
        <ele>365.2</ele>
        <time>2019-06-21T09:30:19Z</time>
      </trkpt>
      <trkpt lat="41.8644550" lon="-8.6120220">
        <ele>364.6</ele>
        <time>2019-06-21T09:30:23Z</time>
      </trkpt>
      <trkpt lat="41.8644690" lon="-8.6120460">
        <ele>364.0</ele>
        <time>2019-06-21T09:30:25Z</time>
      </trkpt>
      <trkpt lat="41.8644740" lon="-8.6120570">
        <ele>363.8</ele>
        <time>2019-06-21T09:30:26Z</time>
      </trkpt>
      <trkpt lat="41.8644870" lon="-8.6120770">
        <ele>363.2</ele>
        <time>2019-06-21T09:30:28Z</time>
      </trkpt>
      <trkpt lat="41.8644940" lon="-8.6120850">
        <ele>362.8</ele>
        <time>2019-06-21T09:30:29Z</time>
      </trkpt>
      <trkpt lat="41.8645160" lon="-8.6121110">
        <ele>362.2</ele>
        <time>2019-06-21T09:30:32Z</time>
      </trkpt>
      <trkpt lat="41.8645360" lon="-8.6121280">
        <ele>361.6</ele>
        <time>2019-06-21T09:30:34Z</time>
      </trkpt>
      <trkpt lat="41.8645730" lon="-8.6121600">
        <ele>361.4</ele>
        <time>2019-06-21T09:30:37Z</time>
      </trkpt>
      <trkpt lat="41.8645790" lon="-8.6121710">
        <ele>361.4</ele>
        <time>2019-06-21T09:30:38Z</time>
      </trkpt>
      <trkpt lat="41.8645900" lon="-8.6122010">
        <ele>360.4</ele>
        <time>2019-06-21T09:30:41Z</time>
      </trkpt>
      <trkpt lat="41.8646260" lon="-8.6122360">
        <ele>360.0</ele>
        <time>2019-06-21T09:30:44Z</time>
      </trkpt>
      <trkpt lat="41.8647290" lon="-8.6123000">
        <ele>359.6</ele>
        <time>2019-06-21T09:30:50Z</time>
      </trkpt>
      <trkpt lat="41.8647460" lon="-8.6123170">
        <ele>359.4</ele>
        <time>2019-06-21T09:30:51Z</time>
      </trkpt>
      <trkpt lat="41.8648480" lon="-8.6123980">
        <ele>358.8</ele>
        <time>2019-06-21T09:30:55Z</time>
      </trkpt>
      <trkpt lat="41.8649000" lon="-8.6124720">
        <ele>357.8</ele>
        <time>2019-06-21T09:30:57Z</time>
      </trkpt>
      <trkpt lat="41.8649200" lon="-8.6125100">
        <ele>357.0</ele>
        <time>2019-06-21T09:30:58Z</time>
      </trkpt>
      <trkpt lat="41.8649400" lon="-8.6125440">
        <ele>356.4</ele>
        <time>2019-06-21T09:30:59Z</time>
      </trkpt>
      <trkpt lat="41.8649610" lon="-8.6125760">
        <ele>355.8</ele>
        <time>2019-06-21T09:31:00Z</time>
      </trkpt>
      <trkpt lat="41.8649820" lon="-8.6126140">
        <ele>355.2</ele>
        <time>2019-06-21T09:31:01Z</time>
      </trkpt>
      <trkpt lat="41.8650180" lon="-8.6126820">
        <ele>354.0</ele>
        <time>2019-06-21T09:31:03Z</time>
      </trkpt>
      <trkpt lat="41.8650910" lon="-8.6127660">
        <ele>353.0</ele>
        <time>2019-06-21T09:31:06Z</time>
      </trkpt>
      <trkpt lat="41.8652150" lon="-8.6129180">
        <ele>351.2</ele>
        <time>2019-06-21T09:31:10Z</time>
      </trkpt>
      <trkpt lat="41.8652500" lon="-8.6129760">
        <ele>350.0</ele>
        <time>2019-06-21T09:31:11Z</time>
      </trkpt>
      <trkpt lat="41.8653240" lon="-8.6130960">
        <ele>347.8</ele>
        <time>2019-06-21T09:31:13Z</time>
      </trkpt>
      <trkpt lat="41.8653710" lon="-8.6131620">
        <ele>346.8</ele>
        <time>2019-06-21T09:31:14Z</time>
      </trkpt>
      <trkpt lat="41.8654280" lon="-8.6132330">
        <ele>346.0</ele>
        <time>2019-06-21T09:31:15Z</time>
      </trkpt>
      <trkpt lat="41.8654850" lon="-8.6133100">
        <ele>345.6</ele>
        <time>2019-06-21T09:31:16Z</time>
      </trkpt>
      <trkpt lat="41.8656250" lon="-8.6135030">
        <ele>343.8</ele>
        <time>2019-06-21T09:31:19Z</time>
      </trkpt>
      <trkpt lat="41.8656590" lon="-8.6135460">
        <ele>342.6</ele>
        <time>2019-06-21T09:31:20Z</time>
      </trkpt>
      <trkpt lat="41.8657420" lon="-8.6136620">
        <ele>341.6</ele>
        <time>2019-06-21T09:31:23Z</time>
      </trkpt>
      <trkpt lat="41.8657900" lon="-8.6137580">
        <ele>340.4</ele>
        <time>2019-06-21T09:31:25Z</time>
      </trkpt>
      <trkpt lat="41.8658340" lon="-8.6138180">
        <ele>339.4</ele>
        <time>2019-06-21T09:31:27Z</time>
      </trkpt>
      <trkpt lat="41.8658970" lon="-8.6139090">
        <ele>338.2</ele>
        <time>2019-06-21T09:31:29Z</time>
      </trkpt>
      <trkpt lat="41.8659630" lon="-8.6140120">
        <ele>337.4</ele>
        <time>2019-06-21T09:31:31Z</time>
      </trkpt>
      <trkpt lat="41.8659970" lon="-8.6140740">
        <ele>337.2</ele>
        <time>2019-06-21T09:31:32Z</time>
      </trkpt>
      <trkpt lat="41.8660660" lon="-8.6142100">
        <ele>336.4</ele>
        <time>2019-06-21T09:31:34Z</time>
      </trkpt>
      <trkpt lat="41.8661220" lon="-8.6143360">
        <ele>336.0</ele>
        <time>2019-06-21T09:31:36Z</time>
      </trkpt>
      <trkpt lat="41.8661570" lon="-8.6144010">
        <ele>335.8</ele>
        <time>2019-06-21T09:31:37Z</time>
      </trkpt>
      <trkpt lat="41.8662440" lon="-8.6145270">
        <ele>335.4</ele>
        <time>2019-06-21T09:31:39Z</time>
      </trkpt>
      <trkpt lat="41.8663430" lon="-8.6146300">
        <ele>333.8</ele>
        <time>2019-06-21T09:31:41Z</time>
      </trkpt>
      <trkpt lat="41.8663950" lon="-8.6146590">
        <ele>334.0</ele>
        <time>2019-06-21T09:31:42Z</time>
      </trkpt>
      <trkpt lat="41.8664500" lon="-8.6146920">
        <ele>333.8</ele>
        <time>2019-06-21T09:31:43Z</time>
      </trkpt>
      <trkpt lat="41.8665560" lon="-8.6147330">
        <ele>334.4</ele>
        <time>2019-06-21T09:31:45Z</time>
      </trkpt>
      <trkpt lat="41.8666650" lon="-8.6147320">
        <ele>334.2</ele>
        <time>2019-06-21T09:31:47Z</time>
      </trkpt>
      <trkpt lat="41.8668600" lon="-8.6147420">
        <ele>332.8</ele>
        <time>2019-06-21T09:31:50Z</time>
      </trkpt>
      <trkpt lat="41.8670000" lon="-8.6147630">
        <ele>331.6</ele>
        <time>2019-06-21T09:31:52Z</time>
      </trkpt>
      <trkpt lat="41.8671430" lon="-8.6148020">
        <ele>330.6</ele>
        <time>2019-06-21T09:31:54Z</time>
      </trkpt>
      <trkpt lat="41.8672750" lon="-8.6148410">
        <ele>330.0</ele>
        <time>2019-06-21T09:31:56Z</time>
      </trkpt>
      <trkpt lat="41.8673310" lon="-8.6148440">
        <ele>330.0</ele>
        <time>2019-06-21T09:31:57Z</time>
      </trkpt>
      <trkpt lat="41.8673760" lon="-8.6148300">
        <ele>329.2</ele>
        <time>2019-06-21T09:31:58Z</time>
      </trkpt>
      <trkpt lat="41.8674570" lon="-8.6148360">
        <ele>328.6</ele>
        <time>2019-06-21T09:32:00Z</time>
      </trkpt>
      <trkpt lat="41.8675020" lon="-8.6148290">
        <ele>328.0</ele>
        <time>2019-06-21T09:32:01Z</time>
      </trkpt>
      <trkpt lat="41.8675890" lon="-8.6147880">
        <ele>326.8</ele>
        <time>2019-06-21T09:32:03Z</time>
      </trkpt>
      <trkpt lat="41.8676410" lon="-8.6147700">
        <ele>326.4</ele>
        <time>2019-06-21T09:32:04Z</time>
      </trkpt>
      <trkpt lat="41.8676780" lon="-8.6147510">
        <ele>325.4</ele>
        <time>2019-06-21T09:32:05Z</time>
      </trkpt>
      <trkpt lat="41.8677240" lon="-8.6147510">
        <ele>324.6</ele>
        <time>2019-06-21T09:32:06Z</time>
      </trkpt>
      <trkpt lat="41.8677690" lon="-8.6147520">
        <ele>323.4</ele>
        <time>2019-06-21T09:32:07Z</time>
      </trkpt>
      <trkpt lat="41.8678410" lon="-8.6147490">
        <ele>322.2</ele>
        <time>2019-06-21T09:32:09Z</time>
      </trkpt>
      <trkpt lat="41.8679280" lon="-8.6147440">
        <ele>320.8</ele>
        <time>2019-06-21T09:32:11Z</time>
      </trkpt>
      <trkpt lat="41.8680580" lon="-8.6147590">
        <ele>320.2</ele>
        <time>2019-06-21T09:32:13Z</time>
      </trkpt>
      <trkpt lat="41.8681270" lon="-8.6147720">
        <ele>319.6</ele>
        <time>2019-06-21T09:32:14Z</time>
      </trkpt>
      <trkpt lat="41.8681920" lon="-8.6147930">
        <ele>319.4</ele>
        <time>2019-06-21T09:32:15Z</time>
      </trkpt>
      <trkpt lat="41.8682620" lon="-8.6148060">
        <ele>320.0</ele>
        <time>2019-06-21T09:32:17Z</time>
      </trkpt>
      <trkpt lat="41.8682650" lon="-8.6148050">
        <ele>320.8</ele>
        <time>2019-06-21T09:32:19Z</time>
      </trkpt>
      <trkpt lat="41.8682810" lon="-8.6148120">
        <ele>321.0</ele>
        <time>2019-06-21T09:32:20Z</time>
      </trkpt>
      <trkpt lat="41.8683010" lon="-8.6148150">
        <ele>321.8</ele>
        <time>2019-06-21T09:32:24Z</time>
      </trkpt>
      <trkpt lat="41.8683090" lon="-8.6148180">
        <ele>322.0</ele>
        <time>2019-06-21T09:32:25Z</time>
      </trkpt>
      <trkpt lat="41.8683340" lon="-8.6148250">
        <ele>322.6</ele>
        <time>2019-06-21T09:32:28Z</time>
      </trkpt>
      <trkpt lat="41.8683470" lon="-8.6148350">
        <ele>323.0</ele>
        <time>2019-06-21T09:32:30Z</time>
      </trkpt>
      <trkpt lat="41.8683950" lon="-8.6148920">
        <ele>323.8</ele>
        <time>2019-06-21T09:32:35Z</time>
      </trkpt>
      <trkpt lat="41.8684110" lon="-8.6149190">
        <ele>323.6</ele>
        <time>2019-06-21T09:32:37Z</time>
      </trkpt>
      <trkpt lat="41.8684310" lon="-8.6149410">
        <ele>324.0</ele>
        <time>2019-06-21T09:32:41Z</time>
      </trkpt>
      <trkpt lat="41.8684370" lon="-8.6149460">
        <ele>324.2</ele>
        <time>2019-06-21T09:32:42Z</time>
      </trkpt>
      <trkpt lat="41.8684600" lon="-8.6149780">
        <ele>324.6</ele>
        <time>2019-06-21T09:32:49Z</time>
      </trkpt>
      <trkpt lat="41.8684630" lon="-8.6149820">
        <ele>324.6</ele>
        <time>2019-06-21T09:32:50Z</time>
      </trkpt>
      <trkpt lat="41.8684630" lon="-8.6149820">
        <ele>324.4</ele>
        <time>2019-06-21T09:33:05Z</time>
      </trkpt>
      <trkpt lat="41.8684630" lon="-8.6149820">
        <ele>324.6</ele>
        <time>2019-06-21T09:33:08Z</time>
      </trkpt>
      <trkpt lat="41.8684630" lon="-8.6149820">
        <ele>324.4</ele>
        <time>2019-06-21T09:33:12Z</time>
      </trkpt>
      <trkpt lat="41.8684670" lon="-8.6149810">
        <ele>324.6</ele>
        <time>2019-06-21T09:33:15Z</time>
      </trkpt>
      <trkpt lat="41.8684930" lon="-8.6149850">
        <ele>324.6</ele>
        <time>2019-06-21T09:33:21Z</time>
      </trkpt>
      <trkpt lat="41.8685050" lon="-8.6149840">
        <ele>324.6</ele>
        <time>2019-06-21T09:33:22Z</time>
      </trkpt>
      <trkpt lat="41.8685270" lon="-8.6149850">
        <ele>324.8</ele>
        <time>2019-06-21T09:33:25Z</time>
      </trkpt>
      <trkpt lat="41.8685290" lon="-8.6149860">
        <ele>324.6</ele>
        <time>2019-06-21T09:33:27Z</time>
      </trkpt>
      <trkpt lat="41.8685290" lon="-8.6149860">
        <ele>324.0</ele>
        <time>2019-06-21T09:33:30Z</time>
      </trkpt>
      <trkpt lat="41.8685290" lon="-8.6149860">
        <ele>324.0</ele>
        <time>2019-06-21T09:33:35Z</time>
      </trkpt>
      <trkpt lat="41.8685290" lon="-8.6149860">
        <ele>324.2</ele>
        <time>2019-06-21T09:33:39Z</time>
      </trkpt>
      <trkpt lat="41.8685290" lon="-8.6149860">
        <ele>324.0</ele>
        <time>2019-06-21T09:33:42Z</time>
      </trkpt>
      <trkpt lat="41.8685290" lon="-8.6149860">
        <ele>324.2</ele>
        <time>2019-06-21T09:33:49Z</time>
      </trkpt>
      <trkpt lat="41.8685290" lon="-8.6149860">
        <ele>324.0</ele>
        <time>2019-06-21T09:33:59Z</time>
      </trkpt>
      <trkpt lat="41.8685260" lon="-8.6149800">
        <ele>324.4</ele>
        <time>2019-06-21T09:34:17Z</time>
      </trkpt>
      <trkpt lat="41.8685260" lon="-8.6149800">
        <ele>324.8</ele>
        <time>2019-06-21T09:34:24Z</time>
      </trkpt>
      <trkpt lat="41.8685260" lon="-8.6149800">
        <ele>325.0</ele>
        <time>2019-06-21T09:34:34Z</time>
      </trkpt>
      <trkpt lat="41.8685570" lon="-8.6149860">
        <ele>325.0</ele>
        <time>2019-06-21T09:34:36Z</time>
      </trkpt>
      <trkpt lat="41.8686030" lon="-8.6150120">
        <ele>325.2</ele>
        <time>2019-06-21T09:34:39Z</time>
      </trkpt>
      <trkpt lat="41.8686210" lon="-8.6150170">
        <ele>325.2</ele>
        <time>2019-06-21T09:34:40Z</time>
      </trkpt>
      <trkpt lat="41.8686640" lon="-8.6150160">
        <ele>325.6</ele>
        <time>2019-06-21T09:34:43Z</time>
      </trkpt>
      <trkpt lat="41.8686870" lon="-8.6150090">
        <ele>325.8</ele>
        <time>2019-06-21T09:34:46Z</time>
      </trkpt>
      <trkpt lat="41.8687060" lon="-8.6150060">
        <ele>326.2</ele>
        <time>2019-06-21T09:34:48Z</time>
      </trkpt>
      <trkpt lat="41.8687980" lon="-8.6149890">
        <ele>326.8</ele>
        <time>2019-06-21T09:34:54Z</time>
      </trkpt>
      <trkpt lat="41.8688670" lon="-8.6149920">
        <ele>327.4</ele>
        <time>2019-06-21T09:34:57Z</time>
      </trkpt>
      <trkpt lat="41.8689210" lon="-8.6149770">
        <ele>327.8</ele>
        <time>2019-06-21T09:35:00Z</time>
      </trkpt>
      <trkpt lat="41.8689240" lon="-8.6149760">
        <ele>328.4</ele>
        <time>2019-06-21T09:35:03Z</time>
      </trkpt>
      <trkpt lat="41.8689380" lon="-8.6149730">
        <ele>328.4</ele>
        <time>2019-06-21T09:35:04Z</time>
      </trkpt>
      <trkpt lat="41.8689790" lon="-8.6149630">
        <ele>328.8</ele>
        <time>2019-06-21T09:35:06Z</time>
      </trkpt>
      <trkpt lat="41.8690560" lon="-8.6149200">
        <ele>329.2</ele>
        <time>2019-06-21T09:35:10Z</time>
      </trkpt>
      <trkpt lat="41.8691140" lon="-8.6148450">
        <ele>329.2</ele>
        <time>2019-06-21T09:35:14Z</time>
      </trkpt>
      <trkpt lat="41.8691340" lon="-8.6148090">
        <ele>329.2</ele>
        <time>2019-06-21T09:35:16Z</time>
      </trkpt>
      <trkpt lat="41.8692050" lon="-8.6147490">
        <ele>329.2</ele>
        <time>2019-06-21T09:35:20Z</time>
      </trkpt>
      <trkpt lat="41.8692560" lon="-8.6147410">
        <ele>329.4</ele>
        <time>2019-06-21T09:35:22Z</time>
      </trkpt>
      <trkpt lat="41.8693520" lon="-8.6147180">
        <ele>330.2</ele>
        <time>2019-06-21T09:35:28Z</time>
      </trkpt>
      <trkpt lat="41.8693900" lon="-8.6147060">
        <ele>330.4</ele>
        <time>2019-06-21T09:35:29Z</time>
      </trkpt>
      <trkpt lat="41.8695450" lon="-8.6146870">
        <ele>330.8</ele>
        <time>2019-06-21T09:35:34Z</time>
      </trkpt>
      <trkpt lat="41.8697080" lon="-8.6146410">
        <ele>330.4</ele>
        <time>2019-06-21T09:35:40Z</time>
      </trkpt>
      <trkpt lat="41.8697560" lon="-8.6146280">
        <ele>330.4</ele>
        <time>2019-06-21T09:35:42Z</time>
      </trkpt>
      <trkpt lat="41.8698650" lon="-8.6146130">
        <ele>330.2</ele>
        <time>2019-06-21T09:35:45Z</time>
      </trkpt>
      <trkpt lat="41.8700960" lon="-8.6146080">
        <ele>330.2</ele>
        <time>2019-06-21T09:35:50Z</time>
      </trkpt>
      <trkpt lat="41.8702960" lon="-8.6145890">
        <ele>330.2</ele>
        <time>2019-06-21T09:35:55Z</time>
      </trkpt>
      <trkpt lat="41.8703930" lon="-8.6145360">
        <ele>329.2</ele>
        <time>2019-06-21T09:35:57Z</time>
      </trkpt>
      <trkpt lat="41.8704910" lon="-8.6144710">
        <ele>327.6</ele>
        <time>2019-06-21T09:35:59Z</time>
      </trkpt>
      <trkpt lat="41.8705410" lon="-8.6144540">
        <ele>327.2</ele>
        <time>2019-06-21T09:36:00Z</time>
      </trkpt>
      <trkpt lat="41.8706420" lon="-8.6144670">
        <ele>326.4</ele>
        <time>2019-06-21T09:36:02Z</time>
      </trkpt>
      <trkpt lat="41.8706860" lon="-8.6144850">
        <ele>326.0</ele>
        <time>2019-06-21T09:36:03Z</time>
      </trkpt>
      <trkpt lat="41.8707760" lon="-8.6145420">
        <ele>325.0</ele>
        <time>2019-06-21T09:36:05Z</time>
      </trkpt>
      <trkpt lat="41.8708840" lon="-8.6145970">
        <ele>324.6</ele>
        <time>2019-06-21T09:36:08Z</time>
      </trkpt>
      <trkpt lat="41.8710000" lon="-8.6146370">
        <ele>324.0</ele>
        <time>2019-06-21T09:36:11Z</time>
      </trkpt>
      <trkpt lat="41.8711140" lon="-8.6146800">
        <ele>324.0</ele>
        <time>2019-06-21T09:36:14Z</time>
      </trkpt>
      <trkpt lat="41.8712300" lon="-8.6147630">
        <ele>322.8</ele>
        <time>2019-06-21T09:36:17Z</time>
      </trkpt>
      <trkpt lat="41.8713180" lon="-8.6148070">
        <ele>322.0</ele>
        <time>2019-06-21T09:36:19Z</time>
      </trkpt>
      <trkpt lat="41.8713590" lon="-8.6148240">
        <ele>321.4</ele>
        <time>2019-06-21T09:36:20Z</time>
      </trkpt>
      <trkpt lat="41.8714070" lon="-8.6148350">
        <ele>321.0</ele>
        <time>2019-06-21T09:36:21Z</time>
      </trkpt>
      <trkpt lat="41.8715050" lon="-8.6148870">
        <ele>319.6</ele>
        <time>2019-06-21T09:36:23Z</time>
      </trkpt>
      <trkpt lat="41.8715520" lon="-8.6149260">
        <ele>319.4</ele>
        <time>2019-06-21T09:36:24Z</time>
      </trkpt>
      <trkpt lat="41.8716330" lon="-8.6150160">
        <ele>319.0</ele>
        <time>2019-06-21T09:36:26Z</time>
      </trkpt>
      <trkpt lat="41.8717230" lon="-8.6150870">
        <ele>318.6</ele>
        <time>2019-06-21T09:36:28Z</time>
      </trkpt>
      <trkpt lat="41.8717750" lon="-8.6151110">
        <ele>318.2</ele>
        <time>2019-06-21T09:36:29Z</time>
      </trkpt>
      <trkpt lat="41.8719410" lon="-8.6151610">
        <ele>317.6</ele>
        <time>2019-06-21T09:36:32Z</time>
      </trkpt>
      <trkpt lat="41.8719940" lon="-8.6151840">
        <ele>317.4</ele>
        <time>2019-06-21T09:36:33Z</time>
      </trkpt>
      <trkpt lat="41.8721430" lon="-8.6152480">
        <ele>317.0</ele>
        <time>2019-06-21T09:36:36Z</time>
      </trkpt>
      <trkpt lat="41.8723080" lon="-8.6153060">
        <ele>316.2</ele>
        <time>2019-06-21T09:36:39Z</time>
      </trkpt>
      <trkpt lat="41.8723750" lon="-8.6153210">
        <ele>316.0</ele>
        <time>2019-06-21T09:36:40Z</time>
      </trkpt>
      <trkpt lat="41.8725110" lon="-8.6153640">
        <ele>314.6</ele>
        <time>2019-06-21T09:36:42Z</time>
      </trkpt>
      <trkpt lat="41.8725710" lon="-8.6154040">
        <ele>314.2</ele>
        <time>2019-06-21T09:36:43Z</time>
      </trkpt>
      <trkpt lat="41.8727260" lon="-8.6155540">
        <ele>313.4</ele>
        <time>2019-06-21T09:36:46Z</time>
      </trkpt>
      <trkpt lat="41.8727720" lon="-8.6156090">
        <ele>313.4</ele>
        <time>2019-06-21T09:36:47Z</time>
      </trkpt>
      <trkpt lat="41.8729700" lon="-8.6158150">
        <ele>312.8</ele>
        <time>2019-06-21T09:36:52Z</time>
      </trkpt>
      <trkpt lat="41.8730210" lon="-8.6158530">
        <ele>312.2</ele>
        <time>2019-06-21T09:36:53Z</time>
      </trkpt>
      <trkpt lat="41.8731100" lon="-8.6159230">
        <ele>311.0</ele>
        <time>2019-06-21T09:36:55Z</time>
      </trkpt>
      <trkpt lat="41.8731390" lon="-8.6159650">
        <ele>310.6</ele>
        <time>2019-06-21T09:36:56Z</time>
      </trkpt>
      <trkpt lat="41.8731660" lon="-8.6160180">
        <ele>310.0</ele>
        <time>2019-06-21T09:36:57Z</time>
      </trkpt>
      <trkpt lat="41.8732370" lon="-8.6162080">
        <ele>308.8</ele>
        <time>2019-06-21T09:37:00Z</time>
      </trkpt>
      <trkpt lat="41.8732740" lon="-8.6162610">
        <ele>308.8</ele>
        <time>2019-06-21T09:37:01Z</time>
      </trkpt>
      <trkpt lat="41.8733900" lon="-8.6163810">
        <ele>308.4</ele>
        <time>2019-06-21T09:37:04Z</time>
      </trkpt>
      <trkpt lat="41.8734190" lon="-8.6164040">
        <ele>308.2</ele>
        <time>2019-06-21T09:37:05Z</time>
      </trkpt>
      <trkpt lat="41.8734690" lon="-8.6164470">
        <ele>307.8</ele>
        <time>2019-06-21T09:37:07Z</time>
      </trkpt>
      <trkpt lat="41.8735520" lon="-8.6165200">
        <ele>307.2</ele>
        <time>2019-06-21T09:37:10Z</time>
      </trkpt>
      <trkpt lat="41.8735810" lon="-8.6165520">
        <ele>306.6</ele>
        <time>2019-06-21T09:37:11Z</time>
      </trkpt>
      <trkpt lat="41.8736460" lon="-8.6166350">
        <ele>305.6</ele>
        <time>2019-06-21T09:37:13Z</time>
      </trkpt>
      <trkpt lat="41.8736690" lon="-8.6166920">
        <ele>305.0</ele>
        <time>2019-06-21T09:37:14Z</time>
      </trkpt>
      <trkpt lat="41.8736920" lon="-8.6167490">
        <ele>304.4</ele>
        <time>2019-06-21T09:37:15Z</time>
      </trkpt>
      <trkpt lat="41.8737610" lon="-8.6169280">
        <ele>302.8</ele>
        <time>2019-06-21T09:37:18Z</time>
      </trkpt>
      <trkpt lat="41.8738170" lon="-8.6170220">
        <ele>302.0</ele>
        <time>2019-06-21T09:37:20Z</time>
      </trkpt>
      <trkpt lat="41.8738450" lon="-8.6170520">
        <ele>301.6</ele>
        <time>2019-06-21T09:37:21Z</time>
      </trkpt>
      <trkpt lat="41.8739880" lon="-8.6171960">
        <ele>300.2</ele>
        <time>2019-06-21T09:37:25Z</time>
      </trkpt>
      <trkpt lat="41.8740270" lon="-8.6172440">
        <ele>299.6</ele>
        <time>2019-06-21T09:37:26Z</time>
      </trkpt>
      <trkpt lat="41.8740630" lon="-8.6172910">
        <ele>299.2</ele>
        <time>2019-06-21T09:37:27Z</time>
      </trkpt>
      <trkpt lat="41.8740980" lon="-8.6173470">
        <ele>298.8</ele>
        <time>2019-06-21T09:37:28Z</time>
      </trkpt>
      <trkpt lat="41.8741700" lon="-8.6174620">
        <ele>297.4</ele>
        <time>2019-06-21T09:37:30Z</time>
      </trkpt>
      <trkpt lat="41.8742400" lon="-8.6175780">
        <ele>296.0</ele>
        <time>2019-06-21T09:37:32Z</time>
      </trkpt>
      <trkpt lat="41.8742900" lon="-8.6176230">
        <ele>295.2</ele>
        <time>2019-06-21T09:37:33Z</time>
      </trkpt>
      <trkpt lat="41.8743420" lon="-8.6176730">
        <ele>293.8</ele>
        <time>2019-06-21T09:37:34Z</time>
      </trkpt>
      <trkpt lat="41.8745180" lon="-8.6178270">
        <ele>292.4</ele>
        <time>2019-06-21T09:37:37Z</time>
      </trkpt>
      <trkpt lat="41.8745750" lon="-8.6178740">
        <ele>291.8</ele>
        <time>2019-06-21T09:37:38Z</time>
      </trkpt>
      <trkpt lat="41.8747320" lon="-8.6180140">
        <ele>291.4</ele>
        <time>2019-06-21T09:37:41Z</time>
      </trkpt>
      <trkpt lat="41.8748530" lon="-8.6181580">
        <ele>290.6</ele>
        <time>2019-06-21T09:37:44Z</time>
      </trkpt>
      <trkpt lat="41.8749160" lon="-8.6182410">
        <ele>290.2</ele>
        <time>2019-06-21T09:37:46Z</time>
      </trkpt>
      <trkpt lat="41.8749500" lon="-8.6182700">
        <ele>289.8</ele>
        <time>2019-06-21T09:37:47Z</time>
      </trkpt>
      <trkpt lat="41.8750220" lon="-8.6183230">
        <ele>289.2</ele>
        <time>2019-06-21T09:37:49Z</time>
      </trkpt>
      <trkpt lat="41.8750590" lon="-8.6183460">
        <ele>289.0</ele>
        <time>2019-06-21T09:37:50Z</time>
      </trkpt>
      <trkpt lat="41.8751340" lon="-8.6183880">
        <ele>289.2</ele>
        <time>2019-06-21T09:37:52Z</time>
      </trkpt>
      <trkpt lat="41.8752380" lon="-8.6184550">
        <ele>289.0</ele>
        <time>2019-06-21T09:37:55Z</time>
      </trkpt>
      <trkpt lat="41.8753120" lon="-8.6184980">
        <ele>288.8</ele>
        <time>2019-06-21T09:37:57Z</time>
      </trkpt>
      <trkpt lat="41.8754980" lon="-8.6185630">
        <ele>288.8</ele>
        <time>2019-06-21T09:38:02Z</time>
      </trkpt>
      <trkpt lat="41.8757850" lon="-8.6186490">
        <ele>288.8</ele>
        <time>2019-06-21T09:38:10Z</time>
      </trkpt>
      <trkpt lat="41.8759010" lon="-8.6186960">
        <ele>288.0</ele>
        <time>2019-06-21T09:38:13Z</time>
      </trkpt>
      <trkpt lat="41.8760200" lon="-8.6187380">
        <ele>288.4</ele>
        <time>2019-06-21T09:38:16Z</time>
      </trkpt>
      <trkpt lat="41.8760580" lon="-8.6187500">
        <ele>288.2</ele>
        <time>2019-06-21T09:38:17Z</time>
      </trkpt>
      <trkpt lat="41.8763040" lon="-8.6188340">
        <ele>286.6</ele>
        <time>2019-06-21T09:38:22Z</time>
      </trkpt>
      <trkpt lat="41.8763620" lon="-8.6188470">
        <ele>285.8</ele>
        <time>2019-06-21T09:38:23Z</time>
      </trkpt>
      <trkpt lat="41.8764840" lon="-8.6188610">
        <ele>285.2</ele>
        <time>2019-06-21T09:38:25Z</time>
      </trkpt>
      <trkpt lat="41.8766070" lon="-8.6188460">
        <ele>284.4</ele>
        <time>2019-06-21T09:38:27Z</time>
      </trkpt>
      <trkpt lat="41.8766610" lon="-8.6188370">
        <ele>283.6</ele>
        <time>2019-06-21T09:38:28Z</time>
      </trkpt>
      <trkpt lat="41.8767610" lon="-8.6188250">
        <ele>282.6</ele>
        <time>2019-06-21T09:38:30Z</time>
      </trkpt>
      <trkpt lat="41.8768610" lon="-8.6188320">
        <ele>282.2</ele>
        <time>2019-06-21T09:38:32Z</time>
      </trkpt>
      <trkpt lat="41.8769080" lon="-8.6188370">
        <ele>281.6</ele>
        <time>2019-06-21T09:38:33Z</time>
      </trkpt>
      <trkpt lat="41.8769790" lon="-8.6188470">
        <ele>280.4</ele>
        <time>2019-06-21T09:38:35Z</time>
      </trkpt>
      <trkpt lat="41.8770240" lon="-8.6188530">
        <ele>279.8</ele>
        <time>2019-06-21T09:38:37Z</time>
      </trkpt>
      <trkpt lat="41.8770610" lon="-8.6188270">
        <ele>279.8</ele>
        <time>2019-06-21T09:38:39Z</time>
      </trkpt>
      <trkpt lat="41.8771080" lon="-8.6188000">
        <ele>279.6</ele>
        <time>2019-06-21T09:38:41Z</time>
      </trkpt>
      <trkpt lat="41.8771990" lon="-8.6187820">
        <ele>278.8</ele>
        <time>2019-06-21T09:38:43Z</time>
      </trkpt>
      <trkpt lat="41.8772530" lon="-8.6187830">
        <ele>278.6</ele>
        <time>2019-06-21T09:38:44Z</time>
      </trkpt>
      <trkpt lat="41.8774350" lon="-8.6187780">
        <ele>277.4</ele>
        <time>2019-06-21T09:38:47Z</time>
      </trkpt>
      <trkpt lat="41.8776280" lon="-8.6187670">
        <ele>276.8</ele>
        <time>2019-06-21T09:38:50Z</time>
      </trkpt>
      <trkpt lat="41.8776930" lon="-8.6187660">
        <ele>276.2</ele>
        <time>2019-06-21T09:38:51Z</time>
      </trkpt>
      <trkpt lat="41.8781260" lon="-8.6187420">
        <ele>275.4</ele>
        <time>2019-06-21T09:38:58Z</time>
      </trkpt>
      <trkpt lat="41.8781730" lon="-8.6187520">
        <ele>275.4</ele>
        <time>2019-06-21T09:38:59Z</time>
      </trkpt>
      <trkpt lat="41.8782220" lon="-8.6187660">
        <ele>275.2</ele>
        <time>2019-06-21T09:39:00Z</time>
      </trkpt>
      <trkpt lat="41.8783070" lon="-8.6188310">
        <ele>275.2</ele>
        <time>2019-06-21T09:39:02Z</time>
      </trkpt>
      <trkpt lat="41.8783810" lon="-8.6189010">
        <ele>275.0</ele>
        <time>2019-06-21T09:39:04Z</time>
      </trkpt>
      <trkpt lat="41.8784500" lon="-8.6189740">
        <ele>275.2</ele>
        <time>2019-06-21T09:39:06Z</time>
      </trkpt>
      <trkpt lat="41.8785120" lon="-8.6190460">
        <ele>275.0</ele>
        <time>2019-06-21T09:39:08Z</time>
      </trkpt>
      <trkpt lat="41.8786130" lon="-8.6191190">
        <ele>275.2</ele>
        <time>2019-06-21T09:39:11Z</time>
      </trkpt>
      <trkpt lat="41.8786750" lon="-8.6191550">
        <ele>276.0</ele>
        <time>2019-06-21T09:39:13Z</time>
      </trkpt>
      <trkpt lat="41.8787660" lon="-8.6191980">
        <ele>275.8</ele>
        <time>2019-06-21T09:39:16Z</time>
      </trkpt>
      <trkpt lat="41.8788120" lon="-8.6192110">
        <ele>276.4</ele>
        <time>2019-06-21T09:39:18Z</time>
      </trkpt>
      <trkpt lat="41.8788390" lon="-8.6192180">
        <ele>276.4</ele>
        <time>2019-06-21T09:39:19Z</time>
      </trkpt>
      <trkpt lat="41.8789200" lon="-8.6192250">
        <ele>276.8</ele>
        <time>2019-06-21T09:39:22Z</time>
      </trkpt>
      <trkpt lat="41.8790320" lon="-8.6192270">
        <ele>277.4</ele>
        <time>2019-06-21T09:39:26Z</time>
      </trkpt>
      <trkpt lat="41.8792190" lon="-8.6192760">
        <ele>276.0</ele>
        <time>2019-06-21T09:39:31Z</time>
      </trkpt>
      <trkpt lat="41.8793410" lon="-8.6192810">
        <ele>275.2</ele>
        <time>2019-06-21T09:39:33Z</time>
      </trkpt>
      <trkpt lat="41.8794610" lon="-8.6192520">
        <ele>274.8</ele>
        <time>2019-06-21T09:39:35Z</time>
      </trkpt>
      <trkpt lat="41.8796490" lon="-8.6192020">
        <ele>274.0</ele>
        <time>2019-06-21T09:39:39Z</time>
      </trkpt>
      <trkpt lat="41.8796900" lon="-8.6191880">
        <ele>274.0</ele>
        <time>2019-06-21T09:39:40Z</time>
      </trkpt>
      <trkpt lat="41.8799140" lon="-8.6191780">
        <ele>272.8</ele>
        <time>2019-06-21T09:39:46Z</time>
      </trkpt>
      <trkpt lat="41.8799970" lon="-8.6191700">
        <ele>272.0</ele>
        <time>2019-06-21T09:39:51Z</time>
      </trkpt>
      <trkpt lat="41.8801530" lon="-8.6191590">
        <ele>273.0</ele>
        <time>2019-06-21T09:39:58Z</time>
      </trkpt>
      <trkpt lat="41.8803440" lon="-8.6192160">
        <ele>272.0</ele>
        <time>2019-06-21T09:40:03Z</time>
      </trkpt>
      <trkpt lat="41.8803930" lon="-8.6192380">
        <ele>271.8</ele>
        <time>2019-06-21T09:40:04Z</time>
      </trkpt>
      <trkpt lat="41.8805350" lon="-8.6193190">
        <ele>271.2</ele>
        <time>2019-06-21T09:40:07Z</time>
      </trkpt>
      <trkpt lat="41.8806260" lon="-8.6193800">
        <ele>270.4</ele>
        <time>2019-06-21T09:40:09Z</time>
      </trkpt>
      <trkpt lat="41.8808350" lon="-8.6195140">
        <ele>269.4</ele>
        <time>2019-06-21T09:40:13Z</time>
      </trkpt>
      <trkpt lat="41.8809450" lon="-8.6195800">
        <ele>269.2</ele>
        <time>2019-06-21T09:40:15Z</time>
      </trkpt>
      <trkpt lat="41.8811460" lon="-8.6197000">
        <ele>269.2</ele>
        <time>2019-06-21T09:40:19Z</time>
      </trkpt>
      <trkpt lat="41.8812740" lon="-8.6198030">
        <ele>268.8</ele>
        <time>2019-06-21T09:40:22Z</time>
      </trkpt>
      <trkpt lat="41.8814570" lon="-8.6200310">
        <ele>268.6</ele>
        <time>2019-06-21T09:40:28Z</time>
      </trkpt>
      <trkpt lat="41.8816600" lon="-8.6202420">
        <ele>268.2</ele>
        <time>2019-06-21T09:40:35Z</time>
      </trkpt>
      <trkpt lat="41.8817430" lon="-8.6203130">
        <ele>267.2</ele>
        <time>2019-06-21T09:40:37Z</time>
      </trkpt>
      <trkpt lat="41.8818800" lon="-8.6204200">
        <ele>267.4</ele>
        <time>2019-06-21T09:40:40Z</time>
      </trkpt>
      <trkpt lat="41.8820090" lon="-8.6205120">
        <ele>266.2</ele>
        <time>2019-06-21T09:40:43Z</time>
      </trkpt>
      <trkpt lat="41.8820510" lon="-8.6205440">
        <ele>266.2</ele>
        <time>2019-06-21T09:40:44Z</time>
      </trkpt>
      <trkpt lat="41.8822130" lon="-8.6206770">
        <ele>266.0</ele>
        <time>2019-06-21T09:40:48Z</time>
      </trkpt>
      <trkpt lat="41.8822950" lon="-8.6207180">
        <ele>265.8</ele>
        <time>2019-06-21T09:40:50Z</time>
      </trkpt>
      <trkpt lat="41.8824240" lon="-8.6207230">
        <ele>265.6</ele>
        <time>2019-06-21T09:40:53Z</time>
      </trkpt>
      <trkpt lat="41.8825130" lon="-8.6207100">
        <ele>265.4</ele>
        <time>2019-06-21T09:40:55Z</time>
      </trkpt>
      <trkpt lat="41.8826980" lon="-8.6206760">
        <ele>265.4</ele>
        <time>2019-06-21T09:40:59Z</time>
      </trkpt>
      <trkpt lat="41.8828580" lon="-8.6206480">
        <ele>265.2</ele>
        <time>2019-06-21T09:41:03Z</time>
      </trkpt>
      <trkpt lat="41.8828950" lon="-8.6206270">
        <ele>265.0</ele>
        <time>2019-06-21T09:41:04Z</time>
      </trkpt>
      <trkpt lat="41.8831090" lon="-8.6204590">
        <ele>265.0</ele>
        <time>2019-06-21T09:41:10Z</time>
      </trkpt>
      <trkpt lat="41.8833150" lon="-8.6203070">
        <ele>264.8</ele>
        <time>2019-06-21T09:41:16Z</time>
      </trkpt>
      <trkpt lat="41.8834110" lon="-8.6202460">
        <ele>263.8</ele>
        <time>2019-06-21T09:41:19Z</time>
      </trkpt>
      <trkpt lat="41.8834920" lon="-8.6202050">
        <ele>263.0</ele>
        <time>2019-06-21T09:41:21Z</time>
      </trkpt>
      <trkpt lat="41.8835640" lon="-8.6201850">
        <ele>262.6</ele>
        <time>2019-06-21T09:41:23Z</time>
      </trkpt>
      <trkpt lat="41.8836540" lon="-8.6201650">
        <ele>261.8</ele>
        <time>2019-06-21T09:41:26Z</time>
      </trkpt>
      <trkpt lat="41.8836990" lon="-8.6201480">
        <ele>261.0</ele>
        <time>2019-06-21T09:41:28Z</time>
      </trkpt>
      <trkpt lat="41.8837480" lon="-8.6201190">
        <ele>260.0</ele>
        <time>2019-06-21T09:41:30Z</time>
      </trkpt>
      <trkpt lat="41.8837880" lon="-8.6200950">
        <ele>258.8</ele>
        <time>2019-06-21T09:41:32Z</time>
      </trkpt>
      <trkpt lat="41.8838360" lon="-8.6200640">
        <ele>257.8</ele>
        <time>2019-06-21T09:41:34Z</time>
      </trkpt>
      <trkpt lat="41.8838650" lon="-8.6200540">
        <ele>256.4</ele>
        <time>2019-06-21T09:41:35Z</time>
      </trkpt>
      <trkpt lat="41.8839310" lon="-8.6200320">
        <ele>255.4</ele>
        <time>2019-06-21T09:41:37Z</time>
      </trkpt>
      <trkpt lat="41.8839590" lon="-8.6200160">
        <ele>254.8</ele>
        <time>2019-06-21T09:41:38Z</time>
      </trkpt>
      <trkpt lat="41.8839870" lon="-8.6199990">
        <ele>254.2</ele>
        <time>2019-06-21T09:41:39Z</time>
      </trkpt>
      <trkpt lat="41.8840060" lon="-8.6199670">
        <ele>253.8</ele>
        <time>2019-06-21T09:41:40Z</time>
      </trkpt>
      <trkpt lat="41.8840690" lon="-8.6199300">
        <ele>252.8</ele>
        <time>2019-06-21T09:41:42Z</time>
      </trkpt>
      <trkpt lat="41.8841400" lon="-8.6198820">
        <ele>251.2</ele>
        <time>2019-06-21T09:41:44Z</time>
      </trkpt>
      <trkpt lat="41.8842090" lon="-8.6197640">
        <ele>250.6</ele>
        <time>2019-06-21T09:41:47Z</time>
      </trkpt>
      <trkpt lat="41.8842160" lon="-8.6197130">
        <ele>250.2</ele>
        <time>2019-06-21T09:41:48Z</time>
      </trkpt>
      <trkpt lat="41.8842250" lon="-8.6196630">
        <ele>249.8</ele>
        <time>2019-06-21T09:41:49Z</time>
      </trkpt>
      <trkpt lat="41.8842760" lon="-8.6195300">
        <ele>249.4</ele>
        <time>2019-06-21T09:41:52Z</time>
      </trkpt>
      <trkpt lat="41.8843020" lon="-8.6195210">
        <ele>249.4</ele>
        <time>2019-06-21T09:41:53Z</time>
      </trkpt>
      <trkpt lat="41.8843460" lon="-8.6195110">
        <ele>249.4</ele>
        <time>2019-06-21T09:41:55Z</time>
      </trkpt>
      <trkpt lat="41.8844500" lon="-8.6195720">
        <ele>249.6</ele>
        <time>2019-06-21T09:41:59Z</time>
      </trkpt>
      <trkpt lat="41.8845670" lon="-8.6195600">
        <ele>250.2</ele>
        <time>2019-06-21T09:42:04Z</time>
      </trkpt>
      <trkpt lat="41.8845860" lon="-8.6195540">
        <ele>250.6</ele>
        <time>2019-06-21T09:42:05Z</time>
      </trkpt>
      <trkpt lat="41.8846260" lon="-8.6195300">
        <ele>251.2</ele>
        <time>2019-06-21T09:42:08Z</time>
      </trkpt>
      <trkpt lat="41.8846400" lon="-8.6195240">
        <ele>251.4</ele>
        <time>2019-06-21T09:42:09Z</time>
      </trkpt>
      <trkpt lat="41.8846500" lon="-8.6195150">
        <ele>251.6</ele>
        <time>2019-06-21T09:42:10Z</time>
      </trkpt>
      <trkpt lat="41.8846690" lon="-8.6195010">
        <ele>252.0</ele>
        <time>2019-06-21T09:42:12Z</time>
      </trkpt>
      <trkpt lat="41.8846970" lon="-8.6194760">
        <ele>252.6</ele>
        <time>2019-06-21T09:42:15Z</time>
      </trkpt>
      <trkpt lat="41.8847350" lon="-8.6194660">
        <ele>253.2</ele>
        <time>2019-06-21T09:42:18Z</time>
      </trkpt>
      <trkpt lat="41.8847420" lon="-8.6194550">
        <ele>253.6</ele>
        <time>2019-06-21T09:42:19Z</time>
      </trkpt>
      <trkpt lat="41.8847870" lon="-8.6194490">
        <ele>254.6</ele>
        <time>2019-06-21T09:42:23Z</time>
      </trkpt>
      <trkpt lat="41.8847980" lon="-8.6194480">
        <ele>254.6</ele>
        <time>2019-06-21T09:42:24Z</time>
      </trkpt>
      <trkpt lat="41.8848260" lon="-8.6194500">
        <ele>254.8</ele>
        <time>2019-06-21T09:42:26Z</time>
      </trkpt>
      <trkpt lat="41.8848710" lon="-8.6194550">
        <ele>255.0</ele>
        <time>2019-06-21T09:42:29Z</time>
      </trkpt>
      <trkpt lat="41.8849050" lon="-8.6194570">
        <ele>255.2</ele>
        <time>2019-06-21T09:42:31Z</time>
      </trkpt>
      <trkpt lat="41.8849860" lon="-8.6194930">
        <ele>255.4</ele>
        <time>2019-06-21T09:42:36Z</time>
      </trkpt>
      <trkpt lat="41.8850390" lon="-8.6195490">
        <ele>255.6</ele>
        <time>2019-06-21T09:42:40Z</time>
      </trkpt>
      <trkpt lat="41.8850680" lon="-8.6195670">
        <ele>255.8</ele>
        <time>2019-06-21T09:42:42Z</time>
      </trkpt>
      <trkpt lat="41.8850800" lon="-8.6195780">
        <ele>255.8</ele>
        <time>2019-06-21T09:42:43Z</time>
      </trkpt>
      <trkpt lat="41.8851420" lon="-8.6196240">
        <ele>256.2</ele>
        <time>2019-06-21T09:42:49Z</time>
      </trkpt>
      <trkpt lat="41.8852380" lon="-8.6197330">
        <ele>256.4</ele>
        <time>2019-06-21T09:42:57Z</time>
      </trkpt>
      <trkpt lat="41.8852590" lon="-8.6197600">
        <ele>256.8</ele>
        <time>2019-06-21T09:42:59Z</time>
      </trkpt>
      <trkpt lat="41.8853180" lon="-8.6198770">
        <ele>257.0</ele>
        <time>2019-06-21T09:43:05Z</time>
      </trkpt>
      <trkpt lat="41.8853740" lon="-8.6200080">
        <ele>258.0</ele>
        <time>2019-06-21T09:43:11Z</time>
      </trkpt>
      <trkpt lat="41.8853800" lon="-8.6200240">
        <ele>258.2</ele>
        <time>2019-06-21T09:43:12Z</time>
      </trkpt>
      <trkpt lat="41.8854110" lon="-8.6202000">
        <ele>258.6</ele>
        <time>2019-06-21T09:43:19Z</time>
      </trkpt>
      <trkpt lat="41.8854300" lon="-8.6204640">
        <ele>258.8</ele>
        <time>2019-06-21T09:43:27Z</time>
      </trkpt>
      <trkpt lat="41.8854420" lon="-8.6205950">
        <ele>259.0</ele>
        <time>2019-06-21T09:43:31Z</time>
      </trkpt>
      <trkpt lat="41.8854480" lon="-8.6207240">
        <ele>259.0</ele>
        <time>2019-06-21T09:43:35Z</time>
      </trkpt>
      <trkpt lat="41.8854890" lon="-8.6209870">
        <ele>259.2</ele>
        <time>2019-06-21T09:43:42Z</time>
      </trkpt>
      <trkpt lat="41.8856000" lon="-8.6212460">
        <ele>259.2</ele>
        <time>2019-06-21T09:43:49Z</time>
      </trkpt>
      <trkpt lat="41.8856820" lon="-8.6215170">
        <ele>259.6</ele>
        <time>2019-06-21T09:43:56Z</time>
      </trkpt>
      <trkpt lat="41.8858250" lon="-8.6218780">
        <ele>260.0</ele>
        <time>2019-06-21T09:44:06Z</time>
      </trkpt>
      <trkpt lat="41.8859920" lon="-8.6219720">
        <ele>260.4</ele>
        <time>2019-06-21T09:44:12Z</time>
      </trkpt>
      <trkpt lat="41.8861760" lon="-8.6220460">
        <ele>261.4</ele>
        <time>2019-06-21T09:44:19Z</time>
      </trkpt>
      <trkpt lat="41.8863090" lon="-8.6221110">
        <ele>262.0</ele>
        <time>2019-06-21T09:44:25Z</time>
      </trkpt>
      <trkpt lat="41.8864340" lon="-8.6222320">
        <ele>262.4</ele>
        <time>2019-06-21T09:44:30Z</time>
      </trkpt>
      <trkpt lat="41.8864780" lon="-8.6222770">
        <ele>262.4</ele>
        <time>2019-06-21T09:44:32Z</time>
      </trkpt>
      <trkpt lat="41.8866170" lon="-8.6224110">
        <ele>263.4</ele>
        <time>2019-06-21T09:44:39Z</time>
      </trkpt>
      <trkpt lat="41.8866290" lon="-8.6224160">
        <ele>263.4</ele>
        <time>2019-06-21T09:44:40Z</time>
      </trkpt>
      <trkpt lat="41.8867020" lon="-8.6224860">
        <ele>264.4</ele>
        <time>2019-06-21T09:44:46Z</time>
      </trkpt>
      <trkpt lat="41.8867170" lon="-8.6224980">
        <ele>264.8</ele>
        <time>2019-06-21T09:44:47Z</time>
      </trkpt>
      <trkpt lat="41.8867610" lon="-8.6225680">
        <ele>266.0</ele>
        <time>2019-06-21T09:44:52Z</time>
      </trkpt>
      <trkpt lat="41.8867740" lon="-8.6226130">
        <ele>266.0</ele>
        <time>2019-06-21T09:44:54Z</time>
      </trkpt>
      <trkpt lat="41.8868370" lon="-8.6227410">
        <ele>266.6</ele>
        <time>2019-06-21T09:45:01Z</time>
      </trkpt>
      <trkpt lat="41.8868770" lon="-8.6228330">
        <ele>267.0</ele>
        <time>2019-06-21T09:45:06Z</time>
      </trkpt>
      <trkpt lat="41.8869080" lon="-8.6228760">
        <ele>267.6</ele>
        <time>2019-06-21T09:45:09Z</time>
      </trkpt>
      <trkpt lat="41.8869290" lon="-8.6229050">
        <ele>268.0</ele>
        <time>2019-06-21T09:45:11Z</time>
      </trkpt>
      <trkpt lat="41.8870220" lon="-8.6230090">
        <ele>268.8</ele>
        <time>2019-06-21T09:45:18Z</time>
      </trkpt>
      <trkpt lat="41.8870490" lon="-8.6230340">
        <ele>269.4</ele>
        <time>2019-06-21T09:45:20Z</time>
      </trkpt>
      <trkpt lat="41.8871160" lon="-8.6231330">
        <ele>270.6</ele>
        <time>2019-06-21T09:45:26Z</time>
      </trkpt>
      <trkpt lat="41.8871240" lon="-8.6231520">
        <ele>270.8</ele>
        <time>2019-06-21T09:45:27Z</time>
      </trkpt>
      <trkpt lat="41.8871670" lon="-8.6232470">
        <ele>271.4</ele>
        <time>2019-06-21T09:45:32Z</time>
      </trkpt>
      <trkpt lat="41.8871730" lon="-8.6232610">
        <ele>271.8</ele>
        <time>2019-06-21T09:45:33Z</time>
      </trkpt>
      <trkpt lat="41.8871830" lon="-8.6233010">
        <ele>272.8</ele>
        <time>2019-06-21T09:45:35Z</time>
      </trkpt>
      <trkpt lat="41.8872120" lon="-8.6233640">
        <ele>273.2</ele>
        <time>2019-06-21T09:45:39Z</time>
      </trkpt>
      <trkpt lat="41.8872310" lon="-8.6233940">
        <ele>273.4</ele>
        <time>2019-06-21T09:45:41Z</time>
      </trkpt>
      <trkpt lat="41.8872570" lon="-8.6234020">
        <ele>273.6</ele>
        <time>2019-06-21T09:45:43Z</time>
      </trkpt>
      <trkpt lat="41.8872860" lon="-8.6234160">
        <ele>273.8</ele>
        <time>2019-06-21T09:45:45Z</time>
      </trkpt>
      <trkpt lat="41.8872960" lon="-8.6234310">
        <ele>274.0</ele>
        <time>2019-06-21T09:45:46Z</time>
      </trkpt>
      <trkpt lat="41.8873050" lon="-8.6234610">
        <ele>274.0</ele>
        <time>2019-06-21T09:45:47Z</time>
      </trkpt>
      <trkpt lat="41.8873770" lon="-8.6235680">
        <ele>274.0</ele>
        <time>2019-06-21T09:45:51Z</time>
      </trkpt>
      <trkpt lat="41.8874400" lon="-8.6236750">
        <ele>273.8</ele>
        <time>2019-06-21T09:45:56Z</time>
      </trkpt>
      <trkpt lat="41.8874700" lon="-8.6236930">
        <ele>274.4</ele>
        <time>2019-06-21T09:45:59Z</time>
      </trkpt>
      <trkpt lat="41.8874940" lon="-8.6237110">
        <ele>275.2</ele>
        <time>2019-06-21T09:46:01Z</time>
      </trkpt>
      <trkpt lat="41.8875040" lon="-8.6237190">
        <ele>275.4</ele>
        <time>2019-06-21T09:46:02Z</time>
      </trkpt>
      <trkpt lat="41.8875220" lon="-8.6237280">
        <ele>275.6</ele>
        <time>2019-06-21T09:46:04Z</time>
      </trkpt>
      <trkpt lat="41.8875590" lon="-8.6237680">
        <ele>276.2</ele>
        <time>2019-06-21T09:46:08Z</time>
      </trkpt>
      <trkpt lat="41.8876400" lon="-8.6238320">
        <ele>276.6</ele>
        <time>2019-06-21T09:46:15Z</time>
      </trkpt>
      <trkpt lat="41.8877090" lon="-8.6239140">
        <ele>277.2</ele>
        <time>2019-06-21T09:46:22Z</time>
      </trkpt>
      <trkpt lat="41.8877190" lon="-8.6239260">
        <ele>277.4</ele>
        <time>2019-06-21T09:46:23Z</time>
      </trkpt>
      <trkpt lat="41.8877660" lon="-8.6239980">
        <ele>278.4</ele>
        <time>2019-06-21T09:46:29Z</time>
      </trkpt>
      <trkpt lat="41.8878320" lon="-8.6241000">
        <ele>279.2</ele>
        <time>2019-06-21T09:46:37Z</time>
      </trkpt>
      <trkpt lat="41.8878540" lon="-8.6241460">
        <ele>279.6</ele>
        <time>2019-06-21T09:46:40Z</time>
      </trkpt>
      <trkpt lat="41.8879170" lon="-8.6242420">
        <ele>279.4</ele>
        <time>2019-06-21T09:46:45Z</time>
      </trkpt>
      <trkpt lat="41.8879830" lon="-8.6243660">
        <ele>278.6</ele>
        <time>2019-06-21T09:46:49Z</time>
      </trkpt>
      <trkpt lat="41.8880360" lon="-8.6244490">
        <ele>278.2</ele>
        <time>2019-06-21T09:46:51Z</time>
      </trkpt>
      <trkpt lat="41.8880690" lon="-8.6244970">
        <ele>277.8</ele>
        <time>2019-06-21T09:46:52Z</time>
      </trkpt>
      <trkpt lat="41.8881390" lon="-8.6246020">
        <ele>277.0</ele>
        <time>2019-06-21T09:46:54Z</time>
      </trkpt>
      <trkpt lat="41.8882310" lon="-8.6247470">
        <ele>276.0</ele>
        <time>2019-06-21T09:46:57Z</time>
      </trkpt>
      <trkpt lat="41.8882620" lon="-8.6248000">
        <ele>275.8</ele>
        <time>2019-06-21T09:46:58Z</time>
      </trkpt>
      <trkpt lat="41.8883240" lon="-8.6249400">
        <ele>274.8</ele>
        <time>2019-06-21T09:47:00Z</time>
      </trkpt>
      <trkpt lat="41.8883960" lon="-8.6250940">
        <ele>273.6</ele>
        <time>2019-06-21T09:47:02Z</time>
      </trkpt>
      <trkpt lat="41.8884330" lon="-8.6251660">
        <ele>273.2</ele>
        <time>2019-06-21T09:47:03Z</time>
      </trkpt>
      <trkpt lat="41.8884770" lon="-8.6252350">
        <ele>272.4</ele>
        <time>2019-06-21T09:47:04Z</time>
      </trkpt>
      <trkpt lat="41.8885780" lon="-8.6253470">
        <ele>270.6</ele>
        <time>2019-06-21T09:47:06Z</time>
      </trkpt>
      <trkpt lat="41.8886270" lon="-8.6253960">
        <ele>270.4</ele>
        <time>2019-06-21T09:47:07Z</time>
      </trkpt>
      <trkpt lat="41.8887050" lon="-8.6254660">
        <ele>269.2</ele>
        <time>2019-06-21T09:47:09Z</time>
      </trkpt>
      <trkpt lat="41.8887610" lon="-8.6255280">
        <ele>267.8</ele>
        <time>2019-06-21T09:47:11Z</time>
      </trkpt>
      <trkpt lat="41.8887780" lon="-8.6256310">
        <ele>266.8</ele>
        <time>2019-06-21T09:47:13Z</time>
      </trkpt>
      <trkpt lat="41.8887750" lon="-8.6256880">
        <ele>266.4</ele>
        <time>2019-06-21T09:47:14Z</time>
      </trkpt>
      <trkpt lat="41.8887580" lon="-8.6257520">
        <ele>266.2</ele>
        <time>2019-06-21T09:47:15Z</time>
      </trkpt>
      <trkpt lat="41.8887000" lon="-8.6259490">
        <ele>265.2</ele>
        <time>2019-06-21T09:47:19Z</time>
      </trkpt>
      <trkpt lat="41.8886690" lon="-8.6260660">
        <ele>264.6</ele>
        <time>2019-06-21T09:47:23Z</time>
      </trkpt>
      <trkpt lat="41.8886750" lon="-8.6260900">
        <ele>264.6</ele>
        <time>2019-06-21T09:47:24Z</time>
      </trkpt>
      <trkpt lat="41.8886900" lon="-8.6261140">
        <ele>264.4</ele>
        <time>2019-06-21T09:47:25Z</time>
      </trkpt>
      <trkpt lat="41.8887080" lon="-8.6261300">
        <ele>264.2</ele>
        <time>2019-06-21T09:47:26Z</time>
      </trkpt>
      <trkpt lat="41.8887590" lon="-8.6261510">
        <ele>263.8</ele>
        <time>2019-06-21T09:47:28Z</time>
      </trkpt>
      <trkpt lat="41.8889060" lon="-8.6261690">
        <ele>263.4</ele>
        <time>2019-06-21T09:47:32Z</time>
      </trkpt>
      <trkpt lat="41.8890000" lon="-8.6261900">
        <ele>263.0</ele>
        <time>2019-06-21T09:47:34Z</time>
      </trkpt>
      <trkpt lat="41.8891660" lon="-8.6262000">
        <ele>262.2</ele>
        <time>2019-06-21T09:47:37Z</time>
      </trkpt>
      <trkpt lat="41.8892260" lon="-8.6261990">
        <ele>262.0</ele>
        <time>2019-06-21T09:47:38Z</time>
      </trkpt>
      <trkpt lat="41.8892880" lon="-8.6261940">
        <ele>261.6</ele>
        <time>2019-06-21T09:47:39Z</time>
      </trkpt>
      <trkpt lat="41.8893490" lon="-8.6261710">
        <ele>261.4</ele>
        <time>2019-06-21T09:47:40Z</time>
      </trkpt>
      <trkpt lat="41.8894160" lon="-8.6261530">
        <ele>260.8</ele>
        <time>2019-06-21T09:47:41Z</time>
      </trkpt>
      <trkpt lat="41.8895580" lon="-8.6261170">
        <ele>260.2</ele>
        <time>2019-06-21T09:47:43Z</time>
      </trkpt>
      <trkpt lat="41.8897050" lon="-8.6260890">
        <ele>259.8</ele>
        <time>2019-06-21T09:47:45Z</time>
      </trkpt>
      <trkpt lat="41.8900120" lon="-8.6260240">
        <ele>258.2</ele>
        <time>2019-06-21T09:47:49Z</time>
      </trkpt>
      <trkpt lat="41.8901710" lon="-8.6259820">
        <ele>257.6</ele>
        <time>2019-06-21T09:47:51Z</time>
      </trkpt>
      <trkpt lat="41.8903300" lon="-8.6259270">
        <ele>257.0</ele>
        <time>2019-06-21T09:47:53Z</time>
      </trkpt>
      <trkpt lat="41.8905690" lon="-8.6258130">
        <ele>255.6</ele>
        <time>2019-06-21T09:47:56Z</time>
      </trkpt>
      <trkpt lat="41.8906520" lon="-8.6257730">
        <ele>255.2</ele>
        <time>2019-06-21T09:47:57Z</time>
      </trkpt>
      <trkpt lat="41.8908090" lon="-8.6256900">
        <ele>254.6</ele>
        <time>2019-06-21T09:47:59Z</time>
      </trkpt>
      <trkpt lat="41.8909350" lon="-8.6255930">
        <ele>253.4</ele>
        <time>2019-06-21T09:48:01Z</time>
      </trkpt>
      <trkpt lat="41.8910680" lon="-8.6253940">
        <ele>253.0</ele>
        <time>2019-06-21T09:48:04Z</time>
      </trkpt>
      <trkpt lat="41.8911880" lon="-8.6252230">
        <ele>252.4</ele>
        <time>2019-06-21T09:48:07Z</time>
      </trkpt>
      <trkpt lat="41.8912320" lon="-8.6251800">
        <ele>252.2</ele>
        <time>2019-06-21T09:48:08Z</time>
      </trkpt>
      <trkpt lat="41.8912830" lon="-8.6251550">
        <ele>252.0</ele>
        <time>2019-06-21T09:48:09Z</time>
      </trkpt>
      <trkpt lat="41.8914350" lon="-8.6251830">
        <ele>252.0</ele>
        <time>2019-06-21T09:48:12Z</time>
      </trkpt>
      <trkpt lat="41.8914800" lon="-8.6252040">
        <ele>252.0</ele>
        <time>2019-06-21T09:48:13Z</time>
      </trkpt>
      <trkpt lat="41.8916650" lon="-8.6252990">
        <ele>252.0</ele>
        <time>2019-06-21T09:48:18Z</time>
      </trkpt>
      <trkpt lat="41.8917650" lon="-8.6252760">
        <ele>252.6</ele>
        <time>2019-06-21T09:48:22Z</time>
      </trkpt>
      <trkpt lat="41.8918030" lon="-8.6252490">
        <ele>253.0</ele>
        <time>2019-06-21T09:48:24Z</time>
      </trkpt>
      <trkpt lat="41.8918220" lon="-8.6252360">
        <ele>253.6</ele>
        <time>2019-06-21T09:48:25Z</time>
      </trkpt>
      <trkpt lat="41.8918800" lon="-8.6251890">
        <ele>254.4</ele>
        <time>2019-06-21T09:48:28Z</time>
      </trkpt>
      <trkpt lat="41.8918990" lon="-8.6251760">
        <ele>254.6</ele>
        <time>2019-06-21T09:48:29Z</time>
      </trkpt>
      <trkpt lat="41.8919360" lon="-8.6251490">
        <ele>255.2</ele>
        <time>2019-06-21T09:48:31Z</time>
      </trkpt>
      <trkpt lat="41.8919640" lon="-8.6251260">
        <ele>255.6</ele>
        <time>2019-06-21T09:48:33Z</time>
      </trkpt>
      <trkpt lat="41.8919900" lon="-8.6251080">
        <ele>256.2</ele>
        <time>2019-06-21T09:48:35Z</time>
      </trkpt>
      <trkpt lat="41.8920140" lon="-8.6250780">
        <ele>256.6</ele>
        <time>2019-06-21T09:48:37Z</time>
      </trkpt>
      <trkpt lat="41.8920280" lon="-8.6250570">
        <ele>256.8</ele>
        <time>2019-06-21T09:48:38Z</time>
      </trkpt>
      <trkpt lat="41.8920640" lon="-8.6249910">
        <ele>256.8</ele>
        <time>2019-06-21T09:48:41Z</time>
      </trkpt>
      <trkpt lat="41.8920750" lon="-8.6249680">
        <ele>257.0</ele>
        <time>2019-06-21T09:48:42Z</time>
      </trkpt>
      <trkpt lat="41.8921330" lon="-8.6248760">
        <ele>257.6</ele>
        <time>2019-06-21T09:48:46Z</time>
      </trkpt>
      <trkpt lat="41.8921960" lon="-8.6248320">
        <ele>257.8</ele>
        <time>2019-06-21T09:48:49Z</time>
      </trkpt>
      <trkpt lat="41.8922180" lon="-8.6248210">
        <ele>258.0</ele>
        <time>2019-06-21T09:48:50Z</time>
      </trkpt>
      <trkpt lat="41.8923370" lon="-8.6247580">
        <ele>258.4</ele>
        <time>2019-06-21T09:48:56Z</time>
      </trkpt>
      <trkpt lat="41.8924880" lon="-8.6246830">
        <ele>258.4</ele>
        <time>2019-06-21T09:49:03Z</time>
      </trkpt>
      <trkpt lat="41.8926470" lon="-8.6246310">
        <ele>257.8</ele>
        <time>2019-06-21T09:49:09Z</time>
      </trkpt>
      <trkpt lat="41.8928130" lon="-8.6245600">
        <ele>257.0</ele>
        <time>2019-06-21T09:49:14Z</time>
      </trkpt>
      <trkpt lat="41.8929900" lon="-8.6245070">
        <ele>257.0</ele>
        <time>2019-06-21T09:49:19Z</time>
      </trkpt>
      <trkpt lat="41.8931070" lon="-8.6244390">
        <ele>256.0</ele>
        <time>2019-06-21T09:49:22Z</time>
      </trkpt>
      <trkpt lat="41.8931860" lon="-8.6243890">
        <ele>254.8</ele>
        <time>2019-06-21T09:49:24Z</time>
      </trkpt>
      <trkpt lat="41.8932250" lon="-8.6243580">
        <ele>254.6</ele>
        <time>2019-06-21T09:49:25Z</time>
      </trkpt>
      <trkpt lat="41.8933480" lon="-8.6242690">
        <ele>253.6</ele>
        <time>2019-06-21T09:49:28Z</time>
      </trkpt>
      <trkpt lat="41.8933930" lon="-8.6242470">
        <ele>253.4</ele>
        <time>2019-06-21T09:49:29Z</time>
      </trkpt>
      <trkpt lat="41.8934860" lon="-8.6242110">
        <ele>253.4</ele>
        <time>2019-06-21T09:49:31Z</time>
      </trkpt>
      <trkpt lat="41.8935850" lon="-8.6241880">
        <ele>253.2</ele>
        <time>2019-06-21T09:49:33Z</time>
      </trkpt>
      <trkpt lat="41.8936360" lon="-8.6241750">
        <ele>253.0</ele>
        <time>2019-06-21T09:49:34Z</time>
      </trkpt>
      <trkpt lat="41.8938230" lon="-8.6241260">
        <ele>252.6</ele>
        <time>2019-06-21T09:49:37Z</time>
      </trkpt>
      <trkpt lat="41.8939250" lon="-8.6240990">
        <ele>252.8</ele>
        <time>2019-06-21T09:49:39Z</time>
      </trkpt>
      <trkpt lat="41.8940140" lon="-8.6240910">
        <ele>252.4</ele>
        <time>2019-06-21T09:49:41Z</time>
      </trkpt>
      <trkpt lat="41.8942240" lon="-8.6240580">
        <ele>252.4</ele>
        <time>2019-06-21T09:49:46Z</time>
      </trkpt>
      <trkpt lat="41.8943990" lon="-8.6240350">
        <ele>252.4</ele>
        <time>2019-06-21T09:49:50Z</time>
      </trkpt>
      <trkpt lat="41.8945200" lon="-8.6240300">
        <ele>252.4</ele>
        <time>2019-06-21T09:49:53Z</time>
      </trkpt>
      <trkpt lat="41.8947520" lon="-8.6240030">
        <ele>252.2</ele>
        <time>2019-06-21T09:49:59Z</time>
      </trkpt>
      <trkpt lat="41.8948100" lon="-8.6239820">
        <ele>253.6</ele>
        <time>2019-06-21T09:50:01Z</time>
      </trkpt>
      <trkpt lat="41.8948940" lon="-8.6239620">
        <ele>253.8</ele>
        <time>2019-06-21T09:50:04Z</time>
      </trkpt>
      <trkpt lat="41.8949640" lon="-8.6239420">
        <ele>253.4</ele>
        <time>2019-06-21T09:50:06Z</time>
      </trkpt>
      <trkpt lat="41.8950630" lon="-8.6239330">
        <ele>252.6</ele>
        <time>2019-06-21T09:50:08Z</time>
      </trkpt>
      <trkpt lat="41.8951230" lon="-8.6239340">
        <ele>252.2</ele>
        <time>2019-06-21T09:50:09Z</time>
      </trkpt>
      <trkpt lat="41.8952500" lon="-8.6239240">
        <ele>251.6</ele>
        <time>2019-06-21T09:50:11Z</time>
      </trkpt>
      <trkpt lat="41.8953170" lon="-8.6239170">
        <ele>251.2</ele>
        <time>2019-06-21T09:50:12Z</time>
      </trkpt>
      <trkpt lat="41.8954500" lon="-8.6239170">
        <ele>250.2</ele>
        <time>2019-06-21T09:50:14Z</time>
      </trkpt>
      <trkpt lat="41.8955110" lon="-8.6239330">
        <ele>250.0</ele>
        <time>2019-06-21T09:50:15Z</time>
      </trkpt>
      <trkpt lat="41.8955650" lon="-8.6239530">
        <ele>249.8</ele>
        <time>2019-06-21T09:50:16Z</time>
      </trkpt>
      <trkpt lat="41.8957210" lon="-8.6240230">
        <ele>249.2</ele>
        <time>2019-06-21T09:50:20Z</time>
      </trkpt>
      <trkpt lat="41.8957420" lon="-8.6240310">
        <ele>249.0</ele>
        <time>2019-06-21T09:50:21Z</time>
      </trkpt>
      <trkpt lat="41.8958280" lon="-8.6240660">
        <ele>248.6</ele>
        <time>2019-06-21T09:50:26Z</time>
      </trkpt>
      <trkpt lat="41.8959210" lon="-8.6240970">
        <ele>248.0</ele>
        <time>2019-06-21T09:50:30Z</time>
      </trkpt>
      <trkpt lat="41.8959500" lon="-8.6241060">
        <ele>248.0</ele>
        <time>2019-06-21T09:50:31Z</time>
      </trkpt>
      <trkpt lat="41.8960740" lon="-8.6241750">
        <ele>247.6</ele>
        <time>2019-06-21T09:50:35Z</time>
      </trkpt>
      <trkpt lat="41.8961450" lon="-8.6242280">
        <ele>247.2</ele>
        <time>2019-06-21T09:50:37Z</time>
      </trkpt>
      <trkpt lat="41.8962210" lon="-8.6242990">
        <ele>246.8</ele>
        <time>2019-06-21T09:50:39Z</time>
      </trkpt>
      <trkpt lat="41.8962630" lon="-8.6243460">
        <ele>245.8</ele>
        <time>2019-06-21T09:50:40Z</time>
      </trkpt>
      <trkpt lat="41.8963040" lon="-8.6243980">
        <ele>245.2</ele>
        <time>2019-06-21T09:50:41Z</time>
      </trkpt>
      <trkpt lat="41.8964070" lon="-8.6244880">
        <ele>244.8</ele>
        <time>2019-06-21T09:50:43Z</time>
      </trkpt>
      <trkpt lat="41.8964690" lon="-8.6244980">
        <ele>244.0</ele>
        <time>2019-06-21T09:50:44Z</time>
      </trkpt>
      <trkpt lat="41.8965340" lon="-8.6244990">
        <ele>243.2</ele>
        <time>2019-06-21T09:50:45Z</time>
      </trkpt>
      <trkpt lat="41.8965960" lon="-8.6244960">
        <ele>242.4</ele>
        <time>2019-06-21T09:50:46Z</time>
      </trkpt>
      <trkpt lat="41.8966550" lon="-8.6244970">
        <ele>242.0</ele>
        <time>2019-06-21T09:50:47Z</time>
      </trkpt>
      <trkpt lat="41.8967140" lon="-8.6245110">
        <ele>240.8</ele>
        <time>2019-06-21T09:50:48Z</time>
      </trkpt>
      <trkpt lat="41.8968340" lon="-8.6245360">
        <ele>239.2</ele>
        <time>2019-06-21T09:50:50Z</time>
      </trkpt>
      <trkpt lat="41.8968970" lon="-8.6245430">
        <ele>238.2</ele>
        <time>2019-06-21T09:50:51Z</time>
      </trkpt>
      <trkpt lat="41.8969560" lon="-8.6245420">
        <ele>237.6</ele>
        <time>2019-06-21T09:50:52Z</time>
      </trkpt>
      <trkpt lat="41.8970070" lon="-8.6245330">
        <ele>236.6</ele>
        <time>2019-06-21T09:50:53Z</time>
      </trkpt>
      <trkpt lat="41.8971200" lon="-8.6245250">
        <ele>235.2</ele>
        <time>2019-06-21T09:50:55Z</time>
      </trkpt>
      <trkpt lat="41.8971740" lon="-8.6245190">
        <ele>234.6</ele>
        <time>2019-06-21T09:50:56Z</time>
      </trkpt>
      <trkpt lat="41.8972260" lon="-8.6245090">
        <ele>234.4</ele>
        <time>2019-06-21T09:50:57Z</time>
      </trkpt>
      <trkpt lat="41.8973580" lon="-8.6244630">
        <ele>234.6</ele>
        <time>2019-06-21T09:51:00Z</time>
      </trkpt>
      <trkpt lat="41.8974350" lon="-8.6244280">
        <ele>235.0</ele>
        <time>2019-06-21T09:51:02Z</time>
      </trkpt>
      <trkpt lat="41.8975480" lon="-8.6243670">
        <ele>235.4</ele>
        <time>2019-06-21T09:51:05Z</time>
      </trkpt>
      <trkpt lat="41.8976670" lon="-8.6243100">
        <ele>235.4</ele>
        <time>2019-06-21T09:51:08Z</time>
      </trkpt>
      <trkpt lat="41.8978760" lon="-8.6242100">
        <ele>235.6</ele>
        <time>2019-06-21T09:51:13Z</time>
      </trkpt>
      <trkpt lat="41.8979500" lon="-8.6241840">
        <ele>235.6</ele>
        <time>2019-06-21T09:51:15Z</time>
      </trkpt>
      <trkpt lat="41.8981340" lon="-8.6241230">
        <ele>234.6</ele>
        <time>2019-06-21T09:51:19Z</time>
      </trkpt>
      <trkpt lat="41.8981920" lon="-8.6240950">
        <ele>233.8</ele>
        <time>2019-06-21T09:51:20Z</time>
      </trkpt>
      <trkpt lat="41.8982540" lon="-8.6240620">
        <ele>232.6</ele>
        <time>2019-06-21T09:51:21Z</time>
      </trkpt>
      <trkpt lat="41.8983140" lon="-8.6240340">
        <ele>231.4</ele>
        <time>2019-06-21T09:51:22Z</time>
      </trkpt>
      <trkpt lat="41.8983720" lon="-8.6240140">
        <ele>230.2</ele>
        <time>2019-06-21T09:51:23Z</time>
      </trkpt>
      <trkpt lat="41.8984280" lon="-8.6240040">
        <ele>229.4</ele>
        <time>2019-06-21T09:51:24Z</time>
      </trkpt>
      <trkpt lat="41.8984850" lon="-8.6240030">
        <ele>228.8</ele>
        <time>2019-06-21T09:51:25Z</time>
      </trkpt>
      <trkpt lat="41.8986100" lon="-8.6240190">
        <ele>227.0</ele>
        <time>2019-06-21T09:51:27Z</time>
      </trkpt>
      <trkpt lat="41.8986840" lon="-8.6240270">
        <ele>226.2</ele>
        <time>2019-06-21T09:51:28Z</time>
      </trkpt>
      <trkpt lat="41.8987650" lon="-8.6240350">
        <ele>225.4</ele>
        <time>2019-06-21T09:51:29Z</time>
      </trkpt>
      <trkpt lat="41.8988520" lon="-8.6240400">
        <ele>224.2</ele>
        <time>2019-06-21T09:51:30Z</time>
      </trkpt>
      <trkpt lat="41.8989370" lon="-8.6240470">
        <ele>223.0</ele>
        <time>2019-06-21T09:51:31Z</time>
      </trkpt>
      <trkpt lat="41.8990200" lon="-8.6240560">
        <ele>221.6</ele>
        <time>2019-06-21T09:51:32Z</time>
      </trkpt>
      <trkpt lat="41.8991010" lon="-8.6240680">
        <ele>220.4</ele>
        <time>2019-06-21T09:51:33Z</time>
      </trkpt>
      <trkpt lat="41.8992350" lon="-8.6240970">
        <ele>218.6</ele>
        <time>2019-06-21T09:51:35Z</time>
      </trkpt>
      <trkpt lat="41.8992920" lon="-8.6241090">
        <ele>217.0</ele>
        <time>2019-06-21T09:51:36Z</time>
      </trkpt>
      <trkpt lat="41.8993410" lon="-8.6241130">
        <ele>216.4</ele>
        <time>2019-06-21T09:51:37Z</time>
      </trkpt>
      <trkpt lat="41.8993930" lon="-8.6241160">
        <ele>215.8</ele>
        <time>2019-06-21T09:51:38Z</time>
      </trkpt>
      <trkpt lat="41.8994460" lon="-8.6241280">
        <ele>215.2</ele>
        <time>2019-06-21T09:51:39Z</time>
      </trkpt>
      <trkpt lat="41.8994860" lon="-8.6241650">
        <ele>214.8</ele>
        <time>2019-06-21T09:51:40Z</time>
      </trkpt>
      <trkpt lat="41.8995160" lon="-8.6242140">
        <ele>214.6</ele>
        <time>2019-06-21T09:51:41Z</time>
      </trkpt>
      <trkpt lat="41.8995610" lon="-8.6243850">
        <ele>213.6</ele>
        <time>2019-06-21T09:51:44Z</time>
      </trkpt>
      <trkpt lat="41.8995740" lon="-8.6244300">
        <ele>213.2</ele>
        <time>2019-06-21T09:51:45Z</time>
      </trkpt>
      <trkpt lat="41.8995730" lon="-8.6245060">
        <ele>211.8</ele>
        <time>2019-06-21T09:51:47Z</time>
      </trkpt>
      <trkpt lat="41.8995400" lon="-8.6245610">
        <ele>210.6</ele>
        <time>2019-06-21T09:51:49Z</time>
      </trkpt>
      <trkpt lat="41.8995150" lon="-8.6246010">
        <ele>209.4</ele>
        <time>2019-06-21T09:51:51Z</time>
      </trkpt>
      <trkpt lat="41.8995330" lon="-8.6245960">
        <ele>208.6</ele>
        <time>2019-06-21T09:51:53Z</time>
      </trkpt>
      <trkpt lat="41.8995500" lon="-8.6245880">
        <ele>208.2</ele>
        <time>2019-06-21T09:51:54Z</time>
      </trkpt>
      <trkpt lat="41.8996340" lon="-8.6245530">
        <ele>207.8</ele>
        <time>2019-06-21T09:51:56Z</time>
      </trkpt>
      <trkpt lat="41.8998390" lon="-8.6244260">
        <ele>207.2</ele>
        <time>2019-06-21T09:52:01Z</time>
      </trkpt>
      <trkpt lat="41.8998860" lon="-8.6243960">
        <ele>207.0</ele>
        <time>2019-06-21T09:52:02Z</time>
      </trkpt>
      <trkpt lat="41.9001400" lon="-8.6242240">
        <ele>206.4</ele>
        <time>2019-06-21T09:52:07Z</time>
      </trkpt>
      <trkpt lat="41.9001920" lon="-8.6241860">
        <ele>206.2</ele>
        <time>2019-06-21T09:52:08Z</time>
      </trkpt>
      <trkpt lat="41.9002420" lon="-8.6241420">
        <ele>206.0</ele>
        <time>2019-06-21T09:52:09Z</time>
      </trkpt>
      <trkpt lat="41.9004320" lon="-8.6239400">
        <ele>205.2</ele>
        <time>2019-06-21T09:52:13Z</time>
      </trkpt>
      <trkpt lat="41.9004790" lon="-8.6238850">
        <ele>205.0</ele>
        <time>2019-06-21T09:52:14Z</time>
      </trkpt>
      <trkpt lat="41.9005720" lon="-8.6237680">
        <ele>204.4</ele>
        <time>2019-06-21T09:52:16Z</time>
      </trkpt>
      <trkpt lat="41.9007020" lon="-8.6235720">
        <ele>203.8</ele>
        <time>2019-06-21T09:52:19Z</time>
      </trkpt>
      <trkpt lat="41.9007420" lon="-8.6235080">
        <ele>203.6</ele>
        <time>2019-06-21T09:52:20Z</time>
      </trkpt>
      <trkpt lat="41.9008160" lon="-8.6233870">
        <ele>202.2</ele>
        <time>2019-06-21T09:52:23Z</time>
      </trkpt>
      <trkpt lat="41.9008620" lon="-8.6232980">
        <ele>201.0</ele>
        <time>2019-06-21T09:52:26Z</time>
      </trkpt>
      <trkpt lat="41.9009320" lon="-8.6231850">
        <ele>200.4</ele>
        <time>2019-06-21T09:52:29Z</time>
      </trkpt>
      <trkpt lat="41.9009700" lon="-8.6231500">
        <ele>200.4</ele>
        <time>2019-06-21T09:52:30Z</time>
      </trkpt>
      <trkpt lat="41.9010590" lon="-8.6230760">
        <ele>199.8</ele>
        <time>2019-06-21T09:52:32Z</time>
      </trkpt>
      <trkpt lat="41.9011060" lon="-8.6230370">
        <ele>199.6</ele>
        <time>2019-06-21T09:52:33Z</time>
      </trkpt>
      <trkpt lat="41.9012090" lon="-8.6229670">
        <ele>199.0</ele>
        <time>2019-06-21T09:52:35Z</time>
      </trkpt>
      <trkpt lat="41.9013220" lon="-8.6229080">
        <ele>198.8</ele>
        <time>2019-06-21T09:52:37Z</time>
      </trkpt>
      <trkpt lat="41.9013820" lon="-8.6228850">
        <ele>198.6</ele>
        <time>2019-06-21T09:52:38Z</time>
      </trkpt>
      <trkpt lat="41.9016210" lon="-8.6228360">
        <ele>197.6</ele>
        <time>2019-06-21T09:52:42Z</time>
      </trkpt>
      <trkpt lat="41.9016660" lon="-8.6228300">
        <ele>197.4</ele>
        <time>2019-06-21T09:52:43Z</time>
      </trkpt>
      <trkpt lat="41.9017230" lon="-8.6228490">
        <ele>196.8</ele>
        <time>2019-06-21T09:52:45Z</time>
      </trkpt>
      <trkpt lat="41.9017250" lon="-8.6228770">
        <ele>196.4</ele>
        <time>2019-06-21T09:52:46Z</time>
      </trkpt>
      <trkpt lat="41.9017110" lon="-8.6229030">
        <ele>196.4</ele>
        <time>2019-06-21T09:52:47Z</time>
      </trkpt>
      <trkpt lat="41.9016490" lon="-8.6229410">
        <ele>195.4</ele>
        <time>2019-06-21T09:52:49Z</time>
      </trkpt>
      <trkpt lat="41.9016090" lon="-8.6229600">
        <ele>194.8</ele>
        <time>2019-06-21T09:52:50Z</time>
      </trkpt>
      <trkpt lat="41.9015640" lon="-8.6229780">
        <ele>194.6</ele>
        <time>2019-06-21T09:52:51Z</time>
      </trkpt>
      <trkpt lat="41.9015160" lon="-8.6229900">
        <ele>189.6</ele>
        <time>2019-06-21T09:52:52Z</time>
      </trkpt>
      <trkpt lat="41.9014720" lon="-8.6230040">
        <ele>190.8</ele>
        <time>2019-06-21T09:52:53Z</time>
      </trkpt>
      <trkpt lat="41.9013880" lon="-8.6230370">
        <ele>195.2</ele>
        <time>2019-06-21T09:52:55Z</time>
      </trkpt>
      <trkpt lat="41.9013470" lon="-8.6230570">
        <ele>193.8</ele>
        <time>2019-06-21T09:52:56Z</time>
      </trkpt>
      <trkpt lat="41.9012720" lon="-8.6231060">
        <ele>193.6</ele>
        <time>2019-06-21T09:52:58Z</time>
      </trkpt>
      <trkpt lat="41.9012370" lon="-8.6231350">
        <ele>193.8</ele>
        <time>2019-06-21T09:52:59Z</time>
      </trkpt>
      <trkpt lat="41.9011390" lon="-8.6232300">
        <ele>193.8</ele>
        <time>2019-06-21T09:53:02Z</time>
      </trkpt>
      <trkpt lat="41.9009740" lon="-8.6234280">
        <ele>193.8</ele>
        <time>2019-06-21T09:53:08Z</time>
      </trkpt>
      <trkpt lat="41.9009660" lon="-8.6234810">
        <ele>194.0</ele>
        <time>2019-06-21T09:53:09Z</time>
      </trkpt>
      <trkpt lat="41.9009430" lon="-8.6236950">
        <ele>192.2</ele>
        <time>2019-06-21T09:53:12Z</time>
      </trkpt>
      <trkpt lat="41.9009290" lon="-8.6237820">
        <ele>192.0</ele>
        <time>2019-06-21T09:53:13Z</time>
      </trkpt>
      <trkpt lat="41.9008940" lon="-8.6239740">
        <ele>191.0</ele>
        <time>2019-06-21T09:53:15Z</time>
      </trkpt>
      <trkpt lat="41.9008720" lon="-8.6240700">
        <ele>190.0</ele>
        <time>2019-06-21T09:53:16Z</time>
      </trkpt>
      <trkpt lat="41.9008290" lon="-8.6242510">
        <ele>188.4</ele>
        <time>2019-06-21T09:53:18Z</time>
      </trkpt>
      <trkpt lat="41.9008090" lon="-8.6244050">
        <ele>187.4</ele>
        <time>2019-06-21T09:53:20Z</time>
      </trkpt>
      <trkpt lat="41.9008140" lon="-8.6244780">
        <ele>187.2</ele>
        <time>2019-06-21T09:53:21Z</time>
      </trkpt>
      <trkpt lat="41.9008360" lon="-8.6245930">
        <ele>186.6</ele>
        <time>2019-06-21T09:53:23Z</time>
      </trkpt>
      <trkpt lat="41.9008620" lon="-8.6246370">
        <ele>186.6</ele>
        <time>2019-06-21T09:53:24Z</time>
      </trkpt>
      <trkpt lat="41.9008950" lon="-8.6246790">
        <ele>186.2</ele>
        <time>2019-06-21T09:53:25Z</time>
      </trkpt>
      <trkpt lat="41.9009760" lon="-8.6247630">
        <ele>185.0</ele>
        <time>2019-06-21T09:53:27Z</time>
      </trkpt>
      <trkpt lat="41.9010240" lon="-8.6248070">
        <ele>184.6</ele>
        <time>2019-06-21T09:53:28Z</time>
      </trkpt>
      <trkpt lat="41.9011330" lon="-8.6248880">
        <ele>184.0</ele>
        <time>2019-06-21T09:53:30Z</time>
      </trkpt>
      <trkpt lat="41.9013060" lon="-8.6249970">
        <ele>183.6</ele>
        <time>2019-06-21T09:53:33Z</time>
      </trkpt>
      <trkpt lat="41.9014360" lon="-8.6250050">
        <ele>182.8</ele>
        <time>2019-06-21T09:53:35Z</time>
      </trkpt>
      <trkpt lat="41.9015100" lon="-8.6249900">
        <ele>181.8</ele>
        <time>2019-06-21T09:53:36Z</time>
      </trkpt>
      <trkpt lat="41.9015860" lon="-8.6249710">
        <ele>181.4</ele>
        <time>2019-06-21T09:53:37Z</time>
      </trkpt>
      <trkpt lat="41.9016580" lon="-8.6249560">
        <ele>181.0</ele>
        <time>2019-06-21T09:53:38Z</time>
      </trkpt>
      <trkpt lat="41.9018010" lon="-8.6249860">
        <ele>180.4</ele>
        <time>2019-06-21T09:53:40Z</time>
      </trkpt>
      <trkpt lat="41.9018730" lon="-8.6250200">
        <ele>179.6</ele>
        <time>2019-06-21T09:53:41Z</time>
      </trkpt>
      <trkpt lat="41.9021060" lon="-8.6251030">
        <ele>178.6</ele>
        <time>2019-06-21T09:53:44Z</time>
      </trkpt>
      <trkpt lat="41.9021840" lon="-8.6251220">
        <ele>178.2</ele>
        <time>2019-06-21T09:53:45Z</time>
      </trkpt>
      <trkpt lat="41.9024070" lon="-8.6251610">
        <ele>176.6</ele>
        <time>2019-06-21T09:53:48Z</time>
      </trkpt>
      <trkpt lat="41.9025470" lon="-8.6251880">
        <ele>175.2</ele>
        <time>2019-06-21T09:53:50Z</time>
      </trkpt>
      <trkpt lat="41.9026760" lon="-8.6252260">
        <ele>175.8</ele>
        <time>2019-06-21T09:53:52Z</time>
      </trkpt>
      <trkpt lat="41.9030600" lon="-8.6254020">
        <ele>175.0</ele>
        <time>2019-06-21T09:53:59Z</time>
      </trkpt>
      <trkpt lat="41.9032690" lon="-8.6255030">
        <ele>173.6</ele>
        <time>2019-06-21T09:54:03Z</time>
      </trkpt>
      <trkpt lat="41.9034370" lon="-8.6255760">
        <ele>173.6</ele>
        <time>2019-06-21T09:54:06Z</time>
      </trkpt>
      <trkpt lat="41.9037510" lon="-8.6257280">
        <ele>172.4</ele>
        <time>2019-06-21T09:54:12Z</time>
      </trkpt>
      <trkpt lat="41.9039180" lon="-8.6258610">
        <ele>171.8</ele>
        <time>2019-06-21T09:54:16Z</time>
      </trkpt>
      <trkpt lat="41.9040770" lon="-8.6260750">
        <ele>171.8</ele>
        <time>2019-06-21T09:54:21Z</time>
      </trkpt>
      <trkpt lat="41.9041210" lon="-8.6261470">
        <ele>171.4</ele>
        <time>2019-06-21T09:54:23Z</time>
      </trkpt>
      <trkpt lat="41.9041290" lon="-8.6261930">
        <ele>171.6</ele>
        <time>2019-06-21T09:54:25Z</time>
      </trkpt>
      <trkpt lat="41.9041390" lon="-8.6262420">
        <ele>172.0</ele>
        <time>2019-06-21T09:54:28Z</time>
      </trkpt>
      <trkpt lat="41.9041420" lon="-8.6262570">
        <ele>172.4</ele>
        <time>2019-06-21T09:54:29Z</time>
      </trkpt>
      <trkpt lat="41.9041530" lon="-8.6263060">
        <ele>173.0</ele>
        <time>2019-06-21T09:54:32Z</time>
      </trkpt>
      <trkpt lat="41.9041680" lon="-8.6263830">
        <ele>173.2</ele>
        <time>2019-06-21T09:54:35Z</time>
      </trkpt>
      <trkpt lat="41.9041910" lon="-8.6264560">
        <ele>172.6</ele>
        <time>2019-06-21T09:54:37Z</time>
      </trkpt>
      <trkpt lat="41.9042680" lon="-8.6265760">
        <ele>172.8</ele>
        <time>2019-06-21T09:54:42Z</time>
      </trkpt>
      <trkpt lat="41.9043220" lon="-8.6266620">
        <ele>173.2</ele>
        <time>2019-06-21T09:54:47Z</time>
      </trkpt>
      <trkpt lat="41.9043320" lon="-8.6266710">
        <ele>173.8</ele>
        <time>2019-06-21T09:54:48Z</time>
      </trkpt>
      <trkpt lat="41.9043570" lon="-8.6266670">
        <ele>174.0</ele>
        <time>2019-06-21T09:54:50Z</time>
      </trkpt>
      <trkpt lat="41.9044220" lon="-8.6266200">
        <ele>174.2</ele>
        <time>2019-06-21T09:54:56Z</time>
      </trkpt>
      <trkpt lat="41.9044750" lon="-8.6265770">
        <ele>174.4</ele>
        <time>2019-06-21T09:55:00Z</time>
      </trkpt>
      <trkpt lat="41.9045220" lon="-8.6265570">
        <ele>174.6</ele>
        <time>2019-06-21T09:55:03Z</time>
      </trkpt>
      <trkpt lat="41.9046440" lon="-8.6265360">
        <ele>174.8</ele>
        <time>2019-06-21T09:55:09Z</time>
      </trkpt>
      <trkpt lat="41.9046660" lon="-8.6265320">
        <ele>174.8</ele>
        <time>2019-06-21T09:55:10Z</time>
      </trkpt>
      <trkpt lat="41.9048100" lon="-8.6265410">
        <ele>175.6</ele>
        <time>2019-06-21T09:55:17Z</time>
      </trkpt>
      <trkpt lat="41.9049640" lon="-8.6265940">
        <ele>175.6</ele>
        <time>2019-06-21T09:55:24Z</time>
      </trkpt>
      <trkpt lat="41.9051890" lon="-8.6266350">
        <ele>175.2</ele>
        <time>2019-06-21T09:55:31Z</time>
      </trkpt>
      <trkpt lat="41.9053140" lon="-8.6266570">
        <ele>175.4</ele>
        <time>2019-06-21T09:55:35Z</time>
      </trkpt>
      <trkpt lat="41.9053780" lon="-8.6266670">
        <ele>175.2</ele>
        <time>2019-06-21T09:55:37Z</time>
      </trkpt>
      <trkpt lat="41.9054820" lon="-8.6266360">
        <ele>175.4</ele>
        <time>2019-06-21T09:55:41Z</time>
      </trkpt>
      <trkpt lat="41.9055380" lon="-8.6266300">
        <ele>175.4</ele>
        <time>2019-06-21T09:55:43Z</time>
      </trkpt>
      <trkpt lat="41.9056270" lon="-8.6266160">
        <ele>175.8</ele>
        <time>2019-06-21T09:55:46Z</time>
      </trkpt>
      <trkpt lat="41.9058010" lon="-8.6265770">
        <ele>176.4</ele>
        <time>2019-06-21T09:55:52Z</time>
      </trkpt>
      <trkpt lat="41.9059880" lon="-8.6265480">
        <ele>176.8</ele>
        <time>2019-06-21T09:55:59Z</time>
      </trkpt>
      <trkpt lat="41.9060670" lon="-8.6265450">
        <ele>177.4</ele>
        <time>2019-06-21T09:56:02Z</time>
      </trkpt>
      <trkpt lat="41.9061120" lon="-8.6265500">
        <ele>178.0</ele>
        <time>2019-06-21T09:56:04Z</time>
      </trkpt>
      <trkpt lat="41.9061660" lon="-8.6265420">
        <ele>179.0</ele>
        <time>2019-06-21T09:56:08Z</time>
      </trkpt>
      <trkpt lat="41.9062430" lon="-8.6266050">
        <ele>178.8</ele>
        <time>2019-06-21T09:56:14Z</time>
      </trkpt>
      <trkpt lat="41.9063280" lon="-8.6267530">
        <ele>179.2</ele>
        <time>2019-06-21T09:56:21Z</time>
      </trkpt>
      <trkpt lat="41.9063430" lon="-8.6267610">
        <ele>179.2</ele>
        <time>2019-06-21T09:56:22Z</time>
      </trkpt>
      <trkpt lat="41.9063980" lon="-8.6267500">
        <ele>179.4</ele>
        <time>2019-06-21T09:56:25Z</time>
      </trkpt>
      <trkpt lat="41.9064190" lon="-8.6267460">
        <ele>179.4</ele>
        <time>2019-06-21T09:56:26Z</time>
      </trkpt>
      <trkpt lat="41.9065750" lon="-8.6267030">
        <ele>179.2</ele>
        <time>2019-06-21T09:56:32Z</time>
      </trkpt>
      <trkpt lat="41.9067040" lon="-8.6266680">
        <ele>178.8</ele>
        <time>2019-06-21T09:56:37Z</time>
      </trkpt>
      <trkpt lat="41.9069260" lon="-8.6266350">
        <ele>178.0</ele>
        <time>2019-06-21T09:56:43Z</time>
      </trkpt>
      <trkpt lat="41.9070040" lon="-8.6266250">
        <ele>177.4</ele>
        <time>2019-06-21T09:56:45Z</time>
      </trkpt>
      <trkpt lat="41.9071190" lon="-8.6266310">
        <ele>177.6</ele>
        <time>2019-06-21T09:56:48Z</time>
      </trkpt>
      <trkpt lat="41.9072240" lon="-8.6266590">
        <ele>177.2</ele>
        <time>2019-06-21T09:56:51Z</time>
      </trkpt>
      <trkpt lat="41.9073320" lon="-8.6267370">
        <ele>177.2</ele>
        <time>2019-06-21T09:56:55Z</time>
      </trkpt>
      <trkpt lat="41.9073890" lon="-8.6268010">
        <ele>176.8</ele>
        <time>2019-06-21T09:56:57Z</time>
      </trkpt>
      <trkpt lat="41.9074940" lon="-8.6268870">
        <ele>176.2</ele>
        <time>2019-06-21T09:57:00Z</time>
      </trkpt>
      <trkpt lat="41.9075660" lon="-8.6269210">
        <ele>176.0</ele>
        <time>2019-06-21T09:57:02Z</time>
      </trkpt>
      <trkpt lat="41.9075960" lon="-8.6269310">
        <ele>175.8</ele>
        <time>2019-06-21T09:57:03Z</time>
      </trkpt>
      <trkpt lat="41.9077230" lon="-8.6269970">
        <ele>175.4</ele>
        <time>2019-06-21T09:57:08Z</time>
      </trkpt>
      <trkpt lat="41.9078280" lon="-8.6270320">
        <ele>175.0</ele>
        <time>2019-06-21T09:57:12Z</time>
      </trkpt>
      <trkpt lat="41.9079300" lon="-8.6270440">
        <ele>175.0</ele>
        <time>2019-06-21T09:57:16Z</time>
      </trkpt>
      <trkpt lat="41.9081460" lon="-8.6270540">
        <ele>175.0</ele>
        <time>2019-06-21T09:57:23Z</time>
      </trkpt>
      <trkpt lat="41.9082970" lon="-8.6270030">
        <ele>175.4</ele>
        <time>2019-06-21T09:57:28Z</time>
      </trkpt>
      <trkpt lat="41.9083220" lon="-8.6269840">
        <ele>175.4</ele>
        <time>2019-06-21T09:57:29Z</time>
      </trkpt>
      <trkpt lat="41.9083690" lon="-8.6269420">
        <ele>175.6</ele>
        <time>2019-06-21T09:57:31Z</time>
      </trkpt>
      <trkpt lat="41.9084330" lon="-8.6268700">
        <ele>176.0</ele>
        <time>2019-06-21T09:57:34Z</time>
      </trkpt>
      <trkpt lat="41.9084760" lon="-8.6268230">
        <ele>176.2</ele>
        <time>2019-06-21T09:57:36Z</time>
      </trkpt>
      <trkpt lat="41.9085610" lon="-8.6267290">
        <ele>177.0</ele>
        <time>2019-06-21T09:57:40Z</time>
      </trkpt>
      <trkpt lat="41.9086210" lon="-8.6266580">
        <ele>177.4</ele>
        <time>2019-06-21T09:57:43Z</time>
      </trkpt>
      <trkpt lat="41.9086800" lon="-8.6265850">
        <ele>177.8</ele>
        <time>2019-06-21T09:57:46Z</time>
      </trkpt>
      <trkpt lat="41.9087490" lon="-8.6265170">
        <ele>178.2</ele>
        <time>2019-06-21T09:57:49Z</time>
      </trkpt>
      <trkpt lat="41.9087970" lon="-8.6264780">
        <ele>178.2</ele>
        <time>2019-06-21T09:57:51Z</time>
      </trkpt>
      <trkpt lat="41.9089130" lon="-8.6264070">
        <ele>178.8</ele>
        <time>2019-06-21T09:57:56Z</time>
      </trkpt>
      <trkpt lat="41.9089340" lon="-8.6263980">
        <ele>179.2</ele>
        <time>2019-06-21T09:57:57Z</time>
      </trkpt>
      <trkpt lat="41.9090290" lon="-8.6263520">
        <ele>179.8</ele>
        <time>2019-06-21T09:58:01Z</time>
      </trkpt>
      <trkpt lat="41.9091230" lon="-8.6263140">
        <ele>180.2</ele>
        <time>2019-06-21T09:58:05Z</time>
      </trkpt>
      <trkpt lat="41.9091700" lon="-8.6263060">
        <ele>180.4</ele>
        <time>2019-06-21T09:58:07Z</time>
      </trkpt>
      <trkpt lat="41.9092930" lon="-8.6263030">
        <ele>180.4</ele>
        <time>2019-06-21T09:58:12Z</time>
      </trkpt>
      <trkpt lat="41.9094090" lon="-8.6262820">
        <ele>181.4</ele>
        <time>2019-06-21T09:58:17Z</time>
      </trkpt>
      <trkpt lat="41.9094540" lon="-8.6262800">
        <ele>181.4</ele>
        <time>2019-06-21T09:58:19Z</time>
      </trkpt>
      <trkpt lat="41.9095800" lon="-8.6262160">
        <ele>182.2</ele>
        <time>2019-06-21T09:58:26Z</time>
      </trkpt>
      <trkpt lat="41.9095980" lon="-8.6262070">
        <ele>182.4</ele>
        <time>2019-06-21T09:58:27Z</time>
      </trkpt>
      <trkpt lat="41.9097090" lon="-8.6261350">
        <ele>183.2</ele>
        <time>2019-06-21T09:58:33Z</time>
      </trkpt>
      <trkpt lat="41.9097980" lon="-8.6260620">
        <ele>183.6</ele>
        <time>2019-06-21T09:58:38Z</time>
      </trkpt>
      <trkpt lat="41.9098160" lon="-8.6260470">
        <ele>183.8</ele>
        <time>2019-06-21T09:58:39Z</time>
      </trkpt>
      <trkpt lat="41.9099340" lon="-8.6259840">
        <ele>184.6</ele>
        <time>2019-06-21T09:58:45Z</time>
      </trkpt>
      <trkpt lat="41.9099560" lon="-8.6259770">
        <ele>184.8</ele>
        <time>2019-06-21T09:58:46Z</time>
      </trkpt>
      <trkpt lat="41.9100920" lon="-8.6259940">
        <ele>185.4</ele>
        <time>2019-06-21T09:58:53Z</time>
      </trkpt>
      <trkpt lat="41.9101730" lon="-8.6260200">
        <ele>186.0</ele>
        <time>2019-06-21T09:58:59Z</time>
      </trkpt>
      <trkpt lat="41.9101890" lon="-8.6260260">
        <ele>186.2</ele>
        <time>2019-06-21T09:59:00Z</time>
      </trkpt>
      <trkpt lat="41.9102880" lon="-8.6260620">
        <ele>186.8</ele>
        <time>2019-06-21T09:59:08Z</time>
      </trkpt>
      <trkpt lat="41.9103030" lon="-8.6260650">
        <ele>187.0</ele>
        <time>2019-06-21T09:59:09Z</time>
      </trkpt>
      <trkpt lat="41.9103790" lon="-8.6260660">
        <ele>187.6</ele>
        <time>2019-06-21T09:59:15Z</time>
      </trkpt>
      <trkpt lat="41.9103910" lon="-8.6260720">
        <ele>187.8</ele>
        <time>2019-06-21T09:59:16Z</time>
      </trkpt>
      <trkpt lat="41.9104140" lon="-8.6260820">
        <ele>188.0</ele>
        <time>2019-06-21T09:59:18Z</time>
      </trkpt>
      <trkpt lat="41.9104330" lon="-8.6260820">
        <ele>188.4</ele>
        <time>2019-06-21T09:59:20Z</time>
      </trkpt>
      <trkpt lat="41.9104850" lon="-8.6260910">
        <ele>189.4</ele>
        <time>2019-06-21T09:59:25Z</time>
      </trkpt>
      <trkpt lat="41.9105110" lon="-8.6260840">
        <ele>189.6</ele>
        <time>2019-06-21T09:59:27Z</time>
      </trkpt>
      <trkpt lat="41.9105580" lon="-8.6260590">
        <ele>190.4</ele>
        <time>2019-06-21T09:59:31Z</time>
      </trkpt>
      <trkpt lat="41.9105920" lon="-8.6260480">
        <ele>190.8</ele>
        <time>2019-06-21T09:59:34Z</time>
      </trkpt>
      <trkpt lat="41.9106040" lon="-8.6260470">
        <ele>191.0</ele>
        <time>2019-06-21T09:59:35Z</time>
      </trkpt>
      <trkpt lat="41.9106280" lon="-8.6260460">
        <ele>191.4</ele>
        <time>2019-06-21T09:59:37Z</time>
      </trkpt>
      <trkpt lat="41.9106600" lon="-8.6260550">
        <ele>191.8</ele>
        <time>2019-06-21T09:59:40Z</time>
      </trkpt>
      <trkpt lat="41.9106830" lon="-8.6260570">
        <ele>192.4</ele>
        <time>2019-06-21T09:59:43Z</time>
      </trkpt>
      <trkpt lat="41.9107180" lon="-8.6260510">
        <ele>193.0</ele>
        <time>2019-06-21T09:59:46Z</time>
      </trkpt>
      <trkpt lat="41.9107660" lon="-8.6260560">
        <ele>193.6</ele>
        <time>2019-06-21T09:59:49Z</time>
      </trkpt>
      <trkpt lat="41.9108300" lon="-8.6260740">
        <ele>194.6</ele>
        <time>2019-06-21T09:59:54Z</time>
      </trkpt>
      <trkpt lat="41.9108710" lon="-8.6260960">
        <ele>195.2</ele>
        <time>2019-06-21T09:59:58Z</time>
      </trkpt>
      <trkpt lat="41.9108970" lon="-8.6261000">
        <ele>195.6</ele>
        <time>2019-06-21T10:00:00Z</time>
      </trkpt>
      <trkpt lat="41.9109090" lon="-8.6260950">
        <ele>196.2</ele>
        <time>2019-06-21T10:00:01Z</time>
      </trkpt>
      <trkpt lat="41.9109210" lon="-8.6260920">
        <ele>196.6</ele>
        <time>2019-06-21T10:00:02Z</time>
      </trkpt>
      <trkpt lat="41.9109620" lon="-8.6261060">
        <ele>197.6</ele>
        <time>2019-06-21T10:00:05Z</time>
      </trkpt>
      <trkpt lat="41.9109750" lon="-8.6261120">
        <ele>198.0</ele>
        <time>2019-06-21T10:00:06Z</time>
      </trkpt>
      <trkpt lat="41.9109850" lon="-8.6261190">
        <ele>198.2</ele>
        <time>2019-06-21T10:00:07Z</time>
      </trkpt>
      <trkpt lat="41.9110310" lon="-8.6261460">
        <ele>199.0</ele>
        <time>2019-06-21T10:00:11Z</time>
      </trkpt>
      <trkpt lat="41.9110410" lon="-8.6261490">
        <ele>199.4</ele>
        <time>2019-06-21T10:00:12Z</time>
      </trkpt>
      <trkpt lat="41.9110520" lon="-8.6261530">
        <ele>199.6</ele>
        <time>2019-06-21T10:00:13Z</time>
      </trkpt>
      <trkpt lat="41.9110750" lon="-8.6261640">
        <ele>200.2</ele>
        <time>2019-06-21T10:00:15Z</time>
      </trkpt>
      <trkpt lat="41.9110870" lon="-8.6261720">
        <ele>200.6</ele>
        <time>2019-06-21T10:00:16Z</time>
      </trkpt>
      <trkpt lat="41.9111170" lon="-8.6261940">
        <ele>201.8</ele>
        <time>2019-06-21T10:00:19Z</time>
      </trkpt>
      <trkpt lat="41.9111270" lon="-8.6262010">
        <ele>202.0</ele>
        <time>2019-06-21T10:00:20Z</time>
      </trkpt>
      <trkpt lat="41.9111490" lon="-8.6262150">
        <ele>202.0</ele>
        <time>2019-06-21T10:00:26Z</time>
      </trkpt>
      <trkpt lat="41.9111510" lon="-8.6262160">
        <ele>202.0</ele>
        <time>2019-06-21T10:00:35Z</time>
      </trkpt>
      <trkpt lat="41.9111510" lon="-8.6262160">
        <ele>202.0</ele>
        <time>2019-06-21T10:00:45Z</time>
      </trkpt>
      <trkpt lat="41.9111530" lon="-8.6262210">
        <ele>202.0</ele>
        <time>2019-06-21T10:00:56Z</time>
      </trkpt>
      <trkpt lat="41.9111600" lon="-8.6262290">
        <ele>202.0</ele>
        <time>2019-06-21T10:00:59Z</time>
      </trkpt>
      <trkpt lat="41.9112070" lon="-8.6262470">
        <ele>202.0</ele>
        <time>2019-06-21T10:01:02Z</time>
      </trkpt>
      <trkpt lat="41.9112720" lon="-8.6262570">
        <ele>202.2</ele>
        <time>2019-06-21T10:01:06Z</time>
      </trkpt>
      <trkpt lat="41.9113030" lon="-8.6262590">
        <ele>202.2</ele>
        <time>2019-06-21T10:01:08Z</time>
      </trkpt>
      <trkpt lat="41.9113590" lon="-8.6262730">
        <ele>202.4</ele>
        <time>2019-06-21T10:01:12Z</time>
      </trkpt>
      <trkpt lat="41.9113930" lon="-8.6262770">
        <ele>202.4</ele>
        <time>2019-06-21T10:01:14Z</time>
      </trkpt>
      <trkpt lat="41.9114300" lon="-8.6262910">
        <ele>202.8</ele>
        <time>2019-06-21T10:01:16Z</time>
      </trkpt>
      <trkpt lat="41.9115360" lon="-8.6263290">
        <ele>203.0</ele>
        <time>2019-06-21T10:01:22Z</time>
      </trkpt>
      <trkpt lat="41.9116430" lon="-8.6263810">
        <ele>203.4</ele>
        <time>2019-06-21T10:01:28Z</time>
      </trkpt>
      <trkpt lat="41.9117190" lon="-8.6264190">
        <ele>203.8</ele>
        <time>2019-06-21T10:01:32Z</time>
      </trkpt>
      <trkpt lat="41.9117620" lon="-8.6264520">
        <ele>204.0</ele>
        <time>2019-06-21T10:01:35Z</time>
      </trkpt>
      <trkpt lat="41.9118230" lon="-8.6264980">
        <ele>204.2</ele>
        <time>2019-06-21T10:01:39Z</time>
      </trkpt>
      <trkpt lat="41.9118680" lon="-8.6265310">
        <ele>204.2</ele>
        <time>2019-06-21T10:01:42Z</time>
      </trkpt>
      <trkpt lat="41.9119670" lon="-8.6266080">
        <ele>205.0</ele>
        <time>2019-06-21T10:01:47Z</time>
      </trkpt>
      <trkpt lat="41.9120270" lon="-8.6266620">
        <ele>204.8</ele>
        <time>2019-06-21T10:01:50Z</time>
      </trkpt>
      <trkpt lat="41.9121550" lon="-8.6267830">
        <ele>205.2</ele>
        <time>2019-06-21T10:01:57Z</time>
      </trkpt>
      <trkpt lat="41.9123480" lon="-8.6269570">
        <ele>205.8</ele>
        <time>2019-06-21T10:02:06Z</time>
      </trkpt>
      <trkpt lat="41.9124500" lon="-8.6270560">
        <ele>206.0</ele>
        <time>2019-06-21T10:02:11Z</time>
      </trkpt>
      <trkpt lat="41.9125460" lon="-8.6271490">
        <ele>206.0</ele>
        <time>2019-06-21T10:02:15Z</time>
      </trkpt>
      <trkpt lat="41.9127780" lon="-8.6273400">
        <ele>206.6</ele>
        <time>2019-06-21T10:02:24Z</time>
      </trkpt>
      <trkpt lat="41.9128750" lon="-8.6274240">
        <ele>207.0</ele>
        <time>2019-06-21T10:02:28Z</time>
      </trkpt>
      <trkpt lat="41.9129580" lon="-8.6274680">
        <ele>207.4</ele>
        <time>2019-06-21T10:02:31Z</time>
      </trkpt>
      <trkpt lat="41.9131610" lon="-8.6274750">
        <ele>207.6</ele>
        <time>2019-06-21T10:02:37Z</time>
      </trkpt>
      <trkpt lat="41.9134340" lon="-8.6273930">
        <ele>206.4</ele>
        <time>2019-06-21T10:02:43Z</time>
      </trkpt>
      <trkpt lat="41.9136370" lon="-8.6273730">
        <ele>205.8</ele>
        <time>2019-06-21T10:02:47Z</time>
      </trkpt>
      <trkpt lat="41.9137770" lon="-8.6273810">
        <ele>205.8</ele>
        <time>2019-06-21T10:02:50Z</time>
      </trkpt>
      <trkpt lat="41.9138990" lon="-8.6273890">
        <ele>206.8</ele>
        <time>2019-06-21T10:02:53Z</time>
      </trkpt>
      <trkpt lat="41.9140310" lon="-8.6273790">
        <ele>206.6</ele>
        <time>2019-06-21T10:02:56Z</time>
      </trkpt>
      <trkpt lat="41.9143500" lon="-8.6273330">
        <ele>206.4</ele>
        <time>2019-06-21T10:03:03Z</time>
      </trkpt>
      <trkpt lat="41.9146700" lon="-8.6273300">
        <ele>206.0</ele>
        <time>2019-06-21T10:03:10Z</time>
      </trkpt>
      <trkpt lat="41.9148540" lon="-8.6272410">
        <ele>205.0</ele>
        <time>2019-06-21T10:03:14Z</time>
      </trkpt>
      <trkpt lat="41.9148970" lon="-8.6272140">
        <ele>204.8</ele>
        <time>2019-06-21T10:03:15Z</time>
      </trkpt>
      <trkpt lat="41.9149310" lon="-8.6271920">
        <ele>204.4</ele>
        <time>2019-06-21T10:03:16Z</time>
      </trkpt>
      <trkpt lat="41.9150100" lon="-8.6271580">
        <ele>203.6</ele>
        <time>2019-06-21T10:03:19Z</time>
      </trkpt>
      <trkpt lat="41.9150380" lon="-8.6271640">
        <ele>203.4</ele>
        <time>2019-06-21T10:03:20Z</time>
      </trkpt>
      <trkpt lat="41.9150840" lon="-8.6271990">
        <ele>203.2</ele>
        <time>2019-06-21T10:03:22Z</time>
      </trkpt>
      <trkpt lat="41.9151020" lon="-8.6272180">
        <ele>203.2</ele>
        <time>2019-06-21T10:03:23Z</time>
      </trkpt>
      <trkpt lat="41.9151510" lon="-8.6272540">
        <ele>204.2</ele>
        <time>2019-06-21T10:03:26Z</time>
      </trkpt>
      <trkpt lat="41.9151660" lon="-8.6272620">
        <ele>204.4</ele>
        <time>2019-06-21T10:03:27Z</time>
      </trkpt>
      <trkpt lat="41.9151820" lon="-8.6272710">
        <ele>204.6</ele>
        <time>2019-06-21T10:03:28Z</time>
      </trkpt>
      <trkpt lat="41.9151970" lon="-8.6272820">
        <ele>205.0</ele>
        <time>2019-06-21T10:03:29Z</time>
      </trkpt>
      <trkpt lat="41.9152420" lon="-8.6273190">
        <ele>205.2</ele>
        <time>2019-06-21T10:03:32Z</time>
      </trkpt>
      <trkpt lat="41.9152580" lon="-8.6273290">
        <ele>205.4</ele>
        <time>2019-06-21T10:03:33Z</time>
      </trkpt>
      <trkpt lat="41.9153240" lon="-8.6273540">
        <ele>206.0</ele>
        <time>2019-06-21T10:03:37Z</time>
      </trkpt>
      <trkpt lat="41.9153650" lon="-8.6273670">
        <ele>206.4</ele>
        <time>2019-06-21T10:03:40Z</time>
      </trkpt>
      <trkpt lat="41.9154170" lon="-8.6273820">
        <ele>206.4</ele>
        <time>2019-06-21T10:03:44Z</time>
      </trkpt>
      <trkpt lat="41.9155040" lon="-8.6273970">
        <ele>207.4</ele>
        <time>2019-06-21T10:03:51Z</time>
      </trkpt>
      <trkpt lat="41.9155150" lon="-8.6273980">
        <ele>207.6</ele>
        <time>2019-06-21T10:03:52Z</time>
      </trkpt>
      <trkpt lat="41.9155820" lon="-8.6274120">
        <ele>208.2</ele>
        <time>2019-06-21T10:03:58Z</time>
      </trkpt>
      <trkpt lat="41.9156090" lon="-8.6274220">
        <ele>208.8</ele>
        <time>2019-06-21T10:04:01Z</time>
      </trkpt>
      <trkpt lat="41.9156840" lon="-8.6274610">
        <ele>209.2</ele>
        <time>2019-06-21T10:04:06Z</time>
      </trkpt>
      <trkpt lat="41.9157580" lon="-8.6274950">
        <ele>210.0</ele>
        <time>2019-06-21T10:04:11Z</time>
      </trkpt>
      <trkpt lat="41.9157950" lon="-8.6275090">
        <ele>210.4</ele>
        <time>2019-06-21T10:04:14Z</time>
      </trkpt>
      <trkpt lat="41.9158550" lon="-8.6275370">
        <ele>211.0</ele>
        <time>2019-06-21T10:04:18Z</time>
      </trkpt>
      <trkpt lat="41.9158680" lon="-8.6275390">
        <ele>211.4</ele>
        <time>2019-06-21T10:04:20Z</time>
      </trkpt>
      <trkpt lat="41.9159480" lon="-8.6275640">
        <ele>212.2</ele>
        <time>2019-06-21T10:04:25Z</time>
      </trkpt>
      <trkpt lat="41.9159580" lon="-8.6275630">
        <ele>212.2</ele>
        <time>2019-06-21T10:04:26Z</time>
      </trkpt>
      <trkpt lat="41.9160550" lon="-8.6275470">
        <ele>213.0</ele>
        <time>2019-06-21T10:04:33Z</time>
      </trkpt>
      <trkpt lat="41.9160710" lon="-8.6275430">
        <ele>213.2</ele>
        <time>2019-06-21T10:04:34Z</time>
      </trkpt>
      <trkpt lat="41.9161900" lon="-8.6275360">
        <ele>213.4</ele>
        <time>2019-06-21T10:04:40Z</time>
      </trkpt>
      <trkpt lat="41.9163380" lon="-8.6275260">
        <ele>213.2</ele>
        <time>2019-06-21T10:04:46Z</time>
      </trkpt>
      <trkpt lat="41.9164630" lon="-8.6275950">
        <ele>212.4</ele>
        <time>2019-06-21T10:04:51Z</time>
      </trkpt>
      <trkpt lat="41.9165940" lon="-8.6276790">
        <ele>212.4</ele>
        <time>2019-06-21T10:04:56Z</time>
      </trkpt>
      <trkpt lat="41.9167300" lon="-8.6277520">
        <ele>212.8</ele>
        <time>2019-06-21T10:05:00Z</time>
      </trkpt>
      <trkpt lat="41.9168230" lon="-8.6278090">
        <ele>213.2</ele>
        <time>2019-06-21T10:05:03Z</time>
      </trkpt>
      <trkpt lat="41.9170680" lon="-8.6278890">
        <ele>213.4</ele>
        <time>2019-06-21T10:05:09Z</time>
      </trkpt>
      <trkpt lat="41.9173180" lon="-8.6279780">
        <ele>214.0</ele>
        <time>2019-06-21T10:05:16Z</time>
      </trkpt>
      <trkpt lat="41.9173490" lon="-8.6279920">
        <ele>214.2</ele>
        <time>2019-06-21T10:05:17Z</time>
      </trkpt>
      <trkpt lat="41.9174410" lon="-8.6280250">
        <ele>214.2</ele>
        <time>2019-06-21T10:05:21Z</time>
      </trkpt>
      <trkpt lat="41.9175690" lon="-8.6280450">
        <ele>214.8</ele>
        <time>2019-06-21T10:05:28Z</time>
      </trkpt>
      <trkpt lat="41.9176290" lon="-8.6280640">
        <ele>215.4</ele>
        <time>2019-06-21T10:05:31Z</time>
      </trkpt>
      <trkpt lat="41.9177160" lon="-8.6280950">
        <ele>216.2</ele>
        <time>2019-06-21T10:05:36Z</time>
      </trkpt>
      <trkpt lat="41.9177310" lon="-8.6281010">
        <ele>216.4</ele>
        <time>2019-06-21T10:05:37Z</time>
      </trkpt>
      <trkpt lat="41.9178380" lon="-8.6281170">
        <ele>216.8</ele>
        <time>2019-06-21T10:05:42Z</time>
      </trkpt>
      <trkpt lat="41.9180000" lon="-8.6281340">
        <ele>217.0</ele>
        <time>2019-06-21T10:05:49Z</time>
      </trkpt>
      <trkpt lat="41.9181720" lon="-8.6281480">
        <ele>217.2</ele>
        <time>2019-06-21T10:05:55Z</time>
      </trkpt>
      <trkpt lat="41.9183390" lon="-8.6281520">
        <ele>217.2</ele>
        <time>2019-06-21T10:06:01Z</time>
      </trkpt>
      <trkpt lat="41.9183890" lon="-8.6281630">
        <ele>217.4</ele>
        <time>2019-06-21T10:06:03Z</time>
      </trkpt>
      <trkpt lat="41.9185730" lon="-8.6282410">
        <ele>217.6</ele>
        <time>2019-06-21T10:06:09Z</time>
      </trkpt>
      <trkpt lat="41.9187130" lon="-8.6282820">
        <ele>217.8</ele>
        <time>2019-06-21T10:06:14Z</time>
      </trkpt>
      <trkpt lat="41.9188900" lon="-8.6283330">
        <ele>217.6</ele>
        <time>2019-06-21T10:06:20Z</time>
      </trkpt>
      <trkpt lat="41.9189410" lon="-8.6283540">
        <ele>217.8</ele>
        <time>2019-06-21T10:06:22Z</time>
      </trkpt>
      <trkpt lat="41.9189900" lon="-8.6283720">
        <ele>218.0</ele>
        <time>2019-06-21T10:06:24Z</time>
      </trkpt>
      <trkpt lat="41.9190470" lon="-8.6284080">
        <ele>218.4</ele>
        <time>2019-06-21T10:06:27Z</time>
      </trkpt>
      <trkpt lat="41.9191130" lon="-8.6284370">
        <ele>218.6</ele>
        <time>2019-06-21T10:06:30Z</time>
      </trkpt>
      <trkpt lat="41.9191820" lon="-8.6284710">
        <ele>219.0</ele>
        <time>2019-06-21T10:06:33Z</time>
      </trkpt>
      <trkpt lat="41.9193280" lon="-8.6285680">
        <ele>219.2</ele>
        <time>2019-06-21T10:06:39Z</time>
      </trkpt>
      <trkpt lat="41.9194790" lon="-8.6286560">
        <ele>219.6</ele>
        <time>2019-06-21T10:06:45Z</time>
      </trkpt>
      <trkpt lat="41.9195100" lon="-8.6286650">
        <ele>219.8</ele>
        <time>2019-06-21T10:06:46Z</time>
      </trkpt>
      <trkpt lat="41.9197310" lon="-8.6287150">
        <ele>220.0</ele>
        <time>2019-06-21T10:06:53Z</time>
      </trkpt>
      <trkpt lat="41.9198870" lon="-8.6287060">
        <ele>219.0</ele>
        <time>2019-06-21T10:06:57Z</time>
      </trkpt>
      <trkpt lat="41.9199310" lon="-8.6287010">
        <ele>218.4</ele>
        <time>2019-06-21T10:06:58Z</time>
      </trkpt>
      <trkpt lat="41.9199730" lon="-8.6286890">
        <ele>218.6</ele>
        <time>2019-06-21T10:06:59Z</time>
      </trkpt>
      <trkpt lat="41.9201130" lon="-8.6286380">
        <ele>218.4</ele>
        <time>2019-06-21T10:07:02Z</time>
      </trkpt>
      <trkpt lat="41.9202090" lon="-8.6286320">
        <ele>217.0</ele>
        <time>2019-06-21T10:07:04Z</time>
      </trkpt>
      <trkpt lat="41.9204070" lon="-8.6286410">
        <ele>217.0</ele>
        <time>2019-06-21T10:07:08Z</time>
      </trkpt>
      <trkpt lat="41.9205020" lon="-8.6286670">
        <ele>216.6</ele>
        <time>2019-06-21T10:07:10Z</time>
      </trkpt>
      <trkpt lat="41.9206230" lon="-8.6287320">
        <ele>216.6</ele>
        <time>2019-06-21T10:07:13Z</time>
      </trkpt>
      <trkpt lat="41.9206620" lon="-8.6287500">
        <ele>216.8</ele>
        <time>2019-06-21T10:07:14Z</time>
      </trkpt>
      <trkpt lat="41.9207690" lon="-8.6287480">
        <ele>217.0</ele>
        <time>2019-06-21T10:07:17Z</time>
      </trkpt>
      <trkpt lat="41.9208010" lon="-8.6287310">
        <ele>217.0</ele>
        <time>2019-06-21T10:07:18Z</time>
      </trkpt>
      <trkpt lat="41.9208850" lon="-8.6286750">
        <ele>217.4</ele>
        <time>2019-06-21T10:07:22Z</time>
      </trkpt>
      <trkpt lat="41.9209180" lon="-8.6286510">
        <ele>218.0</ele>
        <time>2019-06-21T10:07:25Z</time>
      </trkpt>
      <trkpt lat="41.9209720" lon="-8.6286080">
        <ele>218.6</ele>
        <time>2019-06-21T10:07:29Z</time>
      </trkpt>
      <trkpt lat="41.9210010" lon="-8.6285870">
        <ele>219.0</ele>
        <time>2019-06-21T10:07:31Z</time>
      </trkpt>
      <trkpt lat="41.9210520" lon="-8.6285620">
        <ele>219.6</ele>
        <time>2019-06-21T10:07:34Z</time>
      </trkpt>
      <trkpt lat="41.9211030" lon="-8.6285260">
        <ele>220.0</ele>
        <time>2019-06-21T10:07:37Z</time>
      </trkpt>
      <trkpt lat="41.9211240" lon="-8.6285090">
        <ele>220.0</ele>
        <time>2019-06-21T10:07:38Z</time>
      </trkpt>
      <trkpt lat="41.9211710" lon="-8.6284600">
        <ele>220.4</ele>
        <time>2019-06-21T10:07:41Z</time>
      </trkpt>
      <trkpt lat="41.9212050" lon="-8.6284310">
        <ele>220.6</ele>
        <time>2019-06-21T10:07:43Z</time>
      </trkpt>
      <trkpt lat="41.9212480" lon="-8.6283820">
        <ele>221.2</ele>
        <time>2019-06-21T10:07:46Z</time>
      </trkpt>
      <trkpt lat="41.9212990" lon="-8.6283160">
        <ele>221.4</ele>
        <time>2019-06-21T10:07:50Z</time>
      </trkpt>
      <trkpt lat="41.9214010" lon="-8.6282200">
        <ele>222.2</ele>
        <time>2019-06-21T10:07:56Z</time>
      </trkpt>
      <trkpt lat="41.9214190" lon="-8.6282010">
        <ele>222.2</ele>
        <time>2019-06-21T10:07:57Z</time>
      </trkpt>
      <trkpt lat="41.9214380" lon="-8.6281860">
        <ele>222.4</ele>
        <time>2019-06-21T10:07:58Z</time>
      </trkpt>
      <trkpt lat="41.9215430" lon="-8.6281060">
        <ele>222.8</ele>
        <time>2019-06-21T10:08:03Z</time>
      </trkpt>
      <trkpt lat="41.9217260" lon="-8.6280250">
        <ele>223.2</ele>
        <time>2019-06-21T10:08:11Z</time>
      </trkpt>
      <trkpt lat="41.9217470" lon="-8.6280170">
        <ele>223.4</ele>
        <time>2019-06-21T10:08:12Z</time>
      </trkpt>
      <trkpt lat="41.9218840" lon="-8.6280050">
        <ele>223.8</ele>
        <time>2019-06-21T10:08:19Z</time>
      </trkpt>
      <trkpt lat="41.9219590" lon="-8.6280020">
        <ele>224.4</ele>
        <time>2019-06-21T10:08:24Z</time>
      </trkpt>
      <trkpt lat="41.9219890" lon="-8.6280000">
        <ele>224.8</ele>
        <time>2019-06-21T10:08:26Z</time>
      </trkpt>
      <trkpt lat="41.9220600" lon="-8.6279960">
        <ele>225.6</ele>
        <time>2019-06-21T10:08:31Z</time>
      </trkpt>
      <trkpt lat="41.9221020" lon="-8.6279980">
        <ele>226.0</ele>
        <time>2019-06-21T10:08:34Z</time>
      </trkpt>
      <trkpt lat="41.9221710" lon="-8.6280040">
        <ele>226.6</ele>
        <time>2019-06-21T10:08:39Z</time>
      </trkpt>
      <trkpt lat="41.9221970" lon="-8.6280100">
        <ele>226.8</ele>
        <time>2019-06-21T10:08:41Z</time>
      </trkpt>
      <trkpt lat="41.9222810" lon="-8.6280020">
        <ele>227.6</ele>
        <time>2019-06-21T10:08:47Z</time>
      </trkpt>
      <trkpt lat="41.9223230" lon="-8.6279940">
        <ele>228.0</ele>
        <time>2019-06-21T10:08:49Z</time>
      </trkpt>
      <trkpt lat="41.9224620" lon="-8.6280540">
        <ele>228.0</ele>
        <time>2019-06-21T10:08:56Z</time>
      </trkpt>
      <trkpt lat="41.9225900" lon="-8.6281180">
        <ele>228.4</ele>
        <time>2019-06-21T10:09:04Z</time>
      </trkpt>
      <trkpt lat="41.9226140" lon="-8.6281330">
        <ele>228.8</ele>
        <time>2019-06-21T10:09:06Z</time>
      </trkpt>
      <trkpt lat="41.9226780" lon="-8.6281670">
        <ele>229.6</ele>
        <time>2019-06-21T10:09:12Z</time>
      </trkpt>
      <trkpt lat="41.9227120" lon="-8.6281890">
        <ele>230.2</ele>
        <time>2019-06-21T10:09:15Z</time>
      </trkpt>
      <trkpt lat="41.9227640" lon="-8.6282150">
        <ele>230.6</ele>
        <time>2019-06-21T10:09:20Z</time>
      </trkpt>
      <trkpt lat="41.9227920" lon="-8.6282190">
        <ele>231.2</ele>
        <time>2019-06-21T10:09:22Z</time>
      </trkpt>
      <trkpt lat="41.9228650" lon="-8.6282490">
        <ele>231.4</ele>
        <time>2019-06-21T10:09:28Z</time>
      </trkpt>
      <trkpt lat="41.9229640" lon="-8.6282960">
        <ele>232.2</ele>
        <time>2019-06-21T10:09:35Z</time>
      </trkpt>
      <trkpt lat="41.9229940" lon="-8.6283100">
        <ele>232.4</ele>
        <time>2019-06-21T10:09:37Z</time>
      </trkpt>
      <trkpt lat="41.9230440" lon="-8.6283280">
        <ele>232.8</ele>
        <time>2019-06-21T10:09:41Z</time>
      </trkpt>
      <trkpt lat="41.9230570" lon="-8.6283320">
        <ele>233.0</ele>
        <time>2019-06-21T10:09:42Z</time>
      </trkpt>
      <trkpt lat="41.9230950" lon="-8.6283240">
        <ele>233.4</ele>
        <time>2019-06-21T10:09:45Z</time>
      </trkpt>
      <trkpt lat="41.9231200" lon="-8.6283160">
        <ele>233.4</ele>
        <time>2019-06-21T10:09:47Z</time>
      </trkpt>
      <trkpt lat="41.9231420" lon="-8.6283140">
        <ele>233.6</ele>
        <time>2019-06-21T10:09:49Z</time>
      </trkpt>
      <trkpt lat="41.9232670" lon="-8.6282930">
        <ele>234.2</ele>
        <time>2019-06-21T10:09:56Z</time>
      </trkpt>
      <trkpt lat="41.9232980" lon="-8.6282890">
        <ele>234.6</ele>
        <time>2019-06-21T10:09:58Z</time>
      </trkpt>
      <trkpt lat="41.9233590" lon="-8.6282970">
        <ele>235.4</ele>
        <time>2019-06-21T10:10:02Z</time>
      </trkpt>
      <trkpt lat="41.9233890" lon="-8.6283060">
        <ele>235.8</ele>
        <time>2019-06-21T10:10:04Z</time>
      </trkpt>
      <trkpt lat="41.9234710" lon="-8.6283100">
        <ele>236.8</ele>
        <time>2019-06-21T10:10:12Z</time>
      </trkpt>
      <trkpt lat="41.9235860" lon="-8.6282800">
        <ele>238.0</ele>
        <time>2019-06-21T10:10:20Z</time>
      </trkpt>
      <trkpt lat="41.9235960" lon="-8.6282820">
        <ele>238.2</ele>
        <time>2019-06-21T10:10:21Z</time>
      </trkpt>
      <trkpt lat="41.9236400" lon="-8.6282820">
        <ele>239.0</ele>
        <time>2019-06-21T10:10:26Z</time>
      </trkpt>
      <trkpt lat="41.9236850" lon="-8.6282660">
        <ele>239.4</ele>
        <time>2019-06-21T10:10:29Z</time>
      </trkpt>
      <trkpt lat="41.9237170" lon="-8.6282520">
        <ele>239.4</ele>
        <time>2019-06-21T10:10:31Z</time>
      </trkpt>
      <trkpt lat="41.9238100" lon="-8.6282190">
        <ele>240.0</ele>
        <time>2019-06-21T10:10:37Z</time>
      </trkpt>
      <trkpt lat="41.9239440" lon="-8.6281920">
        <ele>240.4</ele>
        <time>2019-06-21T10:10:44Z</time>
      </trkpt>
      <trkpt lat="41.9241140" lon="-8.6282200">
        <ele>240.2</ele>
        <time>2019-06-21T10:10:50Z</time>
      </trkpt>
      <trkpt lat="41.9242750" lon="-8.6282770">
        <ele>239.8</ele>
        <time>2019-06-21T10:10:56Z</time>
      </trkpt>
      <trkpt lat="41.9244690" lon="-8.6283280">
        <ele>240.0</ele>
        <time>2019-06-21T10:11:02Z</time>
      </trkpt>
      <trkpt lat="41.9245380" lon="-8.6283460">
        <ele>240.2</ele>
        <time>2019-06-21T10:11:04Z</time>
      </trkpt>
      <trkpt lat="41.9246510" lon="-8.6283910">
        <ele>240.0</ele>
        <time>2019-06-21T10:11:08Z</time>
      </trkpt>
      <trkpt lat="41.9247110" lon="-8.6284220">
        <ele>240.2</ele>
        <time>2019-06-21T10:11:10Z</time>
      </trkpt>
      <trkpt lat="41.9247750" lon="-8.6284540">
        <ele>240.4</ele>
        <time>2019-06-21T10:11:12Z</time>
      </trkpt>
      <trkpt lat="41.9249410" lon="-8.6285280">
        <ele>240.8</ele>
        <time>2019-06-21T10:11:18Z</time>
      </trkpt>
      <trkpt lat="41.9250900" lon="-8.6286020">
        <ele>241.2</ele>
        <time>2019-06-21T10:11:24Z</time>
      </trkpt>
      <trkpt lat="41.9251140" lon="-8.6286120">
        <ele>241.2</ele>
        <time>2019-06-21T10:11:25Z</time>
      </trkpt>
      <trkpt lat="41.9252830" lon="-8.6286830">
        <ele>242.4</ele>
        <time>2019-06-21T10:11:33Z</time>
      </trkpt>
      <trkpt lat="41.9253030" lon="-8.6286880">
        <ele>242.4</ele>
        <time>2019-06-21T10:11:34Z</time>
      </trkpt>
      <trkpt lat="41.9254360" lon="-8.6287280">
        <ele>243.4</ele>
        <time>2019-06-21T10:11:41Z</time>
      </trkpt>
      <trkpt lat="41.9254540" lon="-8.6287190">
        <ele>243.4</ele>
        <time>2019-06-21T10:11:42Z</time>
      </trkpt>
      <trkpt lat="41.9254810" lon="-8.6286850">
        <ele>243.4</ele>
        <time>2019-06-21T10:11:44Z</time>
      </trkpt>
      <trkpt lat="41.9255010" lon="-8.6286180">
        <ele>243.4</ele>
        <time>2019-06-21T10:11:47Z</time>
      </trkpt>
      <trkpt lat="41.9255080" lon="-8.6285510">
        <ele>244.6</ele>
        <time>2019-06-21T10:11:50Z</time>
      </trkpt>
      <trkpt lat="41.9255150" lon="-8.6284820">
        <ele>245.0</ele>
        <time>2019-06-21T10:11:53Z</time>
      </trkpt>
      <trkpt lat="41.9255170" lon="-8.6283990">
        <ele>245.6</ele>
        <time>2019-06-21T10:11:57Z</time>
      </trkpt>
      <trkpt lat="41.9255320" lon="-8.6283400">
        <ele>246.0</ele>
        <time>2019-06-21T10:12:00Z</time>
      </trkpt>
      <trkpt lat="41.9255530" lon="-8.6282750">
        <ele>246.8</ele>
        <time>2019-06-21T10:12:03Z</time>
      </trkpt>
      <trkpt lat="41.9255880" lon="-8.6281880">
        <ele>247.6</ele>
        <time>2019-06-21T10:12:08Z</time>
      </trkpt>
      <trkpt lat="41.9256080" lon="-8.6281550">
        <ele>247.8</ele>
        <time>2019-06-21T10:12:10Z</time>
      </trkpt>
      <trkpt lat="41.9256560" lon="-8.6280470">
        <ele>248.6</ele>
        <time>2019-06-21T10:12:16Z</time>
      </trkpt>
      <trkpt lat="41.9256790" lon="-8.6279910">
        <ele>249.0</ele>
        <time>2019-06-21T10:12:19Z</time>
      </trkpt>
      <trkpt lat="41.9257010" lon="-8.6279600">
        <ele>249.2</ele>
        <time>2019-06-21T10:12:21Z</time>
      </trkpt>
      <trkpt lat="41.9257740" lon="-8.6278260">
        <ele>250.2</ele>
        <time>2019-06-21T10:12:28Z</time>
      </trkpt>
      <trkpt lat="41.9258250" lon="-8.6276820">
        <ele>251.2</ele>
        <time>2019-06-21T10:12:35Z</time>
      </trkpt>
      <trkpt lat="41.9258340" lon="-8.6276140">
        <ele>251.6</ele>
        <time>2019-06-21T10:12:38Z</time>
      </trkpt>
      <trkpt lat="41.9258280" lon="-8.6275010">
        <ele>252.4</ele>
        <time>2019-06-21T10:12:43Z</time>
      </trkpt>
      <trkpt lat="41.9258220" lon="-8.6274550">
        <ele>252.6</ele>
        <time>2019-06-21T10:12:45Z</time>
      </trkpt>
      <trkpt lat="41.9258130" lon="-8.6274340">
        <ele>252.6</ele>
        <time>2019-06-21T10:12:46Z</time>
      </trkpt>
      <trkpt lat="41.9257820" lon="-8.6273470">
        <ele>253.0</ele>
        <time>2019-06-21T10:12:50Z</time>
      </trkpt>
      <trkpt lat="41.9257370" lon="-8.6272600">
        <ele>253.4</ele>
        <time>2019-06-21T10:12:54Z</time>
      </trkpt>
      <trkpt lat="41.9256870" lon="-8.6271830">
        <ele>253.6</ele>
        <time>2019-06-21T10:12:58Z</time>
      </trkpt>
      <trkpt lat="41.9255800" lon="-8.6270120">
        <ele>254.2</ele>
        <time>2019-06-21T10:13:07Z</time>
      </trkpt>
      <trkpt lat="41.9255720" lon="-8.6269470">
        <ele>254.4</ele>
        <time>2019-06-21T10:13:10Z</time>
      </trkpt>
      <trkpt lat="41.9255870" lon="-8.6268650">
        <ele>255.2</ele>
        <time>2019-06-21T10:13:14Z</time>
      </trkpt>
      <trkpt lat="41.9255950" lon="-8.6268560">
        <ele>255.4</ele>
        <time>2019-06-21T10:13:15Z</time>
      </trkpt>
      <trkpt lat="41.9256070" lon="-8.6268240">
        <ele>255.4</ele>
        <time>2019-06-21T10:13:17Z</time>
      </trkpt>
      <trkpt lat="41.9256220" lon="-8.6267890">
        <ele>255.8</ele>
        <time>2019-06-21T10:13:19Z</time>
      </trkpt>
      <trkpt lat="41.9256650" lon="-8.6267300">
        <ele>256.6</ele>
        <time>2019-06-21T10:13:24Z</time>
      </trkpt>
      <trkpt lat="41.9256770" lon="-8.6267230">
        <ele>256.8</ele>
        <time>2019-06-21T10:13:25Z</time>
      </trkpt>
      <trkpt lat="41.9257410" lon="-8.6267060">
        <ele>257.6</ele>
        <time>2019-06-21T10:13:30Z</time>
      </trkpt>
      <trkpt lat="41.9257690" lon="-8.6267030">
        <ele>258.0</ele>
        <time>2019-06-21T10:13:32Z</time>
      </trkpt>
      <trkpt lat="41.9258350" lon="-8.6266710">
        <ele>258.6</ele>
        <time>2019-06-21T10:13:37Z</time>
      </trkpt>
      <trkpt lat="41.9258750" lon="-8.6266520">
        <ele>259.2</ele>
        <time>2019-06-21T10:13:40Z</time>
      </trkpt>
      <trkpt lat="41.9259980" lon="-8.6266570">
        <ele>259.8</ele>
        <time>2019-06-21T10:13:48Z</time>
      </trkpt>
      <trkpt lat="41.9261260" lon="-8.6266940">
        <ele>260.6</ele>
        <time>2019-06-21T10:13:55Z</time>
      </trkpt>
      <trkpt lat="41.9261460" lon="-8.6267020">
        <ele>260.8</ele>
        <time>2019-06-21T10:13:56Z</time>
      </trkpt>
      <trkpt lat="41.9262840" lon="-8.6267250">
        <ele>261.8</ele>
        <time>2019-06-21T10:14:03Z</time>
      </trkpt>
      <trkpt lat="41.9264570" lon="-8.6267050">
        <ele>262.6</ele>
        <time>2019-06-21T10:14:12Z</time>
      </trkpt>
      <trkpt lat="41.9264910" lon="-8.6267040">
        <ele>263.0</ele>
        <time>2019-06-21T10:14:14Z</time>
      </trkpt>
      <trkpt lat="41.9265830" lon="-8.6266670">
        <ele>263.4</ele>
        <time>2019-06-21T10:14:19Z</time>
      </trkpt>
      <trkpt lat="41.9266950" lon="-8.6266570">
        <ele>263.6</ele>
        <time>2019-06-21T10:14:25Z</time>
      </trkpt>
      <trkpt lat="41.9267150" lon="-8.6266620">
        <ele>264.0</ele>
        <time>2019-06-21T10:14:26Z</time>
      </trkpt>
      <trkpt lat="41.9268540" lon="-8.6266850">
        <ele>264.6</ele>
        <time>2019-06-21T10:14:33Z</time>
      </trkpt>
      <trkpt lat="41.9269310" lon="-8.6266870">
        <ele>265.0</ele>
        <time>2019-06-21T10:14:37Z</time>
      </trkpt>
      <trkpt lat="41.9269490" lon="-8.6266980">
        <ele>265.0</ele>
        <time>2019-06-21T10:14:38Z</time>
      </trkpt>
      <trkpt lat="41.9271100" lon="-8.6267700">
        <ele>264.8</ele>
        <time>2019-06-21T10:14:44Z</time>
      </trkpt>
      <trkpt lat="41.9272750" lon="-8.6267860">
        <ele>266.0</ele>
        <time>2019-06-21T10:14:51Z</time>
      </trkpt>
      <trkpt lat="41.9274350" lon="-8.6268240">
        <ele>267.0</ele>
        <time>2019-06-21T10:14:58Z</time>
      </trkpt>
      <trkpt lat="41.9276280" lon="-8.6268340">
        <ele>267.4</ele>
        <time>2019-06-21T10:15:06Z</time>
      </trkpt>
      <trkpt lat="41.9278040" lon="-8.6268060">
        <ele>267.0</ele>
        <time>2019-06-21T10:15:12Z</time>
      </trkpt>
      <trkpt lat="41.9280120" lon="-8.6268330">
        <ele>267.4</ele>
        <time>2019-06-21T10:15:19Z</time>
      </trkpt>
      <trkpt lat="41.9282990" lon="-8.6269540">
        <ele>268.0</ele>
        <time>2019-06-21T10:15:28Z</time>
      </trkpt>
      <trkpt lat="41.9283320" lon="-8.6269690">
        <ele>268.0</ele>
        <time>2019-06-21T10:15:29Z</time>
      </trkpt>
      <trkpt lat="41.9286010" lon="-8.6271010">
        <ele>268.4</ele>
        <time>2019-06-21T10:15:37Z</time>
      </trkpt>
      <trkpt lat="41.9287710" lon="-8.6272220">
        <ele>268.8</ele>
        <time>2019-06-21T10:15:42Z</time>
      </trkpt>
      <trkpt lat="41.9288610" lon="-8.6272660">
        <ele>268.8</ele>
        <time>2019-06-21T10:15:45Z</time>
      </trkpt>
      <trkpt lat="41.9289280" lon="-8.6272860">
        <ele>269.2</ele>
        <time>2019-06-21T10:15:47Z</time>
      </trkpt>
      <trkpt lat="41.9291880" lon="-8.6274300">
        <ele>269.6</ele>
        <time>2019-06-21T10:15:55Z</time>
      </trkpt>
      <trkpt lat="41.9293900" lon="-8.6276090">
        <ele>270.4</ele>
        <time>2019-06-21T10:16:02Z</time>
      </trkpt>
      <trkpt lat="41.9295730" lon="-8.6276790">
        <ele>270.8</ele>
        <time>2019-06-21T10:16:08Z</time>
      </trkpt>
      <trkpt lat="41.9296940" lon="-8.6277080">
        <ele>271.6</ele>
        <time>2019-06-21T10:16:12Z</time>
      </trkpt>
      <trkpt lat="41.9297540" lon="-8.6277280">
        <ele>271.8</ele>
        <time>2019-06-21T10:16:14Z</time>
      </trkpt>
      <trkpt lat="41.9298820" lon="-8.6277960">
        <ele>272.8</ele>
        <time>2019-06-21T10:16:19Z</time>
      </trkpt>
      <trkpt lat="41.9299150" lon="-8.6278330">
        <ele>273.2</ele>
        <time>2019-06-21T10:16:21Z</time>
      </trkpt>
      <trkpt lat="41.9300000" lon="-8.6279340">
        <ele>273.8</ele>
        <time>2019-06-21T10:16:26Z</time>
      </trkpt>
      <trkpt lat="41.9300540" lon="-8.6279870">
        <ele>274.4</ele>
        <time>2019-06-21T10:16:29Z</time>
      </trkpt>
      <trkpt lat="41.9301430" lon="-8.6280370">
        <ele>275.0</ele>
        <time>2019-06-21T10:16:33Z</time>
      </trkpt>
      <trkpt lat="41.9302110" lon="-8.6280650">
        <ele>275.2</ele>
        <time>2019-06-21T10:16:36Z</time>
      </trkpt>
      <trkpt lat="41.9303270" lon="-8.6280960">
        <ele>276.2</ele>
        <time>2019-06-21T10:16:42Z</time>
      </trkpt>
      <trkpt lat="41.9304660" lon="-8.6281350">
        <ele>277.4</ele>
        <time>2019-06-21T10:16:50Z</time>
      </trkpt>
      <trkpt lat="41.9305790" lon="-8.6281690">
        <ele>278.4</ele>
        <time>2019-06-21T10:16:57Z</time>
      </trkpt>
      <trkpt lat="41.9305900" lon="-8.6281690">
        <ele>278.6</ele>
        <time>2019-06-21T10:16:58Z</time>
      </trkpt>
      <trkpt lat="41.9306650" lon="-8.6281690">
        <ele>279.6</ele>
        <time>2019-06-21T10:17:04Z</time>
      </trkpt>
      <trkpt lat="41.9306820" lon="-8.6281710">
        <ele>279.8</ele>
        <time>2019-06-21T10:17:05Z</time>
      </trkpt>
      <trkpt lat="41.9307670" lon="-8.6281990">
        <ele>280.8</ele>
        <time>2019-06-21T10:17:10Z</time>
      </trkpt>
      <trkpt lat="41.9307950" lon="-8.6281990">
        <ele>281.0</ele>
        <time>2019-06-21T10:17:12Z</time>
      </trkpt>
      <trkpt lat="41.9308270" lon="-8.6281970">
        <ele>281.8</ele>
        <time>2019-06-21T10:17:14Z</time>
      </trkpt>
      <trkpt lat="41.9308870" lon="-8.6281850">
        <ele>282.4</ele>
        <time>2019-06-21T10:17:18Z</time>
      </trkpt>
      <trkpt lat="41.9309090" lon="-8.6281800">
        <ele>282.6</ele>
        <time>2019-06-21T10:17:20Z</time>
      </trkpt>
      <trkpt lat="41.9309240" lon="-8.6281750">
        <ele>282.8</ele>
        <time>2019-06-21T10:17:21Z</time>
      </trkpt>
      <trkpt lat="41.9310210" lon="-8.6281570">
        <ele>283.6</ele>
        <time>2019-06-21T10:17:27Z</time>
      </trkpt>
      <trkpt lat="41.9310340" lon="-8.6281500">
        <ele>283.8</ele>
        <time>2019-06-21T10:17:28Z</time>
      </trkpt>
      <trkpt lat="41.9311470" lon="-8.6281330">
        <ele>284.6</ele>
        <time>2019-06-21T10:17:35Z</time>
      </trkpt>
      <trkpt lat="41.9311960" lon="-8.6281260">
        <ele>284.8</ele>
        <time>2019-06-21T10:17:38Z</time>
      </trkpt>
      <trkpt lat="41.9312860" lon="-8.6281110">
        <ele>285.4</ele>
        <time>2019-06-21T10:17:43Z</time>
      </trkpt>
      <trkpt lat="41.9314240" lon="-8.6280960">
        <ele>285.8</ele>
        <time>2019-06-21T10:17:50Z</time>
      </trkpt>
      <trkpt lat="41.9314470" lon="-8.6281020">
        <ele>286.0</ele>
        <time>2019-06-21T10:17:51Z</time>
      </trkpt>
      <trkpt lat="41.9315700" lon="-8.6282150">
        <ele>286.2</ele>
        <time>2019-06-21T10:17:57Z</time>
      </trkpt>
      <trkpt lat="41.9316450" lon="-8.6282730">
        <ele>286.4</ele>
        <time>2019-06-21T10:18:01Z</time>
      </trkpt>
      <trkpt lat="41.9316750" lon="-8.6282750">
        <ele>286.4</ele>
        <time>2019-06-21T10:18:02Z</time>
      </trkpt>
      <trkpt lat="41.9318270" lon="-8.6282560">
        <ele>286.2</ele>
        <time>2019-06-21T10:18:07Z</time>
      </trkpt>
      <trkpt lat="41.9318570" lon="-8.6282550">
        <ele>286.4</ele>
        <time>2019-06-21T10:18:08Z</time>
      </trkpt>
      <trkpt lat="41.9319430" lon="-8.6282310">
        <ele>286.4</ele>
        <time>2019-06-21T10:18:11Z</time>
      </trkpt>
      <trkpt lat="41.9320250" lon="-8.6282040">
        <ele>286.2</ele>
        <time>2019-06-21T10:18:14Z</time>
      </trkpt>
      <trkpt lat="41.9321150" lon="-8.6281750">
        <ele>285.2</ele>
        <time>2019-06-21T10:18:18Z</time>
      </trkpt>
      <trkpt lat="41.9321740" lon="-8.6281600">
        <ele>285.0</ele>
        <time>2019-06-21T10:18:21Z</time>
      </trkpt>
      <trkpt lat="41.9321930" lon="-8.6281450">
        <ele>284.8</ele>
        <time>2019-06-21T10:18:22Z</time>
      </trkpt>
      <trkpt lat="41.9322120" lon="-8.6281520">
        <ele>284.8</ele>
        <time>2019-06-21T10:18:23Z</time>
      </trkpt>
      <trkpt lat="41.9322170" lon="-8.6282050">
        <ele>285.0</ele>
        <time>2019-06-21T10:18:25Z</time>
      </trkpt>
      <trkpt lat="41.9321920" lon="-8.6282650">
        <ele>284.6</ele>
        <time>2019-06-21T10:18:27Z</time>
      </trkpt>
      <trkpt lat="41.9321770" lon="-8.6283300">
        <ele>285.2</ele>
        <time>2019-06-21T10:18:30Z</time>
      </trkpt>
      <trkpt lat="41.9321730" lon="-8.6284080">
        <ele>286.0</ele>
        <time>2019-06-21T10:18:34Z</time>
      </trkpt>
      <trkpt lat="41.9321820" lon="-8.6284700">
        <ele>286.2</ele>
        <time>2019-06-21T10:18:37Z</time>
      </trkpt>
      <trkpt lat="41.9321890" lon="-8.6286020">
        <ele>287.2</ele>
        <time>2019-06-21T10:18:43Z</time>
      </trkpt>
      <trkpt lat="41.9321860" lon="-8.6286240">
        <ele>287.2</ele>
        <time>2019-06-21T10:18:44Z</time>
      </trkpt>
      <trkpt lat="41.9321930" lon="-8.6286400">
        <ele>287.4</ele>
        <time>2019-06-21T10:18:45Z</time>
      </trkpt>
      <trkpt lat="41.9322090" lon="-8.6287040">
        <ele>287.8</ele>
        <time>2019-06-21T10:18:48Z</time>
      </trkpt>
      <trkpt lat="41.9322190" lon="-8.6287280">
        <ele>288.0</ele>
        <time>2019-06-21T10:18:49Z</time>
      </trkpt>
      <trkpt lat="41.9322670" lon="-8.6288460">
        <ele>288.2</ele>
        <time>2019-06-21T10:18:54Z</time>
      </trkpt>
      <trkpt lat="41.9322740" lon="-8.6288620">
        <ele>288.4</ele>
        <time>2019-06-21T10:18:55Z</time>
      </trkpt>
      <trkpt lat="41.9323110" lon="-8.6289690">
        <ele>288.4</ele>
        <time>2019-06-21T10:19:00Z</time>
      </trkpt>
      <trkpt lat="41.9323450" lon="-8.6290670">
        <ele>288.2</ele>
        <time>2019-06-21T10:19:03Z</time>
      </trkpt>
      <trkpt lat="41.9323690" lon="-8.6291430">
        <ele>288.0</ele>
        <time>2019-06-21T10:19:05Z</time>
      </trkpt>
      <trkpt lat="41.9324350" lon="-8.6292780">
        <ele>287.0</ele>
        <time>2019-06-21T10:19:08Z</time>
      </trkpt>
      <trkpt lat="41.9325060" lon="-8.6293870">
        <ele>287.0</ele>
        <time>2019-06-21T10:19:10Z</time>
      </trkpt>
      <trkpt lat="41.9325750" lon="-8.6295100">
        <ele>286.2</ele>
        <time>2019-06-21T10:19:12Z</time>
      </trkpt>
      <trkpt lat="41.9325970" lon="-8.6295820">
        <ele>285.8</ele>
        <time>2019-06-21T10:19:13Z</time>
      </trkpt>
      <trkpt lat="41.9326140" lon="-8.6296550">
        <ele>285.4</ele>
        <time>2019-06-21T10:19:14Z</time>
      </trkpt>
      <trkpt lat="41.9326350" lon="-8.6297190">
        <ele>284.6</ele>
        <time>2019-06-21T10:19:15Z</time>
      </trkpt>
      <trkpt lat="41.9326950" lon="-8.6298410">
        <ele>284.6</ele>
        <time>2019-06-21T10:19:17Z</time>
      </trkpt>
      <trkpt lat="41.9327370" lon="-8.6298690">
        <ele>285.0</ele>
        <time>2019-06-21T10:19:18Z</time>
      </trkpt>
      <trkpt lat="41.9328610" lon="-8.6299380">
        <ele>284.6</ele>
        <time>2019-06-21T10:19:21Z</time>
      </trkpt>
      <trkpt lat="41.9328990" lon="-8.6299530">
        <ele>284.4</ele>
        <time>2019-06-21T10:19:22Z</time>
      </trkpt>
      <trkpt lat="41.9329730" lon="-8.6299850">
        <ele>284.2</ele>
        <time>2019-06-21T10:19:24Z</time>
      </trkpt>
      <trkpt lat="41.9331330" lon="-8.6300770">
        <ele>283.8</ele>
        <time>2019-06-21T10:19:29Z</time>
      </trkpt>
      <trkpt lat="41.9332690" lon="-8.6301120">
        <ele>283.6</ele>
        <time>2019-06-21T10:19:33Z</time>
      </trkpt>
      <trkpt lat="41.9333310" lon="-8.6301380">
        <ele>283.6</ele>
        <time>2019-06-21T10:19:35Z</time>
      </trkpt>
      <trkpt lat="41.9334270" lon="-8.6301640">
        <ele>283.6</ele>
        <time>2019-06-21T10:19:38Z</time>
      </trkpt>
      <trkpt lat="41.9334750" lon="-8.6301970">
        <ele>283.4</ele>
        <time>2019-06-21T10:19:40Z</time>
      </trkpt>
      <trkpt lat="41.9334970" lon="-8.6302250">
        <ele>283.4</ele>
        <time>2019-06-21T10:19:41Z</time>
      </trkpt>
      <trkpt lat="41.9336360" lon="-8.6303110">
        <ele>283.0</ele>
        <time>2019-06-21T10:19:46Z</time>
      </trkpt>
      <trkpt lat="41.9336700" lon="-8.6303200">
        <ele>283.0</ele>
        <time>2019-06-21T10:19:47Z</time>
      </trkpt>
      <trkpt lat="41.9337680" lon="-8.6303630">
        <ele>281.0</ele>
        <time>2019-06-21T10:19:50Z</time>
      </trkpt>
      <trkpt lat="41.9338060" lon="-8.6303760">
        <ele>281.4</ele>
        <time>2019-06-21T10:19:51Z</time>
      </trkpt>
      <trkpt lat="41.9338870" lon="-8.6304200">
        <ele>282.8</ele>
        <time>2019-06-21T10:19:53Z</time>
      </trkpt>
      <trkpt lat="41.9339210" lon="-8.6304500">
        <ele>282.4</ele>
        <time>2019-06-21T10:19:54Z</time>
      </trkpt>
      <trkpt lat="41.9339740" lon="-8.6305080">
        <ele>282.2</ele>
        <time>2019-06-21T10:19:56Z</time>
      </trkpt>
      <trkpt lat="41.9340920" lon="-8.6305730">
        <ele>281.4</ele>
        <time>2019-06-21T10:20:01Z</time>
      </trkpt>
      <trkpt lat="41.9341100" lon="-8.6305800">
        <ele>281.2</ele>
        <time>2019-06-21T10:20:02Z</time>
      </trkpt>
      <trkpt lat="41.9341530" lon="-8.6306000">
        <ele>280.2</ele>
        <time>2019-06-21T10:20:05Z</time>
      </trkpt>
      <trkpt lat="41.9341910" lon="-8.6306170">
        <ele>279.8</ele>
        <time>2019-06-21T10:20:08Z</time>
      </trkpt>
      <trkpt lat="41.9342450" lon="-8.6306380">
        <ele>279.2</ele>
        <time>2019-06-21T10:20:11Z</time>
      </trkpt>
      <trkpt lat="41.9342830" lon="-8.6306680">
        <ele>278.2</ele>
        <time>2019-06-21T10:20:14Z</time>
      </trkpt>
      <trkpt lat="41.9342930" lon="-8.6306800">
        <ele>277.8</ele>
        <time>2019-06-21T10:20:15Z</time>
      </trkpt>
      <trkpt lat="41.9343500" lon="-8.6307240">
        <ele>276.8</ele>
        <time>2019-06-21T10:20:20Z</time>
      </trkpt>
      <trkpt lat="41.9343610" lon="-8.6307380">
        <ele>276.6</ele>
        <time>2019-06-21T10:20:21Z</time>
      </trkpt>
      <trkpt lat="41.9344110" lon="-8.6307650">
        <ele>275.4</ele>
        <time>2019-06-21T10:20:25Z</time>
      </trkpt>
      <trkpt lat="41.9344560" lon="-8.6307910">
        <ele>274.6</ele>
        <time>2019-06-21T10:20:28Z</time>
      </trkpt>
      <trkpt lat="41.9344930" lon="-8.6308040">
        <ele>274.4</ele>
        <time>2019-06-21T10:20:30Z</time>
      </trkpt>
      <trkpt lat="41.9345530" lon="-8.6308260">
        <ele>273.4</ele>
        <time>2019-06-21T10:20:33Z</time>
      </trkpt>
      <trkpt lat="41.9346510" lon="-8.6308550">
        <ele>272.2</ele>
        <time>2019-06-21T10:20:38Z</time>
      </trkpt>
      <trkpt lat="41.9347210" lon="-8.6309070">
        <ele>271.4</ele>
        <time>2019-06-21T10:20:41Z</time>
      </trkpt>
      <trkpt lat="41.9347430" lon="-8.6309280">
        <ele>271.0</ele>
        <time>2019-06-21T10:20:42Z</time>
      </trkpt>
      <trkpt lat="41.9347720" lon="-8.6309500">
        <ele>270.8</ele>
        <time>2019-06-21T10:20:43Z</time>
      </trkpt>
      <trkpt lat="41.9348840" lon="-8.6310230">
        <ele>269.8</ele>
        <time>2019-06-21T10:20:47Z</time>
      </trkpt>
      <trkpt lat="41.9349720" lon="-8.6310420">
        <ele>268.4</ele>
        <time>2019-06-21T10:20:49Z</time>
      </trkpt>
      <trkpt lat="41.9350350" lon="-8.6310530">
        <ele>267.8</ele>
        <time>2019-06-21T10:20:50Z</time>
      </trkpt>
      <trkpt lat="41.9351030" lon="-8.6310660">
        <ele>266.8</ele>
        <time>2019-06-21T10:20:51Z</time>
      </trkpt>
      <trkpt lat="41.9351650" lon="-8.6310940">
        <ele>266.0</ele>
        <time>2019-06-21T10:20:52Z</time>
      </trkpt>
      <trkpt lat="41.9352260" lon="-8.6311060">
        <ele>265.4</ele>
        <time>2019-06-21T10:20:53Z</time>
      </trkpt>
      <trkpt lat="41.9352680" lon="-8.6311150">
        <ele>264.8</ele>
        <time>2019-06-21T10:20:54Z</time>
      </trkpt>
      <trkpt lat="41.9353360" lon="-8.6311470">
        <ele>263.8</ele>
        <time>2019-06-21T10:20:56Z</time>
      </trkpt>
      <trkpt lat="41.9353850" lon="-8.6312090">
        <ele>263.2</ele>
        <time>2019-06-21T10:20:58Z</time>
      </trkpt>
      <trkpt lat="41.9354560" lon="-8.6312940">
        <ele>262.2</ele>
        <time>2019-06-21T10:21:01Z</time>
      </trkpt>
      <trkpt lat="41.9355010" lon="-8.6313220">
        <ele>261.2</ele>
        <time>2019-06-21T10:21:03Z</time>
      </trkpt>
      <trkpt lat="41.9355630" lon="-8.6312380">
        <ele>260.0</ele>
        <time>2019-06-21T10:21:06Z</time>
      </trkpt>
      <trkpt lat="41.9355810" lon="-8.6311630">
        <ele>259.2</ele>
        <time>2019-06-21T10:21:09Z</time>
      </trkpt>
      <trkpt lat="41.9355870" lon="-8.6311130">
        <ele>259.2</ele>
        <time>2019-06-21T10:21:10Z</time>
      </trkpt>
      <trkpt lat="41.9355810" lon="-8.6310610">
        <ele>259.0</ele>
        <time>2019-06-21T10:21:11Z</time>
      </trkpt>
      <trkpt lat="41.9355710" lon="-8.6310040">
        <ele>258.6</ele>
        <time>2019-06-21T10:21:12Z</time>
      </trkpt>
      <trkpt lat="41.9355540" lon="-8.6309450">
        <ele>258.0</ele>
        <time>2019-06-21T10:21:13Z</time>
      </trkpt>
      <trkpt lat="41.9355380" lon="-8.6308790">
        <ele>257.8</ele>
        <time>2019-06-21T10:21:14Z</time>
      </trkpt>
      <trkpt lat="41.9354750" lon="-8.6306850">
        <ele>256.8</ele>
        <time>2019-06-21T10:21:17Z</time>
      </trkpt>
      <trkpt lat="41.9354460" lon="-8.6305710">
        <ele>256.2</ele>
        <time>2019-06-21T10:21:19Z</time>
      </trkpt>
      <trkpt lat="41.9354390" lon="-8.6305290">
        <ele>255.8</ele>
        <time>2019-06-21T10:21:20Z</time>
      </trkpt>
      <trkpt lat="41.9354570" lon="-8.6304550">
        <ele>254.8</ele>
        <time>2019-06-21T10:21:23Z</time>
      </trkpt>
      <trkpt lat="41.9354720" lon="-8.6304380">
        <ele>254.6</ele>
        <time>2019-06-21T10:21:24Z</time>
      </trkpt>
      <trkpt lat="41.9355330" lon="-8.6304230">
        <ele>254.6</ele>
        <time>2019-06-21T10:21:27Z</time>
      </trkpt>
      <trkpt lat="41.9355490" lon="-8.6304150">
        <ele>254.8</ele>
        <time>2019-06-21T10:21:28Z</time>
      </trkpt>
      <trkpt lat="41.9356420" lon="-8.6303880">
        <ele>255.2</ele>
        <time>2019-06-21T10:21:32Z</time>
      </trkpt>
      <trkpt lat="41.9356890" lon="-8.6303500">
        <ele>255.0</ele>
        <time>2019-06-21T10:21:34Z</time>
      </trkpt>
      <trkpt lat="41.9357380" lon="-8.6303390">
        <ele>254.8</ele>
        <time>2019-06-21T10:21:35Z</time>
      </trkpt>
      <trkpt lat="41.9358220" lon="-8.6303410">
        <ele>253.6</ele>
        <time>2019-06-21T10:21:37Z</time>
      </trkpt>
      <trkpt lat="41.9359150" lon="-8.6303380">
        <ele>252.0</ele>
        <time>2019-06-21T10:21:39Z</time>
      </trkpt>
      <trkpt lat="41.9360620" lon="-8.6303480">
        <ele>251.4</ele>
        <time>2019-06-21T10:21:42Z</time>
      </trkpt>
      <trkpt lat="41.9361050" lon="-8.6303450">
        <ele>250.8</ele>
        <time>2019-06-21T10:21:43Z</time>
      </trkpt>
      <trkpt lat="41.9362110" lon="-8.6303290">
        <ele>249.4</ele>
        <time>2019-06-21T10:21:46Z</time>
      </trkpt>
      <trkpt lat="41.9362960" lon="-8.6303090">
        <ele>248.4</ele>
        <time>2019-06-21T10:21:49Z</time>
      </trkpt>
      <trkpt lat="41.9363560" lon="-8.6303060">
        <ele>247.6</ele>
        <time>2019-06-21T10:21:51Z</time>
      </trkpt>
      <trkpt lat="41.9364190" lon="-8.6302810">
        <ele>247.2</ele>
        <time>2019-06-21T10:21:53Z</time>
      </trkpt>
      <trkpt lat="41.9364640" lon="-8.6302240">
        <ele>246.2</ele>
        <time>2019-06-21T10:21:55Z</time>
      </trkpt>
      <trkpt lat="41.9364890" lon="-8.6302040">
        <ele>243.0</ele>
        <time>2019-06-21T10:21:56Z</time>
      </trkpt>
      <trkpt lat="41.9365830" lon="-8.6301540">
        <ele>244.4</ele>
        <time>2019-06-21T10:21:59Z</time>
      </trkpt>
      <trkpt lat="41.9366080" lon="-8.6301420">
        <ele>243.6</ele>
        <time>2019-06-21T10:22:00Z</time>
      </trkpt>
      <trkpt lat="41.9366300" lon="-8.6301420">
        <ele>243.2</ele>
        <time>2019-06-21T10:22:01Z</time>
      </trkpt>
      <trkpt lat="41.9366690" lon="-8.6301560">
        <ele>242.2</ele>
        <time>2019-06-21T10:22:03Z</time>
      </trkpt>
      <trkpt lat="41.9366990" lon="-8.6301780">
        <ele>241.6</ele>
        <time>2019-06-21T10:22:05Z</time>
      </trkpt>
      <trkpt lat="41.9367160" lon="-8.6301950">
        <ele>241.0</ele>
        <time>2019-06-21T10:22:06Z</time>
      </trkpt>
      <trkpt lat="41.9367420" lon="-8.6301970">
        <ele>240.6</ele>
        <time>2019-06-21T10:22:07Z</time>
      </trkpt>
      <trkpt lat="41.9367670" lon="-8.6301830">
        <ele>240.0</ele>
        <time>2019-06-21T10:22:08Z</time>
      </trkpt>
      <trkpt lat="41.9367950" lon="-8.6301700">
        <ele>239.6</ele>
        <time>2019-06-21T10:22:09Z</time>
      </trkpt>
      <trkpt lat="41.9368540" lon="-8.6301420">
        <ele>238.8</ele>
        <time>2019-06-21T10:22:11Z</time>
      </trkpt>
      <trkpt lat="41.9368860" lon="-8.6301180">
        <ele>238.0</ele>
        <time>2019-06-21T10:22:13Z</time>
      </trkpt>
      <trkpt lat="41.9369040" lon="-8.6301120">
        <ele>237.6</ele>
        <time>2019-06-21T10:22:14Z</time>
      </trkpt>
      <trkpt lat="41.9369560" lon="-8.6300940">
        <ele>236.4</ele>
        <time>2019-06-21T10:22:18Z</time>
      </trkpt>
      <trkpt lat="41.9370730" lon="-8.6300710">
        <ele>235.6</ele>
        <time>2019-06-21T10:22:23Z</time>
      </trkpt>
      <trkpt lat="41.9371060" lon="-8.6300530">
        <ele>235.4</ele>
        <time>2019-06-21T10:22:24Z</time>
      </trkpt>
      <trkpt lat="41.9372480" lon="-8.6299850">
        <ele>234.4</ele>
        <time>2019-06-21T10:22:28Z</time>
      </trkpt>
      <trkpt lat="41.9374500" lon="-8.6299020">
        <ele>233.4</ele>
        <time>2019-06-21T10:22:32Z</time>
      </trkpt>
      <trkpt lat="41.9377080" lon="-8.6298740">
        <ele>232.8</ele>
        <time>2019-06-21T10:22:37Z</time>
      </trkpt>
      <trkpt lat="41.9378090" lon="-8.6298480">
        <ele>232.4</ele>
        <time>2019-06-21T10:22:39Z</time>
      </trkpt>
      <trkpt lat="41.9379080" lon="-8.6298130">
        <ele>232.0</ele>
        <time>2019-06-21T10:22:41Z</time>
      </trkpt>
      <trkpt lat="41.9379610" lon="-8.6298050">
        <ele>231.8</ele>
        <time>2019-06-21T10:22:42Z</time>
      </trkpt>
      <trkpt lat="41.9380550" lon="-8.6298060">
        <ele>231.8</ele>
        <time>2019-06-21T10:22:44Z</time>
      </trkpt>
      <trkpt lat="41.9381480" lon="-8.6298480">
        <ele>231.8</ele>
        <time>2019-06-21T10:22:46Z</time>
      </trkpt>
      <trkpt lat="41.9382280" lon="-8.6299320">
        <ele>231.0</ele>
        <time>2019-06-21T10:22:48Z</time>
      </trkpt>
      <trkpt lat="41.9382890" lon="-8.6300300">
        <ele>230.8</ele>
        <time>2019-06-21T10:22:50Z</time>
      </trkpt>
      <trkpt lat="41.9383400" lon="-8.6301320">
        <ele>231.0</ele>
        <time>2019-06-21T10:22:52Z</time>
      </trkpt>
      <trkpt lat="41.9384000" lon="-8.6302220">
        <ele>229.8</ele>
        <time>2019-06-21T10:22:54Z</time>
      </trkpt>
      <trkpt lat="41.9384530" lon="-8.6302870">
        <ele>229.4</ele>
        <time>2019-06-21T10:22:56Z</time>
      </trkpt>
      <trkpt lat="41.9385240" lon="-8.6303530">
        <ele>229.4</ele>
        <time>2019-06-21T10:22:58Z</time>
      </trkpt>
      <trkpt lat="41.9386870" lon="-8.6304660">
        <ele>228.8</ele>
        <time>2019-06-21T10:23:02Z</time>
      </trkpt>
      <trkpt lat="41.9387240" lon="-8.6304800">
        <ele>228.6</ele>
        <time>2019-06-21T10:23:03Z</time>
      </trkpt>
      <trkpt lat="41.9388730" lon="-8.6305280">
        <ele>228.6</ele>
        <time>2019-06-21T10:23:07Z</time>
      </trkpt>
      <trkpt lat="41.9389800" lon="-8.6305830">
        <ele>228.0</ele>
        <time>2019-06-21T10:23:10Z</time>
      </trkpt>
      <trkpt lat="41.9390120" lon="-8.6305970">
        <ele>227.2</ele>
        <time>2019-06-21T10:23:11Z</time>
      </trkpt>
      <trkpt lat="41.9390510" lon="-8.6305990">
        <ele>226.8</ele>
        <time>2019-06-21T10:23:12Z</time>
      </trkpt>
      <trkpt lat="41.9391360" lon="-8.6306170">
        <ele>226.6</ele>
        <time>2019-06-21T10:23:14Z</time>
      </trkpt>
      <trkpt lat="41.9391720" lon="-8.6306250">
        <ele>225.4</ele>
        <time>2019-06-21T10:23:15Z</time>
      </trkpt>
      <trkpt lat="41.9392580" lon="-8.6306550">
        <ele>224.2</ele>
        <time>2019-06-21T10:23:17Z</time>
      </trkpt>
      <trkpt lat="41.9393270" lon="-8.6306690">
        <ele>223.2</ele>
        <time>2019-06-21T10:23:19Z</time>
      </trkpt>
      <trkpt lat="41.9393800" lon="-8.6306740">
        <ele>222.2</ele>
        <time>2019-06-21T10:23:21Z</time>
      </trkpt>
      <trkpt lat="41.9394110" lon="-8.6306670">
        <ele>222.0</ele>
        <time>2019-06-21T10:23:22Z</time>
      </trkpt>
      <trkpt lat="41.9394850" lon="-8.6306490">
        <ele>219.6</ele>
        <time>2019-06-21T10:23:25Z</time>
      </trkpt>
      <trkpt lat="41.9395160" lon="-8.6306400">
        <ele>220.8</ele>
        <time>2019-06-21T10:23:26Z</time>
      </trkpt>
      <trkpt lat="41.9395800" lon="-8.6306510">
        <ele>220.8</ele>
        <time>2019-06-21T10:23:27Z</time>
      </trkpt>
      <trkpt lat="41.9396360" lon="-8.6306730">
        <ele>221.4</ele>
        <time>2019-06-21T10:23:28Z</time>
      </trkpt>
      <trkpt lat="41.9396930" lon="-8.6306860">
        <ele>218.8</ele>
        <time>2019-06-21T10:23:29Z</time>
      </trkpt>
      <trkpt lat="41.9398370" lon="-8.6306950">
        <ele>217.0</ele>
        <time>2019-06-21T10:23:31Z</time>
      </trkpt>
      <trkpt lat="41.9399130" lon="-8.6306890">
        <ele>216.8</ele>
        <time>2019-06-21T10:23:32Z</time>
      </trkpt>
      <trkpt lat="41.9399820" lon="-8.6306870">
        <ele>215.6</ele>
        <time>2019-06-21T10:23:33Z</time>
      </trkpt>
      <trkpt lat="41.9402230" lon="-8.6307190">
        <ele>214.8</ele>
        <time>2019-06-21T10:23:37Z</time>
      </trkpt>
      <trkpt lat="41.9402580" lon="-8.6307220">
        <ele>214.6</ele>
        <time>2019-06-21T10:23:38Z</time>
      </trkpt>
      <trkpt lat="41.9402980" lon="-8.6307290">
        <ele>213.4</ele>
        <time>2019-06-21T10:23:40Z</time>
      </trkpt>
      <trkpt lat="41.9403090" lon="-8.6307440">
        <ele>213.2</ele>
        <time>2019-06-21T10:23:45Z</time>
      </trkpt>
      <trkpt lat="41.9403090" lon="-8.6307440">
        <ele>213.2</ele>
        <time>2019-06-21T10:23:53Z</time>
      </trkpt>
      <trkpt lat="41.9403090" lon="-8.6307440">
        <ele>213.2</ele>
        <time>2019-06-21T10:24:02Z</time>
      </trkpt>
      <trkpt lat="41.9403090" lon="-8.6307440">
        <ele>213.0</ele>
        <time>2019-06-21T10:24:09Z</time>
      </trkpt>
      <trkpt lat="41.9403070" lon="-8.6307420">
        <ele>213.2</ele>
        <time>2019-06-21T10:24:23Z</time>
      </trkpt>
      <trkpt lat="41.9403070" lon="-8.6307420">
        <ele>213.2</ele>
        <time>2019-06-21T10:24:31Z</time>
      </trkpt>
      <trkpt lat="41.9403070" lon="-8.6307420">
        <ele>213.0</ele>
        <time>2019-06-21T10:24:39Z</time>
      </trkpt>
      <trkpt lat="41.9403070" lon="-8.6307420">
        <ele>213.2</ele>
        <time>2019-06-21T10:24:42Z</time>
      </trkpt>
      <trkpt lat="41.9403070" lon="-8.6307420">
        <ele>213.2</ele>
        <time>2019-06-21T10:24:47Z</time>
      </trkpt>
      <trkpt lat="41.9403070" lon="-8.6307420">
        <ele>213.2</ele>
        <time>2019-06-21T10:24:51Z</time>
      </trkpt>
      <trkpt lat="41.9403070" lon="-8.6307420">
        <ele>213.2</ele>
        <time>2019-06-21T10:24:55Z</time>
      </trkpt>
      <trkpt lat="41.9403000" lon="-8.6307430">
        <ele>213.2</ele>
        <time>2019-06-21T10:25:04Z</time>
      </trkpt>
      <trkpt lat="41.9403000" lon="-8.6307430">
        <ele>213.0</ele>
        <time>2019-06-21T10:25:24Z</time>
      </trkpt>
      <trkpt lat="41.9403000" lon="-8.6307430">
        <ele>213.0</ele>
        <time>2019-06-21T10:25:27Z</time>
      </trkpt>
      <trkpt lat="41.9402930" lon="-8.6307460">
        <ele>213.0</ele>
        <time>2019-06-21T10:25:50Z</time>
      </trkpt>
      <trkpt lat="41.9402930" lon="-8.6307460">
        <ele>213.0</ele>
        <time>2019-06-21T10:25:57Z</time>
      </trkpt>
      <trkpt lat="41.9402930" lon="-8.6307460">
        <ele>213.0</ele>
        <time>2019-06-21T10:26:04Z</time>
      </trkpt>
      <trkpt lat="41.9403040" lon="-8.6307480">
        <ele>212.8</ele>
        <time>2019-06-21T10:26:06Z</time>
      </trkpt>
      <trkpt lat="41.9403230" lon="-8.6307610">
        <ele>212.8</ele>
        <time>2019-06-21T10:26:12Z</time>
      </trkpt>
      <trkpt lat="41.9403230" lon="-8.6307610">
        <ele>212.8</ele>
        <time>2019-06-21T10:26:22Z</time>
      </trkpt>
      <trkpt lat="41.9403230" lon="-8.6307610">
        <ele>212.8</ele>
        <time>2019-06-21T10:26:25Z</time>
      </trkpt>
      <trkpt lat="41.9403230" lon="-8.6307610">
        <ele>212.8</ele>
        <time>2019-06-21T10:26:40Z</time>
      </trkpt>
      <trkpt lat="41.9403410" lon="-8.6307710">
        <ele>212.8</ele>
        <time>2019-06-21T10:26:43Z</time>
      </trkpt>
      <trkpt lat="41.9403730" lon="-8.6307850">
        <ele>212.8</ele>
        <time>2019-06-21T10:26:45Z</time>
      </trkpt>
      <trkpt lat="41.9403990" lon="-8.6307940">
        <ele>212.8</ele>
        <time>2019-06-21T10:26:46Z</time>
      </trkpt>
      <trkpt lat="41.9404500" lon="-8.6308000">
        <ele>212.6</ele>
        <time>2019-06-21T10:26:48Z</time>
      </trkpt>
      <trkpt lat="41.9405190" lon="-8.6308220">
        <ele>212.4</ele>
        <time>2019-06-21T10:26:50Z</time>
      </trkpt>
      <trkpt lat="41.9405610" lon="-8.6308390">
        <ele>212.0</ele>
        <time>2019-06-21T10:26:51Z</time>
      </trkpt>
      <trkpt lat="41.9406600" lon="-8.6308680">
        <ele>210.8</ele>
        <time>2019-06-21T10:26:53Z</time>
      </trkpt>
      <trkpt lat="41.9407820" lon="-8.6308800">
        <ele>209.0</ele>
        <time>2019-06-21T10:26:55Z</time>
      </trkpt>
      <trkpt lat="41.9409160" lon="-8.6308980">
        <ele>207.4</ele>
        <time>2019-06-21T10:26:57Z</time>
      </trkpt>
      <trkpt lat="41.9410370" lon="-8.6309440">
        <ele>205.6</ele>
        <time>2019-06-21T10:26:59Z</time>
      </trkpt>
      <trkpt lat="41.9411570" lon="-8.6309710">
        <ele>204.0</ele>
        <time>2019-06-21T10:27:01Z</time>
      </trkpt>
      <trkpt lat="41.9412170" lon="-8.6309780">
        <ele>203.6</ele>
        <time>2019-06-21T10:27:02Z</time>
      </trkpt>
      <trkpt lat="41.9413970" lon="-8.6309820">
        <ele>202.4</ele>
        <time>2019-06-21T10:27:05Z</time>
      </trkpt>
      <trkpt lat="41.9414430" lon="-8.6309810">
        <ele>202.4</ele>
        <time>2019-06-21T10:27:06Z</time>
      </trkpt>
      <trkpt lat="41.9415180" lon="-8.6309800">
        <ele>201.0</ele>
        <time>2019-06-21T10:27:08Z</time>
      </trkpt>
      <trkpt lat="41.9415800" lon="-8.6309800">
        <ele>200.2</ele>
        <time>2019-06-21T10:27:10Z</time>
      </trkpt>
      <trkpt lat="41.9416140" lon="-8.6309830">
        <ele>199.6</ele>
        <time>2019-06-21T10:27:11Z</time>
      </trkpt>
      <trkpt lat="41.9416880" lon="-8.6309740">
        <ele>197.8</ele>
        <time>2019-06-21T10:27:13Z</time>
      </trkpt>
      <trkpt lat="41.9417270" lon="-8.6309660">
        <ele>196.8</ele>
        <time>2019-06-21T10:27:14Z</time>
      </trkpt>
      <trkpt lat="41.9417740" lon="-8.6309490">
        <ele>194.8</ele>
        <time>2019-06-21T10:27:15Z</time>
      </trkpt>
      <trkpt lat="41.9418120" lon="-8.6309210">
        <ele>193.8</ele>
        <time>2019-06-21T10:27:16Z</time>
      </trkpt>
      <trkpt lat="41.9418360" lon="-8.6308910">
        <ele>193.2</ele>
        <time>2019-06-21T10:27:17Z</time>
      </trkpt>
      <trkpt lat="41.9418570" lon="-8.6308600">
        <ele>192.8</ele>
        <time>2019-06-21T10:27:19Z</time>
      </trkpt>
      <trkpt lat="41.9418540" lon="-8.6308640">
        <ele>192.8</ele>
        <time>2019-06-21T10:27:23Z</time>
      </trkpt>
      <trkpt lat="41.9418710" lon="-8.6308830">
        <ele>193.0</ele>
        <time>2019-06-21T10:27:25Z</time>
      </trkpt>
      <trkpt lat="41.9419170" lon="-8.6309140">
        <ele>192.8</ele>
        <time>2019-06-21T10:27:27Z</time>
      </trkpt>
      <trkpt lat="41.9419700" lon="-8.6309350">
        <ele>192.2</ele>
        <time>2019-06-21T10:27:29Z</time>
      </trkpt>
      <trkpt lat="41.9420030" lon="-8.6309490">
        <ele>191.8</ele>
        <time>2019-06-21T10:27:30Z</time>
      </trkpt>
      <trkpt lat="41.9421130" lon="-8.6309680">
        <ele>191.0</ele>
        <time>2019-06-21T10:27:33Z</time>
      </trkpt>
      <trkpt lat="41.9421670" lon="-8.6309410">
        <ele>190.2</ele>
        <time>2019-06-21T10:27:34Z</time>
      </trkpt>
      <trkpt lat="41.9422830" lon="-8.6308370">
        <ele>188.4</ele>
        <time>2019-06-21T10:27:36Z</time>
      </trkpt>
      <trkpt lat="41.9423710" lon="-8.6308100">
        <ele>187.6</ele>
        <time>2019-06-21T10:27:37Z</time>
      </trkpt>
      <trkpt lat="41.9424660" lon="-8.6307860">
        <ele>186.6</ele>
        <time>2019-06-21T10:27:38Z</time>
      </trkpt>
      <trkpt lat="41.9425750" lon="-8.6307580">
        <ele>184.4</ele>
        <time>2019-06-21T10:27:39Z</time>
      </trkpt>
      <trkpt lat="41.9426860" lon="-8.6307360">
        <ele>183.2</ele>
        <time>2019-06-21T10:27:40Z</time>
      </trkpt>
      <trkpt lat="41.9428050" lon="-8.6307260">
        <ele>182.0</ele>
        <time>2019-06-21T10:27:41Z</time>
      </trkpt>
      <trkpt lat="41.9429250" lon="-8.6307220">
        <ele>181.0</ele>
        <time>2019-06-21T10:27:42Z</time>
      </trkpt>
      <trkpt lat="41.9430410" lon="-8.6307160">
        <ele>180.0</ele>
        <time>2019-06-21T10:27:43Z</time>
      </trkpt>
      <trkpt lat="41.9431640" lon="-8.6307090">
        <ele>178.6</ele>
        <time>2019-06-21T10:27:44Z</time>
      </trkpt>
      <trkpt lat="41.9432900" lon="-8.6307040">
        <ele>177.4</ele>
        <time>2019-06-21T10:27:45Z</time>
      </trkpt>
      <trkpt lat="41.9434160" lon="-8.6306980">
        <ele>175.8</ele>
        <time>2019-06-21T10:27:46Z</time>
      </trkpt>
      <trkpt lat="41.9435370" lon="-8.6306870">
        <ele>174.4</ele>
        <time>2019-06-21T10:27:47Z</time>
      </trkpt>
      <trkpt lat="41.9436460" lon="-8.6306730">
        <ele>172.6</ele>
        <time>2019-06-21T10:27:48Z</time>
      </trkpt>
      <trkpt lat="41.9437440" lon="-8.6306580">
        <ele>170.8</ele>
        <time>2019-06-21T10:27:49Z</time>
      </trkpt>
      <trkpt lat="41.9438430" lon="-8.6306430">
        <ele>169.0</ele>
        <time>2019-06-21T10:27:50Z</time>
      </trkpt>
      <trkpt lat="41.9439380" lon="-8.6306250">
        <ele>167.6</ele>
        <time>2019-06-21T10:27:51Z</time>
      </trkpt>
      <trkpt lat="41.9440220" lon="-8.6306080">
        <ele>166.2</ele>
        <time>2019-06-21T10:27:52Z</time>
      </trkpt>
      <trkpt lat="41.9441050" lon="-8.6305880">
        <ele>165.0</ele>
        <time>2019-06-21T10:27:53Z</time>
      </trkpt>
      <trkpt lat="41.9441830" lon="-8.6305750">
        <ele>163.6</ele>
        <time>2019-06-21T10:27:54Z</time>
      </trkpt>
      <trkpt lat="41.9442630" lon="-8.6305410">
        <ele>162.6</ele>
        <time>2019-06-21T10:27:55Z</time>
      </trkpt>
      <trkpt lat="41.9444000" lon="-8.6304920">
        <ele>161.6</ele>
        <time>2019-06-21T10:27:57Z</time>
      </trkpt>
      <trkpt lat="41.9445390" lon="-8.6304540">
        <ele>162.8</ele>
        <time>2019-06-21T10:28:00Z</time>
      </trkpt>
      <trkpt lat="41.9445680" lon="-8.6304450">
        <ele>162.8</ele>
        <time>2019-06-21T10:28:01Z</time>
      </trkpt>
      <trkpt lat="41.9446050" lon="-8.6304220">
        <ele>163.6</ele>
        <time>2019-06-21T10:28:03Z</time>
      </trkpt>
      <trkpt lat="41.9446170" lon="-8.6303970">
        <ele>164.2</ele>
        <time>2019-06-21T10:28:04Z</time>
      </trkpt>
      <trkpt lat="41.9446280" lon="-8.6303760">
        <ele>164.4</ele>
        <time>2019-06-21T10:28:05Z</time>
      </trkpt>
      <trkpt lat="41.9446490" lon="-8.6303350">
        <ele>164.6</ele>
        <time>2019-06-21T10:28:07Z</time>
      </trkpt>
      <trkpt lat="41.9446750" lon="-8.6302850">
        <ele>165.2</ele>
        <time>2019-06-21T10:28:10Z</time>
      </trkpt>
      <trkpt lat="41.9447030" lon="-8.6302290">
        <ele>165.8</ele>
        <time>2019-06-21T10:28:13Z</time>
      </trkpt>
      <trkpt lat="41.9447310" lon="-8.6301790">
        <ele>166.2</ele>
        <time>2019-06-21T10:28:16Z</time>
      </trkpt>
      <trkpt lat="41.9447560" lon="-8.6301010">
        <ele>167.0</ele>
        <time>2019-06-21T10:28:20Z</time>
      </trkpt>
      <trkpt lat="41.9447640" lon="-8.6300860">
        <ele>167.2</ele>
        <time>2019-06-21T10:28:21Z</time>
      </trkpt>
      <trkpt lat="41.9447840" lon="-8.6300360">
        <ele>167.8</ele>
        <time>2019-06-21T10:28:24Z</time>
      </trkpt>
      <trkpt lat="41.9448070" lon="-8.6299920">
        <ele>168.2</ele>
        <time>2019-06-21T10:28:27Z</time>
      </trkpt>
      <trkpt lat="41.9448380" lon="-8.6299580">
        <ele>168.6</ele>
        <time>2019-06-21T10:28:30Z</time>
      </trkpt>
      <trkpt lat="41.9448720" lon="-8.6299310">
        <ele>169.0</ele>
        <time>2019-06-21T10:28:33Z</time>
      </trkpt>
      <trkpt lat="41.9448930" lon="-8.6299070">
        <ele>169.2</ele>
        <time>2019-06-21T10:28:35Z</time>
      </trkpt>
      <trkpt lat="41.9449360" lon="-8.6298370">
        <ele>170.0</ele>
        <time>2019-06-21T10:28:40Z</time>
      </trkpt>
      <trkpt lat="41.9449430" lon="-8.6298220">
        <ele>170.0</ele>
        <time>2019-06-21T10:28:41Z</time>
      </trkpt>
      <trkpt lat="41.9449460" lon="-8.6298090">
        <ele>170.2</ele>
        <time>2019-06-21T10:28:42Z</time>
      </trkpt>
      <trkpt lat="41.9449470" lon="-8.6297910">
        <ele>170.4</ele>
        <time>2019-06-21T10:28:43Z</time>
      </trkpt>
      <trkpt lat="41.9449700" lon="-8.6297200">
        <ele>171.2</ele>
        <time>2019-06-21T10:28:48Z</time>
      </trkpt>
      <trkpt lat="41.9449770" lon="-8.6297080">
        <ele>171.2</ele>
        <time>2019-06-21T10:28:49Z</time>
      </trkpt>
      <trkpt lat="41.9449960" lon="-8.6296390">
        <ele>172.4</ele>
        <time>2019-06-21T10:28:54Z</time>
      </trkpt>
      <trkpt lat="41.9450110" lon="-8.6296090">
        <ele>172.8</ele>
        <time>2019-06-21T10:28:56Z</time>
      </trkpt>
      <trkpt lat="41.9450210" lon="-8.6295810">
        <ele>173.4</ele>
        <time>2019-06-21T10:28:59Z</time>
      </trkpt>
      <trkpt lat="41.9450580" lon="-8.6295440">
        <ele>174.2</ele>
        <time>2019-06-21T10:29:03Z</time>
      </trkpt>
      <trkpt lat="41.9450870" lon="-8.6295170">
        <ele>174.4</ele>
        <time>2019-06-21T10:29:06Z</time>
      </trkpt>
      <trkpt lat="41.9451430" lon="-8.6295050">
        <ele>174.8</ele>
        <time>2019-06-21T10:29:10Z</time>
      </trkpt>
      <trkpt lat="41.9452070" lon="-8.6295270">
        <ele>175.2</ele>
        <time>2019-06-21T10:29:14Z</time>
      </trkpt>
      <trkpt lat="41.9452660" lon="-8.6295490">
        <ele>175.4</ele>
        <time>2019-06-21T10:29:18Z</time>
      </trkpt>
      <trkpt lat="41.9454170" lon="-8.6296160">
        <ele>174.6</ele>
        <time>2019-06-21T10:29:22Z</time>
      </trkpt>
      <trkpt lat="41.9456580" lon="-8.6297000">
        <ele>173.6</ele>
        <time>2019-06-21T10:29:28Z</time>
      </trkpt>
      <trkpt lat="41.9457050" lon="-8.6297290">
        <ele>173.2</ele>
        <time>2019-06-21T10:29:29Z</time>
      </trkpt>
      <trkpt lat="41.9458670" lon="-8.6298160">
        <ele>172.4</ele>
        <time>2019-06-21T10:29:32Z</time>
      </trkpt>
      <trkpt lat="41.9459240" lon="-8.6298490">
        <ele>172.0</ele>
        <time>2019-06-21T10:29:33Z</time>
      </trkpt>
      <trkpt lat="41.9460260" lon="-8.6299150">
        <ele>171.0</ele>
        <time>2019-06-21T10:29:35Z</time>
      </trkpt>
      <trkpt lat="41.9460560" lon="-8.6299520">
        <ele>170.4</ele>
        <time>2019-06-21T10:29:36Z</time>
      </trkpt>
      <trkpt lat="41.9460740" lon="-8.6299870">
        <ele>169.6</ele>
        <time>2019-06-21T10:29:37Z</time>
      </trkpt>
      <trkpt lat="41.9460980" lon="-8.6300140">
        <ele>169.0</ele>
        <time>2019-06-21T10:29:38Z</time>
      </trkpt>
      <trkpt lat="41.9461210" lon="-8.6300600">
        <ele>167.6</ele>
        <time>2019-06-21T10:29:39Z</time>
      </trkpt>
      <trkpt lat="41.9461660" lon="-8.6301850">
        <ele>166.0</ele>
        <time>2019-06-21T10:29:41Z</time>
      </trkpt>
      <trkpt lat="41.9461930" lon="-8.6302450">
        <ele>165.4</ele>
        <time>2019-06-21T10:29:42Z</time>
      </trkpt>
      <trkpt lat="41.9462170" lon="-8.6303140">
        <ele>164.6</ele>
        <time>2019-06-21T10:29:43Z</time>
      </trkpt>
      <trkpt lat="41.9462520" lon="-8.6303730">
        <ele>164.0</ele>
        <time>2019-06-21T10:29:44Z</time>
      </trkpt>
      <trkpt lat="41.9462970" lon="-8.6304190">
        <ele>162.8</ele>
        <time>2019-06-21T10:29:45Z</time>
      </trkpt>
      <trkpt lat="41.9463640" lon="-8.6304700">
        <ele>162.0</ele>
        <time>2019-06-21T10:29:46Z</time>
      </trkpt>
      <trkpt lat="41.9464250" lon="-8.6305310">
        <ele>161.4</ele>
        <time>2019-06-21T10:29:47Z</time>
      </trkpt>
      <trkpt lat="41.9465390" lon="-8.6306020">
        <ele>160.2</ele>
        <time>2019-06-21T10:29:49Z</time>
      </trkpt>
      <trkpt lat="41.9465880" lon="-8.6306160">
        <ele>159.4</ele>
        <time>2019-06-21T10:29:50Z</time>
      </trkpt>
      <trkpt lat="41.9466300" lon="-8.6306160">
        <ele>159.0</ele>
        <time>2019-06-21T10:29:51Z</time>
      </trkpt>
      <trkpt lat="41.9466860" lon="-8.6306230">
        <ele>158.2</ele>
        <time>2019-06-21T10:29:52Z</time>
      </trkpt>
      <trkpt lat="41.9467460" lon="-8.6306370">
        <ele>157.0</ele>
        <time>2019-06-21T10:29:53Z</time>
      </trkpt>
      <trkpt lat="41.9468050" lon="-8.6306700">
        <ele>155.6</ele>
        <time>2019-06-21T10:29:54Z</time>
      </trkpt>
      <trkpt lat="41.9468620" lon="-8.6307080">
        <ele>154.4</ele>
        <time>2019-06-21T10:29:55Z</time>
      </trkpt>
      <trkpt lat="41.9469090" lon="-8.6307520">
        <ele>153.0</ele>
        <time>2019-06-21T10:29:56Z</time>
      </trkpt>
      <trkpt lat="41.9469420" lon="-8.6307850">
        <ele>152.0</ele>
        <time>2019-06-21T10:29:57Z</time>
      </trkpt>
      <trkpt lat="41.9469790" lon="-8.6308160">
        <ele>151.0</ele>
        <time>2019-06-21T10:29:58Z</time>
      </trkpt>
      <trkpt lat="41.9470120" lon="-8.6308490">
        <ele>150.8</ele>
        <time>2019-06-21T10:29:59Z</time>
      </trkpt>
      <trkpt lat="41.9470520" lon="-8.6308690">
        <ele>150.2</ele>
        <time>2019-06-21T10:30:00Z</time>
      </trkpt>
      <trkpt lat="41.9470960" lon="-8.6308800">
        <ele>149.4</ele>
        <time>2019-06-21T10:30:01Z</time>
      </trkpt>
      <trkpt lat="41.9471330" lon="-8.6308880">
        <ele>148.2</ele>
        <time>2019-06-21T10:30:02Z</time>
      </trkpt>
      <trkpt lat="41.9471780" lon="-8.6308800">
        <ele>145.8</ele>
        <time>2019-06-21T10:30:03Z</time>
      </trkpt>
      <trkpt lat="41.9472200" lon="-8.6308590">
        <ele>144.6</ele>
        <time>2019-06-21T10:30:04Z</time>
      </trkpt>
      <trkpt lat="41.9472660" lon="-8.6308210">
        <ele>143.6</ele>
        <time>2019-06-21T10:30:05Z</time>
      </trkpt>
      <trkpt lat="41.9473760" lon="-8.6307780">
        <ele>141.8</ele>
        <time>2019-06-21T10:30:07Z</time>
      </trkpt>
      <trkpt lat="41.9474310" lon="-8.6307590">
        <ele>140.6</ele>
        <time>2019-06-21T10:30:08Z</time>
      </trkpt>
      <trkpt lat="41.9474910" lon="-8.6307410">
        <ele>139.6</ele>
        <time>2019-06-21T10:30:09Z</time>
      </trkpt>
      <trkpt lat="41.9476170" lon="-8.6307160">
        <ele>137.8</ele>
        <time>2019-06-21T10:30:11Z</time>
      </trkpt>
      <trkpt lat="41.9476570" lon="-8.6307100">
        <ele>136.6</ele>
        <time>2019-06-21T10:30:12Z</time>
      </trkpt>
      <trkpt lat="41.9476840" lon="-8.6307100">
        <ele>135.6</ele>
        <time>2019-06-21T10:30:13Z</time>
      </trkpt>
      <trkpt lat="41.9477490" lon="-8.6307190">
        <ele>134.2</ele>
        <time>2019-06-21T10:30:15Z</time>
      </trkpt>
      <trkpt lat="41.9477820" lon="-8.6307320">
        <ele>134.0</ele>
        <time>2019-06-21T10:30:16Z</time>
      </trkpt>
      <trkpt lat="41.9478080" lon="-8.6307600">
        <ele>134.0</ele>
        <time>2019-06-21T10:30:17Z</time>
      </trkpt>
      <trkpt lat="41.9478610" lon="-8.6308170">
        <ele>133.8</ele>
        <time>2019-06-21T10:30:19Z</time>
      </trkpt>
      <trkpt lat="41.9479440" lon="-8.6308870">
        <ele>133.2</ele>
        <time>2019-06-21T10:30:21Z</time>
      </trkpt>
      <trkpt lat="41.9479890" lon="-8.6309390">
        <ele>132.6</ele>
        <time>2019-06-21T10:30:22Z</time>
      </trkpt>
      <trkpt lat="41.9480400" lon="-8.6309930">
        <ele>132.2</ele>
        <time>2019-06-21T10:30:23Z</time>
      </trkpt>
      <trkpt lat="41.9480940" lon="-8.6310460">
        <ele>131.8</ele>
        <time>2019-06-21T10:30:24Z</time>
      </trkpt>
      <trkpt lat="41.9482470" lon="-8.6311900">
        <ele>130.0</ele>
        <time>2019-06-21T10:30:27Z</time>
      </trkpt>
      <trkpt lat="41.9483340" lon="-8.6312590">
        <ele>129.2</ele>
        <time>2019-06-21T10:30:29Z</time>
      </trkpt>
      <trkpt lat="41.9483720" lon="-8.6312900">
        <ele>129.0</ele>
        <time>2019-06-21T10:30:30Z</time>
      </trkpt>
      <trkpt lat="41.9484440" lon="-8.6313600">
        <ele>128.0</ele>
        <time>2019-06-21T10:30:33Z</time>
      </trkpt>
      <trkpt lat="41.9485280" lon="-8.6314350">
        <ele>127.2</ele>
        <time>2019-06-21T10:30:38Z</time>
      </trkpt>
      <trkpt lat="41.9486180" lon="-8.6315090">
        <ele>126.8</ele>
        <time>2019-06-21T10:30:41Z</time>
      </trkpt>
      <trkpt lat="41.9486490" lon="-8.6315500">
        <ele>126.6</ele>
        <time>2019-06-21T10:30:42Z</time>
      </trkpt>
      <trkpt lat="41.9486800" lon="-8.6315970">
        <ele>126.4</ele>
        <time>2019-06-21T10:30:43Z</time>
      </trkpt>
      <trkpt lat="41.9487680" lon="-8.6317690">
        <ele>125.8</ele>
        <time>2019-06-21T10:30:46Z</time>
      </trkpt>
      <trkpt lat="41.9488270" lon="-8.6319060">
        <ele>125.4</ele>
        <time>2019-06-21T10:30:48Z</time>
      </trkpt>
      <trkpt lat="41.9489050" lon="-8.6320430">
        <ele>124.8</ele>
        <time>2019-06-21T10:30:50Z</time>
      </trkpt>
      <trkpt lat="41.9490470" lon="-8.6322240">
        <ele>123.8</ele>
        <time>2019-06-21T10:30:53Z</time>
      </trkpt>
      <trkpt lat="41.9491050" lon="-8.6322710">
        <ele>123.4</ele>
        <time>2019-06-21T10:30:54Z</time>
      </trkpt>
      <trkpt lat="41.9492380" lon="-8.6323140">
        <ele>122.6</ele>
        <time>2019-06-21T10:30:56Z</time>
      </trkpt>
      <trkpt lat="41.9493050" lon="-8.6323340">
        <ele>122.2</ele>
        <time>2019-06-21T10:30:57Z</time>
      </trkpt>
      <trkpt lat="41.9495150" lon="-8.6324300">
        <ele>121.2</ele>
        <time>2019-06-21T10:31:00Z</time>
      </trkpt>
      <trkpt lat="41.9495870" lon="-8.6324660">
        <ele>120.8</ele>
        <time>2019-06-21T10:31:01Z</time>
      </trkpt>
      <trkpt lat="41.9497290" lon="-8.6325510">
        <ele>120.2</ele>
        <time>2019-06-21T10:31:03Z</time>
      </trkpt>
      <trkpt lat="41.9500090" lon="-8.6327880">
        <ele>118.6</ele>
        <time>2019-06-21T10:31:07Z</time>
      </trkpt>
      <trkpt lat="41.9501510" lon="-8.6329200">
        <ele>117.4</ele>
        <time>2019-06-21T10:31:09Z</time>
      </trkpt>
      <trkpt lat="41.9502890" lon="-8.6330530">
        <ele>116.2</ele>
        <time>2019-06-21T10:31:11Z</time>
      </trkpt>
      <trkpt lat="41.9504290" lon="-8.6331780">
        <ele>115.0</ele>
        <time>2019-06-21T10:31:13Z</time>
      </trkpt>
      <trkpt lat="41.9505750" lon="-8.6333130">
        <ele>113.0</ele>
        <time>2019-06-21T10:31:15Z</time>
      </trkpt>
      <trkpt lat="41.9507350" lon="-8.6334450">
        <ele>111.2</ele>
        <time>2019-06-21T10:31:17Z</time>
      </trkpt>
      <trkpt lat="41.9509100" lon="-8.6335620">
        <ele>109.8</ele>
        <time>2019-06-21T10:31:19Z</time>
      </trkpt>
      <trkpt lat="41.9511860" lon="-8.6337180">
        <ele>108.4</ele>
        <time>2019-06-21T10:31:22Z</time>
      </trkpt>
      <trkpt lat="41.9513640" lon="-8.6338220">
        <ele>107.0</ele>
        <time>2019-06-21T10:31:24Z</time>
      </trkpt>
      <trkpt lat="41.9514560" lon="-8.6338530">
        <ele>106.4</ele>
        <time>2019-06-21T10:31:25Z</time>
      </trkpt>
      <trkpt lat="41.9515510" lon="-8.6338800">
        <ele>106.0</ele>
        <time>2019-06-21T10:31:26Z</time>
      </trkpt>
      <trkpt lat="41.9517410" lon="-8.6339520">
        <ele>104.4</ele>
        <time>2019-06-21T10:31:28Z</time>
      </trkpt>
      <trkpt lat="41.9519540" lon="-8.6340710">
        <ele>102.6</ele>
        <time>2019-06-21T10:31:30Z</time>
      </trkpt>
      <trkpt lat="41.9520640" lon="-8.6341430">
        <ele>101.4</ele>
        <time>2019-06-21T10:31:31Z</time>
      </trkpt>
      <trkpt lat="41.9521820" lon="-8.6342030">
        <ele>100.0</ele>
        <time>2019-06-21T10:31:32Z</time>
      </trkpt>
      <trkpt lat="41.9523040" lon="-8.6342510">
        <ele>98.8</ele>
        <time>2019-06-21T10:31:33Z</time>
      </trkpt>
      <trkpt lat="41.9524320" lon="-8.6342880">
        <ele>97.4</ele>
        <time>2019-06-21T10:31:34Z</time>
      </trkpt>
      <trkpt lat="41.9525570" lon="-8.6343230">
        <ele>96.0</ele>
        <time>2019-06-21T10:31:35Z</time>
      </trkpt>
      <trkpt lat="41.9526740" lon="-8.6343580">
        <ele>94.6</ele>
        <time>2019-06-21T10:31:36Z</time>
      </trkpt>
      <trkpt lat="41.9527890" lon="-8.6344250">
        <ele>93.2</ele>
        <time>2019-06-21T10:31:37Z</time>
      </trkpt>
      <trkpt lat="41.9528740" lon="-8.6345030">
        <ele>92.0</ele>
        <time>2019-06-21T10:31:38Z</time>
      </trkpt>
      <trkpt lat="41.9529330" lon="-8.6345640">
        <ele>90.0</ele>
        <time>2019-06-21T10:31:39Z</time>
      </trkpt>
      <trkpt lat="41.9529750" lon="-8.6346080">
        <ele>88.8</ele>
        <time>2019-06-21T10:31:40Z</time>
      </trkpt>
      <trkpt lat="41.9530190" lon="-8.6346390">
        <ele>87.4</ele>
        <time>2019-06-21T10:31:42Z</time>
      </trkpt>
      <trkpt lat="41.9530190" lon="-8.6346280">
        <ele>87.0</ele>
        <time>2019-06-21T10:31:43Z</time>
      </trkpt>
      <trkpt lat="41.9530150" lon="-8.6346240">
        <ele>85.8</ele>
        <time>2019-06-21T10:31:45Z</time>
      </trkpt>
      <trkpt lat="41.9530290" lon="-8.6346000">
        <ele>86.0</ele>
        <time>2019-06-21T10:31:47Z</time>
      </trkpt>
      <trkpt lat="41.9530460" lon="-8.6345820">
        <ele>86.4</ele>
        <time>2019-06-21T10:31:48Z</time>
      </trkpt>
      <trkpt lat="41.9531140" lon="-8.6345650">
        <ele>85.6</ele>
        <time>2019-06-21T10:31:51Z</time>
      </trkpt>
      <trkpt lat="41.9531370" lon="-8.6345580">
        <ele>85.2</ele>
        <time>2019-06-21T10:31:52Z</time>
      </trkpt>
      <trkpt lat="41.9531580" lon="-8.6345520">
        <ele>85.2</ele>
        <time>2019-06-21T10:31:53Z</time>
      </trkpt>
      <trkpt lat="41.9533250" lon="-8.6345110">
        <ele>84.8</ele>
        <time>2019-06-21T10:32:00Z</time>
      </trkpt>
      <trkpt lat="41.9533950" lon="-8.6344830">
        <ele>84.6</ele>
        <time>2019-06-21T10:32:03Z</time>
      </trkpt>
      <trkpt lat="41.9535040" lon="-8.6344260">
        <ele>84.0</ele>
        <time>2019-06-21T10:32:07Z</time>
      </trkpt>
      <trkpt lat="41.9536460" lon="-8.6343000">
        <ele>83.6</ele>
        <time>2019-06-21T10:32:13Z</time>
      </trkpt>
      <trkpt lat="41.9536750" lon="-8.6342860">
        <ele>83.6</ele>
        <time>2019-06-21T10:32:14Z</time>
      </trkpt>
      <trkpt lat="41.9538590" lon="-8.6342590">
        <ele>83.2</ele>
        <time>2019-06-21T10:32:20Z</time>
      </trkpt>
      <trkpt lat="41.9539620" lon="-8.6342260">
        <ele>82.6</ele>
        <time>2019-06-21T10:32:24Z</time>
      </trkpt>
      <trkpt lat="41.9539940" lon="-8.6342080">
        <ele>82.4</ele>
        <time>2019-06-21T10:32:26Z</time>
      </trkpt>
      <trkpt lat="41.9540830" lon="-8.6341630">
        <ele>82.4</ele>
        <time>2019-06-21T10:32:33Z</time>
      </trkpt>
      <trkpt lat="41.9541500" lon="-8.6340310">
        <ele>82.6</ele>
        <time>2019-06-21T10:32:38Z</time>
      </trkpt>
      <trkpt lat="41.9541730" lon="-8.6340090">
        <ele>82.8</ele>
        <time>2019-06-21T10:32:39Z</time>
      </trkpt>
      <trkpt lat="41.9542610" lon="-8.6339710">
        <ele>82.6</ele>
        <time>2019-06-21T10:32:42Z</time>
      </trkpt>
      <trkpt lat="41.9543160" lon="-8.6339340">
        <ele>82.6</ele>
        <time>2019-06-21T10:32:44Z</time>
      </trkpt>
      <trkpt lat="41.9544510" lon="-8.6338900">
        <ele>82.6</ele>
        <time>2019-06-21T10:32:49Z</time>
      </trkpt>
      <trkpt lat="41.9544740" lon="-8.6338920">
        <ele>82.6</ele>
        <time>2019-06-21T10:32:50Z</time>
      </trkpt>
      <trkpt lat="41.9545810" lon="-8.6338230">
        <ele>82.8</ele>
        <time>2019-06-21T10:32:56Z</time>
      </trkpt>
      <trkpt lat="41.9545950" lon="-8.6337450">
        <ele>82.8</ele>
        <time>2019-06-21T10:33:00Z</time>
      </trkpt>
      <trkpt lat="41.9546000" lon="-8.6337330">
        <ele>82.8</ele>
        <time>2019-06-21T10:33:01Z</time>
      </trkpt>
      <trkpt lat="41.9546110" lon="-8.6337260">
        <ele>82.8</ele>
        <time>2019-06-21T10:33:02Z</time>
      </trkpt>
      <trkpt lat="41.9546170" lon="-8.6337230">
        <ele>83.2</ele>
        <time>2019-06-21T10:33:06Z</time>
      </trkpt>
      <trkpt lat="41.9546170" lon="-8.6337230">
        <ele>81.0</ele>
        <time>2019-06-21T10:33:17Z</time>
      </trkpt>
      <trkpt lat="41.9546170" lon="-8.6337230">
        <ele>82.4</ele>
        <time>2019-06-21T10:33:19Z</time>
      </trkpt>
      <trkpt lat="41.9546170" lon="-8.6337230">
        <ele>83.2</ele>
        <time>2019-06-21T10:33:24Z</time>
      </trkpt>
      <trkpt lat="41.9546170" lon="-8.6337230">
        <ele>83.2</ele>
        <time>2019-06-21T10:33:28Z</time>
      </trkpt>
      <trkpt lat="41.9546460" lon="-8.6337020">
        <ele>83.0</ele>
        <time>2019-06-21T10:33:31Z</time>
      </trkpt>
      <trkpt lat="41.9546810" lon="-8.6336600">
        <ele>83.0</ele>
        <time>2019-06-21T10:33:33Z</time>
      </trkpt>
      <trkpt lat="41.9547340" lon="-8.6335980">
        <ele>83.4</ele>
        <time>2019-06-21T10:33:36Z</time>
      </trkpt>
      <trkpt lat="41.9548130" lon="-8.6335100">
        <ele>83.8</ele>
        <time>2019-06-21T10:33:40Z</time>
      </trkpt>
      <trkpt lat="41.9549240" lon="-8.6333750">
        <ele>84.6</ele>
        <time>2019-06-21T10:33:46Z</time>
      </trkpt>
      <trkpt lat="41.9549450" lon="-8.6333560">
        <ele>84.6</ele>
        <time>2019-06-21T10:33:47Z</time>
      </trkpt>
      <trkpt lat="41.9550580" lon="-8.6332560">
        <ele>85.0</ele>
        <time>2019-06-21T10:33:52Z</time>
      </trkpt>
      <trkpt lat="41.9551490" lon="-8.6331580">
        <ele>85.2</ele>
        <time>2019-06-21T10:33:56Z</time>
      </trkpt>
      <trkpt lat="41.9552390" lon="-8.6330610">
        <ele>85.6</ele>
        <time>2019-06-21T10:34:00Z</time>
      </trkpt>
      <trkpt lat="41.9553450" lon="-8.6329600">
        <ele>86.0</ele>
        <time>2019-06-21T10:34:05Z</time>
      </trkpt>
      <trkpt lat="41.9555170" lon="-8.6328420">
        <ele>86.8</ele>
        <time>2019-06-21T10:34:12Z</time>
      </trkpt>
      <trkpt lat="41.9556750" lon="-8.6328080">
        <ele>87.6</ele>
        <time>2019-06-21T10:34:18Z</time>
      </trkpt>
      <trkpt lat="41.9557030" lon="-8.6328070">
        <ele>87.8</ele>
        <time>2019-06-21T10:34:19Z</time>
      </trkpt>
      <trkpt lat="41.9558650" lon="-8.6328180">
        <ele>88.6</ele>
        <time>2019-06-21T10:34:25Z</time>
      </trkpt>
      <trkpt lat="41.9559170" lon="-8.6328300">
        <ele>89.0</ele>
        <time>2019-06-21T10:34:27Z</time>
      </trkpt>
      <trkpt lat="41.9560280" lon="-8.6328320">
        <ele>89.6</ele>
        <time>2019-06-21T10:34:32Z</time>
      </trkpt>
      <trkpt lat="41.9560900" lon="-8.6328360">
        <ele>90.0</ele>
        <time>2019-06-21T10:34:35Z</time>
      </trkpt>
      <trkpt lat="41.9561890" lon="-8.6328320">
        <ele>90.8</ele>
        <time>2019-06-21T10:34:40Z</time>
      </trkpt>
      <trkpt lat="41.9563090" lon="-8.6328790">
        <ele>90.6</ele>
        <time>2019-06-21T10:34:45Z</time>
      </trkpt>
      <trkpt lat="41.9564950" lon="-8.6329030">
        <ele>90.4</ele>
        <time>2019-06-21T10:34:50Z</time>
      </trkpt>
      <trkpt lat="41.9565390" lon="-8.6328990">
        <ele>89.8</ele>
        <time>2019-06-21T10:34:51Z</time>
      </trkpt>
      <trkpt lat="41.9567670" lon="-8.6328920">
        <ele>88.8</ele>
        <time>2019-06-21T10:34:55Z</time>
      </trkpt>
      <trkpt lat="41.9569110" lon="-8.6328740">
        <ele>87.8</ele>
        <time>2019-06-21T10:34:57Z</time>
      </trkpt>
      <trkpt lat="41.9569930" lon="-8.6328530">
        <ele>87.2</ele>
        <time>2019-06-21T10:34:58Z</time>
      </trkpt>
      <trkpt lat="41.9572380" lon="-8.6327860">
        <ele>86.0</ele>
        <time>2019-06-21T10:35:01Z</time>
      </trkpt>
      <trkpt lat="41.9575060" lon="-8.6327010">
        <ele>84.4</ele>
        <time>2019-06-21T10:35:04Z</time>
      </trkpt>
      <trkpt lat="41.9576940" lon="-8.6326460">
        <ele>83.2</ele>
        <time>2019-06-21T10:35:06Z</time>
      </trkpt>
      <trkpt lat="41.9578890" lon="-8.6325790">
        <ele>81.8</ele>
        <time>2019-06-21T10:35:08Z</time>
      </trkpt>
      <trkpt lat="41.9580830" lon="-8.6325740">
        <ele>81.2</ele>
        <time>2019-06-21T10:35:10Z</time>
      </trkpt>
      <trkpt lat="41.9581790" lon="-8.6325720">
        <ele>81.2</ele>
        <time>2019-06-21T10:35:11Z</time>
      </trkpt>
      <trkpt lat="41.9582690" lon="-8.6325850">
        <ele>81.0</ele>
        <time>2019-06-21T10:35:12Z</time>
      </trkpt>
      <trkpt lat="41.9583550" lon="-8.6326030">
        <ele>80.6</ele>
        <time>2019-06-21T10:35:13Z</time>
      </trkpt>
      <trkpt lat="41.9584420" lon="-8.6326140">
        <ele>80.6</ele>
        <time>2019-06-21T10:35:14Z</time>
      </trkpt>
      <trkpt lat="41.9586130" lon="-8.6326180">
        <ele>79.6</ele>
        <time>2019-06-21T10:35:16Z</time>
      </trkpt>
      <trkpt lat="41.9587750" lon="-8.6325900">
        <ele>79.6</ele>
        <time>2019-06-21T10:35:18Z</time>
      </trkpt>
      <trkpt lat="41.9588510" lon="-8.6325670">
        <ele>79.6</ele>
        <time>2019-06-21T10:35:19Z</time>
      </trkpt>
      <trkpt lat="41.9589230" lon="-8.6325380">
        <ele>79.4</ele>
        <time>2019-06-21T10:35:20Z</time>
      </trkpt>
      <trkpt lat="41.9591290" lon="-8.6324650">
        <ele>79.0</ele>
        <time>2019-06-21T10:35:23Z</time>
      </trkpt>
      <trkpt lat="41.9592570" lon="-8.6324150">
        <ele>79.0</ele>
        <time>2019-06-21T10:35:25Z</time>
      </trkpt>
      <trkpt lat="41.9594380" lon="-8.6323390">
        <ele>78.8</ele>
        <time>2019-06-21T10:35:28Z</time>
      </trkpt>
      <trkpt lat="41.9596740" lon="-8.6322550">
        <ele>79.0</ele>
        <time>2019-06-21T10:35:32Z</time>
      </trkpt>
      <trkpt lat="41.9598540" lon="-8.6321920">
        <ele>78.8</ele>
        <time>2019-06-21T10:35:35Z</time>
      </trkpt>
      <trkpt lat="41.9600370" lon="-8.6321270">
        <ele>79.0</ele>
        <time>2019-06-21T10:35:38Z</time>
      </trkpt>
      <trkpt lat="41.9602770" lon="-8.6320560">
        <ele>79.4</ele>
        <time>2019-06-21T10:35:42Z</time>
      </trkpt>
      <trkpt lat="41.9603360" lon="-8.6320420">
        <ele>79.6</ele>
        <time>2019-06-21T10:35:43Z</time>
      </trkpt>
      <trkpt lat="41.9605070" lon="-8.6319980">
        <ele>80.0</ele>
        <time>2019-06-21T10:35:46Z</time>
      </trkpt>
      <trkpt lat="41.9606560" lon="-8.6319730">
        <ele>80.6</ele>
        <time>2019-06-21T10:35:49Z</time>
      </trkpt>
      <trkpt lat="41.9607470" lon="-8.6319550">
        <ele>81.2</ele>
        <time>2019-06-21T10:35:51Z</time>
      </trkpt>
      <trkpt lat="41.9608820" lon="-8.6319210">
        <ele>81.8</ele>
        <time>2019-06-21T10:35:54Z</time>
      </trkpt>
      <trkpt lat="41.9610170" lon="-8.6318930">
        <ele>82.2</ele>
        <time>2019-06-21T10:35:57Z</time>
      </trkpt>
      <trkpt lat="41.9611410" lon="-8.6318590">
        <ele>83.0</ele>
        <time>2019-06-21T10:36:00Z</time>
      </trkpt>
      <trkpt lat="41.9613210" lon="-8.6317870">
        <ele>84.0</ele>
        <time>2019-06-21T10:36:05Z</time>
      </trkpt>
      <trkpt lat="41.9614580" lon="-8.6317190">
        <ele>85.0</ele>
        <time>2019-06-21T10:36:09Z</time>
      </trkpt>
      <trkpt lat="41.9616230" lon="-8.6316170">
        <ele>86.0</ele>
        <time>2019-06-21T10:36:14Z</time>
      </trkpt>
      <trkpt lat="41.9616550" lon="-8.6315940">
        <ele>86.2</ele>
        <time>2019-06-21T10:36:15Z</time>
      </trkpt>
      <trkpt lat="41.9617490" lon="-8.6315580">
        <ele>86.8</ele>
        <time>2019-06-21T10:36:18Z</time>
      </trkpt>
      <trkpt lat="41.9618500" lon="-8.6315310">
        <ele>87.4</ele>
        <time>2019-06-21T10:36:21Z</time>
      </trkpt>
      <trkpt lat="41.9620730" lon="-8.6314890">
        <ele>87.8</ele>
        <time>2019-06-21T10:36:27Z</time>
      </trkpt>
      <trkpt lat="41.9621570" lon="-8.6314770">
        <ele>87.6</ele>
        <time>2019-06-21T10:36:29Z</time>
      </trkpt>
      <trkpt lat="41.9624980" lon="-8.6313650">
        <ele>86.8</ele>
        <time>2019-06-21T10:36:37Z</time>
      </trkpt>
      <trkpt lat="41.9626020" lon="-8.6312600">
        <ele>86.4</ele>
        <time>2019-06-21T10:36:41Z</time>
      </trkpt>
      <trkpt lat="41.9626510" lon="-8.6312010">
        <ele>86.4</ele>
        <time>2019-06-21T10:36:43Z</time>
      </trkpt>
      <trkpt lat="41.9627440" lon="-8.6310500">
        <ele>86.2</ele>
        <time>2019-06-21T10:36:48Z</time>
      </trkpt>
      <trkpt lat="41.9627590" lon="-8.6310250">
        <ele>86.2</ele>
        <time>2019-06-21T10:36:49Z</time>
      </trkpt>
      <trkpt lat="41.9627990" lon="-8.6309740">
        <ele>86.2</ele>
        <time>2019-06-21T10:36:52Z</time>
      </trkpt>
      <trkpt lat="41.9628170" lon="-8.6309710">
        <ele>86.2</ele>
        <time>2019-06-21T10:36:53Z</time>
      </trkpt>
      <trkpt lat="41.9628330" lon="-8.6309800">
        <ele>86.2</ele>
        <time>2019-06-21T10:36:54Z</time>
      </trkpt>
      <trkpt lat="41.9628690" lon="-8.6310270">
        <ele>86.4</ele>
        <time>2019-06-21T10:36:57Z</time>
      </trkpt>
      <trkpt lat="41.9629040" lon="-8.6310320">
        <ele>86.4</ele>
        <time>2019-06-21T10:36:59Z</time>
      </trkpt>
      <trkpt lat="41.9629650" lon="-8.6310010">
        <ele>86.6</ele>
        <time>2019-06-21T10:37:02Z</time>
      </trkpt>
      <trkpt lat="41.9630240" lon="-8.6309890">
        <ele>86.8</ele>
        <time>2019-06-21T10:37:04Z</time>
      </trkpt>
      <trkpt lat="41.9630910" lon="-8.6309990">
        <ele>87.0</ele>
        <time>2019-06-21T10:37:06Z</time>
      </trkpt>
      <trkpt lat="41.9632440" lon="-8.6309970">
        <ele>87.0</ele>
        <time>2019-06-21T10:37:10Z</time>
      </trkpt>
      <trkpt lat="41.9635490" lon="-8.6309280">
        <ele>86.8</ele>
        <time>2019-06-21T10:37:17Z</time>
      </trkpt>
      <trkpt lat="41.9638840" lon="-8.6308200">
        <ele>86.8</ele>
        <time>2019-06-21T10:37:24Z</time>
      </trkpt>
      <trkpt lat="41.9642090" lon="-8.6307890">
        <ele>85.4</ele>
        <time>2019-06-21T10:37:30Z</time>
      </trkpt>
      <trkpt lat="41.9643200" lon="-8.6307900">
        <ele>85.2</ele>
        <time>2019-06-21T10:37:32Z</time>
      </trkpt>
      <trkpt lat="41.9644930" lon="-8.6307770">
        <ele>84.4</ele>
        <time>2019-06-21T10:37:35Z</time>
      </trkpt>
      <trkpt lat="41.9645480" lon="-8.6307700">
        <ele>84.4</ele>
        <time>2019-06-21T10:37:36Z</time>
      </trkpt>
      <trkpt lat="41.9646520" lon="-8.6307790">
        <ele>84.2</ele>
        <time>2019-06-21T10:37:38Z</time>
      </trkpt>
      <trkpt lat="41.9647590" lon="-8.6308050">
        <ele>84.2</ele>
        <time>2019-06-21T10:37:40Z</time>
      </trkpt>
      <trkpt lat="41.9648140" lon="-8.6308180">
        <ele>84.2</ele>
        <time>2019-06-21T10:37:41Z</time>
      </trkpt>
      <trkpt lat="41.9649210" lon="-8.6308580">
        <ele>84.4</ele>
        <time>2019-06-21T10:37:43Z</time>
      </trkpt>
      <trkpt lat="41.9650560" lon="-8.6309360">
        <ele>84.8</ele>
        <time>2019-06-21T10:37:46Z</time>
      </trkpt>
      <trkpt lat="41.9651460" lon="-8.6309760">
        <ele>85.0</ele>
        <time>2019-06-21T10:37:48Z</time>
      </trkpt>
      <trkpt lat="41.9653000" lon="-8.6310100">
        <ele>85.2</ele>
        <time>2019-06-21T10:37:51Z</time>
      </trkpt>
      <trkpt lat="41.9654400" lon="-8.6311210">
        <ele>84.6</ele>
        <time>2019-06-21T10:37:54Z</time>
      </trkpt>
      <trkpt lat="41.9655620" lon="-8.6313650">
        <ele>84.0</ele>
        <time>2019-06-21T10:37:58Z</time>
      </trkpt>
      <trkpt lat="41.9656920" lon="-8.6314990">
        <ele>83.4</ele>
        <time>2019-06-21T10:38:01Z</time>
      </trkpt>
      <trkpt lat="41.9657430" lon="-8.6315360">
        <ele>83.2</ele>
        <time>2019-06-21T10:38:02Z</time>
      </trkpt>
      <trkpt lat="41.9658520" lon="-8.6316150">
        <ele>82.8</ele>
        <time>2019-06-21T10:38:04Z</time>
      </trkpt>
      <trkpt lat="41.9659550" lon="-8.6316970">
        <ele>82.4</ele>
        <time>2019-06-21T10:38:06Z</time>
      </trkpt>
      <trkpt lat="41.9661070" lon="-8.6318060">
        <ele>82.2</ele>
        <time>2019-06-21T10:38:09Z</time>
      </trkpt>
      <trkpt lat="41.9662650" lon="-8.6319010">
        <ele>81.8</ele>
        <time>2019-06-21T10:38:12Z</time>
      </trkpt>
      <trkpt lat="41.9665240" lon="-8.6320710">
        <ele>81.0</ele>
        <time>2019-06-21T10:38:17Z</time>
      </trkpt>
      <trkpt lat="41.9665730" lon="-8.6321110">
        <ele>81.0</ele>
        <time>2019-06-21T10:38:18Z</time>
      </trkpt>
      <trkpt lat="41.9669540" lon="-8.6323710">
        <ele>80.4</ele>
        <time>2019-06-21T10:38:25Z</time>
      </trkpt>
      <trkpt lat="41.9672740" lon="-8.6325550">
        <ele>80.6</ele>
        <time>2019-06-21T10:38:31Z</time>
      </trkpt>
      <trkpt lat="41.9673780" lon="-8.6326030">
        <ele>80.0</ele>
        <time>2019-06-21T10:38:33Z</time>
      </trkpt>
      <trkpt lat="41.9675240" lon="-8.6326580">
        <ele>79.6</ele>
        <time>2019-06-21T10:38:36Z</time>
      </trkpt>
      <trkpt lat="41.9675730" lon="-8.6326680">
        <ele>79.6</ele>
        <time>2019-06-21T10:38:37Z</time>
      </trkpt>
      <trkpt lat="41.9677480" lon="-8.6327020">
        <ele>79.2</ele>
        <time>2019-06-21T10:38:41Z</time>
      </trkpt>
      <trkpt lat="41.9678390" lon="-8.6327150">
        <ele>79.0</ele>
        <time>2019-06-21T10:38:43Z</time>
      </trkpt>
      <trkpt lat="41.9679950" lon="-8.6326940">
        <ele>78.8</ele>
        <time>2019-06-21T10:38:46Z</time>
      </trkpt>
      <trkpt lat="41.9682300" lon="-8.6326460">
        <ele>79.4</ele>
        <time>2019-06-21T10:38:51Z</time>
      </trkpt>
      <trkpt lat="41.9685550" lon="-8.6326800">
        <ele>78.8</ele>
        <time>2019-06-21T10:38:57Z</time>
      </trkpt>
      <trkpt lat="41.9689640" lon="-8.6327610">
        <ele>78.6</ele>
        <time>2019-06-21T10:39:04Z</time>
      </trkpt>
      <trkpt lat="41.9692510" lon="-8.6328960">
        <ele>78.8</ele>
        <time>2019-06-21T10:39:10Z</time>
      </trkpt>
      <trkpt lat="41.9695510" lon="-8.6330010">
        <ele>79.0</ele>
        <time>2019-06-21T10:39:17Z</time>
      </trkpt>
      <trkpt lat="41.9696140" lon="-8.6329970">
        <ele>79.0</ele>
        <time>2019-06-21T10:39:21Z</time>
      </trkpt>
      <trkpt lat="41.9696240" lon="-8.6329940">
        <ele>78.8</ele>
        <time>2019-06-21T10:39:27Z</time>
      </trkpt>
      <trkpt lat="41.9696390" lon="-8.6329820">
        <ele>79.0</ele>
        <time>2019-06-21T10:39:28Z</time>
      </trkpt>
      <trkpt lat="41.9697160" lon="-8.6330050">
        <ele>78.8</ele>
        <time>2019-06-21T10:39:32Z</time>
      </trkpt>
      <trkpt lat="41.9697370" lon="-8.6330050">
        <ele>78.8</ele>
        <time>2019-06-21T10:39:33Z</time>
      </trkpt>
      <trkpt lat="41.9698770" lon="-8.6330130">
        <ele>79.0</ele>
        <time>2019-06-21T10:39:39Z</time>
      </trkpt>
      <trkpt lat="41.9699720" lon="-8.6329940">
        <ele>79.2</ele>
        <time>2019-06-21T10:39:44Z</time>
      </trkpt>
      <trkpt lat="41.9701070" lon="-8.6329950">
        <ele>79.6</ele>
        <time>2019-06-21T10:39:49Z</time>
      </trkpt>
      <trkpt lat="41.9701770" lon="-8.6329970">
        <ele>79.2</ele>
        <time>2019-06-21T10:39:51Z</time>
      </trkpt>
      <trkpt lat="41.9704740" lon="-8.6330020">
        <ele>79.8</ele>
        <time>2019-06-21T10:40:00Z</time>
      </trkpt>
      <trkpt lat="41.9705510" lon="-8.6330020">
        <ele>79.6</ele>
        <time>2019-06-21T10:40:04Z</time>
      </trkpt>
      <trkpt lat="41.9705500" lon="-8.6330020">
        <ele>79.6</ele>
        <time>2019-06-21T10:40:05Z</time>
      </trkpt>
      <trkpt lat="41.9705530" lon="-8.6330020">
        <ele>79.4</ele>
        <time>2019-06-21T10:40:14Z</time>
      </trkpt>
      <trkpt lat="41.9705620" lon="-8.6330060">
        <ele>79.6</ele>
        <time>2019-06-21T10:40:18Z</time>
      </trkpt>
      <trkpt lat="41.9705940" lon="-8.6330100">
        <ele>79.6</ele>
        <time>2019-06-21T10:40:20Z</time>
      </trkpt>
      <trkpt lat="41.9706450" lon="-8.6330140">
        <ele>79.6</ele>
        <time>2019-06-21T10:40:22Z</time>
      </trkpt>
      <trkpt lat="41.9707380" lon="-8.6330330">
        <ele>80.0</ele>
        <time>2019-06-21T10:40:25Z</time>
      </trkpt>
      <trkpt lat="41.9707720" lon="-8.6330420">
        <ele>80.2</ele>
        <time>2019-06-21T10:40:26Z</time>
      </trkpt>
      <trkpt lat="41.9709280" lon="-8.6330500">
        <ele>80.0</ele>
        <time>2019-06-21T10:40:30Z</time>
      </trkpt>
      <trkpt lat="41.9712740" lon="-8.6330830">
        <ele>80.2</ele>
        <time>2019-06-21T10:40:38Z</time>
      </trkpt>
      <trkpt lat="41.9716660" lon="-8.6331260">
        <ele>79.6</ele>
        <time>2019-06-21T10:40:46Z</time>
      </trkpt>
      <trkpt lat="41.9718000" lon="-8.6331290">
        <ele>79.6</ele>
        <time>2019-06-21T10:40:49Z</time>
      </trkpt>
      <trkpt lat="41.9719100" lon="-8.6331180">
        <ele>79.4</ele>
        <time>2019-06-21T10:40:52Z</time>
      </trkpt>
      <trkpt lat="41.9721500" lon="-8.6331820">
        <ele>80.0</ele>
        <time>2019-06-21T10:40:58Z</time>
      </trkpt>
      <trkpt lat="41.9723080" lon="-8.6332150">
        <ele>79.6</ele>
        <time>2019-06-21T10:41:02Z</time>
      </trkpt>
      <trkpt lat="41.9724320" lon="-8.6332560">
        <ele>79.8</ele>
        <time>2019-06-21T10:41:05Z</time>
      </trkpt>
      <trkpt lat="41.9727560" lon="-8.6333230">
        <ele>79.4</ele>
        <time>2019-06-21T10:41:12Z</time>
      </trkpt>
      <trkpt lat="41.9729600" lon="-8.6333630">
        <ele>79.0</ele>
        <time>2019-06-21T10:41:17Z</time>
      </trkpt>
      <trkpt lat="41.9730380" lon="-8.6333780">
        <ele>79.0</ele>
        <time>2019-06-21T10:41:19Z</time>
      </trkpt>
      <trkpt lat="41.9732670" lon="-8.6334450">
        <ele>78.8</ele>
        <time>2019-06-21T10:41:25Z</time>
      </trkpt>
      <trkpt lat="41.9736490" lon="-8.6335420">
        <ele>78.4</ele>
        <time>2019-06-21T10:41:34Z</time>
      </trkpt>
      <trkpt lat="41.9737880" lon="-8.6335700">
        <ele>78.6</ele>
        <time>2019-06-21T10:41:37Z</time>
      </trkpt>
      <trkpt lat="41.9739350" lon="-8.6336060">
        <ele>78.6</ele>
        <time>2019-06-21T10:41:40Z</time>
      </trkpt>
      <trkpt lat="41.9740760" lon="-8.6336410">
        <ele>78.2</ele>
        <time>2019-06-21T10:41:43Z</time>
      </trkpt>
      <trkpt lat="41.9741660" lon="-8.6336690">
        <ele>78.2</ele>
        <time>2019-06-21T10:41:45Z</time>
      </trkpt>
      <trkpt lat="41.9743070" lon="-8.6336960">
        <ele>78.2</ele>
        <time>2019-06-21T10:41:48Z</time>
      </trkpt>
      <trkpt lat="41.9743530" lon="-8.6337000">
        <ele>78.0</ele>
        <time>2019-06-21T10:41:49Z</time>
      </trkpt>
      <trkpt lat="41.9744870" lon="-8.6337300">
        <ele>78.2</ele>
        <time>2019-06-21T10:41:52Z</time>
      </trkpt>
      <trkpt lat="41.9745660" lon="-8.6337570">
        <ele>78.6</ele>
        <time>2019-06-21T10:41:54Z</time>
      </trkpt>
      <trkpt lat="41.9748440" lon="-8.6338350">
        <ele>78.2</ele>
        <time>2019-06-21T10:42:02Z</time>
      </trkpt>
      <trkpt lat="41.9750720" lon="-8.6338410">
        <ele>78.2</ele>
        <time>2019-06-21T10:42:09Z</time>
      </trkpt>
      <trkpt lat="41.9753270" lon="-8.6338800">
        <ele>78.0</ele>
        <time>2019-06-21T10:42:16Z</time>
      </trkpt>
      <trkpt lat="41.9755150" lon="-8.6339490">
        <ele>77.6</ele>
        <time>2019-06-21T10:42:21Z</time>
      </trkpt>
      <trkpt lat="41.9756660" lon="-8.6339670">
        <ele>77.2</ele>
        <time>2019-06-21T10:42:25Z</time>
      </trkpt>
      <trkpt lat="41.9757070" lon="-8.6339720">
        <ele>77.4</ele>
        <time>2019-06-21T10:42:26Z</time>
      </trkpt>
      <trkpt lat="41.9757900" lon="-8.6339910">
        <ele>76.6</ele>
        <time>2019-06-21T10:42:28Z</time>
      </trkpt>
      <trkpt lat="41.9758340" lon="-8.6340030">
        <ele>76.2</ele>
        <time>2019-06-21T10:42:29Z</time>
      </trkpt>
      <trkpt lat="41.9759810" lon="-8.6340370">
        <ele>75.2</ele>
        <time>2019-06-21T10:42:32Z</time>
      </trkpt>
      <trkpt lat="41.9760280" lon="-8.6340470">
        <ele>74.8</ele>
        <time>2019-06-21T10:42:33Z</time>
      </trkpt>
      <trkpt lat="41.9761680" lon="-8.6340920">
        <ele>74.6</ele>
        <time>2019-06-21T10:42:36Z</time>
      </trkpt>
      <trkpt lat="41.9762190" lon="-8.6341130">
        <ele>74.2</ele>
        <time>2019-06-21T10:42:37Z</time>
      </trkpt>
      <trkpt lat="41.9762720" lon="-8.6341320">
        <ele>74.0</ele>
        <time>2019-06-21T10:42:38Z</time>
      </trkpt>
      <trkpt lat="41.9764700" lon="-8.6341820">
        <ele>72.6</ele>
        <time>2019-06-21T10:42:41Z</time>
      </trkpt>
      <trkpt lat="41.9765460" lon="-8.6341980">
        <ele>71.8</ele>
        <time>2019-06-21T10:42:42Z</time>
      </trkpt>
      <trkpt lat="41.9766250" lon="-8.6342120">
        <ele>70.8</ele>
        <time>2019-06-21T10:42:43Z</time>
      </trkpt>
      <trkpt lat="41.9767970" lon="-8.6342370">
        <ele>69.6</ele>
        <time>2019-06-21T10:42:45Z</time>
      </trkpt>
      <trkpt lat="41.9769770" lon="-8.6342620">
        <ele>67.4</ele>
        <time>2019-06-21T10:42:47Z</time>
      </trkpt>
      <trkpt lat="41.9772450" lon="-8.6342970">
        <ele>66.4</ele>
        <time>2019-06-21T10:42:51Z</time>
      </trkpt>
      <trkpt lat="41.9773440" lon="-8.6343170">
        <ele>66.2</ele>
        <time>2019-06-21T10:42:53Z</time>
      </trkpt>
      <trkpt lat="41.9774250" lon="-8.6343020">
        <ele>65.6</ele>
        <time>2019-06-21T10:42:55Z</time>
      </trkpt>
      <trkpt lat="41.9775530" lon="-8.6341760">
        <ele>65.2</ele>
        <time>2019-06-21T10:42:59Z</time>
      </trkpt>
      <trkpt lat="41.9775790" lon="-8.6341380">
        <ele>65.2</ele>
        <time>2019-06-21T10:43:00Z</time>
      </trkpt>
      <trkpt lat="41.9776640" lon="-8.6340470">
        <ele>65.2</ele>
        <time>2019-06-21T10:43:03Z</time>
      </trkpt>
      <trkpt lat="41.9777000" lon="-8.6340430">
        <ele>65.4</ele>
        <time>2019-06-21T10:43:04Z</time>
      </trkpt>
      <trkpt lat="41.9778960" lon="-8.6341080">
        <ele>64.4</ele>
        <time>2019-06-21T10:43:08Z</time>
      </trkpt>
      <trkpt lat="41.9779540" lon="-8.6341310">
        <ele>64.0</ele>
        <time>2019-06-21T10:43:09Z</time>
      </trkpt>
      <trkpt lat="41.9781300" lon="-8.6341930">
        <ele>62.8</ele>
        <time>2019-06-21T10:43:12Z</time>
      </trkpt>
      <trkpt lat="41.9782450" lon="-8.6342430">
        <ele>62.8</ele>
        <time>2019-06-21T10:43:14Z</time>
      </trkpt>
      <trkpt lat="41.9783000" lon="-8.6342770">
        <ele>63.0</ele>
        <time>2019-06-21T10:43:15Z</time>
      </trkpt>
      <trkpt lat="41.9785050" lon="-8.6344060">
        <ele>62.2</ele>
        <time>2019-06-21T10:43:19Z</time>
      </trkpt>
      <trkpt lat="41.9785940" lon="-8.6344550">
        <ele>61.8</ele>
        <time>2019-06-21T10:43:21Z</time>
      </trkpt>
      <trkpt lat="41.9786370" lon="-8.6344780">
        <ele>61.6</ele>
        <time>2019-06-21T10:43:22Z</time>
      </trkpt>
      <trkpt lat="41.9788190" lon="-8.6345950">
        <ele>60.6</ele>
        <time>2019-06-21T10:43:26Z</time>
      </trkpt>
      <trkpt lat="41.9788820" lon="-8.6346300">
        <ele>60.2</ele>
        <time>2019-06-21T10:43:28Z</time>
      </trkpt>
      <trkpt lat="41.9789440" lon="-8.6346520">
        <ele>59.8</ele>
        <time>2019-06-21T10:43:33Z</time>
      </trkpt>
      <trkpt lat="41.9789480" lon="-8.6346620">
        <ele>59.6</ele>
        <time>2019-06-21T10:43:35Z</time>
      </trkpt>
      <trkpt lat="41.9789480" lon="-8.6346620">
        <ele>59.6</ele>
        <time>2019-06-21T10:43:39Z</time>
      </trkpt>
      <trkpt lat="41.9789480" lon="-8.6346620">
        <ele>59.6</ele>
        <time>2019-06-21T10:43:40Z</time>
      </trkpt>
      <trkpt lat="41.9789490" lon="-8.6346630">
        <ele>59.8</ele>
        <time>2019-06-21T10:43:46Z</time>
      </trkpt>
      <trkpt lat="41.9789270" lon="-8.6346370">
        <ele>59.8</ele>
        <time>2019-06-21T10:43:50Z</time>
      </trkpt>
      <trkpt lat="41.9789200" lon="-8.6346370">
        <ele>60.0</ele>
        <time>2019-06-21T10:43:51Z</time>
      </trkpt>
      <trkpt lat="41.9788600" lon="-8.6345960">
        <ele>60.2</ele>
        <time>2019-06-21T10:43:58Z</time>
      </trkpt>
      <trkpt lat="41.9788580" lon="-8.6345930">
        <ele>60.0</ele>
        <time>2019-06-21T10:44:05Z</time>
      </trkpt>
      <trkpt lat="41.9788580" lon="-8.6345930">
        <ele>60.0</ele>
        <time>2019-06-21T10:44:26Z</time>
      </trkpt>
      <trkpt lat="41.9788580" lon="-8.6345940">
        <ele>59.8</ele>
        <time>2019-06-21T10:44:40Z</time>
      </trkpt>
      <trkpt lat="41.9788580" lon="-8.6345940">
        <ele>59.8</ele>
        <time>2019-06-21T10:44:42Z</time>
      </trkpt>
      <trkpt lat="41.9788580" lon="-8.6345940">
        <ele>59.8</ele>
        <time>2019-06-21T10:44:53Z</time>
      </trkpt>
      <trkpt lat="41.9788580" lon="-8.6345940">
        <ele>59.6</ele>
        <time>2019-06-21T10:44:56Z</time>
      </trkpt>
      <trkpt lat="41.9788580" lon="-8.6345940">
        <ele>59.8</ele>
        <time>2019-06-21T10:44:59Z</time>
      </trkpt>
      <trkpt lat="41.9788580" lon="-8.6345940">
        <ele>59.6</ele>
        <time>2019-06-21T10:45:02Z</time>
      </trkpt>
      <trkpt lat="41.9788580" lon="-8.6345940">
        <ele>59.6</ele>
        <time>2019-06-21T10:45:08Z</time>
      </trkpt>
      <trkpt lat="41.9788580" lon="-8.6345940">
        <ele>59.6</ele>
        <time>2019-06-21T10:45:12Z</time>
      </trkpt>
      <trkpt lat="41.9788590" lon="-8.6345970">
        <ele>59.4</ele>
        <time>2019-06-21T10:45:22Z</time>
      </trkpt>
      <trkpt lat="41.9788590" lon="-8.6345970">
        <ele>59.6</ele>
        <time>2019-06-21T10:45:40Z</time>
      </trkpt>
      <trkpt lat="41.9788590" lon="-8.6345970">
        <ele>59.6</ele>
        <time>2019-06-21T10:45:43Z</time>
      </trkpt>
      <trkpt lat="41.9788590" lon="-8.6345970">
        <ele>59.6</ele>
        <time>2019-06-21T10:45:47Z</time>
      </trkpt>
      <trkpt lat="41.9788570" lon="-8.6345950">
        <ele>59.6</ele>
        <time>2019-06-21T10:46:01Z</time>
      </trkpt>
      <trkpt lat="41.9788570" lon="-8.6345950">
        <ele>59.4</ele>
        <time>2019-06-21T10:46:16Z</time>
      </trkpt>
      <trkpt lat="41.9788570" lon="-8.6345950">
        <ele>59.6</ele>
        <time>2019-06-21T10:46:19Z</time>
      </trkpt>
      <trkpt lat="41.9788550" lon="-8.6345950">
        <ele>59.6</ele>
        <time>2019-06-21T10:46:43Z</time>
      </trkpt>
      <trkpt lat="41.9788550" lon="-8.6345950">
        <ele>59.6</ele>
        <time>2019-06-21T10:46:50Z</time>
      </trkpt>
      <trkpt lat="41.9788550" lon="-8.6345950">
        <ele>59.6</ele>
        <time>2019-06-21T10:46:53Z</time>
      </trkpt>
      <trkpt lat="41.9788550" lon="-8.6345950">
        <ele>59.6</ele>
        <time>2019-06-21T10:46:59Z</time>
      </trkpt>
      <trkpt lat="41.9788550" lon="-8.6345950">
        <ele>59.6</ele>
        <time>2019-06-21T10:47:02Z</time>
      </trkpt>
      <trkpt lat="41.9788550" lon="-8.6345950">
        <ele>59.6</ele>
        <time>2019-06-21T10:47:03Z</time>
      </trkpt>
      <trkpt lat="41.9788640" lon="-8.6346120">
        <ele>59.6</ele>
        <time>2019-06-21T10:47:11Z</time>
      </trkpt>
      <trkpt lat="41.9788730" lon="-8.6346180">
        <ele>59.6</ele>
        <time>2019-06-21T10:47:16Z</time>
      </trkpt>
      <trkpt lat="41.9788750" lon="-8.6346190">
        <ele>59.6</ele>
        <time>2019-06-21T10:47:19Z</time>
      </trkpt>
      <trkpt lat="41.9788860" lon="-8.6346270">
        <ele>59.6</ele>
        <time>2019-06-21T10:47:20Z</time>
      </trkpt>
      <trkpt lat="41.9789730" lon="-8.6346450">
        <ele>59.4</ele>
        <time>2019-06-21T10:47:26Z</time>
      </trkpt>
      <trkpt lat="41.9790670" lon="-8.6346430">
        <ele>58.8</ele>
        <time>2019-06-21T10:47:30Z</time>
      </trkpt>
      <trkpt lat="41.9790930" lon="-8.6346380">
        <ele>58.6</ele>
        <time>2019-06-21T10:47:31Z</time>
      </trkpt>
      <trkpt lat="41.9791210" lon="-8.6346360">
        <ele>58.4</ele>
        <time>2019-06-21T10:47:32Z</time>
      </trkpt>
      <trkpt lat="41.9792670" lon="-8.6346100">
        <ele>57.6</ele>
        <time>2019-06-21T10:47:36Z</time>
      </trkpt>
      <trkpt lat="41.9793650" lon="-8.6345830">
        <ele>57.2</ele>
        <time>2019-06-21T10:47:38Z</time>
      </trkpt>
      <trkpt lat="41.9794570" lon="-8.6345740">
        <ele>56.4</ele>
        <time>2019-06-21T10:47:40Z</time>
      </trkpt>
      <trkpt lat="41.9795070" lon="-8.6345730">
        <ele>56.2</ele>
        <time>2019-06-21T10:47:41Z</time>
      </trkpt>
      <trkpt lat="41.9795550" lon="-8.6345760">
        <ele>56.0</ele>
        <time>2019-06-21T10:47:42Z</time>
      </trkpt>
      <trkpt lat="41.9796810" lon="-8.6346270">
        <ele>55.4</ele>
        <time>2019-06-21T10:47:45Z</time>
      </trkpt>
      <trkpt lat="41.9797250" lon="-8.6346460">
        <ele>55.0</ele>
        <time>2019-06-21T10:47:46Z</time>
      </trkpt>
      <trkpt lat="41.9798990" lon="-8.6346990">
        <ele>53.4</ele>
        <time>2019-06-21T10:47:50Z</time>
      </trkpt>
      <trkpt lat="41.9800380" lon="-8.6347010">
        <ele>51.8</ele>
        <time>2019-06-21T10:47:53Z</time>
      </trkpt>
      <trkpt lat="41.9801410" lon="-8.6347110">
        <ele>50.6</ele>
        <time>2019-06-21T10:47:55Z</time>
      </trkpt>
      <trkpt lat="41.9803970" lon="-8.6347590">
        <ele>49.6</ele>
        <time>2019-06-21T10:47:59Z</time>
      </trkpt>
      <trkpt lat="41.9812040" lon="-8.6348510">
        <ele>48.4</ele>
        <time>2019-06-21T10:48:02Z</time>
      </trkpt>
      <trkpt lat="41.9812580" lon="-8.6348440">
        <ele>48.0</ele>
        <time>2019-06-21T10:48:03Z</time>
      </trkpt>
      <trkpt lat="41.9814060" lon="-8.6348680">
        <ele>47.0</ele>
        <time>2019-06-21T10:48:05Z</time>
      </trkpt>
      <trkpt lat="41.9815570" lon="-8.6348830">
        <ele>45.6</ele>
        <time>2019-06-21T10:48:07Z</time>
      </trkpt>
      <trkpt lat="41.9817770" lon="-8.6349100">
        <ele>44.8</ele>
        <time>2019-06-21T10:48:10Z</time>
      </trkpt>
      <trkpt lat="41.9818450" lon="-8.6349130">
        <ele>44.4</ele>
        <time>2019-06-21T10:48:11Z</time>
      </trkpt>
      <trkpt lat="41.9819880" lon="-8.6348510">
        <ele>43.8</ele>
        <time>2019-06-21T10:48:13Z</time>
      </trkpt>
      <trkpt lat="41.9820560" lon="-8.6347990">
        <ele>43.4</ele>
        <time>2019-06-21T10:48:14Z</time>
      </trkpt>
      <trkpt lat="41.9821720" lon="-8.6347040">
        <ele>43.0</ele>
        <time>2019-06-21T10:48:16Z</time>
      </trkpt>
      <trkpt lat="41.9823300" lon="-8.6345500">
        <ele>42.2</ele>
        <time>2019-06-21T10:48:19Z</time>
      </trkpt>
      <trkpt lat="41.9824210" lon="-8.6344420">
        <ele>42.4</ele>
        <time>2019-06-21T10:48:21Z</time>
      </trkpt>
      <trkpt lat="41.9825340" lon="-8.6342600">
        <ele>42.2</ele>
        <time>2019-06-21T10:48:24Z</time>
      </trkpt>
      <trkpt lat="41.9825750" lon="-8.6342090">
        <ele>41.8</ele>
        <time>2019-06-21T10:48:25Z</time>
      </trkpt>
      <trkpt lat="41.9827020" lon="-8.6340940">
        <ele>41.8</ele>
        <time>2019-06-21T10:48:28Z</time>
      </trkpt>
      <trkpt lat="41.9827410" lon="-8.6340620">
        <ele>39.2</ele>
        <time>2019-06-21T10:48:29Z</time>
      </trkpt>
      <trkpt lat="41.9827770" lon="-8.6340300">
        <ele>40.6</ele>
        <time>2019-06-21T10:48:30Z</time>
      </trkpt>
      <trkpt lat="41.9828460" lon="-8.6339740">
        <ele>43.2</ele>
        <time>2019-06-21T10:48:32Z</time>
      </trkpt>
      <trkpt lat="41.9828860" lon="-8.6339520">
        <ele>41.6</ele>
        <time>2019-06-21T10:48:33Z</time>
      </trkpt>
      <trkpt lat="41.9830970" lon="-8.6338620">
        <ele>40.6</ele>
        <time>2019-06-21T10:48:37Z</time>
      </trkpt>
      <trkpt lat="41.9832320" lon="-8.6337860">
        <ele>39.0</ele>
        <time>2019-06-21T10:48:39Z</time>
      </trkpt>
      <trkpt lat="41.9833030" lon="-8.6337400">
        <ele>38.2</ele>
        <time>2019-06-21T10:48:40Z</time>
      </trkpt>
      <trkpt lat="41.9833730" lon="-8.6336880">
        <ele>37.6</ele>
        <time>2019-06-21T10:48:41Z</time>
      </trkpt>
      <trkpt lat="41.9836360" lon="-8.6334890">
        <ele>36.6</ele>
        <time>2019-06-21T10:48:45Z</time>
      </trkpt>
      <trkpt lat="41.9836830" lon="-8.6334420">
        <ele>36.4</ele>
        <time>2019-06-21T10:48:46Z</time>
      </trkpt>
      <trkpt lat="41.9837590" lon="-8.6333610">
        <ele>32.4</ele>
        <time>2019-06-21T10:48:48Z</time>
      </trkpt>
      <trkpt lat="41.9837950" lon="-8.6333310">
        <ele>32.2</ele>
        <time>2019-06-21T10:48:49Z</time>
      </trkpt>
      <trkpt lat="41.9838680" lon="-8.6332870">
        <ele>35.0</ele>
        <time>2019-06-21T10:48:51Z</time>
      </trkpt>
      <trkpt lat="41.9840040" lon="-8.6332310">
        <ele>34.8</ele>
        <time>2019-06-21T10:48:55Z</time>
      </trkpt>
      <trkpt lat="41.9840750" lon="-8.6332120">
        <ele>35.0</ele>
        <time>2019-06-21T10:48:57Z</time>
      </trkpt>
      <trkpt lat="41.9841510" lon="-8.6331950">
        <ele>35.2</ele>
        <time>2019-06-21T10:48:59Z</time>
      </trkpt>
      <trkpt lat="41.9842940" lon="-8.6332240">
        <ele>35.4</ele>
        <time>2019-06-21T10:49:03Z</time>
      </trkpt>
      <trkpt lat="41.9843820" lon="-8.6332770">
        <ele>36.4</ele>
        <time>2019-06-21T10:49:07Z</time>
      </trkpt>
      <trkpt lat="41.9843960" lon="-8.6332900">
        <ele>37.0</ele>
        <time>2019-06-21T10:49:08Z</time>
      </trkpt>
      <trkpt lat="41.9844360" lon="-8.6333340">
        <ele>37.2</ele>
        <time>2019-06-21T10:49:11Z</time>
      </trkpt>
      <trkpt lat="41.9844470" lon="-8.6333510">
        <ele>37.6</ele>
        <time>2019-06-21T10:49:12Z</time>
      </trkpt>
      <trkpt lat="41.9844870" lon="-8.6333900">
        <ele>37.8</ele>
        <time>2019-06-21T10:49:15Z</time>
      </trkpt>
      <trkpt lat="41.9845330" lon="-8.6334450">
        <ele>38.4</ele>
        <time>2019-06-21T10:49:18Z</time>
      </trkpt>
      <trkpt lat="41.9846140" lon="-8.6335370">
        <ele>38.4</ele>
        <time>2019-06-21T10:49:22Z</time>
      </trkpt>
      <trkpt lat="41.9846810" lon="-8.6336010">
        <ele>38.6</ele>
        <time>2019-06-21T10:49:25Z</time>
      </trkpt>
      <trkpt lat="41.9847790" lon="-8.6336830">
        <ele>38.8</ele>
        <time>2019-06-21T10:49:29Z</time>
      </trkpt>
      <trkpt lat="41.9849880" lon="-8.6338340">
        <ele>39.0</ele>
        <time>2019-06-21T10:49:37Z</time>
      </trkpt>
      <trkpt lat="41.9851510" lon="-8.6339570">
        <ele>39.4</ele>
        <time>2019-06-21T10:49:44Z</time>
      </trkpt>
      <trkpt lat="41.9852460" lon="-8.6340370">
        <ele>39.6</ele>
        <time>2019-06-21T10:49:48Z</time>
      </trkpt>
      <trkpt lat="41.9853210" lon="-8.6340960">
        <ele>39.8</ele>
        <time>2019-06-21T10:49:51Z</time>
      </trkpt>
      <trkpt lat="41.9854980" lon="-8.6342310">
        <ele>40.4</ele>
        <time>2019-06-21T10:49:58Z</time>
      </trkpt>
      <trkpt lat="41.9855690" lon="-8.6342810">
        <ele>40.8</ele>
        <time>2019-06-21T10:50:01Z</time>
      </trkpt>
      <trkpt lat="41.9856770" lon="-8.6343690">
        <ele>41.6</ele>
        <time>2019-06-21T10:50:06Z</time>
      </trkpt>
      <trkpt lat="41.9857390" lon="-8.6344120">
        <ele>42.0</ele>
        <time>2019-06-21T10:50:09Z</time>
      </trkpt>
      <trkpt lat="41.9858190" lon="-8.6344650">
        <ele>42.6</ele>
        <time>2019-06-21T10:50:13Z</time>
      </trkpt>
      <trkpt lat="41.9859590" lon="-8.6345400">
        <ele>42.8</ele>
        <time>2019-06-21T10:50:19Z</time>
      </trkpt>
      <trkpt lat="41.9859770" lon="-8.6345470">
        <ele>43.0</ele>
        <time>2019-06-21T10:50:20Z</time>
      </trkpt>
      <trkpt lat="41.9860870" lon="-8.6345890">
        <ele>44.2</ele>
        <time>2019-06-21T10:50:26Z</time>
      </trkpt>
      <trkpt lat="41.9861790" lon="-8.6346750">
        <ele>45.4</ele>
        <time>2019-06-21T10:50:32Z</time>
      </trkpt>
      <trkpt lat="41.9861910" lon="-8.6346890">
        <ele>45.6</ele>
        <time>2019-06-21T10:50:33Z</time>
      </trkpt>
      <trkpt lat="41.9862310" lon="-8.6347680">
        <ele>46.6</ele>
        <time>2019-06-21T10:50:38Z</time>
      </trkpt>
      <trkpt lat="41.9862450" lon="-8.6348040">
        <ele>47.0</ele>
        <time>2019-06-21T10:50:40Z</time>
      </trkpt>
      <trkpt lat="41.9862740" lon="-8.6348550">
        <ele>47.6</ele>
        <time>2019-06-21T10:50:43Z</time>
      </trkpt>
      <trkpt lat="41.9863450" lon="-8.6349280">
        <ele>48.4</ele>
        <time>2019-06-21T10:50:48Z</time>
      </trkpt>
      <trkpt lat="41.9863580" lon="-8.6349440">
        <ele>48.8</ele>
        <time>2019-06-21T10:50:49Z</time>
      </trkpt>
      <trkpt lat="41.9864190" lon="-8.6350200">
        <ele>49.6</ele>
        <time>2019-06-21T10:50:54Z</time>
      </trkpt>
      <trkpt lat="41.9864420" lon="-8.6350470">
        <ele>49.8</ele>
        <time>2019-06-21T10:50:56Z</time>
      </trkpt>
      <trkpt lat="41.9864830" lon="-8.6351000">
        <ele>50.2</ele>
        <time>2019-06-21T10:51:00Z</time>
      </trkpt>
      <trkpt lat="41.9865010" lon="-8.6351300">
        <ele>50.8</ele>
        <time>2019-06-21T10:51:02Z</time>
      </trkpt>
      <trkpt lat="41.9865480" lon="-8.6352020">
        <ele>51.6</ele>
        <time>2019-06-21T10:51:07Z</time>
      </trkpt>
      <trkpt lat="41.9866660" lon="-8.6352600">
        <ele>51.4</ele>
        <time>2019-06-21T10:51:13Z</time>
      </trkpt>
      <trkpt lat="41.9867650" lon="-8.6353070">
        <ele>51.8</ele>
        <time>2019-06-21T10:51:17Z</time>
      </trkpt>
      <trkpt lat="41.9868520" lon="-8.6353540">
        <ele>52.0</ele>
        <time>2019-06-21T10:51:20Z</time>
      </trkpt>
      <trkpt lat="41.9870840" lon="-8.6354410">
        <ele>52.8</ele>
        <time>2019-06-21T10:51:28Z</time>
      </trkpt>
      <trkpt lat="41.9871390" lon="-8.6354560">
        <ele>53.0</ele>
        <time>2019-06-21T10:51:30Z</time>
      </trkpt>
      <trkpt lat="41.9871690" lon="-8.6354570">
        <ele>53.2</ele>
        <time>2019-06-21T10:51:31Z</time>
      </trkpt>
      <trkpt lat="41.9872890" lon="-8.6354480">
        <ele>53.4</ele>
        <time>2019-06-21T10:51:35Z</time>
      </trkpt>
      <trkpt lat="41.9874160" lon="-8.6354310">
        <ele>53.6</ele>
        <time>2019-06-21T10:51:39Z</time>
      </trkpt>
      <trkpt lat="41.9876660" lon="-8.6354000">
        <ele>54.2</ele>
        <time>2019-06-21T10:51:46Z</time>
      </trkpt>
      <trkpt lat="41.9877030" lon="-8.6353960">
        <ele>54.2</ele>
        <time>2019-06-21T10:51:47Z</time>
      </trkpt>
      <trkpt lat="41.9879230" lon="-8.6353650">
        <ele>53.8</ele>
        <time>2019-06-21T10:51:53Z</time>
      </trkpt>
      <trkpt lat="41.9879600" lon="-8.6353570">
        <ele>53.8</ele>
        <time>2019-06-21T10:51:54Z</time>
      </trkpt>
      <trkpt lat="41.9882710" lon="-8.6352830">
        <ele>53.8</ele>
        <time>2019-06-21T10:52:02Z</time>
      </trkpt>
      <trkpt lat="41.9885070" lon="-8.6351860">
        <ele>53.4</ele>
        <time>2019-06-21T10:52:08Z</time>
      </trkpt>
      <trkpt lat="41.9885480" lon="-8.6351530">
        <ele>53.0</ele>
        <time>2019-06-21T10:52:09Z</time>
      </trkpt>
      <trkpt lat="41.9886680" lon="-8.6350680">
        <ele>53.0</ele>
        <time>2019-06-21T10:52:12Z</time>
      </trkpt>
      <trkpt lat="41.9888000" lon="-8.6350240">
        <ele>52.6</ele>
        <time>2019-06-21T10:52:15Z</time>
      </trkpt>
      <trkpt lat="41.9889680" lon="-8.6349880">
        <ele>52.6</ele>
        <time>2019-06-21T10:52:19Z</time>
      </trkpt>
      <trkpt lat="41.9890860" lon="-8.6349590">
        <ele>52.6</ele>
        <time>2019-06-21T10:52:22Z</time>
      </trkpt>
      <trkpt lat="41.9891660" lon="-8.6349410">
        <ele>52.4</ele>
        <time>2019-06-21T10:52:24Z</time>
      </trkpt>
      <trkpt lat="41.9892920" lon="-8.6349330">
        <ele>52.2</ele>
        <time>2019-06-21T10:52:27Z</time>
      </trkpt>
      <trkpt lat="41.9895290" lon="-8.6349620">
        <ele>52.8</ele>
        <time>2019-06-21T10:52:33Z</time>
      </trkpt>
      <trkpt lat="41.9896910" lon="-8.6349960">
        <ele>53.2</ele>
        <time>2019-06-21T10:52:38Z</time>
      </trkpt>
      <trkpt lat="41.9898340" lon="-8.6350230">
        <ele>53.2</ele>
        <time>2019-06-21T10:52:42Z</time>
      </trkpt>
      <trkpt lat="41.9899080" lon="-8.6350310">
        <ele>53.2</ele>
        <time>2019-06-21T10:52:44Z</time>
      </trkpt>
      <trkpt lat="41.9899830" lon="-8.6350430">
        <ele>53.4</ele>
        <time>2019-06-21T10:52:46Z</time>
      </trkpt>
      <trkpt lat="41.9902380" lon="-8.6350820">
        <ele>53.2</ele>
        <time>2019-06-21T10:52:52Z</time>
      </trkpt>
      <trkpt lat="41.9904440" lon="-8.6351130">
        <ele>52.6</ele>
        <time>2019-06-21T10:52:58Z</time>
      </trkpt>
      <trkpt lat="41.9904630" lon="-8.6351170">
        <ele>52.6</ele>
        <time>2019-06-21T10:53:02Z</time>
      </trkpt>
      <trkpt lat="41.9904990" lon="-8.6351300">
        <ele>52.6</ele>
        <time>2019-06-21T10:53:09Z</time>
      </trkpt>
      <trkpt lat="41.9906540" lon="-8.6351760">
        <ele>51.8</ele>
        <time>2019-06-21T10:53:14Z</time>
      </trkpt>
      <trkpt lat="41.9907910" lon="-8.6352320">
        <ele>50.8</ele>
        <time>2019-06-21T10:53:17Z</time>
      </trkpt>
      <trkpt lat="41.9909010" lon="-8.6352750">
        <ele>50.4</ele>
        <time>2019-06-21T10:53:19Z</time>
      </trkpt>
      <trkpt lat="41.9910850" lon="-8.6353330">
        <ele>49.6</ele>
        <time>2019-06-21T10:53:22Z</time>
      </trkpt>
      <trkpt lat="41.9912500" lon="-8.6353800">
        <ele>48.4</ele>
        <time>2019-06-21T10:53:25Z</time>
      </trkpt>
      <trkpt lat="41.9913280" lon="-8.6353970">
        <ele>48.0</ele>
        <time>2019-06-21T10:53:27Z</time>
      </trkpt>
      <trkpt lat="41.9913840" lon="-8.6354330">
        <ele>47.4</ele>
        <time>2019-06-21T10:53:29Z</time>
      </trkpt>
      <trkpt lat="41.9914090" lon="-8.6354600">
        <ele>47.0</ele>
        <time>2019-06-21T10:53:30Z</time>
      </trkpt>
      <trkpt lat="41.9915100" lon="-8.6355000">
        <ele>47.0</ele>
        <time>2019-06-21T10:53:33Z</time>
      </trkpt>
      <trkpt lat="41.9916730" lon="-8.6355120">
        <ele>46.2</ele>
        <time>2019-06-21T10:53:39Z</time>
      </trkpt>
      <trkpt lat="41.9917390" lon="-8.6355230">
        <ele>45.4</ele>
        <time>2019-06-21T10:53:41Z</time>
      </trkpt>
      <trkpt lat="41.9917880" lon="-8.6355170">
        <ele>45.2</ele>
        <time>2019-06-21T10:53:42Z</time>
      </trkpt>
      <trkpt lat="41.9918400" lon="-8.6355080">
        <ele>44.6</ele>
        <time>2019-06-21T10:53:43Z</time>
      </trkpt>
      <trkpt lat="41.9918980" lon="-8.6355020">
        <ele>44.2</ele>
        <time>2019-06-21T10:53:44Z</time>
      </trkpt>
      <trkpt lat="41.9920840" lon="-8.6355080">
        <ele>42.6</ele>
        <time>2019-06-21T10:53:47Z</time>
      </trkpt>
      <trkpt lat="41.9921490" lon="-8.6355110">
        <ele>41.6</ele>
        <time>2019-06-21T10:53:48Z</time>
      </trkpt>
      <trkpt lat="41.9922810" lon="-8.6355230">
        <ele>40.0</ele>
        <time>2019-06-21T10:53:50Z</time>
      </trkpt>
      <trkpt lat="41.9925120" lon="-8.6355560">
        <ele>38.4</ele>
        <time>2019-06-21T10:53:53Z</time>
      </trkpt>
      <trkpt lat="41.9925930" lon="-8.6355640">
        <ele>37.6</ele>
        <time>2019-06-21T10:53:54Z</time>
      </trkpt>
      <trkpt lat="41.9926770" lon="-8.6355680">
        <ele>36.8</ele>
        <time>2019-06-21T10:53:55Z</time>
      </trkpt>
      <trkpt lat="41.9928450" lon="-8.6355750">
        <ele>35.6</ele>
        <time>2019-06-21T10:53:57Z</time>
      </trkpt>
      <trkpt lat="41.9930690" lon="-8.6355820">
        <ele>34.8</ele>
        <time>2019-06-21T10:54:00Z</time>
      </trkpt>
      <trkpt lat="41.9931840" lon="-8.6355740">
        <ele>34.6</ele>
        <time>2019-06-21T10:54:02Z</time>
      </trkpt>
      <trkpt lat="41.9932900" lon="-8.6355480">
        <ele>34.4</ele>
        <time>2019-06-21T10:54:04Z</time>
      </trkpt>
      <trkpt lat="41.9933990" lon="-8.6355380">
        <ele>34.0</ele>
        <time>2019-06-21T10:54:06Z</time>
      </trkpt>
      <trkpt lat="41.9935470" lon="-8.6355640">
        <ele>33.8</ele>
        <time>2019-06-21T10:54:09Z</time>
      </trkpt>
      <trkpt lat="41.9937030" lon="-8.6355850">
        <ele>34.2</ele>
        <time>2019-06-21T10:54:14Z</time>
      </trkpt>
      <trkpt lat="41.9938360" lon="-8.6356060">
        <ele>34.6</ele>
        <time>2019-06-21T10:54:21Z</time>
      </trkpt>
      <trkpt lat="41.9938690" lon="-8.6356050">
        <ele>34.6</ele>
        <time>2019-06-21T10:54:23Z</time>
      </trkpt>
      <trkpt lat="41.9939330" lon="-8.6356160">
        <ele>34.8</ele>
        <time>2019-06-21T10:54:26Z</time>
      </trkpt>
      <trkpt lat="41.9940130" lon="-8.6356250">
        <ele>35.0</ele>
        <time>2019-06-21T10:54:30Z</time>
      </trkpt>
      <trkpt lat="41.9941170" lon="-8.6356450">
        <ele>35.4</ele>
        <time>2019-06-21T10:54:35Z</time>
      </trkpt>
      <trkpt lat="41.9941740" lon="-8.6356590">
        <ele>35.8</ele>
        <time>2019-06-21T10:54:38Z</time>
      </trkpt>
      <trkpt lat="41.9942290" lon="-8.6356650">
        <ele>36.4</ele>
        <time>2019-06-21T10:54:41Z</time>
      </trkpt>
      <trkpt lat="41.9942480" lon="-8.6356680">
        <ele>36.6</ele>
        <time>2019-06-21T10:54:42Z</time>
      </trkpt>
      <trkpt lat="41.9943060" lon="-8.6356820">
        <ele>37.0</ele>
        <time>2019-06-21T10:54:45Z</time>
      </trkpt>
      <trkpt lat="41.9943660" lon="-8.6356940">
        <ele>37.4</ele>
        <time>2019-06-21T10:54:48Z</time>
      </trkpt>
      <trkpt lat="41.9944370" lon="-8.6357090">
        <ele>37.8</ele>
        <time>2019-06-21T10:54:52Z</time>
      </trkpt>
      <trkpt lat="41.9944550" lon="-8.6357120">
        <ele>38.0</ele>
        <time>2019-06-21T10:54:53Z</time>
      </trkpt>
      <trkpt lat="41.9945920" lon="-8.6357270">
        <ele>39.0</ele>
        <time>2019-06-21T10:55:00Z</time>
      </trkpt>
      <trkpt lat="41.9946270" lon="-8.6357290">
        <ele>39.2</ele>
        <time>2019-06-21T10:55:02Z</time>
      </trkpt>
      <trkpt lat="41.9946700" lon="-8.6357410">
        <ele>40.0</ele>
        <time>2019-06-21T10:55:05Z</time>
      </trkpt>
      <trkpt lat="41.9947270" lon="-8.6357750">
        <ele>40.4</ele>
        <time>2019-06-21T10:55:09Z</time>
      </trkpt>
      <trkpt lat="41.9948010" lon="-8.6358130">
        <ele>41.2</ele>
        <time>2019-06-21T10:55:14Z</time>
      </trkpt>
      <trkpt lat="41.9948160" lon="-8.6358220">
        <ele>41.4</ele>
        <time>2019-06-21T10:55:15Z</time>
      </trkpt>
      <trkpt lat="41.9948890" lon="-8.6358600">
        <ele>42.2</ele>
        <time>2019-06-21T10:55:20Z</time>
      </trkpt>
      <trkpt lat="41.9949310" lon="-8.6358840">
        <ele>43.0</ele>
        <time>2019-06-21T10:55:23Z</time>
      </trkpt>
      <trkpt lat="41.9949570" lon="-8.6358930">
        <ele>43.2</ele>
        <time>2019-06-21T10:55:25Z</time>
      </trkpt>
      <trkpt lat="41.9950310" lon="-8.6359170">
        <ele>44.0</ele>
        <time>2019-06-21T10:55:30Z</time>
      </trkpt>
      <trkpt lat="41.9950470" lon="-8.6359210">
        <ele>44.4</ele>
        <time>2019-06-21T10:55:31Z</time>
      </trkpt>
      <trkpt lat="41.9952020" lon="-8.6359100">
        <ele>45.2</ele>
        <time>2019-06-21T10:55:39Z</time>
      </trkpt>
      <trkpt lat="41.9952410" lon="-8.6358980">
        <ele>45.4</ele>
        <time>2019-06-21T10:55:41Z</time>
      </trkpt>
      <trkpt lat="41.9953420" lon="-8.6358600">
        <ele>46.2</ele>
        <time>2019-06-21T10:55:46Z</time>
      </trkpt>
      <trkpt lat="41.9954930" lon="-8.6358200">
        <ele>46.2</ele>
        <time>2019-06-21T10:55:53Z</time>
      </trkpt>
      <trkpt lat="41.9956680" lon="-8.6357830">
        <ele>46.4</ele>
        <time>2019-06-21T10:55:59Z</time>
      </trkpt>
      <trkpt lat="41.9956990" lon="-8.6357760">
        <ele>46.4</ele>
        <time>2019-06-21T10:56:00Z</time>
      </trkpt>
      <trkpt lat="41.9959240" lon="-8.6357770">
        <ele>46.6</ele>
        <time>2019-06-21T10:56:07Z</time>
      </trkpt>
      <trkpt lat="41.9959590" lon="-8.6357810">
        <ele>46.6</ele>
        <time>2019-06-21T10:56:08Z</time>
      </trkpt>
      <trkpt lat="41.9960310" lon="-8.6357830">
        <ele>46.4</ele>
        <time>2019-06-21T10:56:10Z</time>
      </trkpt>
      <trkpt lat="41.9961310" lon="-8.6357950">
        <ele>46.6</ele>
        <time>2019-06-21T10:56:13Z</time>
      </trkpt>
      <trkpt lat="41.9962310" lon="-8.6357840">
        <ele>46.6</ele>
        <time>2019-06-21T10:56:16Z</time>
      </trkpt>
      <trkpt lat="41.9963650" lon="-8.6357610">
        <ele>46.4</ele>
        <time>2019-06-21T10:56:20Z</time>
      </trkpt>
      <trkpt lat="41.9964700" lon="-8.6357480">
        <ele>46.4</ele>
        <time>2019-06-21T10:56:23Z</time>
      </trkpt>
      <trkpt lat="41.9966370" lon="-8.6357120">
        <ele>46.4</ele>
        <time>2019-06-21T10:56:28Z</time>
      </trkpt>
      <trkpt lat="41.9967070" lon="-8.6357080">
        <ele>46.6</ele>
        <time>2019-06-21T10:56:30Z</time>
      </trkpt>
      <trkpt lat="41.9970070" lon="-8.6356720">
        <ele>46.8</ele>
        <time>2019-06-21T10:56:38Z</time>
      </trkpt>
      <trkpt lat="41.9972600" lon="-8.6356760">
        <ele>46.6</ele>
        <time>2019-06-21T10:56:44Z</time>
      </trkpt>
      <trkpt lat="41.9976340" lon="-8.6357490">
        <ele>46.2</ele>
        <time>2019-06-21T10:56:52Z</time>
      </trkpt>
      <trkpt lat="41.9979780" lon="-8.6357810">
        <ele>45.6</ele>
        <time>2019-06-21T10:56:59Z</time>
      </trkpt>
      <trkpt lat="41.9983380" lon="-8.6358460">
        <ele>45.4</ele>
        <time>2019-06-21T10:57:06Z</time>
      </trkpt>
      <trkpt lat="41.9985430" lon="-8.6358960">
        <ele>45.4</ele>
        <time>2019-06-21T10:57:10Z</time>
      </trkpt>
      <trkpt lat="41.9986940" lon="-8.6359190">
        <ele>45.2</ele>
        <time>2019-06-21T10:57:13Z</time>
      </trkpt>
      <trkpt lat="41.9988880" lon="-8.6359790">
        <ele>45.4</ele>
        <time>2019-06-21T10:57:17Z</time>
      </trkpt>
      <trkpt lat="41.9990870" lon="-8.6360530">
        <ele>45.6</ele>
        <time>2019-06-21T10:57:21Z</time>
      </trkpt>
      <trkpt lat="41.9991400" lon="-8.6360730">
        <ele>45.6</ele>
        <time>2019-06-21T10:57:22Z</time>
      </trkpt>
      <trkpt lat="41.9992470" lon="-8.6361120">
        <ele>45.4</ele>
        <time>2019-06-21T10:57:24Z</time>
      </trkpt>
      <trkpt lat="41.9994090" lon="-8.6361590">
        <ele>45.2</ele>
        <time>2019-06-21T10:57:27Z</time>
      </trkpt>
      <trkpt lat="41.9994600" lon="-8.6361770">
        <ele>45.2</ele>
        <time>2019-06-21T10:57:28Z</time>
      </trkpt>
      <trkpt lat="41.9996060" lon="-8.6362110">
        <ele>45.2</ele>
        <time>2019-06-21T10:57:31Z</time>
      </trkpt>
      <trkpt lat="41.9997340" lon="-8.6362540">
        <ele>44.2</ele>
        <time>2019-06-21T10:57:34Z</time>
      </trkpt>
      <trkpt lat="41.9998130" lon="-8.6362900">
        <ele>44.2</ele>
        <time>2019-06-21T10:57:36Z</time>
      </trkpt>
      <trkpt lat="41.9999650" lon="-8.6363440">
        <ele>44.0</ele>
        <time>2019-06-21T10:57:41Z</time>
      </trkpt>
      <trkpt lat="42.0000030" lon="-8.6363480">
        <ele>44.0</ele>
        <time>2019-06-21T10:57:42Z</time>
      </trkpt>
      <trkpt lat="42.0002140" lon="-8.6364020">
        <ele>43.8</ele>
        <time>2019-06-21T10:57:48Z</time>
      </trkpt>
      <trkpt lat="42.0003540" lon="-8.6364270">
        <ele>43.6</ele>
        <time>2019-06-21T10:57:52Z</time>
      </trkpt>
      <trkpt lat="42.0004400" lon="-8.6364380">
        <ele>43.6</ele>
        <time>2019-06-21T10:57:55Z</time>
      </trkpt>
      <trkpt lat="42.0004530" lon="-8.6364350">
        <ele>43.4</ele>
        <time>2019-06-21T10:57:59Z</time>
      </trkpt>
      <trkpt lat="42.0004530" lon="-8.6364350">
        <ele>43.4</ele>
        <time>2019-06-21T10:58:04Z</time>
      </trkpt>
      <trkpt lat="42.0004530" lon="-8.6364350">
        <ele>43.2</ele>
        <time>2019-06-21T10:58:07Z</time>
      </trkpt>
      <trkpt lat="42.0004530" lon="-8.6364350">
        <ele>43.6</ele>
        <time>2019-06-21T10:58:09Z</time>
      </trkpt>
      <trkpt lat="42.0004530" lon="-8.6364350">
        <ele>43.4</ele>
        <time>2019-06-21T10:58:14Z</time>
      </trkpt>
      <trkpt lat="42.0004530" lon="-8.6364350">
        <ele>43.0</ele>
        <time>2019-06-21T10:58:17Z</time>
      </trkpt>
      <trkpt lat="42.0004530" lon="-8.6364350">
        <ele>43.2</ele>
        <time>2019-06-21T10:58:21Z</time>
      </trkpt>
      <trkpt lat="42.0004590" lon="-8.6364370">
        <ele>43.2</ele>
        <time>2019-06-21T10:58:23Z</time>
      </trkpt>
      <trkpt lat="42.0005190" lon="-8.6364470">
        <ele>43.2</ele>
        <time>2019-06-21T10:58:26Z</time>
      </trkpt>
      <trkpt lat="42.0005920" lon="-8.6364660">
        <ele>43.2</ele>
        <time>2019-06-21T10:58:28Z</time>
      </trkpt>
      <trkpt lat="42.0007440" lon="-8.6365130">
        <ele>43.6</ele>
        <time>2019-06-21T10:58:32Z</time>
      </trkpt>
      <trkpt lat="42.0007860" lon="-8.6365270">
        <ele>43.6</ele>
        <time>2019-06-21T10:58:33Z</time>
      </trkpt>
      <trkpt lat="42.0009460" lon="-8.6365580">
        <ele>43.2</ele>
        <time>2019-06-21T10:58:37Z</time>
      </trkpt>
      <trkpt lat="42.0011710" lon="-8.6366330">
        <ele>43.2</ele>
        <time>2019-06-21T10:58:42Z</time>
      </trkpt>
      <trkpt lat="42.0015690" lon="-8.6367670">
        <ele>43.2</ele>
        <time>2019-06-21T10:58:51Z</time>
      </trkpt>
      <trkpt lat="42.0018920" lon="-8.6368900">
        <ele>43.4</ele>
        <time>2019-06-21T10:58:59Z</time>
      </trkpt>
      <trkpt lat="42.0022510" lon="-8.6370880">
        <ele>43.4</ele>
        <time>2019-06-21T10:59:09Z</time>
      </trkpt>
      <trkpt lat="42.0023510" lon="-8.6372960">
        <ele>43.6</ele>
        <time>2019-06-21T10:59:14Z</time>
      </trkpt>
      <trkpt lat="42.0023780" lon="-8.6373790">
        <ele>43.4</ele>
        <time>2019-06-21T10:59:16Z</time>
      </trkpt>
      <trkpt lat="42.0024130" lon="-8.6374900">
        <ele>43.2</ele>
        <time>2019-06-21T10:59:19Z</time>
      </trkpt>
      <trkpt lat="42.0024440" lon="-8.6375430">
        <ele>43.2</ele>
        <time>2019-06-21T10:59:21Z</time>
      </trkpt>
      <trkpt lat="42.0024650" lon="-8.6375550">
        <ele>43.2</ele>
        <time>2019-06-21T10:59:22Z</time>
      </trkpt>
      <trkpt lat="42.0025470" lon="-8.6375670">
        <ele>43.2</ele>
        <time>2019-06-21T10:59:25Z</time>
      </trkpt>
      <trkpt lat="42.0025780" lon="-8.6375610">
        <ele>43.4</ele>
        <time>2019-06-21T10:59:26Z</time>
      </trkpt>
      <trkpt lat="42.0027940" lon="-8.6375110">
        <ele>43.6</ele>
        <time>2019-06-21T10:59:32Z</time>
      </trkpt>
      <trkpt lat="42.0029420" lon="-8.6374850">
        <ele>44.6</ele>
        <time>2019-06-21T10:59:36Z</time>
      </trkpt>
      <trkpt lat="42.0030150" lon="-8.6374760">
        <ele>44.8</ele>
        <time>2019-06-21T10:59:38Z</time>
      </trkpt>
      <trkpt lat="42.0031250" lon="-8.6374530">
        <ele>43.4</ele>
        <time>2019-06-21T10:59:41Z</time>
      </trkpt>
      <trkpt lat="42.0032000" lon="-8.6374470">
        <ele>43.2</ele>
        <time>2019-06-21T10:59:44Z</time>
      </trkpt>
      <trkpt lat="42.0032250" lon="-8.6374510">
        <ele>43.2</ele>
        <time>2019-06-21T10:59:46Z</time>
      </trkpt>
      <trkpt lat="42.0032420" lon="-8.6374760">
        <ele>43.2</ele>
        <time>2019-06-21T10:59:48Z</time>
      </trkpt>
      <trkpt lat="42.0032440" lon="-8.6375180">
        <ele>43.4</ele>
        <time>2019-06-21T10:59:51Z</time>
      </trkpt>
      <trkpt lat="42.0032750" lon="-8.6375680">
        <ele>43.4</ele>
        <time>2019-06-21T10:59:53Z</time>
      </trkpt>
      <trkpt lat="42.0033680" lon="-8.6375610">
        <ele>43.8</ele>
        <time>2019-06-21T10:59:56Z</time>
      </trkpt>
      <trkpt lat="42.0035080" lon="-8.6375640">
        <ele>43.4</ele>
        <time>2019-06-21T11:00:00Z</time>
      </trkpt>
      <trkpt lat="42.0035350" lon="-8.6375860">
        <ele>43.2</ele>
        <time>2019-06-21T11:00:01Z</time>
      </trkpt>
      <trkpt lat="42.0036610" lon="-8.6376860">
        <ele>43.2</ele>
        <time>2019-06-21T11:00:06Z</time>
      </trkpt>
      <trkpt lat="42.0038190" lon="-8.6376460">
        <ele>43.6</ele>
        <time>2019-06-21T11:00:12Z</time>
      </trkpt>
      <trkpt lat="42.0038680" lon="-8.6376450">
        <ele>43.2</ele>
        <time>2019-06-21T11:00:14Z</time>
      </trkpt>
      <trkpt lat="42.0038880" lon="-8.6376330">
        <ele>43.2</ele>
        <time>2019-06-21T11:00:15Z</time>
      </trkpt>
      <trkpt lat="42.0039280" lon="-8.6376120">
        <ele>43.4</ele>
        <time>2019-06-21T11:00:17Z</time>
      </trkpt>
      <trkpt lat="42.0039480" lon="-8.6376210">
        <ele>43.2</ele>
        <time>2019-06-21T11:00:18Z</time>
      </trkpt>
      <trkpt lat="42.0040000" lon="-8.6376550">
        <ele>43.2</ele>
        <time>2019-06-21T11:00:21Z</time>
      </trkpt>
      <trkpt lat="42.0040270" lon="-8.6376680">
        <ele>43.4</ele>
        <time>2019-06-21T11:00:27Z</time>
      </trkpt>
      <trkpt lat="42.0040750" lon="-8.6376930">
        <ele>43.0</ele>
        <time>2019-06-21T11:00:33Z</time>
      </trkpt>
      <trkpt lat="42.0042050" lon="-8.6377110">
        <ele>43.2</ele>
        <time>2019-06-21T11:00:38Z</time>
      </trkpt>
      <trkpt lat="42.0043470" lon="-8.6377260">
        <ele>43.4</ele>
        <time>2019-06-21T11:00:42Z</time>
      </trkpt>
      <trkpt lat="42.0046430" lon="-8.6376970">
        <ele>43.4</ele>
        <time>2019-06-21T11:00:49Z</time>
      </trkpt>
      <trkpt lat="42.0048660" lon="-8.6376770">
        <ele>43.2</ele>
        <time>2019-06-21T11:00:54Z</time>
      </trkpt>
      <trkpt lat="42.0049140" lon="-8.6376710">
        <ele>43.2</ele>
        <time>2019-06-21T11:00:55Z</time>
      </trkpt>
      <trkpt lat="42.0053180" lon="-8.6376480">
        <ele>43.2</ele>
        <time>2019-06-21T11:01:03Z</time>
      </trkpt>
      <trkpt lat="42.0055330" lon="-8.6376350">
        <ele>42.6</ele>
        <time>2019-06-21T11:01:07Z</time>
      </trkpt>
      <trkpt lat="42.0056970" lon="-8.6376220">
        <ele>42.4</ele>
        <time>2019-06-21T11:01:10Z</time>
      </trkpt>
      <trkpt lat="42.0057490" lon="-8.6376140">
        <ele>42.4</ele>
        <time>2019-06-21T11:01:11Z</time>
      </trkpt>
      <trkpt lat="42.0060520" lon="-8.6375690">
        <ele>42.4</ele>
        <time>2019-06-21T11:01:17Z</time>
      </trkpt>
      <trkpt lat="42.0063340" lon="-8.6375370">
        <ele>42.2</ele>
        <time>2019-06-21T11:01:23Z</time>
      </trkpt>
      <trkpt lat="42.0064250" lon="-8.6375410">
        <ele>42.2</ele>
        <time>2019-06-21T11:01:25Z</time>
      </trkpt>
      <trkpt lat="42.0066860" lon="-8.6375540">
        <ele>42.6</ele>
        <time>2019-06-21T11:01:31Z</time>
      </trkpt>
      <trkpt lat="42.0069020" lon="-8.6375080">
        <ele>43.0</ele>
        <time>2019-06-21T11:01:36Z</time>
      </trkpt>
      <trkpt lat="42.0069460" lon="-8.6375070">
        <ele>43.0</ele>
        <time>2019-06-21T11:01:37Z</time>
      </trkpt>
      <trkpt lat="42.0072040" lon="-8.6375040">
        <ele>43.2</ele>
        <time>2019-06-21T11:01:43Z</time>
      </trkpt>
      <trkpt lat="42.0072480" lon="-8.6374990">
        <ele>43.2</ele>
        <time>2019-06-21T11:01:44Z</time>
      </trkpt>
      <trkpt lat="42.0072910" lon="-8.6375000">
        <ele>43.4</ele>
        <time>2019-06-21T11:01:45Z</time>
      </trkpt>
      <trkpt lat="42.0074880" lon="-8.6374900">
        <ele>44.0</ele>
        <time>2019-06-21T11:01:50Z</time>
      </trkpt>
      <trkpt lat="42.0078580" lon="-8.6374850">
        <ele>44.0</ele>
        <time>2019-06-21T11:01:59Z</time>
      </trkpt>
      <trkpt lat="42.0079400" lon="-8.6374880">
        <ele>44.4</ele>
        <time>2019-06-21T11:02:01Z</time>
      </trkpt>
      <trkpt lat="42.0082320" lon="-8.6374970">
        <ele>44.6</ele>
        <time>2019-06-21T11:02:08Z</time>
      </trkpt>
      <trkpt lat="42.0085280" lon="-8.6374730">
        <ele>45.0</ele>
        <time>2019-06-21T11:02:15Z</time>
      </trkpt>
      <trkpt lat="42.0088060" lon="-8.6374510">
        <ele>44.6</ele>
        <time>2019-06-21T11:02:22Z</time>
      </trkpt>
      <trkpt lat="42.0088940" lon="-8.6374940">
        <ele>44.6</ele>
        <time>2019-06-21T11:02:25Z</time>
      </trkpt>
      <trkpt lat="42.0089090" lon="-8.6375280">
        <ele>44.6</ele>
        <time>2019-06-21T11:02:26Z</time>
      </trkpt>
      <trkpt lat="42.0090180" lon="-8.6378250">
        <ele>44.6</ele>
        <time>2019-06-21T11:02:33Z</time>
      </trkpt>
      <trkpt lat="42.0090910" lon="-8.6380050">
        <ele>44.2</ele>
        <time>2019-06-21T11:02:37Z</time>
      </trkpt>
      <trkpt lat="42.0091300" lon="-8.6380980">
        <ele>44.0</ele>
        <time>2019-06-21T11:02:39Z</time>
      </trkpt>
      <trkpt lat="42.0091490" lon="-8.6381420">
        <ele>44.0</ele>
        <time>2019-06-21T11:02:40Z</time>
      </trkpt>
      <trkpt lat="42.0091960" lon="-8.6382320">
        <ele>43.8</ele>
        <time>2019-06-21T11:02:42Z</time>
      </trkpt>
      <trkpt lat="42.0092800" lon="-8.6384360">
        <ele>43.4</ele>
        <time>2019-06-21T11:02:46Z</time>
      </trkpt>
      <trkpt lat="42.0093250" lon="-8.6385450">
        <ele>43.4</ele>
        <time>2019-06-21T11:02:48Z</time>
      </trkpt>
      <trkpt lat="42.0093500" lon="-8.6385890">
        <ele>43.2</ele>
        <time>2019-06-21T11:02:49Z</time>
      </trkpt>
      <trkpt lat="42.0094030" lon="-8.6387680">
        <ele>43.2</ele>
        <time>2019-06-21T11:02:52Z</time>
      </trkpt>
      <trkpt lat="42.0094680" lon="-8.6389900">
        <ele>42.8</ele>
        <time>2019-06-21T11:02:56Z</time>
      </trkpt>
      <trkpt lat="42.0095200" lon="-8.6391540">
        <ele>42.8</ele>
        <time>2019-06-21T11:02:59Z</time>
      </trkpt>
      <trkpt lat="42.0095950" lon="-8.6393730">
        <ele>42.2</ele>
        <time>2019-06-21T11:03:03Z</time>
      </trkpt>
      <trkpt lat="42.0095980" lon="-8.6394880">
        <ele>42.0</ele>
        <time>2019-06-21T11:03:05Z</time>
      </trkpt>
      <trkpt lat="42.0096040" lon="-8.6397610">
        <ele>41.8</ele>
        <time>2019-06-21T11:03:10Z</time>
      </trkpt>
      <trkpt lat="42.0096000" lon="-8.6399260">
        <ele>41.4</ele>
        <time>2019-06-21T11:03:13Z</time>
      </trkpt>
      <trkpt lat="42.0095720" lon="-8.6402120">
        <ele>41.0</ele>
        <time>2019-06-21T11:03:18Z</time>
      </trkpt>
      <trkpt lat="42.0095650" lon="-8.6402800">
        <ele>40.8</ele>
        <time>2019-06-21T11:03:19Z</time>
      </trkpt>
      <trkpt lat="42.0094920" lon="-8.6406430">
        <ele>40.2</ele>
        <time>2019-06-21T11:03:24Z</time>
      </trkpt>
      <trkpt lat="42.0094460" lon="-8.6408660">
        <ele>39.8</ele>
        <time>2019-06-21T11:03:27Z</time>
      </trkpt>
      <trkpt lat="42.0094060" lon="-8.6411470">
        <ele>39.4</ele>
        <time>2019-06-21T11:03:31Z</time>
      </trkpt>
      <trkpt lat="42.0094040" lon="-8.6412190">
        <ele>39.2</ele>
        <time>2019-06-21T11:03:32Z</time>
      </trkpt>
      <trkpt lat="42.0094440" lon="-8.6415000">
        <ele>38.8</ele>
        <time>2019-06-21T11:03:36Z</time>
      </trkpt>
      <trkpt lat="42.0094610" lon="-8.6415670">
        <ele>38.8</ele>
        <time>2019-06-21T11:03:37Z</time>
      </trkpt>
      <trkpt lat="42.0095210" lon="-8.6417620">
        <ele>39.0</ele>
        <time>2019-06-21T11:03:40Z</time>
      </trkpt>
      <trkpt lat="42.0096080" lon="-8.6420720">
        <ele>38.6</ele>
        <time>2019-06-21T11:03:45Z</time>
      </trkpt>
      <trkpt lat="42.0096370" lon="-8.6422400">
        <ele>38.2</ele>
        <time>2019-06-21T11:03:48Z</time>
      </trkpt>
      <trkpt lat="42.0096580" lon="-8.6423980">
        <ele>38.0</ele>
        <time>2019-06-21T11:03:51Z</time>
      </trkpt>
      <trkpt lat="42.0096720" lon="-8.6425610">
        <ele>37.6</ele>
        <time>2019-06-21T11:03:54Z</time>
      </trkpt>
      <trkpt lat="42.0097160" lon="-8.6427640">
        <ele>37.2</ele>
        <time>2019-06-21T11:03:58Z</time>
      </trkpt>
      <trkpt lat="42.0097740" lon="-8.6428320">
        <ele>37.2</ele>
        <time>2019-06-21T11:04:00Z</time>
      </trkpt>
      <trkpt lat="42.0098430" lon="-8.6428810">
        <ele>36.8</ele>
        <time>2019-06-21T11:04:02Z</time>
      </trkpt>
      <trkpt lat="42.0098760" lon="-8.6428990">
        <ele>36.4</ele>
        <time>2019-06-21T11:04:03Z</time>
      </trkpt>
      <trkpt lat="42.0099790" lon="-8.6429730">
        <ele>35.6</ele>
        <time>2019-06-21T11:04:06Z</time>
      </trkpt>
      <trkpt lat="42.0100190" lon="-8.6429890">
        <ele>34.8</ele>
        <time>2019-06-21T11:04:07Z</time>
      </trkpt>
      <trkpt lat="42.0100620" lon="-8.6429950">
        <ele>34.4</ele>
        <time>2019-06-21T11:04:08Z</time>
      </trkpt>
      <trkpt lat="42.0101590" lon="-8.6429670">
        <ele>33.4</ele>
        <time>2019-06-21T11:04:10Z</time>
      </trkpt>
      <trkpt lat="42.0102130" lon="-8.6429480">
        <ele>33.0</ele>
        <time>2019-06-21T11:04:11Z</time>
      </trkpt>
      <trkpt lat="42.0102710" lon="-8.6429230">
        <ele>32.6</ele>
        <time>2019-06-21T11:04:12Z</time>
      </trkpt>
      <trkpt lat="42.0103940" lon="-8.6428620">
        <ele>32.2</ele>
        <time>2019-06-21T11:04:14Z</time>
      </trkpt>
      <trkpt lat="42.0105760" lon="-8.6427630">
        <ele>31.0</ele>
        <time>2019-06-21T11:04:17Z</time>
      </trkpt>
      <trkpt lat="42.0106320" lon="-8.6427320">
        <ele>31.4</ele>
        <time>2019-06-21T11:04:18Z</time>
      </trkpt>
      <trkpt lat="42.0106860" lon="-8.6427240">
        <ele>31.2</ele>
        <time>2019-06-21T11:04:19Z</time>
      </trkpt>
      <trkpt lat="42.0108000" lon="-8.6427020">
        <ele>31.2</ele>
        <time>2019-06-21T11:04:21Z</time>
      </trkpt>
      <trkpt lat="42.0108470" lon="-8.6426780">
        <ele>31.0</ele>
        <time>2019-06-21T11:04:22Z</time>
      </trkpt>
      <trkpt lat="42.0110000" lon="-8.6425900">
        <ele>30.8</ele>
        <time>2019-06-21T11:04:25Z</time>
      </trkpt>
      <trkpt lat="42.0110500" lon="-8.6425650">
        <ele>31.0</ele>
        <time>2019-06-21T11:04:26Z</time>
      </trkpt>
      <trkpt lat="42.0111480" lon="-8.6425200">
        <ele>31.0</ele>
        <time>2019-06-21T11:04:28Z</time>
      </trkpt>
      <trkpt lat="42.0111990" lon="-8.6425110">
        <ele>31.2</ele>
        <time>2019-06-21T11:04:29Z</time>
      </trkpt>
      <trkpt lat="42.0112880" lon="-8.6425160">
        <ele>31.8</ele>
        <time>2019-06-21T11:04:31Z</time>
      </trkpt>
      <trkpt lat="42.0114150" lon="-8.6426060">
        <ele>32.0</ele>
        <time>2019-06-21T11:04:34Z</time>
      </trkpt>
      <trkpt lat="42.0114500" lon="-8.6426470">
        <ele>32.0</ele>
        <time>2019-06-21T11:04:35Z</time>
      </trkpt>
      <trkpt lat="42.0115530" lon="-8.6427820">
        <ele>31.8</ele>
        <time>2019-06-21T11:04:38Z</time>
      </trkpt>
      <trkpt lat="42.0116300" lon="-8.6428480">
        <ele>31.6</ele>
        <time>2019-06-21T11:04:40Z</time>
      </trkpt>
      <trkpt lat="42.0116980" lon="-8.6429270">
        <ele>31.6</ele>
        <time>2019-06-21T11:04:42Z</time>
      </trkpt>
      <trkpt lat="42.0118100" lon="-8.6430310">
        <ele>31.8</ele>
        <time>2019-06-21T11:04:45Z</time>
      </trkpt>
      <trkpt lat="42.0118460" lon="-8.6430610">
        <ele>32.0</ele>
        <time>2019-06-21T11:04:46Z</time>
      </trkpt>
      <trkpt lat="42.0119820" lon="-8.6431920">
        <ele>32.4</ele>
        <time>2019-06-21T11:04:50Z</time>
      </trkpt>
      <trkpt lat="42.0120670" lon="-8.6432840">
        <ele>32.2</ele>
        <time>2019-06-21T11:04:53Z</time>
      </trkpt>
      <trkpt lat="42.0121730" lon="-8.6433810">
        <ele>33.0</ele>
        <time>2019-06-21T11:04:58Z</time>
      </trkpt>
      <trkpt lat="42.0122090" lon="-8.6434060">
        <ele>33.4</ele>
        <time>2019-06-21T11:05:00Z</time>
      </trkpt>
      <trkpt lat="42.0122770" lon="-8.6434350">
        <ele>34.6</ele>
        <time>2019-06-21T11:05:05Z</time>
      </trkpt>
      <trkpt lat="42.0123840" lon="-8.6434330">
        <ele>35.4</ele>
        <time>2019-06-21T11:05:11Z</time>
      </trkpt>
      <trkpt lat="42.0124200" lon="-8.6434260">
        <ele>35.6</ele>
        <time>2019-06-21T11:05:13Z</time>
      </trkpt>
      <trkpt lat="42.0125340" lon="-8.6433800">
        <ele>36.6</ele>
        <time>2019-06-21T11:05:19Z</time>
      </trkpt>
      <trkpt lat="42.0126290" lon="-8.6433120">
        <ele>37.8</ele>
        <time>2019-06-21T11:05:24Z</time>
      </trkpt>
      <trkpt lat="42.0127340" lon="-8.6432700">
        <ele>38.4</ele>
        <time>2019-06-21T11:05:29Z</time>
      </trkpt>
      <trkpt lat="42.0128080" lon="-8.6432700">
        <ele>38.8</ele>
        <time>2019-06-21T11:05:33Z</time>
      </trkpt>
      <trkpt lat="42.0128340" lon="-8.6432720">
        <ele>38.8</ele>
        <time>2019-06-21T11:05:35Z</time>
      </trkpt>
      <trkpt lat="42.0129520" lon="-8.6433240">
        <ele>39.4</ele>
        <time>2019-06-21T11:05:42Z</time>
      </trkpt>
      <trkpt lat="42.0129680" lon="-8.6433240">
        <ele>39.8</ele>
        <time>2019-06-21T11:05:43Z</time>
      </trkpt>
      <trkpt lat="42.0130690" lon="-8.6432840">
        <ele>40.2</ele>
        <time>2019-06-21T11:05:48Z</time>
      </trkpt>
      <trkpt lat="42.0131610" lon="-8.6432590">
        <ele>40.8</ele>
        <time>2019-06-21T11:05:52Z</time>
      </trkpt>
      <trkpt lat="42.0132560" lon="-8.6432640">
        <ele>41.4</ele>
        <time>2019-06-21T11:05:56Z</time>
      </trkpt>
      <trkpt lat="42.0134350" lon="-8.6432820">
        <ele>41.6</ele>
        <time>2019-06-21T11:06:02Z</time>
      </trkpt>
      <trkpt lat="42.0135260" lon="-8.6432620">
        <ele>41.8</ele>
        <time>2019-06-21T11:06:05Z</time>
      </trkpt>
      <trkpt lat="42.0136520" lon="-8.6432260">
        <ele>42.2</ele>
        <time>2019-06-21T11:06:09Z</time>
      </trkpt>
      <trkpt lat="42.0138500" lon="-8.6431120">
        <ele>42.4</ele>
        <time>2019-06-21T11:06:16Z</time>
      </trkpt>
      <trkpt lat="42.0140010" lon="-8.6430120">
        <ele>42.0</ele>
        <time>2019-06-21T11:06:21Z</time>
      </trkpt>
      <trkpt lat="42.0140710" lon="-8.6429890">
        <ele>42.0</ele>
        <time>2019-06-21T11:06:23Z</time>
      </trkpt>
      <trkpt lat="42.0142790" lon="-8.6429870">
        <ele>42.4</ele>
        <time>2019-06-21T11:06:29Z</time>
      </trkpt>
      <trkpt lat="42.0143120" lon="-8.6429900">
        <ele>42.6</ele>
        <time>2019-06-21T11:06:30Z</time>
      </trkpt>
      <trkpt lat="42.0145630" lon="-8.6430510">
        <ele>42.4</ele>
        <time>2019-06-21T11:06:38Z</time>
      </trkpt>
      <trkpt lat="42.0147160" lon="-8.6430740">
        <ele>42.4</ele>
        <time>2019-06-21T11:06:43Z</time>
      </trkpt>
      <trkpt lat="42.0148020" lon="-8.6431010">
        <ele>42.6</ele>
        <time>2019-06-21T11:06:46Z</time>
      </trkpt>
      <trkpt lat="42.0148600" lon="-8.6431070">
        <ele>43.0</ele>
        <time>2019-06-21T11:06:49Z</time>
      </trkpt>
      <trkpt lat="42.0148740" lon="-8.6431130">
        <ele>43.4</ele>
        <time>2019-06-21T11:06:51Z</time>
      </trkpt>
      <trkpt lat="42.0148770" lon="-8.6431090">
        <ele>43.4</ele>
        <time>2019-06-21T11:06:59Z</time>
      </trkpt>
      <trkpt lat="42.0148860" lon="-8.6431170">
        <ele>43.6</ele>
        <time>2019-06-21T11:07:01Z</time>
      </trkpt>
      <trkpt lat="42.0149070" lon="-8.6431670">
        <ele>43.4</ele>
        <time>2019-06-21T11:07:04Z</time>
      </trkpt>
      <trkpt lat="42.0149140" lon="-8.6431950">
        <ele>43.4</ele>
        <time>2019-06-21T11:07:05Z</time>
      </trkpt>
      <trkpt lat="42.0149750" lon="-8.6433340">
        <ele>43.6</ele>
        <time>2019-06-21T11:07:10Z</time>
      </trkpt>
      <trkpt lat="42.0149990" lon="-8.6433500">
        <ele>43.8</ele>
        <time>2019-06-21T11:07:11Z</time>
      </trkpt>
      <trkpt lat="42.0151030" lon="-8.6434100">
        <ele>43.6</ele>
        <time>2019-06-21T11:07:15Z</time>
      </trkpt>
      <trkpt lat="42.0151490" lon="-8.6434330">
        <ele>43.6</ele>
        <time>2019-06-21T11:07:17Z</time>
      </trkpt>
      <trkpt lat="42.0153600" lon="-8.6434940">
        <ele>43.4</ele>
        <time>2019-06-21T11:07:25Z</time>
      </trkpt>
      <trkpt lat="42.0156020" lon="-8.6435640">
        <ele>43.6</ele>
        <time>2019-06-21T11:07:32Z</time>
      </trkpt>
      <trkpt lat="42.0156410" lon="-8.6435750">
        <ele>43.6</ele>
        <time>2019-06-21T11:07:33Z</time>
      </trkpt>
      <trkpt lat="42.0159540" lon="-8.6436570">
        <ele>44.0</ele>
        <time>2019-06-21T11:07:41Z</time>
      </trkpt>
      <trkpt lat="42.0160310" lon="-8.6436780">
        <ele>44.0</ele>
        <time>2019-06-21T11:07:43Z</time>
      </trkpt>
      <trkpt lat="42.0163350" lon="-8.6437390">
        <ele>44.2</ele>
        <time>2019-06-21T11:07:50Z</time>
      </trkpt>
      <trkpt lat="42.0165020" lon="-8.6436470">
        <ele>44.6</ele>
        <time>2019-06-21T11:07:55Z</time>
      </trkpt>
      <trkpt lat="42.0165340" lon="-8.6436180">
        <ele>44.8</ele>
        <time>2019-06-21T11:07:56Z</time>
      </trkpt>
      <trkpt lat="42.0166050" lon="-8.6435700">
        <ele>44.8</ele>
        <time>2019-06-21T11:07:58Z</time>
      </trkpt>
      <trkpt lat="42.0167210" lon="-8.6435540">
        <ele>44.8</ele>
        <time>2019-06-21T11:08:01Z</time>
      </trkpt>
      <trkpt lat="42.0170830" lon="-8.6435460">
        <ele>45.0</ele>
        <time>2019-06-21T11:08:09Z</time>
      </trkpt>
      <trkpt lat="42.0174980" lon="-8.6435120">
        <ele>45.0</ele>
        <time>2019-06-21T11:08:18Z</time>
      </trkpt>
      <trkpt lat="42.0178350" lon="-8.6434950">
        <ele>45.2</ele>
        <time>2019-06-21T11:08:25Z</time>
      </trkpt>
      <trkpt lat="42.0179810" lon="-8.6434840">
        <ele>45.0</ele>
        <time>2019-06-21T11:08:28Z</time>
      </trkpt>
      <trkpt lat="42.0183170" lon="-8.6434780">
        <ele>45.2</ele>
        <time>2019-06-21T11:08:35Z</time>
      </trkpt>
      <trkpt lat="42.0186650" lon="-8.6435000">
        <ele>45.2</ele>
        <time>2019-06-21T11:08:42Z</time>
      </trkpt>
      <trkpt lat="42.0190340" lon="-8.6435800">
        <ele>45.6</ele>
        <time>2019-06-21T11:08:50Z</time>
      </trkpt>
      <trkpt lat="42.0194510" lon="-8.6436890">
        <ele>45.8</ele>
        <time>2019-06-21T11:08:59Z</time>
      </trkpt>
      <trkpt lat="42.0197810" lon="-8.6437960">
        <ele>45.8</ele>
        <time>2019-06-21T11:09:06Z</time>
      </trkpt>
      <trkpt lat="42.0200140" lon="-8.6438960">
        <ele>46.2</ele>
        <time>2019-06-21T11:09:11Z</time>
      </trkpt>
      <trkpt lat="42.0202540" lon="-8.6439790">
        <ele>46.6</ele>
        <time>2019-06-21T11:09:16Z</time>
      </trkpt>
      <trkpt lat="42.0205420" lon="-8.6440770">
        <ele>47.2</ele>
        <time>2019-06-21T11:09:22Z</time>
      </trkpt>
      <trkpt lat="42.0206350" lon="-8.6441020">
        <ele>47.6</ele>
        <time>2019-06-21T11:09:24Z</time>
      </trkpt>
      <trkpt lat="42.0208580" lon="-8.6441610">
        <ele>48.2</ele>
        <time>2019-06-21T11:09:29Z</time>
      </trkpt>
      <trkpt lat="42.0209450" lon="-8.6441820">
        <ele>48.4</ele>
        <time>2019-06-21T11:09:31Z</time>
      </trkpt>
      <trkpt lat="42.0211380" lon="-8.6442430">
        <ele>49.0</ele>
        <time>2019-06-21T11:09:36Z</time>
      </trkpt>
      <trkpt lat="42.0211930" lon="-8.6442450">
        <ele>49.2</ele>
        <time>2019-06-21T11:09:38Z</time>
      </trkpt>
      <trkpt lat="42.0212180" lon="-8.6442320">
        <ele>49.4</ele>
        <time>2019-06-21T11:09:40Z</time>
      </trkpt>
      <trkpt lat="42.0212280" lon="-8.6442170">
        <ele>49.4</ele>
        <time>2019-06-21T11:09:41Z</time>
      </trkpt>
      <trkpt lat="42.0212790" lon="-8.6441030">
        <ele>49.2</ele>
        <time>2019-06-21T11:09:45Z</time>
      </trkpt>
      <trkpt lat="42.0212910" lon="-8.6440660">
        <ele>49.4</ele>
        <time>2019-06-21T11:09:46Z</time>
      </trkpt>
      <trkpt lat="42.0213610" lon="-8.6438630">
        <ele>50.0</ele>
        <time>2019-06-21T11:09:51Z</time>
      </trkpt>
      <trkpt lat="42.0214600" lon="-8.6435940">
        <ele>50.2</ele>
        <time>2019-06-21T11:09:57Z</time>
      </trkpt>
      <trkpt lat="42.0215190" lon="-8.6434580">
        <ele>50.4</ele>
        <time>2019-06-21T11:10:00Z</time>
      </trkpt>
      <trkpt lat="42.0216620" lon="-8.6431460">
        <ele>51.2</ele>
        <time>2019-06-21T11:10:07Z</time>
      </trkpt>
      <trkpt lat="42.0216910" lon="-8.6431070">
        <ele>51.4</ele>
        <time>2019-06-21T11:10:08Z</time>
      </trkpt>
      <trkpt lat="42.0218360" lon="-8.6428770">
        <ele>51.6</ele>
        <time>2019-06-21T11:10:14Z</time>
      </trkpt>
      <trkpt lat="42.0219350" lon="-8.6427330">
        <ele>52.0</ele>
        <time>2019-06-21T11:10:19Z</time>
      </trkpt>
      <trkpt lat="42.0219700" lon="-8.6426840">
        <ele>52.0</ele>
        <time>2019-06-21T11:10:22Z</time>
      </trkpt>
      <trkpt lat="42.0219870" lon="-8.6426640">
        <ele>52.2</ele>
        <time>2019-06-21T11:10:24Z</time>
      </trkpt>
      <trkpt lat="42.0220080" lon="-8.6426170">
        <ele>52.2</ele>
        <time>2019-06-21T11:10:27Z</time>
      </trkpt>
      <trkpt lat="42.0220330" lon="-8.6425670">
        <ele>52.4</ele>
        <time>2019-06-21T11:10:30Z</time>
      </trkpt>
      <trkpt lat="42.0220420" lon="-8.6425550">
        <ele>52.4</ele>
        <time>2019-06-21T11:10:31Z</time>
      </trkpt>
      <trkpt lat="42.0221300" lon="-8.6423730">
        <ele>52.4</ele>
        <time>2019-06-21T11:10:38Z</time>
      </trkpt>
      <trkpt lat="42.0222050" lon="-8.6422260">
        <ele>52.2</ele>
        <time>2019-06-21T11:10:43Z</time>
      </trkpt>
      <trkpt lat="42.0222300" lon="-8.6421590">
        <ele>52.4</ele>
        <time>2019-06-21T11:10:45Z</time>
      </trkpt>
      <trkpt lat="42.0223470" lon="-8.6420300">
        <ele>52.6</ele>
        <time>2019-06-21T11:10:50Z</time>
      </trkpt>
      <trkpt lat="42.0224900" lon="-8.6419960">
        <ele>52.8</ele>
        <time>2019-06-21T11:10:55Z</time>
      </trkpt>
      <trkpt lat="42.0226370" lon="-8.6419760">
        <ele>53.2</ele>
        <time>2019-06-21T11:11:01Z</time>
      </trkpt>
      <trkpt lat="42.0227620" lon="-8.6419000">
        <ele>53.4</ele>
        <time>2019-06-21T11:11:07Z</time>
      </trkpt>
      <trkpt lat="42.0227810" lon="-8.6418950">
        <ele>53.4</ele>
        <time>2019-06-21T11:11:08Z</time>
      </trkpt>
      <trkpt lat="42.0228180" lon="-8.6419000">
        <ele>53.2</ele>
        <time>2019-06-21T11:11:11Z</time>
      </trkpt>
      <trkpt lat="42.0228130" lon="-8.6418990">
        <ele>53.2</ele>
        <time>2019-06-21T11:11:12Z</time>
      </trkpt>
      <trkpt lat="42.0228200" lon="-8.6418940">
        <ele>53.4</ele>
        <time>2019-06-21T11:11:14Z</time>
      </trkpt>
      <trkpt lat="42.0228270" lon="-8.6418930">
        <ele>53.6</ele>
        <time>2019-06-21T11:11:18Z</time>
      </trkpt>
      <trkpt lat="42.0228380" lon="-8.6418650">
        <ele>54.0</ele>
        <time>2019-06-21T11:11:22Z</time>
      </trkpt>
      <trkpt lat="42.0228380" lon="-8.6418650">
        <ele>54.2</ele>
        <time>2019-06-21T11:11:24Z</time>
      </trkpt>
      <trkpt lat="42.0228380" lon="-8.6418650">
        <ele>54.2</ele>
        <time>2019-06-21T11:11:26Z</time>
      </trkpt>
      <trkpt lat="42.0228380" lon="-8.6418650">
        <ele>54.6</ele>
        <time>2019-06-21T11:11:34Z</time>
      </trkpt>
      <trkpt lat="42.0228380" lon="-8.6418650">
        <ele>54.2</ele>
        <time>2019-06-21T11:11:40Z</time>
      </trkpt>
      <trkpt lat="42.0228380" lon="-8.6418650">
        <ele>54.2</ele>
        <time>2019-06-21T11:11:49Z</time>
      </trkpt>
      <trkpt lat="42.0228380" lon="-8.6418680">
        <ele>53.4</ele>
        <time>2019-06-21T11:12:03Z</time>
      </trkpt>
      <trkpt lat="42.0228380" lon="-8.6418680">
        <ele>53.8</ele>
        <time>2019-06-21T11:12:04Z</time>
      </trkpt>
      <trkpt lat="42.0227970" lon="-8.6417450">
        <ele>54.0</ele>
        <time>2019-06-21T11:16:40Z</time>
      </trkpt>
      <trkpt lat="42.0228040" lon="-8.6417250">
        <ele>53.8</ele>
        <time>2019-06-21T11:16:41Z</time>
      </trkpt>
      <trkpt lat="42.0228020" lon="-8.6416990">
        <ele>53.6</ele>
        <time>2019-06-21T11:16:42Z</time>
      </trkpt>
      <trkpt lat="42.0227980" lon="-8.6416180">
        <ele>53.8</ele>
        <time>2019-06-21T11:16:45Z</time>
      </trkpt>
      <trkpt lat="42.0227610" lon="-8.6415700">
        <ele>53.6</ele>
        <time>2019-06-21T11:16:47Z</time>
      </trkpt>
      <trkpt lat="42.0227120" lon="-8.6413840">
        <ele>53.4</ele>
        <time>2019-06-21T11:16:53Z</time>
      </trkpt>
      <trkpt lat="42.0227310" lon="-8.6410450">
        <ele>53.6</ele>
        <time>2019-06-21T11:17:02Z</time>
      </trkpt>
      <trkpt lat="42.0227640" lon="-8.6409170">
        <ele>53.4</ele>
        <time>2019-06-21T11:17:05Z</time>
      </trkpt>
      <trkpt lat="42.0227770" lon="-8.6408470">
        <ele>53.4</ele>
        <time>2019-06-21T11:17:07Z</time>
      </trkpt>
      <trkpt lat="42.0228490" lon="-8.6407460">
        <ele>53.4</ele>
        <time>2019-06-21T11:17:11Z</time>
      </trkpt>
      <trkpt lat="42.0228710" lon="-8.6407520">
        <ele>53.4</ele>
        <time>2019-06-21T11:17:12Z</time>
      </trkpt>
      <trkpt lat="42.0229410" lon="-8.6407820">
        <ele>53.8</ele>
        <time>2019-06-21T11:17:15Z</time>
      </trkpt>
      <trkpt lat="42.0230050" lon="-8.6408010">
        <ele>54.2</ele>
        <time>2019-06-21T11:17:18Z</time>
      </trkpt>
      <trkpt lat="42.0230400" lon="-8.6407880">
        <ele>54.4</ele>
        <time>2019-06-21T11:17:20Z</time>
      </trkpt>
      <trkpt lat="42.0230730" lon="-8.6407820">
        <ele>54.8</ele>
        <time>2019-06-21T11:17:22Z</time>
      </trkpt>
      <trkpt lat="42.0231200" lon="-8.6407950">
        <ele>55.2</ele>
        <time>2019-06-21T11:17:26Z</time>
      </trkpt>
      <trkpt lat="42.0231420" lon="-8.6408140">
        <ele>55.4</ele>
        <time>2019-06-21T11:17:28Z</time>
      </trkpt>
      <trkpt lat="42.0231560" lon="-8.6408250">
        <ele>55.6</ele>
        <time>2019-06-21T11:17:29Z</time>
      </trkpt>
      <trkpt lat="42.0232480" lon="-8.6408590">
        <ele>56.4</ele>
        <time>2019-06-21T11:17:37Z</time>
      </trkpt>
      <trkpt lat="42.0232670" lon="-8.6408660">
        <ele>56.6</ele>
        <time>2019-06-21T11:17:38Z</time>
      </trkpt>
      <trkpt lat="42.0233460" lon="-8.6408920">
        <ele>57.0</ele>
        <time>2019-06-21T11:17:43Z</time>
      </trkpt>
      <trkpt lat="42.0234390" lon="-8.6409140">
        <ele>57.6</ele>
        <time>2019-06-21T11:17:48Z</time>
      </trkpt>
      <trkpt lat="42.0234700" lon="-8.6409120">
        <ele>57.8</ele>
        <time>2019-06-21T11:17:50Z</time>
      </trkpt>
      <trkpt lat="42.0235680" lon="-8.6409560">
        <ele>58.4</ele>
        <time>2019-06-21T11:17:56Z</time>
      </trkpt>
      <trkpt lat="42.0236250" lon="-8.6409830">
        <ele>58.6</ele>
        <time>2019-06-21T11:17:59Z</time>
      </trkpt>
      <trkpt lat="42.0236640" lon="-8.6410120">
        <ele>59.0</ele>
        <time>2019-06-21T11:18:02Z</time>
      </trkpt>
      <trkpt lat="42.0237850" lon="-8.6410280">
        <ele>59.4</ele>
        <time>2019-06-21T11:18:08Z</time>
      </trkpt>
      <trkpt lat="42.0239110" lon="-8.6410740">
        <ele>59.6</ele>
        <time>2019-06-21T11:18:13Z</time>
      </trkpt>
      <trkpt lat="42.0239280" lon="-8.6410760">
        <ele>59.8</ele>
        <time>2019-06-21T11:18:14Z</time>
      </trkpt>
      <trkpt lat="42.0239440" lon="-8.6410870">
        <ele>59.8</ele>
        <time>2019-06-21T11:18:15Z</time>
      </trkpt>
      <trkpt lat="42.0240270" lon="-8.6411310">
        <ele>60.2</ele>
        <time>2019-06-21T11:18:19Z</time>
      </trkpt>
      <trkpt lat="42.0241320" lon="-8.6411480">
        <ele>60.6</ele>
        <time>2019-06-21T11:18:25Z</time>
      </trkpt>
      <trkpt lat="42.0241460" lon="-8.6411610">
        <ele>60.8</ele>
        <time>2019-06-21T11:18:26Z</time>
      </trkpt>
      <trkpt lat="42.0242520" lon="-8.6412540">
        <ele>60.8</ele>
        <time>2019-06-21T11:18:32Z</time>
      </trkpt>
      <trkpt lat="42.0242700" lon="-8.6412640">
        <ele>60.8</ele>
        <time>2019-06-21T11:18:33Z</time>
      </trkpt>
      <trkpt lat="42.0243450" lon="-8.6412800">
        <ele>61.0</ele>
        <time>2019-06-21T11:18:37Z</time>
      </trkpt>
      <trkpt lat="42.0243840" lon="-8.6412730">
        <ele>61.2</ele>
        <time>2019-06-21T11:18:39Z</time>
      </trkpt>
      <trkpt lat="42.0244760" lon="-8.6413320">
        <ele>61.4</ele>
        <time>2019-06-21T11:18:44Z</time>
      </trkpt>
      <trkpt lat="42.0246400" lon="-8.6414010">
        <ele>61.6</ele>
        <time>2019-06-21T11:18:51Z</time>
      </trkpt>
      <trkpt lat="42.0247130" lon="-8.6414180">
        <ele>61.8</ele>
        <time>2019-06-21T11:18:55Z</time>
      </trkpt>
      <trkpt lat="42.0247070" lon="-8.6414080">
        <ele>61.8</ele>
        <time>2019-06-21T11:18:56Z</time>
      </trkpt>
      <trkpt lat="42.0247550" lon="-8.6414320">
        <ele>61.8</ele>
        <time>2019-06-21T11:19:11Z</time>
      </trkpt>
      <trkpt lat="42.0248090" lon="-8.6414360">
        <ele>61.6</ele>
        <time>2019-06-21T11:19:13Z</time>
      </trkpt>
      <trkpt lat="42.0248960" lon="-8.6414750">
        <ele>62.0</ele>
        <time>2019-06-21T11:19:16Z</time>
      </trkpt>
      <trkpt lat="42.0249840" lon="-8.6415080">
        <ele>62.0</ele>
        <time>2019-06-21T11:19:19Z</time>
      </trkpt>
      <trkpt lat="42.0252020" lon="-8.6416080">
        <ele>62.4</ele>
        <time>2019-06-21T11:19:26Z</time>
      </trkpt>
      <trkpt lat="42.0253220" lon="-8.6416520">
        <ele>62.8</ele>
        <time>2019-06-21T11:19:30Z</time>
      </trkpt>
      <trkpt lat="42.0255120" lon="-8.6416940">
        <ele>63.2</ele>
        <time>2019-06-21T11:19:36Z</time>
      </trkpt>
      <trkpt lat="42.0257040" lon="-8.6417470">
        <ele>63.4</ele>
        <time>2019-06-21T11:19:42Z</time>
      </trkpt>
      <trkpt lat="42.0257670" lon="-8.6417640">
        <ele>64.0</ele>
        <time>2019-06-21T11:19:44Z</time>
      </trkpt>
      <trkpt lat="42.0259210" lon="-8.6418080">
        <ele>64.4</ele>
        <time>2019-06-21T11:19:49Z</time>
      </trkpt>
      <trkpt lat="42.0260450" lon="-8.6418280">
        <ele>64.4</ele>
        <time>2019-06-21T11:19:53Z</time>
      </trkpt>
      <trkpt lat="42.0261070" lon="-8.6418500">
        <ele>65.0</ele>
        <time>2019-06-21T11:19:55Z</time>
      </trkpt>
      <trkpt lat="42.0261390" lon="-8.6418590">
        <ele>65.0</ele>
        <time>2019-06-21T11:19:56Z</time>
      </trkpt>
      <trkpt lat="42.0263000" lon="-8.6419200">
        <ele>65.6</ele>
        <time>2019-06-21T11:20:02Z</time>
      </trkpt>
      <trkpt lat="42.0264700" lon="-8.6419930">
        <ele>66.0</ele>
        <time>2019-06-21T11:20:08Z</time>
      </trkpt>
      <trkpt lat="42.0264960" lon="-8.6420040">
        <ele>66.0</ele>
        <time>2019-06-21T11:20:09Z</time>
      </trkpt>
      <trkpt lat="42.0266260" lon="-8.6420420">
        <ele>66.8</ele>
        <time>2019-06-21T11:20:14Z</time>
      </trkpt>
      <trkpt lat="42.0266930" lon="-8.6420210">
        <ele>67.0</ele>
        <time>2019-06-21T11:20:16Z</time>
      </trkpt>
      <trkpt lat="42.0267480" lon="-8.6419840">
        <ele>67.2</ele>
        <time>2019-06-21T11:20:19Z</time>
      </trkpt>
      <trkpt lat="42.0268930" lon="-8.6419740">
        <ele>67.6</ele>
        <time>2019-06-21T11:20:25Z</time>
      </trkpt>
      <trkpt lat="42.0270830" lon="-8.6420690">
        <ele>67.8</ele>
        <time>2019-06-21T11:20:31Z</time>
      </trkpt>
      <trkpt lat="42.0272300" lon="-8.6421240">
        <ele>67.8</ele>
        <time>2019-06-21T11:20:37Z</time>
      </trkpt>
      <trkpt lat="42.0272380" lon="-8.6421450">
        <ele>68.2</ele>
        <time>2019-06-21T11:20:38Z</time>
      </trkpt>
      <trkpt lat="42.0272620" lon="-8.6421510">
        <ele>68.2</ele>
        <time>2019-06-21T11:20:39Z</time>
      </trkpt>
      <trkpt lat="42.0273040" lon="-8.6421470">
        <ele>68.0</ele>
        <time>2019-06-21T11:20:41Z</time>
      </trkpt>
      <trkpt lat="42.0274600" lon="-8.6421560">
        <ele>68.6</ele>
        <time>2019-06-21T11:20:46Z</time>
      </trkpt>
      <trkpt lat="42.0275550" lon="-8.6422680">
        <ele>68.6</ele>
        <time>2019-06-21T11:20:51Z</time>
      </trkpt>
      <trkpt lat="42.0275640" lon="-8.6422860">
        <ele>68.8</ele>
        <time>2019-06-21T11:20:52Z</time>
      </trkpt>
      <trkpt lat="42.0275700" lon="-8.6423180">
        <ele>69.2</ele>
        <time>2019-06-21T11:20:54Z</time>
      </trkpt>
      <trkpt lat="42.0275640" lon="-8.6423380">
        <ele>69.2</ele>
        <time>2019-06-21T11:20:55Z</time>
      </trkpt>
      <trkpt lat="42.0275530" lon="-8.6423440">
        <ele>69.4</ele>
        <time>2019-06-21T11:20:56Z</time>
      </trkpt>
      <trkpt lat="42.0275380" lon="-8.6422900">
        <ele>69.6</ele>
        <time>2019-06-21T11:21:00Z</time>
      </trkpt>
      <trkpt lat="42.0275100" lon="-8.6421760">
        <ele>69.0</ele>
        <time>2019-06-21T11:21:04Z</time>
      </trkpt>
      <trkpt lat="42.0275090" lon="-8.6421350">
        <ele>68.6</ele>
        <time>2019-06-21T11:21:06Z</time>
      </trkpt>
      <trkpt lat="42.0275090" lon="-8.6420910">
        <ele>68.4</ele>
        <time>2019-06-21T11:21:17Z</time>
      </trkpt>
      <trkpt lat="42.0275080" lon="-8.6420600">
        <ele>68.4</ele>
        <time>2019-06-21T11:21:18Z</time>
      </trkpt>
      <trkpt lat="42.0275280" lon="-8.6420050">
        <ele>68.2</ele>
        <time>2019-06-21T11:21:20Z</time>
      </trkpt>
      <trkpt lat="42.0275500" lon="-8.6419870">
        <ele>68.0</ele>
        <time>2019-06-21T11:21:21Z</time>
      </trkpt>
      <trkpt lat="42.0275790" lon="-8.6419790">
        <ele>68.2</ele>
        <time>2019-06-21T11:21:22Z</time>
      </trkpt>
      <trkpt lat="42.0276690" lon="-8.6419680">
        <ele>68.2</ele>
        <time>2019-06-21T11:21:25Z</time>
      </trkpt>
      <trkpt lat="42.0277380" lon="-8.6419440">
        <ele>68.4</ele>
        <time>2019-06-21T11:21:27Z</time>
      </trkpt>
      <trkpt lat="42.0281080" lon="-8.6419130">
        <ele>67.0</ele>
        <time>2019-06-21T11:21:37Z</time>
      </trkpt>
      <trkpt lat="42.0283280" lon="-8.6419270">
        <ele>66.8</ele>
        <time>2019-06-21T11:21:43Z</time>
      </trkpt>
      <trkpt lat="42.0285190" lon="-8.6419290">
        <ele>66.0</ele>
        <time>2019-06-21T11:21:48Z</time>
      </trkpt>
      <trkpt lat="42.0285500" lon="-8.6419330">
        <ele>65.8</ele>
        <time>2019-06-21T11:21:49Z</time>
      </trkpt>
      <trkpt lat="42.0286820" lon="-8.6419130">
        <ele>65.2</ele>
        <time>2019-06-21T11:21:54Z</time>
      </trkpt>
      <trkpt lat="42.0288370" lon="-8.6419220">
        <ele>64.6</ele>
        <time>2019-06-21T11:21:59Z</time>
      </trkpt>
      <trkpt lat="42.0290850" lon="-8.6419240">
        <ele>63.8</ele>
        <time>2019-06-21T11:22:05Z</time>
      </trkpt>
      <trkpt lat="42.0291390" lon="-8.6419230">
        <ele>63.6</ele>
        <time>2019-06-21T11:22:06Z</time>
      </trkpt>
      <trkpt lat="42.0292910" lon="-8.6419300">
        <ele>62.6</ele>
        <time>2019-06-21T11:22:09Z</time>
      </trkpt>
      <trkpt lat="42.0293940" lon="-8.6419390">
        <ele>62.2</ele>
        <time>2019-06-21T11:22:11Z</time>
      </trkpt>
      <trkpt lat="42.0295550" lon="-8.6419320">
        <ele>61.4</ele>
        <time>2019-06-21T11:22:14Z</time>
      </trkpt>
      <trkpt lat="42.0296590" lon="-8.6419380">
        <ele>60.4</ele>
        <time>2019-06-21T11:22:16Z</time>
      </trkpt>
      <trkpt lat="42.0297200" lon="-8.6419320">
        <ele>59.8</ele>
        <time>2019-06-21T11:22:17Z</time>
      </trkpt>
      <trkpt lat="42.0299650" lon="-8.6418980">
        <ele>59.0</ele>
        <time>2019-06-21T11:22:21Z</time>
      </trkpt>
      <trkpt lat="42.0301600" lon="-8.6418810">
        <ele>59.0</ele>
        <time>2019-06-21T11:22:24Z</time>
      </trkpt>
      <trkpt lat="42.0303540" lon="-8.6418710">
        <ele>58.0</ele>
        <time>2019-06-21T11:22:27Z</time>
      </trkpt>
      <trkpt lat="42.0304270" lon="-8.6418760">
        <ele>57.6</ele>
        <time>2019-06-21T11:22:28Z</time>
      </trkpt>
      <trkpt lat="42.0305710" lon="-8.6418780">
        <ele>57.0</ele>
        <time>2019-06-21T11:22:30Z</time>
      </trkpt>
      <trkpt lat="42.0306390" lon="-8.6418790">
        <ele>56.4</ele>
        <time>2019-06-21T11:22:31Z</time>
      </trkpt>
      <trkpt lat="42.0307900" lon="-8.6418700">
        <ele>55.4</ele>
        <time>2019-06-21T11:22:33Z</time>
      </trkpt>
      <trkpt lat="42.0310380" lon="-8.6418920">
        <ele>54.2</ele>
        <time>2019-06-21T11:22:36Z</time>
      </trkpt>
      <trkpt lat="42.0311180" lon="-8.6419060">
        <ele>53.8</ele>
        <time>2019-06-21T11:22:37Z</time>
      </trkpt>
      <trkpt lat="42.0312750" lon="-8.6419340">
        <ele>53.0</ele>
        <time>2019-06-21T11:22:39Z</time>
      </trkpt>
      <trkpt lat="42.0316210" lon="-8.6420410">
        <ele>52.0</ele>
        <time>2019-06-21T11:22:43Z</time>
      </trkpt>
      <trkpt lat="42.0317080" lon="-8.6420820">
        <ele>51.8</ele>
        <time>2019-06-21T11:22:44Z</time>
      </trkpt>
      <trkpt lat="42.0321370" lon="-8.6422780">
        <ele>51.2</ele>
        <time>2019-06-21T11:22:50Z</time>
      </trkpt>
      <trkpt lat="42.0322000" lon="-8.6423030">
        <ele>50.8</ele>
        <time>2019-06-21T11:22:51Z</time>
      </trkpt>
      <trkpt lat="42.0325350" lon="-8.6424600">
        <ele>50.2</ele>
        <time>2019-06-21T11:22:57Z</time>
      </trkpt>
      <trkpt lat="42.0326290" lon="-8.6425000">
        <ele>49.6</ele>
        <time>2019-06-21T11:23:00Z</time>
      </trkpt>
      <trkpt lat="42.0327010" lon="-8.6425010">
        <ele>49.2</ele>
        <time>2019-06-21T11:23:04Z</time>
      </trkpt>
      <trkpt lat="42.0327590" lon="-8.6425310">
        <ele>49.4</ele>
        <time>2019-06-21T11:23:08Z</time>
      </trkpt>
      <trkpt lat="42.0327810" lon="-8.6425430">
        <ele>49.4</ele>
        <time>2019-06-21T11:23:10Z</time>
      </trkpt>
      <trkpt lat="42.0327970" lon="-8.6425420">
        <ele>49.4</ele>
        <time>2019-06-21T11:23:11Z</time>
      </trkpt>
      <trkpt lat="42.0328420" lon="-8.6425490">
        <ele>49.2</ele>
        <time>2019-06-21T11:23:14Z</time>
      </trkpt>
      <trkpt lat="42.0328510" lon="-8.6425550">
        <ele>49.2</ele>
        <time>2019-06-21T11:23:16Z</time>
      </trkpt>
      <trkpt lat="42.0328690" lon="-8.6425660">
        <ele>49.4</ele>
        <time>2019-06-21T11:23:17Z</time>
      </trkpt>
      <trkpt lat="42.0329440" lon="-8.6426360">
        <ele>49.0</ele>
        <time>2019-06-21T11:23:31Z</time>
      </trkpt>
      <trkpt lat="42.0329990" lon="-8.6427280">
        <ele>48.8</ele>
        <time>2019-06-21T11:23:35Z</time>
      </trkpt>
      <trkpt lat="42.0330250" lon="-8.6427550">
        <ele>49.0</ele>
        <time>2019-06-21T11:23:38Z</time>
      </trkpt>
      <trkpt lat="42.0330440" lon="-8.6427820">
        <ele>48.8</ele>
        <time>2019-06-21T11:23:53Z</time>
      </trkpt>
      <trkpt lat="42.0330620" lon="-8.6428050">
        <ele>48.8</ele>
        <time>2019-06-21T11:23:54Z</time>
      </trkpt>
      <trkpt lat="42.0331230" lon="-8.6428810">
        <ele>49.0</ele>
        <time>2019-06-21T11:23:57Z</time>
      </trkpt>
      <trkpt lat="42.0331740" lon="-8.6429340">
        <ele>48.6</ele>
        <time>2019-06-21T11:23:59Z</time>
      </trkpt>
      <trkpt lat="42.0332030" lon="-8.6429620">
        <ele>48.4</ele>
        <time>2019-06-21T11:24:00Z</time>
      </trkpt>
      <trkpt lat="42.0333480" lon="-8.6431180">
        <ele>48.8</ele>
        <time>2019-06-21T11:24:05Z</time>
      </trkpt>
      <trkpt lat="42.0335790" lon="-8.6434110">
        <ele>48.6</ele>
        <time>2019-06-21T11:24:12Z</time>
      </trkpt>
      <trkpt lat="42.0337470" lon="-8.6436200">
        <ele>48.2</ele>
        <time>2019-06-21T11:24:17Z</time>
      </trkpt>
      <trkpt lat="42.0338120" lon="-8.6437030">
        <ele>48.2</ele>
        <time>2019-06-21T11:24:19Z</time>
      </trkpt>
      <trkpt lat="42.0340120" lon="-8.6439720">
        <ele>47.2</ele>
        <time>2019-06-21T11:24:25Z</time>
      </trkpt>
      <trkpt lat="42.0340770" lon="-8.6440710">
        <ele>46.8</ele>
        <time>2019-06-21T11:24:27Z</time>
      </trkpt>
      <trkpt lat="42.0343410" lon="-8.6444030">
        <ele>46.4</ele>
        <time>2019-06-21T11:24:34Z</time>
      </trkpt>
      <trkpt lat="42.0343830" lon="-8.6444630">
        <ele>45.8</ele>
        <time>2019-06-21T11:24:35Z</time>
      </trkpt>
      <trkpt lat="42.0345260" lon="-8.6446590">
        <ele>44.8</ele>
        <time>2019-06-21T11:24:38Z</time>
      </trkpt>
      <trkpt lat="42.0345770" lon="-8.6447310">
        <ele>44.2</ele>
        <time>2019-06-21T11:24:39Z</time>
      </trkpt>
      <trkpt lat="42.0346830" lon="-8.6448780">
        <ele>43.6</ele>
        <time>2019-06-21T11:24:41Z</time>
      </trkpt>
      <trkpt lat="42.0347860" lon="-8.6450300">
        <ele>42.6</ele>
        <time>2019-06-21T11:24:43Z</time>
      </trkpt>
      <trkpt lat="42.0348760" lon="-8.6451520">
        <ele>41.2</ele>
        <time>2019-06-21T11:24:45Z</time>
      </trkpt>
      <trkpt lat="42.0349180" lon="-8.6451890">
        <ele>41.0</ele>
        <time>2019-06-21T11:24:46Z</time>
      </trkpt>
      <trkpt lat="42.0349950" lon="-8.6452370">
        <ele>40.2</ele>
        <time>2019-06-21T11:24:48Z</time>
      </trkpt>
      <trkpt lat="42.0350330" lon="-8.6452480">
        <ele>39.8</ele>
        <time>2019-06-21T11:24:49Z</time>
      </trkpt>
      <trkpt lat="42.0351300" lon="-8.6452650">
        <ele>39.6</ele>
        <time>2019-06-21T11:24:53Z</time>
      </trkpt>
      <trkpt lat="42.0352050" lon="-8.6453210">
        <ele>39.4</ele>
        <time>2019-06-21T11:24:59Z</time>
      </trkpt>
      <trkpt lat="42.0352700" lon="-8.6453910">
        <ele>39.2</ele>
        <time>2019-06-21T11:25:12Z</time>
      </trkpt>
      <trkpt lat="42.0352870" lon="-8.6454090">
        <ele>39.2</ele>
        <time>2019-06-21T11:25:13Z</time>
      </trkpt>
      <trkpt lat="42.0353640" lon="-8.6454990">
        <ele>39.2</ele>
        <time>2019-06-21T11:25:17Z</time>
      </trkpt>
      <trkpt lat="42.0354200" lon="-8.6455810">
        <ele>39.2</ele>
        <time>2019-06-21T11:25:20Z</time>
      </trkpt>
      <trkpt lat="42.0356240" lon="-8.6458440">
        <ele>39.2</ele>
        <time>2019-06-21T11:25:29Z</time>
      </trkpt>
      <trkpt lat="42.0358180" lon="-8.6460690">
        <ele>39.4</ele>
        <time>2019-06-21T11:25:36Z</time>
      </trkpt>
      <trkpt lat="42.0359500" lon="-8.6462250">
        <ele>39.2</ele>
        <time>2019-06-21T11:25:41Z</time>
      </trkpt>
      <trkpt lat="42.0360050" lon="-8.6462960">
        <ele>39.4</ele>
        <time>2019-06-21T11:25:43Z</time>
      </trkpt>
      <trkpt lat="42.0361500" lon="-8.6464840">
        <ele>39.4</ele>
        <time>2019-06-21T11:25:48Z</time>
      </trkpt>
      <trkpt lat="42.0362330" lon="-8.6466070">
        <ele>39.4</ele>
        <time>2019-06-21T11:25:51Z</time>
      </trkpt>
      <trkpt lat="42.0364570" lon="-8.6469290">
        <ele>39.4</ele>
        <time>2019-06-21T11:25:59Z</time>
      </trkpt>
      <trkpt lat="42.0365120" lon="-8.6470010">
        <ele>39.0</ele>
        <time>2019-06-21T11:26:03Z</time>
      </trkpt>
      <trkpt lat="42.0365300" lon="-8.6470280">
        <ele>39.0</ele>
        <time>2019-06-21T11:26:08Z</time>
      </trkpt>
      <trkpt lat="42.0365480" lon="-8.6470510">
        <ele>38.8</ele>
        <time>2019-06-21T11:26:09Z</time>
      </trkpt>
      <trkpt lat="42.0366680" lon="-8.6472100">
        <ele>39.0</ele>
        <time>2019-06-21T11:26:14Z</time>
      </trkpt>
      <trkpt lat="42.0369120" lon="-8.6475050">
        <ele>39.2</ele>
        <time>2019-06-21T11:26:22Z</time>
      </trkpt>
      <trkpt lat="42.0370800" lon="-8.6477350">
        <ele>39.2</ele>
        <time>2019-06-21T11:26:29Z</time>
      </trkpt>
      <trkpt lat="42.0371930" lon="-8.6478700">
        <ele>39.2</ele>
        <time>2019-06-21T11:26:34Z</time>
      </trkpt>
      <trkpt lat="42.0372350" lon="-8.6479240">
        <ele>39.2</ele>
        <time>2019-06-21T11:26:36Z</time>
      </trkpt>
      <trkpt lat="42.0373530" lon="-8.6480200">
        <ele>39.0</ele>
        <time>2019-06-21T11:26:42Z</time>
      </trkpt>
      <trkpt lat="42.0374120" lon="-8.6480520">
        <ele>39.2</ele>
        <time>2019-06-21T11:26:47Z</time>
      </trkpt>
      <trkpt lat="42.0377420" lon="-8.6481560">
        <ele>38.4</ele>
        <time>2019-06-21T11:35:16Z</time>
      </trkpt>
      <trkpt lat="42.0377620" lon="-8.6481490">
        <ele>38.4</ele>
        <time>2019-06-21T11:35:17Z</time>
      </trkpt>
      <trkpt lat="42.0378060" lon="-8.6481250">
        <ele>38.2</ele>
        <time>2019-06-21T11:35:19Z</time>
      </trkpt>
      <trkpt lat="42.0378490" lon="-8.6481000">
        <ele>38.2</ele>
        <time>2019-06-21T11:35:21Z</time>
      </trkpt>
      <trkpt lat="42.0379390" lon="-8.6480470">
        <ele>38.0</ele>
        <time>2019-06-21T11:35:25Z</time>
      </trkpt>
      <trkpt lat="42.0379650" lon="-8.6480270">
        <ele>38.0</ele>
        <time>2019-06-21T11:35:26Z</time>
      </trkpt>
      <trkpt lat="42.0381270" lon="-8.6479460">
        <ele>37.6</ele>
        <time>2019-06-21T11:35:31Z</time>
      </trkpt>
      <trkpt lat="42.0381650" lon="-8.6479280">
        <ele>37.4</ele>
        <time>2019-06-21T11:35:32Z</time>
      </trkpt>
      <trkpt lat="42.0383740" lon="-8.6478860">
        <ele>37.2</ele>
        <time>2019-06-21T11:35:37Z</time>
      </trkpt>
      <trkpt lat="42.0384140" lon="-8.6478820">
        <ele>37.2</ele>
        <time>2019-06-21T11:35:38Z</time>
      </trkpt>
      <trkpt lat="42.0387220" lon="-8.6478690">
        <ele>37.2</ele>
        <time>2019-06-21T11:35:46Z</time>
      </trkpt>
      <trkpt lat="42.0388950" lon="-8.6478880">
        <ele>36.8</ele>
        <time>2019-06-21T11:35:52Z</time>
      </trkpt>
      <trkpt lat="42.0390360" lon="-8.6478910">
        <ele>36.8</ele>
        <time>2019-06-21T11:35:57Z</time>
      </trkpt>
      <trkpt lat="42.0391500" lon="-8.6479140">
        <ele>37.0</ele>
        <time>2019-06-21T11:36:01Z</time>
      </trkpt>
      <trkpt lat="42.0392510" lon="-8.6479270">
        <ele>37.0</ele>
        <time>2019-06-21T11:36:04Z</time>
      </trkpt>
      <trkpt lat="42.0394880" lon="-8.6479400">
        <ele>37.0</ele>
        <time>2019-06-21T11:36:10Z</time>
      </trkpt>
      <trkpt lat="42.0395270" lon="-8.6479410">
        <ele>37.0</ele>
        <time>2019-06-21T11:36:11Z</time>
      </trkpt>
      <trkpt lat="42.0395700" lon="-8.6479460">
        <ele>37.0</ele>
        <time>2019-06-21T11:36:12Z</time>
      </trkpt>
      <trkpt lat="42.0397870" lon="-8.6479610">
        <ele>37.2</ele>
        <time>2019-06-21T11:36:17Z</time>
      </trkpt>
      <trkpt lat="42.0398340" lon="-8.6479540">
        <ele>37.2</ele>
        <time>2019-06-21T11:36:18Z</time>
      </trkpt>
      <trkpt lat="42.0401150" lon="-8.6479290">
        <ele>37.6</ele>
        <time>2019-06-21T11:36:24Z</time>
      </trkpt>
      <trkpt lat="42.0401970" lon="-8.6479310">
        <ele>37.6</ele>
        <time>2019-06-21T11:36:26Z</time>
      </trkpt>
      <trkpt lat="42.0404120" lon="-8.6479510">
        <ele>37.6</ele>
        <time>2019-06-21T11:36:31Z</time>
      </trkpt>
      <trkpt lat="42.0404550" lon="-8.6479580">
        <ele>37.4</ele>
        <time>2019-06-21T11:36:32Z</time>
      </trkpt>
      <trkpt lat="42.0404960" lon="-8.6479600">
        <ele>37.4</ele>
        <time>2019-06-21T11:36:33Z</time>
      </trkpt>
      <trkpt lat="42.0406680" lon="-8.6479940">
        <ele>37.6</ele>
        <time>2019-06-21T11:36:38Z</time>
      </trkpt>
      <trkpt lat="42.0409520" lon="-8.6478590">
        <ele>37.4</ele>
        <time>2019-06-21T11:36:44Z</time>
      </trkpt>
      <trkpt lat="42.0409610" lon="-8.6477060">
        <ele>37.4</ele>
        <time>2019-06-21T11:36:47Z</time>
      </trkpt>
      <trkpt lat="42.0408800" lon="-8.6474900">
        <ele>37.6</ele>
        <time>2019-06-21T11:36:52Z</time>
      </trkpt>
      <trkpt lat="42.0407290" lon="-8.6471130">
        <ele>37.8</ele>
        <time>2019-06-21T11:37:00Z</time>
      </trkpt>
      <trkpt lat="42.0406550" lon="-8.6469280">
        <ele>38.2</ele>
        <time>2019-06-21T11:37:04Z</time>
      </trkpt>
      <trkpt lat="42.0405490" lon="-8.6466970">
        <ele>38.8</ele>
        <time>2019-06-21T11:37:09Z</time>
      </trkpt>
      <trkpt lat="42.0404700" lon="-8.6464470">
        <ele>39.4</ele>
        <time>2019-06-21T11:37:14Z</time>
      </trkpt>
      <trkpt lat="42.0404270" lon="-8.6463610">
        <ele>39.6</ele>
        <time>2019-06-21T11:37:16Z</time>
      </trkpt>
      <trkpt lat="42.0403500" lon="-8.6461860">
        <ele>39.8</ele>
        <time>2019-06-21T11:37:20Z</time>
      </trkpt>
      <trkpt lat="42.0403420" lon="-8.6461250">
        <ele>39.2</ele>
        <time>2019-06-21T11:37:21Z</time>
      </trkpt>
      <trkpt lat="42.0403310" lon="-8.6459430">
        <ele>38.2</ele>
        <time>2019-06-21T11:37:24Z</time>
      </trkpt>
      <trkpt lat="42.0403340" lon="-8.6457990">
        <ele>36.8</ele>
        <time>2019-06-21T11:37:26Z</time>
      </trkpt>
      <trkpt lat="42.0403500" lon="-8.6457150">
        <ele>36.0</ele>
        <time>2019-06-21T11:37:27Z</time>
      </trkpt>
      <trkpt lat="42.0403690" lon="-8.6456290">
        <ele>34.8</ele>
        <time>2019-06-21T11:37:28Z</time>
      </trkpt>
      <trkpt lat="42.0404140" lon="-8.6454980">
        <ele>33.8</ele>
        <time>2019-06-21T11:37:29Z</time>
      </trkpt>
      <trkpt lat="42.0404370" lon="-8.6453770">
        <ele>32.6</ele>
        <time>2019-06-21T11:37:30Z</time>
      </trkpt>
      <trkpt lat="42.0404280" lon="-8.6452720">
        <ele>31.8</ele>
        <time>2019-06-21T11:37:31Z</time>
      </trkpt>
      <trkpt lat="42.0403980" lon="-8.6451840">
        <ele>31.2</ele>
        <time>2019-06-21T11:37:32Z</time>
      </trkpt>
      <trkpt lat="42.0403470" lon="-8.6450420">
        <ele>30.6</ele>
        <time>2019-06-21T11:37:34Z</time>
      </trkpt>
      <trkpt lat="42.0402660" lon="-8.6448450">
        <ele>30.0</ele>
        <time>2019-06-21T11:37:37Z</time>
      </trkpt>
      <trkpt lat="42.0402220" lon="-8.6447390">
        <ele>29.0</ele>
        <time>2019-06-21T11:37:39Z</time>
      </trkpt>
      <trkpt lat="42.0401870" lon="-8.6446720">
        <ele>28.0</ele>
        <time>2019-06-21T11:37:41Z</time>
      </trkpt>
      <trkpt lat="42.0401730" lon="-8.6446410">
        <ele>27.6</ele>
        <time>2019-06-21T11:37:42Z</time>
      </trkpt>
      <trkpt lat="42.0401580" lon="-8.6445930">
        <ele>27.4</ele>
        <time>2019-06-21T11:37:44Z</time>
      </trkpt>
      <trkpt lat="42.0402310" lon="-8.6445140">
        <ele>27.6</ele>
        <time>2019-06-21T11:44:42Z</time>
      </trkpt>
      <trkpt lat="42.0402460" lon="-8.6445260">
        <ele>27.8</ele>
        <time>2019-06-21T11:44:43Z</time>
      </trkpt>
      <trkpt lat="42.0402910" lon="-8.6445700">
        <ele>27.8</ele>
        <time>2019-06-21T11:44:46Z</time>
      </trkpt>
      <trkpt lat="42.0403240" lon="-8.6445860">
        <ele>28.0</ele>
        <time>2019-06-21T11:44:48Z</time>
      </trkpt>
      <trkpt lat="42.0403750" lon="-8.6445730">
        <ele>28.4</ele>
        <time>2019-06-21T11:44:51Z</time>
      </trkpt>
      <trkpt lat="42.0403920" lon="-8.6445630">
        <ele>28.6</ele>
        <time>2019-06-21T11:44:52Z</time>
      </trkpt>
      <trkpt lat="42.0404290" lon="-8.6445430">
        <ele>29.0</ele>
        <time>2019-06-21T11:44:54Z</time>
      </trkpt>
      <trkpt lat="42.0404940" lon="-8.6445200">
        <ele>29.6</ele>
        <time>2019-06-21T11:44:57Z</time>
      </trkpt>
      <trkpt lat="42.0405740" lon="-8.6445100">
        <ele>30.0</ele>
        <time>2019-06-21T11:45:00Z</time>
      </trkpt>
      <trkpt lat="42.0406060" lon="-8.6445100">
        <ele>30.0</ele>
        <time>2019-06-21T11:45:01Z</time>
      </trkpt>
      <trkpt lat="42.0407100" lon="-8.6444940">
        <ele>30.2</ele>
        <time>2019-06-21T11:45:05Z</time>
      </trkpt>
      <trkpt lat="42.0407920" lon="-8.6444870">
        <ele>30.6</ele>
        <time>2019-06-21T11:45:08Z</time>
      </trkpt>
      <trkpt lat="42.0408660" lon="-8.6444950">
        <ele>30.8</ele>
        <time>2019-06-21T11:45:10Z</time>
      </trkpt>
      <trkpt lat="42.0409710" lon="-8.6445560">
        <ele>30.8</ele>
        <time>2019-06-21T11:45:13Z</time>
      </trkpt>
      <trkpt lat="42.0411850" lon="-8.6447460">
        <ele>31.8</ele>
        <time>2019-06-21T11:45:21Z</time>
      </trkpt>
      <trkpt lat="42.0413180" lon="-8.6448680">
        <ele>32.6</ele>
        <time>2019-06-21T11:45:27Z</time>
      </trkpt>
      <trkpt lat="42.0413540" lon="-8.6449220">
        <ele>32.8</ele>
        <time>2019-06-21T11:45:29Z</time>
      </trkpt>
      <trkpt lat="42.0414380" lon="-8.6451130">
        <ele>33.6</ele>
        <time>2019-06-21T11:45:35Z</time>
      </trkpt>
      <trkpt lat="42.0414950" lon="-8.6452530">
        <ele>34.0</ele>
        <time>2019-06-21T11:45:39Z</time>
      </trkpt>
      <trkpt lat="42.0415570" lon="-8.6454360">
        <ele>34.4</ele>
        <time>2019-06-21T11:45:44Z</time>
      </trkpt>
      <trkpt lat="42.0416620" lon="-8.6458080">
        <ele>34.8</ele>
        <time>2019-06-21T11:45:53Z</time>
      </trkpt>
      <trkpt lat="42.0416690" lon="-8.6460750">
        <ele>34.4</ele>
        <time>2019-06-21T11:45:58Z</time>
      </trkpt>
      <trkpt lat="42.0416460" lon="-8.6462650">
        <ele>33.6</ele>
        <time>2019-06-21T11:46:01Z</time>
      </trkpt>
      <trkpt lat="42.0416580" lon="-8.6464010">
        <ele>32.6</ele>
        <time>2019-06-21T11:46:03Z</time>
      </trkpt>
      <trkpt lat="42.0417650" lon="-8.6466340">
        <ele>31.6</ele>
        <time>2019-06-21T11:46:07Z</time>
      </trkpt>
      <trkpt lat="42.0418820" lon="-8.6467160">
        <ele>30.8</ele>
        <time>2019-06-21T11:46:10Z</time>
      </trkpt>
      <trkpt lat="42.0419250" lon="-8.6467440">
        <ele>30.6</ele>
        <time>2019-06-21T11:46:11Z</time>
      </trkpt>
      <trkpt lat="42.0419680" lon="-8.6467740">
        <ele>30.6</ele>
        <time>2019-06-21T11:46:12Z</time>
      </trkpt>
      <trkpt lat="42.0420820" lon="-8.6468340">
        <ele>30.2</ele>
        <time>2019-06-21T11:46:15Z</time>
      </trkpt>
      <trkpt lat="42.0421170" lon="-8.6468360">
        <ele>30.2</ele>
        <time>2019-06-21T11:46:16Z</time>
      </trkpt>
      <trkpt lat="42.0421970" lon="-8.6468190">
        <ele>30.0</ele>
        <time>2019-06-21T11:46:18Z</time>
      </trkpt>
      <trkpt lat="42.0423130" lon="-8.6467850">
        <ele>29.6</ele>
        <time>2019-06-21T11:46:21Z</time>
      </trkpt>
      <trkpt lat="42.0423830" lon="-8.6467540">
        <ele>29.4</ele>
        <time>2019-06-21T11:46:23Z</time>
      </trkpt>
      <trkpt lat="42.0424800" lon="-8.6467190">
        <ele>29.2</ele>
        <time>2019-06-21T11:46:26Z</time>
      </trkpt>
      <trkpt lat="42.0425390" lon="-8.6466930">
        <ele>29.2</ele>
        <time>2019-06-21T11:46:28Z</time>
      </trkpt>
      <trkpt lat="42.0426790" lon="-8.6466330">
        <ele>29.0</ele>
        <time>2019-06-21T11:46:33Z</time>
      </trkpt>
      <trkpt lat="42.0428020" lon="-8.6465660">
        <ele>28.8</ele>
        <time>2019-06-21T11:46:38Z</time>
      </trkpt>
      <trkpt lat="42.0428630" lon="-8.6465380">
        <ele>28.8</ele>
        <time>2019-06-21T11:46:40Z</time>
      </trkpt>
      <trkpt lat="42.0429580" lon="-8.6464420">
        <ele>28.8</ele>
        <time>2019-06-21T11:46:45Z</time>
      </trkpt>
      <trkpt lat="42.0430030" lon="-8.6463580">
        <ele>28.8</ele>
        <time>2019-06-21T11:46:50Z</time>
      </trkpt>
      <trkpt lat="42.0430160" lon="-8.6463380">
        <ele>28.6</ele>
        <time>2019-06-21T11:46:51Z</time>
      </trkpt>
      <trkpt lat="42.0430620" lon="-8.6462270">
        <ele>28.6</ele>
        <time>2019-06-21T11:46:55Z</time>
      </trkpt>
      <trkpt lat="42.0430950" lon="-8.6461650">
        <ele>28.4</ele>
        <time>2019-06-21T11:46:57Z</time>
      </trkpt>
      <trkpt lat="42.0432210" lon="-8.6459230">
        <ele>28.2</ele>
        <time>2019-06-21T11:47:04Z</time>
      </trkpt>
      <trkpt lat="42.0433350" lon="-8.6457610">
        <ele>28.4</ele>
        <time>2019-06-21T11:47:09Z</time>
      </trkpt>
      <trkpt lat="42.0434680" lon="-8.6456630">
        <ele>28.4</ele>
        <time>2019-06-21T11:47:14Z</time>
      </trkpt>
      <trkpt lat="42.0435920" lon="-8.6456750">
        <ele>28.6</ele>
        <time>2019-06-21T11:47:20Z</time>
      </trkpt>
      <trkpt lat="42.0436570" lon="-8.6456700">
        <ele>28.6</ele>
        <time>2019-06-21T11:47:24Z</time>
      </trkpt>
      <trkpt lat="42.0436610" lon="-8.6456380">
        <ele>28.6</ele>
        <time>2019-06-21T11:47:25Z</time>
      </trkpt>
      <trkpt lat="42.0436660" lon="-8.6455390">
        <ele>29.0</ele>
        <time>2019-06-21T11:47:28Z</time>
      </trkpt>
      <trkpt lat="42.0436700" lon="-8.6454570">
        <ele>29.4</ele>
        <time>2019-06-21T11:47:31Z</time>
      </trkpt>
      <trkpt lat="42.0436730" lon="-8.6454350">
        <ele>29.8</ele>
        <time>2019-06-21T11:47:32Z</time>
      </trkpt>
      <trkpt lat="42.0436800" lon="-8.6453400">
        <ele>30.6</ele>
        <time>2019-06-21T11:47:37Z</time>
      </trkpt>
      <trkpt lat="42.0436820" lon="-8.6453010">
        <ele>30.6</ele>
        <time>2019-06-21T11:47:39Z</time>
      </trkpt>
      <trkpt lat="42.0436930" lon="-8.6452660">
        <ele>31.0</ele>
        <time>2019-06-21T11:47:41Z</time>
      </trkpt>
      <trkpt lat="42.0437860" lon="-8.6452930">
        <ele>32.4</ele>
        <time>2019-06-21T11:47:50Z</time>
      </trkpt>
      <trkpt lat="42.0438620" lon="-8.6453300">
        <ele>33.0</ele>
        <time>2019-06-21T11:47:55Z</time>
      </trkpt>
      <trkpt lat="42.0439050" lon="-8.6453550">
        <ele>33.2</ele>
        <time>2019-06-21T11:47:58Z</time>
      </trkpt>
      <trkpt lat="42.0439940" lon="-8.6453510">
        <ele>33.4</ele>
        <time>2019-06-21T11:48:03Z</time>
      </trkpt>
      <trkpt lat="42.0440120" lon="-8.6453560">
        <ele>33.4</ele>
        <time>2019-06-21T11:48:04Z</time>
      </trkpt>
      <trkpt lat="42.0440320" lon="-8.6453560">
        <ele>33.2</ele>
        <time>2019-06-21T11:48:05Z</time>
      </trkpt>
      <trkpt lat="42.0441940" lon="-8.6453670">
        <ele>33.4</ele>
        <time>2019-06-21T11:48:11Z</time>
      </trkpt>
      <trkpt lat="42.0443170" lon="-8.6454800">
        <ele>34.4</ele>
        <time>2019-06-21T11:48:17Z</time>
      </trkpt>
      <trkpt lat="42.0443750" lon="-8.6455370">
        <ele>34.4</ele>
        <time>2019-06-21T11:48:20Z</time>
      </trkpt>
      <trkpt lat="42.0444970" lon="-8.6456030">
        <ele>35.6</ele>
        <time>2019-06-21T11:48:25Z</time>
      </trkpt>
      <trkpt lat="42.0445970" lon="-8.6456480">
        <ele>36.6</ele>
        <time>2019-06-21T11:48:30Z</time>
      </trkpt>
      <trkpt lat="42.0446170" lon="-8.6456580">
        <ele>36.8</ele>
        <time>2019-06-21T11:48:31Z</time>
      </trkpt>
      <trkpt lat="42.0446510" lon="-8.6456680">
        <ele>37.4</ele>
        <time>2019-06-21T11:48:33Z</time>
      </trkpt>
      <trkpt lat="42.0446730" lon="-8.6456800">
        <ele>38.0</ele>
        <time>2019-06-21T11:48:35Z</time>
      </trkpt>
      <trkpt lat="42.0447190" lon="-8.6456740">
        <ele>38.4</ele>
        <time>2019-06-21T11:48:38Z</time>
      </trkpt>
      <trkpt lat="42.0447590" lon="-8.6456640">
        <ele>38.8</ele>
        <time>2019-06-21T11:48:41Z</time>
      </trkpt>
      <trkpt lat="42.0447850" lon="-8.6456410">
        <ele>39.0</ele>
        <time>2019-06-21T11:48:43Z</time>
      </trkpt>
      <trkpt lat="42.0447940" lon="-8.6456280">
        <ele>39.2</ele>
        <time>2019-06-21T11:48:44Z</time>
      </trkpt>
      <trkpt lat="42.0448460" lon="-8.6455760">
        <ele>40.2</ele>
        <time>2019-06-21T11:48:49Z</time>
      </trkpt>
      <trkpt lat="42.0448970" lon="-8.6455580">
        <ele>40.6</ele>
        <time>2019-06-21T11:48:52Z</time>
      </trkpt>
      <trkpt lat="42.0449370" lon="-8.6455380">
        <ele>41.2</ele>
        <time>2019-06-21T11:48:55Z</time>
      </trkpt>
      <trkpt lat="42.0449840" lon="-8.6455030">
        <ele>42.2</ele>
        <time>2019-06-21T11:49:00Z</time>
      </trkpt>
      <trkpt lat="42.0449900" lon="-8.6454930">
        <ele>42.4</ele>
        <time>2019-06-21T11:49:01Z</time>
      </trkpt>
      <trkpt lat="42.0450690" lon="-8.6454020">
        <ele>45.0</ele>
        <time>2019-06-21T11:49:16Z</time>
      </trkpt>
      <trkpt lat="42.0450600" lon="-8.6453730">
        <ele>45.2</ele>
        <time>2019-06-21T11:49:18Z</time>
      </trkpt>
      <trkpt lat="42.0450510" lon="-8.6453570">
        <ele>45.6</ele>
        <time>2019-06-21T11:49:19Z</time>
      </trkpt>
      <trkpt lat="42.0450420" lon="-8.6453360">
        <ele>46.2</ele>
        <time>2019-06-21T11:49:20Z</time>
      </trkpt>
      <trkpt lat="42.0450250" lon="-8.6453170">
        <ele>47.2</ele>
        <time>2019-06-21T11:49:22Z</time>
      </trkpt>
      <trkpt lat="42.0449980" lon="-8.6452710">
        <ele>46.2</ele>
        <time>2019-06-21T11:49:25Z</time>
      </trkpt>
      <trkpt lat="42.0449920" lon="-8.6452610">
        <ele>45.6</ele>
        <time>2019-06-21T11:49:26Z</time>
      </trkpt>
      <trkpt lat="42.0449760" lon="-8.6452210">
        <ele>44.2</ele>
        <time>2019-06-21T11:49:31Z</time>
      </trkpt>
      <trkpt lat="42.0449760" lon="-8.6452110">
        <ele>47.2</ele>
        <time>2019-06-21T11:49:32Z</time>
      </trkpt>
      <trkpt lat="42.0449280" lon="-8.6450840">
        <ele>47.4</ele>
        <time>2019-06-21T11:49:40Z</time>
      </trkpt>
      <trkpt lat="42.0448700" lon="-8.6449370">
        <ele>48.2</ele>
        <time>2019-06-21T11:49:48Z</time>
      </trkpt>
      <trkpt lat="42.0448570" lon="-8.6449030">
        <ele>48.4</ele>
        <time>2019-06-21T11:49:50Z</time>
      </trkpt>
      <trkpt lat="42.0448110" lon="-8.6447870">
        <ele>49.2</ele>
        <time>2019-06-21T11:49:57Z</time>
      </trkpt>
      <trkpt lat="42.0448130" lon="-8.6447510">
        <ele>49.4</ele>
        <time>2019-06-21T11:49:59Z</time>
      </trkpt>
      <trkpt lat="42.0448290" lon="-8.6446740">
        <ele>50.4</ele>
        <time>2019-06-21T11:50:03Z</time>
      </trkpt>
      <trkpt lat="42.0448320" lon="-8.6446580">
        <ele>50.6</ele>
        <time>2019-06-21T11:50:04Z</time>
      </trkpt>
      <trkpt lat="42.0448820" lon="-8.6446360">
        <ele>51.0</ele>
        <time>2019-06-21T11:50:09Z</time>
      </trkpt>
      <trkpt lat="42.0448990" lon="-8.6446420">
        <ele>51.2</ele>
        <time>2019-06-21T11:50:10Z</time>
      </trkpt>
      <trkpt lat="42.0449090" lon="-8.6446520">
        <ele>51.6</ele>
        <time>2019-06-21T11:50:11Z</time>
      </trkpt>
      <trkpt lat="42.0449220" lon="-8.6446650">
        <ele>51.6</ele>
        <time>2019-06-21T11:50:12Z</time>
      </trkpt>
      <trkpt lat="42.0449550" lon="-8.6446980">
        <ele>52.2</ele>
        <time>2019-06-21T11:50:15Z</time>
      </trkpt>
      <trkpt lat="42.0449870" lon="-8.6447230">
        <ele>52.8</ele>
        <time>2019-06-21T11:50:18Z</time>
      </trkpt>
      <trkpt lat="42.0450290" lon="-8.6447480">
        <ele>53.8</ele>
        <time>2019-06-21T11:50:22Z</time>
      </trkpt>
      <trkpt lat="42.0450390" lon="-8.6447590">
        <ele>53.8</ele>
        <time>2019-06-21T11:50:23Z</time>
      </trkpt>
      <trkpt lat="42.0451410" lon="-8.6448350">
        <ele>54.8</ele>
        <time>2019-06-21T11:50:31Z</time>
      </trkpt>
      <trkpt lat="42.0451490" lon="-8.6448430">
        <ele>55.0</ele>
        <time>2019-06-21T11:50:32Z</time>
      </trkpt>
      <trkpt lat="42.0451980" lon="-8.6449190">
        <ele>55.8</ele>
        <time>2019-06-21T11:50:39Z</time>
      </trkpt>
      <trkpt lat="42.0452070" lon="-8.6449290">
        <ele>56.2</ele>
        <time>2019-06-21T11:50:40Z</time>
      </trkpt>
      <trkpt lat="42.0452980" lon="-8.6449910">
        <ele>57.2</ele>
        <time>2019-06-21T11:50:48Z</time>
      </trkpt>
      <trkpt lat="42.0454140" lon="-8.6450260">
        <ele>58.0</ele>
        <time>2019-06-21T11:50:55Z</time>
      </trkpt>
      <trkpt lat="42.0454470" lon="-8.6450650">
        <ele>58.4</ele>
        <time>2019-06-21T11:50:58Z</time>
      </trkpt>
      <trkpt lat="42.0455430" lon="-8.6451350">
        <ele>59.2</ele>
        <time>2019-06-21T11:51:05Z</time>
      </trkpt>
      <trkpt lat="42.0455500" lon="-8.6451480">
        <ele>59.4</ele>
        <time>2019-06-21T11:51:06Z</time>
      </trkpt>
      <trkpt lat="42.0456420" lon="-8.6452210">
        <ele>60.4</ele>
        <time>2019-06-21T11:51:13Z</time>
      </trkpt>
      <trkpt lat="42.0456570" lon="-8.6452300">
        <ele>60.6</ele>
        <time>2019-06-21T11:51:14Z</time>
      </trkpt>
      <trkpt lat="42.0457220" lon="-8.6452930">
        <ele>61.4</ele>
        <time>2019-06-21T11:51:21Z</time>
      </trkpt>
      <trkpt lat="42.0457830" lon="-8.6453310">
        <ele>62.6</ele>
        <time>2019-06-21T11:51:26Z</time>
      </trkpt>
      <trkpt lat="42.0457980" lon="-8.6453320">
        <ele>62.8</ele>
        <time>2019-06-21T11:51:27Z</time>
      </trkpt>
      <trkpt lat="42.0458990" lon="-8.6453600">
        <ele>63.8</ele>
        <time>2019-06-21T11:51:34Z</time>
      </trkpt>
      <trkpt lat="42.0459320" lon="-8.6453760">
        <ele>64.0</ele>
        <time>2019-06-21T11:51:36Z</time>
      </trkpt>
      <trkpt lat="42.0460190" lon="-8.6454190">
        <ele>64.8</ele>
        <time>2019-06-21T11:51:42Z</time>
      </trkpt>
      <trkpt lat="42.0460480" lon="-8.6454290">
        <ele>65.2</ele>
        <time>2019-06-21T11:51:45Z</time>
      </trkpt>
      <trkpt lat="42.0460580" lon="-8.6454310">
        <ele>65.4</ele>
        <time>2019-06-21T11:51:46Z</time>
      </trkpt>
      <trkpt lat="42.0460770" lon="-8.6454020">
        <ele>65.8</ele>
        <time>2019-06-21T11:51:49Z</time>
      </trkpt>
      <trkpt lat="42.0460860" lon="-8.6453860">
        <ele>66.0</ele>
        <time>2019-06-21T11:51:50Z</time>
      </trkpt>
      <trkpt lat="42.0461080" lon="-8.6453080">
        <ele>66.6</ele>
        <time>2019-06-21T11:51:54Z</time>
      </trkpt>
      <trkpt lat="42.0461100" lon="-8.6452680">
        <ele>66.6</ele>
        <time>2019-06-21T11:51:56Z</time>
      </trkpt>
      <trkpt lat="42.0461100" lon="-8.6452510">
        <ele>66.8</ele>
        <time>2019-06-21T11:51:57Z</time>
      </trkpt>
      <trkpt lat="42.0461290" lon="-8.6452150">
        <ele>67.0</ele>
        <time>2019-06-21T11:51:59Z</time>
      </trkpt>
      <trkpt lat="42.0461460" lon="-8.6451770">
        <ele>67.6</ele>
        <time>2019-06-21T11:52:03Z</time>
      </trkpt>
      <trkpt lat="42.0461740" lon="-8.6451240">
        <ele>68.2</ele>
        <time>2019-06-21T11:52:07Z</time>
      </trkpt>
      <trkpt lat="42.0461730" lon="-8.6450830">
        <ele>68.4</ele>
        <time>2019-06-21T11:52:09Z</time>
      </trkpt>
      <trkpt lat="42.0461650" lon="-8.6450750">
        <ele>68.4</ele>
        <time>2019-06-21T11:52:10Z</time>
      </trkpt>
      <trkpt lat="42.0461540" lon="-8.6450830">
        <ele>68.6</ele>
        <time>2019-06-21T11:52:12Z</time>
      </trkpt>
      <trkpt lat="42.0461320" lon="-8.6450730">
        <ele>68.8</ele>
        <time>2019-06-21T11:52:14Z</time>
      </trkpt>
      <trkpt lat="42.0461280" lon="-8.6450580">
        <ele>69.0</ele>
        <time>2019-06-21T11:52:21Z</time>
      </trkpt>
      <trkpt lat="42.0461280" lon="-8.6450580">
        <ele>69.2</ele>
        <time>2019-06-21T11:52:25Z</time>
      </trkpt>
      <trkpt lat="42.0461280" lon="-8.6450580">
        <ele>68.6</ele>
        <time>2019-06-21T11:52:34Z</time>
      </trkpt>
      <trkpt lat="42.0461280" lon="-8.6450580">
        <ele>69.6</ele>
        <time>2019-06-21T11:52:45Z</time>
      </trkpt>
      <trkpt lat="42.0461280" lon="-8.6450580">
        <ele>69.2</ele>
        <time>2019-06-21T11:52:50Z</time>
      </trkpt>
      <trkpt lat="42.0461280" lon="-8.6450580">
        <ele>69.0</ele>
        <time>2019-06-21T11:52:55Z</time>
      </trkpt>
      <trkpt lat="42.0461280" lon="-8.6450580">
        <ele>69.0</ele>
        <time>2019-06-21T11:52:57Z</time>
      </trkpt>
      <trkpt lat="42.0461270" lon="-8.6450570">
        <ele>70.4</ele>
        <time>2019-06-21T11:52:58Z</time>
      </trkpt>
      <trkpt lat="42.0461270" lon="-8.6450570">
        <ele>69.0</ele>
        <time>2019-06-21T11:53:00Z</time>
      </trkpt>
      <trkpt lat="42.0461270" lon="-8.6450570">
        <ele>69.2</ele>
        <time>2019-06-21T11:53:08Z</time>
      </trkpt>
      <trkpt lat="42.0461270" lon="-8.6450570">
        <ele>69.2</ele>
        <time>2019-06-21T11:53:09Z</time>
      </trkpt>
      <trkpt lat="42.0461270" lon="-8.6450570">
        <ele>69.0</ele>
        <time>2019-06-21T11:53:21Z</time>
      </trkpt>
      <trkpt lat="42.0461270" lon="-8.6450570">
        <ele>69.0</ele>
        <time>2019-06-21T11:53:24Z</time>
      </trkpt>
      <trkpt lat="42.0461270" lon="-8.6450570">
        <ele>69.2</ele>
        <time>2019-06-21T11:53:26Z</time>
      </trkpt>
      <trkpt lat="42.0461270" lon="-8.6450570">
        <ele>69.2</ele>
        <time>2019-06-21T11:53:32Z</time>
      </trkpt>
      <trkpt lat="42.0461270" lon="-8.6450570">
        <ele>69.2</ele>
        <time>2019-06-21T11:53:35Z</time>
      </trkpt>
      <trkpt lat="42.0461250" lon="-8.6450500">
        <ele>69.0</ele>
        <time>2019-06-21T11:53:47Z</time>
      </trkpt>
      <trkpt lat="42.0461250" lon="-8.6450500">
        <ele>69.0</ele>
        <time>2019-06-21T11:53:50Z</time>
      </trkpt>
      <trkpt lat="42.0461250" lon="-8.6450500">
        <ele>69.0</ele>
        <time>2019-06-21T11:53:54Z</time>
      </trkpt>
      <trkpt lat="42.0461250" lon="-8.6450500">
        <ele>69.2</ele>
        <time>2019-06-21T11:53:59Z</time>
      </trkpt>
      <trkpt lat="42.0461250" lon="-8.6450500">
        <ele>69.2</ele>
        <time>2019-06-21T11:54:00Z</time>
      </trkpt>
      <trkpt lat="42.0461250" lon="-8.6450500">
        <ele>69.0</ele>
        <time>2019-06-21T11:54:12Z</time>
      </trkpt>
      <trkpt lat="42.0461250" lon="-8.6450500">
        <ele>69.2</ele>
        <time>2019-06-21T11:54:16Z</time>
      </trkpt>
      <trkpt lat="42.0461300" lon="-8.6450470">
        <ele>69.2</ele>
        <time>2019-06-21T11:54:19Z</time>
      </trkpt>
      <trkpt lat="42.0461300" lon="-8.6450470">
        <ele>69.2</ele>
        <time>2019-06-21T11:54:41Z</time>
      </trkpt>
      <trkpt lat="42.0461300" lon="-8.6450470">
        <ele>69.4</ele>
        <time>2019-06-21T11:54:56Z</time>
      </trkpt>
      <trkpt lat="42.0461340" lon="-8.6450490">
        <ele>69.2</ele>
        <time>2019-06-21T11:55:16Z</time>
      </trkpt>
      <trkpt lat="42.0461340" lon="-8.6450490">
        <ele>69.2</ele>
        <time>2019-06-21T11:55:17Z</time>
      </trkpt>
      <trkpt lat="42.0461340" lon="-8.6450490">
        <ele>69.4</ele>
        <time>2019-06-21T11:55:18Z</time>
      </trkpt>
      <trkpt lat="42.0461340" lon="-8.6450490">
        <ele>69.2</ele>
        <time>2019-06-21T11:55:36Z</time>
      </trkpt>
      <trkpt lat="42.0461350" lon="-8.6450480">
        <ele>69.4</ele>
        <time>2019-06-21T11:55:51Z</time>
      </trkpt>
      <trkpt lat="42.0461350" lon="-8.6450480">
        <ele>69.4</ele>
        <time>2019-06-21T11:55:52Z</time>
      </trkpt>
      <trkpt lat="42.0461350" lon="-8.6450480">
        <ele>69.4</ele>
        <time>2019-06-21T11:55:53Z</time>
      </trkpt>
      <trkpt lat="42.0461350" lon="-8.6450480">
        <ele>69.4</ele>
        <time>2019-06-21T11:55:55Z</time>
      </trkpt>
      <trkpt lat="42.0461350" lon="-8.6450480">
        <ele>69.4</ele>
        <time>2019-06-21T11:55:58Z</time>
      </trkpt>
      <trkpt lat="42.0461350" lon="-8.6450480">
        <ele>69.4</ele>
        <time>2019-06-21T11:55:59Z</time>
      </trkpt>
      <trkpt lat="42.0461350" lon="-8.6450480">
        <ele>69.4</ele>
        <time>2019-06-21T11:56:05Z</time>
      </trkpt>
      <trkpt lat="42.0461390" lon="-8.6450470">
        <ele>69.4</ele>
        <time>2019-06-21T11:56:23Z</time>
      </trkpt>
      <trkpt lat="42.0461390" lon="-8.6450470">
        <ele>69.6</ele>
        <time>2019-06-21T11:56:40Z</time>
      </trkpt>
      <trkpt lat="42.0461390" lon="-8.6450470">
        <ele>69.4</ele>
        <time>2019-06-21T11:56:44Z</time>
      </trkpt>
      <trkpt lat="42.0461390" lon="-8.6450470">
        <ele>69.4</ele>
        <time>2019-06-21T11:56:54Z</time>
      </trkpt>
      <trkpt lat="42.0461400" lon="-8.6450450">
        <ele>69.6</ele>
        <time>2019-06-21T11:57:07Z</time>
      </trkpt>
      <trkpt lat="42.0461400" lon="-8.6450450">
        <ele>69.6</ele>
        <time>2019-06-21T11:57:09Z</time>
      </trkpt>
      <trkpt lat="42.0461400" lon="-8.6450450">
        <ele>69.8</ele>
        <time>2019-06-21T11:57:20Z</time>
      </trkpt>
      <trkpt lat="42.0461400" lon="-8.6450450">
        <ele>69.6</ele>
        <time>2019-06-21T11:57:26Z</time>
      </trkpt>
      <trkpt lat="42.0461400" lon="-8.6450450">
        <ele>69.8</ele>
        <time>2019-06-21T11:57:30Z</time>
      </trkpt>
      <trkpt lat="42.0461400" lon="-8.6450450">
        <ele>69.6</ele>
        <time>2019-06-21T11:57:35Z</time>
      </trkpt>
      <trkpt lat="42.0461410" lon="-8.6450450">
        <ele>69.6</ele>
        <time>2019-06-21T11:57:47Z</time>
      </trkpt>
      <trkpt lat="42.0461410" lon="-8.6450450">
        <ele>69.6</ele>
        <time>2019-06-21T11:57:49Z</time>
      </trkpt>
      <trkpt lat="42.0461480" lon="-8.6450410">
        <ele>69.6</ele>
        <time>2019-06-21T11:57:50Z</time>
      </trkpt>
      <trkpt lat="42.0461480" lon="-8.6450410">
        <ele>69.6</ele>
        <time>2019-06-21T11:57:54Z</time>
      </trkpt>
      <trkpt lat="42.0461480" lon="-8.6450410">
        <ele>69.6</ele>
        <time>2019-06-21T11:58:05Z</time>
      </trkpt>
      <trkpt lat="42.0461480" lon="-8.6450410">
        <ele>69.6</ele>
        <time>2019-06-21T11:58:11Z</time>
      </trkpt>
      <trkpt lat="42.0461480" lon="-8.6450410">
        <ele>69.6</ele>
        <time>2019-06-21T11:58:15Z</time>
      </trkpt>
      <trkpt lat="42.0461480" lon="-8.6450410">
        <ele>69.6</ele>
        <time>2019-06-21T11:58:17Z</time>
      </trkpt>
      <trkpt lat="42.0461480" lon="-8.6450410">
        <ele>69.6</ele>
        <time>2019-06-21T11:58:18Z</time>
      </trkpt>
      <trkpt lat="42.0461480" lon="-8.6450410">
        <ele>69.6</ele>
        <time>2019-06-21T11:58:29Z</time>
      </trkpt>
      <trkpt lat="42.0461490" lon="-8.6450410">
        <ele>69.6</ele>
        <time>2019-06-21T11:58:32Z</time>
      </trkpt>
      <trkpt lat="42.0461490" lon="-8.6450410">
        <ele>69.6</ele>
        <time>2019-06-21T11:58:38Z</time>
      </trkpt>
      <trkpt lat="42.0461490" lon="-8.6450410">
        <ele>69.6</ele>
        <time>2019-06-21T11:58:46Z</time>
      </trkpt>
      <trkpt lat="42.0461490" lon="-8.6450410">
        <ele>69.4</ele>
        <time>2019-06-21T11:59:00Z</time>
      </trkpt>
      <trkpt lat="42.0461490" lon="-8.6450410">
        <ele>69.4</ele>
        <time>2019-06-21T11:59:08Z</time>
      </trkpt>
      <trkpt lat="42.0461510" lon="-8.6450370">
        <ele>69.4</ele>
        <time>2019-06-21T11:59:14Z</time>
      </trkpt>
      <trkpt lat="42.0461510" lon="-8.6450370">
        <ele>69.6</ele>
        <time>2019-06-21T11:59:25Z</time>
      </trkpt>
      <trkpt lat="42.0461510" lon="-8.6450370">
        <ele>69.4</ele>
        <time>2019-06-21T11:59:29Z</time>
      </trkpt>
      <trkpt lat="42.0461510" lon="-8.6450370">
        <ele>69.6</ele>
        <time>2019-06-21T11:59:44Z</time>
      </trkpt>
      <trkpt lat="42.0461510" lon="-8.6450370">
        <ele>69.6</ele>
        <time>2019-06-21T11:59:47Z</time>
      </trkpt>
      <trkpt lat="42.0461540" lon="-8.6450350">
        <ele>69.6</ele>
        <time>2019-06-21T12:00:01Z</time>
      </trkpt>
      <trkpt lat="42.0461540" lon="-8.6450350">
        <ele>69.6</ele>
        <time>2019-06-21T12:00:02Z</time>
      </trkpt>
      <trkpt lat="42.0461540" lon="-8.6450350">
        <ele>69.2</ele>
        <time>2019-06-21T12:00:15Z</time>
      </trkpt>
      <trkpt lat="42.0461630" lon="-8.6450350">
        <ele>69.4</ele>
        <time>2019-06-21T12:00:23Z</time>
      </trkpt>
      <trkpt lat="42.0461860" lon="-8.6450310">
        <ele>69.4</ele>
        <time>2019-06-21T12:00:24Z</time>
      </trkpt>
      <trkpt lat="42.0462340" lon="-8.6450550">
        <ele>69.2</ele>
        <time>2019-06-21T12:00:29Z</time>
      </trkpt>
      <trkpt lat="42.0462840" lon="-8.6450070">
        <ele>69.4</ele>
        <time>2019-06-21T12:00:34Z</time>
      </trkpt>
      <trkpt lat="42.0462890" lon="-8.6449930">
        <ele>69.4</ele>
        <time>2019-06-21T12:00:35Z</time>
      </trkpt>
      <trkpt lat="42.0462980" lon="-8.6449820">
        <ele>69.4</ele>
        <time>2019-06-21T12:00:36Z</time>
      </trkpt>
      <trkpt lat="42.0463310" lon="-8.6449430">
        <ele>69.4</ele>
        <time>2019-06-21T12:00:42Z</time>
      </trkpt>
      <trkpt lat="42.0464150" lon="-8.6448910">
        <ele>69.8</ele>
        <time>2019-06-21T12:00:49Z</time>
      </trkpt>
      <trkpt lat="42.0465340" lon="-8.6447880">
        <ele>69.4</ele>
        <time>2019-06-21T12:00:58Z</time>
      </trkpt>
      <trkpt lat="42.0466350" lon="-8.6446790">
        <ele>68.6</ele>
        <time>2019-06-21T12:01:05Z</time>
      </trkpt>
      <trkpt lat="42.0467140" lon="-8.6445910">
        <ele>68.2</ele>
        <time>2019-06-21T12:01:09Z</time>
      </trkpt>
      <trkpt lat="42.0467410" lon="-8.6445530">
        <ele>68.0</ele>
        <time>2019-06-21T12:01:10Z</time>
      </trkpt>
      <trkpt lat="42.0467400" lon="-8.6444730">
        <ele>68.6</ele>
        <time>2019-06-21T12:01:14Z</time>
      </trkpt>
      <trkpt lat="42.0467330" lon="-8.6444590">
        <ele>68.8</ele>
        <time>2019-06-21T12:01:15Z</time>
      </trkpt>
      <trkpt lat="42.0467360" lon="-8.6444440">
        <ele>69.0</ele>
        <time>2019-06-21T12:01:17Z</time>
      </trkpt>
      <trkpt lat="42.0467450" lon="-8.6444320">
        <ele>69.2</ele>
        <time>2019-06-21T12:01:18Z</time>
      </trkpt>
      <trkpt lat="42.0468670" lon="-8.6443220">
        <ele>69.4</ele>
        <time>2019-06-21T12:01:27Z</time>
      </trkpt>
      <trkpt lat="42.0468930" lon="-8.6442970">
        <ele>69.6</ele>
        <time>2019-06-21T12:01:33Z</time>
      </trkpt>
      <trkpt lat="42.0468710" lon="-8.6442750">
        <ele>69.4</ele>
        <time>2019-06-21T12:01:37Z</time>
      </trkpt>
      <trkpt lat="42.0468570" lon="-8.6442490">
        <ele>69.6</ele>
        <time>2019-06-21T12:01:38Z</time>
      </trkpt>
      <trkpt lat="42.0468340" lon="-8.6440980">
        <ele>70.0</ele>
        <time>2019-06-21T12:01:44Z</time>
      </trkpt>
      <trkpt lat="42.0468440" lon="-8.6440870">
        <ele>70.0</ele>
        <time>2019-06-21T12:01:45Z</time>
      </trkpt>
      <trkpt lat="42.0468870" lon="-8.6440140">
        <ele>69.8</ele>
        <time>2019-06-21T12:01:50Z</time>
      </trkpt>
      <trkpt lat="42.0469400" lon="-8.6439580">
        <ele>69.6</ele>
        <time>2019-06-21T12:01:55Z</time>
      </trkpt>
      <trkpt lat="42.0469860" lon="-8.6439160">
        <ele>69.6</ele>
        <time>2019-06-21T12:01:57Z</time>
      </trkpt>
      <trkpt lat="42.0470580" lon="-8.6438550">
        <ele>69.2</ele>
        <time>2019-06-21T12:02:00Z</time>
      </trkpt>
      <trkpt lat="42.0470810" lon="-8.6438310">
        <ele>69.0</ele>
        <time>2019-06-21T12:02:01Z</time>
      </trkpt>
      <trkpt lat="42.0471260" lon="-8.6437950">
        <ele>68.6</ele>
        <time>2019-06-21T12:02:03Z</time>
      </trkpt>
      <trkpt lat="42.0471460" lon="-8.6437780">
        <ele>68.4</ele>
        <time>2019-06-21T12:02:04Z</time>
      </trkpt>
      <trkpt lat="42.0471770" lon="-8.6437550">
        <ele>68.0</ele>
        <time>2019-06-21T12:02:08Z</time>
      </trkpt>
      <trkpt lat="42.0471770" lon="-8.6437550">
        <ele>67.8</ele>
        <time>2019-06-21T12:02:09Z</time>
      </trkpt>
      <trkpt lat="42.0471770" lon="-8.6437550">
        <ele>68.0</ele>
        <time>2019-06-21T12:02:19Z</time>
      </trkpt>
      <trkpt lat="42.0471770" lon="-8.6437550">
        <ele>67.8</ele>
        <time>2019-06-21T12:02:26Z</time>
      </trkpt>
      <trkpt lat="42.0471770" lon="-8.6437550">
        <ele>67.8</ele>
        <time>2019-06-21T12:02:30Z</time>
      </trkpt>
      <trkpt lat="42.0471840" lon="-8.6437470">
        <ele>68.0</ele>
        <time>2019-06-21T12:02:33Z</time>
      </trkpt>
      <trkpt lat="42.0472080" lon="-8.6437300">
        <ele>67.4</ele>
        <time>2019-06-21T12:02:36Z</time>
      </trkpt>
      <trkpt lat="42.0472560" lon="-8.6436890">
        <ele>67.2</ele>
        <time>2019-06-21T12:02:43Z</time>
      </trkpt>
      <trkpt lat="42.0472650" lon="-8.6436720">
        <ele>67.4</ele>
        <time>2019-06-21T12:02:51Z</time>
      </trkpt>
      <trkpt lat="42.0472740" lon="-8.6436510">
        <ele>66.8</ele>
        <time>2019-06-21T12:02:57Z</time>
      </trkpt>
      <trkpt lat="42.0472800" lon="-8.6436330">
        <ele>65.6</ele>
        <time>2019-06-21T12:03:01Z</time>
      </trkpt>
      <trkpt lat="42.0472800" lon="-8.6436330">
        <ele>64.8</ele>
        <time>2019-06-21T12:03:06Z</time>
      </trkpt>
      <trkpt lat="42.0472800" lon="-8.6436330">
        <ele>64.4</ele>
        <time>2019-06-21T12:03:08Z</time>
      </trkpt>
      <trkpt lat="42.0472800" lon="-8.6436330">
        <ele>64.4</ele>
        <time>2019-06-21T12:03:09Z</time>
      </trkpt>
      <trkpt lat="42.0472960" lon="-8.6435110">
        <ele>64.2</ele>
        <time>2019-06-21T12:03:11Z</time>
      </trkpt>
      <trkpt lat="42.0473140" lon="-8.6434870">
        <ele>63.8</ele>
        <time>2019-06-21T12:03:17Z</time>
      </trkpt>
      <trkpt lat="42.0472860" lon="-8.6434700">
        <ele>63.4</ele>
        <time>2019-06-21T12:03:21Z</time>
      </trkpt>
      <trkpt lat="42.0472860" lon="-8.6434700">
        <ele>63.2</ele>
        <time>2019-06-21T12:03:24Z</time>
      </trkpt>
      <trkpt lat="42.0473070" lon="-8.6434640">
        <ele>62.4</ele>
        <time>2019-06-21T12:03:31Z</time>
      </trkpt>
      <trkpt lat="42.0473130" lon="-8.6434620">
        <ele>62.4</ele>
        <time>2019-06-21T12:03:32Z</time>
      </trkpt>
      <trkpt lat="42.0473390" lon="-8.6434550">
        <ele>62.2</ele>
        <time>2019-06-21T12:03:33Z</time>
      </trkpt>
      <trkpt lat="42.0474030" lon="-8.6434290">
        <ele>61.4</ele>
        <time>2019-06-21T12:03:37Z</time>
      </trkpt>
      <trkpt lat="42.0474160" lon="-8.6434200">
        <ele>61.2</ele>
        <time>2019-06-21T12:03:38Z</time>
      </trkpt>
      <trkpt lat="42.0474190" lon="-8.6434120">
        <ele>61.0</ele>
        <time>2019-06-21T12:03:43Z</time>
      </trkpt>
      <trkpt lat="42.0474510" lon="-8.6433900">
        <ele>60.6</ele>
        <time>2019-06-21T12:03:50Z</time>
      </trkpt>
      <trkpt lat="42.0474690" lon="-8.6433680">
        <ele>59.8</ele>
        <time>2019-06-21T12:03:52Z</time>
      </trkpt>
      <trkpt lat="42.0474780" lon="-8.6433530">
        <ele>59.4</ele>
        <time>2019-06-21T12:03:53Z</time>
      </trkpt>
      <trkpt lat="42.0475070" lon="-8.6433110">
        <ele>59.0</ele>
        <time>2019-06-21T12:03:57Z</time>
      </trkpt>
      <trkpt lat="42.0475230" lon="-8.6432840">
        <ele>58.6</ele>
        <time>2019-06-21T12:03:59Z</time>
      </trkpt>
      <trkpt lat="42.0475430" lon="-8.6432460">
        <ele>58.0</ele>
        <time>2019-06-21T12:04:01Z</time>
      </trkpt>
      <trkpt lat="42.0475420" lon="-8.6432410">
        <ele>58.0</ele>
        <time>2019-06-21T12:04:03Z</time>
      </trkpt>
      <trkpt lat="42.0475440" lon="-8.6432240">
        <ele>57.4</ele>
        <time>2019-06-21T12:04:05Z</time>
      </trkpt>
      <trkpt lat="42.0475390" lon="-8.6431990">
        <ele>56.6</ele>
        <time>2019-06-21T12:04:09Z</time>
      </trkpt>
      <trkpt lat="42.0475250" lon="-8.6431850">
        <ele>56.4</ele>
        <time>2019-06-21T12:04:14Z</time>
      </trkpt>
      <trkpt lat="42.0474970" lon="-8.6431420">
        <ele>55.6</ele>
        <time>2019-06-21T12:04:17Z</time>
      </trkpt>
      <trkpt lat="42.0474940" lon="-8.6431330">
        <ele>55.2</ele>
        <time>2019-06-21T12:04:19Z</time>
      </trkpt>
      <trkpt lat="42.0474890" lon="-8.6430800">
        <ele>54.6</ele>
        <time>2019-06-21T12:04:22Z</time>
      </trkpt>
      <trkpt lat="42.0474760" lon="-8.6430680">
        <ele>54.4</ele>
        <time>2019-06-21T12:04:23Z</time>
      </trkpt>
      <trkpt lat="42.0474830" lon="-8.6430740">
        <ele>54.0</ele>
        <time>2019-06-21T12:04:24Z</time>
      </trkpt>
      <trkpt lat="42.0474760" lon="-8.6430390">
        <ele>53.4</ele>
        <time>2019-06-21T12:04:27Z</time>
      </trkpt>
      <trkpt lat="42.0474790" lon="-8.6430090">
        <ele>53.4</ele>
        <time>2019-06-21T12:04:28Z</time>
      </trkpt>
      <trkpt lat="42.0474670" lon="-8.6428560">
        <ele>52.8</ele>
        <time>2019-06-21T12:04:32Z</time>
      </trkpt>
      <trkpt lat="42.0474450" lon="-8.6427550">
        <ele>51.8</ele>
        <time>2019-06-21T12:04:34Z</time>
      </trkpt>
      <trkpt lat="42.0474270" lon="-8.6426680">
        <ele>50.2</ele>
        <time>2019-06-21T12:04:36Z</time>
      </trkpt>
      <trkpt lat="42.0474030" lon="-8.6425950">
        <ele>49.0</ele>
        <time>2019-06-21T12:04:38Z</time>
      </trkpt>
      <trkpt lat="42.0473610" lon="-8.6424770">
        <ele>48.0</ele>
        <time>2019-06-21T12:04:41Z</time>
      </trkpt>
      <trkpt lat="42.0473370" lon="-8.6423900">
        <ele>46.8</ele>
        <time>2019-06-21T12:04:43Z</time>
      </trkpt>
      <trkpt lat="42.0472840" lon="-8.6422540">
        <ele>45.4</ele>
        <time>2019-06-21T12:04:46Z</time>
      </trkpt>
      <trkpt lat="42.0472640" lon="-8.6422110">
        <ele>45.2</ele>
        <time>2019-06-21T12:04:47Z</time>
      </trkpt>
      <trkpt lat="42.0472090" lon="-8.6421490">
        <ele>44.2</ele>
        <time>2019-06-21T12:04:49Z</time>
      </trkpt>
      <trkpt lat="42.0471980" lon="-8.6421140">
        <ele>44.0</ele>
        <time>2019-06-21T12:04:50Z</time>
      </trkpt>
      <trkpt lat="42.0472010" lon="-8.6420960">
        <ele>43.8</ele>
        <time>2019-06-21T12:04:51Z</time>
      </trkpt>
      <trkpt lat="42.0472510" lon="-8.6420610">
        <ele>43.6</ele>
        <time>2019-06-21T12:04:54Z</time>
      </trkpt>
      <trkpt lat="42.0472840" lon="-8.6420510">
        <ele>43.4</ele>
        <time>2019-06-21T12:04:55Z</time>
      </trkpt>
      <trkpt lat="42.0473120" lon="-8.6420400">
        <ele>43.4</ele>
        <time>2019-06-21T12:04:56Z</time>
      </trkpt>
      <trkpt lat="42.0473400" lon="-8.6420240">
        <ele>43.0</ele>
        <time>2019-06-21T12:04:57Z</time>
      </trkpt>
      <trkpt lat="42.0474250" lon="-8.6419510">
        <ele>41.6</ele>
        <time>2019-06-21T12:05:00Z</time>
      </trkpt>
      <trkpt lat="42.0474840" lon="-8.6419070">
        <ele>41.2</ele>
        <time>2019-06-21T12:05:02Z</time>
      </trkpt>
      <trkpt lat="42.0475420" lon="-8.6418540">
        <ele>40.6</ele>
        <time>2019-06-21T12:05:04Z</time>
      </trkpt>
      <trkpt lat="42.0476130" lon="-8.6417750">
        <ele>39.4</ele>
        <time>2019-06-21T12:05:07Z</time>
      </trkpt>
      <trkpt lat="42.0476840" lon="-8.6417110">
        <ele>38.6</ele>
        <time>2019-06-21T12:05:10Z</time>
      </trkpt>
      <trkpt lat="42.0476930" lon="-8.6416720">
        <ele>38.4</ele>
        <time>2019-06-21T12:05:11Z</time>
      </trkpt>
      <trkpt lat="42.0477040" lon="-8.6415930">
        <ele>37.6</ele>
        <time>2019-06-21T12:05:14Z</time>
      </trkpt>
      <trkpt lat="42.0477050" lon="-8.6415860">
        <ele>37.6</ele>
        <time>2019-06-21T12:05:19Z</time>
      </trkpt>
      <trkpt lat="42.0477050" lon="-8.6415860">
        <ele>37.4</ele>
        <time>2019-06-21T12:05:24Z</time>
      </trkpt>
      <trkpt lat="42.0477050" lon="-8.6415860">
        <ele>37.4</ele>
        <time>2019-06-21T12:05:26Z</time>
      </trkpt>
      <trkpt lat="42.0477050" lon="-8.6415860">
        <ele>37.6</ele>
        <time>2019-06-21T12:05:35Z</time>
      </trkpt>
      <trkpt lat="42.0477050" lon="-8.6415860">
        <ele>37.4</ele>
        <time>2019-06-21T12:05:38Z</time>
      </trkpt>
      <trkpt lat="42.0477050" lon="-8.6415860">
        <ele>37.4</ele>
        <time>2019-06-21T12:05:40Z</time>
      </trkpt>
      <trkpt lat="42.0477050" lon="-8.6415860">
        <ele>37.4</ele>
        <time>2019-06-21T12:05:47Z</time>
      </trkpt>
      <trkpt lat="42.0477050" lon="-8.6415860">
        <ele>37.6</ele>
        <time>2019-06-21T12:05:52Z</time>
      </trkpt>
      <trkpt lat="42.0477050" lon="-8.6415860">
        <ele>37.6</ele>
        <time>2019-06-21T12:05:55Z</time>
      </trkpt>
      <trkpt lat="42.0477050" lon="-8.6415790">
        <ele>37.6</ele>
        <time>2019-06-21T12:05:57Z</time>
      </trkpt>
      <trkpt lat="42.0477030" lon="-8.6415930">
        <ele>37.8</ele>
        <time>2019-06-21T12:05:59Z</time>
      </trkpt>
      <trkpt lat="42.0477070" lon="-8.6416220">
        <ele>37.6</ele>
        <time>2019-06-21T12:06:02Z</time>
      </trkpt>
      <trkpt lat="42.0477080" lon="-8.6416360">
        <ele>37.8</ele>
        <time>2019-06-21T12:06:05Z</time>
      </trkpt>
      <trkpt lat="42.0477110" lon="-8.6416370">
        <ele>37.8</ele>
        <time>2019-06-21T12:06:08Z</time>
      </trkpt>
      <trkpt lat="42.0477140" lon="-8.6416310">
        <ele>38.0</ele>
        <time>2019-06-21T12:06:09Z</time>
      </trkpt>
      <trkpt lat="42.0477270" lon="-8.6416180">
        <ele>37.8</ele>
        <time>2019-06-21T12:06:12Z</time>
      </trkpt>
      <trkpt lat="42.0477650" lon="-8.6415760">
        <ele>37.8</ele>
        <time>2019-06-21T12:06:18Z</time>
      </trkpt>
      <trkpt lat="42.0478510" lon="-8.6415050">
        <ele>37.6</ele>
        <time>2019-06-21T12:06:23Z</time>
      </trkpt>
      <trkpt lat="42.0479140" lon="-8.6414520">
        <ele>37.2</ele>
        <time>2019-06-21T12:06:26Z</time>
      </trkpt>
      <trkpt lat="42.0479570" lon="-8.6414230">
        <ele>37.2</ele>
        <time>2019-06-21T12:06:28Z</time>
      </trkpt>
      <trkpt lat="42.0480270" lon="-8.6413640">
        <ele>37.2</ele>
        <time>2019-06-21T12:06:31Z</time>
      </trkpt>
      <trkpt lat="42.0480930" lon="-8.6413160">
        <ele>37.4</ele>
        <time>2019-06-21T12:06:34Z</time>
      </trkpt>
      <trkpt lat="42.0482290" lon="-8.6411980">
        <ele>37.8</ele>
        <time>2019-06-21T12:06:40Z</time>
      </trkpt>
      <trkpt lat="42.0483800" lon="-8.6410670">
        <ele>38.4</ele>
        <time>2019-06-21T12:06:46Z</time>
      </trkpt>
      <trkpt lat="42.0484450" lon="-8.6410060">
        <ele>38.8</ele>
        <time>2019-06-21T12:06:49Z</time>
      </trkpt>
      <trkpt lat="42.0485790" lon="-8.6409180">
        <ele>39.4</ele>
        <time>2019-06-21T12:06:55Z</time>
      </trkpt>
      <trkpt lat="42.0485970" lon="-8.6409100">
        <ele>39.6</ele>
        <time>2019-06-21T12:06:56Z</time>
      </trkpt>
      <trkpt lat="42.0486180" lon="-8.6408710">
        <ele>39.8</ele>
        <time>2019-06-21T12:06:58Z</time>
      </trkpt>
      <trkpt lat="42.0486360" lon="-8.6408430">
        <ele>40.0</ele>
        <time>2019-06-21T12:07:00Z</time>
      </trkpt>
      <trkpt lat="42.0486540" lon="-8.6408210">
        <ele>40.0</ele>
        <time>2019-06-21T12:07:01Z</time>
      </trkpt>
      <trkpt lat="42.0487210" lon="-8.6407890">
        <ele>40.0</ele>
        <time>2019-06-21T12:07:05Z</time>
      </trkpt>
      <trkpt lat="42.0487220" lon="-8.6407890">
        <ele>40.2</ele>
        <time>2019-06-21T12:07:07Z</time>
      </trkpt>
      <trkpt lat="42.0487220" lon="-8.6407890">
        <ele>40.2</ele>
        <time>2019-06-21T12:07:19Z</time>
      </trkpt>
      <trkpt lat="42.0487900" lon="-8.6407650">
        <ele>40.6</ele>
        <time>2019-06-21T12:07:25Z</time>
      </trkpt>
      <trkpt lat="42.0488860" lon="-8.6406880">
        <ele>40.8</ele>
        <time>2019-06-21T12:07:30Z</time>
      </trkpt>
      <trkpt lat="42.0490020" lon="-8.6406370">
        <ele>40.8</ele>
        <time>2019-06-21T12:07:36Z</time>
      </trkpt>
      <trkpt lat="42.0491580" lon="-8.6405590">
        <ele>41.2</ele>
        <time>2019-06-21T12:07:43Z</time>
      </trkpt>
      <trkpt lat="42.0492330" lon="-8.6405250">
        <ele>41.6</ele>
        <time>2019-06-21T12:07:46Z</time>
      </trkpt>
      <trkpt lat="42.0493280" lon="-8.6404940">
        <ele>41.8</ele>
        <time>2019-06-21T12:07:50Z</time>
      </trkpt>
      <trkpt lat="42.0494270" lon="-8.6404430">
        <ele>42.2</ele>
        <time>2019-06-21T12:07:55Z</time>
      </trkpt>
      <trkpt lat="42.0494930" lon="-8.6404200">
        <ele>42.6</ele>
        <time>2019-06-21T12:07:58Z</time>
      </trkpt>
      <trkpt lat="42.0495550" lon="-8.6403970">
        <ele>42.4</ele>
        <time>2019-06-21T12:08:00Z</time>
      </trkpt>
      <trkpt lat="42.0496920" lon="-8.6403330">
        <ele>42.6</ele>
        <time>2019-06-21T12:08:05Z</time>
      </trkpt>
      <trkpt lat="42.0497630" lon="-8.6402960">
        <ele>42.4</ele>
        <time>2019-06-21T12:08:07Z</time>
      </trkpt>
      <trkpt lat="42.0499980" lon="-8.6402080">
        <ele>43.0</ele>
        <time>2019-06-21T12:08:14Z</time>
      </trkpt>
      <trkpt lat="42.0500840" lon="-8.6401740">
        <ele>42.8</ele>
        <time>2019-06-21T12:08:18Z</time>
      </trkpt>
      <trkpt lat="42.0502010" lon="-8.6401440">
        <ele>42.8</ele>
        <time>2019-06-21T12:08:24Z</time>
      </trkpt>
      <trkpt lat="42.0502420" lon="-8.6401230">
        <ele>43.0</ele>
        <time>2019-06-21T12:08:26Z</time>
      </trkpt>
      <trkpt lat="42.0503310" lon="-8.6400640">
        <ele>43.2</ele>
        <time>2019-06-21T12:08:30Z</time>
      </trkpt>
      <trkpt lat="42.0505340" lon="-8.6399620">
        <ele>43.6</ele>
        <time>2019-06-21T12:08:37Z</time>
      </trkpt>
      <trkpt lat="42.0507330" lon="-8.6398570">
        <ele>43.6</ele>
        <time>2019-06-21T12:08:43Z</time>
      </trkpt>
      <trkpt lat="42.0510370" lon="-8.6397090">
        <ele>43.8</ele>
        <time>2019-06-21T12:08:51Z</time>
      </trkpt>
      <trkpt lat="42.0512440" lon="-8.6396280">
        <ele>43.8</ele>
        <time>2019-06-21T12:08:57Z</time>
      </trkpt>
      <trkpt lat="42.0512800" lon="-8.6396100">
        <ele>43.8</ele>
        <time>2019-06-21T12:08:58Z</time>
      </trkpt>
      <trkpt lat="42.0515010" lon="-8.6395820">
        <ele>44.0</ele>
        <time>2019-06-21T12:09:04Z</time>
      </trkpt>
      <trkpt lat="42.0516330" lon="-8.6395970">
        <ele>44.0</ele>
        <time>2019-06-21T12:09:08Z</time>
      </trkpt>
      <trkpt lat="42.0517510" lon="-8.6396430">
        <ele>44.0</ele>
        <time>2019-06-21T12:09:11Z</time>
      </trkpt>
      <trkpt lat="42.0519310" lon="-8.6398220">
        <ele>44.0</ele>
        <time>2019-06-21T12:09:16Z</time>
      </trkpt>
      <trkpt lat="42.0519650" lon="-8.6398660">
        <ele>43.8</ele>
        <time>2019-06-21T12:09:17Z</time>
      </trkpt>
      <trkpt lat="42.0519950" lon="-8.6399210">
        <ele>43.8</ele>
        <time>2019-06-21T12:09:18Z</time>
      </trkpt>
      <trkpt lat="42.0520560" lon="-8.6400990">
        <ele>43.6</ele>
        <time>2019-06-21T12:09:21Z</time>
      </trkpt>
      <trkpt lat="42.0520720" lon="-8.6401590">
        <ele>43.4</ele>
        <time>2019-06-21T12:09:22Z</time>
      </trkpt>
      <trkpt lat="42.0521250" lon="-8.6404610">
        <ele>43.2</ele>
        <time>2019-06-21T12:09:28Z</time>
      </trkpt>
      <trkpt lat="42.0521510" lon="-8.6404870">
        <ele>43.2</ele>
        <time>2019-06-21T12:09:30Z</time>
      </trkpt>
      <trkpt lat="42.0521950" lon="-8.6404690">
        <ele>43.2</ele>
        <time>2019-06-21T12:09:32Z</time>
      </trkpt>
      <trkpt lat="42.0522520" lon="-8.6404440">
        <ele>43.0</ele>
        <time>2019-06-21T12:09:34Z</time>
      </trkpt>
      <trkpt lat="42.0523590" lon="-8.6404130">
        <ele>43.0</ele>
        <time>2019-06-21T12:09:37Z</time>
      </trkpt>
      <trkpt lat="42.0526390" lon="-8.6403410">
        <ele>42.8</ele>
        <time>2019-06-21T12:09:43Z</time>
      </trkpt>
      <trkpt lat="42.0529580" lon="-8.6402470">
        <ele>42.6</ele>
        <time>2019-06-21T12:09:50Z</time>
      </trkpt>
      <trkpt lat="42.0530280" lon="-8.6402220">
        <ele>42.6</ele>
        <time>2019-06-21T12:09:52Z</time>
      </trkpt>
      <trkpt lat="42.0531410" lon="-8.6401720">
        <ele>42.6</ele>
        <time>2019-06-21T12:09:55Z</time>
      </trkpt>
      <trkpt lat="42.0534260" lon="-8.6400250">
        <ele>42.6</ele>
        <time>2019-06-21T12:10:02Z</time>
      </trkpt>
      <trkpt lat="42.0534590" lon="-8.6399750">
        <ele>42.4</ele>
        <time>2019-06-21T12:10:03Z</time>
      </trkpt>
      <trkpt lat="42.0535330" lon="-8.6398000">
        <ele>42.0</ele>
        <time>2019-06-21T12:10:06Z</time>
      </trkpt>
      <trkpt lat="42.0535590" lon="-8.6396340">
        <ele>41.8</ele>
        <time>2019-06-21T12:10:09Z</time>
      </trkpt>
      <trkpt lat="42.0535520" lon="-8.6395500">
        <ele>41.6</ele>
        <time>2019-06-21T12:10:11Z</time>
      </trkpt>
      <trkpt lat="42.0535100" lon="-8.6395070">
        <ele>41.4</ele>
        <time>2019-06-21T12:10:13Z</time>
      </trkpt>
      <trkpt lat="42.0534910" lon="-8.6394820">
        <ele>41.6</ele>
        <time>2019-06-21T12:10:14Z</time>
      </trkpt>
      <trkpt lat="42.0534210" lon="-8.6393570">
        <ele>41.4</ele>
        <time>2019-06-21T12:10:19Z</time>
      </trkpt>
      <trkpt lat="42.0533740" lon="-8.6393170">
        <ele>41.0</ele>
        <time>2019-06-21T12:10:22Z</time>
      </trkpt>
      <trkpt lat="42.0533640" lon="-8.6393200">
        <ele>41.0</ele>
        <time>2019-06-21T12:10:23Z</time>
      </trkpt>
      <trkpt lat="42.0533740" lon="-8.6393190">
        <ele>41.0</ele>
        <time>2019-06-21T12:10:24Z</time>
      </trkpt>
      <trkpt lat="42.0533250" lon="-8.6392770">
        <ele>41.0</ele>
        <time>2019-06-21T12:10:30Z</time>
      </trkpt>
      <trkpt lat="42.0532430" lon="-8.6391930">
        <ele>40.6</ele>
        <time>2019-06-21T12:10:34Z</time>
      </trkpt>
      <trkpt lat="42.0532290" lon="-8.6391790">
        <ele>40.4</ele>
        <time>2019-06-21T12:10:35Z</time>
      </trkpt>
      <trkpt lat="42.0532160" lon="-8.6391650">
        <ele>40.2</ele>
        <time>2019-06-21T12:10:36Z</time>
      </trkpt>
      <trkpt lat="42.0531400" lon="-8.6390460">
        <ele>39.4</ele>
        <time>2019-06-21T12:10:44Z</time>
      </trkpt>
      <trkpt lat="42.0531470" lon="-8.6390510">
        <ele>39.2</ele>
        <time>2019-06-21T12:10:45Z</time>
      </trkpt>
      <trkpt lat="42.0531410" lon="-8.6390450">
        <ele>39.2</ele>
        <time>2019-06-21T12:10:53Z</time>
      </trkpt>
      <trkpt lat="42.0531410" lon="-8.6390450">
        <ele>39.2</ele>
        <time>2019-06-21T12:11:05Z</time>
      </trkpt>
      <trkpt lat="42.0531410" lon="-8.6390450">
        <ele>39.2</ele>
        <time>2019-06-21T12:11:13Z</time>
      </trkpt>
      <trkpt lat="42.0531290" lon="-8.6390120">
        <ele>39.2</ele>
        <time>2019-06-21T12:11:18Z</time>
      </trkpt>
      <trkpt lat="42.0530650" lon="-8.6388420">
        <ele>38.2</ele>
        <time>2019-06-21T12:11:22Z</time>
      </trkpt>
      <trkpt lat="42.0530470" lon="-8.6387470">
        <ele>36.8</ele>
        <time>2019-06-21T12:11:24Z</time>
      </trkpt>
      <trkpt lat="42.0530480" lon="-8.6385580">
        <ele>35.0</ele>
        <time>2019-06-21T12:11:27Z</time>
      </trkpt>
      <trkpt lat="42.0530460" lon="-8.6384530">
        <ele>33.6</ele>
        <time>2019-06-21T12:11:29Z</time>
      </trkpt>
      <trkpt lat="42.0530540" lon="-8.6384110">
        <ele>33.0</ele>
        <time>2019-06-21T12:11:31Z</time>
      </trkpt>
      <trkpt lat="42.0530360" lon="-8.6383590">
        <ele>32.8</ele>
        <time>2019-06-21T12:11:34Z</time>
      </trkpt>
      <trkpt lat="42.0530400" lon="-8.6383750">
        <ele>32.6</ele>
        <time>2019-06-21T12:11:35Z</time>
      </trkpt>
      <trkpt lat="42.0530350" lon="-8.6383630">
        <ele>32.8</ele>
        <time>2019-06-21T12:11:36Z</time>
      </trkpt>
      <trkpt lat="42.0530350" lon="-8.6383630">
        <ele>32.8</ele>
        <time>2019-06-21T12:11:41Z</time>
      </trkpt>
      <trkpt lat="42.0530440" lon="-8.6384020">
        <ele>32.8</ele>
        <time>2019-06-21T12:11:45Z</time>
      </trkpt>
      <trkpt lat="42.0530350" lon="-8.6384940">
        <ele>33.2</ele>
        <time>2019-06-21T12:11:53Z</time>
      </trkpt>
      <trkpt lat="42.0530360" lon="-8.6384980">
        <ele>33.2</ele>
        <time>2019-06-21T12:12:02Z</time>
      </trkpt>
      <trkpt lat="42.0530360" lon="-8.6384980">
        <ele>33.2</ele>
        <time>2019-06-21T12:12:09Z</time>
      </trkpt>
      <trkpt lat="42.0530360" lon="-8.6384980">
        <ele>33.2</ele>
        <time>2019-06-21T12:12:15Z</time>
      </trkpt>
      <trkpt lat="42.0530360" lon="-8.6384980">
        <ele>33.2</ele>
        <time>2019-06-21T12:12:30Z</time>
      </trkpt>
      <trkpt lat="42.0530380" lon="-8.6385000">
        <ele>33.2</ele>
        <time>2019-06-21T12:12:39Z</time>
      </trkpt>
      <trkpt lat="42.0530380" lon="-8.6385000">
        <ele>33.2</ele>
        <time>2019-06-21T12:12:44Z</time>
      </trkpt>
      <trkpt lat="42.0530520" lon="-8.6384850">
        <ele>33.0</ele>
        <time>2019-06-21T12:12:50Z</time>
      </trkpt>
      <trkpt lat="42.0530490" lon="-8.6384720">
        <ele>33.0</ele>
        <time>2019-06-21T12:12:51Z</time>
      </trkpt>
      <trkpt lat="42.0530400" lon="-8.6384030">
        <ele>32.8</ele>
        <time>2019-06-21T12:12:55Z</time>
      </trkpt>
      <trkpt lat="42.0530530" lon="-8.6382210">
        <ele>32.6</ele>
        <time>2019-06-21T12:13:00Z</time>
      </trkpt>
      <trkpt lat="42.0530600" lon="-8.6381720">
        <ele>32.2</ele>
        <time>2019-06-21T12:13:01Z</time>
      </trkpt>
      <trkpt lat="42.0531160" lon="-8.6378800">
        <ele>31.4</ele>
        <time>2019-06-21T12:13:07Z</time>
      </trkpt>
      <trkpt lat="42.0531400" lon="-8.6377740">
        <ele>31.0</ele>
        <time>2019-06-21T12:13:09Z</time>
      </trkpt>
      <trkpt lat="42.0532870" lon="-8.6374410">
        <ele>31.0</ele>
        <time>2019-06-21T12:13:15Z</time>
      </trkpt>
      <trkpt lat="42.0533160" lon="-8.6373920">
        <ele>30.8</ele>
        <time>2019-06-21T12:13:16Z</time>
      </trkpt>
      <trkpt lat="42.0534200" lon="-8.6372600">
        <ele>30.6</ele>
        <time>2019-06-21T12:13:19Z</time>
      </trkpt>
      <trkpt lat="42.0535000" lon="-8.6371910">
        <ele>30.6</ele>
        <time>2019-06-21T12:13:21Z</time>
      </trkpt>
      <trkpt lat="42.0536160" lon="-8.6370210">
        <ele>30.4</ele>
        <time>2019-06-21T12:13:25Z</time>
      </trkpt>
      <trkpt lat="42.0536280" lon="-8.6368420">
        <ele>30.2</ele>
        <time>2019-06-21T12:13:28Z</time>
      </trkpt>
      <trkpt lat="42.0536590" lon="-8.6367940">
        <ele>30.0</ele>
        <time>2019-06-21T12:13:29Z</time>
      </trkpt>
      <trkpt lat="42.0537050" lon="-8.6367630">
        <ele>29.8</ele>
        <time>2019-06-21T12:13:30Z</time>
      </trkpt>
      <trkpt lat="42.0537820" lon="-8.6366960">
        <ele>29.2</ele>
        <time>2019-06-21T12:13:32Z</time>
      </trkpt>
      <trkpt lat="42.0538130" lon="-8.6366630">
        <ele>29.0</ele>
        <time>2019-06-21T12:13:33Z</time>
      </trkpt>
      <trkpt lat="42.0538980" lon="-8.6365760">
        <ele>29.2</ele>
        <time>2019-06-21T12:13:36Z</time>
      </trkpt>
      <trkpt lat="42.0540980" lon="-8.6364050">
        <ele>28.6</ele>
        <time>2019-06-21T12:13:43Z</time>
      </trkpt>
      <trkpt lat="42.0543260" lon="-8.6361600">
        <ele>28.8</ele>
        <time>2019-06-21T12:13:51Z</time>
      </trkpt>
      <trkpt lat="42.0545700" lon="-8.6360180">
        <ele>28.6</ele>
        <time>2019-06-21T12:13:58Z</time>
      </trkpt>
      <trkpt lat="42.0547200" lon="-8.6360160">
        <ele>29.2</ele>
        <time>2019-06-21T12:14:02Z</time>
      </trkpt>
      <trkpt lat="42.0548550" lon="-8.6360170">
        <ele>29.6</ele>
        <time>2019-06-21T12:14:06Z</time>
      </trkpt>
      <trkpt lat="42.0549230" lon="-8.6360240">
        <ele>30.4</ele>
        <time>2019-06-21T12:14:09Z</time>
      </trkpt>
      <trkpt lat="42.0549900" lon="-8.6360550">
        <ele>31.2</ele>
        <time>2019-06-21T12:14:12Z</time>
      </trkpt>
      <trkpt lat="42.0550590" lon="-8.6361090">
        <ele>31.6</ele>
        <time>2019-06-21T12:14:15Z</time>
      </trkpt>
      <trkpt lat="42.0551010" lon="-8.6361440">
        <ele>32.0</ele>
        <time>2019-06-21T12:14:17Z</time>
      </trkpt>
      <trkpt lat="42.0551390" lon="-8.6361800">
        <ele>32.6</ele>
        <time>2019-06-21T12:14:19Z</time>
      </trkpt>
      <trkpt lat="42.0551730" lon="-8.6362140">
        <ele>33.0</ele>
        <time>2019-06-21T12:14:21Z</time>
      </trkpt>
      <trkpt lat="42.0552090" lon="-8.6362180">
        <ele>33.0</ele>
        <time>2019-06-21T12:14:23Z</time>
      </trkpt>
      <trkpt lat="42.0552260" lon="-8.6361890">
        <ele>33.0</ele>
        <time>2019-06-21T12:14:24Z</time>
      </trkpt>
      <trkpt lat="42.0553700" lon="-8.6359410">
        <ele>32.2</ele>
        <time>2019-06-21T12:14:30Z</time>
      </trkpt>
      <trkpt lat="42.0554040" lon="-8.6358990">
        <ele>32.2</ele>
        <time>2019-06-21T12:14:31Z</time>
      </trkpt>
      <trkpt lat="42.0555110" lon="-8.6357740">
        <ele>31.6</ele>
        <time>2019-06-21T12:14:34Z</time>
      </trkpt>
      <trkpt lat="42.0556440" lon="-8.6355980">
        <ele>31.0</ele>
        <time>2019-06-21T12:14:38Z</time>
      </trkpt>
      <trkpt lat="42.0556800" lon="-8.6355580">
        <ele>31.0</ele>
        <time>2019-06-21T12:14:39Z</time>
      </trkpt>
      <trkpt lat="42.0559550" lon="-8.6352460">
        <ele>31.4</ele>
        <time>2019-06-21T12:14:47Z</time>
      </trkpt>
      <trkpt lat="42.0560790" lon="-8.6351400">
        <ele>32.6</ele>
        <time>2019-06-21T12:14:52Z</time>
      </trkpt>
      <trkpt lat="42.0561590" lon="-8.6350750">
        <ele>33.0</ele>
        <time>2019-06-21T12:14:56Z</time>
      </trkpt>
      <trkpt lat="42.0561920" lon="-8.6350720">
        <ele>32.8</ele>
        <time>2019-06-21T12:14:57Z</time>
      </trkpt>
      <trkpt lat="42.0563900" lon="-8.6350230">
        <ele>31.6</ele>
        <time>2019-06-21T12:15:02Z</time>
      </trkpt>
      <trkpt lat="42.0564270" lon="-8.6350190">
        <ele>31.0</ele>
        <time>2019-06-21T12:15:03Z</time>
      </trkpt>
      <trkpt lat="42.0564780" lon="-8.6350250">
        <ele>30.6</ele>
        <time>2019-06-21T12:15:05Z</time>
      </trkpt>
      <trkpt lat="42.0564770" lon="-8.6350250">
        <ele>30.4</ele>
        <time>2019-06-21T12:15:06Z</time>
      </trkpt>
      <trkpt lat="42.0564930" lon="-8.6350410">
        <ele>30.2</ele>
        <time>2019-06-21T12:15:12Z</time>
      </trkpt>
      <trkpt lat="42.0564930" lon="-8.6350410">
        <ele>30.2</ele>
        <time>2019-06-21T12:15:13Z</time>
      </trkpt>
      <trkpt lat="42.0564930" lon="-8.6350410">
        <ele>30.2</ele>
        <time>2019-06-21T12:15:17Z</time>
      </trkpt>
      <trkpt lat="42.0564930" lon="-8.6350410">
        <ele>30.2</ele>
        <time>2019-06-21T12:15:24Z</time>
      </trkpt>
      <trkpt lat="42.0564930" lon="-8.6350410">
        <ele>30.2</ele>
        <time>2019-06-21T12:15:27Z</time>
      </trkpt>
      <trkpt lat="42.0564930" lon="-8.6350410">
        <ele>30.2</ele>
        <time>2019-06-21T12:15:30Z</time>
      </trkpt>
      <trkpt lat="42.0564930" lon="-8.6350410">
        <ele>30.2</ele>
        <time>2019-06-21T12:15:33Z</time>
      </trkpt>
      <trkpt lat="42.0564930" lon="-8.6350410">
        <ele>30.2</ele>
        <time>2019-06-21T12:15:41Z</time>
      </trkpt>
      <trkpt lat="42.0564920" lon="-8.6350400">
        <ele>30.2</ele>
        <time>2019-06-21T12:15:54Z</time>
      </trkpt>
      <trkpt lat="42.0564920" lon="-8.6350400">
        <ele>30.0</ele>
        <time>2019-06-21T12:16:05Z</time>
      </trkpt>
      <trkpt lat="42.0564920" lon="-8.6350400">
        <ele>30.2</ele>
        <time>2019-06-21T12:16:06Z</time>
      </trkpt>
      <trkpt lat="42.0564920" lon="-8.6350400">
        <ele>30.2</ele>
        <time>2019-06-21T12:16:14Z</time>
      </trkpt>
      <trkpt lat="42.0564920" lon="-8.6350400">
        <ele>30.4</ele>
        <time>2019-06-21T12:16:21Z</time>
      </trkpt>
      <trkpt lat="42.0564890" lon="-8.6350330">
        <ele>30.2</ele>
        <time>2019-06-21T12:16:38Z</time>
      </trkpt>
      <trkpt lat="42.0564890" lon="-8.6350330">
        <ele>30.4</ele>
        <time>2019-06-21T12:16:47Z</time>
      </trkpt>
      <trkpt lat="42.0564890" lon="-8.6350330">
        <ele>30.6</ele>
        <time>2019-06-21T12:16:50Z</time>
      </trkpt>
      <trkpt lat="42.0564890" lon="-8.6350330">
        <ele>30.2</ele>
        <time>2019-06-21T12:16:53Z</time>
      </trkpt>
      <trkpt lat="42.0564890" lon="-8.6350330">
        <ele>30.2</ele>
        <time>2019-06-21T12:17:09Z</time>
      </trkpt>
      <trkpt lat="42.0564880" lon="-8.6350300">
        <ele>30.4</ele>
        <time>2019-06-21T12:17:14Z</time>
      </trkpt>
      <trkpt lat="42.0564880" lon="-8.6350300">
        <ele>30.4</ele>
        <time>2019-06-21T12:17:21Z</time>
      </trkpt>
      <trkpt lat="42.0564880" lon="-8.6350300">
        <ele>30.4</ele>
        <time>2019-06-21T12:17:31Z</time>
      </trkpt>
      <trkpt lat="42.0564880" lon="-8.6350300">
        <ele>30.4</ele>
        <time>2019-06-21T12:17:41Z</time>
      </trkpt>
      <trkpt lat="42.0564850" lon="-8.6350500">
        <ele>30.4</ele>
        <time>2019-06-21T12:17:54Z</time>
      </trkpt>
      <trkpt lat="42.0564850" lon="-8.6350500">
        <ele>30.4</ele>
        <time>2019-06-21T12:18:05Z</time>
      </trkpt>
      <trkpt lat="42.0564850" lon="-8.6350500">
        <ele>30.4</ele>
        <time>2019-06-21T12:18:11Z</time>
      </trkpt>
      <trkpt lat="42.0564850" lon="-8.6350500">
        <ele>30.4</ele>
        <time>2019-06-21T12:18:12Z</time>
      </trkpt>
      <trkpt lat="42.0564850" lon="-8.6350500">
        <ele>30.2</ele>
        <time>2019-06-21T12:18:17Z</time>
      </trkpt>
      <trkpt lat="42.0564850" lon="-8.6350500">
        <ele>30.2</ele>
        <time>2019-06-21T12:18:20Z</time>
      </trkpt>
      <trkpt lat="42.0564850" lon="-8.6350500">
        <ele>30.2</ele>
        <time>2019-06-21T12:18:22Z</time>
      </trkpt>
      <trkpt lat="42.0564850" lon="-8.6350500">
        <ele>30.2</ele>
        <time>2019-06-21T12:18:24Z</time>
      </trkpt>
      <trkpt lat="42.0564850" lon="-8.6350500">
        <ele>30.2</ele>
        <time>2019-06-21T12:18:26Z</time>
      </trkpt>
      <trkpt lat="42.0564850" lon="-8.6350500">
        <ele>30.2</ele>
        <time>2019-06-21T12:18:34Z</time>
      </trkpt>
      <trkpt lat="42.0564850" lon="-8.6350500">
        <ele>30.4</ele>
        <time>2019-06-21T12:18:46Z</time>
      </trkpt>
      <trkpt lat="42.0564850" lon="-8.6350500">
        <ele>30.2</ele>
        <time>2019-06-21T12:18:52Z</time>
      </trkpt>
      <trkpt lat="42.0564850" lon="-8.6350500">
        <ele>30.4</ele>
        <time>2019-06-21T12:18:53Z</time>
      </trkpt>
      <trkpt lat="42.0564850" lon="-8.6350500">
        <ele>30.4</ele>
        <time>2019-06-21T12:19:02Z</time>
      </trkpt>
      <trkpt lat="42.0564850" lon="-8.6350500">
        <ele>30.4</ele>
        <time>2019-06-21T12:19:07Z</time>
      </trkpt>
      <trkpt lat="42.0564850" lon="-8.6350450">
        <ele>30.4</ele>
        <time>2019-06-21T12:19:20Z</time>
      </trkpt>
      <trkpt lat="42.0564850" lon="-8.6350450">
        <ele>30.4</ele>
        <time>2019-06-21T12:19:32Z</time>
      </trkpt>
      <trkpt lat="42.0564870" lon="-8.6350440">
        <ele>30.2</ele>
        <time>2019-06-21T12:19:51Z</time>
      </trkpt>
      <trkpt lat="42.0564870" lon="-8.6350440">
        <ele>30.4</ele>
        <time>2019-06-21T12:19:59Z</time>
      </trkpt>
      <trkpt lat="42.0564870" lon="-8.6350440">
        <ele>30.4</ele>
        <time>2019-06-21T12:20:10Z</time>
      </trkpt>
      <trkpt lat="42.0564870" lon="-8.6350440">
        <ele>30.6</ele>
        <time>2019-06-21T12:20:19Z</time>
      </trkpt>
      <trkpt lat="42.0564870" lon="-8.6350440">
        <ele>30.6</ele>
        <time>2019-06-21T12:20:25Z</time>
      </trkpt>
      <trkpt lat="42.0564870" lon="-8.6350440">
        <ele>30.6</ele>
        <time>2019-06-21T12:20:29Z</time>
      </trkpt>
      <trkpt lat="42.0564850" lon="-8.6350450">
        <ele>30.4</ele>
        <time>2019-06-21T12:20:37Z</time>
      </trkpt>
      <trkpt lat="42.0564850" lon="-8.6350450">
        <ele>30.6</ele>
        <time>2019-06-21T12:20:41Z</time>
      </trkpt>
      <trkpt lat="42.0564850" lon="-8.6350450">
        <ele>30.4</ele>
        <time>2019-06-21T12:20:56Z</time>
      </trkpt>
      <trkpt lat="42.0564770" lon="-8.6350410">
        <ele>30.4</ele>
        <time>2019-06-21T12:21:17Z</time>
      </trkpt>
      <trkpt lat="42.0564770" lon="-8.6350410">
        <ele>30.6</ele>
        <time>2019-06-21T12:21:28Z</time>
      </trkpt>
      <trkpt lat="42.0564770" lon="-8.6350410">
        <ele>30.4</ele>
        <time>2019-06-21T12:21:36Z</time>
      </trkpt>
      <trkpt lat="42.0564770" lon="-8.6350410">
        <ele>30.4</ele>
        <time>2019-06-21T12:21:42Z</time>
      </trkpt>
      <trkpt lat="42.0564770" lon="-8.6350420">
        <ele>30.6</ele>
        <time>2019-06-21T12:22:02Z</time>
      </trkpt>
      <trkpt lat="42.0564770" lon="-8.6350420">
        <ele>30.6</ele>
        <time>2019-06-21T12:22:03Z</time>
      </trkpt>
      <trkpt lat="42.0564770" lon="-8.6350420">
        <ele>30.4</ele>
        <time>2019-06-21T12:22:12Z</time>
      </trkpt>
      <trkpt lat="42.0564770" lon="-8.6350420">
        <ele>30.6</ele>
        <time>2019-06-21T12:22:14Z</time>
      </trkpt>
      <trkpt lat="42.0564770" lon="-8.6350420">
        <ele>30.6</ele>
        <time>2019-06-21T12:22:16Z</time>
      </trkpt>
      <trkpt lat="42.0564770" lon="-8.6350420">
        <ele>30.6</ele>
        <time>2019-06-21T12:22:18Z</time>
      </trkpt>
      <trkpt lat="42.0564770" lon="-8.6350420">
        <ele>30.6</ele>
        <time>2019-06-21T12:22:20Z</time>
      </trkpt>
      <trkpt lat="42.0564770" lon="-8.6350420">
        <ele>30.6</ele>
        <time>2019-06-21T12:22:21Z</time>
      </trkpt>
      <trkpt lat="42.0564770" lon="-8.6350420">
        <ele>30.6</ele>
        <time>2019-06-21T12:22:22Z</time>
      </trkpt>
      <trkpt lat="42.0564770" lon="-8.6350420">
        <ele>30.6</ele>
        <time>2019-06-21T12:22:24Z</time>
      </trkpt>
      <trkpt lat="42.0564770" lon="-8.6350420">
        <ele>30.6</ele>
        <time>2019-06-21T12:22:26Z</time>
      </trkpt>
      <trkpt lat="42.0564770" lon="-8.6350380">
        <ele>30.6</ele>
        <time>2019-06-21T12:22:31Z</time>
      </trkpt>
      <trkpt lat="42.0564770" lon="-8.6350380">
        <ele>30.6</ele>
        <time>2019-06-21T12:22:43Z</time>
      </trkpt>
      <trkpt lat="42.0564770" lon="-8.6350380">
        <ele>30.4</ele>
        <time>2019-06-21T12:22:49Z</time>
      </trkpt>
      <trkpt lat="42.0564770" lon="-8.6350380">
        <ele>30.6</ele>
        <time>2019-06-21T12:22:51Z</time>
      </trkpt>
      <trkpt lat="42.0564770" lon="-8.6350380">
        <ele>30.6</ele>
        <time>2019-06-21T12:22:53Z</time>
      </trkpt>
      <trkpt lat="42.0564770" lon="-8.6350380">
        <ele>30.4</ele>
        <time>2019-06-21T12:22:55Z</time>
      </trkpt>
      <trkpt lat="42.0564770" lon="-8.6350380">
        <ele>30.2</ele>
        <time>2019-06-21T12:22:57Z</time>
      </trkpt>
      <trkpt lat="42.0564770" lon="-8.6350380">
        <ele>30.2</ele>
        <time>2019-06-21T12:23:08Z</time>
      </trkpt>
      <trkpt lat="42.0564760" lon="-8.6350370">
        <ele>30.2</ele>
        <time>2019-06-21T12:23:11Z</time>
      </trkpt>
      <trkpt lat="42.0564760" lon="-8.6350370">
        <ele>30.4</ele>
        <time>2019-06-21T12:23:12Z</time>
      </trkpt>
      <trkpt lat="42.0564760" lon="-8.6350370">
        <ele>30.4</ele>
        <time>2019-06-21T12:23:14Z</time>
      </trkpt>
      <trkpt lat="42.0564760" lon="-8.6350370">
        <ele>30.4</ele>
        <time>2019-06-21T12:23:26Z</time>
      </trkpt>
      <trkpt lat="42.0564760" lon="-8.6350370">
        <ele>30.4</ele>
        <time>2019-06-21T12:23:31Z</time>
      </trkpt>
      <trkpt lat="42.0564760" lon="-8.6350370">
        <ele>30.4</ele>
        <time>2019-06-21T12:23:36Z</time>
      </trkpt>
      <trkpt lat="42.0564760" lon="-8.6350370">
        <ele>30.6</ele>
        <time>2019-06-21T12:23:42Z</time>
      </trkpt>
      <trkpt lat="42.0564760" lon="-8.6350380">
        <ele>30.6</ele>
        <time>2019-06-21T12:23:58Z</time>
      </trkpt>
      <trkpt lat="42.0564760" lon="-8.6350380">
        <ele>30.4</ele>
        <time>2019-06-21T12:24:01Z</time>
      </trkpt>
      <trkpt lat="42.0564760" lon="-8.6350380">
        <ele>30.8</ele>
        <time>2019-06-21T12:24:11Z</time>
      </trkpt>
      <trkpt lat="42.0564760" lon="-8.6350380">
        <ele>30.6</ele>
        <time>2019-06-21T12:24:18Z</time>
      </trkpt>
      <trkpt lat="42.0564760" lon="-8.6350380">
        <ele>30.6</ele>
        <time>2019-06-21T12:24:19Z</time>
      </trkpt>
      <trkpt lat="42.0564730" lon="-8.6350390">
        <ele>30.8</ele>
        <time>2019-06-21T12:24:33Z</time>
      </trkpt>
      <trkpt lat="42.0564730" lon="-8.6350390">
        <ele>30.6</ele>
        <time>2019-06-21T12:24:40Z</time>
      </trkpt>
      <trkpt lat="42.0564730" lon="-8.6350390">
        <ele>30.6</ele>
        <time>2019-06-21T12:24:54Z</time>
      </trkpt>
      <trkpt lat="42.0564730" lon="-8.6350390">
        <ele>30.6</ele>
        <time>2019-06-21T12:24:57Z</time>
      </trkpt>
      <trkpt lat="42.0564660" lon="-8.6350420">
        <ele>30.4</ele>
        <time>2019-06-21T12:25:13Z</time>
      </trkpt>
      <trkpt lat="42.0564660" lon="-8.6350420">
        <ele>30.6</ele>
        <time>2019-06-21T12:25:15Z</time>
      </trkpt>
      <trkpt lat="42.0564660" lon="-8.6350420">
        <ele>30.6</ele>
        <time>2019-06-21T12:25:19Z</time>
      </trkpt>
      <trkpt lat="42.0564660" lon="-8.6350420">
        <ele>30.6</ele>
        <time>2019-06-21T12:25:29Z</time>
      </trkpt>
      <trkpt lat="42.0564660" lon="-8.6350420">
        <ele>30.8</ele>
        <time>2019-06-21T12:25:49Z</time>
      </trkpt>
      <trkpt lat="42.0564670" lon="-8.6350430">
        <ele>30.8</ele>
        <time>2019-06-21T12:25:52Z</time>
      </trkpt>
      <trkpt lat="42.0564670" lon="-8.6350430">
        <ele>30.8</ele>
        <time>2019-06-21T12:25:56Z</time>
      </trkpt>
      <trkpt lat="42.0564670" lon="-8.6350430">
        <ele>30.8</ele>
        <time>2019-06-21T12:25:59Z</time>
      </trkpt>
      <trkpt lat="42.0564670" lon="-8.6350430">
        <ele>30.8</ele>
        <time>2019-06-21T12:26:05Z</time>
      </trkpt>
      <trkpt lat="42.0564670" lon="-8.6350430">
        <ele>30.6</ele>
        <time>2019-06-21T12:26:10Z</time>
      </trkpt>
      <trkpt lat="42.0564670" lon="-8.6350430">
        <ele>30.8</ele>
        <time>2019-06-21T12:26:16Z</time>
      </trkpt>
      <trkpt lat="42.0564670" lon="-8.6350430">
        <ele>30.8</ele>
        <time>2019-06-21T12:26:18Z</time>
      </trkpt>
      <trkpt lat="42.0564650" lon="-8.6350450">
        <ele>30.8</ele>
        <time>2019-06-21T12:26:32Z</time>
      </trkpt>
      <trkpt lat="42.0564650" lon="-8.6350450">
        <ele>30.8</ele>
        <time>2019-06-21T12:26:48Z</time>
      </trkpt>
      <trkpt lat="42.0564650" lon="-8.6350450">
        <ele>30.6</ele>
        <time>2019-06-21T12:26:50Z</time>
      </trkpt>
      <trkpt lat="42.0564650" lon="-8.6350450">
        <ele>30.6</ele>
        <time>2019-06-21T12:26:54Z</time>
      </trkpt>
      <trkpt lat="42.0564650" lon="-8.6350450">
        <ele>30.6</ele>
        <time>2019-06-21T12:26:58Z</time>
      </trkpt>
      <trkpt lat="42.0564650" lon="-8.6350450">
        <ele>30.6</ele>
        <time>2019-06-21T12:27:09Z</time>
      </trkpt>
      <trkpt lat="42.0564660" lon="-8.6350410">
        <ele>30.8</ele>
        <time>2019-06-21T12:27:25Z</time>
      </trkpt>
      <trkpt lat="42.0564660" lon="-8.6350410">
        <ele>30.8</ele>
        <time>2019-06-21T12:27:28Z</time>
      </trkpt>
      <trkpt lat="42.0564660" lon="-8.6350410">
        <ele>30.8</ele>
        <time>2019-06-21T12:27:35Z</time>
      </trkpt>
      <trkpt lat="42.0564660" lon="-8.6350410">
        <ele>30.8</ele>
        <time>2019-06-21T12:27:39Z</time>
      </trkpt>
      <trkpt lat="42.0564660" lon="-8.6350410">
        <ele>31.0</ele>
        <time>2019-06-21T12:27:46Z</time>
      </trkpt>
      <trkpt lat="42.0564670" lon="-8.6350400">
        <ele>30.8</ele>
        <time>2019-06-21T12:28:06Z</time>
      </trkpt>
      <trkpt lat="42.0564670" lon="-8.6350400">
        <ele>30.8</ele>
        <time>2019-06-21T12:28:10Z</time>
      </trkpt>
      <trkpt lat="42.0564670" lon="-8.6350400">
        <ele>30.8</ele>
        <time>2019-06-21T12:28:14Z</time>
      </trkpt>
      <trkpt lat="42.0564670" lon="-8.6350400">
        <ele>30.8</ele>
        <time>2019-06-21T12:28:18Z</time>
      </trkpt>
      <trkpt lat="42.0564720" lon="-8.6350370">
        <ele>30.8</ele>
        <time>2019-06-21T12:28:31Z</time>
      </trkpt>
      <trkpt lat="42.0564890" lon="-8.6349970">
        <ele>30.8</ele>
        <time>2019-06-21T12:28:36Z</time>
      </trkpt>
      <trkpt lat="42.0564890" lon="-8.6349930">
        <ele>30.8</ele>
        <time>2019-06-21T12:28:40Z</time>
      </trkpt>
      <trkpt lat="42.0564980" lon="-8.6349830">
        <ele>30.8</ele>
        <time>2019-06-21T12:28:42Z</time>
      </trkpt>
      <trkpt lat="42.0565870" lon="-8.6348910">
        <ele>30.6</ele>
        <time>2019-06-21T12:28:48Z</time>
      </trkpt>
      <trkpt lat="42.0566350" lon="-8.6348490">
        <ele>30.6</ele>
        <time>2019-06-21T12:28:51Z</time>
      </trkpt>
      <trkpt lat="42.0566620" lon="-8.6348250">
        <ele>30.6</ele>
        <time>2019-06-21T12:28:53Z</time>
      </trkpt>
      <trkpt lat="42.0567810" lon="-8.6347790">
        <ele>30.4</ele>
        <time>2019-06-21T12:28:58Z</time>
      </trkpt>
      <trkpt lat="42.0569830" lon="-8.6347430">
        <ele>30.0</ele>
        <time>2019-06-21T12:29:04Z</time>
      </trkpt>
      <trkpt lat="42.0572020" lon="-8.6347340">
        <ele>30.2</ele>
        <time>2019-06-21T12:29:11Z</time>
      </trkpt>
      <trkpt lat="42.0573880" lon="-8.6347550">
        <ele>30.0</ele>
        <time>2019-06-21T12:29:18Z</time>
      </trkpt>
      <trkpt lat="42.0574890" lon="-8.6347810">
        <ele>30.4</ele>
        <time>2019-06-21T12:29:22Z</time>
      </trkpt>
      <trkpt lat="42.0575150" lon="-8.6347900">
        <ele>30.4</ele>
        <time>2019-06-21T12:29:23Z</time>
      </trkpt>
      <trkpt lat="42.0576560" lon="-8.6348640">
        <ele>31.0</ele>
        <time>2019-06-21T12:29:28Z</time>
      </trkpt>
      <trkpt lat="42.0577190" lon="-8.6348900">
        <ele>31.2</ele>
        <time>2019-06-21T12:29:30Z</time>
      </trkpt>
      <trkpt lat="42.0579650" lon="-8.6350190">
        <ele>31.2</ele>
        <time>2019-06-21T12:29:37Z</time>
      </trkpt>
      <trkpt lat="42.0582630" lon="-8.6352250">
        <ele>31.0</ele>
        <time>2019-06-21T12:29:44Z</time>
      </trkpt>
      <trkpt lat="42.0583350" lon="-8.6353190">
        <ele>30.8</ele>
        <time>2019-06-21T12:29:46Z</time>
      </trkpt>
      <trkpt lat="42.0584430" lon="-8.6355050">
        <ele>30.6</ele>
        <time>2019-06-21T12:29:50Z</time>
      </trkpt>
      <trkpt lat="42.0584990" lon="-8.6357280">
        <ele>30.8</ele>
        <time>2019-06-21T12:29:54Z</time>
      </trkpt>
      <trkpt lat="42.0585030" lon="-8.6357880">
        <ele>30.8</ele>
        <time>2019-06-21T12:29:55Z</time>
      </trkpt>
      <trkpt lat="42.0584760" lon="-8.6359630">
        <ele>31.2</ele>
        <time>2019-06-21T12:29:58Z</time>
      </trkpt>
      <trkpt lat="42.0584460" lon="-8.6360660">
        <ele>31.4</ele>
        <time>2019-06-21T12:30:00Z</time>
      </trkpt>
      <trkpt lat="42.0584260" lon="-8.6361580">
        <ele>31.6</ele>
        <time>2019-06-21T12:30:02Z</time>
      </trkpt>
      <trkpt lat="42.0584500" lon="-8.6362980">
        <ele>32.0</ele>
        <time>2019-06-21T12:30:05Z</time>
      </trkpt>
      <trkpt lat="42.0585350" lon="-8.6364340">
        <ele>32.2</ele>
        <time>2019-06-21T12:30:09Z</time>
      </trkpt>
      <trkpt lat="42.0587690" lon="-8.6366140">
        <ele>32.4</ele>
        <time>2019-06-21T12:30:16Z</time>
      </trkpt>
      <trkpt lat="42.0588960" lon="-8.6367140">
        <ele>32.8</ele>
        <time>2019-06-21T12:30:20Z</time>
      </trkpt>
      <trkpt lat="42.0589660" lon="-8.6368000">
        <ele>33.2</ele>
        <time>2019-06-21T12:30:23Z</time>
      </trkpt>
      <trkpt lat="42.0590040" lon="-8.6369010">
        <ele>34.0</ele>
        <time>2019-06-21T12:30:26Z</time>
      </trkpt>
      <trkpt lat="42.0590170" lon="-8.6369750">
        <ele>34.6</ele>
        <time>2019-06-21T12:30:28Z</time>
      </trkpt>
      <trkpt lat="42.0590210" lon="-8.6370690">
        <ele>35.0</ele>
        <time>2019-06-21T12:30:31Z</time>
      </trkpt>
      <trkpt lat="42.0590260" lon="-8.6372150">
        <ele>36.0</ele>
        <time>2019-06-21T12:30:36Z</time>
      </trkpt>
      <trkpt lat="42.0590270" lon="-8.6372440">
        <ele>36.2</ele>
        <time>2019-06-21T12:30:37Z</time>
      </trkpt>
      <trkpt lat="42.0590510" lon="-8.6374300">
        <ele>37.0</ele>
        <time>2019-06-21T12:30:43Z</time>
      </trkpt>
      <trkpt lat="42.0591000" lon="-8.6375650">
        <ele>37.2</ele>
        <time>2019-06-21T12:30:47Z</time>
      </trkpt>
      <trkpt lat="42.0591340" lon="-8.6376790">
        <ele>37.6</ele>
        <time>2019-06-21T12:30:50Z</time>
      </trkpt>
      <trkpt lat="42.0591610" lon="-8.6378720">
        <ele>37.8</ele>
        <time>2019-06-21T12:30:55Z</time>
      </trkpt>
      <trkpt lat="42.0591730" lon="-8.6379460">
        <ele>37.8</ele>
        <time>2019-06-21T12:30:57Z</time>
      </trkpt>
      <trkpt lat="42.0592100" lon="-8.6381260">
        <ele>37.6</ele>
        <time>2019-06-21T12:31:03Z</time>
      </trkpt>
      <trkpt lat="42.0592280" lon="-8.6381290">
        <ele>37.8</ele>
        <time>2019-06-21T12:31:04Z</time>
      </trkpt>
      <trkpt lat="42.0592900" lon="-8.6381040">
        <ele>37.6</ele>
        <time>2019-06-21T12:31:06Z</time>
      </trkpt>
      <trkpt lat="42.0595010" lon="-8.6380250">
        <ele>36.8</ele>
        <time>2019-06-21T12:31:11Z</time>
      </trkpt>
      <trkpt lat="42.0597090" lon="-8.6379520">
        <ele>36.2</ele>
        <time>2019-06-21T12:31:15Z</time>
      </trkpt>
      <trkpt lat="42.0598240" lon="-8.6378930">
        <ele>35.6</ele>
        <time>2019-06-21T12:31:17Z</time>
      </trkpt>
      <trkpt lat="42.0599480" lon="-8.6378220">
        <ele>35.0</ele>
        <time>2019-06-21T12:31:19Z</time>
      </trkpt>
      <trkpt lat="42.0600830" lon="-8.6377530">
        <ele>34.6</ele>
        <time>2019-06-21T12:31:21Z</time>
      </trkpt>
      <trkpt lat="42.0602180" lon="-8.6376810">
        <ele>34.0</ele>
        <time>2019-06-21T12:31:23Z</time>
      </trkpt>
      <trkpt lat="42.0602880" lon="-8.6376490">
        <ele>33.6</ele>
        <time>2019-06-21T12:31:24Z</time>
      </trkpt>
      <trkpt lat="42.0605130" lon="-8.6375430">
        <ele>32.6</ele>
        <time>2019-06-21T12:31:27Z</time>
      </trkpt>
      <trkpt lat="42.0606670" lon="-8.6374820">
        <ele>32.2</ele>
        <time>2019-06-21T12:31:29Z</time>
      </trkpt>
      <trkpt lat="42.0607430" lon="-8.6374540">
        <ele>32.2</ele>
        <time>2019-06-21T12:31:30Z</time>
      </trkpt>
      <trkpt lat="42.0610300" lon="-8.6373320">
        <ele>31.8</ele>
        <time>2019-06-21T12:31:34Z</time>
      </trkpt>
      <trkpt lat="42.0610980" lon="-8.6372970">
        <ele>31.6</ele>
        <time>2019-06-21T12:31:35Z</time>
      </trkpt>
      <trkpt lat="42.0611650" lon="-8.6372640">
        <ele>31.4</ele>
        <time>2019-06-21T12:31:36Z</time>
      </trkpt>
      <trkpt lat="42.0615260" lon="-8.6370940">
        <ele>31.0</ele>
        <time>2019-06-21T12:31:42Z</time>
      </trkpt>
      <trkpt lat="42.0616400" lon="-8.6370570">
        <ele>31.0</ele>
        <time>2019-06-21T12:31:44Z</time>
      </trkpt>
      <trkpt lat="42.0617520" lon="-8.6370400">
        <ele>30.8</ele>
        <time>2019-06-21T12:31:46Z</time>
      </trkpt>
      <trkpt lat="42.0618060" lon="-8.6370450">
        <ele>31.0</ele>
        <time>2019-06-21T12:31:47Z</time>
      </trkpt>
      <trkpt lat="42.0619860" lon="-8.6371770">
        <ele>30.8</ele>
        <time>2019-06-21T12:31:51Z</time>
      </trkpt>
      <trkpt lat="42.0621080" lon="-8.6374440">
        <ele>31.0</ele>
        <time>2019-06-21T12:31:56Z</time>
      </trkpt>
      <trkpt lat="42.0621250" lon="-8.6376300">
        <ele>31.0</ele>
        <time>2019-06-21T12:31:59Z</time>
      </trkpt>
      <trkpt lat="42.0621250" lon="-8.6377560">
        <ele>31.4</ele>
        <time>2019-06-21T12:32:01Z</time>
      </trkpt>
      <trkpt lat="42.0621300" lon="-8.6379330">
        <ele>31.6</ele>
        <time>2019-06-21T12:32:04Z</time>
      </trkpt>
      <trkpt lat="42.0621370" lon="-8.6381050">
        <ele>31.8</ele>
        <time>2019-06-21T12:32:07Z</time>
      </trkpt>
      <trkpt lat="42.0621400" lon="-8.6381640">
        <ele>31.8</ele>
        <time>2019-06-21T12:32:08Z</time>
      </trkpt>
      <trkpt lat="42.0621410" lon="-8.6383380">
        <ele>32.0</ele>
        <time>2019-06-21T12:32:11Z</time>
      </trkpt>
      <trkpt lat="42.0621790" lon="-8.6385760">
        <ele>32.4</ele>
        <time>2019-06-21T12:32:15Z</time>
      </trkpt>
      <trkpt lat="42.0621940" lon="-8.6386310">
        <ele>32.4</ele>
        <time>2019-06-21T12:32:16Z</time>
      </trkpt>
      <trkpt lat="42.0622970" lon="-8.6388150">
        <ele>32.8</ele>
        <time>2019-06-21T12:32:20Z</time>
      </trkpt>
      <trkpt lat="42.0623660" lon="-8.6388820">
        <ele>33.0</ele>
        <time>2019-06-21T12:32:22Z</time>
      </trkpt>
      <trkpt lat="42.0624440" lon="-8.6389280">
        <ele>33.2</ele>
        <time>2019-06-21T12:32:24Z</time>
      </trkpt>
      <trkpt lat="42.0624860" lon="-8.6389440">
        <ele>33.2</ele>
        <time>2019-06-21T12:32:25Z</time>
      </trkpt>
      <trkpt lat="42.0626080" lon="-8.6389790">
        <ele>33.4</ele>
        <time>2019-06-21T12:32:28Z</time>
      </trkpt>
      <trkpt lat="42.0627800" lon="-8.6390080">
        <ele>33.6</ele>
        <time>2019-06-21T12:32:32Z</time>
      </trkpt>
      <trkpt lat="42.0629460" lon="-8.6390390">
        <ele>34.2</ele>
        <time>2019-06-21T12:32:36Z</time>
      </trkpt>
      <trkpt lat="42.0630310" lon="-8.6390600">
        <ele>34.6</ele>
        <time>2019-06-21T12:32:38Z</time>
      </trkpt>
      <trkpt lat="42.0631110" lon="-8.6390730">
        <ele>34.8</ele>
        <time>2019-06-21T12:32:40Z</time>
      </trkpt>
      <trkpt lat="42.0633110" lon="-8.6390710">
        <ele>36.0</ele>
        <time>2019-06-21T12:32:46Z</time>
      </trkpt>
      <trkpt lat="42.0634690" lon="-8.6390950">
        <ele>37.2</ele>
        <time>2019-06-21T12:32:51Z</time>
      </trkpt>
      <trkpt lat="42.0635560" lon="-8.6390980">
        <ele>38.0</ele>
        <time>2019-06-21T12:32:54Z</time>
      </trkpt>
      <trkpt lat="42.0635850" lon="-8.6391020">
        <ele>38.4</ele>
        <time>2019-06-21T12:32:55Z</time>
      </trkpt>
      <trkpt lat="42.0637280" lon="-8.6391320">
        <ele>39.4</ele>
        <time>2019-06-21T12:33:00Z</time>
      </trkpt>
      <trkpt lat="42.0638090" lon="-8.6391480">
        <ele>40.2</ele>
        <time>2019-06-21T12:33:03Z</time>
      </trkpt>
      <trkpt lat="42.0638750" lon="-8.6391470">
        <ele>40.4</ele>
        <time>2019-06-21T12:33:06Z</time>
      </trkpt>
      <trkpt lat="42.0638900" lon="-8.6391410">
        <ele>40.6</ele>
        <time>2019-06-21T12:33:07Z</time>
      </trkpt>
      <trkpt lat="42.0638990" lon="-8.6391270">
        <ele>40.6</ele>
        <time>2019-06-21T12:33:08Z</time>
      </trkpt>
      <trkpt lat="42.0639150" lon="-8.6391060">
        <ele>40.8</ele>
        <time>2019-06-21T12:33:10Z</time>
      </trkpt>
      <trkpt lat="42.0639340" lon="-8.6390810">
        <ele>40.8</ele>
        <time>2019-06-21T12:33:13Z</time>
      </trkpt>
      <trkpt lat="42.0639350" lon="-8.6390800">
        <ele>40.8</ele>
        <time>2019-06-21T12:33:20Z</time>
      </trkpt>
      <trkpt lat="42.0639350" lon="-8.6390800">
        <ele>41.0</ele>
        <time>2019-06-21T12:33:33Z</time>
      </trkpt>
      <trkpt lat="42.0639350" lon="-8.6390800">
        <ele>40.8</ele>
        <time>2019-06-21T12:33:41Z</time>
      </trkpt>
      <trkpt lat="42.0639380" lon="-8.6390750">
        <ele>40.8</ele>
        <time>2019-06-21T12:33:43Z</time>
      </trkpt>
      <trkpt lat="42.0639550" lon="-8.6390460">
        <ele>40.8</ele>
        <time>2019-06-21T12:33:45Z</time>
      </trkpt>
      <trkpt lat="42.0639790" lon="-8.6390030">
        <ele>41.0</ele>
        <time>2019-06-21T12:33:47Z</time>
      </trkpt>
      <trkpt lat="42.0640080" lon="-8.6389480">
        <ele>41.2</ele>
        <time>2019-06-21T12:33:49Z</time>
      </trkpt>
      <trkpt lat="42.0640440" lon="-8.6388820">
        <ele>41.6</ele>
        <time>2019-06-21T12:33:51Z</time>
      </trkpt>
      <trkpt lat="42.0641050" lon="-8.6387550">
        <ele>41.8</ele>
        <time>2019-06-21T12:33:55Z</time>
      </trkpt>
      <trkpt lat="42.0641200" lon="-8.6387260">
        <ele>41.8</ele>
        <time>2019-06-21T12:33:56Z</time>
      </trkpt>
      <trkpt lat="42.0642700" lon="-8.6384560">
        <ele>42.4</ele>
        <time>2019-06-21T12:34:04Z</time>
      </trkpt>
      <trkpt lat="42.0643610" lon="-8.6383060">
        <ele>42.6</ele>
        <time>2019-06-21T12:34:08Z</time>
      </trkpt>
      <trkpt lat="42.0644480" lon="-8.6382060">
        <ele>42.6</ele>
        <time>2019-06-21T12:34:11Z</time>
      </trkpt>
      <trkpt lat="42.0645860" lon="-8.6380210">
        <ele>43.2</ele>
        <time>2019-06-21T12:34:16Z</time>
      </trkpt>
      <trkpt lat="42.0646400" lon="-8.6379480">
        <ele>43.2</ele>
        <time>2019-06-21T12:34:18Z</time>
      </trkpt>
      <trkpt lat="42.0648280" lon="-8.6377350">
        <ele>43.6</ele>
        <time>2019-06-21T12:34:24Z</time>
      </trkpt>
      <trkpt lat="42.0648700" lon="-8.6377240">
        <ele>43.6</ele>
        <time>2019-06-21T12:34:25Z</time>
      </trkpt>
      <trkpt lat="42.0649920" lon="-8.6377800">
        <ele>43.2</ele>
        <time>2019-06-21T12:34:28Z</time>
      </trkpt>
      <trkpt lat="42.0650290" lon="-8.6378040">
        <ele>43.4</ele>
        <time>2019-06-21T12:34:29Z</time>
      </trkpt>
      <trkpt lat="42.0652520" lon="-8.6379310">
        <ele>43.8</ele>
        <time>2019-06-21T12:34:35Z</time>
      </trkpt>
      <trkpt lat="42.0655980" lon="-8.6381330">
        <ele>44.2</ele>
        <time>2019-06-21T12:34:44Z</time>
      </trkpt>
      <trkpt lat="42.0657130" lon="-8.6382030">
        <ele>44.4</ele>
        <time>2019-06-21T12:34:47Z</time>
      </trkpt>
      <trkpt lat="42.0658670" lon="-8.6382880">
        <ele>44.8</ele>
        <time>2019-06-21T12:34:51Z</time>
      </trkpt>
      <trkpt lat="42.0659060" lon="-8.6383100">
        <ele>45.0</ele>
        <time>2019-06-21T12:34:52Z</time>
      </trkpt>
      <trkpt lat="42.0662520" lon="-8.6384560">
        <ele>45.8</ele>
        <time>2019-06-21T12:35:01Z</time>
      </trkpt>
      <trkpt lat="42.0662880" lon="-8.6384630">
        <ele>45.8</ele>
        <time>2019-06-21T12:35:02Z</time>
      </trkpt>
      <trkpt lat="42.0664640" lon="-8.6384880">
        <ele>47.0</ele>
        <time>2019-06-21T12:35:07Z</time>
      </trkpt>
      <trkpt lat="42.0665310" lon="-8.6384940">
        <ele>47.4</ele>
        <time>2019-06-21T12:35:09Z</time>
      </trkpt>
      <trkpt lat="42.0666290" lon="-8.6385050">
        <ele>48.2</ele>
        <time>2019-06-21T12:35:12Z</time>
      </trkpt>
      <trkpt lat="42.0667560" lon="-8.6385000">
        <ele>49.0</ele>
        <time>2019-06-21T12:35:16Z</time>
      </trkpt>
      <trkpt lat="42.0667860" lon="-8.6384970">
        <ele>49.2</ele>
        <time>2019-06-21T12:35:17Z</time>
      </trkpt>
      <trkpt lat="42.0668150" lon="-8.6384990">
        <ele>49.4</ele>
        <time>2019-06-21T12:35:18Z</time>
      </trkpt>
      <trkpt lat="42.0669330" lon="-8.6384970">
        <ele>50.4</ele>
        <time>2019-06-21T12:35:22Z</time>
      </trkpt>
      <trkpt lat="42.0670890" lon="-8.6384840">
        <ele>51.2</ele>
        <time>2019-06-21T12:35:27Z</time>
      </trkpt>
      <trkpt lat="42.0671520" lon="-8.6384800">
        <ele>51.4</ele>
        <time>2019-06-21T12:35:29Z</time>
      </trkpt>
      <trkpt lat="42.0673090" lon="-8.6384610">
        <ele>52.2</ele>
        <time>2019-06-21T12:35:34Z</time>
      </trkpt>
      <trkpt lat="42.0674090" lon="-8.6384490">
        <ele>52.4</ele>
        <time>2019-06-21T12:35:37Z</time>
      </trkpt>
      <trkpt lat="42.0676480" lon="-8.6384460">
        <ele>52.6</ele>
        <time>2019-06-21T12:35:43Z</time>
      </trkpt>
      <trkpt lat="42.0677340" lon="-8.6384480">
        <ele>52.6</ele>
        <time>2019-06-21T12:35:45Z</time>
      </trkpt>
      <trkpt lat="42.0679550" lon="-8.6384810">
        <ele>52.2</ele>
        <time>2019-06-21T12:35:50Z</time>
      </trkpt>
      <trkpt lat="42.0680580" lon="-8.6385390">
        <ele>51.4</ele>
        <time>2019-06-21T12:35:52Z</time>
      </trkpt>
      <trkpt lat="42.0681200" lon="-8.6385640">
        <ele>51.0</ele>
        <time>2019-06-21T12:35:53Z</time>
      </trkpt>
      <trkpt lat="42.0682560" lon="-8.6386210">
        <ele>50.4</ele>
        <time>2019-06-21T12:35:55Z</time>
      </trkpt>
      <trkpt lat="42.0683290" lon="-8.6386530">
        <ele>49.8</ele>
        <time>2019-06-21T12:35:56Z</time>
      </trkpt>
      <trkpt lat="42.0684080" lon="-8.6386860">
        <ele>49.2</ele>
        <time>2019-06-21T12:35:57Z</time>
      </trkpt>
      <trkpt lat="42.0685730" lon="-8.6387540">
        <ele>47.8</ele>
        <time>2019-06-21T12:35:59Z</time>
      </trkpt>
      <trkpt lat="42.0687520" lon="-8.6388280">
        <ele>46.6</ele>
        <time>2019-06-21T12:36:01Z</time>
      </trkpt>
      <trkpt lat="42.0689420" lon="-8.6389060">
        <ele>45.0</ele>
        <time>2019-06-21T12:36:03Z</time>
      </trkpt>
      <trkpt lat="42.0691490" lon="-8.6389800">
        <ele>43.2</ele>
        <time>2019-06-21T12:36:05Z</time>
      </trkpt>
      <trkpt lat="42.0693710" lon="-8.6390460">
        <ele>41.4</ele>
        <time>2019-06-21T12:36:07Z</time>
      </trkpt>
      <trkpt lat="42.0696050" lon="-8.6390870">
        <ele>39.6</ele>
        <time>2019-06-21T12:36:09Z</time>
      </trkpt>
      <trkpt lat="42.0698500" lon="-8.6391100">
        <ele>37.8</ele>
        <time>2019-06-21T12:36:11Z</time>
      </trkpt>
      <trkpt lat="42.0699670" lon="-8.6391020">
        <ele>37.0</ele>
        <time>2019-06-21T12:36:12Z</time>
      </trkpt>
      <trkpt lat="42.0700810" lon="-8.6390830">
        <ele>36.8</ele>
        <time>2019-06-21T12:36:13Z</time>
      </trkpt>
      <trkpt lat="42.0702920" lon="-8.6390130">
        <ele>35.8</ele>
        <time>2019-06-21T12:36:15Z</time>
      </trkpt>
      <trkpt lat="42.0703870" lon="-8.6389650">
        <ele>35.8</ele>
        <time>2019-06-21T12:36:16Z</time>
      </trkpt>
      <trkpt lat="42.0705770" lon="-8.6388860">
        <ele>36.0</ele>
        <time>2019-06-21T12:36:18Z</time>
      </trkpt>
      <trkpt lat="42.0707420" lon="-8.6388130">
        <ele>36.4</ele>
        <time>2019-06-21T12:36:20Z</time>
      </trkpt>
      <trkpt lat="42.0708100" lon="-8.6387800">
        <ele>36.6</ele>
        <time>2019-06-21T12:36:21Z</time>
      </trkpt>
      <trkpt lat="42.0710340" lon="-8.6386790">
        <ele>37.8</ele>
        <time>2019-06-21T12:36:25Z</time>
      </trkpt>
      <trkpt lat="42.0711850" lon="-8.6386420">
        <ele>38.4</ele>
        <time>2019-06-21T12:36:28Z</time>
      </trkpt>
      <trkpt lat="42.0712730" lon="-8.6386380">
        <ele>39.0</ele>
        <time>2019-06-21T12:36:30Z</time>
      </trkpt>
      <trkpt lat="42.0713130" lon="-8.6386370">
        <ele>39.2</ele>
        <time>2019-06-21T12:36:31Z</time>
      </trkpt>
      <trkpt lat="42.0714650" lon="-8.6386450">
        <ele>40.0</ele>
        <time>2019-06-21T12:36:36Z</time>
      </trkpt>
      <trkpt lat="42.0715050" lon="-8.6386530">
        <ele>40.0</ele>
        <time>2019-06-21T12:36:37Z</time>
      </trkpt>
      <trkpt lat="42.0715480" lon="-8.6386600">
        <ele>40.2</ele>
        <time>2019-06-21T12:36:38Z</time>
      </trkpt>
      <trkpt lat="42.0717190" lon="-8.6386860">
        <ele>41.2</ele>
        <time>2019-06-21T12:36:42Z</time>
      </trkpt>
      <trkpt lat="42.0718480" lon="-8.6387150">
        <ele>41.8</ele>
        <time>2019-06-21T12:36:45Z</time>
      </trkpt>
      <trkpt lat="42.0718920" lon="-8.6387270">
        <ele>42.0</ele>
        <time>2019-06-21T12:36:46Z</time>
      </trkpt>
      <trkpt lat="42.0719370" lon="-8.6387350">
        <ele>42.2</ele>
        <time>2019-06-21T12:36:47Z</time>
      </trkpt>
      <trkpt lat="42.0721160" lon="-8.6387870">
        <ele>42.4</ele>
        <time>2019-06-21T12:36:51Z</time>
      </trkpt>
      <trkpt lat="42.0721580" lon="-8.6387960">
        <ele>42.6</ele>
        <time>2019-06-21T12:36:52Z</time>
      </trkpt>
      <trkpt lat="42.0722450" lon="-8.6388240">
        <ele>42.6</ele>
        <time>2019-06-21T12:36:54Z</time>
      </trkpt>
      <trkpt lat="42.0725370" lon="-8.6388780">
        <ele>42.8</ele>
        <time>2019-06-21T12:37:00Z</time>
      </trkpt>
      <trkpt lat="42.0728670" lon="-8.6390050">
        <ele>42.8</ele>
        <time>2019-06-21T12:37:07Z</time>
      </trkpt>
      <trkpt lat="42.0732570" lon="-8.6391270">
        <ele>42.8</ele>
        <time>2019-06-21T12:37:15Z</time>
      </trkpt>
      <trkpt lat="42.0734610" lon="-8.6391380">
        <ele>43.2</ele>
        <time>2019-06-21T12:37:19Z</time>
      </trkpt>
      <trkpt lat="42.0736160" lon="-8.6391390">
        <ele>43.2</ele>
        <time>2019-06-21T12:37:22Z</time>
      </trkpt>
      <trkpt lat="42.0740090" lon="-8.6391830">
        <ele>43.0</ele>
        <time>2019-06-21T12:37:29Z</time>
      </trkpt>
      <trkpt lat="42.0743830" lon="-8.6392680">
        <ele>42.0</ele>
        <time>2019-06-21T12:37:35Z</time>
      </trkpt>
      <trkpt lat="42.0745730" lon="-8.6393230">
        <ele>41.6</ele>
        <time>2019-06-21T12:37:38Z</time>
      </trkpt>
      <trkpt lat="42.0748290" lon="-8.6394040">
        <ele>41.0</ele>
        <time>2019-06-21T12:37:42Z</time>
      </trkpt>
      <trkpt lat="42.0750930" lon="-8.6394770">
        <ele>40.4</ele>
        <time>2019-06-21T12:37:46Z</time>
      </trkpt>
      <trkpt lat="42.0751560" lon="-8.6394950">
        <ele>40.2</ele>
        <time>2019-06-21T12:37:47Z</time>
      </trkpt>
      <trkpt lat="42.0752790" lon="-8.6395370">
        <ele>40.0</ele>
        <time>2019-06-21T12:37:49Z</time>
      </trkpt>
      <trkpt lat="42.0753400" lon="-8.6395550">
        <ele>40.0</ele>
        <time>2019-06-21T12:37:50Z</time>
      </trkpt>
      <trkpt lat="42.0754540" lon="-8.6395930">
        <ele>39.8</ele>
        <time>2019-06-21T12:37:52Z</time>
      </trkpt>
      <trkpt lat="42.0755660" lon="-8.6396220">
        <ele>39.6</ele>
        <time>2019-06-21T12:37:54Z</time>
      </trkpt>
      <trkpt lat="42.0756190" lon="-8.6396320">
        <ele>39.6</ele>
        <time>2019-06-21T12:37:55Z</time>
      </trkpt>
      <trkpt lat="42.0757280" lon="-8.6396430">
        <ele>39.2</ele>
        <time>2019-06-21T12:37:57Z</time>
      </trkpt>
      <trkpt lat="42.0759400" lon="-8.6396160">
        <ele>39.2</ele>
        <time>2019-06-21T12:38:01Z</time>
      </trkpt>
      <trkpt lat="42.0759900" lon="-8.6395930">
        <ele>39.2</ele>
        <time>2019-06-21T12:38:02Z</time>
      </trkpt>
      <trkpt lat="42.0761740" lon="-8.6394780">
        <ele>39.8</ele>
        <time>2019-06-21T12:38:06Z</time>
      </trkpt>
      <trkpt lat="42.0763970" lon="-8.6392320">
        <ele>40.6</ele>
        <time>2019-06-21T12:38:12Z</time>
      </trkpt>
      <trkpt lat="42.0764980" lon="-8.6391090">
        <ele>41.0</ele>
        <time>2019-06-21T12:38:15Z</time>
      </trkpt>
      <trkpt lat="42.0766120" lon="-8.6389870">
        <ele>41.6</ele>
        <time>2019-06-21T12:38:18Z</time>
      </trkpt>
      <trkpt lat="42.0766490" lon="-8.6389490">
        <ele>41.6</ele>
        <time>2019-06-21T12:38:19Z</time>
      </trkpt>
      <trkpt lat="42.0767250" lon="-8.6388740">
        <ele>41.8</ele>
        <time>2019-06-21T12:38:21Z</time>
      </trkpt>
      <trkpt lat="42.0768410" lon="-8.6387650">
        <ele>42.0</ele>
        <time>2019-06-21T12:38:24Z</time>
      </trkpt>
      <trkpt lat="42.0769640" lon="-8.6386670">
        <ele>42.4</ele>
        <time>2019-06-21T12:38:27Z</time>
      </trkpt>
      <trkpt lat="42.0771660" lon="-8.6385150">
        <ele>43.0</ele>
        <time>2019-06-21T12:38:32Z</time>
      </trkpt>
      <trkpt lat="42.0772390" lon="-8.6384650">
        <ele>43.2</ele>
        <time>2019-06-21T12:38:34Z</time>
      </trkpt>
      <trkpt lat="42.0773180" lon="-8.6384280">
        <ele>43.6</ele>
        <time>2019-06-21T12:38:36Z</time>
      </trkpt>
      <trkpt lat="42.0774480" lon="-8.6383960">
        <ele>44.4</ele>
        <time>2019-06-21T12:38:39Z</time>
      </trkpt>
      <trkpt lat="42.0775410" lon="-8.6383840">
        <ele>44.6</ele>
        <time>2019-06-21T12:38:41Z</time>
      </trkpt>
      <trkpt lat="42.0776360" lon="-8.6383910">
        <ele>45.0</ele>
        <time>2019-06-21T12:38:43Z</time>
      </trkpt>
      <trkpt lat="42.0777720" lon="-8.6384080">
        <ele>45.2</ele>
        <time>2019-06-21T12:38:46Z</time>
      </trkpt>
      <trkpt lat="42.0778160" lon="-8.6384210">
        <ele>45.4</ele>
        <time>2019-06-21T12:38:47Z</time>
      </trkpt>
      <trkpt lat="42.0780940" lon="-8.6384950">
        <ele>45.8</ele>
        <time>2019-06-21T12:38:53Z</time>
      </trkpt>
      <trkpt lat="42.0784110" lon="-8.6386000">
        <ele>45.8</ele>
        <time>2019-06-21T12:39:00Z</time>
      </trkpt>
      <trkpt lat="42.0787550" lon="-8.6387060">
        <ele>45.8</ele>
        <time>2019-06-21T12:39:07Z</time>
      </trkpt>
      <trkpt lat="42.0791510" lon="-8.6388170">
        <ele>46.0</ele>
        <time>2019-06-21T12:39:14Z</time>
      </trkpt>
      <trkpt lat="42.0794360" lon="-8.6389220">
        <ele>46.2</ele>
        <time>2019-06-21T12:39:20Z</time>
      </trkpt>
      <trkpt lat="42.0797160" lon="-8.6390120">
        <ele>46.4</ele>
        <time>2019-06-21T12:39:26Z</time>
      </trkpt>
      <trkpt lat="42.0797650" lon="-8.6390160">
        <ele>46.6</ele>
        <time>2019-06-21T12:39:27Z</time>
      </trkpt>
      <trkpt lat="42.0798150" lon="-8.6390140">
        <ele>46.6</ele>
        <time>2019-06-21T12:39:28Z</time>
      </trkpt>
      <trkpt lat="42.0800800" lon="-8.6389890">
        <ele>47.2</ele>
        <time>2019-06-21T12:39:33Z</time>
      </trkpt>
      <trkpt lat="42.0804900" lon="-8.6390120">
        <ele>47.0</ele>
        <time>2019-06-21T12:39:41Z</time>
      </trkpt>
      <trkpt lat="42.0807470" lon="-8.6392070">
        <ele>46.2</ele>
        <time>2019-06-21T12:39:46Z</time>
      </trkpt>
      <trkpt lat="42.0808900" lon="-8.6393990">
        <ele>45.4</ele>
        <time>2019-06-21T12:39:49Z</time>
      </trkpt>
      <trkpt lat="42.0809700" lon="-8.6395450">
        <ele>44.8</ele>
        <time>2019-06-21T12:39:51Z</time>
      </trkpt>
      <trkpt lat="42.0810110" lon="-8.6396200">
        <ele>44.2</ele>
        <time>2019-06-21T12:39:52Z</time>
      </trkpt>
      <trkpt lat="42.0811280" lon="-8.6398640">
        <ele>43.4</ele>
        <time>2019-06-21T12:39:55Z</time>
      </trkpt>
      <trkpt lat="42.0811670" lon="-8.6399540">
        <ele>42.8</ele>
        <time>2019-06-21T12:39:56Z</time>
      </trkpt>
      <trkpt lat="42.0812080" lon="-8.6400430">
        <ele>42.4</ele>
        <time>2019-06-21T12:39:57Z</time>
      </trkpt>
      <trkpt lat="42.0813000" lon="-8.6402090">
        <ele>41.6</ele>
        <time>2019-06-21T12:39:59Z</time>
      </trkpt>
      <trkpt lat="42.0813550" lon="-8.6402780">
        <ele>41.0</ele>
        <time>2019-06-21T12:40:00Z</time>
      </trkpt>
      <trkpt lat="42.0814670" lon="-8.6403930">
        <ele>40.6</ele>
        <time>2019-06-21T12:40:02Z</time>
      </trkpt>
      <trkpt lat="42.0815270" lon="-8.6404390">
        <ele>40.4</ele>
        <time>2019-06-21T12:40:03Z</time>
      </trkpt>
      <trkpt lat="42.0816700" lon="-8.6405030">
        <ele>40.2</ele>
        <time>2019-06-21T12:40:05Z</time>
      </trkpt>
      <trkpt lat="42.0817360" lon="-8.6405340">
        <ele>40.2</ele>
        <time>2019-06-21T12:40:06Z</time>
      </trkpt>
      <trkpt lat="42.0821570" lon="-8.6407300">
        <ele>41.2</ele>
        <time>2019-06-21T12:40:13Z</time>
      </trkpt>
      <trkpt lat="42.0822110" lon="-8.6407570">
        <ele>41.4</ele>
        <time>2019-06-21T12:40:14Z</time>
      </trkpt>
      <trkpt lat="42.0823510" lon="-8.6408310">
        <ele>42.6</ele>
        <time>2019-06-21T12:40:17Z</time>
      </trkpt>
      <trkpt lat="42.0824210" lon="-8.6408650">
        <ele>42.6</ele>
        <time>2019-06-21T12:40:19Z</time>
      </trkpt>
      <trkpt lat="42.0825350" lon="-8.6409480">
        <ele>42.8</ele>
        <time>2019-06-21T12:40:24Z</time>
      </trkpt>
      <trkpt lat="42.0825870" lon="-8.6409780">
        <ele>42.8</ele>
        <time>2019-06-21T12:40:28Z</time>
      </trkpt>
      <trkpt lat="42.0826000" lon="-8.6409770">
        <ele>42.6</ele>
        <time>2019-06-21T12:40:29Z</time>
      </trkpt>
      <trkpt lat="42.0826140" lon="-8.6409840">
        <ele>42.6</ele>
        <time>2019-06-21T12:40:30Z</time>
      </trkpt>
      <trkpt lat="42.0826800" lon="-8.6409570">
        <ele>42.6</ele>
        <time>2019-06-21T12:40:34Z</time>
      </trkpt>
      <trkpt lat="42.0827130" lon="-8.6408980">
        <ele>43.0</ele>
        <time>2019-06-21T12:40:37Z</time>
      </trkpt>
      <trkpt lat="42.0827280" lon="-8.6408580">
        <ele>43.6</ele>
        <time>2019-06-21T12:40:39Z</time>
      </trkpt>
      <trkpt lat="42.0827340" lon="-8.6408380">
        <ele>44.2</ele>
        <time>2019-06-21T12:40:40Z</time>
      </trkpt>
      <trkpt lat="42.0827390" lon="-8.6408190">
        <ele>44.4</ele>
        <time>2019-06-21T12:40:41Z</time>
      </trkpt>
      <trkpt lat="42.0827440" lon="-8.6408020">
        <ele>44.6</ele>
        <time>2019-06-21T12:40:42Z</time>
      </trkpt>
      <trkpt lat="42.0827550" lon="-8.6407180">
        <ele>45.4</ele>
        <time>2019-06-21T12:40:46Z</time>
      </trkpt>
      <trkpt lat="42.0827550" lon="-8.6406720">
        <ele>45.4</ele>
        <time>2019-06-21T12:40:48Z</time>
      </trkpt>
      <trkpt lat="42.0827620" lon="-8.6405690">
        <ele>45.8</ele>
        <time>2019-06-21T12:40:52Z</time>
      </trkpt>
      <trkpt lat="42.0827660" lon="-8.6404990">
        <ele>46.0</ele>
        <time>2019-06-21T12:40:55Z</time>
      </trkpt>
      <trkpt lat="42.0827380" lon="-8.6403450">
        <ele>46.6</ele>
        <time>2019-06-21T12:41:03Z</time>
      </trkpt>
      <trkpt lat="42.0827470" lon="-8.6403190">
        <ele>47.0</ele>
        <time>2019-06-21T12:41:04Z</time>
      </trkpt>
      <trkpt lat="42.0827780" lon="-8.6402170">
        <ele>47.6</ele>
        <time>2019-06-21T12:41:08Z</time>
      </trkpt>
      <trkpt lat="42.0828020" lon="-8.6401450">
        <ele>48.0</ele>
        <time>2019-06-21T12:41:11Z</time>
      </trkpt>
      <trkpt lat="42.0828470" lon="-8.6399950">
        <ele>49.0</ele>
        <time>2019-06-21T12:41:17Z</time>
      </trkpt>
      <trkpt lat="42.0828880" lon="-8.6398660">
        <ele>50.2</ele>
        <time>2019-06-21T12:41:23Z</time>
      </trkpt>
      <trkpt lat="42.0829110" lon="-8.6398240">
        <ele>50.6</ele>
        <time>2019-06-21T12:41:25Z</time>
      </trkpt>
      <trkpt lat="42.0829380" lon="-8.6397520">
        <ele>51.2</ele>
        <time>2019-06-21T12:41:28Z</time>
      </trkpt>
      <trkpt lat="42.0829550" lon="-8.6397010">
        <ele>51.6</ele>
        <time>2019-06-21T12:41:30Z</time>
      </trkpt>
      <trkpt lat="42.0829790" lon="-8.6396250">
        <ele>51.8</ele>
        <time>2019-06-21T12:41:33Z</time>
      </trkpt>
      <trkpt lat="42.0830260" lon="-8.6394910">
        <ele>52.4</ele>
        <time>2019-06-21T12:41:38Z</time>
      </trkpt>
      <trkpt lat="42.0830470" lon="-8.6394450">
        <ele>52.4</ele>
        <time>2019-06-21T12:41:40Z</time>
      </trkpt>
      <trkpt lat="42.0831460" lon="-8.6392140">
        <ele>53.0</ele>
        <time>2019-06-21T12:41:48Z</time>
      </trkpt>
      <trkpt lat="42.0832550" lon="-8.6390230">
        <ele>53.0</ele>
        <time>2019-06-21T12:41:54Z</time>
      </trkpt>
      <trkpt lat="42.0834360" lon="-8.6387510">
        <ele>51.6</ele>
        <time>2019-06-21T12:42:00Z</time>
      </trkpt>
      <trkpt lat="42.0834840" lon="-8.6387080">
        <ele>51.2</ele>
        <time>2019-06-21T12:42:01Z</time>
      </trkpt>
      <trkpt lat="42.0837090" lon="-8.6385200">
        <ele>50.0</ele>
        <time>2019-06-21T12:42:05Z</time>
      </trkpt>
      <trkpt lat="42.0837720" lon="-8.6384800">
        <ele>49.8</ele>
        <time>2019-06-21T12:42:06Z</time>
      </trkpt>
      <trkpt lat="42.0838970" lon="-8.6383900">
        <ele>49.6</ele>
        <time>2019-06-21T12:42:08Z</time>
      </trkpt>
      <trkpt lat="42.0839540" lon="-8.6383370">
        <ele>49.2</ele>
        <time>2019-06-21T12:42:09Z</time>
      </trkpt>
      <trkpt lat="42.0840180" lon="-8.6382850">
        <ele>48.4</ele>
        <time>2019-06-21T12:42:10Z</time>
      </trkpt>
      <trkpt lat="42.0840900" lon="-8.6382590">
        <ele>47.8</ele>
        <time>2019-06-21T12:42:11Z</time>
      </trkpt>
      <trkpt lat="42.0841590" lon="-8.6382280">
        <ele>47.4</ele>
        <time>2019-06-21T12:42:12Z</time>
      </trkpt>
      <trkpt lat="42.0842260" lon="-8.6381870">
        <ele>47.2</ele>
        <time>2019-06-21T12:42:13Z</time>
      </trkpt>
      <trkpt lat="42.0843800" lon="-8.6380900">
        <ele>46.0</ele>
        <time>2019-06-21T12:42:15Z</time>
      </trkpt>
      <trkpt lat="42.0844640" lon="-8.6380330">
        <ele>44.4</ele>
        <time>2019-06-21T12:42:16Z</time>
      </trkpt>
      <trkpt lat="42.0845520" lon="-8.6379810">
        <ele>44.0</ele>
        <time>2019-06-21T12:42:17Z</time>
      </trkpt>
      <trkpt lat="42.0846370" lon="-8.6379170">
        <ele>43.2</ele>
        <time>2019-06-21T12:42:18Z</time>
      </trkpt>
      <trkpt lat="42.0848810" lon="-8.6377290">
        <ele>42.6</ele>
        <time>2019-06-21T12:42:21Z</time>
      </trkpt>
      <trkpt lat="42.0849500" lon="-8.6376480">
        <ele>42.2</ele>
        <time>2019-06-21T12:42:22Z</time>
      </trkpt>
      <trkpt lat="42.0850640" lon="-8.6374650">
        <ele>41.0</ele>
        <time>2019-06-21T12:42:24Z</time>
      </trkpt>
      <trkpt lat="42.0851840" lon="-8.6372960">
        <ele>39.8</ele>
        <time>2019-06-21T12:42:26Z</time>
      </trkpt>
      <trkpt lat="42.0853210" lon="-8.6371730">
        <ele>38.6</ele>
        <time>2019-06-21T12:42:28Z</time>
      </trkpt>
      <trkpt lat="42.0856200" lon="-8.6371200">
        <ele>37.4</ele>
        <time>2019-06-21T12:42:32Z</time>
      </trkpt>
      <trkpt lat="42.0857620" lon="-8.6372140">
        <ele>36.4</ele>
        <time>2019-06-21T12:42:34Z</time>
      </trkpt>
      <trkpt lat="42.0858320" lon="-8.6372820">
        <ele>36.0</ele>
        <time>2019-06-21T12:42:35Z</time>
      </trkpt>
      <trkpt lat="42.0858920" lon="-8.6373390">
        <ele>35.2</ele>
        <time>2019-06-21T12:42:36Z</time>
      </trkpt>
      <trkpt lat="42.0859920" lon="-8.6374140">
        <ele>34.0</ele>
        <time>2019-06-21T12:42:38Z</time>
      </trkpt>
      <trkpt lat="42.0860520" lon="-8.6374420">
        <ele>32.8</ele>
        <time>2019-06-21T12:42:40Z</time>
      </trkpt>
      <trkpt lat="42.0860780" lon="-8.6374510">
        <ele>32.6</ele>
        <time>2019-06-21T12:42:41Z</time>
      </trkpt>
      <trkpt lat="42.0861660" lon="-8.6374510">
        <ele>32.6</ele>
        <time>2019-06-21T12:42:45Z</time>
      </trkpt>
      <trkpt lat="42.0862960" lon="-8.6374610">
        <ele>31.8</ele>
        <time>2019-06-21T12:42:53Z</time>
      </trkpt>
      <trkpt lat="42.0863220" lon="-8.6375100">
        <ele>31.8</ele>
        <time>2019-06-21T12:42:56Z</time>
      </trkpt>
      <trkpt lat="42.0863340" lon="-8.6375260">
        <ele>32.0</ele>
        <time>2019-06-21T12:42:57Z</time>
      </trkpt>
      <trkpt lat="42.0863580" lon="-8.6375580">
        <ele>32.2</ele>
        <time>2019-06-21T12:42:59Z</time>
      </trkpt>
      <trkpt lat="42.0864740" lon="-8.6377560">
        <ele>32.4</ele>
        <time>2019-06-21T12:43:06Z</time>
      </trkpt>
      <trkpt lat="42.0865800" lon="-8.6379340">
        <ele>32.6</ele>
        <time>2019-06-21T12:43:12Z</time>
      </trkpt>
      <trkpt lat="42.0866740" lon="-8.6380710">
        <ele>32.6</ele>
        <time>2019-06-21T12:43:16Z</time>
      </trkpt>
      <trkpt lat="42.0867350" lon="-8.6381370">
        <ele>32.6</ele>
        <time>2019-06-21T12:43:18Z</time>
      </trkpt>
      <trkpt lat="42.0867660" lon="-8.6381690">
        <ele>32.8</ele>
        <time>2019-06-21T12:43:19Z</time>
      </trkpt>
      <trkpt lat="42.0869060" lon="-8.6383270">
        <ele>32.6</ele>
        <time>2019-06-21T12:43:24Z</time>
      </trkpt>
      <trkpt lat="42.0871310" lon="-8.6385720">
        <ele>32.6</ele>
        <time>2019-06-21T12:43:31Z</time>
      </trkpt>
      <trkpt lat="42.0873460" lon="-8.6387530">
        <ele>32.8</ele>
        <time>2019-06-21T12:43:37Z</time>
      </trkpt>
      <trkpt lat="42.0875950" lon="-8.6389440">
        <ele>33.0</ele>
        <time>2019-06-21T12:43:43Z</time>
      </trkpt>
      <trkpt lat="42.0878960" lon="-8.6390770">
        <ele>32.8</ele>
        <time>2019-06-21T12:43:50Z</time>
      </trkpt>
      <trkpt lat="42.0881460" lon="-8.6391830">
        <ele>33.0</ele>
        <time>2019-06-21T12:43:56Z</time>
      </trkpt>
      <trkpt lat="42.0883670" lon="-8.6391660">
        <ele>32.8</ele>
        <time>2019-06-21T12:44:01Z</time>
      </trkpt>
      <trkpt lat="42.0885080" lon="-8.6391620">
        <ele>32.8</ele>
        <time>2019-06-21T12:44:04Z</time>
      </trkpt>
      <trkpt lat="42.0886480" lon="-8.6391910">
        <ele>32.8</ele>
        <time>2019-06-21T12:44:07Z</time>
      </trkpt>
      <trkpt lat="42.0886940" lon="-8.6392120">
        <ele>32.8</ele>
        <time>2019-06-21T12:44:08Z</time>
      </trkpt>
      <trkpt lat="42.0888330" lon="-8.6392700">
        <ele>32.6</ele>
        <time>2019-06-21T12:44:11Z</time>
      </trkpt>
      <trkpt lat="42.0888760" lon="-8.6392850">
        <ele>32.6</ele>
        <time>2019-06-21T12:44:12Z</time>
      </trkpt>
      <trkpt lat="42.0891770" lon="-8.6393370">
        <ele>32.8</ele>
        <time>2019-06-21T12:44:19Z</time>
      </trkpt>
      <trkpt lat="42.0893760" lon="-8.6393390">
        <ele>33.0</ele>
        <time>2019-06-21T12:44:24Z</time>
      </trkpt>
      <trkpt lat="42.0896530" lon="-8.6392000">
        <ele>32.6</ele>
        <time>2019-06-21T12:44:30Z</time>
      </trkpt>
      <trkpt lat="42.0898030" lon="-8.6391160">
        <ele>32.8</ele>
        <time>2019-06-21T12:44:34Z</time>
      </trkpt>
      <trkpt lat="42.0899290" lon="-8.6391220">
        <ele>33.0</ele>
        <time>2019-06-21T12:44:37Z</time>
      </trkpt>
      <trkpt lat="42.0900280" lon="-8.6391410">
        <ele>32.8</ele>
        <time>2019-06-21T12:44:39Z</time>
      </trkpt>
      <trkpt lat="42.0902690" lon="-8.6391980">
        <ele>33.6</ele>
        <time>2019-06-21T12:44:45Z</time>
      </trkpt>
      <trkpt lat="42.0903520" lon="-8.6392460">
        <ele>34.0</ele>
        <time>2019-06-21T12:44:48Z</time>
      </trkpt>
      <trkpt lat="42.0904140" lon="-8.6392660">
        <ele>34.4</ele>
        <time>2019-06-21T12:44:51Z</time>
      </trkpt>
      <trkpt lat="42.0904670" lon="-8.6392850">
        <ele>35.2</ele>
        <time>2019-06-21T12:44:55Z</time>
      </trkpt>
      <trkpt lat="42.0905120" lon="-8.6392980">
        <ele>35.8</ele>
        <time>2019-06-21T12:44:58Z</time>
      </trkpt>
      <trkpt lat="42.0905350" lon="-8.6392960">
        <ele>36.4</ele>
        <time>2019-06-21T12:45:01Z</time>
      </trkpt>
      <trkpt lat="42.0906140" lon="-8.6392950">
        <ele>37.6</ele>
        <time>2019-06-21T12:45:05Z</time>
      </trkpt>
      <trkpt lat="42.0906750" lon="-8.6392960">
        <ele>38.2</ele>
        <time>2019-06-21T12:45:09Z</time>
      </trkpt>
      <trkpt lat="42.0907120" lon="-8.6392940">
        <ele>38.6</ele>
        <time>2019-06-21T12:45:11Z</time>
      </trkpt>
      <trkpt lat="42.0907500" lon="-8.6392850">
        <ele>39.0</ele>
        <time>2019-06-21T12:45:13Z</time>
      </trkpt>
      <trkpt lat="42.0908020" lon="-8.6392820">
        <ele>39.6</ele>
        <time>2019-06-21T12:45:16Z</time>
      </trkpt>
      <trkpt lat="42.0908180" lon="-8.6392830">
        <ele>39.8</ele>
        <time>2019-06-21T12:45:17Z</time>
      </trkpt>
      <trkpt lat="42.0908950" lon="-8.6392890">
        <ele>40.6</ele>
        <time>2019-06-21T12:45:21Z</time>
      </trkpt>
      <trkpt lat="42.0909310" lon="-8.6392940">
        <ele>40.8</ele>
        <time>2019-06-21T12:45:23Z</time>
      </trkpt>
      <trkpt lat="42.0909940" lon="-8.6393080">
        <ele>41.2</ele>
        <time>2019-06-21T12:45:26Z</time>
      </trkpt>
      <trkpt lat="42.0910170" lon="-8.6393110">
        <ele>41.2</ele>
        <time>2019-06-21T12:45:27Z</time>
      </trkpt>
      <trkpt lat="42.0911910" lon="-8.6393370">
        <ele>41.8</ele>
        <time>2019-06-21T12:45:33Z</time>
      </trkpt>
      <trkpt lat="42.0912190" lon="-8.6393320">
        <ele>42.0</ele>
        <time>2019-06-21T12:45:34Z</time>
      </trkpt>
      <trkpt lat="42.0914260" lon="-8.6393460">
        <ele>42.6</ele>
        <time>2019-06-21T12:45:42Z</time>
      </trkpt>
      <trkpt lat="42.0914690" lon="-8.6393310">
        <ele>43.0</ele>
        <time>2019-06-21T12:45:44Z</time>
      </trkpt>
      <trkpt lat="42.0915080" lon="-8.6393210">
        <ele>43.4</ele>
        <time>2019-06-21T12:45:46Z</time>
      </trkpt>
      <trkpt lat="42.0915500" lon="-8.6393170">
        <ele>43.6</ele>
        <time>2019-06-21T12:45:48Z</time>
      </trkpt>
      <trkpt lat="42.0916230" lon="-8.6393230">
        <ele>44.0</ele>
        <time>2019-06-21T12:45:51Z</time>
      </trkpt>
      <trkpt lat="42.0917430" lon="-8.6393240">
        <ele>44.2</ele>
        <time>2019-06-21T12:45:55Z</time>
      </trkpt>
      <trkpt lat="42.0919550" lon="-8.6392940">
        <ele>44.2</ele>
        <time>2019-06-21T12:46:01Z</time>
      </trkpt>
      <trkpt lat="42.0919890" lon="-8.6392850">
        <ele>44.2</ele>
        <time>2019-06-21T12:46:02Z</time>
      </trkpt>
      <trkpt lat="42.0921630" lon="-8.6392000">
        <ele>44.4</ele>
        <time>2019-06-21T12:46:07Z</time>
      </trkpt>
      <trkpt lat="42.0923530" lon="-8.6391110">
        <ele>44.2</ele>
        <time>2019-06-21T12:46:13Z</time>
      </trkpt>
      <trkpt lat="42.0924250" lon="-8.6390990">
        <ele>44.2</ele>
        <time>2019-06-21T12:46:15Z</time>
      </trkpt>
      <trkpt lat="42.0926150" lon="-8.6390540">
        <ele>44.4</ele>
        <time>2019-06-21T12:46:21Z</time>
      </trkpt>
      <trkpt lat="42.0927160" lon="-8.6390210">
        <ele>44.4</ele>
        <time>2019-06-21T12:46:24Z</time>
      </trkpt>
      <trkpt lat="42.0928180" lon="-8.6389890">
        <ele>44.6</ele>
        <time>2019-06-21T12:46:27Z</time>
      </trkpt>
      <trkpt lat="42.0928860" lon="-8.6389780">
        <ele>44.6</ele>
        <time>2019-06-21T12:46:29Z</time>
      </trkpt>
      <trkpt lat="42.0930840" lon="-8.6389410">
        <ele>44.8</ele>
        <time>2019-06-21T12:46:35Z</time>
      </trkpt>
      <trkpt lat="42.0931430" lon="-8.6389220">
        <ele>45.2</ele>
        <time>2019-06-21T12:46:37Z</time>
      </trkpt>
      <trkpt lat="42.0934060" lon="-8.6388380">
        <ele>46.2</ele>
        <time>2019-06-21T12:46:46Z</time>
      </trkpt>
      <trkpt lat="42.0936090" lon="-8.6387610">
        <ele>47.0</ele>
        <time>2019-06-21T12:46:54Z</time>
      </trkpt>
      <trkpt lat="42.0937110" lon="-8.6387430">
        <ele>47.2</ele>
        <time>2019-06-21T12:46:58Z</time>
      </trkpt>
      <trkpt lat="42.0937800" lon="-8.6387490">
        <ele>47.2</ele>
        <time>2019-06-21T12:47:01Z</time>
      </trkpt>
      <trkpt lat="42.0938680" lon="-8.6387400">
        <ele>47.2</ele>
        <time>2019-06-21T12:47:06Z</time>
      </trkpt>
      <trkpt lat="42.0938870" lon="-8.6387360">
        <ele>47.0</ele>
        <time>2019-06-21T12:47:07Z</time>
      </trkpt>
      <trkpt lat="42.0939990" lon="-8.6386970">
        <ele>46.6</ele>
        <time>2019-06-21T12:47:12Z</time>
      </trkpt>
      <trkpt lat="42.0940220" lon="-8.6386890">
        <ele>46.4</ele>
        <time>2019-06-21T12:47:13Z</time>
      </trkpt>
      <trkpt lat="42.0941210" lon="-8.6386350">
        <ele>46.4</ele>
        <time>2019-06-21T12:47:17Z</time>
      </trkpt>
      <trkpt lat="42.0941480" lon="-8.6386250">
        <ele>46.4</ele>
        <time>2019-06-21T12:47:18Z</time>
      </trkpt>
      <trkpt lat="42.0943620" lon="-8.6384900">
        <ele>46.8</ele>
        <time>2019-06-21T12:47:26Z</time>
      </trkpt>
      <trkpt lat="42.0945760" lon="-8.6383990">
        <ele>48.0</ele>
        <time>2019-06-21T12:47:33Z</time>
      </trkpt>
      <trkpt lat="42.0946300" lon="-8.6383810">
        <ele>48.4</ele>
        <time>2019-06-21T12:47:35Z</time>
      </trkpt>
      <trkpt lat="42.0947760" lon="-8.6383220">
        <ele>49.2</ele>
        <time>2019-06-21T12:47:41Z</time>
      </trkpt>
      <trkpt lat="42.0948000" lon="-8.6383160">
        <ele>49.4</ele>
        <time>2019-06-21T12:47:42Z</time>
      </trkpt>
      <trkpt lat="42.0949100" lon="-8.6382960">
        <ele>50.2</ele>
        <time>2019-06-21T12:47:48Z</time>
      </trkpt>
      <trkpt lat="42.0949670" lon="-8.6382570">
        <ele>50.4</ele>
        <time>2019-06-21T12:47:52Z</time>
      </trkpt>
      <trkpt lat="42.0949830" lon="-8.6382480">
        <ele>50.6</ele>
        <time>2019-06-21T12:47:53Z</time>
      </trkpt>
      <trkpt lat="42.0950580" lon="-8.6382550">
        <ele>51.0</ele>
        <time>2019-06-21T12:47:59Z</time>
      </trkpt>
      <trkpt lat="42.0950760" lon="-8.6382820">
        <ele>51.0</ele>
        <time>2019-06-21T12:48:05Z</time>
      </trkpt>
      <trkpt lat="42.0950890" lon="-8.6382920">
        <ele>50.8</ele>
        <time>2019-06-21T12:48:14Z</time>
      </trkpt>
      <trkpt lat="42.0950890" lon="-8.6382920">
        <ele>51.0</ele>
        <time>2019-06-21T12:48:23Z</time>
      </trkpt>
      <trkpt lat="42.0950890" lon="-8.6382920">
        <ele>51.0</ele>
        <time>2019-06-21T12:48:28Z</time>
      </trkpt>
      <trkpt lat="42.0950890" lon="-8.6382920">
        <ele>50.8</ele>
        <time>2019-06-21T12:48:33Z</time>
      </trkpt>
      <trkpt lat="42.0950890" lon="-8.6382920">
        <ele>51.0</ele>
        <time>2019-06-21T12:48:45Z</time>
      </trkpt>
      <trkpt lat="42.0950890" lon="-8.6382920">
        <ele>51.0</ele>
        <time>2019-06-21T12:48:55Z</time>
      </trkpt>
      <trkpt lat="42.0950890" lon="-8.6382920">
        <ele>51.0</ele>
        <time>2019-06-21T12:48:59Z</time>
      </trkpt>
      <trkpt lat="42.0950890" lon="-8.6382920">
        <ele>51.0</ele>
        <time>2019-06-21T12:49:00Z</time>
      </trkpt>
      <trkpt lat="42.0950890" lon="-8.6382920">
        <ele>51.0</ele>
        <time>2019-06-21T12:49:06Z</time>
      </trkpt>
      <trkpt lat="42.0950890" lon="-8.6382920">
        <ele>51.0</ele>
        <time>2019-06-21T12:49:19Z</time>
      </trkpt>
      <trkpt lat="42.0950890" lon="-8.6382920">
        <ele>51.0</ele>
        <time>2019-06-21T12:49:27Z</time>
      </trkpt>
      <trkpt lat="42.0950900" lon="-8.6382920">
        <ele>51.0</ele>
        <time>2019-06-21T12:49:30Z</time>
      </trkpt>
      <trkpt lat="42.0950900" lon="-8.6382920">
        <ele>51.0</ele>
        <time>2019-06-21T12:49:35Z</time>
      </trkpt>
      <trkpt lat="42.0950900" lon="-8.6382920">
        <ele>51.0</ele>
        <time>2019-06-21T12:49:50Z</time>
      </trkpt>
      <trkpt lat="42.0950900" lon="-8.6382920">
        <ele>51.0</ele>
        <time>2019-06-21T12:49:54Z</time>
      </trkpt>
      <trkpt lat="42.0950990" lon="-8.6382860">
        <ele>51.0</ele>
        <time>2019-06-21T12:50:03Z</time>
      </trkpt>
      <trkpt lat="42.0950990" lon="-8.6382860">
        <ele>51.0</ele>
        <time>2019-06-21T12:50:17Z</time>
      </trkpt>
      <trkpt lat="42.0950990" lon="-8.6382860">
        <ele>51.2</ele>
        <time>2019-06-21T12:50:23Z</time>
      </trkpt>
      <trkpt lat="42.0950990" lon="-8.6382860">
        <ele>51.0</ele>
        <time>2019-06-21T12:50:29Z</time>
      </trkpt>
      <trkpt lat="42.0950990" lon="-8.6382860">
        <ele>51.0</ele>
        <time>2019-06-21T12:50:33Z</time>
      </trkpt>
      <trkpt lat="42.0951010" lon="-8.6382860">
        <ele>51.4</ele>
        <time>2019-06-21T12:50:41Z</time>
      </trkpt>
      <trkpt lat="42.0951010" lon="-8.6382860">
        <ele>51.2</ele>
        <time>2019-06-21T12:50:52Z</time>
      </trkpt>
      <trkpt lat="42.0949840" lon="-8.6382510">
        <ele>52.2</ele>
        <time>2019-06-21T13:44:19Z</time>
      </trkpt>
      <trkpt lat="42.0949640" lon="-8.6382730">
        <ele>52.0</ele>
        <time>2019-06-21T13:44:20Z</time>
      </trkpt>
      <trkpt lat="42.0949410" lon="-8.6383280">
        <ele>51.8</ele>
        <time>2019-06-21T13:44:22Z</time>
      </trkpt>
      <trkpt lat="42.0949620" lon="-8.6383880">
        <ele>51.8</ele>
        <time>2019-06-21T13:44:24Z</time>
      </trkpt>
      <trkpt lat="42.0950120" lon="-8.6384050">
        <ele>52.0</ele>
        <time>2019-06-21T13:44:27Z</time>
      </trkpt>
      <trkpt lat="42.0950330" lon="-8.6384060">
        <ele>52.0</ele>
        <time>2019-06-21T13:44:28Z</time>
      </trkpt>
      <trkpt lat="42.0951570" lon="-8.6383960">
        <ele>52.2</ele>
        <time>2019-06-21T13:44:34Z</time>
      </trkpt>
      <trkpt lat="42.0952120" lon="-8.6384040">
        <ele>52.6</ele>
        <time>2019-06-21T13:44:37Z</time>
      </trkpt>
      <trkpt lat="42.0952580" lon="-8.6384040">
        <ele>52.8</ele>
        <time>2019-06-21T13:44:39Z</time>
      </trkpt>
      <trkpt lat="42.0953310" lon="-8.6384220">
        <ele>52.6</ele>
        <time>2019-06-21T13:44:43Z</time>
      </trkpt>
      <trkpt lat="42.0953760" lon="-8.6384410">
        <ele>52.8</ele>
        <time>2019-06-21T13:44:45Z</time>
      </trkpt>
      <trkpt lat="42.0954130" lon="-8.6384570">
        <ele>53.6</ele>
        <time>2019-06-21T13:44:47Z</time>
      </trkpt>
      <trkpt lat="42.0954880" lon="-8.6384870">
        <ele>54.0</ele>
        <time>2019-06-21T13:44:51Z</time>
      </trkpt>
      <trkpt lat="42.0955260" lon="-8.6385220">
        <ele>54.2</ele>
        <time>2019-06-21T13:44:53Z</time>
      </trkpt>
      <trkpt lat="42.0955260" lon="-8.6385770">
        <ele>54.4</ele>
        <time>2019-06-21T13:44:55Z</time>
      </trkpt>
      <trkpt lat="42.0955130" lon="-8.6386690">
        <ele>54.6</ele>
        <time>2019-06-21T13:44:58Z</time>
      </trkpt>
      <trkpt lat="42.0955100" lon="-8.6387030">
        <ele>54.8</ele>
        <time>2019-06-21T13:44:59Z</time>
      </trkpt>
      <trkpt lat="42.0955120" lon="-8.6387960">
        <ele>55.0</ele>
        <time>2019-06-21T13:45:02Z</time>
      </trkpt>
      <trkpt lat="42.0954860" lon="-8.6389630">
        <ele>54.6</ele>
        <time>2019-06-21T13:45:07Z</time>
      </trkpt>
      <trkpt lat="42.0954200" lon="-8.6391570">
        <ele>54.6</ele>
        <time>2019-06-21T13:45:13Z</time>
      </trkpt>
      <trkpt lat="42.0954230" lon="-8.6393820">
        <ele>54.8</ele>
        <time>2019-06-21T13:45:19Z</time>
      </trkpt>
      <trkpt lat="42.0954320" lon="-8.6397070">
        <ele>54.6</ele>
        <time>2019-06-21T13:45:26Z</time>
      </trkpt>
      <trkpt lat="42.0954470" lon="-8.6400430">
        <ele>53.8</ele>
        <time>2019-06-21T13:45:31Z</time>
      </trkpt>
      <trkpt lat="42.0954510" lon="-8.6401130">
        <ele>53.8</ele>
        <time>2019-06-21T13:45:32Z</time>
      </trkpt>
      <trkpt lat="42.0954510" lon="-8.6401820">
        <ele>53.4</ele>
        <time>2019-06-21T13:45:33Z</time>
      </trkpt>
      <trkpt lat="42.0954920" lon="-8.6404900">
        <ele>53.0</ele>
        <time>2019-06-21T13:45:38Z</time>
      </trkpt>
      <trkpt lat="42.0955120" lon="-8.6405900">
        <ele>53.2</ele>
        <time>2019-06-21T13:45:40Z</time>
      </trkpt>
      <trkpt lat="42.0955630" lon="-8.6408260">
        <ele>54.0</ele>
        <time>2019-06-21T13:45:45Z</time>
      </trkpt>
      <trkpt lat="42.0955770" lon="-8.6408700">
        <ele>54.2</ele>
        <time>2019-06-21T13:45:46Z</time>
      </trkpt>
      <trkpt lat="42.0956090" lon="-8.6409880">
        <ele>54.6</ele>
        <time>2019-06-21T13:45:49Z</time>
      </trkpt>
      <trkpt lat="42.0956510" lon="-8.6410430">
        <ele>54.6</ele>
        <time>2019-06-21T13:45:52Z</time>
      </trkpt>
      <trkpt lat="42.0956650" lon="-8.6410430">
        <ele>54.4</ele>
        <time>2019-06-21T13:45:53Z</time>
      </trkpt>
      <trkpt lat="42.0957060" lon="-8.6410230">
        <ele>54.2</ele>
        <time>2019-06-21T13:45:56Z</time>
      </trkpt>
      <trkpt lat="42.0957160" lon="-8.6410140">
        <ele>54.8</ele>
        <time>2019-06-21T13:45:57Z</time>
      </trkpt>
      <trkpt lat="42.0957670" lon="-8.6410100">
        <ele>54.6</ele>
        <time>2019-06-21T13:46:00Z</time>
      </trkpt>
      <trkpt lat="42.0957990" lon="-8.6410150">
        <ele>55.0</ele>
        <time>2019-06-21T13:46:02Z</time>
      </trkpt>
      <trkpt lat="42.0958290" lon="-8.6410040">
        <ele>55.2</ele>
        <time>2019-06-21T13:46:04Z</time>
      </trkpt>
      <trkpt lat="42.0958730" lon="-8.6410310">
        <ele>55.6</ele>
        <time>2019-06-21T13:46:07Z</time>
      </trkpt>
      <trkpt lat="42.0958890" lon="-8.6410450">
        <ele>55.8</ele>
        <time>2019-06-21T13:46:08Z</time>
      </trkpt>
      <trkpt lat="42.0959970" lon="-8.6411940">
        <ele>56.0</ele>
        <time>2019-06-21T13:46:14Z</time>
      </trkpt>
      <trkpt lat="42.0961760" lon="-8.6413400">
        <ele>55.4</ele>
        <time>2019-06-21T13:46:20Z</time>
      </trkpt>
      <trkpt lat="42.0963500" lon="-8.6414640">
        <ele>54.6</ele>
        <time>2019-06-21T13:46:25Z</time>
      </trkpt>
      <trkpt lat="42.0964180" lon="-8.6415110">
        <ele>54.0</ele>
        <time>2019-06-21T13:46:27Z</time>
      </trkpt>
      <trkpt lat="42.0964680" lon="-8.6415390">
        <ele>53.4</ele>
        <time>2019-06-21T13:46:29Z</time>
      </trkpt>
      <trkpt lat="42.0964980" lon="-8.6415460">
        <ele>53.4</ele>
        <time>2019-06-21T13:46:31Z</time>
      </trkpt>
      <trkpt lat="42.0965150" lon="-8.6415380">
        <ele>53.4</ele>
        <time>2019-06-21T13:46:32Z</time>
      </trkpt>
      <trkpt lat="42.0966540" lon="-8.6415190">
        <ele>53.4</ele>
        <time>2019-06-21T13:46:38Z</time>
      </trkpt>
      <trkpt lat="42.0967370" lon="-8.6415000">
        <ele>54.0</ele>
        <time>2019-06-21T13:46:42Z</time>
      </trkpt>
      <trkpt lat="42.0967590" lon="-8.6414910">
        <ele>54.2</ele>
        <time>2019-06-21T13:46:43Z</time>
      </trkpt>
      <trkpt lat="42.0967780" lon="-8.6414820">
        <ele>54.4</ele>
        <time>2019-06-21T13:46:44Z</time>
      </trkpt>
      <trkpt lat="42.0968390" lon="-8.6414550">
        <ele>55.2</ele>
        <time>2019-06-21T13:46:47Z</time>
      </trkpt>
      <trkpt lat="42.0968590" lon="-8.6414430">
        <ele>55.6</ele>
        <time>2019-06-21T13:46:48Z</time>
      </trkpt>
      <trkpt lat="42.0969220" lon="-8.6414270">
        <ele>56.0</ele>
        <time>2019-06-21T13:46:51Z</time>
      </trkpt>
      <trkpt lat="42.0970240" lon="-8.6414060">
        <ele>56.6</ele>
        <time>2019-06-21T13:46:56Z</time>
      </trkpt>
      <trkpt lat="42.0971090" lon="-8.6413900">
        <ele>57.2</ele>
        <time>2019-06-21T13:47:00Z</time>
      </trkpt>
      <trkpt lat="42.0971950" lon="-8.6414010">
        <ele>57.6</ele>
        <time>2019-06-21T13:47:04Z</time>
      </trkpt>
      <trkpt lat="42.0972840" lon="-8.6414130">
        <ele>58.2</ele>
        <time>2019-06-21T13:47:08Z</time>
      </trkpt>
      <trkpt lat="42.0973650" lon="-8.6413870">
        <ele>58.6</ele>
        <time>2019-06-21T13:47:12Z</time>
      </trkpt>
      <trkpt lat="42.0973830" lon="-8.6413680">
        <ele>58.6</ele>
        <time>2019-06-21T13:47:13Z</time>
      </trkpt>
      <trkpt lat="42.0973960" lon="-8.6413440">
        <ele>58.8</ele>
        <time>2019-06-21T13:47:14Z</time>
      </trkpt>
      <trkpt lat="42.0974380" lon="-8.6411920">
        <ele>59.0</ele>
        <time>2019-06-21T13:47:19Z</time>
      </trkpt>
      <trkpt lat="42.0974370" lon="-8.6411570">
        <ele>59.0</ele>
        <time>2019-06-21T13:47:20Z</time>
      </trkpt>
      <trkpt lat="42.0974380" lon="-8.6410270">
        <ele>59.8</ele>
        <time>2019-06-21T13:47:24Z</time>
      </trkpt>
      <trkpt lat="42.0974260" lon="-8.6409260">
        <ele>60.0</ele>
        <time>2019-06-21T13:47:27Z</time>
      </trkpt>
      <trkpt lat="42.0973500" lon="-8.6407550">
        <ele>60.2</ele>
        <time>2019-06-21T13:47:32Z</time>
      </trkpt>
      <trkpt lat="42.0972740" lon="-8.6405770">
        <ele>60.2</ele>
        <time>2019-06-21T13:47:37Z</time>
      </trkpt>
      <trkpt lat="42.0972500" lon="-8.6404880">
        <ele>60.2</ele>
        <time>2019-06-21T13:47:39Z</time>
      </trkpt>
      <trkpt lat="42.0971580" lon="-8.6401580">
        <ele>60.4</ele>
        <time>2019-06-21T13:47:46Z</time>
      </trkpt>
      <trkpt lat="42.0971530" lon="-8.6400350">
        <ele>60.6</ele>
        <time>2019-06-21T13:47:49Z</time>
      </trkpt>
      <trkpt lat="42.0971520" lon="-8.6398750">
        <ele>60.4</ele>
        <time>2019-06-21T13:47:53Z</time>
      </trkpt>
      <trkpt lat="42.0972160" lon="-8.6397300">
        <ele>60.8</ele>
        <time>2019-06-21T13:47:57Z</time>
      </trkpt>
      <trkpt lat="42.0972420" lon="-8.6397020">
        <ele>60.8</ele>
        <time>2019-06-21T13:47:58Z</time>
      </trkpt>
      <trkpt lat="42.0974330" lon="-8.6395480">
        <ele>61.6</ele>
        <time>2019-06-21T13:48:05Z</time>
      </trkpt>
      <trkpt lat="42.0975240" lon="-8.6395100">
        <ele>61.8</ele>
        <time>2019-06-21T13:48:08Z</time>
      </trkpt>
      <trkpt lat="42.0976560" lon="-8.6394500">
        <ele>61.4</ele>
        <time>2019-06-21T13:48:12Z</time>
      </trkpt>
      <trkpt lat="42.0977890" lon="-8.6395000">
        <ele>61.0</ele>
        <time>2019-06-21T13:48:16Z</time>
      </trkpt>
      <trkpt lat="42.0978730" lon="-8.6396400">
        <ele>60.8</ele>
        <time>2019-06-21T13:48:20Z</time>
      </trkpt>
      <trkpt lat="42.0979030" lon="-8.6396720">
        <ele>60.6</ele>
        <time>2019-06-21T13:48:21Z</time>
      </trkpt>
      <trkpt lat="42.0980620" lon="-8.6398900">
        <ele>59.6</ele>
        <time>2019-06-21T13:48:26Z</time>
      </trkpt>
      <trkpt lat="42.0981060" lon="-8.6399680">
        <ele>58.6</ele>
        <time>2019-06-21T13:48:28Z</time>
      </trkpt>
      <trkpt lat="42.0981490" lon="-8.6400180">
        <ele>57.4</ele>
        <time>2019-06-21T13:48:30Z</time>
      </trkpt>
      <trkpt lat="42.0981700" lon="-8.6400270">
        <ele>57.2</ele>
        <time>2019-06-21T13:48:31Z</time>
      </trkpt>
      <trkpt lat="42.0981850" lon="-8.6400210">
        <ele>57.0</ele>
        <time>2019-06-21T13:48:32Z</time>
      </trkpt>
      <trkpt lat="42.0982520" lon="-8.6399220">
        <ele>56.0</ele>
        <time>2019-06-21T13:48:35Z</time>
      </trkpt>
      <trkpt lat="42.0982860" lon="-8.6397950">
        <ele>55.0</ele>
        <time>2019-06-21T13:48:37Z</time>
      </trkpt>
      <trkpt lat="42.0983300" lon="-8.6396400">
        <ele>53.6</ele>
        <time>2019-06-21T13:48:39Z</time>
      </trkpt>
      <trkpt lat="42.0983720" lon="-8.6394830">
        <ele>52.0</ele>
        <time>2019-06-21T13:48:41Z</time>
      </trkpt>
      <trkpt lat="42.0984200" lon="-8.6393260">
        <ele>50.2</ele>
        <time>2019-06-21T13:48:43Z</time>
      </trkpt>
      <trkpt lat="42.0984560" lon="-8.6391760">
        <ele>48.0</ele>
        <time>2019-06-21T13:48:45Z</time>
      </trkpt>
      <trkpt lat="42.0984710" lon="-8.6391050">
        <ele>47.4</ele>
        <time>2019-06-21T13:48:46Z</time>
      </trkpt>
      <trkpt lat="42.0985050" lon="-8.6389890">
        <ele>46.6</ele>
        <time>2019-06-21T13:48:48Z</time>
      </trkpt>
      <trkpt lat="42.0985260" lon="-8.6389400">
        <ele>46.2</ele>
        <time>2019-06-21T13:48:49Z</time>
      </trkpt>
      <trkpt lat="42.0985960" lon="-8.6388200">
        <ele>45.6</ele>
        <time>2019-06-21T13:48:52Z</time>
      </trkpt>
      <trkpt lat="42.0986990" lon="-8.6386320">
        <ele>44.4</ele>
        <time>2019-06-21T13:48:56Z</time>
      </trkpt>
      <trkpt lat="42.0987250" lon="-8.6385840">
        <ele>44.0</ele>
        <time>2019-06-21T13:48:57Z</time>
      </trkpt>
      <trkpt lat="42.0987910" lon="-8.6384860">
        <ele>43.0</ele>
        <time>2019-06-21T13:48:59Z</time>
      </trkpt>
      <trkpt lat="42.0988470" lon="-8.6383780">
        <ele>42.0</ele>
        <time>2019-06-21T13:49:01Z</time>
      </trkpt>
      <trkpt lat="42.0988990" lon="-8.6382760">
        <ele>41.0</ele>
        <time>2019-06-21T13:49:03Z</time>
      </trkpt>
      <trkpt lat="42.0989230" lon="-8.6382360">
        <ele>40.6</ele>
        <time>2019-06-21T13:49:04Z</time>
      </trkpt>
      <trkpt lat="42.0990170" lon="-8.6381840">
        <ele>39.2</ele>
        <time>2019-06-21T13:49:07Z</time>
      </trkpt>
      <trkpt lat="42.0990620" lon="-8.6382100">
        <ele>38.8</ele>
        <time>2019-06-21T13:49:08Z</time>
      </trkpt>
      <trkpt lat="42.0991930" lon="-8.6383150">
        <ele>38.2</ele>
        <time>2019-06-21T13:49:12Z</time>
      </trkpt>
      <trkpt lat="42.0993020" lon="-8.6383090">
        <ele>37.2</ele>
        <time>2019-06-21T13:49:16Z</time>
      </trkpt>
      <trkpt lat="42.0993960" lon="-8.6383040">
        <ele>37.4</ele>
        <time>2019-06-21T13:49:22Z</time>
      </trkpt>
      <trkpt lat="42.0994740" lon="-8.6382780">
        <ele>37.2</ele>
        <time>2019-06-21T13:49:26Z</time>
      </trkpt>
      <trkpt lat="42.0994870" lon="-8.6382730">
        <ele>37.0</ele>
        <time>2019-06-21T13:49:27Z</time>
      </trkpt>
      <trkpt lat="42.0995320" lon="-8.6382550">
        <ele>36.2</ele>
        <time>2019-06-21T13:49:30Z</time>
      </trkpt>
      <trkpt lat="42.0995380" lon="-8.6382250">
        <ele>36.2</ele>
        <time>2019-06-21T13:49:31Z</time>
      </trkpt>
      <trkpt lat="42.0995380" lon="-8.6381330">
        <ele>36.4</ele>
        <time>2019-06-21T13:49:34Z</time>
      </trkpt>
      <trkpt lat="42.0995310" lon="-8.6381020">
        <ele>36.2</ele>
        <time>2019-06-21T13:49:35Z</time>
      </trkpt>
      <trkpt lat="42.0995480" lon="-8.6379700">
        <ele>36.2</ele>
        <time>2019-06-21T13:49:38Z</time>
      </trkpt>
      <trkpt lat="42.0995870" lon="-8.6378900">
        <ele>36.2</ele>
        <time>2019-06-21T13:49:40Z</time>
      </trkpt>
      <trkpt lat="42.0997150" lon="-8.6377950">
        <ele>36.4</ele>
        <time>2019-06-21T13:49:44Z</time>
      </trkpt>
      <trkpt lat="42.0998910" lon="-8.6376980">
        <ele>36.0</ele>
        <time>2019-06-21T13:49:50Z</time>
      </trkpt>
      <trkpt lat="42.0999140" lon="-8.6376820">
        <ele>36.0</ele>
        <time>2019-06-21T13:49:51Z</time>
      </trkpt>
      <trkpt lat="42.1001460" lon="-8.6375510">
        <ele>36.0</ele>
        <time>2019-06-21T13:49:57Z</time>
      </trkpt>
      <trkpt lat="42.1003910" lon="-8.6374560">
        <ele>35.6</ele>
        <time>2019-06-21T13:50:03Z</time>
      </trkpt>
      <trkpt lat="42.1005650" lon="-8.6373500">
        <ele>35.6</ele>
        <time>2019-06-21T13:50:08Z</time>
      </trkpt>
      <trkpt lat="42.1008250" lon="-8.6372590">
        <ele>35.4</ele>
        <time>2019-06-21T13:50:15Z</time>
      </trkpt>
      <trkpt lat="42.1010720" lon="-8.6371740">
        <ele>35.8</ele>
        <time>2019-06-21T13:50:21Z</time>
      </trkpt>
      <trkpt lat="42.1011110" lon="-8.6371670">
        <ele>36.0</ele>
        <time>2019-06-21T13:50:22Z</time>
      </trkpt>
      <trkpt lat="42.1014000" lon="-8.6371810">
        <ele>36.0</ele>
        <time>2019-06-21T13:50:29Z</time>
      </trkpt>
      <trkpt lat="42.1016410" lon="-8.6371940">
        <ele>36.2</ele>
        <time>2019-06-21T13:50:35Z</time>
      </trkpt>
      <trkpt lat="42.1019190" lon="-8.6371910">
        <ele>36.2</ele>
        <time>2019-06-21T13:50:42Z</time>
      </trkpt>
      <trkpt lat="42.1020770" lon="-8.6371140">
        <ele>36.2</ele>
        <time>2019-06-21T13:50:47Z</time>
      </trkpt>
      <trkpt lat="42.1021380" lon="-8.6369060">
        <ele>35.8</ele>
        <time>2019-06-21T13:50:51Z</time>
      </trkpt>
      <trkpt lat="42.1022560" lon="-8.6366140">
        <ele>36.2</ele>
        <time>2019-06-21T13:50:56Z</time>
      </trkpt>
      <trkpt lat="42.1022820" lon="-8.6364530">
        <ele>36.4</ele>
        <time>2019-06-21T13:50:59Z</time>
      </trkpt>
      <trkpt lat="42.1022680" lon="-8.6363440">
        <ele>36.4</ele>
        <time>2019-06-21T13:51:01Z</time>
      </trkpt>
      <trkpt lat="42.1022530" lon="-8.6362910">
        <ele>36.4</ele>
        <time>2019-06-21T13:51:02Z</time>
      </trkpt>
      <trkpt lat="42.1022000" lon="-8.6361500">
        <ele>36.8</ele>
        <time>2019-06-21T13:51:05Z</time>
      </trkpt>
      <trkpt lat="42.1021860" lon="-8.6360990">
        <ele>36.8</ele>
        <time>2019-06-21T13:51:06Z</time>
      </trkpt>
      <trkpt lat="42.1021570" lon="-8.6359440">
        <ele>37.4</ele>
        <time>2019-06-21T13:51:09Z</time>
      </trkpt>
      <trkpt lat="42.1021210" lon="-8.6357970">
        <ele>37.4</ele>
        <time>2019-06-21T13:51:12Z</time>
      </trkpt>
      <trkpt lat="42.1020120" lon="-8.6355130">
        <ele>37.8</ele>
        <time>2019-06-21T13:51:19Z</time>
      </trkpt>
      <trkpt lat="42.1018960" lon="-8.6354410">
        <ele>38.4</ele>
        <time>2019-06-21T13:51:24Z</time>
      </trkpt>
      <trkpt lat="42.1017010" lon="-8.6353660">
        <ele>38.8</ele>
        <time>2019-06-21T13:51:30Z</time>
      </trkpt>
      <trkpt lat="42.1016310" lon="-8.6353270">
        <ele>39.4</ele>
        <time>2019-06-21T13:51:33Z</time>
      </trkpt>
      <trkpt lat="42.1015290" lon="-8.6352640">
        <ele>40.0</ele>
        <time>2019-06-21T13:51:38Z</time>
      </trkpt>
      <trkpt lat="42.1014800" lon="-8.6352300">
        <ele>40.6</ele>
        <time>2019-06-21T13:51:41Z</time>
      </trkpt>
      <trkpt lat="42.1014160" lon="-8.6352030">
        <ele>41.4</ele>
        <time>2019-06-21T13:51:45Z</time>
      </trkpt>
      <trkpt lat="42.1013560" lon="-8.6351830">
        <ele>41.8</ele>
        <time>2019-06-21T13:51:48Z</time>
      </trkpt>
      <trkpt lat="42.1012630" lon="-8.6351070">
        <ele>42.8</ele>
        <time>2019-06-21T13:51:54Z</time>
      </trkpt>
      <trkpt lat="42.1012310" lon="-8.6350190">
        <ele>43.8</ele>
        <time>2019-06-21T13:51:58Z</time>
      </trkpt>
      <trkpt lat="42.1012200" lon="-8.6349810">
        <ele>44.2</ele>
        <time>2019-06-21T13:52:00Z</time>
      </trkpt>
      <trkpt lat="42.1012020" lon="-8.6349280">
        <ele>45.0</ele>
        <time>2019-06-21T13:52:03Z</time>
      </trkpt>
      <trkpt lat="42.1012090" lon="-8.6348100">
        <ele>46.0</ele>
        <time>2019-06-21T13:52:08Z</time>
      </trkpt>
      <trkpt lat="42.1012350" lon="-8.6346920">
        <ele>47.0</ele>
        <time>2019-06-21T13:52:15Z</time>
      </trkpt>
      <trkpt lat="42.1012430" lon="-8.6346820">
        <ele>47.2</ele>
        <time>2019-06-21T13:52:16Z</time>
      </trkpt>
      <trkpt lat="42.1013040" lon="-8.6346410">
        <ele>48.2</ele>
        <time>2019-06-21T13:52:22Z</time>
      </trkpt>
      <trkpt lat="42.1013250" lon="-8.6346340">
        <ele>48.6</ele>
        <time>2019-06-21T13:52:24Z</time>
      </trkpt>
      <trkpt lat="42.1013550" lon="-8.6345970">
        <ele>49.2</ele>
        <time>2019-06-21T13:52:28Z</time>
      </trkpt>
      <trkpt lat="42.1014360" lon="-8.6345290">
        <ele>50.4</ele>
        <time>2019-06-21T13:52:35Z</time>
      </trkpt>
      <trkpt lat="42.1014870" lon="-8.6344670">
        <ele>51.4</ele>
        <time>2019-06-21T13:52:40Z</time>
      </trkpt>
      <trkpt lat="42.1015000" lon="-8.6344550">
        <ele>51.6</ele>
        <time>2019-06-21T13:52:41Z</time>
      </trkpt>
      <trkpt lat="42.1016050" lon="-8.6343590">
        <ele>51.8</ele>
        <time>2019-06-21T13:52:46Z</time>
      </trkpt>
      <trkpt lat="42.1016270" lon="-8.6343390">
        <ele>52.0</ele>
        <time>2019-06-21T13:52:47Z</time>
      </trkpt>
      <trkpt lat="42.1017560" lon="-8.6341620">
        <ele>52.2</ele>
        <time>2019-06-21T13:52:54Z</time>
      </trkpt>
      <trkpt lat="42.1018010" lon="-8.6340570">
        <ele>52.6</ele>
        <time>2019-06-21T13:52:57Z</time>
      </trkpt>
      <trkpt lat="42.1018410" lon="-8.6339480">
        <ele>52.8</ele>
        <time>2019-06-21T13:53:00Z</time>
      </trkpt>
      <trkpt lat="42.1019050" lon="-8.6338270">
        <ele>53.6</ele>
        <time>2019-06-21T13:53:05Z</time>
      </trkpt>
      <trkpt lat="42.1019180" lon="-8.6338090">
        <ele>53.6</ele>
        <time>2019-06-21T13:53:06Z</time>
      </trkpt>
      <trkpt lat="42.1019760" lon="-8.6337180">
        <ele>54.6</ele>
        <time>2019-06-21T13:53:12Z</time>
      </trkpt>
      <trkpt lat="42.1020560" lon="-8.6336000">
        <ele>55.6</ele>
        <time>2019-06-21T13:53:20Z</time>
      </trkpt>
      <trkpt lat="42.1020650" lon="-8.6335880">
        <ele>55.8</ele>
        <time>2019-06-21T13:53:21Z</time>
      </trkpt>
      <trkpt lat="42.1021340" lon="-8.6334750">
        <ele>56.8</ele>
        <time>2019-06-21T13:53:28Z</time>
      </trkpt>
      <trkpt lat="42.1021610" lon="-8.6334530">
        <ele>57.2</ele>
        <time>2019-06-21T13:53:31Z</time>
      </trkpt>
      <trkpt lat="42.1021940" lon="-8.6334800">
        <ele>57.0</ele>
        <time>2019-06-21T13:53:34Z</time>
      </trkpt>
      <trkpt lat="42.1022060" lon="-8.6335040">
        <ele>57.0</ele>
        <time>2019-06-21T13:53:36Z</time>
      </trkpt>
      <trkpt lat="42.1022520" lon="-8.6335450">
        <ele>57.2</ele>
        <time>2019-06-21T13:53:40Z</time>
      </trkpt>
      <trkpt lat="42.1023100" lon="-8.6336010">
        <ele>57.2</ele>
        <time>2019-06-21T13:53:45Z</time>
      </trkpt>
      <trkpt lat="42.1023450" lon="-8.6336200">
        <ele>57.2</ele>
        <time>2019-06-21T13:53:47Z</time>
      </trkpt>
      <trkpt lat="42.1024250" lon="-8.6336430">
        <ele>57.2</ele>
        <time>2019-06-21T13:53:51Z</time>
      </trkpt>
      <trkpt lat="42.1024720" lon="-8.6336330">
        <ele>57.2</ele>
        <time>2019-06-21T13:53:53Z</time>
      </trkpt>
      <trkpt lat="42.1025760" lon="-8.6336240">
        <ele>57.8</ele>
        <time>2019-06-21T13:53:58Z</time>
      </trkpt>
      <trkpt lat="42.1026200" lon="-8.6336310">
        <ele>57.8</ele>
        <time>2019-06-21T13:54:00Z</time>
      </trkpt>
      <trkpt lat="42.1026420" lon="-8.6336370">
        <ele>57.8</ele>
        <time>2019-06-21T13:54:01Z</time>
      </trkpt>
      <trkpt lat="42.1027490" lon="-8.6336680">
        <ele>56.8</ele>
        <time>2019-06-21T13:54:05Z</time>
      </trkpt>
      <trkpt lat="42.1028280" lon="-8.6337020">
        <ele>56.0</ele>
        <time>2019-06-21T13:54:07Z</time>
      </trkpt>
      <trkpt lat="42.1029180" lon="-8.6337280">
        <ele>55.4</ele>
        <time>2019-06-21T13:54:09Z</time>
      </trkpt>
      <trkpt lat="42.1029620" lon="-8.6337480">
        <ele>55.0</ele>
        <time>2019-06-21T13:54:10Z</time>
      </trkpt>
      <trkpt lat="42.1030450" lon="-8.6338200">
        <ele>54.0</ele>
        <time>2019-06-21T13:54:12Z</time>
      </trkpt>
      <trkpt lat="42.1031780" lon="-8.6339400">
        <ele>52.6</ele>
        <time>2019-06-21T13:54:15Z</time>
      </trkpt>
      <trkpt lat="42.1032650" lon="-8.6340350">
        <ele>52.0</ele>
        <time>2019-06-21T13:54:17Z</time>
      </trkpt>
      <trkpt lat="42.1033120" lon="-8.6340810">
        <ele>51.6</ele>
        <time>2019-06-21T13:54:18Z</time>
      </trkpt>
      <trkpt lat="42.1033570" lon="-8.6341210">
        <ele>51.0</ele>
        <time>2019-06-21T13:54:19Z</time>
      </trkpt>
      <trkpt lat="42.1033990" lon="-8.6341540">
        <ele>50.6</ele>
        <time>2019-06-21T13:54:20Z</time>
      </trkpt>
      <trkpt lat="42.1034680" lon="-8.6341880">
        <ele>49.8</ele>
        <time>2019-06-21T13:54:22Z</time>
      </trkpt>
      <trkpt lat="42.1035810" lon="-8.6342440">
        <ele>48.8</ele>
        <time>2019-06-21T13:54:26Z</time>
      </trkpt>
      <trkpt lat="42.1036070" lon="-8.6342620">
        <ele>48.2</ele>
        <time>2019-06-21T13:54:27Z</time>
      </trkpt>
      <trkpt lat="42.1036560" lon="-8.6343150">
        <ele>47.2</ele>
        <time>2019-06-21T13:54:29Z</time>
      </trkpt>
      <trkpt lat="42.1036960" lon="-8.6343600">
        <ele>46.2</ele>
        <time>2019-06-21T13:54:31Z</time>
      </trkpt>
      <trkpt lat="42.1037130" lon="-8.6343830">
        <ele>45.6</ele>
        <time>2019-06-21T13:54:32Z</time>
      </trkpt>
      <trkpt lat="42.1037360" lon="-8.6344130">
        <ele>45.0</ele>
        <time>2019-06-21T13:54:33Z</time>
      </trkpt>
      <trkpt lat="42.1038240" lon="-8.6345180">
        <ele>43.8</ele>
        <time>2019-06-21T13:54:36Z</time>
      </trkpt>
      <trkpt lat="42.1038860" lon="-8.6345850">
        <ele>42.4</ele>
        <time>2019-06-21T13:54:38Z</time>
      </trkpt>
      <trkpt lat="42.1039390" lon="-8.6346330">
        <ele>40.8</ele>
        <time>2019-06-21T13:54:40Z</time>
      </trkpt>
      <trkpt lat="42.1040150" lon="-8.6346750">
        <ele>39.6</ele>
        <time>2019-06-21T13:54:42Z</time>
      </trkpt>
      <trkpt lat="42.1041270" lon="-8.6347050">
        <ele>38.8</ele>
        <time>2019-06-21T13:54:44Z</time>
      </trkpt>
      <trkpt lat="42.1042380" lon="-8.6347080">
        <ele>38.4</ele>
        <time>2019-06-21T13:54:46Z</time>
      </trkpt>
      <trkpt lat="42.1043840" lon="-8.6347030">
        <ele>38.2</ele>
        <time>2019-06-21T13:54:49Z</time>
      </trkpt>
      <trkpt lat="42.1045050" lon="-8.6347110">
        <ele>38.2</ele>
        <time>2019-06-21T13:54:53Z</time>
      </trkpt>
      <trkpt lat="42.1045340" lon="-8.6347280">
        <ele>38.0</ele>
        <time>2019-06-21T13:54:54Z</time>
      </trkpt>
      <trkpt lat="42.1046070" lon="-8.6348150">
        <ele>38.0</ele>
        <time>2019-06-21T13:54:57Z</time>
      </trkpt>
      <trkpt lat="42.1046700" lon="-8.6349280">
        <ele>37.6</ele>
        <time>2019-06-21T13:55:00Z</time>
      </trkpt>
      <trkpt lat="42.1047620" lon="-8.6350790">
        <ele>37.6</ele>
        <time>2019-06-21T13:55:06Z</time>
      </trkpt>
      <trkpt lat="42.1047970" lon="-8.6351280">
        <ele>37.4</ele>
        <time>2019-06-21T13:55:08Z</time>
      </trkpt>
      <trkpt lat="42.1049080" lon="-8.6352790">
        <ele>37.2</ele>
        <time>2019-06-21T13:55:13Z</time>
      </trkpt>
      <trkpt lat="42.1050830" lon="-8.6354610">
        <ele>37.2</ele>
        <time>2019-06-21T13:55:18Z</time>
      </trkpt>
      <trkpt lat="42.1051650" lon="-8.6355440">
        <ele>37.4</ele>
        <time>2019-06-21T13:55:20Z</time>
      </trkpt>
      <trkpt lat="42.1054210" lon="-8.6358610">
        <ele>37.2</ele>
        <time>2019-06-21T13:55:28Z</time>
      </trkpt>
      <trkpt lat="42.1056050" lon="-8.6361550">
        <ele>37.6</ele>
        <time>2019-06-21T13:55:35Z</time>
      </trkpt>
      <trkpt lat="42.1056860" lon="-8.6363580">
        <ele>37.8</ele>
        <time>2019-06-21T13:55:39Z</time>
      </trkpt>
      <trkpt lat="42.1057300" lon="-8.6364940">
        <ele>38.6</ele>
        <time>2019-06-21T13:55:42Z</time>
      </trkpt>
      <trkpt lat="42.1057750" lon="-8.6366400">
        <ele>39.4</ele>
        <time>2019-06-21T13:55:46Z</time>
      </trkpt>
      <trkpt lat="42.1057860" lon="-8.6366770">
        <ele>39.8</ele>
        <time>2019-06-21T13:55:47Z</time>
      </trkpt>
      <trkpt lat="42.1058220" lon="-8.6367850">
        <ele>40.2</ele>
        <time>2019-06-21T13:55:50Z</time>
      </trkpt>
      <trkpt lat="42.1058610" lon="-8.6370030">
        <ele>40.4</ele>
        <time>2019-06-21T13:55:55Z</time>
      </trkpt>
      <trkpt lat="42.1058650" lon="-8.6370970">
        <ele>40.4</ele>
        <time>2019-06-21T13:55:57Z</time>
      </trkpt>
      <trkpt lat="42.1058630" lon="-8.6372790">
        <ele>40.8</ele>
        <time>2019-06-21T13:56:01Z</time>
      </trkpt>
      <trkpt lat="42.1058650" lon="-8.6374070">
        <ele>41.0</ele>
        <time>2019-06-21T13:56:04Z</time>
      </trkpt>
      <trkpt lat="42.1059130" lon="-8.6377330">
        <ele>41.6</ele>
        <time>2019-06-21T13:56:12Z</time>
      </trkpt>
      <trkpt lat="42.1059390" lon="-8.6377980">
        <ele>42.0</ele>
        <time>2019-06-21T13:56:14Z</time>
      </trkpt>
      <trkpt lat="42.1059920" lon="-8.6378520">
        <ele>42.4</ele>
        <time>2019-06-21T13:56:17Z</time>
      </trkpt>
      <trkpt lat="42.1061540" lon="-8.6378330">
        <ele>43.0</ele>
        <time>2019-06-21T13:56:23Z</time>
      </trkpt>
      <trkpt lat="42.1064430" lon="-8.6378390">
        <ele>43.4</ele>
        <time>2019-06-21T13:56:32Z</time>
      </trkpt>
      <trkpt lat="42.1065870" lon="-8.6378660">
        <ele>44.0</ele>
        <time>2019-06-21T13:56:36Z</time>
      </trkpt>
      <trkpt lat="42.1067250" lon="-8.6379140">
        <ele>44.4</ele>
        <time>2019-06-21T13:56:40Z</time>
      </trkpt>
      <trkpt lat="42.1068370" lon="-8.6380080">
        <ele>44.6</ele>
        <time>2019-06-21T13:56:45Z</time>
      </trkpt>
      <trkpt lat="42.1068420" lon="-8.6381390">
        <ele>45.2</ele>
        <time>2019-06-21T13:56:50Z</time>
      </trkpt>
      <trkpt lat="42.1068500" lon="-8.6382400">
        <ele>45.8</ele>
        <time>2019-06-21T13:56:53Z</time>
      </trkpt>
      <trkpt lat="42.1068750" lon="-8.6382810">
        <ele>46.2</ele>
        <time>2019-06-21T13:56:55Z</time>
      </trkpt>
      <trkpt lat="42.1069360" lon="-8.6383750">
        <ele>47.4</ele>
        <time>2019-06-21T13:57:01Z</time>
      </trkpt>
      <trkpt lat="42.1070150" lon="-8.6384750">
        <ele>48.4</ele>
        <time>2019-06-21T13:57:07Z</time>
      </trkpt>
      <trkpt lat="42.1070580" lon="-8.6385240">
        <ele>49.2</ele>
        <time>2019-06-21T13:57:10Z</time>
      </trkpt>
      <trkpt lat="42.1071450" lon="-8.6385800">
        <ele>49.4</ele>
        <time>2019-06-21T13:57:15Z</time>
      </trkpt>
      <trkpt lat="42.1071660" lon="-8.6385990">
        <ele>49.6</ele>
        <time>2019-06-21T13:57:16Z</time>
      </trkpt>
      <trkpt lat="42.1073060" lon="-8.6387100">
        <ele>50.2</ele>
        <time>2019-06-21T13:57:22Z</time>
      </trkpt>
      <trkpt lat="42.1073450" lon="-8.6387400">
        <ele>50.6</ele>
        <time>2019-06-21T13:57:24Z</time>
      </trkpt>
      <trkpt lat="42.1074420" lon="-8.6388720">
        <ele>51.6</ele>
        <time>2019-06-21T13:57:31Z</time>
      </trkpt>
      <trkpt lat="42.1074540" lon="-8.6388910">
        <ele>51.8</ele>
        <time>2019-06-21T13:57:32Z</time>
      </trkpt>
      <trkpt lat="42.1075050" lon="-8.6389570">
        <ele>53.0</ele>
        <time>2019-06-21T13:57:36Z</time>
      </trkpt>
      <trkpt lat="42.1076100" lon="-8.6390860">
        <ele>53.8</ele>
        <time>2019-06-21T13:57:42Z</time>
      </trkpt>
      <trkpt lat="42.1076320" lon="-8.6391300">
        <ele>54.0</ele>
        <time>2019-06-21T13:57:44Z</time>
      </trkpt>
      <trkpt lat="42.1077030" lon="-8.6392550">
        <ele>55.0</ele>
        <time>2019-06-21T13:57:51Z</time>
      </trkpt>
      <trkpt lat="42.1077120" lon="-8.6392720">
        <ele>55.2</ele>
        <time>2019-06-21T13:57:52Z</time>
      </trkpt>
      <trkpt lat="42.1077960" lon="-8.6393800">
        <ele>56.2</ele>
        <time>2019-06-21T13:57:58Z</time>
      </trkpt>
      <trkpt lat="42.1078140" lon="-8.6394050">
        <ele>56.4</ele>
        <time>2019-06-21T13:57:59Z</time>
      </trkpt>
      <trkpt lat="42.1078880" lon="-8.6395110">
        <ele>57.0</ele>
        <time>2019-06-21T13:58:04Z</time>
      </trkpt>
      <trkpt lat="42.1079400" lon="-8.6396080">
        <ele>57.4</ele>
        <time>2019-06-21T13:58:08Z</time>
      </trkpt>
      <trkpt lat="42.1080110" lon="-8.6396780">
        <ele>57.8</ele>
        <time>2019-06-21T13:58:12Z</time>
      </trkpt>
      <trkpt lat="42.1081090" lon="-8.6397700">
        <ele>58.4</ele>
        <time>2019-06-21T13:58:17Z</time>
      </trkpt>
      <trkpt lat="42.1081800" lon="-8.6398370">
        <ele>58.8</ele>
        <time>2019-06-21T13:58:21Z</time>
      </trkpt>
      <trkpt lat="42.1082500" lon="-8.6398940">
        <ele>59.6</ele>
        <time>2019-06-21T13:58:25Z</time>
      </trkpt>
      <trkpt lat="42.1083390" lon="-8.6399710">
        <ele>60.2</ele>
        <time>2019-06-21T13:58:30Z</time>
      </trkpt>
      <trkpt lat="42.1085430" lon="-8.6400600">
        <ele>60.2</ele>
        <time>2019-06-21T13:58:38Z</time>
      </trkpt>
      <trkpt lat="42.1086930" lon="-8.6400880">
        <ele>59.8</ele>
        <time>2019-06-21T13:58:42Z</time>
      </trkpt>
      <trkpt lat="42.1087950" lon="-8.6401270">
        <ele>59.8</ele>
        <time>2019-06-21T13:58:45Z</time>
      </trkpt>
      <trkpt lat="42.1089700" lon="-8.6403280">
        <ele>59.8</ele>
        <time>2019-06-21T13:58:51Z</time>
      </trkpt>
      <trkpt lat="42.1090750" lon="-8.6405360">
        <ele>59.6</ele>
        <time>2019-06-21T13:58:55Z</time>
      </trkpt>
      <trkpt lat="42.1091830" lon="-8.6406700">
        <ele>59.4</ele>
        <time>2019-06-21T13:58:58Z</time>
      </trkpt>
      <trkpt lat="42.1092860" lon="-8.6407990">
        <ele>59.2</ele>
        <time>2019-06-21T13:59:01Z</time>
      </trkpt>
      <trkpt lat="42.1094060" lon="-8.6409240">
        <ele>58.6</ele>
        <time>2019-06-21T13:59:04Z</time>
      </trkpt>
      <trkpt lat="42.1094520" lon="-8.6409600">
        <ele>58.2</ele>
        <time>2019-06-21T13:59:05Z</time>
      </trkpt>
      <trkpt lat="42.1094930" lon="-8.6409860">
        <ele>58.2</ele>
        <time>2019-06-21T13:59:06Z</time>
      </trkpt>
      <trkpt lat="42.1096360" lon="-8.6409450">
        <ele>57.6</ele>
        <time>2019-06-21T13:59:09Z</time>
      </trkpt>
      <trkpt lat="42.1096860" lon="-8.6409100">
        <ele>57.4</ele>
        <time>2019-06-21T13:59:10Z</time>
      </trkpt>
      <trkpt lat="42.1097430" lon="-8.6408900">
        <ele>57.2</ele>
        <time>2019-06-21T13:59:11Z</time>
      </trkpt>
      <trkpt lat="42.1098660" lon="-8.6408980">
        <ele>56.2</ele>
        <time>2019-06-21T13:59:13Z</time>
      </trkpt>
      <trkpt lat="42.1099280" lon="-8.6409110">
        <ele>55.8</ele>
        <time>2019-06-21T13:59:14Z</time>
      </trkpt>
      <trkpt lat="42.1100770" lon="-8.6409500">
        <ele>54.2</ele>
        <time>2019-06-21T13:59:16Z</time>
      </trkpt>
      <trkpt lat="42.1101580" lon="-8.6409720">
        <ele>53.2</ele>
        <time>2019-06-21T13:59:17Z</time>
      </trkpt>
      <trkpt lat="42.1102370" lon="-8.6409890">
        <ele>51.8</ele>
        <time>2019-06-21T13:59:18Z</time>
      </trkpt>
      <trkpt lat="42.1103140" lon="-8.6410010">
        <ele>50.8</ele>
        <time>2019-06-21T13:59:19Z</time>
      </trkpt>
      <trkpt lat="42.1103870" lon="-8.6410080">
        <ele>49.8</ele>
        <time>2019-06-21T13:59:20Z</time>
      </trkpt>
      <trkpt lat="42.1104550" lon="-8.6410030">
        <ele>49.2</ele>
        <time>2019-06-21T13:59:21Z</time>
      </trkpt>
      <trkpt lat="42.1105160" lon="-8.6409890">
        <ele>48.4</ele>
        <time>2019-06-21T13:59:22Z</time>
      </trkpt>
      <trkpt lat="42.1106150" lon="-8.6409510">
        <ele>47.2</ele>
        <time>2019-06-21T13:59:24Z</time>
      </trkpt>
      <trkpt lat="42.1106810" lon="-8.6409160">
        <ele>46.6</ele>
        <time>2019-06-21T13:59:26Z</time>
      </trkpt>
      <trkpt lat="42.1107010" lon="-8.6409030">
        <ele>46.2</ele>
        <time>2019-06-21T13:59:27Z</time>
      </trkpt>
      <trkpt lat="42.1107290" lon="-8.6408950">
        <ele>45.6</ele>
        <time>2019-06-21T13:59:29Z</time>
      </trkpt>
      <trkpt lat="42.1107430" lon="-8.6408980">
        <ele>45.4</ele>
        <time>2019-06-21T13:59:30Z</time>
      </trkpt>
      <trkpt lat="42.1108510" lon="-8.6408990">
        <ele>45.4</ele>
        <time>2019-06-21T13:59:36Z</time>
      </trkpt>
      <trkpt lat="42.1109010" lon="-8.6408710">
        <ele>45.2</ele>
        <time>2019-06-21T13:59:39Z</time>
      </trkpt>
      <trkpt lat="42.1109160" lon="-8.6408610">
        <ele>45.2</ele>
        <time>2019-06-21T13:59:40Z</time>
      </trkpt>
      <trkpt lat="42.1109550" lon="-8.6408410">
        <ele>45.2</ele>
        <time>2019-06-21T13:59:43Z</time>
      </trkpt>
      <trkpt lat="42.1110380" lon="-8.6408080">
        <ele>45.0</ele>
        <time>2019-06-21T13:59:59Z</time>
      </trkpt>
      <trkpt lat="42.1111820" lon="-8.6407730">
        <ele>45.2</ele>
        <time>2019-06-21T14:00:07Z</time>
      </trkpt>
      <trkpt lat="42.1113390" lon="-8.6407680">
        <ele>45.6</ele>
        <time>2019-06-21T14:00:14Z</time>
      </trkpt>
      <trkpt lat="42.1115040" lon="-8.6407730">
        <ele>45.6</ele>
        <time>2019-06-21T14:00:22Z</time>
      </trkpt>
      <trkpt lat="42.1116920" lon="-8.6407720">
        <ele>45.6</ele>
        <time>2019-06-21T14:00:28Z</time>
      </trkpt>
      <trkpt lat="42.1118750" lon="-8.6407960">
        <ele>45.8</ele>
        <time>2019-06-21T14:00:34Z</time>
      </trkpt>
      <trkpt lat="42.1119310" lon="-8.6407900">
        <ele>46.0</ele>
        <time>2019-06-21T14:00:36Z</time>
      </trkpt>
      <trkpt lat="42.1119800" lon="-8.6407710">
        <ele>46.2</ele>
        <time>2019-06-21T14:00:38Z</time>
      </trkpt>
      <trkpt lat="42.1121050" lon="-8.6407210">
        <ele>47.0</ele>
        <time>2019-06-21T14:00:44Z</time>
      </trkpt>
      <trkpt lat="42.1121410" lon="-8.6407010">
        <ele>47.4</ele>
        <time>2019-06-21T14:00:46Z</time>
      </trkpt>
      <trkpt lat="42.1122690" lon="-8.6406570">
        <ele>47.8</ele>
        <time>2019-06-21T14:00:52Z</time>
      </trkpt>
      <trkpt lat="42.1123720" lon="-8.6406180">
        <ele>48.4</ele>
        <time>2019-06-21T14:00:56Z</time>
      </trkpt>
      <trkpt lat="42.1124470" lon="-8.6405900">
        <ele>48.8</ele>
        <time>2019-06-21T14:00:59Z</time>
      </trkpt>
      <trkpt lat="42.1126590" lon="-8.6405460">
        <ele>49.2</ele>
        <time>2019-06-21T14:01:06Z</time>
      </trkpt>
      <trkpt lat="42.1127180" lon="-8.6405350">
        <ele>49.8</ele>
        <time>2019-06-21T14:01:08Z</time>
      </trkpt>
      <trkpt lat="42.1128440" lon="-8.6405060">
        <ele>51.0</ele>
        <time>2019-06-21T14:01:13Z</time>
      </trkpt>
      <trkpt lat="42.1129870" lon="-8.6405200">
        <ele>51.8</ele>
        <time>2019-06-21T14:01:20Z</time>
      </trkpt>
      <trkpt lat="42.1130250" lon="-8.6405180">
        <ele>52.2</ele>
        <time>2019-06-21T14:01:22Z</time>
      </trkpt>
      <trkpt lat="42.1131270" lon="-8.6405200">
        <ele>52.8</ele>
        <time>2019-06-21T14:01:28Z</time>
      </trkpt>
      <trkpt lat="42.1132130" lon="-8.6405480">
        <ele>53.2</ele>
        <time>2019-06-21T14:01:33Z</time>
      </trkpt>
      <trkpt lat="42.1132750" lon="-8.6405660">
        <ele>53.6</ele>
        <time>2019-06-21T14:01:36Z</time>
      </trkpt>
      <trkpt lat="42.1134280" lon="-8.6406310">
        <ele>54.2</ele>
        <time>2019-06-21T14:01:43Z</time>
      </trkpt>
      <trkpt lat="42.1134520" lon="-8.6406390">
        <ele>54.4</ele>
        <time>2019-06-21T14:01:44Z</time>
      </trkpt>
      <trkpt lat="42.1136320" lon="-8.6407390">
        <ele>54.2</ele>
        <time>2019-06-21T14:01:50Z</time>
      </trkpt>
      <trkpt lat="42.1138580" lon="-8.6408550">
        <ele>54.0</ele>
        <time>2019-06-21T14:01:56Z</time>
      </trkpt>
      <trkpt lat="42.1140610" lon="-8.6409530">
        <ele>54.6</ele>
        <time>2019-06-21T14:02:02Z</time>
      </trkpt>
      <trkpt lat="42.1143030" lon="-8.6410870">
        <ele>55.0</ele>
        <time>2019-06-21T14:02:10Z</time>
      </trkpt>
      <trkpt lat="42.1143600" lon="-8.6411340">
        <ele>55.4</ele>
        <time>2019-06-21T14:02:12Z</time>
      </trkpt>
      <trkpt lat="42.1144920" lon="-8.6412440">
        <ele>55.8</ele>
        <time>2019-06-21T14:02:17Z</time>
      </trkpt>
      <trkpt lat="42.1145900" lon="-8.6413500">
        <ele>56.4</ele>
        <time>2019-06-21T14:02:21Z</time>
      </trkpt>
      <trkpt lat="42.1146810" lon="-8.6414610">
        <ele>56.4</ele>
        <time>2019-06-21T14:02:25Z</time>
      </trkpt>
      <trkpt lat="42.1148450" lon="-8.6415500">
        <ele>57.4</ele>
        <time>2019-06-21T14:02:31Z</time>
      </trkpt>
      <trkpt lat="42.1148680" lon="-8.6415630">
        <ele>57.4</ele>
        <time>2019-06-21T14:02:32Z</time>
      </trkpt>
      <trkpt lat="42.1150450" lon="-8.6416490">
        <ele>58.6</ele>
        <time>2019-06-21T14:02:39Z</time>
      </trkpt>
      <trkpt lat="42.1152480" lon="-8.6417050">
        <ele>59.4</ele>
        <time>2019-06-21T14:02:46Z</time>
      </trkpt>
      <trkpt lat="42.1152770" lon="-8.6417170">
        <ele>59.4</ele>
        <time>2019-06-21T14:02:47Z</time>
      </trkpt>
      <trkpt lat="42.1153070" lon="-8.6417260">
        <ele>59.6</ele>
        <time>2019-06-21T14:02:48Z</time>
      </trkpt>
      <trkpt lat="42.1155430" lon="-8.6417820">
        <ele>60.4</ele>
        <time>2019-06-21T14:02:55Z</time>
      </trkpt>
      <trkpt lat="42.1156830" lon="-8.6418290">
        <ele>60.6</ele>
        <time>2019-06-21T14:02:59Z</time>
      </trkpt>
      <trkpt lat="42.1157530" lon="-8.6418580">
        <ele>60.8</ele>
        <time>2019-06-21T14:03:01Z</time>
      </trkpt>
      <trkpt lat="42.1160390" lon="-8.6420050">
        <ele>61.4</ele>
        <time>2019-06-21T14:03:09Z</time>
      </trkpt>
      <trkpt lat="42.1163780" lon="-8.6422710">
        <ele>61.4</ele>
        <time>2019-06-21T14:03:18Z</time>
      </trkpt>
      <trkpt lat="42.1166500" lon="-8.6424520">
        <ele>61.4</ele>
        <time>2019-06-21T14:03:25Z</time>
      </trkpt>
      <trkpt lat="42.1168160" lon="-8.6425020">
        <ele>61.2</ele>
        <time>2019-06-21T14:03:29Z</time>
      </trkpt>
      <trkpt lat="42.1169070" lon="-8.6425280">
        <ele>61.0</ele>
        <time>2019-06-21T14:03:31Z</time>
      </trkpt>
      <trkpt lat="42.1171790" lon="-8.6425650">
        <ele>61.2</ele>
        <time>2019-06-21T14:03:37Z</time>
      </trkpt>
      <trkpt lat="42.1172210" lon="-8.6425730">
        <ele>61.4</ele>
        <time>2019-06-21T14:03:39Z</time>
      </trkpt>
      <trkpt lat="42.1172630" lon="-8.6425810">
        <ele>61.4</ele>
        <time>2019-06-21T14:03:40Z</time>
      </trkpt>
      <trkpt lat="42.1173050" lon="-8.6425890">
        <ele>61.4</ele>
        <time>2019-06-21T14:03:41Z</time>
      </trkpt>
      <trkpt lat="42.1173470" lon="-8.6425980">
        <ele>61.4</ele>
        <time>2019-06-21T14:03:45Z</time>
      </trkpt>
      <trkpt lat="42.1173890" lon="-8.6426060">
        <ele>61.8</ele>
        <time>2019-06-21T14:03:48Z</time>
      </trkpt>
      <trkpt lat="42.1174310" lon="-8.6426140">
        <ele>62.0</ele>
        <time>2019-06-21T14:03:49Z</time>
      </trkpt>
      <trkpt lat="42.1174730" lon="-8.6426220">
        <ele>62.2</ele>
        <time>2019-06-21T14:03:50Z</time>
      </trkpt>
      <trkpt lat="42.1177670" lon="-8.6426790">
        <ele>62.4</ele>
        <time>2019-06-21T14:03:51Z</time>
      </trkpt>
      <trkpt lat="42.1178710" lon="-8.6426790">
        <ele>62.8</ele>
        <time>2019-06-21T14:03:54Z</time>
      </trkpt>
      <trkpt lat="42.1180340" lon="-8.6426590">
        <ele>63.4</ele>
        <time>2019-06-21T14:03:58Z</time>
      </trkpt>
      <trkpt lat="42.1182380" lon="-8.6425950">
        <ele>63.8</ele>
        <time>2019-06-21T14:04:03Z</time>
      </trkpt>
      <trkpt lat="42.1182780" lon="-8.6425830">
        <ele>64.0</ele>
        <time>2019-06-21T14:04:04Z</time>
      </trkpt>
      <trkpt lat="42.1183990" lon="-8.6425530">
        <ele>64.2</ele>
        <time>2019-06-21T14:04:07Z</time>
      </trkpt>
      <trkpt lat="42.1186320" lon="-8.6424660">
        <ele>65.0</ele>
        <time>2019-06-21T14:04:13Z</time>
      </trkpt>
      <trkpt lat="42.1186670" lon="-8.6424530">
        <ele>65.2</ele>
        <time>2019-06-21T14:04:14Z</time>
      </trkpt>
      <trkpt lat="42.1188230" lon="-8.6424130">
        <ele>66.0</ele>
        <time>2019-06-21T14:04:19Z</time>
      </trkpt>
      <trkpt lat="42.1189030" lon="-8.6423900">
        <ele>66.8</ele>
        <time>2019-06-21T14:04:22Z</time>
      </trkpt>
      <trkpt lat="42.1189530" lon="-8.6423780">
        <ele>67.0</ele>
        <time>2019-06-21T14:04:24Z</time>
      </trkpt>
      <trkpt lat="42.1190920" lon="-8.6423410">
        <ele>67.6</ele>
        <time>2019-06-21T14:04:29Z</time>
      </trkpt>
      <trkpt lat="42.1191580" lon="-8.6423350">
        <ele>68.2</ele>
        <time>2019-06-21T14:04:31Z</time>
      </trkpt>
      <trkpt lat="42.1193510" lon="-8.6422930">
        <ele>68.8</ele>
        <time>2019-06-21T14:04:37Z</time>
      </trkpt>
      <trkpt lat="42.1195220" lon="-8.6422640">
        <ele>69.2</ele>
        <time>2019-06-21T14:04:42Z</time>
      </trkpt>
      <trkpt lat="42.1196240" lon="-8.6422460">
        <ele>69.4</ele>
        <time>2019-06-21T14:04:45Z</time>
      </trkpt>
      <trkpt lat="42.1199030" lon="-8.6422320">
        <ele>70.4</ele>
        <time>2019-06-21T14:04:53Z</time>
      </trkpt>
      <trkpt lat="42.1199360" lon="-8.6422360">
        <ele>70.6</ele>
        <time>2019-06-21T14:04:54Z</time>
      </trkpt>
      <trkpt lat="42.1201430" lon="-8.6422800">
        <ele>71.0</ele>
        <time>2019-06-21T14:05:00Z</time>
      </trkpt>
      <trkpt lat="42.1201810" lon="-8.6422900">
        <ele>71.0</ele>
        <time>2019-06-21T14:05:01Z</time>
      </trkpt>
      <trkpt lat="42.1204140" lon="-8.6423360">
        <ele>71.0</ele>
        <time>2019-06-21T14:05:07Z</time>
      </trkpt>
      <trkpt lat="42.1205470" lon="-8.6423850">
        <ele>71.4</ele>
        <time>2019-06-21T14:05:11Z</time>
      </trkpt>
      <trkpt lat="42.1206820" lon="-8.6424080">
        <ele>71.8</ele>
        <time>2019-06-21T14:05:15Z</time>
      </trkpt>
      <trkpt lat="42.1207580" lon="-8.6424130">
        <ele>71.6</ele>
        <time>2019-06-21T14:05:17Z</time>
      </trkpt>
      <trkpt lat="42.1208590" lon="-8.6424210">
        <ele>71.0</ele>
        <time>2019-06-21T14:05:19Z</time>
      </trkpt>
      <trkpt lat="42.1209110" lon="-8.6424270">
        <ele>70.8</ele>
        <time>2019-06-21T14:05:20Z</time>
      </trkpt>
      <trkpt lat="42.1209670" lon="-8.6424370">
        <ele>70.2</ele>
        <time>2019-06-21T14:05:21Z</time>
      </trkpt>
      <trkpt lat="42.1210880" lon="-8.6424770">
        <ele>68.8</ele>
        <time>2019-06-21T14:05:23Z</time>
      </trkpt>
      <trkpt lat="42.1212140" lon="-8.6425340">
        <ele>67.8</ele>
        <time>2019-06-21T14:05:25Z</time>
      </trkpt>
      <trkpt lat="42.1213430" lon="-8.6426060">
        <ele>66.2</ele>
        <time>2019-06-21T14:05:27Z</time>
      </trkpt>
      <trkpt lat="42.1214060" lon="-8.6426450">
        <ele>65.2</ele>
        <time>2019-06-21T14:05:28Z</time>
      </trkpt>
      <trkpt lat="42.1214690" lon="-8.6426870">
        <ele>64.2</ele>
        <time>2019-06-21T14:05:29Z</time>
      </trkpt>
      <trkpt lat="42.1215370" lon="-8.6427360">
        <ele>63.0</ele>
        <time>2019-06-21T14:05:30Z</time>
      </trkpt>
      <trkpt lat="42.1216050" lon="-8.6427970">
        <ele>62.2</ele>
        <time>2019-06-21T14:05:31Z</time>
      </trkpt>
      <trkpt lat="42.1216730" lon="-8.6428620">
        <ele>61.4</ele>
        <time>2019-06-21T14:05:32Z</time>
      </trkpt>
      <trkpt lat="42.1217510" lon="-8.6429710">
        <ele>60.6</ele>
        <time>2019-06-21T14:05:33Z</time>
      </trkpt>
      <trkpt lat="42.1218290" lon="-8.6430880">
        <ele>59.2</ele>
        <time>2019-06-21T14:05:34Z</time>
      </trkpt>
      <trkpt lat="42.1219100" lon="-8.6432190">
        <ele>58.8</ele>
        <time>2019-06-21T14:05:35Z</time>
      </trkpt>
      <trkpt lat="42.1221340" lon="-8.6435370">
        <ele>58.6</ele>
        <time>2019-06-21T14:05:38Z</time>
      </trkpt>
      <trkpt lat="42.1222830" lon="-8.6437240">
        <ele>58.2</ele>
        <time>2019-06-21T14:05:40Z</time>
      </trkpt>
      <trkpt lat="42.1223560" lon="-8.6438140">
        <ele>58.0</ele>
        <time>2019-06-21T14:05:41Z</time>
      </trkpt>
      <trkpt lat="42.1224880" lon="-8.6439770">
        <ele>57.8</ele>
        <time>2019-06-21T14:05:43Z</time>
      </trkpt>
      <trkpt lat="42.1226080" lon="-8.6441020">
        <ele>58.2</ele>
        <time>2019-06-21T14:05:45Z</time>
      </trkpt>
      <trkpt lat="42.1229790" lon="-8.6444550">
        <ele>58.8</ele>
        <time>2019-06-21T14:05:52Z</time>
      </trkpt>
      <trkpt lat="42.1232370" lon="-8.6446600">
        <ele>58.8</ele>
        <time>2019-06-21T14:05:57Z</time>
      </trkpt>
      <trkpt lat="42.1232940" lon="-8.6446890">
        <ele>58.8</ele>
        <time>2019-06-21T14:05:58Z</time>
      </trkpt>
      <trkpt lat="42.1235350" lon="-8.6448020">
        <ele>58.8</ele>
        <time>2019-06-21T14:06:02Z</time>
      </trkpt>
      <trkpt lat="42.1236520" lon="-8.6448670">
        <ele>59.0</ele>
        <time>2019-06-21T14:06:04Z</time>
      </trkpt>
      <trkpt lat="42.1238110" lon="-8.6449530">
        <ele>59.2</ele>
        <time>2019-06-21T14:06:07Z</time>
      </trkpt>
      <trkpt lat="42.1239270" lon="-8.6449960">
        <ele>59.2</ele>
        <time>2019-06-21T14:06:09Z</time>
      </trkpt>
      <trkpt lat="42.1243370" lon="-8.6451370">
        <ele>58.8</ele>
        <time>2019-06-21T14:06:16Z</time>
      </trkpt>
      <trkpt lat="42.1245180" lon="-8.6452130">
        <ele>58.2</ele>
        <time>2019-06-21T14:06:19Z</time>
      </trkpt>
      <trkpt lat="42.1246410" lon="-8.6452010">
        <ele>57.6</ele>
        <time>2019-06-21T14:06:21Z</time>
      </trkpt>
      <trkpt lat="42.1248440" lon="-8.6450330">
        <ele>57.8</ele>
        <time>2019-06-21T14:06:25Z</time>
      </trkpt>
      <trkpt lat="42.1249330" lon="-8.6449010">
        <ele>57.8</ele>
        <time>2019-06-21T14:06:27Z</time>
      </trkpt>
      <trkpt lat="42.1251310" lon="-8.6445500">
        <ele>58.0</ele>
        <time>2019-06-21T14:06:32Z</time>
      </trkpt>
      <trkpt lat="42.1253090" lon="-8.6440460">
        <ele>57.6</ele>
        <time>2019-06-21T14:06:39Z</time>
      </trkpt>
      <trkpt lat="42.1254020" lon="-8.6437490">
        <ele>57.8</ele>
        <time>2019-06-21T14:06:43Z</time>
      </trkpt>
      <trkpt lat="42.1254100" lon="-8.6435950">
        <ele>57.6</ele>
        <time>2019-06-21T14:06:45Z</time>
      </trkpt>
      <trkpt lat="42.1253610" lon="-8.6433910">
        <ele>58.0</ele>
        <time>2019-06-21T14:06:48Z</time>
      </trkpt>
      <trkpt lat="42.1253420" lon="-8.6433390">
        <ele>58.2</ele>
        <time>2019-06-21T14:06:49Z</time>
      </trkpt>
      <trkpt lat="42.1252990" lon="-8.6432050">
        <ele>59.2</ele>
        <time>2019-06-21T14:06:52Z</time>
      </trkpt>
      <trkpt lat="42.1252840" lon="-8.6431340">
        <ele>59.8</ele>
        <time>2019-06-21T14:06:54Z</time>
      </trkpt>
      <trkpt lat="42.1252730" lon="-8.6430380">
        <ele>60.2</ele>
        <time>2019-06-21T14:06:57Z</time>
      </trkpt>
      <trkpt lat="42.1252550" lon="-8.6429050">
        <ele>61.2</ele>
        <time>2019-06-21T14:07:01Z</time>
      </trkpt>
      <trkpt lat="42.1252620" lon="-8.6428260">
        <ele>61.4</ele>
        <time>2019-06-21T14:07:03Z</time>
      </trkpt>
      <trkpt lat="42.1252800" lon="-8.6426330">
        <ele>61.8</ele>
        <time>2019-06-21T14:07:07Z</time>
      </trkpt>
      <trkpt lat="42.1253320" lon="-8.6423730">
        <ele>61.8</ele>
        <time>2019-06-21T14:07:12Z</time>
      </trkpt>
      <trkpt lat="42.1253790" lon="-8.6422270">
        <ele>61.8</ele>
        <time>2019-06-21T14:07:15Z</time>
      </trkpt>
      <trkpt lat="42.1255360" lon="-8.6418640">
        <ele>62.0</ele>
        <time>2019-06-21T14:07:22Z</time>
      </trkpt>
      <trkpt lat="42.1257010" lon="-8.6416170">
        <ele>62.2</ele>
        <time>2019-06-21T14:07:28Z</time>
      </trkpt>
      <trkpt lat="42.1257340" lon="-8.6415770">
        <ele>62.4</ele>
        <time>2019-06-21T14:07:29Z</time>
      </trkpt>
      <trkpt lat="42.1257680" lon="-8.6415410">
        <ele>62.4</ele>
        <time>2019-06-21T14:07:30Z</time>
      </trkpt>
      <trkpt lat="42.1259230" lon="-8.6414410">
        <ele>63.0</ele>
        <time>2019-06-21T14:07:34Z</time>
      </trkpt>
      <trkpt lat="42.1259650" lon="-8.6414260">
        <ele>63.0</ele>
        <time>2019-06-21T14:07:35Z</time>
      </trkpt>
      <trkpt lat="42.1260500" lon="-8.6414010">
        <ele>63.4</ele>
        <time>2019-06-21T14:07:37Z</time>
      </trkpt>
      <trkpt lat="42.1262060" lon="-8.6414090">
        <ele>64.4</ele>
        <time>2019-06-21T14:07:41Z</time>
      </trkpt>
      <trkpt lat="42.1262430" lon="-8.6414180">
        <ele>64.6</ele>
        <time>2019-06-21T14:07:42Z</time>
      </trkpt>
      <trkpt lat="42.1264320" lon="-8.6414650">
        <ele>65.6</ele>
        <time>2019-06-21T14:07:47Z</time>
      </trkpt>
      <trkpt lat="42.1265580" lon="-8.6415160">
        <ele>66.0</ele>
        <time>2019-06-21T14:07:50Z</time>
      </trkpt>
      <trkpt lat="42.1268150" lon="-8.6416470">
        <ele>65.6</ele>
        <time>2019-06-21T14:07:56Z</time>
      </trkpt>
      <trkpt lat="42.1271250" lon="-8.6418250">
        <ele>64.8</ele>
        <time>2019-06-21T14:08:02Z</time>
      </trkpt>
      <trkpt lat="42.1275060" lon="-8.6420910">
        <ele>64.8</ele>
        <time>2019-06-21T14:08:10Z</time>
      </trkpt>
      <trkpt lat="42.1278100" lon="-8.6422650">
        <ele>65.0</ele>
        <time>2019-06-21T14:08:16Z</time>
      </trkpt>
      <trkpt lat="42.1279160" lon="-8.6423170">
        <ele>65.0</ele>
        <time>2019-06-21T14:08:18Z</time>
      </trkpt>
      <trkpt lat="42.1281730" lon="-8.6424440">
        <ele>65.2</ele>
        <time>2019-06-21T14:08:23Z</time>
      </trkpt>
      <trkpt lat="42.1283250" lon="-8.6424940">
        <ele>65.6</ele>
        <time>2019-06-21T14:08:26Z</time>
      </trkpt>
      <trkpt lat="42.1286000" lon="-8.6425530">
        <ele>66.2</ele>
        <time>2019-06-21T14:08:32Z</time>
      </trkpt>
      <trkpt lat="42.1286750" lon="-8.6425690">
        <ele>66.6</ele>
        <time>2019-06-21T14:08:34Z</time>
      </trkpt>
      <trkpt lat="42.1287110" lon="-8.6425750">
        <ele>66.8</ele>
        <time>2019-06-21T14:08:35Z</time>
      </trkpt>
      <trkpt lat="42.1288830" lon="-8.6426110">
        <ele>67.8</ele>
        <time>2019-06-21T14:08:40Z</time>
      </trkpt>
      <trkpt lat="42.1289530" lon="-8.6426270">
        <ele>67.8</ele>
        <time>2019-06-21T14:08:42Z</time>
      </trkpt>
      <trkpt lat="42.1291950" lon="-8.6426830">
        <ele>68.8</ele>
        <time>2019-06-21T14:08:49Z</time>
      </trkpt>
      <trkpt lat="42.1292590" lon="-8.6426960">
        <ele>69.2</ele>
        <time>2019-06-21T14:08:51Z</time>
      </trkpt>
      <trkpt lat="42.1293910" lon="-8.6427280">
        <ele>70.0</ele>
        <time>2019-06-21T14:08:56Z</time>
      </trkpt>
      <trkpt lat="42.1294410" lon="-8.6427540">
        <ele>70.4</ele>
        <time>2019-06-21T14:08:58Z</time>
      </trkpt>
      <trkpt lat="42.1295200" lon="-8.6427560">
        <ele>71.4</ele>
        <time>2019-06-21T14:09:01Z</time>
      </trkpt>
      <trkpt lat="42.1295750" lon="-8.6427460">
        <ele>72.0</ele>
        <time>2019-06-21T14:09:03Z</time>
      </trkpt>
      <trkpt lat="42.1297320" lon="-8.6426230">
        <ele>72.0</ele>
        <time>2019-06-21T14:09:09Z</time>
      </trkpt>
      <trkpt lat="42.1299430" lon="-8.6424250">
        <ele>71.4</ele>
        <time>2019-06-21T14:09:15Z</time>
      </trkpt>
      <trkpt lat="42.1300990" lon="-8.6423530">
        <ele>70.4</ele>
        <time>2019-06-21T14:09:18Z</time>
      </trkpt>
      <trkpt lat="42.1301560" lon="-8.6423300">
        <ele>70.2</ele>
        <time>2019-06-21T14:09:19Z</time>
      </trkpt>
      <trkpt lat="42.1304130" lon="-8.6422400">
        <ele>69.2</ele>
        <time>2019-06-21T14:09:23Z</time>
      </trkpt>
      <trkpt lat="42.1304820" lon="-8.6422230">
        <ele>69.0</ele>
        <time>2019-06-21T14:09:24Z</time>
      </trkpt>
      <trkpt lat="42.1308220" lon="-8.6421700">
        <ele>68.4</ele>
        <time>2019-06-21T14:09:29Z</time>
      </trkpt>
      <trkpt lat="42.1309500" lon="-8.6421520">
        <ele>68.2</ele>
        <time>2019-06-21T14:09:31Z</time>
      </trkpt>
      <trkpt lat="42.1310130" lon="-8.6421420">
        <ele>68.2</ele>
        <time>2019-06-21T14:09:32Z</time>
      </trkpt>
      <trkpt lat="42.1311350" lon="-8.6421190">
        <ele>67.8</ele>
        <time>2019-06-21T14:09:34Z</time>
      </trkpt>
      <trkpt lat="42.1313630" lon="-8.6420630">
        <ele>67.6</ele>
        <time>2019-06-21T14:09:38Z</time>
      </trkpt>
      <trkpt lat="42.1316410" lon="-8.6419340">
        <ele>67.8</ele>
        <time>2019-06-21T14:09:43Z</time>
      </trkpt>
      <trkpt lat="42.1317420" lon="-8.6418990">
        <ele>67.8</ele>
        <time>2019-06-21T14:09:45Z</time>
      </trkpt>
      <trkpt lat="42.1317700" lon="-8.6418890">
        <ele>67.6</ele>
        <time>2019-06-21T14:09:46Z</time>
      </trkpt>
      <trkpt lat="42.1318950" lon="-8.6418090">
        <ele>67.8</ele>
        <time>2019-06-21T14:09:51Z</time>
      </trkpt>
      <trkpt lat="42.1319470" lon="-8.6417220">
        <ele>67.8</ele>
        <time>2019-06-21T14:09:53Z</time>
      </trkpt>
      <trkpt lat="42.1320030" lon="-8.6416150">
        <ele>68.0</ele>
        <time>2019-06-21T14:09:55Z</time>
      </trkpt>
      <trkpt lat="42.1320680" lon="-8.6414930">
        <ele>68.2</ele>
        <time>2019-06-21T14:09:57Z</time>
      </trkpt>
      <trkpt lat="42.1321670" lon="-8.6412910">
        <ele>68.6</ele>
        <time>2019-06-21T14:10:00Z</time>
      </trkpt>
      <trkpt lat="42.1322020" lon="-8.6412260">
        <ele>68.6</ele>
        <time>2019-06-21T14:10:01Z</time>
      </trkpt>
      <trkpt lat="42.1323410" lon="-8.6409680">
        <ele>68.8</ele>
        <time>2019-06-21T14:10:05Z</time>
      </trkpt>
      <trkpt lat="42.1324440" lon="-8.6407860">
        <ele>69.2</ele>
        <time>2019-06-21T14:10:08Z</time>
      </trkpt>
      <trkpt lat="42.1325720" lon="-8.6405600">
        <ele>70.0</ele>
        <time>2019-06-21T14:10:12Z</time>
      </trkpt>
      <trkpt lat="42.1326270" lon="-8.6404470">
        <ele>70.4</ele>
        <time>2019-06-21T14:10:14Z</time>
      </trkpt>
      <trkpt lat="42.1327390" lon="-8.6401690">
        <ele>69.8</ele>
        <time>2019-06-21T14:10:18Z</time>
      </trkpt>
      <trkpt lat="42.1328010" lon="-8.6400000">
        <ele>69.0</ele>
        <time>2019-06-21T14:10:20Z</time>
      </trkpt>
      <trkpt lat="42.1329150" lon="-8.6397210">
        <ele>67.8</ele>
        <time>2019-06-21T14:10:23Z</time>
      </trkpt>
      <trkpt lat="42.1329970" lon="-8.6395280">
        <ele>66.8</ele>
        <time>2019-06-21T14:10:25Z</time>
      </trkpt>
      <trkpt lat="42.1332210" lon="-8.6389960">
        <ele>65.8</ele>
        <time>2019-06-21T14:10:31Z</time>
      </trkpt>
      <trkpt lat="42.1332550" lon="-8.6389150">
        <ele>65.6</ele>
        <time>2019-06-21T14:10:32Z</time>
      </trkpt>
      <trkpt lat="42.1334750" lon="-8.6383510">
        <ele>65.6</ele>
        <time>2019-06-21T14:10:39Z</time>
      </trkpt>
      <trkpt lat="42.1336720" lon="-8.6378720">
        <ele>65.2</ele>
        <time>2019-06-21T14:10:45Z</time>
      </trkpt>
      <trkpt lat="42.1337430" lon="-8.6377040">
        <ele>65.2</ele>
        <time>2019-06-21T14:10:47Z</time>
      </trkpt>
      <trkpt lat="42.1339280" lon="-8.6372650">
        <ele>65.6</ele>
        <time>2019-06-21T14:10:53Z</time>
      </trkpt>
      <trkpt lat="42.1341520" lon="-8.6367230">
        <ele>66.6</ele>
        <time>2019-06-21T14:11:02Z</time>
      </trkpt>
      <trkpt lat="42.1343610" lon="-8.6362510">
        <ele>65.2</ele>
        <time>2019-06-21T14:11:09Z</time>
      </trkpt>
      <trkpt lat="42.1344320" lon="-8.6360880">
        <ele>64.0</ele>
        <time>2019-06-21T14:11:11Z</time>
      </trkpt>
      <trkpt lat="42.1345520" lon="-8.6358100">
        <ele>62.8</ele>
        <time>2019-06-21T14:11:14Z</time>
      </trkpt>
      <trkpt lat="42.1346410" lon="-8.6356000">
        <ele>61.4</ele>
        <time>2019-06-21T14:11:16Z</time>
      </trkpt>
      <trkpt lat="42.1347400" lon="-8.6353770">
        <ele>60.0</ele>
        <time>2019-06-21T14:11:18Z</time>
      </trkpt>
      <trkpt lat="42.1347910" lon="-8.6352590">
        <ele>59.2</ele>
        <time>2019-06-21T14:11:19Z</time>
      </trkpt>
      <trkpt lat="42.1348440" lon="-8.6351400">
        <ele>58.8</ele>
        <time>2019-06-21T14:11:20Z</time>
      </trkpt>
      <trkpt lat="42.1349490" lon="-8.6349040">
        <ele>57.4</ele>
        <time>2019-06-21T14:11:22Z</time>
      </trkpt>
      <trkpt lat="42.1350520" lon="-8.6346700">
        <ele>56.4</ele>
        <time>2019-06-21T14:11:24Z</time>
      </trkpt>
      <trkpt lat="42.1352000" lon="-8.6343240">
        <ele>55.0</ele>
        <time>2019-06-21T14:11:27Z</time>
      </trkpt>
      <trkpt lat="42.1352520" lon="-8.6342180">
        <ele>54.8</ele>
        <time>2019-06-21T14:11:28Z</time>
      </trkpt>
      <trkpt lat="42.1353710" lon="-8.6340280">
        <ele>54.2</ele>
        <time>2019-06-21T14:11:30Z</time>
      </trkpt>
      <trkpt lat="42.1354460" lon="-8.6339530">
        <ele>53.8</ele>
        <time>2019-06-21T14:11:31Z</time>
      </trkpt>
      <trkpt lat="42.1355300" lon="-8.6338910">
        <ele>53.2</ele>
        <time>2019-06-21T14:11:32Z</time>
      </trkpt>
      <trkpt lat="42.1356290" lon="-8.6338600">
        <ele>52.6</ele>
        <time>2019-06-21T14:11:33Z</time>
      </trkpt>
      <trkpt lat="42.1358360" lon="-8.6338280">
        <ele>50.2</ele>
        <time>2019-06-21T14:11:35Z</time>
      </trkpt>
      <trkpt lat="42.1359430" lon="-8.6338160">
        <ele>49.6</ele>
        <time>2019-06-21T14:11:36Z</time>
      </trkpt>
      <trkpt lat="42.1360490" lon="-8.6338010">
        <ele>49.0</ele>
        <time>2019-06-21T14:11:37Z</time>
      </trkpt>
      <trkpt lat="42.1363550" lon="-8.6337670">
        <ele>47.6</ele>
        <time>2019-06-21T14:11:40Z</time>
      </trkpt>
      <trkpt lat="42.1364540" lon="-8.6337480">
        <ele>47.4</ele>
        <time>2019-06-21T14:11:41Z</time>
      </trkpt>
      <trkpt lat="42.1369010" lon="-8.6336640">
        <ele>46.8</ele>
        <time>2019-06-21T14:11:46Z</time>
      </trkpt>
      <trkpt lat="42.1369830" lon="-8.6336510">
        <ele>47.0</ele>
        <time>2019-06-21T14:11:47Z</time>
      </trkpt>
      <trkpt lat="42.1372990" lon="-8.6335900">
        <ele>46.8</ele>
        <time>2019-06-21T14:11:51Z</time>
      </trkpt>
      <trkpt lat="42.1375390" lon="-8.6335320">
        <ele>47.0</ele>
        <time>2019-06-21T14:11:54Z</time>
      </trkpt>
      <trkpt lat="42.1376170" lon="-8.6335050">
        <ele>47.2</ele>
        <time>2019-06-21T14:11:55Z</time>
      </trkpt>
      <trkpt lat="42.1379580" lon="-8.6333530">
        <ele>48.4</ele>
        <time>2019-06-21T14:12:00Z</time>
      </trkpt>
      <trkpt lat="42.1380200" lon="-8.6333240">
        <ele>48.6</ele>
        <time>2019-06-21T14:12:01Z</time>
      </trkpt>
      <trkpt lat="42.1381410" lon="-8.6332690">
        <ele>48.8</ele>
        <time>2019-06-21T14:12:03Z</time>
      </trkpt>
      <trkpt lat="42.1383210" lon="-8.6331860">
        <ele>48.8</ele>
        <time>2019-06-21T14:12:06Z</time>
      </trkpt>
      <trkpt lat="42.1386120" lon="-8.6330420">
        <ele>49.2</ele>
        <time>2019-06-21T14:12:11Z</time>
      </trkpt>
      <trkpt lat="42.1388350" lon="-8.6329380">
        <ele>49.8</ele>
        <time>2019-06-21T14:12:15Z</time>
      </trkpt>
      <trkpt lat="42.1388890" lon="-8.6329140">
        <ele>49.8</ele>
        <time>2019-06-21T14:12:16Z</time>
      </trkpt>
      <trkpt lat="42.1389990" lon="-8.6328650">
        <ele>49.8</ele>
        <time>2019-06-21T14:12:18Z</time>
      </trkpt>
      <trkpt lat="42.1391570" lon="-8.6327940">
        <ele>50.0</ele>
        <time>2019-06-21T14:12:21Z</time>
      </trkpt>
      <trkpt lat="42.1393650" lon="-8.6327090">
        <ele>50.4</ele>
        <time>2019-06-21T14:12:25Z</time>
      </trkpt>
      <trkpt lat="42.1395350" lon="-8.6326720">
        <ele>50.0</ele>
        <time>2019-06-21T14:12:28Z</time>
      </trkpt>
      <trkpt lat="42.1396620" lon="-8.6326710">
        <ele>49.6</ele>
        <time>2019-06-21T14:12:30Z</time>
      </trkpt>
      <trkpt lat="42.1398660" lon="-8.6326440">
        <ele>48.8</ele>
        <time>2019-06-21T14:12:33Z</time>
      </trkpt>
      <trkpt lat="42.1400070" lon="-8.6326100">
        <ele>48.4</ele>
        <time>2019-06-21T14:12:35Z</time>
      </trkpt>
      <trkpt lat="42.1401390" lon="-8.6325650">
        <ele>47.8</ele>
        <time>2019-06-21T14:12:37Z</time>
      </trkpt>
      <trkpt lat="42.1403140" lon="-8.6324700">
        <ele>48.0</ele>
        <time>2019-06-21T14:12:40Z</time>
      </trkpt>
      <trkpt lat="42.1404480" lon="-8.6323620">
        <ele>48.2</ele>
        <time>2019-06-21T14:12:44Z</time>
      </trkpt>
      <trkpt lat="42.1405030" lon="-8.6323330">
        <ele>48.0</ele>
        <time>2019-06-21T14:12:48Z</time>
      </trkpt>
      <trkpt lat="42.1405130" lon="-8.6323250">
        <ele>47.8</ele>
        <time>2019-06-21T14:12:49Z</time>
      </trkpt>
      <trkpt lat="42.1405510" lon="-8.6322950">
        <ele>47.8</ele>
        <time>2019-06-21T14:12:52Z</time>
      </trkpt>
      <trkpt lat="42.1406160" lon="-8.6322690">
        <ele>47.8</ele>
        <time>2019-06-21T14:12:55Z</time>
      </trkpt>
      <trkpt lat="42.1406470" lon="-8.6322540">
        <ele>48.0</ele>
        <time>2019-06-21T14:12:56Z</time>
      </trkpt>
      <trkpt lat="42.1407910" lon="-8.6321630">
        <ele>48.4</ele>
        <time>2019-06-21T14:13:00Z</time>
      </trkpt>
      <trkpt lat="42.1409130" lon="-8.6320870">
        <ele>48.8</ele>
        <time>2019-06-21T14:13:03Z</time>
      </trkpt>
      <trkpt lat="42.1410770" lon="-8.6319880">
        <ele>49.8</ele>
        <time>2019-06-21T14:13:07Z</time>
      </trkpt>
      <trkpt lat="42.1411600" lon="-8.6319520">
        <ele>50.0</ele>
        <time>2019-06-21T14:13:09Z</time>
      </trkpt>
      <trkpt lat="42.1412890" lon="-8.6319190">
        <ele>50.2</ele>
        <time>2019-06-21T14:13:12Z</time>
      </trkpt>
      <trkpt lat="42.1413780" lon="-8.6319400">
        <ele>50.0</ele>
        <time>2019-06-21T14:13:14Z</time>
      </trkpt>
      <trkpt lat="42.1414640" lon="-8.6319580">
        <ele>50.2</ele>
        <time>2019-06-21T14:13:16Z</time>
      </trkpt>
      <trkpt lat="42.1415500" lon="-8.6319120">
        <ele>50.2</ele>
        <time>2019-06-21T14:13:18Z</time>
      </trkpt>
      <trkpt lat="42.1418120" lon="-8.6317510">
        <ele>50.8</ele>
        <time>2019-06-21T14:13:24Z</time>
      </trkpt>
      <trkpt lat="42.1419470" lon="-8.6316750">
        <ele>50.6</ele>
        <time>2019-06-21T14:13:27Z</time>
      </trkpt>
      <trkpt lat="42.1420730" lon="-8.6315860">
        <ele>50.4</ele>
        <time>2019-06-21T14:13:30Z</time>
      </trkpt>
      <trkpt lat="42.1421340" lon="-8.6315130">
        <ele>50.6</ele>
        <time>2019-06-21T14:13:32Z</time>
      </trkpt>
      <trkpt lat="42.1422170" lon="-8.6314720">
        <ele>50.4</ele>
        <time>2019-06-21T14:13:35Z</time>
      </trkpt>
      <trkpt lat="42.1423480" lon="-8.6314060">
        <ele>50.8</ele>
        <time>2019-06-21T14:13:38Z</time>
      </trkpt>
      <trkpt lat="42.1423910" lon="-8.6313840">
        <ele>51.0</ele>
        <time>2019-06-21T14:13:39Z</time>
      </trkpt>
      <trkpt lat="42.1427550" lon="-8.6312060">
        <ele>51.4</ele>
        <time>2019-06-21T14:13:47Z</time>
      </trkpt>
      <trkpt lat="42.1432200" lon="-8.6309670">
        <ele>51.6</ele>
        <time>2019-06-21T14:13:57Z</time>
      </trkpt>
      <trkpt lat="42.1435030" lon="-8.6308410">
        <ele>51.4</ele>
        <time>2019-06-21T14:14:03Z</time>
      </trkpt>
      <trkpt lat="42.1435410" lon="-8.6308330">
        <ele>51.4</ele>
        <time>2019-06-21T14:14:04Z</time>
      </trkpt>
      <trkpt lat="42.1436720" lon="-8.6307480">
        <ele>50.8</ele>
        <time>2019-06-21T14:14:08Z</time>
      </trkpt>
      <trkpt lat="42.1437400" lon="-8.6306910">
        <ele>51.0</ele>
        <time>2019-06-21T14:14:10Z</time>
      </trkpt>
      <trkpt lat="42.1438700" lon="-8.6306160">
        <ele>50.8</ele>
        <time>2019-06-21T14:14:13Z</time>
      </trkpt>
      <trkpt lat="42.1441190" lon="-8.6304790">
        <ele>51.0</ele>
        <time>2019-06-21T14:14:19Z</time>
      </trkpt>
      <trkpt lat="42.1442510" lon="-8.6304400">
        <ele>50.4</ele>
        <time>2019-06-21T14:14:23Z</time>
      </trkpt>
      <trkpt lat="42.1443030" lon="-8.6304330">
        <ele>50.4</ele>
        <time>2019-06-21T14:14:25Z</time>
      </trkpt>
      <trkpt lat="42.1443360" lon="-8.6304080">
        <ele>50.4</ele>
        <time>2019-06-21T14:14:27Z</time>
      </trkpt>
      <trkpt lat="42.1443220" lon="-8.6303610">
        <ele>50.2</ele>
        <time>2019-06-21T14:14:29Z</time>
      </trkpt>
      <trkpt lat="42.1442310" lon="-8.6302410">
        <ele>50.0</ele>
        <time>2019-06-21T14:14:33Z</time>
      </trkpt>
      <trkpt lat="42.1442170" lon="-8.6300580">
        <ele>50.0</ele>
        <time>2019-06-21T14:14:36Z</time>
      </trkpt>
      <trkpt lat="42.1442250" lon="-8.6299930">
        <ele>49.8</ele>
        <time>2019-06-21T14:14:37Z</time>
      </trkpt>
      <trkpt lat="42.1442340" lon="-8.6299300">
        <ele>49.8</ele>
        <time>2019-06-21T14:14:38Z</time>
      </trkpt>
      <trkpt lat="42.1442390" lon="-8.6298650">
        <ele>49.6</ele>
        <time>2019-06-21T14:14:39Z</time>
      </trkpt>
      <trkpt lat="42.1442670" lon="-8.6295440">
        <ele>49.4</ele>
        <time>2019-06-21T14:14:44Z</time>
      </trkpt>
      <trkpt lat="42.1443010" lon="-8.6290300">
        <ele>49.0</ele>
        <time>2019-06-21T14:14:51Z</time>
      </trkpt>
      <trkpt lat="42.1443490" lon="-8.6285590">
        <ele>48.8</ele>
        <time>2019-06-21T14:14:57Z</time>
      </trkpt>
      <trkpt lat="42.1443670" lon="-8.6284010">
        <ele>48.8</ele>
        <time>2019-06-21T14:14:59Z</time>
      </trkpt>
      <trkpt lat="42.1444600" lon="-8.6277630">
        <ele>48.6</ele>
        <time>2019-06-21T14:15:07Z</time>
      </trkpt>
      <trkpt lat="42.1445060" lon="-8.6271320">
        <ele>48.4</ele>
        <time>2019-06-21T14:15:15Z</time>
      </trkpt>
      <trkpt lat="42.1445070" lon="-8.6265360">
        <ele>48.6</ele>
        <time>2019-06-21T14:15:23Z</time>
      </trkpt>
      <trkpt lat="42.1445270" lon="-8.6258280">
        <ele>48.4</ele>
        <time>2019-06-21T14:15:32Z</time>
      </trkpt>
      <trkpt lat="42.1445450" lon="-8.6253260">
        <ele>48.4</ele>
        <time>2019-06-21T14:15:39Z</time>
      </trkpt>
      <trkpt lat="42.1445430" lon="-8.6251840">
        <ele>48.4</ele>
        <time>2019-06-21T14:15:41Z</time>
      </trkpt>
      <trkpt lat="42.1445320" lon="-8.6250350">
        <ele>48.8</ele>
        <time>2019-06-21T14:15:43Z</time>
      </trkpt>
      <trkpt lat="42.1445230" lon="-8.6249630">
        <ele>48.8</ele>
        <time>2019-06-21T14:15:44Z</time>
      </trkpt>
      <trkpt lat="42.1444500" lon="-8.6243670">
        <ele>48.4</ele>
        <time>2019-06-21T14:15:53Z</time>
      </trkpt>
      <trkpt lat="42.1444190" lon="-8.6241310">
        <ele>48.6</ele>
        <time>2019-06-21T14:15:57Z</time>
      </trkpt>
      <trkpt lat="42.1444660" lon="-8.6240310">
        <ele>48.6</ele>
        <time>2019-06-21T14:15:59Z</time>
      </trkpt>
      <trkpt lat="42.1445990" lon="-8.6239540">
        <ele>49.0</ele>
        <time>2019-06-21T14:16:02Z</time>
      </trkpt>
      <trkpt lat="42.1446800" lon="-8.6239310">
        <ele>49.2</ele>
        <time>2019-06-21T14:16:04Z</time>
      </trkpt>
      <trkpt lat="42.1447790" lon="-8.6238770">
        <ele>50.2</ele>
        <time>2019-06-21T14:16:07Z</time>
      </trkpt>
      <trkpt lat="42.1448730" lon="-8.6238170">
        <ele>51.2</ele>
        <time>2019-06-21T14:16:11Z</time>
      </trkpt>
      <trkpt lat="42.1449110" lon="-8.6237900">
        <ele>51.8</ele>
        <time>2019-06-21T14:16:13Z</time>
      </trkpt>
      <trkpt lat="42.1449700" lon="-8.6237500">
        <ele>52.2</ele>
        <time>2019-06-21T14:16:16Z</time>
      </trkpt>
      <trkpt lat="42.1450760" lon="-8.6236900">
        <ele>53.2</ele>
        <time>2019-06-21T14:16:21Z</time>
      </trkpt>
      <trkpt lat="42.1450970" lon="-8.6236780">
        <ele>53.4</ele>
        <time>2019-06-21T14:16:22Z</time>
      </trkpt>
      <trkpt lat="42.1451580" lon="-8.6236470">
        <ele>54.2</ele>
        <time>2019-06-21T14:16:25Z</time>
      </trkpt>
      <trkpt lat="42.1451990" lon="-8.6236260">
        <ele>54.6</ele>
        <time>2019-06-21T14:16:27Z</time>
      </trkpt>
      <trkpt lat="42.1452800" lon="-8.6235740">
        <ele>55.4</ele>
        <time>2019-06-21T14:16:31Z</time>
      </trkpt>
      <trkpt lat="42.1453020" lon="-8.6235630">
        <ele>55.8</ele>
        <time>2019-06-21T14:16:32Z</time>
      </trkpt>
      <trkpt lat="42.1453990" lon="-8.6234960">
        <ele>57.0</ele>
        <time>2019-06-21T14:16:37Z</time>
      </trkpt>
      <trkpt lat="42.1454870" lon="-8.6234520">
        <ele>57.6</ele>
        <time>2019-06-21T14:16:41Z</time>
      </trkpt>
      <trkpt lat="42.1455300" lon="-8.6234230">
        <ele>58.0</ele>
        <time>2019-06-21T14:16:43Z</time>
      </trkpt>
      <trkpt lat="42.1455940" lon="-8.6233790">
        <ele>58.6</ele>
        <time>2019-06-21T14:16:46Z</time>
      </trkpt>
      <trkpt lat="42.1456340" lon="-8.6233480">
        <ele>59.0</ele>
        <time>2019-06-21T14:16:48Z</time>
      </trkpt>
      <trkpt lat="42.1456740" lon="-8.6233110">
        <ele>59.4</ele>
        <time>2019-06-21T14:16:50Z</time>
      </trkpt>
      <trkpt lat="42.1458040" lon="-8.6231130">
        <ele>60.0</ele>
        <time>2019-06-21T14:16:57Z</time>
      </trkpt>
      <trkpt lat="42.1458790" lon="-8.6228450">
        <ele>59.0</ele>
        <time>2019-06-21T14:17:02Z</time>
      </trkpt>
      <trkpt lat="42.1459060" lon="-8.6227290">
        <ele>57.8</ele>
        <time>2019-06-21T14:17:04Z</time>
      </trkpt>
      <trkpt lat="42.1459300" lon="-8.6226210">
        <ele>56.8</ele>
        <time>2019-06-21T14:17:06Z</time>
      </trkpt>
      <trkpt lat="42.1459530" lon="-8.6225110">
        <ele>55.2</ele>
        <time>2019-06-21T14:17:09Z</time>
      </trkpt>
      <trkpt lat="42.1459580" lon="-8.6224430">
        <ele>54.0</ele>
        <time>2019-06-21T14:17:13Z</time>
      </trkpt>
      <trkpt lat="42.1459660" lon="-8.6224190">
        <ele>54.0</ele>
        <time>2019-06-21T14:17:14Z</time>
      </trkpt>
      <trkpt lat="42.1460390" lon="-8.6223280">
        <ele>54.0</ele>
        <time>2019-06-21T14:17:18Z</time>
      </trkpt>
      <trkpt lat="42.1461930" lon="-8.6223050">
        <ele>54.0</ele>
        <time>2019-06-21T14:17:23Z</time>
      </trkpt>
      <trkpt lat="42.1463820" lon="-8.6223010">
        <ele>54.4</ele>
        <time>2019-06-21T14:17:28Z</time>
      </trkpt>
      <trkpt lat="42.1464650" lon="-8.6223010">
        <ele>54.2</ele>
        <time>2019-06-21T14:17:30Z</time>
      </trkpt>
      <trkpt lat="42.1467480" lon="-8.6222800">
        <ele>54.2</ele>
        <time>2019-06-21T14:17:36Z</time>
      </trkpt>
      <trkpt lat="42.1472050" lon="-8.6222740">
        <ele>53.6</ele>
        <time>2019-06-21T14:17:44Z</time>
      </trkpt>
      <trkpt lat="42.1475470" lon="-8.6222450">
        <ele>53.2</ele>
        <time>2019-06-21T14:17:50Z</time>
      </trkpt>
      <trkpt lat="42.1480130" lon="-8.6222200">
        <ele>53.2</ele>
        <time>2019-06-21T14:17:58Z</time>
      </trkpt>
      <trkpt lat="42.1484120" lon="-8.6221950">
        <ele>53.4</ele>
        <time>2019-06-21T14:18:05Z</time>
      </trkpt>
      <trkpt lat="42.1489150" lon="-8.6220830">
        <ele>54.0</ele>
        <time>2019-06-21T14:18:14Z</time>
      </trkpt>
      <trkpt lat="42.1492430" lon="-8.6219850">
        <ele>54.4</ele>
        <time>2019-06-21T14:18:20Z</time>
      </trkpt>
      <trkpt lat="42.1493500" lon="-8.6219540">
        <ele>54.4</ele>
        <time>2019-06-21T14:18:22Z</time>
      </trkpt>
      <trkpt lat="42.1497180" lon="-8.6218360">
        <ele>55.0</ele>
        <time>2019-06-21T14:18:29Z</time>
      </trkpt>
      <trkpt lat="42.1498210" lon="-8.6218070">
        <ele>55.2</ele>
        <time>2019-06-21T14:18:31Z</time>
      </trkpt>
      <trkpt lat="42.1501270" lon="-8.6217160">
        <ele>55.6</ele>
        <time>2019-06-21T14:18:37Z</time>
      </trkpt>
      <trkpt lat="42.1504750" lon="-8.6216020">
        <ele>55.0</ele>
        <time>2019-06-21T14:18:44Z</time>
      </trkpt>
      <trkpt lat="42.1509360" lon="-8.6214540">
        <ele>54.8</ele>
        <time>2019-06-21T14:18:53Z</time>
      </trkpt>
      <trkpt lat="42.1514220" lon="-8.6212940">
        <ele>55.2</ele>
        <time>2019-06-21T14:19:02Z</time>
      </trkpt>
      <trkpt lat="42.1519490" lon="-8.6211230">
        <ele>55.0</ele>
        <time>2019-06-21T14:19:12Z</time>
      </trkpt>
      <trkpt lat="42.1523240" lon="-8.6209980">
        <ele>54.4</ele>
        <time>2019-06-21T14:19:19Z</time>
      </trkpt>
      <trkpt lat="42.1527390" lon="-8.6208700">
        <ele>54.2</ele>
        <time>2019-06-21T14:19:26Z</time>
      </trkpt>
      <trkpt lat="42.1528000" lon="-8.6208510">
        <ele>54.0</ele>
        <time>2019-06-21T14:19:27Z</time>
      </trkpt>
      <trkpt lat="42.1532640" lon="-8.6206970">
        <ele>53.2</ele>
        <time>2019-06-21T14:19:35Z</time>
      </trkpt>
      <trkpt lat="42.1533190" lon="-8.6206740">
        <ele>53.4</ele>
        <time>2019-06-21T14:19:36Z</time>
      </trkpt>
      <trkpt lat="42.1534270" lon="-8.6206370">
        <ele>52.8</ele>
        <time>2019-06-21T14:19:38Z</time>
      </trkpt>
      <trkpt lat="42.1536950" lon="-8.6205340">
        <ele>52.4</ele>
        <time>2019-06-21T14:19:43Z</time>
      </trkpt>
      <trkpt lat="42.1537520" lon="-8.6205160">
        <ele>52.6</ele>
        <time>2019-06-21T14:19:44Z</time>
      </trkpt>
      <trkpt lat="42.1540010" lon="-8.6204490">
        <ele>52.6</ele>
        <time>2019-06-21T14:19:49Z</time>
      </trkpt>
      <trkpt lat="42.1540480" lon="-8.6204460">
        <ele>52.6</ele>
        <time>2019-06-21T14:19:50Z</time>
      </trkpt>
      <trkpt lat="42.1542840" lon="-8.6204180">
        <ele>52.8</ele>
        <time>2019-06-21T14:19:55Z</time>
      </trkpt>
      <trkpt lat="42.1543300" lon="-8.6204380">
        <ele>52.8</ele>
        <time>2019-06-21T14:19:56Z</time>
      </trkpt>
      <trkpt lat="42.1544060" lon="-8.6205260">
        <ele>53.0</ele>
        <time>2019-06-21T14:19:58Z</time>
      </trkpt>
      <trkpt lat="42.1546690" lon="-8.6207330">
        <ele>53.2</ele>
        <time>2019-06-21T14:20:04Z</time>
      </trkpt>
      <trkpt lat="42.1549920" lon="-8.6208940">
        <ele>53.4</ele>
        <time>2019-06-21T14:20:10Z</time>
      </trkpt>
      <trkpt lat="42.1553250" lon="-8.6209540">
        <ele>53.6</ele>
        <time>2019-06-21T14:20:16Z</time>
      </trkpt>
      <trkpt lat="42.1554500" lon="-8.6209690">
        <ele>53.4</ele>
        <time>2019-06-21T14:20:20Z</time>
      </trkpt>
      <trkpt lat="42.1555810" lon="-8.6209370">
        <ele>53.6</ele>
        <time>2019-06-21T14:20:26Z</time>
      </trkpt>
      <trkpt lat="42.1556100" lon="-8.6209400">
        <ele>53.4</ele>
        <time>2019-06-21T14:20:27Z</time>
      </trkpt>
      <trkpt lat="42.1557090" lon="-8.6209160">
        <ele>53.4</ele>
        <time>2019-06-21T14:20:30Z</time>
      </trkpt>
      <trkpt lat="42.1557620" lon="-8.6209070">
        <ele>53.0</ele>
        <time>2019-06-21T14:20:32Z</time>
      </trkpt>
      <trkpt lat="42.1558160" lon="-8.6208800">
        <ele>52.8</ele>
        <time>2019-06-21T14:20:35Z</time>
      </trkpt>
      <trkpt lat="42.1559590" lon="-8.6208230">
        <ele>52.4</ele>
        <time>2019-06-21T14:20:39Z</time>
      </trkpt>
      <trkpt lat="42.1560800" lon="-8.6207700">
        <ele>52.2</ele>
        <time>2019-06-21T14:20:42Z</time>
      </trkpt>
      <trkpt lat="42.1561730" lon="-8.6207280">
        <ele>52.2</ele>
        <time>2019-06-21T14:20:44Z</time>
      </trkpt>
      <trkpt lat="42.1563180" lon="-8.6206560">
        <ele>52.2</ele>
        <time>2019-06-21T14:20:47Z</time>
      </trkpt>
      <trkpt lat="42.1564580" lon="-8.6205790">
        <ele>52.4</ele>
        <time>2019-06-21T14:20:50Z</time>
      </trkpt>
      <trkpt lat="42.1568870" lon="-8.6203760">
        <ele>52.6</ele>
        <time>2019-06-21T14:20:59Z</time>
      </trkpt>
      <trkpt lat="42.1569360" lon="-8.6203640">
        <ele>52.6</ele>
        <time>2019-06-21T14:21:00Z</time>
      </trkpt>
      <trkpt lat="42.1570500" lon="-8.6203040">
        <ele>53.0</ele>
        <time>2019-06-21T14:21:03Z</time>
      </trkpt>
      <trkpt lat="42.1571710" lon="-8.6201770">
        <ele>52.8</ele>
        <time>2019-06-21T14:21:08Z</time>
      </trkpt>
      <trkpt lat="42.1571950" lon="-8.6200830">
        <ele>53.0</ele>
        <time>2019-06-21T14:21:11Z</time>
      </trkpt>
      <trkpt lat="42.1572120" lon="-8.6200570">
        <ele>53.2</ele>
        <time>2019-06-21T14:21:12Z</time>
      </trkpt>
      <trkpt lat="42.1573270" lon="-8.6200160">
        <ele>53.2</ele>
        <time>2019-06-21T14:21:16Z</time>
      </trkpt>
      <trkpt lat="42.1573600" lon="-8.6200170">
        <ele>53.2</ele>
        <time>2019-06-21T14:21:17Z</time>
      </trkpt>
      <trkpt lat="42.1575060" lon="-8.6200200">
        <ele>53.8</ele>
        <time>2019-06-21T14:21:21Z</time>
      </trkpt>
      <trkpt lat="42.1575790" lon="-8.6200280">
        <ele>53.8</ele>
        <time>2019-06-21T14:21:23Z</time>
      </trkpt>
      <trkpt lat="42.1578050" lon="-8.6200240">
        <ele>54.0</ele>
        <time>2019-06-21T14:21:29Z</time>
      </trkpt>
      <trkpt lat="42.1580170" lon="-8.6200470">
        <ele>54.2</ele>
        <time>2019-06-21T14:21:35Z</time>
      </trkpt>
      <trkpt lat="42.1581130" lon="-8.6200410">
        <ele>55.0</ele>
        <time>2019-06-21T14:21:38Z</time>
      </trkpt>
      <trkpt lat="42.1582050" lon="-8.6200580">
        <ele>55.4</ele>
        <time>2019-06-21T14:21:41Z</time>
      </trkpt>
      <trkpt lat="42.1583020" lon="-8.6200870">
        <ele>56.2</ele>
        <time>2019-06-21T14:21:44Z</time>
      </trkpt>
      <trkpt lat="42.1583800" lon="-8.6201220">
        <ele>56.6</ele>
        <time>2019-06-21T14:21:47Z</time>
      </trkpt>
      <trkpt lat="42.1584520" lon="-8.6201430">
        <ele>57.2</ele>
        <time>2019-06-21T14:21:50Z</time>
      </trkpt>
      <trkpt lat="42.1585250" lon="-8.6201670">
        <ele>57.8</ele>
        <time>2019-06-21T14:21:53Z</time>
      </trkpt>
      <trkpt lat="42.1585730" lon="-8.6201820">
        <ele>58.4</ele>
        <time>2019-06-21T14:21:55Z</time>
      </trkpt>
      <trkpt lat="42.1585940" lon="-8.6201910">
        <ele>58.6</ele>
        <time>2019-06-21T14:21:56Z</time>
      </trkpt>
      <trkpt lat="42.1586560" lon="-8.6202160">
        <ele>59.2</ele>
        <time>2019-06-21T14:21:59Z</time>
      </trkpt>
      <trkpt lat="42.1587020" lon="-8.6202190">
        <ele>59.6</ele>
        <time>2019-06-21T14:22:01Z</time>
      </trkpt>
      <trkpt lat="42.1587990" lon="-8.6202130">
        <ele>60.2</ele>
        <time>2019-06-21T14:22:05Z</time>
      </trkpt>
      <trkpt lat="42.1589580" lon="-8.6202210">
        <ele>60.6</ele>
        <time>2019-06-21T14:22:12Z</time>
      </trkpt>
      <trkpt lat="42.1589900" lon="-8.6202180">
        <ele>60.6</ele>
        <time>2019-06-21T14:22:13Z</time>
      </trkpt>
      <trkpt lat="42.1590680" lon="-8.6201990">
        <ele>61.0</ele>
        <time>2019-06-21T14:22:16Z</time>
      </trkpt>
      <trkpt lat="42.1590910" lon="-8.6201900">
        <ele>61.0</ele>
        <time>2019-06-21T14:22:17Z</time>
      </trkpt>
      <trkpt lat="42.1591510" lon="-8.6202730">
        <ele>61.0</ele>
        <time>2019-06-21T14:22:20Z</time>
      </trkpt>
      <trkpt lat="42.1591860" lon="-8.6203540">
        <ele>60.4</ele>
        <time>2019-06-21T14:22:22Z</time>
      </trkpt>
      <trkpt lat="42.1592410" lon="-8.6204760">
        <ele>59.2</ele>
        <time>2019-06-21T14:22:25Z</time>
      </trkpt>
      <trkpt lat="42.1592830" lon="-8.6205590">
        <ele>58.8</ele>
        <time>2019-06-21T14:22:27Z</time>
      </trkpt>
      <trkpt lat="42.1593180" lon="-8.6205780">
        <ele>58.6</ele>
        <time>2019-06-21T14:22:28Z</time>
      </trkpt>
      <trkpt lat="42.1593720" lon="-8.6205850">
        <ele>58.2</ele>
        <time>2019-06-21T14:22:30Z</time>
      </trkpt>
      <trkpt lat="42.1593980" lon="-8.6205980">
        <ele>58.2</ele>
        <time>2019-06-21T14:22:31Z</time>
      </trkpt>
      <trkpt lat="42.1594330" lon="-8.6206760">
        <ele>57.8</ele>
        <time>2019-06-21T14:22:34Z</time>
      </trkpt>
      <trkpt lat="42.1594420" lon="-8.6207090">
        <ele>57.6</ele>
        <time>2019-06-21T14:22:35Z</time>
      </trkpt>
      <trkpt lat="42.1594770" lon="-8.6208230">
        <ele>57.0</ele>
        <time>2019-06-21T14:22:38Z</time>
      </trkpt>
      <trkpt lat="42.1595260" lon="-8.6209630">
        <ele>55.8</ele>
        <time>2019-06-21T14:22:41Z</time>
      </trkpt>
      <trkpt lat="42.1595450" lon="-8.6210610">
        <ele>54.8</ele>
        <time>2019-06-21T14:22:44Z</time>
      </trkpt>
      <trkpt lat="42.1595560" lon="-8.6210770">
        <ele>54.6</ele>
        <time>2019-06-21T14:22:45Z</time>
      </trkpt>
      <trkpt lat="42.1596360" lon="-8.6210870">
        <ele>54.6</ele>
        <time>2019-06-21T14:22:49Z</time>
      </trkpt>
      <trkpt lat="42.1596580" lon="-8.6210840">
        <ele>54.6</ele>
        <time>2019-06-21T14:22:50Z</time>
      </trkpt>
      <trkpt lat="42.1597980" lon="-8.6210910">
        <ele>54.4</ele>
        <time>2019-06-21T14:22:55Z</time>
      </trkpt>
      <trkpt lat="42.1598600" lon="-8.6210980">
        <ele>54.4</ele>
        <time>2019-06-21T14:22:57Z</time>
      </trkpt>
      <trkpt lat="42.1599270" lon="-8.6211060">
        <ele>54.4</ele>
        <time>2019-06-21T14:22:59Z</time>
      </trkpt>
      <trkpt lat="42.1600450" lon="-8.6211240">
        <ele>54.4</ele>
        <time>2019-06-21T14:23:03Z</time>
      </trkpt>
      <trkpt lat="42.1602080" lon="-8.6211510">
        <ele>54.4</ele>
        <time>2019-06-21T14:23:08Z</time>
      </trkpt>
      <trkpt lat="42.1603210" lon="-8.6211620">
        <ele>54.4</ele>
        <time>2019-06-21T14:23:11Z</time>
      </trkpt>
      <trkpt lat="42.1604000" lon="-8.6211680">
        <ele>54.4</ele>
        <time>2019-06-21T14:23:13Z</time>
      </trkpt>
      <trkpt lat="42.1604510" lon="-8.6210780">
        <ele>54.6</ele>
        <time>2019-06-21T14:23:16Z</time>
      </trkpt>
      <trkpt lat="42.1604750" lon="-8.6210600">
        <ele>54.6</ele>
        <time>2019-06-21T14:23:17Z</time>
      </trkpt>
      <trkpt lat="42.1605340" lon="-8.6210330">
        <ele>54.4</ele>
        <time>2019-06-21T14:23:20Z</time>
      </trkpt>
      <trkpt lat="42.1605570" lon="-8.6210480">
        <ele>54.4</ele>
        <time>2019-06-21T14:23:21Z</time>
      </trkpt>
      <trkpt lat="42.1605970" lon="-8.6211030">
        <ele>54.4</ele>
        <time>2019-06-21T14:23:23Z</time>
      </trkpt>
      <trkpt lat="42.1606720" lon="-8.6211150">
        <ele>54.2</ele>
        <time>2019-06-21T14:23:26Z</time>
      </trkpt>
      <trkpt lat="42.1607920" lon="-8.6210970">
        <ele>54.6</ele>
        <time>2019-06-21T14:23:30Z</time>
      </trkpt>
      <trkpt lat="42.1608570" lon="-8.6210950">
        <ele>54.8</ele>
        <time>2019-06-21T14:23:32Z</time>
      </trkpt>
      <trkpt lat="42.1610040" lon="-8.6210450">
        <ele>55.2</ele>
        <time>2019-06-21T14:23:37Z</time>
      </trkpt>
      <trkpt lat="42.1611690" lon="-8.6210420">
        <ele>55.4</ele>
        <time>2019-06-21T14:23:41Z</time>
      </trkpt>
      <trkpt lat="42.1612430" lon="-8.6210330">
        <ele>55.6</ele>
        <time>2019-06-21T14:23:43Z</time>
      </trkpt>
      <trkpt lat="42.1614000" lon="-8.6210360">
        <ele>55.8</ele>
        <time>2019-06-21T14:23:47Z</time>
      </trkpt>
      <trkpt lat="42.1614630" lon="-8.6210520">
        <ele>56.2</ele>
        <time>2019-06-21T14:23:49Z</time>
      </trkpt>
      <trkpt lat="42.1616050" lon="-8.6210580">
        <ele>56.2</ele>
        <time>2019-06-21T14:23:54Z</time>
      </trkpt>
      <trkpt lat="42.1617050" lon="-8.6211130">
        <ele>56.2</ele>
        <time>2019-06-21T14:23:59Z</time>
      </trkpt>
      <trkpt lat="42.1617400" lon="-8.6211140">
        <ele>56.2</ele>
        <time>2019-06-21T14:24:07Z</time>
      </trkpt>
      <trkpt lat="42.1617540" lon="-8.6211130">
        <ele>56.2</ele>
        <time>2019-06-21T14:24:08Z</time>
      </trkpt>
      <trkpt lat="42.1617970" lon="-8.6210980">
        <ele>55.8</ele>
        <time>2019-06-21T14:24:14Z</time>
      </trkpt>
      <trkpt lat="42.1619030" lon="-8.6211370">
        <ele>56.2</ele>
        <time>2019-06-21T14:24:27Z</time>
      </trkpt>
      <trkpt lat="42.1619190" lon="-8.6211410">
        <ele>56.6</ele>
        <time>2019-06-21T14:24:28Z</time>
      </trkpt>
      <trkpt lat="42.1619510" lon="-8.6211590">
        <ele>56.8</ele>
        <time>2019-06-21T14:24:30Z</time>
      </trkpt>
      <trkpt lat="42.1620980" lon="-8.6212770">
        <ele>56.8</ele>
        <time>2019-06-21T14:24:38Z</time>
      </trkpt>
      <trkpt lat="42.1621370" lon="-8.6212950">
        <ele>57.0</ele>
        <time>2019-06-21T14:24:40Z</time>
      </trkpt>
      <trkpt lat="42.1622430" lon="-8.6213110">
        <ele>57.6</ele>
        <time>2019-06-21T14:24:44Z</time>
      </trkpt>
      <trkpt lat="42.1624680" lon="-8.6212720">
        <ele>58.0</ele>
        <time>2019-06-21T14:24:51Z</time>
      </trkpt>
      <trkpt lat="42.1625200" lon="-8.6212680">
        <ele>58.2</ele>
        <time>2019-06-21T14:24:53Z</time>
      </trkpt>
      <trkpt lat="42.1626180" lon="-8.6213530">
        <ele>58.2</ele>
        <time>2019-06-21T14:24:58Z</time>
      </trkpt>
      <trkpt lat="42.1626630" lon="-8.6214230">
        <ele>57.6</ele>
        <time>2019-06-21T14:25:03Z</time>
      </trkpt>
      <trkpt lat="42.1626620" lon="-8.6214620">
        <ele>57.6</ele>
        <time>2019-06-21T14:25:04Z</time>
      </trkpt>
      <trkpt lat="42.1626100" lon="-8.6214990">
        <ele>57.6</ele>
        <time>2019-06-21T14:25:06Z</time>
      </trkpt>
      <trkpt lat="42.1625850" lon="-8.6215070">
        <ele>58.0</ele>
        <time>2019-06-21T14:25:10Z</time>
      </trkpt>
      <trkpt lat="42.1626270" lon="-8.6215240">
        <ele>58.0</ele>
        <time>2019-06-21T14:25:11Z</time>
      </trkpt>
      <trkpt lat="42.1626680" lon="-8.6215420">
        <ele>58.6</ele>
        <time>2019-06-21T14:30:54Z</time>
      </trkpt>
      <trkpt lat="42.1627100" lon="-8.6215590">
        <ele>58.6</ele>
        <time>2019-06-21T14:30:55Z</time>
      </trkpt>
      <trkpt lat="42.1627930" lon="-8.6214920">
        <ele>58.8</ele>
        <time>2019-06-21T14:30:58Z</time>
      </trkpt>
      <trkpt lat="42.1628520" lon="-8.6214680">
        <ele>58.8</ele>
        <time>2019-06-21T14:31:00Z</time>
      </trkpt>
      <trkpt lat="42.1629350" lon="-8.6214410">
        <ele>59.0</ele>
        <time>2019-06-21T14:31:03Z</time>
      </trkpt>
      <trkpt lat="42.1630210" lon="-8.6214230">
        <ele>59.0</ele>
        <time>2019-06-21T14:31:05Z</time>
      </trkpt>
      <trkpt lat="42.1630690" lon="-8.6214120">
        <ele>59.2</ele>
        <time>2019-06-21T14:31:06Z</time>
      </trkpt>
      <trkpt lat="42.1631270" lon="-8.6213760">
        <ele>59.4</ele>
        <time>2019-06-21T14:31:08Z</time>
      </trkpt>
      <trkpt lat="42.1631690" lon="-8.6213580">
        <ele>59.4</ele>
        <time>2019-06-21T14:31:09Z</time>
      </trkpt>
      <trkpt lat="42.1634040" lon="-8.6212710">
        <ele>60.0</ele>
        <time>2019-06-21T14:31:15Z</time>
      </trkpt>
      <trkpt lat="42.1635370" lon="-8.6211830">
        <ele>60.4</ele>
        <time>2019-06-21T14:31:18Z</time>
      </trkpt>
      <trkpt lat="42.1636680" lon="-8.6211650">
        <ele>60.6</ele>
        <time>2019-06-21T14:31:21Z</time>
      </trkpt>
      <trkpt lat="42.1638330" lon="-8.6211140">
        <ele>60.8</ele>
        <time>2019-06-21T14:31:25Z</time>
      </trkpt>
      <trkpt lat="42.1639210" lon="-8.6211180">
        <ele>61.0</ele>
        <time>2019-06-21T14:31:27Z</time>
      </trkpt>
      <trkpt lat="42.1640790" lon="-8.6210950">
        <ele>61.2</ele>
        <time>2019-06-21T14:31:31Z</time>
      </trkpt>
      <trkpt lat="42.1641270" lon="-8.6210940">
        <ele>61.4</ele>
        <time>2019-06-21T14:31:32Z</time>
      </trkpt>
      <trkpt lat="42.1642760" lon="-8.6210420">
        <ele>61.6</ele>
        <time>2019-06-21T14:31:36Z</time>
      </trkpt>
      <trkpt lat="42.1645520" lon="-8.6210140">
        <ele>61.4</ele>
        <time>2019-06-21T14:31:42Z</time>
      </trkpt>
      <trkpt lat="42.1647940" lon="-8.6209580">
        <ele>61.8</ele>
        <time>2019-06-21T14:31:47Z</time>
      </trkpt>
      <trkpt lat="42.1651860" lon="-8.6208290">
        <ele>62.0</ele>
        <time>2019-06-21T14:31:56Z</time>
      </trkpt>
      <trkpt lat="42.1653380" lon="-8.6207760">
        <ele>62.6</ele>
        <time>2019-06-21T14:32:00Z</time>
      </trkpt>
      <trkpt lat="42.1654840" lon="-8.6207310">
        <ele>63.2</ele>
        <time>2019-06-21T14:32:04Z</time>
      </trkpt>
      <trkpt lat="42.1655490" lon="-8.6207120">
        <ele>63.8</ele>
        <time>2019-06-21T14:32:06Z</time>
      </trkpt>
      <trkpt lat="42.1656860" lon="-8.6206610">
        <ele>64.4</ele>
        <time>2019-06-21T14:32:11Z</time>
      </trkpt>
      <trkpt lat="42.1657920" lon="-8.6205420">
        <ele>64.4</ele>
        <time>2019-06-21T14:32:16Z</time>
      </trkpt>
      <trkpt lat="42.1658950" lon="-8.6204300">
        <ele>65.0</ele>
        <time>2019-06-21T14:32:19Z</time>
      </trkpt>
      <trkpt lat="42.1659360" lon="-8.6204160">
        <ele>65.2</ele>
        <time>2019-06-21T14:32:20Z</time>
      </trkpt>
      <trkpt lat="42.1661120" lon="-8.6204440">
        <ele>65.4</ele>
        <time>2019-06-21T14:32:24Z</time>
      </trkpt>
      <trkpt lat="42.1661570" lon="-8.6204630">
        <ele>65.6</ele>
        <time>2019-06-21T14:32:25Z</time>
      </trkpt>
      <trkpt lat="42.1662780" lon="-8.6205040">
        <ele>66.2</ele>
        <time>2019-06-21T14:32:28Z</time>
      </trkpt>
      <trkpt lat="42.1663650" lon="-8.6204900">
        <ele>66.4</ele>
        <time>2019-06-21T14:32:30Z</time>
      </trkpt>
      <trkpt lat="42.1665740" lon="-8.6204200">
        <ele>67.0</ele>
        <time>2019-06-21T14:32:36Z</time>
      </trkpt>
      <trkpt lat="42.1666060" lon="-8.6204130">
        <ele>67.2</ele>
        <time>2019-06-21T14:32:37Z</time>
      </trkpt>
      <trkpt lat="42.1668330" lon="-8.6203450">
        <ele>68.0</ele>
        <time>2019-06-21T14:32:44Z</time>
      </trkpt>
      <trkpt lat="42.1668680" lon="-8.6203380">
        <ele>68.0</ele>
        <time>2019-06-21T14:32:45Z</time>
      </trkpt>
      <trkpt lat="42.1669340" lon="-8.6203120">
        <ele>68.2</ele>
        <time>2019-06-21T14:32:47Z</time>
      </trkpt>
      <trkpt lat="42.1670980" lon="-8.6202660">
        <ele>68.8</ele>
        <time>2019-06-21T14:32:52Z</time>
      </trkpt>
      <trkpt lat="42.1673750" lon="-8.6202060">
        <ele>69.2</ele>
        <time>2019-06-21T14:33:00Z</time>
      </trkpt>
      <trkpt lat="42.1675180" lon="-8.6201650">
        <ele>69.2</ele>
        <time>2019-06-21T14:33:04Z</time>
      </trkpt>
      <trkpt lat="42.1677320" lon="-8.6200910">
        <ele>69.4</ele>
        <time>2019-06-21T14:33:10Z</time>
      </trkpt>
      <trkpt lat="42.1679990" lon="-8.6200210">
        <ele>70.0</ele>
        <time>2019-06-21T14:33:17Z</time>
      </trkpt>
      <trkpt lat="42.1682710" lon="-8.6199530">
        <ele>70.2</ele>
        <time>2019-06-21T14:33:24Z</time>
      </trkpt>
      <trkpt lat="42.1683130" lon="-8.6199410">
        <ele>70.2</ele>
        <time>2019-06-21T14:33:25Z</time>
      </trkpt>
      <trkpt lat="42.1686920" lon="-8.6198310">
        <ele>70.6</ele>
        <time>2019-06-21T14:33:34Z</time>
      </trkpt>
      <trkpt lat="42.1688220" lon="-8.6197910">
        <ele>70.8</ele>
        <time>2019-06-21T14:33:37Z</time>
      </trkpt>
      <trkpt lat="42.1691800" lon="-8.6196900">
        <ele>71.0</ele>
        <time>2019-06-21T14:33:45Z</time>
      </trkpt>
      <trkpt lat="42.1693520" lon="-8.6196390">
        <ele>71.4</ele>
        <time>2019-06-21T14:33:49Z</time>
      </trkpt>
      <trkpt lat="42.1695610" lon="-8.6195790">
        <ele>71.8</ele>
        <time>2019-06-21T14:33:54Z</time>
      </trkpt>
      <trkpt lat="42.1699160" lon="-8.6194620">
        <ele>71.8</ele>
        <time>2019-06-21T14:34:02Z</time>
      </trkpt>
      <trkpt lat="42.1701320" lon="-8.6193790">
        <ele>71.8</ele>
        <time>2019-06-21T14:34:07Z</time>
      </trkpt>
      <trkpt lat="42.1702090" lon="-8.6193340">
        <ele>71.8</ele>
        <time>2019-06-21T14:34:09Z</time>
      </trkpt>
      <trkpt lat="42.1705090" lon="-8.6191540">
        <ele>72.2</ele>
        <time>2019-06-21T14:34:17Z</time>
      </trkpt>
      <trkpt lat="42.1706440" lon="-8.6190190">
        <ele>72.2</ele>
        <time>2019-06-21T14:34:21Z</time>
      </trkpt>
      <trkpt lat="42.1706860" lon="-8.6190060">
        <ele>72.2</ele>
        <time>2019-06-21T14:34:22Z</time>
      </trkpt>
      <trkpt lat="42.1708170" lon="-8.6190310">
        <ele>72.4</ele>
        <time>2019-06-21T14:34:25Z</time>
      </trkpt>
      <trkpt lat="42.1708620" lon="-8.6190380">
        <ele>72.2</ele>
        <time>2019-06-21T14:34:26Z</time>
      </trkpt>
      <trkpt lat="42.1709100" lon="-8.6190360">
        <ele>72.2</ele>
        <time>2019-06-21T14:34:27Z</time>
      </trkpt>
      <trkpt lat="42.1710910" lon="-8.6189660">
        <ele>72.2</ele>
        <time>2019-06-21T14:34:31Z</time>
      </trkpt>
      <trkpt lat="42.1715420" lon="-8.6187360">
        <ele>72.0</ele>
        <time>2019-06-21T14:34:41Z</time>
      </trkpt>
      <trkpt lat="42.1719320" lon="-8.6185630">
        <ele>72.4</ele>
        <time>2019-06-21T14:34:49Z</time>
      </trkpt>
      <trkpt lat="42.1723230" lon="-8.6183810">
        <ele>72.6</ele>
        <time>2019-06-21T14:34:57Z</time>
      </trkpt>
      <trkpt lat="42.1726990" lon="-8.6181980">
        <ele>72.8</ele>
        <time>2019-06-21T14:35:05Z</time>
      </trkpt>
      <trkpt lat="42.1728390" lon="-8.6181330">
        <ele>73.6</ele>
        <time>2019-06-21T14:35:08Z</time>
      </trkpt>
      <trkpt lat="42.1730700" lon="-8.6180250">
        <ele>73.0</ele>
        <time>2019-06-21T14:35:13Z</time>
      </trkpt>
      <trkpt lat="42.1732520" lon="-8.6179340">
        <ele>73.0</ele>
        <time>2019-06-21T14:35:17Z</time>
      </trkpt>
      <trkpt lat="42.1735930" lon="-8.6177780">
        <ele>73.4</ele>
        <time>2019-06-21T14:35:24Z</time>
      </trkpt>
      <trkpt lat="42.1738490" lon="-8.6176550">
        <ele>72.6</ele>
        <time>2019-06-21T14:35:29Z</time>
      </trkpt>
      <trkpt lat="42.1740620" lon="-8.6175580">
        <ele>72.6</ele>
        <time>2019-06-21T14:35:33Z</time>
      </trkpt>
      <trkpt lat="42.1745420" lon="-8.6173160">
        <ele>72.8</ele>
        <time>2019-06-21T14:35:42Z</time>
      </trkpt>
      <trkpt lat="42.1750290" lon="-8.6171010">
        <ele>72.8</ele>
        <time>2019-06-21T14:35:51Z</time>
      </trkpt>
      <trkpt lat="42.1753370" lon="-8.6169580">
        <ele>73.0</ele>
        <time>2019-06-21T14:35:57Z</time>
      </trkpt>
      <trkpt lat="42.1757960" lon="-8.6167410">
        <ele>72.8</ele>
        <time>2019-06-21T14:36:06Z</time>
      </trkpt>
      <trkpt lat="42.1761670" lon="-8.6165600">
        <ele>72.8</ele>
        <time>2019-06-21T14:36:13Z</time>
      </trkpt>
      <trkpt lat="42.1766500" lon="-8.6163250">
        <ele>73.2</ele>
        <time>2019-06-21T14:36:22Z</time>
      </trkpt>
      <trkpt lat="42.1770690" lon="-8.6160680">
        <ele>72.6</ele>
        <time>2019-06-21T14:36:30Z</time>
      </trkpt>
      <trkpt lat="42.1771780" lon="-8.6160150">
        <ele>72.4</ele>
        <time>2019-06-21T14:36:32Z</time>
      </trkpt>
      <trkpt lat="42.1774360" lon="-8.6159040">
        <ele>72.4</ele>
        <time>2019-06-21T14:36:37Z</time>
      </trkpt>
      <trkpt lat="42.1775970" lon="-8.6158360">
        <ele>71.6</ele>
        <time>2019-06-21T14:36:40Z</time>
      </trkpt>
      <trkpt lat="42.1778050" lon="-8.6157260">
        <ele>72.2</ele>
        <time>2019-06-21T14:36:44Z</time>
      </trkpt>
      <trkpt lat="42.1782700" lon="-8.6154050">
        <ele>71.8</ele>
        <time>2019-06-21T14:36:53Z</time>
      </trkpt>
      <trkpt lat="42.1786460" lon="-8.6150460">
        <ele>71.8</ele>
        <time>2019-06-21T14:37:01Z</time>
      </trkpt>
      <trkpt lat="42.1790800" lon="-8.6146050">
        <ele>71.2</ele>
        <time>2019-06-21T14:37:10Z</time>
      </trkpt>
      <trkpt lat="42.1791280" lon="-8.6145510">
        <ele>71.2</ele>
        <time>2019-06-21T14:37:11Z</time>
      </trkpt>
      <trkpt lat="42.1795890" lon="-8.6140990">
        <ele>71.2</ele>
        <time>2019-06-21T14:37:20Z</time>
      </trkpt>
      <trkpt lat="42.1796420" lon="-8.6140500">
        <ele>71.2</ele>
        <time>2019-06-21T14:37:21Z</time>
      </trkpt>
      <trkpt lat="42.1800530" lon="-8.6136670">
        <ele>71.4</ele>
        <time>2019-06-21T14:37:29Z</time>
      </trkpt>
      <trkpt lat="42.1801550" lon="-8.6135770">
        <ele>71.6</ele>
        <time>2019-06-21T14:37:31Z</time>
      </trkpt>
      <trkpt lat="42.1804740" lon="-8.6133790">
        <ele>71.6</ele>
        <time>2019-06-21T14:37:37Z</time>
      </trkpt>
      <trkpt lat="42.1808200" lon="-8.6132840">
        <ele>70.8</ele>
        <time>2019-06-21T14:37:43Z</time>
      </trkpt>
      <trkpt lat="42.1813230" lon="-8.6133070">
        <ele>70.6</ele>
        <time>2019-06-21T14:37:51Z</time>
      </trkpt>
      <trkpt lat="42.1818850" lon="-8.6133970">
        <ele>70.4</ele>
        <time>2019-06-21T14:38:00Z</time>
      </trkpt>
      <trkpt lat="42.1823580" lon="-8.6134900">
        <ele>70.0</ele>
        <time>2019-06-21T14:38:08Z</time>
      </trkpt>
      <trkpt lat="42.1828240" lon="-8.6135770">
        <ele>70.4</ele>
        <time>2019-06-21T14:38:16Z</time>
      </trkpt>
      <trkpt lat="42.1831780" lon="-8.6135960">
        <ele>69.8</ele>
        <time>2019-06-21T14:38:22Z</time>
      </trkpt>
      <trkpt lat="42.1835330" lon="-8.6134950">
        <ele>69.6</ele>
        <time>2019-06-21T14:38:28Z</time>
      </trkpt>
      <trkpt lat="42.1835900" lon="-8.6134690">
        <ele>69.4</ele>
        <time>2019-06-21T14:38:29Z</time>
      </trkpt>
      <trkpt lat="42.1838600" lon="-8.6132870">
        <ele>69.8</ele>
        <time>2019-06-21T14:38:34Z</time>
      </trkpt>
      <trkpt lat="42.1841800" lon="-8.6129930">
        <ele>70.0</ele>
        <time>2019-06-21T14:38:41Z</time>
      </trkpt>
      <trkpt lat="42.1842680" lon="-8.6129240">
        <ele>70.2</ele>
        <time>2019-06-21T14:38:43Z</time>
      </trkpt>
      <trkpt lat="42.1844050" lon="-8.6128280">
        <ele>70.6</ele>
        <time>2019-06-21T14:38:46Z</time>
      </trkpt>
      <trkpt lat="42.1844450" lon="-8.6127900">
        <ele>70.8</ele>
        <time>2019-06-21T14:38:47Z</time>
      </trkpt>
      <trkpt lat="42.1845900" lon="-8.6126620">
        <ele>71.8</ele>
        <time>2019-06-21T14:38:51Z</time>
      </trkpt>
      <trkpt lat="42.1847260" lon="-8.6125500">
        <ele>72.2</ele>
        <time>2019-06-21T14:38:55Z</time>
      </trkpt>
      <trkpt lat="42.1847890" lon="-8.6124960">
        <ele>72.8</ele>
        <time>2019-06-21T14:38:57Z</time>
      </trkpt>
      <trkpt lat="42.1849110" lon="-8.6123440">
        <ele>73.6</ele>
        <time>2019-06-21T14:39:02Z</time>
      </trkpt>
      <trkpt lat="42.1849300" lon="-8.6123130">
        <ele>73.8</ele>
        <time>2019-06-21T14:39:03Z</time>
      </trkpt>
      <trkpt lat="42.1849980" lon="-8.6122310">
        <ele>74.0</ele>
        <time>2019-06-21T14:39:07Z</time>
      </trkpt>
      <trkpt lat="42.1850120" lon="-8.6122130">
        <ele>74.0</ele>
        <time>2019-06-21T14:39:08Z</time>
      </trkpt>
      <trkpt lat="42.1850940" lon="-8.6121350">
        <ele>74.4</ele>
        <time>2019-06-21T14:39:14Z</time>
      </trkpt>
      <trkpt lat="42.1852410" lon="-8.6119980">
        <ele>74.2</ele>
        <time>2019-06-21T14:39:21Z</time>
      </trkpt>
      <trkpt lat="42.1854330" lon="-8.6118390">
        <ele>73.0</ele>
        <time>2019-06-21T14:39:27Z</time>
      </trkpt>
      <trkpt lat="42.1854970" lon="-8.6117750">
        <ele>72.8</ele>
        <time>2019-06-21T14:39:29Z</time>
      </trkpt>
      <trkpt lat="42.1856250" lon="-8.6116490">
        <ele>72.6</ele>
        <time>2019-06-21T14:39:33Z</time>
      </trkpt>
      <trkpt lat="42.1856610" lon="-8.6115510">
        <ele>72.8</ele>
        <time>2019-06-21T14:39:36Z</time>
      </trkpt>
      <trkpt lat="42.1857050" lon="-8.6114800">
        <ele>73.0</ele>
        <time>2019-06-21T14:39:39Z</time>
      </trkpt>
      <trkpt lat="42.1858350" lon="-8.6113900">
        <ele>73.8</ele>
        <time>2019-06-21T14:39:46Z</time>
      </trkpt>
      <trkpt lat="42.1858900" lon="-8.6113600">
        <ele>73.8</ele>
        <time>2019-06-21T14:39:49Z</time>
      </trkpt>
      <trkpt lat="42.1859560" lon="-8.6112980">
        <ele>73.8</ele>
        <time>2019-06-21T14:39:52Z</time>
      </trkpt>
      <trkpt lat="42.1859800" lon="-8.6112780">
        <ele>74.0</ele>
        <time>2019-06-21T14:39:53Z</time>
      </trkpt>
      <trkpt lat="42.1861520" lon="-8.6111250">
        <ele>74.0</ele>
        <time>2019-06-21T14:40:01Z</time>
      </trkpt>
      <trkpt lat="42.1861700" lon="-8.6111110">
        <ele>74.0</ele>
        <time>2019-06-21T14:40:02Z</time>
      </trkpt>
      <trkpt lat="42.1862550" lon="-8.6110050">
        <ele>74.4</ele>
        <time>2019-06-21T14:40:07Z</time>
      </trkpt>
      <trkpt lat="42.1863010" lon="-8.6109630">
        <ele>74.4</ele>
        <time>2019-06-21T14:40:09Z</time>
      </trkpt>
      <trkpt lat="42.1863830" lon="-8.6109290">
        <ele>74.4</ele>
        <time>2019-06-21T14:40:12Z</time>
      </trkpt>
      <trkpt lat="42.1864990" lon="-8.6108420">
        <ele>74.4</ele>
        <time>2019-06-21T14:40:17Z</time>
      </trkpt>
      <trkpt lat="42.1866900" lon="-8.6107020">
        <ele>74.6</ele>
        <time>2019-06-21T14:40:24Z</time>
      </trkpt>
      <trkpt lat="42.1868470" lon="-8.6106760">
        <ele>74.6</ele>
        <time>2019-06-21T14:40:29Z</time>
      </trkpt>
      <trkpt lat="42.1868990" lon="-8.6107050">
        <ele>75.0</ele>
        <time>2019-06-21T14:40:31Z</time>
      </trkpt>
      <trkpt lat="42.1869810" lon="-8.6107730">
        <ele>75.0</ele>
        <time>2019-06-21T14:40:34Z</time>
      </trkpt>
      <trkpt lat="42.1870580" lon="-8.6109950">
        <ele>74.6</ele>
        <time>2019-06-21T14:40:40Z</time>
      </trkpt>
      <trkpt lat="42.1870900" lon="-8.6111040">
        <ele>74.4</ele>
        <time>2019-06-21T14:40:43Z</time>
      </trkpt>
      <trkpt lat="42.1871080" lon="-8.6112190">
        <ele>74.0</ele>
        <time>2019-06-21T14:40:46Z</time>
      </trkpt>
      <trkpt lat="42.1871090" lon="-8.6112520">
        <ele>74.0</ele>
        <time>2019-06-21T14:40:47Z</time>
      </trkpt>
      <trkpt lat="42.1870990" lon="-8.6112770">
        <ele>74.0</ele>
        <time>2019-06-21T14:40:48Z</time>
      </trkpt>
      <trkpt lat="42.1870600" lon="-8.6112710">
        <ele>74.0</ele>
        <time>2019-06-21T14:40:50Z</time>
      </trkpt>
      <trkpt lat="42.1870230" lon="-8.6112360">
        <ele>73.8</ele>
        <time>2019-06-21T14:40:52Z</time>
      </trkpt>
      <trkpt lat="42.1869960" lon="-8.6111910">
        <ele>74.0</ele>
        <time>2019-06-21T14:40:54Z</time>
      </trkpt>
      <trkpt lat="42.1869650" lon="-8.6111500">
        <ele>74.2</ele>
        <time>2019-06-21T14:40:56Z</time>
      </trkpt>
      <trkpt lat="42.1868330" lon="-8.6110420">
        <ele>74.4</ele>
        <time>2019-06-21T14:41:02Z</time>
      </trkpt>
      <trkpt lat="42.1867810" lon="-8.6108580">
        <ele>74.8</ele>
        <time>2019-06-21T14:41:09Z</time>
      </trkpt>
      <trkpt lat="42.1867830" lon="-8.6108360">
        <ele>75.0</ele>
        <time>2019-06-21T14:41:10Z</time>
      </trkpt>
      <trkpt lat="42.1868280" lon="-8.6106790">
        <ele>75.0</ele>
        <time>2019-06-21T14:41:15Z</time>
      </trkpt>
      <trkpt lat="42.1868520" lon="-8.6106740">
        <ele>75.0</ele>
        <time>2019-06-21T14:41:16Z</time>
      </trkpt>
      <trkpt lat="42.1868800" lon="-8.6106580">
        <ele>75.2</ele>
        <time>2019-06-21T14:41:19Z</time>
      </trkpt>
      <trkpt lat="42.1869270" lon="-8.6106540">
        <ele>74.8</ele>
        <time>2019-06-21T14:43:00Z</time>
      </trkpt>
      <trkpt lat="42.1869410" lon="-8.6106630">
        <ele>74.8</ele>
        <time>2019-06-21T14:43:01Z</time>
      </trkpt>
      <trkpt lat="42.1869540" lon="-8.6106770">
        <ele>74.8</ele>
        <time>2019-06-21T14:43:02Z</time>
      </trkpt>
      <trkpt lat="42.1870290" lon="-8.6108140">
        <ele>75.2</ele>
        <time>2019-06-21T14:43:07Z</time>
      </trkpt>
      <trkpt lat="42.1870700" lon="-8.6110190">
        <ele>74.6</ele>
        <time>2019-06-21T14:43:12Z</time>
      </trkpt>
      <trkpt lat="42.1871360" lon="-8.6112700">
        <ele>74.2</ele>
        <time>2019-06-21T14:43:17Z</time>
      </trkpt>
      <trkpt lat="42.1871610" lon="-8.6113140">
        <ele>74.2</ele>
        <time>2019-06-21T14:43:18Z</time>
      </trkpt>
      <trkpt lat="42.1872270" lon="-8.6113700">
        <ele>74.0</ele>
        <time>2019-06-21T14:43:20Z</time>
      </trkpt>
      <trkpt lat="42.1872650" lon="-8.6113740">
        <ele>74.0</ele>
        <time>2019-06-21T14:43:21Z</time>
      </trkpt>
      <trkpt lat="42.1873960" lon="-8.6113050">
        <ele>74.0</ele>
        <time>2019-06-21T14:43:25Z</time>
      </trkpt>
      <trkpt lat="42.1876120" lon="-8.6111680">
        <ele>73.8</ele>
        <time>2019-06-21T14:43:31Z</time>
      </trkpt>
      <trkpt lat="42.1877080" lon="-8.6111110">
        <ele>74.2</ele>
        <time>2019-06-21T14:43:34Z</time>
      </trkpt>
      <trkpt lat="42.1877620" lon="-8.6110960">
        <ele>74.8</ele>
        <time>2019-06-21T14:43:36Z</time>
      </trkpt>
      <trkpt lat="42.1878850" lon="-8.6111290">
        <ele>75.0</ele>
        <time>2019-06-21T14:43:41Z</time>
      </trkpt>
      <trkpt lat="42.1879100" lon="-8.6111490">
        <ele>75.2</ele>
        <time>2019-06-21T14:43:42Z</time>
      </trkpt>
      <trkpt lat="42.1880240" lon="-8.6112220">
        <ele>75.0</ele>
        <time>2019-06-21T14:43:46Z</time>
      </trkpt>
      <trkpt lat="42.1881280" lon="-8.6112510">
        <ele>75.2</ele>
        <time>2019-06-21T14:43:49Z</time>
      </trkpt>
      <trkpt lat="42.1883620" lon="-8.6112950">
        <ele>75.4</ele>
        <time>2019-06-21T14:43:56Z</time>
      </trkpt>
      <trkpt lat="42.1885100" lon="-8.6112390">
        <ele>75.2</ele>
        <time>2019-06-21T14:44:00Z</time>
      </trkpt>
      <trkpt lat="42.1887680" lon="-8.6110130">
        <ele>75.2</ele>
        <time>2019-06-21T14:44:07Z</time>
      </trkpt>
      <trkpt lat="42.1888060" lon="-8.6109830">
        <ele>75.2</ele>
        <time>2019-06-21T14:44:08Z</time>
      </trkpt>
      <trkpt lat="42.1889560" lon="-8.6108570">
        <ele>75.2</ele>
        <time>2019-06-21T14:44:12Z</time>
      </trkpt>
      <trkpt lat="42.1893230" lon="-8.6105660">
        <ele>75.6</ele>
        <time>2019-06-21T14:44:21Z</time>
      </trkpt>
      <trkpt lat="42.1895280" lon="-8.6104180">
        <ele>76.0</ele>
        <time>2019-06-21T14:44:26Z</time>
      </trkpt>
      <trkpt lat="42.1896430" lon="-8.6103200">
        <ele>76.4</ele>
        <time>2019-06-21T14:44:29Z</time>
      </trkpt>
      <trkpt lat="42.1898940" lon="-8.6100830">
        <ele>77.0</ele>
        <time>2019-06-21T14:44:36Z</time>
      </trkpt>
      <trkpt lat="42.1899230" lon="-8.6100430">
        <ele>77.2</ele>
        <time>2019-06-21T14:44:37Z</time>
      </trkpt>
      <trkpt lat="42.1900580" lon="-8.6098070">
        <ele>77.6</ele>
        <time>2019-06-21T14:44:42Z</time>
      </trkpt>
      <trkpt lat="42.1901230" lon="-8.6096510">
        <ele>77.8</ele>
        <time>2019-06-21T14:44:45Z</time>
      </trkpt>
      <trkpt lat="42.1901360" lon="-8.6095500">
        <ele>78.0</ele>
        <time>2019-06-21T14:44:47Z</time>
      </trkpt>
      <trkpt lat="42.1902010" lon="-8.6094420">
        <ele>77.8</ele>
        <time>2019-06-21T14:44:51Z</time>
      </trkpt>
      <trkpt lat="42.1902390" lon="-8.6093780">
        <ele>77.8</ele>
        <time>2019-06-21T14:44:54Z</time>
      </trkpt>
      <trkpt lat="42.1902450" lon="-8.6093680">
        <ele>77.6</ele>
        <time>2019-06-21T14:44:55Z</time>
      </trkpt>
      <trkpt lat="42.1902590" lon="-8.6093600">
        <ele>77.4</ele>
        <time>2019-06-21T14:44:56Z</time>
      </trkpt>
      <trkpt lat="42.1903100" lon="-8.6093210">
        <ele>76.8</ele>
        <time>2019-06-21T14:44:59Z</time>
      </trkpt>
      <trkpt lat="42.1904170" lon="-8.6092540">
        <ele>76.0</ele>
        <time>2019-06-21T14:45:04Z</time>
      </trkpt>
      <trkpt lat="42.1904620" lon="-8.6092160">
        <ele>76.2</ele>
        <time>2019-06-21T14:45:11Z</time>
      </trkpt>
      <trkpt lat="42.1906150" lon="-8.6091170">
        <ele>76.4</ele>
        <time>2019-06-21T14:45:16Z</time>
      </trkpt>
      <trkpt lat="42.1908780" lon="-8.6089570">
        <ele>76.8</ele>
        <time>2019-06-21T14:45:23Z</time>
      </trkpt>
      <trkpt lat="42.1910400" lon="-8.6088640">
        <ele>76.6</ele>
        <time>2019-06-21T14:45:27Z</time>
      </trkpt>
      <trkpt lat="42.1911260" lon="-8.6088250">
        <ele>76.8</ele>
        <time>2019-06-21T14:45:29Z</time>
      </trkpt>
      <trkpt lat="42.1912600" lon="-8.6088140">
        <ele>77.0</ele>
        <time>2019-06-21T14:45:32Z</time>
      </trkpt>
      <trkpt lat="42.1913000" lon="-8.6088090">
        <ele>77.2</ele>
        <time>2019-06-21T14:45:33Z</time>
      </trkpt>
      <trkpt lat="42.1913370" lon="-8.6088050">
        <ele>77.2</ele>
        <time>2019-06-21T14:45:34Z</time>
      </trkpt>
      <trkpt lat="42.1914320" lon="-8.6088050">
        <ele>77.4</ele>
        <time>2019-06-21T14:45:37Z</time>
      </trkpt>
      <trkpt lat="42.1915800" lon="-8.6087750">
        <ele>77.4</ele>
        <time>2019-06-21T14:45:43Z</time>
      </trkpt>
      <trkpt lat="42.1917010" lon="-8.6087950">
        <ele>77.2</ele>
        <time>2019-06-21T14:45:48Z</time>
      </trkpt>
      <trkpt lat="42.1918670" lon="-8.6089060">
        <ele>76.4</ele>
        <time>2019-06-21T14:45:53Z</time>
      </trkpt>
      <trkpt lat="42.1919840" lon="-8.6090120">
        <ele>76.0</ele>
        <time>2019-06-21T14:45:56Z</time>
      </trkpt>
      <trkpt lat="42.1920210" lon="-8.6090500">
        <ele>75.8</ele>
        <time>2019-06-21T14:45:57Z</time>
      </trkpt>
      <trkpt lat="42.1920680" lon="-8.6091390">
        <ele>75.8</ele>
        <time>2019-06-21T14:45:59Z</time>
      </trkpt>
      <trkpt lat="42.1920930" lon="-8.6092260">
        <ele>76.0</ele>
        <time>2019-06-21T14:46:01Z</time>
      </trkpt>
      <trkpt lat="42.1921150" lon="-8.6093440">
        <ele>76.2</ele>
        <time>2019-06-21T14:46:04Z</time>
      </trkpt>
      <trkpt lat="42.1921370" lon="-8.6094000">
        <ele>76.0</ele>
        <time>2019-06-21T14:46:06Z</time>
      </trkpt>
      <trkpt lat="42.1921500" lon="-8.6094000">
        <ele>76.0</ele>
        <time>2019-06-21T14:46:07Z</time>
      </trkpt>
      <trkpt lat="42.1922170" lon="-8.6093400">
        <ele>75.6</ele>
        <time>2019-06-21T14:46:11Z</time>
      </trkpt>
      <trkpt lat="42.1922150" lon="-8.6093410">
        <ele>75.6</ele>
        <time>2019-06-21T14:46:12Z</time>
      </trkpt>
      <trkpt lat="42.1921930" lon="-8.6093590">
        <ele>75.4</ele>
        <time>2019-06-21T14:46:17Z</time>
      </trkpt>
      <trkpt lat="42.1921720" lon="-8.6093800">
        <ele>75.6</ele>
        <time>2019-06-21T14:46:19Z</time>
      </trkpt>
      <trkpt lat="42.1921640" lon="-8.6093960">
        <ele>75.4</ele>
        <time>2019-06-21T14:46:20Z</time>
      </trkpt>
      <trkpt lat="42.1921730" lon="-8.6094830">
        <ele>75.8</ele>
        <time>2019-06-21T14:46:23Z</time>
      </trkpt>
      <trkpt lat="42.1922040" lon="-8.6095520">
        <ele>75.8</ele>
        <time>2019-06-21T14:46:25Z</time>
      </trkpt>
      <trkpt lat="42.1922530" lon="-8.6096420">
        <ele>76.2</ele>
        <time>2019-06-21T14:46:27Z</time>
      </trkpt>
      <trkpt lat="42.1923920" lon="-8.6098270">
        <ele>76.6</ele>
        <time>2019-06-21T14:46:31Z</time>
      </trkpt>
      <trkpt lat="42.1924750" lon="-8.6099060">
        <ele>76.8</ele>
        <time>2019-06-21T14:46:33Z</time>
      </trkpt>
      <trkpt lat="42.1925570" lon="-8.6099730">
        <ele>77.0</ele>
        <time>2019-06-21T14:46:35Z</time>
      </trkpt>
      <trkpt lat="42.1926390" lon="-8.6100370">
        <ele>77.0</ele>
        <time>2019-06-21T14:46:37Z</time>
      </trkpt>
      <trkpt lat="42.1927870" lon="-8.6101990">
        <ele>77.2</ele>
        <time>2019-06-21T14:46:41Z</time>
      </trkpt>
      <trkpt lat="42.1929760" lon="-8.6104500">
        <ele>77.8</ele>
        <time>2019-06-21T14:46:47Z</time>
      </trkpt>
      <trkpt lat="42.1930360" lon="-8.6105340">
        <ele>78.2</ele>
        <time>2019-06-21T14:46:49Z</time>
      </trkpt>
      <trkpt lat="42.1931990" lon="-8.6107190">
        <ele>78.6</ele>
        <time>2019-06-21T14:46:54Z</time>
      </trkpt>
      <trkpt lat="42.1932700" lon="-8.6107690">
        <ele>78.8</ele>
        <time>2019-06-21T14:46:56Z</time>
      </trkpt>
      <trkpt lat="42.1933910" lon="-8.6107840">
        <ele>79.0</ele>
        <time>2019-06-21T14:46:59Z</time>
      </trkpt>
      <trkpt lat="42.1934340" lon="-8.6107750">
        <ele>79.2</ele>
        <time>2019-06-21T14:47:00Z</time>
      </trkpt>
      <trkpt lat="42.1935150" lon="-8.6107430">
        <ele>79.2</ele>
        <time>2019-06-21T14:47:02Z</time>
      </trkpt>
      <trkpt lat="42.1937080" lon="-8.6106720">
        <ele>79.8</ele>
        <time>2019-06-21T14:47:07Z</time>
      </trkpt>
      <trkpt lat="42.1938220" lon="-8.6106420">
        <ele>80.2</ele>
        <time>2019-06-21T14:47:10Z</time>
      </trkpt>
      <trkpt lat="42.1940050" lon="-8.6105800">
        <ele>81.2</ele>
        <time>2019-06-21T14:47:15Z</time>
      </trkpt>
      <trkpt lat="42.1942880" lon="-8.6104370">
        <ele>81.4</ele>
        <time>2019-06-21T14:47:22Z</time>
      </trkpt>
      <trkpt lat="42.1947020" lon="-8.6102600">
        <ele>82.2</ele>
        <time>2019-06-21T14:47:31Z</time>
      </trkpt>
      <trkpt lat="42.1950570" lon="-8.6100420">
        <ele>82.4</ele>
        <time>2019-06-21T14:47:39Z</time>
      </trkpt>
      <trkpt lat="42.1950990" lon="-8.6100190">
        <ele>82.4</ele>
        <time>2019-06-21T14:47:40Z</time>
      </trkpt>
      <trkpt lat="42.1953570" lon="-8.6099190">
        <ele>82.8</ele>
        <time>2019-06-21T14:47:46Z</time>
      </trkpt>
      <trkpt lat="42.1957100" lon="-8.6098500">
        <ele>82.8</ele>
        <time>2019-06-21T14:47:54Z</time>
      </trkpt>
      <trkpt lat="42.1961960" lon="-8.6097260">
        <ele>82.8</ele>
        <time>2019-06-21T14:48:04Z</time>
      </trkpt>
      <trkpt lat="42.1965090" lon="-8.6096380">
        <ele>82.6</ele>
        <time>2019-06-21T14:48:10Z</time>
      </trkpt>
      <trkpt lat="42.1967200" lon="-8.6095750">
        <ele>82.6</ele>
        <time>2019-06-21T14:48:14Z</time>
      </trkpt>
      <trkpt lat="42.1969230" lon="-8.6094980">
        <ele>83.0</ele>
        <time>2019-06-21T14:48:18Z</time>
      </trkpt>
      <trkpt lat="42.1970610" lon="-8.6094270">
        <ele>82.8</ele>
        <time>2019-06-21T14:48:21Z</time>
      </trkpt>
      <trkpt lat="42.1972260" lon="-8.6092990">
        <ele>83.4</ele>
        <time>2019-06-21T14:48:25Z</time>
      </trkpt>
      <trkpt lat="42.1972650" lon="-8.6092650">
        <ele>83.8</ele>
        <time>2019-06-21T14:48:26Z</time>
      </trkpt>
      <trkpt lat="42.1973400" lon="-8.6092030">
        <ele>83.8</ele>
        <time>2019-06-21T14:48:28Z</time>
      </trkpt>
      <trkpt lat="42.1975100" lon="-8.6090490">
        <ele>83.4</ele>
        <time>2019-06-21T14:48:33Z</time>
      </trkpt>
      <trkpt lat="42.1976060" lon="-8.6089470">
        <ele>83.6</ele>
        <time>2019-06-21T14:48:36Z</time>
      </trkpt>
      <trkpt lat="42.1978950" lon="-8.6086900">
        <ele>83.6</ele>
        <time>2019-06-21T14:48:44Z</time>
      </trkpt>
      <trkpt lat="42.1980570" lon="-8.6085900">
        <ele>84.0</ele>
        <time>2019-06-21T14:48:48Z</time>
      </trkpt>
      <trkpt lat="42.1981430" lon="-8.6085670">
        <ele>84.2</ele>
        <time>2019-06-21T14:48:50Z</time>
      </trkpt>
      <trkpt lat="42.1982750" lon="-8.6085860">
        <ele>83.8</ele>
        <time>2019-06-21T14:48:53Z</time>
      </trkpt>
      <trkpt lat="42.1983180" lon="-8.6086060">
        <ele>84.2</ele>
        <time>2019-06-21T14:48:54Z</time>
      </trkpt>
      <trkpt lat="42.1983600" lon="-8.6086320">
        <ele>84.2</ele>
        <time>2019-06-21T14:48:55Z</time>
      </trkpt>
      <trkpt lat="42.1985220" lon="-8.6087230">
        <ele>84.4</ele>
        <time>2019-06-21T14:48:59Z</time>
      </trkpt>
      <trkpt lat="42.1986080" lon="-8.6087370">
        <ele>84.2</ele>
        <time>2019-06-21T14:49:01Z</time>
      </trkpt>
      <trkpt lat="42.1988140" lon="-8.6087980">
        <ele>84.8</ele>
        <time>2019-06-21T14:49:06Z</time>
      </trkpt>
      <trkpt lat="42.1988940" lon="-8.6088280">
        <ele>85.2</ele>
        <time>2019-06-21T14:49:08Z</time>
      </trkpt>
      <trkpt lat="42.1992010" lon="-8.6088620">
        <ele>85.6</ele>
        <time>2019-06-21T14:49:15Z</time>
      </trkpt>
      <trkpt lat="42.1992470" lon="-8.6088540">
        <ele>85.8</ele>
        <time>2019-06-21T14:49:16Z</time>
      </trkpt>
      <trkpt lat="42.1994120" lon="-8.6087880">
        <ele>86.2</ele>
        <time>2019-06-21T14:49:20Z</time>
      </trkpt>
      <trkpt lat="42.1996240" lon="-8.6087890">
        <ele>87.2</ele>
        <time>2019-06-21T14:49:26Z</time>
      </trkpt>
      <trkpt lat="42.1998230" lon="-8.6088900">
        <ele>88.0</ele>
        <time>2019-06-21T14:49:33Z</time>
      </trkpt>
      <trkpt lat="42.1998500" lon="-8.6089000">
        <ele>88.2</ele>
        <time>2019-06-21T14:49:34Z</time>
      </trkpt>
      <trkpt lat="42.1999740" lon="-8.6089080">
        <ele>89.0</ele>
        <time>2019-06-21T14:49:39Z</time>
      </trkpt>
      <trkpt lat="42.2001070" lon="-8.6088440">
        <ele>89.4</ele>
        <time>2019-06-21T14:49:44Z</time>
      </trkpt>
      <trkpt lat="42.2001600" lon="-8.6088120">
        <ele>89.4</ele>
        <time>2019-06-21T14:49:46Z</time>
      </trkpt>
      <trkpt lat="42.2003880" lon="-8.6086750">
        <ele>90.2</ele>
        <time>2019-06-21T14:49:55Z</time>
      </trkpt>
      <trkpt lat="42.2004120" lon="-8.6086680">
        <ele>90.4</ele>
        <time>2019-06-21T14:49:56Z</time>
      </trkpt>
      <trkpt lat="42.2005640" lon="-8.6086630">
        <ele>91.0</ele>
        <time>2019-06-21T14:50:02Z</time>
      </trkpt>
      <trkpt lat="42.2005870" lon="-8.6086670">
        <ele>91.4</ele>
        <time>2019-06-21T14:50:03Z</time>
      </trkpt>
      <trkpt lat="42.2007430" lon="-8.6087230">
        <ele>92.4</ele>
        <time>2019-06-21T14:50:10Z</time>
      </trkpt>
      <trkpt lat="42.2009430" lon="-8.6087030">
        <ele>93.0</ele>
        <time>2019-06-21T14:50:18Z</time>
      </trkpt>
      <trkpt lat="42.2010070" lon="-8.6086480">
        <ele>93.4</ele>
        <time>2019-06-21T14:50:21Z</time>
      </trkpt>
      <trkpt lat="42.2010710" lon="-8.6085780">
        <ele>93.6</ele>
        <time>2019-06-21T14:50:24Z</time>
      </trkpt>
      <trkpt lat="42.2011880" lon="-8.6084480">
        <ele>94.6</ele>
        <time>2019-06-21T14:50:30Z</time>
      </trkpt>
      <trkpt lat="42.2012230" lon="-8.6084140">
        <ele>95.0</ele>
        <time>2019-06-21T14:50:32Z</time>
      </trkpt>
      <trkpt lat="42.2013020" lon="-8.6083270">
        <ele>95.8</ele>
        <time>2019-06-21T14:50:37Z</time>
      </trkpt>
      <trkpt lat="42.2013420" lon="-8.6082720">
        <ele>96.4</ele>
        <time>2019-06-21T14:50:40Z</time>
      </trkpt>
      <trkpt lat="42.2013880" lon="-8.6082330">
        <ele>97.0</ele>
        <time>2019-06-21T14:50:43Z</time>
      </trkpt>
      <trkpt lat="42.2014690" lon="-8.6081930">
        <ele>98.2</ele>
        <time>2019-06-21T14:50:48Z</time>
      </trkpt>
      <trkpt lat="42.2015230" lon="-8.6081370">
        <ele>99.4</ele>
        <time>2019-06-21T14:50:52Z</time>
      </trkpt>
      <trkpt lat="42.2015660" lon="-8.6080930">
        <ele>100.2</ele>
        <time>2019-06-21T14:50:55Z</time>
      </trkpt>
      <trkpt lat="42.2015810" lon="-8.6080770">
        <ele>100.4</ele>
        <time>2019-06-21T14:50:56Z</time>
      </trkpt>
      <trkpt lat="42.2016600" lon="-8.6079980">
        <ele>101.6</ele>
        <time>2019-06-21T14:51:02Z</time>
      </trkpt>
      <trkpt lat="42.2016690" lon="-8.6079800">
        <ele>101.8</ele>
        <time>2019-06-21T14:51:03Z</time>
      </trkpt>
      <trkpt lat="42.2017420" lon="-8.6078790">
        <ele>102.6</ele>
        <time>2019-06-21T14:51:09Z</time>
      </trkpt>
      <trkpt lat="42.2017570" lon="-8.6078660">
        <ele>102.8</ele>
        <time>2019-06-21T14:51:10Z</time>
      </trkpt>
      <trkpt lat="42.2018090" lon="-8.6077770">
        <ele>103.8</ele>
        <time>2019-06-21T14:51:15Z</time>
      </trkpt>
      <trkpt lat="42.2018200" lon="-8.6077570">
        <ele>104.0</ele>
        <time>2019-06-21T14:51:16Z</time>
      </trkpt>
      <trkpt lat="42.2019430" lon="-8.6075710">
        <ele>105.0</ele>
        <time>2019-06-21T14:51:25Z</time>
      </trkpt>
      <trkpt lat="42.2020340" lon="-8.6074310">
        <ele>105.4</ele>
        <time>2019-06-21T14:51:31Z</time>
      </trkpt>
      <trkpt lat="42.2021580" lon="-8.6071680">
        <ele>105.0</ele>
        <time>2019-06-21T14:51:38Z</time>
      </trkpt>
      <trkpt lat="42.2022550" lon="-8.6069630">
        <ele>104.8</ele>
        <time>2019-06-21T14:51:43Z</time>
      </trkpt>
      <trkpt lat="42.2023220" lon="-8.6068540">
        <ele>104.6</ele>
        <time>2019-06-21T14:51:46Z</time>
      </trkpt>
      <trkpt lat="42.2024130" lon="-8.6067100">
        <ele>104.8</ele>
        <time>2019-06-21T14:51:50Z</time>
      </trkpt>
      <trkpt lat="42.2024870" lon="-8.6066180">
        <ele>105.0</ele>
        <time>2019-06-21T14:51:53Z</time>
      </trkpt>
      <trkpt lat="42.2025130" lon="-8.6065900">
        <ele>105.2</ele>
        <time>2019-06-21T14:51:54Z</time>
      </trkpt>
      <trkpt lat="42.2026240" lon="-8.6064900">
        <ele>105.2</ele>
        <time>2019-06-21T14:51:58Z</time>
      </trkpt>
      <trkpt lat="42.2027750" lon="-8.6063570">
        <ele>105.6</ele>
        <time>2019-06-21T14:52:03Z</time>
      </trkpt>
      <trkpt lat="42.2029600" lon="-8.6062340">
        <ele>105.8</ele>
        <time>2019-06-21T14:52:09Z</time>
      </trkpt>
      <trkpt lat="42.2029930" lon="-8.6062090">
        <ele>106.0</ele>
        <time>2019-06-21T14:52:10Z</time>
      </trkpt>
      <trkpt lat="42.2031160" lon="-8.6061100">
        <ele>106.0</ele>
        <time>2019-06-21T14:52:14Z</time>
      </trkpt>
      <trkpt lat="42.2032930" lon="-8.6060140">
        <ele>106.6</ele>
        <time>2019-06-21T14:52:20Z</time>
      </trkpt>
      <trkpt lat="42.2035230" lon="-8.6058990">
        <ele>107.0</ele>
        <time>2019-06-21T14:52:27Z</time>
      </trkpt>
      <trkpt lat="42.2035910" lon="-8.6058680">
        <ele>107.2</ele>
        <time>2019-06-21T14:52:29Z</time>
      </trkpt>
      <trkpt lat="42.2038060" lon="-8.6057550">
        <ele>108.0</ele>
        <time>2019-06-21T14:52:36Z</time>
      </trkpt>
      <trkpt lat="42.2038350" lon="-8.6057480">
        <ele>108.4</ele>
        <time>2019-06-21T14:52:37Z</time>
      </trkpt>
      <trkpt lat="42.2039320" lon="-8.6057680">
        <ele>109.2</ele>
        <time>2019-06-21T14:52:41Z</time>
      </trkpt>
      <trkpt lat="42.2039500" lon="-8.6057850">
        <ele>109.4</ele>
        <time>2019-06-21T14:52:42Z</time>
      </trkpt>
      <trkpt lat="42.2040250" lon="-8.6058810">
        <ele>110.4</ele>
        <time>2019-06-21T14:52:47Z</time>
      </trkpt>
      <trkpt lat="42.2040510" lon="-8.6059100">
        <ele>110.8</ele>
        <time>2019-06-21T14:52:49Z</time>
      </trkpt>
      <trkpt lat="42.2041010" lon="-8.6059470">
        <ele>111.6</ele>
        <time>2019-06-21T14:52:52Z</time>
      </trkpt>
      <trkpt lat="42.2041640" lon="-8.6059800">
        <ele>112.2</ele>
        <time>2019-06-21T14:52:56Z</time>
      </trkpt>
      <trkpt lat="42.2042280" lon="-8.6060270">
        <ele>112.8</ele>
        <time>2019-06-21T14:53:00Z</time>
      </trkpt>
      <trkpt lat="42.2042770" lon="-8.6060490">
        <ele>113.4</ele>
        <time>2019-06-21T14:53:03Z</time>
      </trkpt>
      <trkpt lat="42.2043230" lon="-8.6060830">
        <ele>113.8</ele>
        <time>2019-06-21T14:53:06Z</time>
      </trkpt>
      <trkpt lat="42.2044160" lon="-8.6061440">
        <ele>115.0</ele>
        <time>2019-06-21T14:53:12Z</time>
      </trkpt>
      <trkpt lat="42.2044760" lon="-8.6061740">
        <ele>116.0</ele>
        <time>2019-06-21T14:53:16Z</time>
      </trkpt>
      <trkpt lat="42.2045540" lon="-8.6061970">
        <ele>116.8</ele>
        <time>2019-06-21T14:53:21Z</time>
      </trkpt>
      <trkpt lat="42.2045850" lon="-8.6062140">
        <ele>117.4</ele>
        <time>2019-06-21T14:53:23Z</time>
      </trkpt>
      <trkpt lat="42.2046780" lon="-8.6062560">
        <ele>118.2</ele>
        <time>2019-06-21T14:53:29Z</time>
      </trkpt>
      <trkpt lat="42.2046930" lon="-8.6062640">
        <ele>118.4</ele>
        <time>2019-06-21T14:53:30Z</time>
      </trkpt>
      <trkpt lat="42.2048080" lon="-8.6063070">
        <ele>119.4</ele>
        <time>2019-06-21T14:53:37Z</time>
      </trkpt>
      <trkpt lat="42.2048440" lon="-8.6063180">
        <ele>119.6</ele>
        <time>2019-06-21T14:53:39Z</time>
      </trkpt>
      <trkpt lat="42.2049120" lon="-8.6063210">
        <ele>120.4</ele>
        <time>2019-06-21T14:53:43Z</time>
      </trkpt>
      <trkpt lat="42.2049800" lon="-8.6063230">
        <ele>121.0</ele>
        <time>2019-06-21T14:53:47Z</time>
      </trkpt>
      <trkpt lat="42.2050060" lon="-8.6063280">
        <ele>121.4</ele>
        <time>2019-06-21T14:53:49Z</time>
      </trkpt>
      <trkpt lat="42.2050680" lon="-8.6063000">
        <ele>122.2</ele>
        <time>2019-06-21T14:53:54Z</time>
      </trkpt>
      <trkpt lat="42.2050780" lon="-8.6062900">
        <ele>122.4</ele>
        <time>2019-06-21T14:53:55Z</time>
      </trkpt>
      <trkpt lat="42.2051380" lon="-8.6062750">
        <ele>123.2</ele>
        <time>2019-06-21T14:53:59Z</time>
      </trkpt>
      <trkpt lat="42.2051530" lon="-8.6062730">
        <ele>123.2</ele>
        <time>2019-06-21T14:54:00Z</time>
      </trkpt>
      <trkpt lat="42.2051970" lon="-8.6062670">
        <ele>123.6</ele>
        <time>2019-06-21T14:54:03Z</time>
      </trkpt>
      <trkpt lat="42.2052720" lon="-8.6062770">
        <ele>124.2</ele>
        <time>2019-06-21T14:54:08Z</time>
      </trkpt>
      <trkpt lat="42.2053020" lon="-8.6062790">
        <ele>124.6</ele>
        <time>2019-06-21T14:54:10Z</time>
      </trkpt>
      <trkpt lat="42.2053770" lon="-8.6062760">
        <ele>125.8</ele>
        <time>2019-06-21T14:54:15Z</time>
      </trkpt>
      <trkpt lat="42.2054140" lon="-8.6062790">
        <ele>126.2</ele>
        <time>2019-06-21T14:54:18Z</time>
      </trkpt>
      <trkpt lat="42.2054710" lon="-8.6062710">
        <ele>126.8</ele>
        <time>2019-06-21T14:54:22Z</time>
      </trkpt>
      <trkpt lat="42.2055300" lon="-8.6062640">
        <ele>127.6</ele>
        <time>2019-06-21T14:54:26Z</time>
      </trkpt>
      <trkpt lat="42.2055580" lon="-8.6062700">
        <ele>128.0</ele>
        <time>2019-06-21T14:54:28Z</time>
      </trkpt>
      <trkpt lat="42.2056470" lon="-8.6062680">
        <ele>129.0</ele>
        <time>2019-06-21T14:54:34Z</time>
      </trkpt>
      <trkpt lat="42.2057130" lon="-8.6063090">
        <ele>130.2</ele>
        <time>2019-06-21T14:54:39Z</time>
      </trkpt>
      <trkpt lat="42.2057240" lon="-8.6063150">
        <ele>130.4</ele>
        <time>2019-06-21T14:54:40Z</time>
      </trkpt>
      <trkpt lat="42.2058040" lon="-8.6063400">
        <ele>131.4</ele>
        <time>2019-06-21T14:54:46Z</time>
      </trkpt>
      <trkpt lat="42.2058480" lon="-8.6063500">
        <ele>132.0</ele>
        <time>2019-06-21T14:54:49Z</time>
      </trkpt>
      <trkpt lat="42.2058860" lon="-8.6063770">
        <ele>132.6</ele>
        <time>2019-06-21T14:54:52Z</time>
      </trkpt>
      <trkpt lat="42.2059520" lon="-8.6063990">
        <ele>133.0</ele>
        <time>2019-06-21T14:54:56Z</time>
      </trkpt>
      <trkpt lat="42.2060040" lon="-8.6064070">
        <ele>133.2</ele>
        <time>2019-06-21T14:54:59Z</time>
      </trkpt>
      <trkpt lat="42.2060500" lon="-8.6064360">
        <ele>133.6</ele>
        <time>2019-06-21T14:55:03Z</time>
      </trkpt>
      <trkpt lat="42.2060630" lon="-8.6064430">
        <ele>134.0</ele>
        <time>2019-06-21T14:55:04Z</time>
      </trkpt>
      <trkpt lat="42.2061280" lon="-8.6064810">
        <ele>134.8</ele>
        <time>2019-06-21T14:55:09Z</time>
      </trkpt>
      <trkpt lat="42.2061860" lon="-8.6065200">
        <ele>135.6</ele>
        <time>2019-06-21T14:55:14Z</time>
      </trkpt>
      <trkpt lat="42.2062120" lon="-8.6065400">
        <ele>136.2</ele>
        <time>2019-06-21T14:55:16Z</time>
      </trkpt>
      <trkpt lat="42.2062950" lon="-8.6066120">
        <ele>137.2</ele>
        <time>2019-06-21T14:55:23Z</time>
      </trkpt>
      <trkpt lat="42.2063040" lon="-8.6066240">
        <ele>137.4</ele>
        <time>2019-06-21T14:55:24Z</time>
      </trkpt>
      <trkpt lat="42.2064660" lon="-8.6066880">
        <ele>139.8</ele>
        <time>2019-06-21T14:59:01Z</time>
      </trkpt>
      <trkpt lat="42.2064720" lon="-8.6067020">
        <ele>139.8</ele>
        <time>2019-06-21T14:59:02Z</time>
      </trkpt>
      <trkpt lat="42.2064900" lon="-8.6067620">
        <ele>140.2</ele>
        <time>2019-06-21T14:59:06Z</time>
      </trkpt>
      <trkpt lat="42.2065140" lon="-8.6067770">
        <ele>140.8</ele>
        <time>2019-06-21T14:59:08Z</time>
      </trkpt>
      <trkpt lat="42.2065250" lon="-8.6067810">
        <ele>141.0</ele>
        <time>2019-06-21T14:59:09Z</time>
      </trkpt>
      <trkpt lat="42.2065900" lon="-8.6068120">
        <ele>141.8</ele>
        <time>2019-06-21T14:59:14Z</time>
      </trkpt>
      <trkpt lat="42.2066180" lon="-8.6068270">
        <ele>142.0</ele>
        <time>2019-06-21T14:59:16Z</time>
      </trkpt>
      <trkpt lat="42.2066880" lon="-8.6068550">
        <ele>143.0</ele>
        <time>2019-06-21T14:59:21Z</time>
      </trkpt>
      <trkpt lat="42.2067110" lon="-8.6068740">
        <ele>143.2</ele>
        <time>2019-06-21T14:59:23Z</time>
      </trkpt>
      <trkpt lat="42.2067210" lon="-8.6068840">
        <ele>143.4</ele>
        <time>2019-06-21T14:59:24Z</time>
      </trkpt>
      <trkpt lat="42.2067510" lon="-8.6069120">
        <ele>144.0</ele>
        <time>2019-06-21T14:59:27Z</time>
      </trkpt>
      <trkpt lat="42.2067740" lon="-8.6069330">
        <ele>144.4</ele>
        <time>2019-06-21T14:59:29Z</time>
      </trkpt>
      <trkpt lat="42.2067810" lon="-8.6069500">
        <ele>144.4</ele>
        <time>2019-06-21T14:59:30Z</time>
      </trkpt>
      <trkpt lat="42.2067850" lon="-8.6069670">
        <ele>144.6</ele>
        <time>2019-06-21T14:59:31Z</time>
      </trkpt>
      <trkpt lat="42.2068160" lon="-8.6070130">
        <ele>145.0</ele>
        <time>2019-06-21T14:59:34Z</time>
      </trkpt>
      <trkpt lat="42.2068550" lon="-8.6070440">
        <ele>145.2</ele>
        <time>2019-06-21T14:59:37Z</time>
      </trkpt>
      <trkpt lat="42.2068700" lon="-8.6070560">
        <ele>145.4</ele>
        <time>2019-06-21T14:59:38Z</time>
      </trkpt>
      <trkpt lat="42.2069270" lon="-8.6070680">
        <ele>146.0</ele>
        <time>2019-06-21T14:59:42Z</time>
      </trkpt>
      <trkpt lat="42.2069800" lon="-8.6070860">
        <ele>146.4</ele>
        <time>2019-06-21T14:59:46Z</time>
      </trkpt>
      <trkpt lat="42.2069860" lon="-8.6071010">
        <ele>146.6</ele>
        <time>2019-06-21T14:59:47Z</time>
      </trkpt>
      <trkpt lat="42.2070550" lon="-8.6071700">
        <ele>147.4</ele>
        <time>2019-06-21T14:59:53Z</time>
      </trkpt>
      <trkpt lat="42.2070690" lon="-8.6071850">
        <ele>147.6</ele>
        <time>2019-06-21T14:59:54Z</time>
      </trkpt>
      <trkpt lat="42.2071180" lon="-8.6072550">
        <ele>148.4</ele>
        <time>2019-06-21T14:59:59Z</time>
      </trkpt>
      <trkpt lat="42.2071290" lon="-8.6072680">
        <ele>148.6</ele>
        <time>2019-06-21T15:00:00Z</time>
      </trkpt>
      <trkpt lat="42.2071380" lon="-8.6072800">
        <ele>148.8</ele>
        <time>2019-06-21T15:00:01Z</time>
      </trkpt>
      <trkpt lat="42.2071710" lon="-8.6073280">
        <ele>149.6</ele>
        <time>2019-06-21T15:00:05Z</time>
      </trkpt>
      <trkpt lat="42.2071810" lon="-8.6073410">
        <ele>149.8</ele>
        <time>2019-06-21T15:00:06Z</time>
      </trkpt>
      <trkpt lat="42.2072700" lon="-8.6074300">
        <ele>150.8</ele>
        <time>2019-06-21T15:00:13Z</time>
      </trkpt>
      <trkpt lat="42.2072800" lon="-8.6074470">
        <ele>151.0</ele>
        <time>2019-06-21T15:00:14Z</time>
      </trkpt>
      <trkpt lat="42.2073370" lon="-8.6075110">
        <ele>152.0</ele>
        <time>2019-06-21T15:00:18Z</time>
      </trkpt>
      <trkpt lat="42.2073720" lon="-8.6075500">
        <ele>152.4</ele>
        <time>2019-06-21T15:00:21Z</time>
      </trkpt>
      <trkpt lat="42.2074190" lon="-8.6076090">
        <ele>153.0</ele>
        <time>2019-06-21T15:00:25Z</time>
      </trkpt>
      <trkpt lat="42.2074540" lon="-8.6076500">
        <ele>153.8</ele>
        <time>2019-06-21T15:00:28Z</time>
      </trkpt>
      <trkpt lat="42.2074770" lon="-8.6076800">
        <ele>154.2</ele>
        <time>2019-06-21T15:00:30Z</time>
      </trkpt>
      <trkpt lat="42.2075600" lon="-8.6077430">
        <ele>155.2</ele>
        <time>2019-06-21T15:00:36Z</time>
      </trkpt>
      <trkpt lat="42.2076530" lon="-8.6078030">
        <ele>156.4</ele>
        <time>2019-06-21T15:00:42Z</time>
      </trkpt>
      <trkpt lat="42.2076790" lon="-8.6078260">
        <ele>156.8</ele>
        <time>2019-06-21T15:00:44Z</time>
      </trkpt>
      <trkpt lat="42.2077360" lon="-8.6078650">
        <ele>157.4</ele>
        <time>2019-06-21T15:00:48Z</time>
      </trkpt>
      <trkpt lat="42.2077690" lon="-8.6078900">
        <ele>157.8</ele>
        <time>2019-06-21T15:00:50Z</time>
      </trkpt>
      <trkpt lat="42.2078410" lon="-8.6079470">
        <ele>158.8</ele>
        <time>2019-06-21T15:00:55Z</time>
      </trkpt>
      <trkpt lat="42.2078810" lon="-8.6079640">
        <ele>159.8</ele>
        <time>2019-06-21T15:00:58Z</time>
      </trkpt>
      <trkpt lat="42.2078960" lon="-8.6079730">
        <ele>159.8</ele>
        <time>2019-06-21T15:00:59Z</time>
      </trkpt>
      <trkpt lat="42.2079930" lon="-8.6080750">
        <ele>160.8</ele>
        <time>2019-06-21T15:01:07Z</time>
      </trkpt>
      <trkpt lat="42.2080020" lon="-8.6080850">
        <ele>161.0</ele>
        <time>2019-06-21T15:01:08Z</time>
      </trkpt>
      <trkpt lat="42.2080870" lon="-8.6081400">
        <ele>162.0</ele>
        <time>2019-06-21T15:01:13Z</time>
      </trkpt>
      <trkpt lat="42.2081010" lon="-8.6081520">
        <ele>162.0</ele>
        <time>2019-06-21T15:01:14Z</time>
      </trkpt>
      <trkpt lat="42.2081640" lon="-8.6082040">
        <ele>163.2</ele>
        <time>2019-06-21T15:01:19Z</time>
      </trkpt>
      <trkpt lat="42.2082070" lon="-8.6082420">
        <ele>163.8</ele>
        <time>2019-06-21T15:01:22Z</time>
      </trkpt>
      <trkpt lat="42.2082380" lon="-8.6082650">
        <ele>164.4</ele>
        <time>2019-06-21T15:01:24Z</time>
      </trkpt>
      <trkpt lat="42.2083080" lon="-8.6083360">
        <ele>165.4</ele>
        <time>2019-06-21T15:01:30Z</time>
      </trkpt>
      <trkpt lat="42.2083190" lon="-8.6083500">
        <ele>165.6</ele>
        <time>2019-06-21T15:01:31Z</time>
      </trkpt>
      <trkpt lat="42.2083920" lon="-8.6084330">
        <ele>166.6</ele>
        <time>2019-06-21T15:01:37Z</time>
      </trkpt>
      <trkpt lat="42.2084060" lon="-8.6084460">
        <ele>166.8</ele>
        <time>2019-06-21T15:01:38Z</time>
      </trkpt>
      <trkpt lat="42.2084470" lon="-8.6084830">
        <ele>167.8</ele>
        <time>2019-06-21T15:01:41Z</time>
      </trkpt>
      <trkpt lat="42.2085330" lon="-8.6085860">
        <ele>168.8</ele>
        <time>2019-06-21T15:01:48Z</time>
      </trkpt>
      <trkpt lat="42.2085460" lon="-8.6086040">
        <ele>169.0</ele>
        <time>2019-06-21T15:01:49Z</time>
      </trkpt>
      <trkpt lat="42.2086000" lon="-8.6086780">
        <ele>170.0</ele>
        <time>2019-06-21T15:01:54Z</time>
      </trkpt>
      <trkpt lat="42.2086480" lon="-8.6087330">
        <ele>170.8</ele>
        <time>2019-06-21T15:01:58Z</time>
      </trkpt>
      <trkpt lat="42.2086840" lon="-8.6087690">
        <ele>171.2</ele>
        <time>2019-06-21T15:02:01Z</time>
      </trkpt>
      <trkpt lat="42.2087360" lon="-8.6088060">
        <ele>172.4</ele>
        <time>2019-06-21T15:02:05Z</time>
      </trkpt>
      <trkpt lat="42.2087630" lon="-8.6088270">
        <ele>172.8</ele>
        <time>2019-06-21T15:02:07Z</time>
      </trkpt>
      <trkpt lat="42.2088280" lon="-8.6088580">
        <ele>173.6</ele>
        <time>2019-06-21T15:02:11Z</time>
      </trkpt>
      <trkpt lat="42.2088880" lon="-8.6088880">
        <ele>174.4</ele>
        <time>2019-06-21T15:02:15Z</time>
      </trkpt>
      <trkpt lat="42.2089040" lon="-8.6088940">
        <ele>174.6</ele>
        <time>2019-06-21T15:02:16Z</time>
      </trkpt>
      <trkpt lat="42.2089960" lon="-8.6089470">
        <ele>175.8</ele>
        <time>2019-06-21T15:02:22Z</time>
      </trkpt>
      <trkpt lat="42.2091210" lon="-8.6089960">
        <ele>176.6</ele>
        <time>2019-06-21T15:02:30Z</time>
      </trkpt>
      <trkpt lat="42.2091420" lon="-8.6089980">
        <ele>176.8</ele>
        <time>2019-06-21T15:02:31Z</time>
      </trkpt>
      <trkpt lat="42.2092550" lon="-8.6090220">
        <ele>177.2</ele>
        <time>2019-06-21T15:02:36Z</time>
      </trkpt>
      <trkpt lat="42.2094210" lon="-8.6090250">
        <ele>177.6</ele>
        <time>2019-06-21T15:02:43Z</time>
      </trkpt>
      <trkpt lat="42.2096470" lon="-8.6090240">
        <ele>177.2</ele>
        <time>2019-06-21T15:02:51Z</time>
      </trkpt>
      <trkpt lat="42.2098000" lon="-8.6090180">
        <ele>176.6</ele>
        <time>2019-06-21T15:02:55Z</time>
      </trkpt>
      <trkpt lat="42.2099580" lon="-8.6090150">
        <ele>176.0</ele>
        <time>2019-06-21T15:02:59Z</time>
      </trkpt>
      <trkpt lat="42.2100020" lon="-8.6090060">
        <ele>176.0</ele>
        <time>2019-06-21T15:03:00Z</time>
      </trkpt>
      <trkpt lat="42.2101360" lon="-8.6090120">
        <ele>176.0</ele>
        <time>2019-06-21T15:03:03Z</time>
      </trkpt>
      <trkpt lat="42.2102290" lon="-8.6090240">
        <ele>175.6</ele>
        <time>2019-06-21T15:03:06Z</time>
      </trkpt>
      <trkpt lat="42.2103740" lon="-8.6090650">
        <ele>175.2</ele>
        <time>2019-06-21T15:03:09Z</time>
      </trkpt>
      <trkpt lat="42.2104280" lon="-8.6090760">
        <ele>174.8</ele>
        <time>2019-06-21T15:03:10Z</time>
      </trkpt>
      <trkpt lat="42.2104820" lon="-8.6090860">
        <ele>174.4</ele>
        <time>2019-06-21T15:03:11Z</time>
      </trkpt>
      <trkpt lat="42.2106560" lon="-8.6091240">
        <ele>174.0</ele>
        <time>2019-06-21T15:03:14Z</time>
      </trkpt>
      <trkpt lat="42.2107760" lon="-8.6091520">
        <ele>173.4</ele>
        <time>2019-06-21T15:03:16Z</time>
      </trkpt>
      <trkpt lat="42.2108980" lon="-8.6091800">
        <ele>173.0</ele>
        <time>2019-06-21T15:03:18Z</time>
      </trkpt>
      <trkpt lat="42.2111430" lon="-8.6092470">
        <ele>172.4</ele>
        <time>2019-06-21T15:03:22Z</time>
      </trkpt>
      <trkpt lat="42.2113740" lon="-8.6093230">
        <ele>171.6</ele>
        <time>2019-06-21T15:03:26Z</time>
      </trkpt>
      <trkpt lat="42.2114900" lon="-8.6093570">
        <ele>171.4</ele>
        <time>2019-06-21T15:03:28Z</time>
      </trkpt>
      <trkpt lat="42.2115490" lon="-8.6093740">
        <ele>171.4</ele>
        <time>2019-06-21T15:03:29Z</time>
      </trkpt>
      <trkpt lat="42.2116090" lon="-8.6093900">
        <ele>171.4</ele>
        <time>2019-06-21T15:03:30Z</time>
      </trkpt>
      <trkpt lat="42.2116640" lon="-8.6094030">
        <ele>171.2</ele>
        <time>2019-06-21T15:03:31Z</time>
      </trkpt>
      <trkpt lat="42.2117740" lon="-8.6094220">
        <ele>171.2</ele>
        <time>2019-06-21T15:03:33Z</time>
      </trkpt>
      <trkpt lat="42.2120990" lon="-8.6094450">
        <ele>171.0</ele>
        <time>2019-06-21T15:03:39Z</time>
      </trkpt>
      <trkpt lat="42.2123780" lon="-8.6094640">
        <ele>170.8</ele>
        <time>2019-06-21T15:03:45Z</time>
      </trkpt>
      <trkpt lat="42.2126260" lon="-8.6094760">
        <ele>170.8</ele>
        <time>2019-06-21T15:03:50Z</time>
      </trkpt>
      <trkpt lat="42.2127300" lon="-8.6094680">
        <ele>170.8</ele>
        <time>2019-06-21T15:03:52Z</time>
      </trkpt>
      <trkpt lat="42.2128920" lon="-8.6094470">
        <ele>170.2</ele>
        <time>2019-06-21T15:03:55Z</time>
      </trkpt>
      <trkpt lat="42.2132070" lon="-8.6094000">
        <ele>169.6</ele>
        <time>2019-06-21T15:04:01Z</time>
      </trkpt>
      <trkpt lat="42.2134080" lon="-8.6093740">
        <ele>169.2</ele>
        <time>2019-06-21T15:04:05Z</time>
      </trkpt>
      <trkpt lat="42.2135670" lon="-8.6093520">
        <ele>169.6</ele>
        <time>2019-06-21T15:04:08Z</time>
      </trkpt>
      <trkpt lat="42.2138360" lon="-8.6093140">
        <ele>169.6</ele>
        <time>2019-06-21T15:04:13Z</time>
      </trkpt>
      <trkpt lat="42.2142340" lon="-8.6091450">
        <ele>169.2</ele>
        <time>2019-06-21T15:04:20Z</time>
      </trkpt>
      <trkpt lat="42.2146150" lon="-8.6089180">
        <ele>168.6</ele>
        <time>2019-06-21T15:04:27Z</time>
      </trkpt>
      <trkpt lat="42.2146710" lon="-8.6088790">
        <ele>168.6</ele>
        <time>2019-06-21T15:04:28Z</time>
      </trkpt>
      <trkpt lat="42.2149610" lon="-8.6085920">
        <ele>168.0</ele>
        <time>2019-06-21T15:04:34Z</time>
      </trkpt>
      <trkpt lat="42.2150080" lon="-8.6085390">
        <ele>167.8</ele>
        <time>2019-06-21T15:04:35Z</time>
      </trkpt>
      <trkpt lat="42.2154270" lon="-8.6081650">
        <ele>167.4</ele>
        <time>2019-06-21T15:04:43Z</time>
      </trkpt>
      <trkpt lat="42.2157160" lon="-8.6080220">
        <ele>167.0</ele>
        <time>2019-06-21T15:04:48Z</time>
      </trkpt>
      <trkpt lat="42.2158300" lon="-8.6079910">
        <ele>166.8</ele>
        <time>2019-06-21T15:04:50Z</time>
      </trkpt>
      <trkpt lat="42.2161010" lon="-8.6078950">
        <ele>166.4</ele>
        <time>2019-06-21T15:04:55Z</time>
      </trkpt>
      <trkpt lat="42.2164300" lon="-8.6077660">
        <ele>166.4</ele>
        <time>2019-06-21T15:05:02Z</time>
      </trkpt>
      <trkpt lat="42.2167230" lon="-8.6076800">
        <ele>166.0</ele>
        <time>2019-06-21T15:05:07Z</time>
      </trkpt>
      <trkpt lat="42.2167870" lon="-8.6076610">
        <ele>165.8</ele>
        <time>2019-06-21T15:05:08Z</time>
      </trkpt>
      <trkpt lat="42.2171170" lon="-8.6075690">
        <ele>165.6</ele>
        <time>2019-06-21T15:05:13Z</time>
      </trkpt>
      <trkpt lat="42.2173190" lon="-8.6075290">
        <ele>166.0</ele>
        <time>2019-06-21T15:05:17Z</time>
      </trkpt>
      <trkpt lat="42.2174350" lon="-8.6075160">
        <ele>167.0</ele>
        <time>2019-06-21T15:05:20Z</time>
      </trkpt>
      <trkpt lat="42.2175840" lon="-8.6075210">
        <ele>167.6</ele>
        <time>2019-06-21T15:05:24Z</time>
      </trkpt>
      <trkpt lat="42.2176890" lon="-8.6075250">
        <ele>168.0</ele>
        <time>2019-06-21T15:05:27Z</time>
      </trkpt>
      <trkpt lat="42.2178220" lon="-8.6075370">
        <ele>168.6</ele>
        <time>2019-06-21T15:05:31Z</time>
      </trkpt>
      <trkpt lat="42.2179530" lon="-8.6075600">
        <ele>169.0</ele>
        <time>2019-06-21T15:05:35Z</time>
      </trkpt>
      <trkpt lat="42.2180500" lon="-8.6075660">
        <ele>169.4</ele>
        <time>2019-06-21T15:05:38Z</time>
      </trkpt>
      <trkpt lat="42.2182780" lon="-8.6075520">
        <ele>169.8</ele>
        <time>2019-06-21T15:05:45Z</time>
      </trkpt>
      <trkpt lat="42.2183080" lon="-8.6075500">
        <ele>169.8</ele>
        <time>2019-06-21T15:05:46Z</time>
      </trkpt>
      <trkpt lat="42.2183700" lon="-8.6075410">
        <ele>170.2</ele>
        <time>2019-06-21T15:05:48Z</time>
      </trkpt>
      <trkpt lat="42.2184980" lon="-8.6075520">
        <ele>171.2</ele>
        <time>2019-06-21T15:05:53Z</time>
      </trkpt>
      <trkpt lat="42.2185850" lon="-8.6075730">
        <ele>171.4</ele>
        <time>2019-06-21T15:05:57Z</time>
      </trkpt>
      <trkpt lat="42.2186740" lon="-8.6075960">
        <ele>172.0</ele>
        <time>2019-06-21T15:06:01Z</time>
      </trkpt>
      <trkpt lat="42.2187520" lon="-8.6076200">
        <ele>173.0</ele>
        <time>2019-06-21T15:06:05Z</time>
      </trkpt>
      <trkpt lat="42.2188530" lon="-8.6076540">
        <ele>174.0</ele>
        <time>2019-06-21T15:06:10Z</time>
      </trkpt>
      <trkpt lat="42.2188740" lon="-8.6076580">
        <ele>174.2</ele>
        <time>2019-06-21T15:06:11Z</time>
      </trkpt>
      <trkpt lat="42.2189670" lon="-8.6076650">
        <ele>175.0</ele>
        <time>2019-06-21T15:06:16Z</time>
      </trkpt>
      <trkpt lat="42.2189820" lon="-8.6076620">
        <ele>175.2</ele>
        <time>2019-06-21T15:06:17Z</time>
      </trkpt>
      <trkpt lat="42.2190130" lon="-8.6076660">
        <ele>175.4</ele>
        <time>2019-06-21T15:06:19Z</time>
      </trkpt>
      <trkpt lat="42.2190910" lon="-8.6076660">
        <ele>176.2</ele>
        <time>2019-06-21T15:06:24Z</time>
      </trkpt>
      <trkpt lat="42.2191400" lon="-8.6076670">
        <ele>176.4</ele>
        <time>2019-06-21T15:06:27Z</time>
      </trkpt>
      <trkpt lat="42.2192990" lon="-8.6076530">
        <ele>177.2</ele>
        <time>2019-06-21T15:06:36Z</time>
      </trkpt>
      <trkpt lat="42.2193760" lon="-8.6076460">
        <ele>177.4</ele>
        <time>2019-06-21T15:06:40Z</time>
      </trkpt>
      <trkpt lat="42.2194310" lon="-8.6076470">
        <ele>178.0</ele>
        <time>2019-06-21T15:06:43Z</time>
      </trkpt>
      <trkpt lat="42.2194670" lon="-8.6076490">
        <ele>178.4</ele>
        <time>2019-06-21T15:06:45Z</time>
      </trkpt>
      <trkpt lat="42.2195930" lon="-8.6076560">
        <ele>179.4</ele>
        <time>2019-06-21T15:06:52Z</time>
      </trkpt>
      <trkpt lat="42.2197360" lon="-8.6076640">
        <ele>180.6</ele>
        <time>2019-06-21T15:07:00Z</time>
      </trkpt>
      <trkpt lat="42.2197550" lon="-8.6076640">
        <ele>180.8</ele>
        <time>2019-06-21T15:07:01Z</time>
      </trkpt>
      <trkpt lat="42.2198970" lon="-8.6076760">
        <ele>181.6</ele>
        <time>2019-06-21T15:07:09Z</time>
      </trkpt>
      <trkpt lat="42.2199140" lon="-8.6076770">
        <ele>181.8</ele>
        <time>2019-06-21T15:07:10Z</time>
      </trkpt>
      <trkpt lat="42.2200480" lon="-8.6076900">
        <ele>182.8</ele>
        <time>2019-06-21T15:07:17Z</time>
      </trkpt>
      <trkpt lat="42.2200670" lon="-8.6076920">
        <ele>183.0</ele>
        <time>2019-06-21T15:07:18Z</time>
      </trkpt>
      <trkpt lat="42.2202150" lon="-8.6076860">
        <ele>183.8</ele>
        <time>2019-06-21T15:07:25Z</time>
      </trkpt>
      <trkpt lat="42.2202360" lon="-8.6076870">
        <ele>184.0</ele>
        <time>2019-06-21T15:07:26Z</time>
      </trkpt>
      <trkpt lat="42.2203880" lon="-8.6076980">
        <ele>184.8</ele>
        <time>2019-06-21T15:07:35Z</time>
      </trkpt>
      <trkpt lat="42.2205040" lon="-8.6076940">
        <ele>185.8</ele>
        <time>2019-06-21T15:07:42Z</time>
      </trkpt>
      <trkpt lat="42.2205240" lon="-8.6076990">
        <ele>186.2</ele>
        <time>2019-06-21T15:07:43Z</time>
      </trkpt>
      <trkpt lat="42.2206440" lon="-8.6077520">
        <ele>187.2</ele>
        <time>2019-06-21T15:07:49Z</time>
      </trkpt>
      <trkpt lat="42.2206610" lon="-8.6077620">
        <ele>187.4</ele>
        <time>2019-06-21T15:07:50Z</time>
      </trkpt>
      <trkpt lat="42.2207510" lon="-8.6078220">
        <ele>188.2</ele>
        <time>2019-06-21T15:07:56Z</time>
      </trkpt>
      <trkpt lat="42.2207730" lon="-8.6078350">
        <ele>188.6</ele>
        <time>2019-06-21T15:07:58Z</time>
      </trkpt>
      <trkpt lat="42.2208300" lon="-8.6078720">
        <ele>189.4</ele>
        <time>2019-06-21T15:08:02Z</time>
      </trkpt>
      <trkpt lat="42.2208760" lon="-8.6078930">
        <ele>190.0</ele>
        <time>2019-06-21T15:08:05Z</time>
      </trkpt>
      <trkpt lat="42.2209200" lon="-8.6079140">
        <ele>190.6</ele>
        <time>2019-06-21T15:08:08Z</time>
      </trkpt>
      <trkpt lat="42.2209950" lon="-8.6079380">
        <ele>191.6</ele>
        <time>2019-06-21T15:08:13Z</time>
      </trkpt>
      <trkpt lat="42.2210530" lon="-8.6079780">
        <ele>192.8</ele>
        <time>2019-06-21T15:08:18Z</time>
      </trkpt>
      <trkpt lat="42.2210770" lon="-8.6079930">
        <ele>193.0</ele>
        <time>2019-06-21T15:08:20Z</time>
      </trkpt>
      <trkpt lat="42.2211970" lon="-8.6080780">
        <ele>193.8</ele>
        <time>2019-06-21T15:08:28Z</time>
      </trkpt>
      <trkpt lat="42.2213350" lon="-8.6081360">
        <ele>194.6</ele>
        <time>2019-06-21T15:08:36Z</time>
      </trkpt>
      <trkpt lat="42.2213850" lon="-8.6081490">
        <ele>195.0</ele>
        <time>2019-06-21T15:08:39Z</time>
      </trkpt>
      <trkpt lat="42.2214440" lon="-8.6081480">
        <ele>195.2</ele>
        <time>2019-06-21T15:08:43Z</time>
      </trkpt>
      <trkpt lat="42.2215720" lon="-8.6081440">
        <ele>196.0</ele>
        <time>2019-06-21T15:08:50Z</time>
      </trkpt>
      <trkpt lat="42.2215890" lon="-8.6081430">
        <ele>196.2</ele>
        <time>2019-06-21T15:08:51Z</time>
      </trkpt>
      <trkpt lat="42.2216650" lon="-8.6081370">
        <ele>196.8</ele>
        <time>2019-06-21T15:08:57Z</time>
      </trkpt>
      <trkpt lat="42.2217530" lon="-8.6081280">
        <ele>197.2</ele>
        <time>2019-06-21T15:09:01Z</time>
      </trkpt>
      <trkpt lat="42.2218040" lon="-8.6081320">
        <ele>197.6</ele>
        <time>2019-06-21T15:09:04Z</time>
      </trkpt>
      <trkpt lat="42.2218750" lon="-8.6081400">
        <ele>198.2</ele>
        <time>2019-06-21T15:09:09Z</time>
      </trkpt>
      <trkpt lat="42.2218980" lon="-8.6081430">
        <ele>198.4</ele>
        <time>2019-06-21T15:09:11Z</time>
      </trkpt>
      <trkpt lat="42.2219630" lon="-8.6081590">
        <ele>199.2</ele>
        <time>2019-06-21T15:09:16Z</time>
      </trkpt>
      <trkpt lat="42.2219800" lon="-8.6081600">
        <ele>199.4</ele>
        <time>2019-06-21T15:09:17Z</time>
      </trkpt>
      <trkpt lat="42.2221110" lon="-8.6081860">
        <ele>200.4</ele>
        <time>2019-06-21T15:09:24Z</time>
      </trkpt>
      <trkpt lat="42.2222060" lon="-8.6081930">
        <ele>201.6</ele>
        <time>2019-06-21T15:09:30Z</time>
      </trkpt>
      <trkpt lat="42.2222240" lon="-8.6081930">
        <ele>201.8</ele>
        <time>2019-06-21T15:09:31Z</time>
      </trkpt>
      <trkpt lat="42.2223010" lon="-8.6081820">
        <ele>202.8</ele>
        <time>2019-06-21T15:09:36Z</time>
      </trkpt>
      <trkpt lat="42.2223460" lon="-8.6081850">
        <ele>203.2</ele>
        <time>2019-06-21T15:09:39Z</time>
      </trkpt>
      <trkpt lat="42.2224060" lon="-8.6081610">
        <ele>204.0</ele>
        <time>2019-06-21T15:09:42Z</time>
      </trkpt>
      <trkpt lat="42.2225520" lon="-8.6080960">
        <ele>205.0</ele>
        <time>2019-06-21T15:09:49Z</time>
      </trkpt>
      <trkpt lat="42.2226750" lon="-8.6080600">
        <ele>206.2</ele>
        <time>2019-06-21T15:09:55Z</time>
      </trkpt>
      <trkpt lat="42.2227380" lon="-8.6080190">
        <ele>207.2</ele>
        <time>2019-06-21T15:10:01Z</time>
      </trkpt>
      <trkpt lat="42.2227530" lon="-8.6080140">
        <ele>207.4</ele>
        <time>2019-06-21T15:10:02Z</time>
      </trkpt>
      <trkpt lat="42.2227990" lon="-8.6079810">
        <ele>208.2</ele>
        <time>2019-06-21T15:10:06Z</time>
      </trkpt>
      <trkpt lat="42.2228410" lon="-8.6079210">
        <ele>208.8</ele>
        <time>2019-06-21T15:10:10Z</time>
      </trkpt>
      <trkpt lat="42.2228470" lon="-8.6079040">
        <ele>209.0</ele>
        <time>2019-06-21T15:10:11Z</time>
      </trkpt>
      <trkpt lat="42.2228720" lon="-8.6078870">
        <ele>209.4</ele>
        <time>2019-06-21T15:10:13Z</time>
      </trkpt>
      <trkpt lat="42.2229020" lon="-8.6078660">
        <ele>210.0</ele>
        <time>2019-06-21T15:10:16Z</time>
      </trkpt>
      <trkpt lat="42.2229240" lon="-8.6078580">
        <ele>210.4</ele>
        <time>2019-06-21T15:10:18Z</time>
      </trkpt>
      <trkpt lat="42.2229410" lon="-8.6078590">
        <ele>210.6</ele>
        <time>2019-06-21T15:10:19Z</time>
      </trkpt>
      <trkpt lat="42.2229730" lon="-8.6078690">
        <ele>211.2</ele>
        <time>2019-06-21T15:10:21Z</time>
      </trkpt>
      <trkpt lat="42.2230290" lon="-8.6077810">
        <ele>211.6</ele>
        <time>2019-06-21T15:10:26Z</time>
      </trkpt>
      <trkpt lat="42.2230340" lon="-8.6077580">
        <ele>211.8</ele>
        <time>2019-06-21T15:10:27Z</time>
      </trkpt>
      <trkpt lat="42.2230610" lon="-8.6076530">
        <ele>212.6</ele>
        <time>2019-06-21T15:10:32Z</time>
      </trkpt>
      <trkpt lat="42.2230700" lon="-8.6076320">
        <ele>213.0</ele>
        <time>2019-06-21T15:10:33Z</time>
      </trkpt>
      <trkpt lat="42.2231380" lon="-8.6075120">
        <ele>213.8</ele>
        <time>2019-06-21T15:10:41Z</time>
      </trkpt>
      <trkpt lat="42.2231470" lon="-8.6074960">
        <ele>214.0</ele>
        <time>2019-06-21T15:10:42Z</time>
      </trkpt>
      <trkpt lat="42.2232430" lon="-8.6074210">
        <ele>214.4</ele>
        <time>2019-06-21T15:10:49Z</time>
      </trkpt>
      <trkpt lat="42.2233400" lon="-8.6073950">
        <ele>215.4</ele>
        <time>2019-06-21T15:10:54Z</time>
      </trkpt>
      <trkpt lat="42.2233810" lon="-8.6073750">
        <ele>215.6</ele>
        <time>2019-06-21T15:10:56Z</time>
      </trkpt>
      <trkpt lat="42.2234990" lon="-8.6072760">
        <ele>216.6</ele>
        <time>2019-06-21T15:11:04Z</time>
      </trkpt>
      <trkpt lat="42.2235760" lon="-8.6072280">
        <ele>217.6</ele>
        <time>2019-06-21T15:11:09Z</time>
      </trkpt>
      <trkpt lat="42.2236350" lon="-8.6072000">
        <ele>218.4</ele>
        <time>2019-06-21T15:11:13Z</time>
      </trkpt>
      <trkpt lat="42.2236480" lon="-8.6071900">
        <ele>218.8</ele>
        <time>2019-06-21T15:11:14Z</time>
      </trkpt>
      <trkpt lat="42.2237260" lon="-8.6071230">
        <ele>219.8</ele>
        <time>2019-06-21T15:11:20Z</time>
      </trkpt>
      <trkpt lat="42.2238240" lon="-8.6070550">
        <ele>221.0</ele>
        <time>2019-06-21T15:11:26Z</time>
      </trkpt>
      <trkpt lat="42.2238530" lon="-8.6070290">
        <ele>221.2</ele>
        <time>2019-06-21T15:11:28Z</time>
      </trkpt>
      <trkpt lat="42.2239170" lon="-8.6069800">
        <ele>222.0</ele>
        <time>2019-06-21T15:11:33Z</time>
      </trkpt>
      <trkpt lat="42.2239310" lon="-8.6069730">
        <ele>222.2</ele>
        <time>2019-06-21T15:11:34Z</time>
      </trkpt>
      <trkpt lat="42.2240350" lon="-8.6069090">
        <ele>223.2</ele>
        <time>2019-06-21T15:11:42Z</time>
      </trkpt>
      <trkpt lat="42.2241240" lon="-8.6068240">
        <ele>224.2</ele>
        <time>2019-06-21T15:11:49Z</time>
      </trkpt>
      <trkpt lat="42.2241480" lon="-8.6068030">
        <ele>224.4</ele>
        <time>2019-06-21T15:11:51Z</time>
      </trkpt>
      <trkpt lat="42.2242300" lon="-8.6067630">
        <ele>225.0</ele>
        <time>2019-06-21T15:11:56Z</time>
      </trkpt>
      <trkpt lat="42.2242890" lon="-8.6067380">
        <ele>225.0</ele>
        <time>2019-06-21T15:12:00Z</time>
      </trkpt>
      <trkpt lat="42.2243030" lon="-8.6067290">
        <ele>225.0</ele>
        <time>2019-06-21T15:12:01Z</time>
      </trkpt>
      <trkpt lat="42.2243760" lon="-8.6066850">
        <ele>225.2</ele>
        <time>2019-06-21T15:12:06Z</time>
      </trkpt>
      <trkpt lat="42.2243890" lon="-8.6066790">
        <ele>225.2</ele>
        <time>2019-06-21T15:12:07Z</time>
      </trkpt>
      <trkpt lat="42.2244420" lon="-8.6066690">
        <ele>225.6</ele>
        <time>2019-06-21T15:12:10Z</time>
      </trkpt>
      <trkpt lat="42.2244990" lon="-8.6066350">
        <ele>225.6</ele>
        <time>2019-06-21T15:12:14Z</time>
      </trkpt>
      <trkpt lat="42.2245230" lon="-8.6066300">
        <ele>225.8</ele>
        <time>2019-06-21T15:12:16Z</time>
      </trkpt>
      <trkpt lat="42.2245810" lon="-8.6065970">
        <ele>226.0</ele>
        <time>2019-06-21T15:12:52Z</time>
      </trkpt>
      <trkpt lat="42.2245980" lon="-8.6065820">
        <ele>226.0</ele>
        <time>2019-06-21T15:12:53Z</time>
      </trkpt>
      <trkpt lat="42.2246590" lon="-8.6065430">
        <ele>226.6</ele>
        <time>2019-06-21T15:12:56Z</time>
      </trkpt>
      <trkpt lat="42.2247570" lon="-8.6065070">
        <ele>226.4</ele>
        <time>2019-06-21T15:13:00Z</time>
      </trkpt>
      <trkpt lat="42.2248700" lon="-8.6064010">
        <ele>226.6</ele>
        <time>2019-06-21T15:13:06Z</time>
      </trkpt>
      <trkpt lat="42.2249790" lon="-8.6063390">
        <ele>226.2</ele>
        <time>2019-06-21T15:13:11Z</time>
      </trkpt>
      <trkpt lat="42.2251260" lon="-8.6062050">
        <ele>225.6</ele>
        <time>2019-06-21T15:13:16Z</time>
      </trkpt>
      <trkpt lat="42.2251660" lon="-8.6061740">
        <ele>225.6</ele>
        <time>2019-06-21T15:13:17Z</time>
      </trkpt>
      <trkpt lat="42.2254040" lon="-8.6060520">
        <ele>225.0</ele>
        <time>2019-06-21T15:13:22Z</time>
      </trkpt>
      <trkpt lat="42.2255140" lon="-8.6060190">
        <ele>224.6</ele>
        <time>2019-06-21T15:13:24Z</time>
      </trkpt>
      <trkpt lat="42.2256870" lon="-8.6059940">
        <ele>224.0</ele>
        <time>2019-06-21T15:13:27Z</time>
      </trkpt>
      <trkpt lat="42.2257440" lon="-8.6059980">
        <ele>224.0</ele>
        <time>2019-06-21T15:13:28Z</time>
      </trkpt>
      <trkpt lat="42.2259060" lon="-8.6060240">
        <ele>224.0</ele>
        <time>2019-06-21T15:13:31Z</time>
      </trkpt>
      <trkpt lat="42.2259950" lon="-8.6060760">
        <ele>223.8</ele>
        <time>2019-06-21T15:13:33Z</time>
      </trkpt>
      <trkpt lat="42.2261040" lon="-8.6061660">
        <ele>224.0</ele>
        <time>2019-06-21T15:13:36Z</time>
      </trkpt>
      <trkpt lat="42.2261930" lon="-8.6062460">
        <ele>224.0</ele>
        <time>2019-06-21T15:13:39Z</time>
      </trkpt>
      <trkpt lat="42.2263870" lon="-8.6064310">
        <ele>224.2</ele>
        <time>2019-06-21T15:13:45Z</time>
      </trkpt>
      <trkpt lat="42.2264860" lon="-8.6065290">
        <ele>224.4</ele>
        <time>2019-06-21T15:13:48Z</time>
      </trkpt>
      <trkpt lat="42.2266930" lon="-8.6067000">
        <ele>225.8</ele>
        <time>2019-06-21T15:13:55Z</time>
      </trkpt>
      <trkpt lat="42.2267780" lon="-8.6067580">
        <ele>225.8</ele>
        <time>2019-06-21T15:13:59Z</time>
      </trkpt>
      <trkpt lat="42.2268280" lon="-8.6067900">
        <ele>226.4</ele>
        <time>2019-06-21T15:14:02Z</time>
      </trkpt>
      <trkpt lat="42.2268850" lon="-8.6068070">
        <ele>226.8</ele>
        <time>2019-06-21T15:14:05Z</time>
      </trkpt>
      <trkpt lat="42.2269630" lon="-8.6068360">
        <ele>227.6</ele>
        <time>2019-06-21T15:14:09Z</time>
      </trkpt>
      <trkpt lat="42.2269830" lon="-8.6068420">
        <ele>228.0</ele>
        <time>2019-06-21T15:14:10Z</time>
      </trkpt>
      <trkpt lat="42.2270900" lon="-8.6068840">
        <ele>228.8</ele>
        <time>2019-06-21T15:14:16Z</time>
      </trkpt>
      <trkpt lat="42.2271090" lon="-8.6068890">
        <ele>229.0</ele>
        <time>2019-06-21T15:14:17Z</time>
      </trkpt>
      <trkpt lat="42.2271600" lon="-8.6068990">
        <ele>229.6</ele>
        <time>2019-06-21T15:14:20Z</time>
      </trkpt>
      <trkpt lat="42.2272250" lon="-8.6069090">
        <ele>230.2</ele>
        <time>2019-06-21T15:14:24Z</time>
      </trkpt>
      <trkpt lat="42.2272370" lon="-8.6069090">
        <ele>230.4</ele>
        <time>2019-06-21T15:14:25Z</time>
      </trkpt>
      <trkpt lat="42.2272910" lon="-8.6069330">
        <ele>230.8</ele>
        <time>2019-06-21T15:14:29Z</time>
      </trkpt>
      <trkpt lat="42.2272990" lon="-8.6069490">
        <ele>231.6</ele>
        <time>2019-06-21T15:14:30Z</time>
      </trkpt>
      <trkpt lat="42.2273080" lon="-8.6069660">
        <ele>231.8</ele>
        <time>2019-06-21T15:14:31Z</time>
      </trkpt>
      <trkpt lat="42.2273220" lon="-8.6070010">
        <ele>231.6</ele>
        <time>2019-06-21T15:14:33Z</time>
      </trkpt>
      <trkpt lat="42.2273680" lon="-8.6070850">
        <ele>232.0</ele>
        <time>2019-06-21T15:14:38Z</time>
      </trkpt>
      <trkpt lat="42.2273920" lon="-8.6071240">
        <ele>232.6</ele>
        <time>2019-06-21T15:14:41Z</time>
      </trkpt>
      <trkpt lat="42.2274020" lon="-8.6071860">
        <ele>233.6</ele>
        <time>2019-06-21T15:14:45Z</time>
      </trkpt>
      <trkpt lat="42.2274030" lon="-8.6072040">
        <ele>233.8</ele>
        <time>2019-06-21T15:14:46Z</time>
      </trkpt>
      <trkpt lat="42.2274210" lon="-8.6072700">
        <ele>234.8</ele>
        <time>2019-06-21T15:14:51Z</time>
      </trkpt>
      <trkpt lat="42.2274270" lon="-8.6072820">
        <ele>235.0</ele>
        <time>2019-06-21T15:14:52Z</time>
      </trkpt>
      <trkpt lat="42.2274490" lon="-8.6073360">
        <ele>236.0</ele>
        <time>2019-06-21T15:14:56Z</time>
      </trkpt>
      <trkpt lat="42.2274660" lon="-8.6073910">
        <ele>237.0</ele>
        <time>2019-06-21T15:15:00Z</time>
      </trkpt>
      <trkpt lat="42.2274950" lon="-8.6074690">
        <ele>238.0</ele>
        <time>2019-06-21T15:15:06Z</time>
      </trkpt>
      <trkpt lat="42.2275050" lon="-8.6075030">
        <ele>238.6</ele>
        <time>2019-06-21T15:15:08Z</time>
      </trkpt>
      <trkpt lat="42.2275180" lon="-8.6075280">
        <ele>239.2</ele>
        <time>2019-06-21T15:15:10Z</time>
      </trkpt>
      <trkpt lat="42.2275380" lon="-8.6075780">
        <ele>240.2</ele>
        <time>2019-06-21T15:15:14Z</time>
      </trkpt>
      <trkpt lat="42.2275470" lon="-8.6075910">
        <ele>240.4</ele>
        <time>2019-06-21T15:15:15Z</time>
      </trkpt>
      <trkpt lat="42.2275550" lon="-8.6076340">
        <ele>241.2</ele>
        <time>2019-06-21T15:15:18Z</time>
      </trkpt>
      <trkpt lat="42.2275600" lon="-8.6076630">
        <ele>242.0</ele>
        <time>2019-06-21T15:15:20Z</time>
      </trkpt>
      <trkpt lat="42.2275650" lon="-8.6076780">
        <ele>242.4</ele>
        <time>2019-06-21T15:15:21Z</time>
      </trkpt>
      <trkpt lat="42.2275640" lon="-8.6076950">
        <ele>242.6</ele>
        <time>2019-06-21T15:15:22Z</time>
      </trkpt>
      <trkpt lat="42.2275640" lon="-8.6077420">
        <ele>243.4</ele>
        <time>2019-06-21T15:15:25Z</time>
      </trkpt>
      <trkpt lat="42.2275770" lon="-8.6077830">
        <ele>244.4</ele>
        <time>2019-06-21T15:15:28Z</time>
      </trkpt>
      <trkpt lat="42.2275840" lon="-8.6077950">
        <ele>244.6</ele>
        <time>2019-06-21T15:15:29Z</time>
      </trkpt>
      <trkpt lat="42.2276060" lon="-8.6078550">
        <ele>245.8</ele>
        <time>2019-06-21T15:15:34Z</time>
      </trkpt>
      <trkpt lat="42.2276100" lon="-8.6078700">
        <ele>246.0</ele>
        <time>2019-06-21T15:15:35Z</time>
      </trkpt>
      <trkpt lat="42.2276450" lon="-8.6079550">
        <ele>247.0</ele>
        <time>2019-06-21T15:15:41Z</time>
      </trkpt>
      <trkpt lat="42.2276530" lon="-8.6079890">
        <ele>247.6</ele>
        <time>2019-06-21T15:15:43Z</time>
      </trkpt>
      <trkpt lat="42.2276840" lon="-8.6080580">
        <ele>248.2</ele>
        <time>2019-06-21T15:15:47Z</time>
      </trkpt>
      <trkpt lat="42.2277230" lon="-8.6081430">
        <ele>248.6</ele>
        <time>2019-06-21T15:15:52Z</time>
      </trkpt>
      <trkpt lat="42.2277940" lon="-8.6082660">
        <ele>248.8</ele>
        <time>2019-06-21T15:15:59Z</time>
      </trkpt>
      <trkpt lat="42.2278750" lon="-8.6084380">
        <ele>248.8</ele>
        <time>2019-06-21T15:16:07Z</time>
      </trkpt>
      <trkpt lat="42.2279670" lon="-8.6086560">
        <ele>248.8</ele>
        <time>2019-06-21T15:16:14Z</time>
      </trkpt>
      <trkpt lat="42.2280150" lon="-8.6088040">
        <ele>248.8</ele>
        <time>2019-06-21T15:16:19Z</time>
      </trkpt>
      <trkpt lat="42.2280540" lon="-8.6089270">
        <ele>248.6</ele>
        <time>2019-06-21T15:16:23Z</time>
      </trkpt>
      <trkpt lat="42.2280850" lon="-8.6090010">
        <ele>248.6</ele>
        <time>2019-06-21T15:16:26Z</time>
      </trkpt>
      <trkpt lat="42.2280980" lon="-8.6090230">
        <ele>248.8</ele>
        <time>2019-06-21T15:16:27Z</time>
      </trkpt>
      <trkpt lat="42.2281320" lon="-8.6091180">
        <ele>248.8</ele>
        <time>2019-06-21T15:16:30Z</time>
      </trkpt>
      <trkpt lat="42.2281470" lon="-8.6091870">
        <ele>248.4</ele>
        <time>2019-06-21T15:16:32Z</time>
      </trkpt>
      <trkpt lat="42.2281450" lon="-8.6092140">
        <ele>248.4</ele>
        <time>2019-06-21T15:16:33Z</time>
      </trkpt>
      <trkpt lat="42.2281440" lon="-8.6092750">
        <ele>248.4</ele>
        <time>2019-06-21T15:16:36Z</time>
      </trkpt>
      <trkpt lat="42.2282350" lon="-8.6093860">
        <ele>248.8</ele>
        <time>2019-06-21T15:17:59Z</time>
      </trkpt>
      <trkpt lat="42.2282430" lon="-8.6094040">
        <ele>248.8</ele>
        <time>2019-06-21T15:18:00Z</time>
      </trkpt>
      <trkpt lat="42.2282510" lon="-8.6094300">
        <ele>249.0</ele>
        <time>2019-06-21T15:18:01Z</time>
      </trkpt>
      <trkpt lat="42.2282640" lon="-8.6094570">
        <ele>249.0</ele>
        <time>2019-06-21T15:18:02Z</time>
      </trkpt>
      <trkpt lat="42.2283460" lon="-8.6096180">
        <ele>249.2</ele>
        <time>2019-06-21T15:18:07Z</time>
      </trkpt>
      <trkpt lat="42.2283910" lon="-8.6096830">
        <ele>249.6</ele>
        <time>2019-06-21T15:18:09Z</time>
      </trkpt>
      <trkpt lat="42.2285630" lon="-8.6099580">
        <ele>249.6</ele>
        <time>2019-06-21T15:18:17Z</time>
      </trkpt>
      <trkpt lat="42.2287100" lon="-8.6101680">
        <ele>249.6</ele>
        <time>2019-06-21T15:18:23Z</time>
      </trkpt>
      <trkpt lat="42.2287510" lon="-8.6102450">
        <ele>249.8</ele>
        <time>2019-06-21T15:18:25Z</time>
      </trkpt>
      <trkpt lat="42.2288660" lon="-8.6104850">
        <ele>249.4</ele>
        <time>2019-06-21T15:18:31Z</time>
      </trkpt>
      <trkpt lat="42.2290880" lon="-8.6107090">
        <ele>249.8</ele>
        <time>2019-06-21T15:18:39Z</time>
      </trkpt>
      <trkpt lat="42.2292120" lon="-8.6108210">
        <ele>250.4</ele>
        <time>2019-06-21T15:18:44Z</time>
      </trkpt>
      <trkpt lat="42.2292760" lon="-8.6108670">
        <ele>250.6</ele>
        <time>2019-06-21T15:18:46Z</time>
      </trkpt>
      <trkpt lat="42.2294910" lon="-8.6109810">
        <ele>250.2</ele>
        <time>2019-06-21T15:18:53Z</time>
      </trkpt>
      <trkpt lat="42.2295360" lon="-8.6109670">
        <ele>250.0</ele>
        <time>2019-06-21T15:18:54Z</time>
      </trkpt>
      <trkpt lat="42.2295860" lon="-8.6109530">
        <ele>249.2</ele>
        <time>2019-06-21T15:18:55Z</time>
      </trkpt>
      <trkpt lat="42.2296410" lon="-8.6109550">
        <ele>248.6</ele>
        <time>2019-06-21T15:18:56Z</time>
      </trkpt>
      <trkpt lat="42.2297460" lon="-8.6109970">
        <ele>248.0</ele>
        <time>2019-06-21T15:18:58Z</time>
      </trkpt>
      <trkpt lat="42.2298040" lon="-8.6110340">
        <ele>247.8</ele>
        <time>2019-06-21T15:18:59Z</time>
      </trkpt>
      <trkpt lat="42.2298610" lon="-8.6110730">
        <ele>247.6</ele>
        <time>2019-06-21T15:19:00Z</time>
      </trkpt>
      <trkpt lat="42.2299120" lon="-8.6111230">
        <ele>247.4</ele>
        <time>2019-06-21T15:19:01Z</time>
      </trkpt>
      <trkpt lat="42.2300260" lon="-8.6111760">
        <ele>247.4</ele>
        <time>2019-06-21T15:19:03Z</time>
      </trkpt>
      <trkpt lat="42.2301150" lon="-8.6112490">
        <ele>247.2</ele>
        <time>2019-06-21T15:19:05Z</time>
      </trkpt>
      <trkpt lat="42.2301570" lon="-8.6113570">
        <ele>247.2</ele>
        <time>2019-06-21T15:19:07Z</time>
      </trkpt>
      <trkpt lat="42.2302620" lon="-8.6115220">
        <ele>248.4</ele>
        <time>2019-06-21T15:19:12Z</time>
      </trkpt>
      <trkpt lat="42.2304510" lon="-8.6116050">
        <ele>248.0</ele>
        <time>2019-06-21T15:19:17Z</time>
      </trkpt>
      <trkpt lat="42.2305930" lon="-8.6116780">
        <ele>247.4</ele>
        <time>2019-06-21T15:19:20Z</time>
      </trkpt>
      <trkpt lat="42.2306830" lon="-8.6117450">
        <ele>247.0</ele>
        <time>2019-06-21T15:19:22Z</time>
      </trkpt>
      <trkpt lat="42.2307310" lon="-8.6117730">
        <ele>246.6</ele>
        <time>2019-06-21T15:19:23Z</time>
      </trkpt>
      <trkpt lat="42.2308650" lon="-8.6118940">
        <ele>246.0</ele>
        <time>2019-06-21T15:19:26Z</time>
      </trkpt>
      <trkpt lat="42.2309890" lon="-8.6120230">
        <ele>245.6</ele>
        <time>2019-06-21T15:19:29Z</time>
      </trkpt>
      <trkpt lat="42.2312620" lon="-8.6122980">
        <ele>245.0</ele>
        <time>2019-06-21T15:19:36Z</time>
      </trkpt>
      <trkpt lat="42.2313110" lon="-8.6123460">
        <ele>244.6</ele>
        <time>2019-06-21T15:19:37Z</time>
      </trkpt>
      <trkpt lat="42.2313520" lon="-8.6124100">
        <ele>244.4</ele>
        <time>2019-06-21T15:19:38Z</time>
      </trkpt>
      <trkpt lat="42.2314310" lon="-8.6125040">
        <ele>243.4</ele>
        <time>2019-06-21T15:19:40Z</time>
      </trkpt>
      <trkpt lat="42.2314830" lon="-8.6125530">
        <ele>242.4</ele>
        <time>2019-06-21T15:19:42Z</time>
      </trkpt>
      <trkpt lat="42.2315420" lon="-8.6125480">
        <ele>241.8</ele>
        <time>2019-06-21T15:19:44Z</time>
      </trkpt>
      <trkpt lat="42.2316270" lon="-8.6124190">
        <ele>241.4</ele>
        <time>2019-06-21T15:19:47Z</time>
      </trkpt>
      <trkpt lat="42.2316720" lon="-8.6123810">
        <ele>241.2</ele>
        <time>2019-06-21T15:19:48Z</time>
      </trkpt>
      <trkpt lat="42.2317830" lon="-8.6123310">
        <ele>240.8</ele>
        <time>2019-06-21T15:19:50Z</time>
      </trkpt>
      <trkpt lat="42.2319020" lon="-8.6123380">
        <ele>240.2</ele>
        <time>2019-06-21T15:19:52Z</time>
      </trkpt>
      <trkpt lat="42.2319610" lon="-8.6123660">
        <ele>239.8</ele>
        <time>2019-06-21T15:19:53Z</time>
      </trkpt>
      <trkpt lat="42.2320200" lon="-8.6123870">
        <ele>239.4</ele>
        <time>2019-06-21T15:19:54Z</time>
      </trkpt>
      <trkpt lat="42.2320770" lon="-8.6124080">
        <ele>239.2</ele>
        <time>2019-06-21T15:19:55Z</time>
      </trkpt>
      <trkpt lat="42.2322630" lon="-8.6124710">
        <ele>238.8</ele>
        <time>2019-06-21T15:19:58Z</time>
      </trkpt>
      <trkpt lat="42.2324720" lon="-8.6125410">
        <ele>238.2</ele>
        <time>2019-06-21T15:20:01Z</time>
      </trkpt>
      <trkpt lat="42.2325430" lon="-8.6125620">
        <ele>237.8</ele>
        <time>2019-06-21T15:20:02Z</time>
      </trkpt>
      <trkpt lat="42.2327760" lon="-8.6126260">
        <ele>237.0</ele>
        <time>2019-06-21T15:20:05Z</time>
      </trkpt>
      <trkpt lat="42.2328560" lon="-8.6126500">
        <ele>236.6</ele>
        <time>2019-06-21T15:20:06Z</time>
      </trkpt>
      <trkpt lat="42.2330270" lon="-8.6126990">
        <ele>235.2</ele>
        <time>2019-06-21T15:20:08Z</time>
      </trkpt>
      <trkpt lat="42.2332050" lon="-8.6127530">
        <ele>234.2</ele>
        <time>2019-06-21T15:20:10Z</time>
      </trkpt>
      <trkpt lat="42.2334800" lon="-8.6128070">
        <ele>233.2</ele>
        <time>2019-06-21T15:20:13Z</time>
      </trkpt>
      <trkpt lat="42.2335730" lon="-8.6128230">
        <ele>233.0</ele>
        <time>2019-06-21T15:20:14Z</time>
      </trkpt>
      <trkpt lat="42.2338380" lon="-8.6129140">
        <ele>231.8</ele>
        <time>2019-06-21T15:20:17Z</time>
      </trkpt>
      <trkpt lat="42.2340070" lon="-8.6130150">
        <ele>230.8</ele>
        <time>2019-06-21T15:20:19Z</time>
      </trkpt>
      <trkpt lat="42.2340890" lon="-8.6130700">
        <ele>230.6</ele>
        <time>2019-06-21T15:20:20Z</time>
      </trkpt>
      <trkpt lat="42.2344060" lon="-8.6132650">
        <ele>229.2</ele>
        <time>2019-06-21T15:20:24Z</time>
      </trkpt>
      <trkpt lat="42.2345580" lon="-8.6133490">
        <ele>229.0</ele>
        <time>2019-06-21T15:20:26Z</time>
      </trkpt>
      <trkpt lat="42.2348310" lon="-8.6135050">
        <ele>228.2</ele>
        <time>2019-06-21T15:20:30Z</time>
      </trkpt>
      <trkpt lat="42.2348940" lon="-8.6135440">
        <ele>228.2</ele>
        <time>2019-06-21T15:20:31Z</time>
      </trkpt>
      <trkpt lat="42.2351400" lon="-8.6136160">
        <ele>227.6</ele>
        <time>2019-06-21T15:20:35Z</time>
      </trkpt>
      <trkpt lat="42.2352050" lon="-8.6136260">
        <ele>227.4</ele>
        <time>2019-06-21T15:20:36Z</time>
      </trkpt>
      <trkpt lat="42.2352660" lon="-8.6136430">
        <ele>227.2</ele>
        <time>2019-06-21T15:20:37Z</time>
      </trkpt>
      <trkpt lat="42.2354630" lon="-8.6136680">
        <ele>226.8</ele>
        <time>2019-06-21T15:20:40Z</time>
      </trkpt>
      <trkpt lat="42.2355330" lon="-8.6136560">
        <ele>226.6</ele>
        <time>2019-06-21T15:20:41Z</time>
      </trkpt>
      <trkpt lat="42.2356770" lon="-8.6136330">
        <ele>225.8</ele>
        <time>2019-06-21T15:20:43Z</time>
      </trkpt>
      <trkpt lat="42.2358920" lon="-8.6135840">
        <ele>224.8</ele>
        <time>2019-06-21T15:20:46Z</time>
      </trkpt>
      <trkpt lat="42.2360410" lon="-8.6135620">
        <ele>224.0</ele>
        <time>2019-06-21T15:20:48Z</time>
      </trkpt>
      <trkpt lat="42.2361860" lon="-8.6135270">
        <ele>223.6</ele>
        <time>2019-06-21T15:20:50Z</time>
      </trkpt>
      <trkpt lat="42.2365390" lon="-8.6134560">
        <ele>223.0</ele>
        <time>2019-06-21T15:20:55Z</time>
      </trkpt>
      <trkpt lat="42.2366710" lon="-8.6134230">
        <ele>222.6</ele>
        <time>2019-06-21T15:20:57Z</time>
      </trkpt>
      <trkpt lat="42.2369820" lon="-8.6133520">
        <ele>222.0</ele>
        <time>2019-06-21T15:21:02Z</time>
      </trkpt>
      <trkpt lat="42.2370440" lon="-8.6133490">
        <ele>222.2</ele>
        <time>2019-06-21T15:21:03Z</time>
      </trkpt>
      <trkpt lat="42.2372860" lon="-8.6132890">
        <ele>221.8</ele>
        <time>2019-06-21T15:21:07Z</time>
      </trkpt>
      <trkpt lat="42.2376030" lon="-8.6132020">
        <ele>221.8</ele>
        <time>2019-06-21T15:21:12Z</time>
      </trkpt>
      <trkpt lat="42.2377350" lon="-8.6131770">
        <ele>221.8</ele>
        <time>2019-06-21T15:21:14Z</time>
      </trkpt>
      <trkpt lat="42.2380040" lon="-8.6131210">
        <ele>221.6</ele>
        <time>2019-06-21T15:21:18Z</time>
      </trkpt>
      <trkpt lat="42.2381910" lon="-8.6130710">
        <ele>221.0</ele>
        <time>2019-06-21T15:21:21Z</time>
      </trkpt>
      <trkpt lat="42.2384980" lon="-8.6130080">
        <ele>220.6</ele>
        <time>2019-06-21T15:21:26Z</time>
      </trkpt>
      <trkpt lat="42.2386920" lon="-8.6129420">
        <ele>220.0</ele>
        <time>2019-06-21T15:21:29Z</time>
      </trkpt>
      <trkpt lat="42.2390100" lon="-8.6127950">
        <ele>219.4</ele>
        <time>2019-06-21T15:21:34Z</time>
      </trkpt>
      <trkpt lat="42.2390710" lon="-8.6127630">
        <ele>219.4</ele>
        <time>2019-06-21T15:21:35Z</time>
      </trkpt>
      <trkpt lat="42.2395470" lon="-8.6124680">
        <ele>218.6</ele>
        <time>2019-06-21T15:21:43Z</time>
      </trkpt>
      <trkpt lat="42.2396070" lon="-8.6124250">
        <ele>218.4</ele>
        <time>2019-06-21T15:21:44Z</time>
      </trkpt>
      <trkpt lat="42.2397960" lon="-8.6122880">
        <ele>217.6</ele>
        <time>2019-06-21T15:21:47Z</time>
      </trkpt>
      <trkpt lat="42.2399240" lon="-8.6121870">
        <ele>217.4</ele>
        <time>2019-06-21T15:21:49Z</time>
      </trkpt>
      <trkpt lat="42.2399860" lon="-8.6121190">
        <ele>217.2</ele>
        <time>2019-06-21T15:21:50Z</time>
      </trkpt>
      <trkpt lat="42.2401810" lon="-8.6119280">
        <ele>216.4</ele>
        <time>2019-06-21T15:21:53Z</time>
      </trkpt>
      <trkpt lat="42.2404340" lon="-8.6116390">
        <ele>215.2</ele>
        <time>2019-06-21T15:21:57Z</time>
      </trkpt>
      <trkpt lat="42.2406320" lon="-8.6114110">
        <ele>214.0</ele>
        <time>2019-06-21T15:22:00Z</time>
      </trkpt>
      <trkpt lat="42.2408380" lon="-8.6111420">
        <ele>213.2</ele>
        <time>2019-06-21T15:22:03Z</time>
      </trkpt>
      <trkpt lat="42.2409150" lon="-8.6110560">
        <ele>212.6</ele>
        <time>2019-06-21T15:22:04Z</time>
      </trkpt>
      <trkpt lat="42.2410510" lon="-8.6108770">
        <ele>211.6</ele>
        <time>2019-06-21T15:22:06Z</time>
      </trkpt>
      <trkpt lat="42.2411750" lon="-8.6107210">
        <ele>210.2</ele>
        <time>2019-06-21T15:22:08Z</time>
      </trkpt>
      <trkpt lat="42.2412910" lon="-8.6105750">
        <ele>209.2</ele>
        <time>2019-06-21T15:22:10Z</time>
      </trkpt>
      <trkpt lat="42.2415730" lon="-8.6102100">
        <ele>208.4</ele>
        <time>2019-06-21T15:22:15Z</time>
      </trkpt>
      <trkpt lat="42.2416600" lon="-8.6100800">
        <ele>208.0</ele>
        <time>2019-06-21T15:22:18Z</time>
      </trkpt>
      <trkpt lat="42.2416870" lon="-8.6100820">
        <ele>207.8</ele>
        <time>2019-06-21T15:22:19Z</time>
      </trkpt>
      <trkpt lat="42.2416830" lon="-8.6101560">
        <ele>207.6</ele>
        <time>2019-06-21T15:22:21Z</time>
      </trkpt>
      <trkpt lat="42.2416350" lon="-8.6102130">
        <ele>207.6</ele>
        <time>2019-06-21T15:22:24Z</time>
      </trkpt>
      <trkpt lat="42.2416250" lon="-8.6102290">
        <ele>207.6</ele>
        <time>2019-06-21T15:22:25Z</time>
      </trkpt>
      <trkpt lat="42.2415580" lon="-8.6103020">
        <ele>207.4</ele>
        <time>2019-06-21T15:22:31Z</time>
      </trkpt>
      <trkpt lat="42.2415810" lon="-8.6104260">
        <ele>206.8</ele>
        <time>2019-06-21T15:22:35Z</time>
      </trkpt>
      <trkpt lat="42.2415800" lon="-8.6106010">
        <ele>206.4</ele>
        <time>2019-06-21T15:22:38Z</time>
      </trkpt>
      <trkpt lat="42.2415800" lon="-8.6107050">
        <ele>206.0</ele>
        <time>2019-06-21T15:22:40Z</time>
      </trkpt>
      <trkpt lat="42.2415730" lon="-8.6108120">
        <ele>205.8</ele>
        <time>2019-06-21T15:22:43Z</time>
      </trkpt>
      <trkpt lat="42.2415840" lon="-8.6108300">
        <ele>205.6</ele>
        <time>2019-06-21T15:22:44Z</time>
      </trkpt>
      <trkpt lat="42.2416330" lon="-8.6108760">
        <ele>205.2</ele>
        <time>2019-06-21T15:22:48Z</time>
      </trkpt>
      <trkpt lat="42.2417200" lon="-8.6107930">
        <ele>205.6</ele>
        <time>2019-06-21T15:33:18Z</time>
      </trkpt>
      <trkpt lat="42.2417370" lon="-8.6107900">
        <ele>205.4</ele>
        <time>2019-06-21T15:33:19Z</time>
      </trkpt>
      <trkpt lat="42.2419050" lon="-8.6107500">
        <ele>205.0</ele>
        <time>2019-06-21T15:33:26Z</time>
      </trkpt>
      <trkpt lat="42.2420060" lon="-8.6107420">
        <ele>204.8</ele>
        <time>2019-06-21T15:33:30Z</time>
      </trkpt>
      <trkpt lat="42.2420330" lon="-8.6107400">
        <ele>204.8</ele>
        <time>2019-06-21T15:33:31Z</time>
      </trkpt>
      <trkpt lat="42.2421700" lon="-8.6107110">
        <ele>204.8</ele>
        <time>2019-06-21T15:33:36Z</time>
      </trkpt>
      <trkpt lat="42.2423730" lon="-8.6106920">
        <ele>205.0</ele>
        <time>2019-06-21T15:33:43Z</time>
      </trkpt>
      <trkpt lat="42.2426530" lon="-8.6106900">
        <ele>205.2</ele>
        <time>2019-06-21T15:33:51Z</time>
      </trkpt>
      <trkpt lat="42.2428750" lon="-8.6106790">
        <ele>205.6</ele>
        <time>2019-06-21T15:33:57Z</time>
      </trkpt>
      <trkpt lat="42.2429920" lon="-8.6106660">
        <ele>206.0</ele>
        <time>2019-06-21T15:34:00Z</time>
      </trkpt>
      <trkpt lat="42.2431420" lon="-8.6106440">
        <ele>206.6</ele>
        <time>2019-06-21T15:34:04Z</time>
      </trkpt>
      <trkpt lat="42.2432070" lon="-8.6106350">
        <ele>206.8</ele>
        <time>2019-06-21T15:34:06Z</time>
      </trkpt>
      <trkpt lat="42.2433350" lon="-8.6106200">
        <ele>207.6</ele>
        <time>2019-06-21T15:34:10Z</time>
      </trkpt>
      <trkpt lat="42.2434010" lon="-8.6106090">
        <ele>208.0</ele>
        <time>2019-06-21T15:34:12Z</time>
      </trkpt>
      <trkpt lat="42.2435340" lon="-8.6105880">
        <ele>208.0</ele>
        <time>2019-06-21T15:34:16Z</time>
      </trkpt>
      <trkpt lat="42.2437040" lon="-8.6105640">
        <ele>208.8</ele>
        <time>2019-06-21T15:34:21Z</time>
      </trkpt>
      <trkpt lat="42.2438240" lon="-8.6105370">
        <ele>209.0</ele>
        <time>2019-06-21T15:34:24Z</time>
      </trkpt>
      <trkpt lat="42.2439030" lon="-8.6105150">
        <ele>209.0</ele>
        <time>2019-06-21T15:34:26Z</time>
      </trkpt>
      <trkpt lat="42.2440830" lon="-8.6104450">
        <ele>209.0</ele>
        <time>2019-06-21T15:34:31Z</time>
      </trkpt>
      <trkpt lat="42.2443270" lon="-8.6103380">
        <ele>208.6</ele>
        <time>2019-06-21T15:34:37Z</time>
      </trkpt>
      <trkpt lat="42.2444120" lon="-8.6103120">
        <ele>208.6</ele>
        <time>2019-06-21T15:34:39Z</time>
      </trkpt>
      <trkpt lat="42.2446520" lon="-8.6102730">
        <ele>208.4</ele>
        <time>2019-06-21T15:34:44Z</time>
      </trkpt>
      <trkpt lat="42.2448620" lon="-8.6102460">
        <ele>208.2</ele>
        <time>2019-06-21T15:34:48Z</time>
      </trkpt>
      <trkpt lat="42.2449170" lon="-8.6102280">
        <ele>208.0</ele>
        <time>2019-06-21T15:34:49Z</time>
      </trkpt>
      <trkpt lat="42.2450320" lon="-8.6101840">
        <ele>207.4</ele>
        <time>2019-06-21T15:34:51Z</time>
      </trkpt>
      <trkpt lat="42.2450910" lon="-8.6101690">
        <ele>207.2</ele>
        <time>2019-06-21T15:34:52Z</time>
      </trkpt>
      <trkpt lat="42.2451490" lon="-8.6101560">
        <ele>206.8</ele>
        <time>2019-06-21T15:34:53Z</time>
      </trkpt>
      <trkpt lat="42.2452580" lon="-8.6101030">
        <ele>206.2</ele>
        <time>2019-06-21T15:34:55Z</time>
      </trkpt>
      <trkpt lat="42.2453620" lon="-8.6100230">
        <ele>205.8</ele>
        <time>2019-06-21T15:34:57Z</time>
      </trkpt>
      <trkpt lat="42.2454700" lon="-8.6099410">
        <ele>205.4</ele>
        <time>2019-06-21T15:34:59Z</time>
      </trkpt>
      <trkpt lat="42.2455290" lon="-8.6099070">
        <ele>205.2</ele>
        <time>2019-06-21T15:35:00Z</time>
      </trkpt>
      <trkpt lat="42.2456630" lon="-8.6098520">
        <ele>204.4</ele>
        <time>2019-06-21T15:35:02Z</time>
      </trkpt>
      <trkpt lat="42.2458100" lon="-8.6098370">
        <ele>203.6</ele>
        <time>2019-06-21T15:35:04Z</time>
      </trkpt>
      <trkpt lat="42.2458850" lon="-8.6098490">
        <ele>203.4</ele>
        <time>2019-06-21T15:35:05Z</time>
      </trkpt>
      <trkpt lat="42.2461030" lon="-8.6099290">
        <ele>202.8</ele>
        <time>2019-06-21T15:35:08Z</time>
      </trkpt>
      <trkpt lat="42.2462380" lon="-8.6100020">
        <ele>202.6</ele>
        <time>2019-06-21T15:35:10Z</time>
      </trkpt>
      <trkpt lat="42.2463010" lon="-8.6100410">
        <ele>202.4</ele>
        <time>2019-06-21T15:35:11Z</time>
      </trkpt>
      <trkpt lat="42.2464210" lon="-8.6101130">
        <ele>202.4</ele>
        <time>2019-06-21T15:35:13Z</time>
      </trkpt>
      <trkpt lat="42.2466010" lon="-8.6102200">
        <ele>202.0</ele>
        <time>2019-06-21T15:35:16Z</time>
      </trkpt>
      <trkpt lat="42.2468000" lon="-8.6103170">
        <ele>201.0</ele>
        <time>2019-06-21T15:35:19Z</time>
      </trkpt>
      <trkpt lat="42.2468730" lon="-8.6103450">
        <ele>200.4</ele>
        <time>2019-06-21T15:35:20Z</time>
      </trkpt>
      <trkpt lat="42.2469480" lon="-8.6103720">
        <ele>200.0</ele>
        <time>2019-06-21T15:35:21Z</time>
      </trkpt>
      <trkpt lat="42.2471840" lon="-8.6104810">
        <ele>198.8</ele>
        <time>2019-06-21T15:35:24Z</time>
      </trkpt>
      <trkpt lat="42.2472650" lon="-8.6105230">
        <ele>198.2</ele>
        <time>2019-06-21T15:35:25Z</time>
      </trkpt>
      <trkpt lat="42.2474300" lon="-8.6106060">
        <ele>197.6</ele>
        <time>2019-06-21T15:35:27Z</time>
      </trkpt>
      <trkpt lat="42.2476880" lon="-8.6106860">
        <ele>196.4</ele>
        <time>2019-06-21T15:35:30Z</time>
      </trkpt>
      <trkpt lat="42.2477720" lon="-8.6107000">
        <ele>196.0</ele>
        <time>2019-06-21T15:35:31Z</time>
      </trkpt>
      <trkpt lat="42.2478490" lon="-8.6107180">
        <ele>195.8</ele>
        <time>2019-06-21T15:35:32Z</time>
      </trkpt>
      <trkpt lat="42.2479760" lon="-8.6107670">
        <ele>195.0</ele>
        <time>2019-06-21T15:35:34Z</time>
      </trkpt>
      <trkpt lat="42.2480270" lon="-8.6107940">
        <ele>194.8</ele>
        <time>2019-06-21T15:35:35Z</time>
      </trkpt>
      <trkpt lat="42.2481760" lon="-8.6108860">
        <ele>194.6</ele>
        <time>2019-06-21T15:35:39Z</time>
      </trkpt>
      <trkpt lat="42.2482150" lon="-8.6108970">
        <ele>194.2</ele>
        <time>2019-06-21T15:35:40Z</time>
      </trkpt>
      <trkpt lat="42.2482930" lon="-8.6109150">
        <ele>194.0</ele>
        <time>2019-06-21T15:35:42Z</time>
      </trkpt>
      <trkpt lat="42.2483390" lon="-8.6109130">
        <ele>194.0</ele>
        <time>2019-06-21T15:35:43Z</time>
      </trkpt>
      <trkpt lat="42.2484230" lon="-8.6109280">
        <ele>193.8</ele>
        <time>2019-06-21T15:35:45Z</time>
      </trkpt>
      <trkpt lat="42.2485070" lon="-8.6109410">
        <ele>193.8</ele>
        <time>2019-06-21T15:35:47Z</time>
      </trkpt>
      <trkpt lat="42.2486310" lon="-8.6109550">
        <ele>193.6</ele>
        <time>2019-06-21T15:35:50Z</time>
      </trkpt>
      <trkpt lat="42.2486710" lon="-8.6109530">
        <ele>193.8</ele>
        <time>2019-06-21T15:35:51Z</time>
      </trkpt>
      <trkpt lat="42.2487860" lon="-8.6109440">
        <ele>194.2</ele>
        <time>2019-06-21T15:35:54Z</time>
      </trkpt>
      <trkpt lat="42.2489630" lon="-8.6108720">
        <ele>193.8</ele>
        <time>2019-06-21T15:35:59Z</time>
      </trkpt>
      <trkpt lat="42.2490450" lon="-8.6108190">
        <ele>192.6</ele>
        <time>2019-06-21T15:36:01Z</time>
      </trkpt>
      <trkpt lat="42.2490920" lon="-8.6107980">
        <ele>192.0</ele>
        <time>2019-06-21T15:36:02Z</time>
      </trkpt>
      <trkpt lat="42.2491400" lon="-8.6107790">
        <ele>191.2</ele>
        <time>2019-06-21T15:36:03Z</time>
      </trkpt>
      <trkpt lat="42.2491970" lon="-8.6107730">
        <ele>190.8</ele>
        <time>2019-06-21T15:36:04Z</time>
      </trkpt>
      <trkpt lat="42.2493100" lon="-8.6107820">
        <ele>190.2</ele>
        <time>2019-06-21T15:36:06Z</time>
      </trkpt>
      <trkpt lat="42.2494190" lon="-8.6108060">
        <ele>188.6</ele>
        <time>2019-06-21T15:36:08Z</time>
      </trkpt>
      <trkpt lat="42.2494700" lon="-8.6108270">
        <ele>188.0</ele>
        <time>2019-06-21T15:36:09Z</time>
      </trkpt>
      <trkpt lat="42.2495190" lon="-8.6108510">
        <ele>187.2</ele>
        <time>2019-06-21T15:36:10Z</time>
      </trkpt>
      <trkpt lat="42.2496200" lon="-8.6108990">
        <ele>186.2</ele>
        <time>2019-06-21T15:36:12Z</time>
      </trkpt>
      <trkpt lat="42.2498000" lon="-8.6109840">
        <ele>184.6</ele>
        <time>2019-06-21T15:36:15Z</time>
      </trkpt>
      <trkpt lat="42.2499230" lon="-8.6110400">
        <ele>182.8</ele>
        <time>2019-06-21T15:36:17Z</time>
      </trkpt>
      <trkpt lat="42.2500450" lon="-8.6110900">
        <ele>181.2</ele>
        <time>2019-06-21T15:36:19Z</time>
      </trkpt>
      <trkpt lat="42.2501820" lon="-8.6111400">
        <ele>179.2</ele>
        <time>2019-06-21T15:36:21Z</time>
      </trkpt>
      <trkpt lat="42.2503260" lon="-8.6111860">
        <ele>177.2</ele>
        <time>2019-06-21T15:36:23Z</time>
      </trkpt>
      <trkpt lat="42.2503950" lon="-8.6112080">
        <ele>176.2</ele>
        <time>2019-06-21T15:36:24Z</time>
      </trkpt>
      <trkpt lat="42.2504610" lon="-8.6112290">
        <ele>174.4</ele>
        <time>2019-06-21T15:36:25Z</time>
      </trkpt>
      <trkpt lat="42.2505830" lon="-8.6112610">
        <ele>172.6</ele>
        <time>2019-06-21T15:36:27Z</time>
      </trkpt>
      <trkpt lat="42.2506880" lon="-8.6112750">
        <ele>171.2</ele>
        <time>2019-06-21T15:36:29Z</time>
      </trkpt>
      <trkpt lat="42.2507740" lon="-8.6112960">
        <ele>170.2</ele>
        <time>2019-06-21T15:36:31Z</time>
      </trkpt>
      <trkpt lat="42.2508650" lon="-8.6113250">
        <ele>169.0</ele>
        <time>2019-06-21T15:36:33Z</time>
      </trkpt>
      <trkpt lat="42.2509640" lon="-8.6113520">
        <ele>167.8</ele>
        <time>2019-06-21T15:36:35Z</time>
      </trkpt>
      <trkpt lat="42.2510090" lon="-8.6113730">
        <ele>166.8</ele>
        <time>2019-06-21T15:36:36Z</time>
      </trkpt>
      <trkpt lat="42.2510470" lon="-8.6114030">
        <ele>165.8</ele>
        <time>2019-06-21T15:36:37Z</time>
      </trkpt>
      <trkpt lat="42.2511340" lon="-8.6114520">
        <ele>164.0</ele>
        <time>2019-06-21T15:36:39Z</time>
      </trkpt>
      <trkpt lat="42.2511880" lon="-8.6114620">
        <ele>162.8</ele>
        <time>2019-06-21T15:36:40Z</time>
      </trkpt>
      <trkpt lat="42.2512460" lon="-8.6114630">
        <ele>161.4</ele>
        <time>2019-06-21T15:36:41Z</time>
      </trkpt>
      <trkpt lat="42.2513040" lon="-8.6114560">
        <ele>159.8</ele>
        <time>2019-06-21T15:36:42Z</time>
      </trkpt>
      <trkpt lat="42.2513630" lon="-8.6114280">
        <ele>158.2</ele>
        <time>2019-06-21T15:36:43Z</time>
      </trkpt>
      <trkpt lat="42.2514200" lon="-8.6113750">
        <ele>156.8</ele>
        <time>2019-06-21T15:36:44Z</time>
      </trkpt>
      <trkpt lat="42.2514750" lon="-8.6113200">
        <ele>155.4</ele>
        <time>2019-06-21T15:36:45Z</time>
      </trkpt>
      <trkpt lat="42.2515260" lon="-8.6112760">
        <ele>154.0</ele>
        <time>2019-06-21T15:36:46Z</time>
      </trkpt>
      <trkpt lat="42.2515760" lon="-8.6112450">
        <ele>152.6</ele>
        <time>2019-06-21T15:36:47Z</time>
      </trkpt>
      <trkpt lat="42.2516330" lon="-8.6112270">
        <ele>151.6</ele>
        <time>2019-06-21T15:36:48Z</time>
      </trkpt>
      <trkpt lat="42.2516930" lon="-8.6112170">
        <ele>150.6</ele>
        <time>2019-06-21T15:36:49Z</time>
      </trkpt>
      <trkpt lat="42.2517510" lon="-8.6112120">
        <ele>149.2</ele>
        <time>2019-06-21T15:36:50Z</time>
      </trkpt>
      <trkpt lat="42.2518040" lon="-8.6112210">
        <ele>147.8</ele>
        <time>2019-06-21T15:36:51Z</time>
      </trkpt>
      <trkpt lat="42.2518460" lon="-8.6112490">
        <ele>146.4</ele>
        <time>2019-06-21T15:36:52Z</time>
      </trkpt>
      <trkpt lat="42.2518860" lon="-8.6112900">
        <ele>145.0</ele>
        <time>2019-06-21T15:36:53Z</time>
      </trkpt>
      <trkpt lat="42.2519280" lon="-8.6113260">
        <ele>143.8</ele>
        <time>2019-06-21T15:36:54Z</time>
      </trkpt>
      <trkpt lat="42.2519730" lon="-8.6113420">
        <ele>142.4</ele>
        <time>2019-06-21T15:36:55Z</time>
      </trkpt>
      <trkpt lat="42.2520270" lon="-8.6113300">
        <ele>140.8</ele>
        <time>2019-06-21T15:36:56Z</time>
      </trkpt>
      <trkpt lat="42.2520860" lon="-8.6112800">
        <ele>138.6</ele>
        <time>2019-06-21T15:36:57Z</time>
      </trkpt>
      <trkpt lat="42.2522050" lon="-8.6111280">
        <ele>137.0</ele>
        <time>2019-06-21T15:36:59Z</time>
      </trkpt>
      <trkpt lat="42.2523320" lon="-8.6109250">
        <ele>135.2</ele>
        <time>2019-06-21T15:37:01Z</time>
      </trkpt>
      <trkpt lat="42.2524130" lon="-8.6108250">
        <ele>134.2</ele>
        <time>2019-06-21T15:37:02Z</time>
      </trkpt>
      <trkpt lat="42.2525000" lon="-8.6107220">
        <ele>133.0</ele>
        <time>2019-06-21T15:37:03Z</time>
      </trkpt>
      <trkpt lat="42.2525770" lon="-8.6106190">
        <ele>131.6</ele>
        <time>2019-06-21T15:37:04Z</time>
      </trkpt>
      <trkpt lat="42.2526380" lon="-8.6105290">
        <ele>130.0</ele>
        <time>2019-06-21T15:37:05Z</time>
      </trkpt>
      <trkpt lat="42.2526840" lon="-8.6104530">
        <ele>128.6</ele>
        <time>2019-06-21T15:37:06Z</time>
      </trkpt>
      <trkpt lat="42.2527190" lon="-8.6103850">
        <ele>127.2</ele>
        <time>2019-06-21T15:37:07Z</time>
      </trkpt>
      <trkpt lat="42.2527440" lon="-8.6103290">
        <ele>126.2</ele>
        <time>2019-06-21T15:37:08Z</time>
      </trkpt>
      <trkpt lat="42.2527860" lon="-8.6102620">
        <ele>124.8</ele>
        <time>2019-06-21T15:37:10Z</time>
      </trkpt>
      <trkpt lat="42.2528190" lon="-8.6102450">
        <ele>124.2</ele>
        <time>2019-06-21T15:37:11Z</time>
      </trkpt>
      <trkpt lat="42.2528590" lon="-8.6102350">
        <ele>123.8</ele>
        <time>2019-06-21T15:37:12Z</time>
      </trkpt>
      <trkpt lat="42.2529010" lon="-8.6102330">
        <ele>123.6</ele>
        <time>2019-06-21T15:37:13Z</time>
      </trkpt>
      <trkpt lat="42.2529980" lon="-8.6102500">
        <ele>123.2</ele>
        <time>2019-06-21T15:37:15Z</time>
      </trkpt>
      <trkpt lat="42.2531020" lon="-8.6102780">
        <ele>122.8</ele>
        <time>2019-06-21T15:37:17Z</time>
      </trkpt>
      <trkpt lat="42.2531590" lon="-8.6103080">
        <ele>122.4</ele>
        <time>2019-06-21T15:37:18Z</time>
      </trkpt>
      <trkpt lat="42.2532200" lon="-8.6103420">
        <ele>122.0</ele>
        <time>2019-06-21T15:37:19Z</time>
      </trkpt>
      <trkpt lat="42.2533540" lon="-8.6104330">
        <ele>119.8</ele>
        <time>2019-06-21T15:37:21Z</time>
      </trkpt>
      <trkpt lat="42.2534170" lon="-8.6104900">
        <ele>118.8</ele>
        <time>2019-06-21T15:37:22Z</time>
      </trkpt>
      <trkpt lat="42.2534740" lon="-8.6105540">
        <ele>117.4</ele>
        <time>2019-06-21T15:37:23Z</time>
      </trkpt>
      <trkpt lat="42.2535210" lon="-8.6106190">
        <ele>116.0</ele>
        <time>2019-06-21T15:37:24Z</time>
      </trkpt>
      <trkpt lat="42.2535620" lon="-8.6106760">
        <ele>114.6</ele>
        <time>2019-06-21T15:37:25Z</time>
      </trkpt>
      <trkpt lat="42.2536030" lon="-8.6107130">
        <ele>113.4</ele>
        <time>2019-06-21T15:37:26Z</time>
      </trkpt>
      <trkpt lat="42.2536480" lon="-8.6107240">
        <ele>112.2</ele>
        <time>2019-06-21T15:37:27Z</time>
      </trkpt>
      <trkpt lat="42.2536940" lon="-8.6107000">
        <ele>111.6</ele>
        <time>2019-06-21T15:37:28Z</time>
      </trkpt>
      <trkpt lat="42.2537290" lon="-8.6106390">
        <ele>111.0</ele>
        <time>2019-06-21T15:37:29Z</time>
      </trkpt>
      <trkpt lat="42.2537520" lon="-8.6105530">
        <ele>110.6</ele>
        <time>2019-06-21T15:37:30Z</time>
      </trkpt>
      <trkpt lat="42.2537690" lon="-8.6104550">
        <ele>109.8</ele>
        <time>2019-06-21T15:37:31Z</time>
      </trkpt>
      <trkpt lat="42.2538190" lon="-8.6102500">
        <ele>107.8</ele>
        <time>2019-06-21T15:37:33Z</time>
      </trkpt>
      <trkpt lat="42.2538500" lon="-8.6101470">
        <ele>106.8</ele>
        <time>2019-06-21T15:37:34Z</time>
      </trkpt>
      <trkpt lat="42.2538860" lon="-8.6100480">
        <ele>105.8</ele>
        <time>2019-06-21T15:37:35Z</time>
      </trkpt>
      <trkpt lat="42.2539230" lon="-8.6099530">
        <ele>104.4</ele>
        <time>2019-06-21T15:37:36Z</time>
      </trkpt>
      <trkpt lat="42.2539590" lon="-8.6098530">
        <ele>103.2</ele>
        <time>2019-06-21T15:37:37Z</time>
      </trkpt>
      <trkpt lat="42.2539940" lon="-8.6097560">
        <ele>102.0</ele>
        <time>2019-06-21T15:37:38Z</time>
      </trkpt>
      <trkpt lat="42.2540260" lon="-8.6096650">
        <ele>100.6</ele>
        <time>2019-06-21T15:37:39Z</time>
      </trkpt>
      <trkpt lat="42.2540540" lon="-8.6095810">
        <ele>99.2</ele>
        <time>2019-06-21T15:37:40Z</time>
      </trkpt>
      <trkpt lat="42.2540780" lon="-8.6095050">
        <ele>97.6</ele>
        <time>2019-06-21T15:37:41Z</time>
      </trkpt>
      <trkpt lat="42.2541030" lon="-8.6094290">
        <ele>96.4</ele>
        <time>2019-06-21T15:37:42Z</time>
      </trkpt>
      <trkpt lat="42.2541290" lon="-8.6093610">
        <ele>95.2</ele>
        <time>2019-06-21T15:37:43Z</time>
      </trkpt>
      <trkpt lat="42.2541570" lon="-8.6093040">
        <ele>94.0</ele>
        <time>2019-06-21T15:37:44Z</time>
      </trkpt>
      <trkpt lat="42.2541840" lon="-8.6092650">
        <ele>91.4</ele>
        <time>2019-06-21T15:37:45Z</time>
      </trkpt>
      <trkpt lat="42.2542090" lon="-8.6092500">
        <ele>90.2</ele>
        <time>2019-06-21T15:37:46Z</time>
      </trkpt>
      <trkpt lat="42.2542390" lon="-8.6092630">
        <ele>89.0</ele>
        <time>2019-06-21T15:37:47Z</time>
      </trkpt>
      <trkpt lat="42.2543030" lon="-8.6093730">
        <ele>87.8</ele>
        <time>2019-06-21T15:37:49Z</time>
      </trkpt>
      <trkpt lat="42.2543820" lon="-8.6095090">
        <ele>86.2</ele>
        <time>2019-06-21T15:37:51Z</time>
      </trkpt>
      <trkpt lat="42.2544350" lon="-8.6095680">
        <ele>85.2</ele>
        <time>2019-06-21T15:37:52Z</time>
      </trkpt>
      <trkpt lat="42.2544930" lon="-8.6096250">
        <ele>84.0</ele>
        <time>2019-06-21T15:37:53Z</time>
      </trkpt>
      <trkpt lat="42.2545570" lon="-8.6096790">
        <ele>82.8</ele>
        <time>2019-06-21T15:37:54Z</time>
      </trkpt>
      <trkpt lat="42.2546260" lon="-8.6097300">
        <ele>81.6</ele>
        <time>2019-06-21T15:37:55Z</time>
      </trkpt>
      <trkpt lat="42.2546950" lon="-8.6097870">
        <ele>80.6</ele>
        <time>2019-06-21T15:37:56Z</time>
      </trkpt>
      <trkpt lat="42.2547690" lon="-8.6098580">
        <ele>79.4</ele>
        <time>2019-06-21T15:37:57Z</time>
      </trkpt>
      <trkpt lat="42.2548510" lon="-8.6099270">
        <ele>78.2</ele>
        <time>2019-06-21T15:37:58Z</time>
      </trkpt>
      <trkpt lat="42.2549400" lon="-8.6099760">
        <ele>77.0</ele>
        <time>2019-06-21T15:37:59Z</time>
      </trkpt>
      <trkpt lat="42.2550400" lon="-8.6100000">
        <ele>75.8</ele>
        <time>2019-06-21T15:38:00Z</time>
      </trkpt>
      <trkpt lat="42.2551470" lon="-8.6099980">
        <ele>74.8</ele>
        <time>2019-06-21T15:38:01Z</time>
      </trkpt>
      <trkpt lat="42.2552610" lon="-8.6099880">
        <ele>74.0</ele>
        <time>2019-06-21T15:38:02Z</time>
      </trkpt>
      <trkpt lat="42.2553790" lon="-8.6099760">
        <ele>73.0</ele>
        <time>2019-06-21T15:38:03Z</time>
      </trkpt>
      <trkpt lat="42.2556010" lon="-8.6099240">
        <ele>71.4</ele>
        <time>2019-06-21T15:38:05Z</time>
      </trkpt>
      <trkpt lat="42.2557050" lon="-8.6098690">
        <ele>70.6</ele>
        <time>2019-06-21T15:38:06Z</time>
      </trkpt>
      <trkpt lat="42.2557970" lon="-8.6097940">
        <ele>69.8</ele>
        <time>2019-06-21T15:38:07Z</time>
      </trkpt>
      <trkpt lat="42.2559530" lon="-8.6096340">
        <ele>68.8</ele>
        <time>2019-06-21T15:38:09Z</time>
      </trkpt>
      <trkpt lat="42.2560290" lon="-8.6095640">
        <ele>68.4</ele>
        <time>2019-06-21T15:38:10Z</time>
      </trkpt>
      <trkpt lat="42.2561850" lon="-8.6094520">
        <ele>67.6</ele>
        <time>2019-06-21T15:38:12Z</time>
      </trkpt>
      <trkpt lat="42.2563470" lon="-8.6093640">
        <ele>67.0</ele>
        <time>2019-06-21T15:38:14Z</time>
      </trkpt>
      <trkpt lat="42.2565000" lon="-8.6092620">
        <ele>66.4</ele>
        <time>2019-06-21T15:38:16Z</time>
      </trkpt>
      <trkpt lat="42.2567050" lon="-8.6090980">
        <ele>66.0</ele>
        <time>2019-06-21T15:38:19Z</time>
      </trkpt>
      <trkpt lat="42.2569750" lon="-8.6089240">
        <ele>65.2</ele>
        <time>2019-06-21T15:38:23Z</time>
      </trkpt>
      <trkpt lat="42.2570440" lon="-8.6088970">
        <ele>65.2</ele>
        <time>2019-06-21T15:38:24Z</time>
      </trkpt>
      <trkpt lat="42.2571140" lon="-8.6088720">
        <ele>65.2</ele>
        <time>2019-06-21T15:38:25Z</time>
      </trkpt>
      <trkpt lat="42.2574370" lon="-8.6087330">
        <ele>64.8</ele>
        <time>2019-06-21T15:38:30Z</time>
      </trkpt>
      <trkpt lat="42.2576060" lon="-8.6086620">
        <ele>64.8</ele>
        <time>2019-06-21T15:38:33Z</time>
      </trkpt>
      <trkpt lat="42.2577120" lon="-8.6086120">
        <ele>64.6</ele>
        <time>2019-06-21T15:38:35Z</time>
      </trkpt>
      <trkpt lat="42.2580710" lon="-8.6084770">
        <ele>64.2</ele>
        <time>2019-06-21T15:38:42Z</time>
      </trkpt>
      <trkpt lat="42.2581260" lon="-8.6084570">
        <ele>64.2</ele>
        <time>2019-06-21T15:38:43Z</time>
      </trkpt>
      <trkpt lat="42.2584150" lon="-8.6083670">
        <ele>63.4</ele>
        <time>2019-06-21T15:38:48Z</time>
      </trkpt>
      <trkpt lat="42.2584740" lon="-8.6083370">
        <ele>63.0</ele>
        <time>2019-06-21T15:38:49Z</time>
      </trkpt>
      <trkpt lat="42.2585330" lon="-8.6083120">
        <ele>63.0</ele>
        <time>2019-06-21T15:38:50Z</time>
      </trkpt>
      <trkpt lat="42.2589180" lon="-8.6081430">
        <ele>62.6</ele>
        <time>2019-06-21T15:38:57Z</time>
      </trkpt>
      <trkpt lat="42.2589680" lon="-8.6081220">
        <ele>62.6</ele>
        <time>2019-06-21T15:38:58Z</time>
      </trkpt>
      <trkpt lat="42.2591570" lon="-8.6080750">
        <ele>63.0</ele>
        <time>2019-06-21T15:39:02Z</time>
      </trkpt>
      <trkpt lat="42.2593520" lon="-8.6080440">
        <ele>62.6</ele>
        <time>2019-06-21T15:39:06Z</time>
      </trkpt>
      <trkpt lat="42.2594470" lon="-8.6080110">
        <ele>62.8</ele>
        <time>2019-06-21T15:39:08Z</time>
      </trkpt>
      <trkpt lat="42.2594910" lon="-8.6079870">
        <ele>62.8</ele>
        <time>2019-06-21T15:39:09Z</time>
      </trkpt>
      <trkpt lat="42.2596550" lon="-8.6079020">
        <ele>63.2</ele>
        <time>2019-06-21T15:39:13Z</time>
      </trkpt>
      <trkpt lat="42.2596960" lon="-8.6078930">
        <ele>63.4</ele>
        <time>2019-06-21T15:39:14Z</time>
      </trkpt>
      <trkpt lat="42.2597370" lon="-8.6078910">
        <ele>63.4</ele>
        <time>2019-06-21T15:39:15Z</time>
      </trkpt>
      <trkpt lat="42.2600380" lon="-8.6078750">
        <ele>63.0</ele>
        <time>2019-06-21T15:39:21Z</time>
      </trkpt>
      <trkpt lat="42.2601930" lon="-8.6078840">
        <ele>63.0</ele>
        <time>2019-06-21T15:39:24Z</time>
      </trkpt>
      <trkpt lat="42.2603380" lon="-8.6078970">
        <ele>63.0</ele>
        <time>2019-06-21T15:39:27Z</time>
      </trkpt>
      <trkpt lat="42.2606380" lon="-8.6079450">
        <ele>62.8</ele>
        <time>2019-06-21T15:39:33Z</time>
      </trkpt>
      <trkpt lat="42.2607490" lon="-8.6079520">
        <ele>62.4</ele>
        <time>2019-06-21T15:39:35Z</time>
      </trkpt>
      <trkpt lat="42.2608630" lon="-8.6079450">
        <ele>62.0</ele>
        <time>2019-06-21T15:39:37Z</time>
      </trkpt>
      <trkpt lat="42.2611340" lon="-8.6078800">
        <ele>61.8</ele>
        <time>2019-06-21T15:39:42Z</time>
      </trkpt>
      <trkpt lat="42.2613230" lon="-8.6077880">
        <ele>61.6</ele>
        <time>2019-06-21T15:39:46Z</time>
      </trkpt>
      <trkpt lat="42.2614780" lon="-8.6077140">
        <ele>61.2</ele>
        <time>2019-06-21T15:39:49Z</time>
      </trkpt>
      <trkpt lat="42.2617450" lon="-8.6076230">
        <ele>61.0</ele>
        <time>2019-06-21T15:39:54Z</time>
      </trkpt>
      <trkpt lat="42.2618540" lon="-8.6076000">
        <ele>60.8</ele>
        <time>2019-06-21T15:39:56Z</time>
      </trkpt>
      <trkpt lat="42.2622560" lon="-8.6075740">
        <ele>60.6</ele>
        <time>2019-06-21T15:40:03Z</time>
      </trkpt>
      <trkpt lat="42.2626140" lon="-8.6076770">
        <ele>60.2</ele>
        <time>2019-06-21T15:40:09Z</time>
      </trkpt>
      <trkpt lat="42.2627290" lon="-8.6077470">
        <ele>59.8</ele>
        <time>2019-06-21T15:40:11Z</time>
      </trkpt>
      <trkpt lat="42.2630100" lon="-8.6079130">
        <ele>59.2</ele>
        <time>2019-06-21T15:40:16Z</time>
      </trkpt>
      <trkpt lat="42.2631320" lon="-8.6079590">
        <ele>58.8</ele>
        <time>2019-06-21T15:40:18Z</time>
      </trkpt>
      <trkpt lat="42.2633220" lon="-8.6079940">
        <ele>58.4</ele>
        <time>2019-06-21T15:40:21Z</time>
      </trkpt>
      <trkpt lat="42.2635050" lon="-8.6080090">
        <ele>58.4</ele>
        <time>2019-06-21T15:40:24Z</time>
      </trkpt>
      <trkpt lat="42.2636770" lon="-8.6080250">
        <ele>58.2</ele>
        <time>2019-06-21T15:40:27Z</time>
      </trkpt>
      <trkpt lat="42.2641650" lon="-8.6081270">
        <ele>57.8</ele>
        <time>2019-06-21T15:40:36Z</time>
      </trkpt>
      <trkpt lat="42.2646050" lon="-8.6082290">
        <ele>57.2</ele>
        <time>2019-06-21T15:40:44Z</time>
      </trkpt>
      <trkpt lat="42.2648950" lon="-8.6082500">
        <ele>57.2</ele>
        <time>2019-06-21T15:40:49Z</time>
      </trkpt>
      <trkpt lat="42.2649510" lon="-8.6082530">
        <ele>57.2</ele>
        <time>2019-06-21T15:40:50Z</time>
      </trkpt>
      <trkpt lat="42.2650620" lon="-8.6082600">
        <ele>57.2</ele>
        <time>2019-06-21T15:40:52Z</time>
      </trkpt>
      <trkpt lat="42.2651160" lon="-8.6082680">
        <ele>57.4</ele>
        <time>2019-06-21T15:40:53Z</time>
      </trkpt>
      <trkpt lat="42.2652730" lon="-8.6083140">
        <ele>58.0</ele>
        <time>2019-06-21T15:40:56Z</time>
      </trkpt>
      <trkpt lat="42.2653240" lon="-8.6083390">
        <ele>58.4</ele>
        <time>2019-06-21T15:40:57Z</time>
      </trkpt>
      <trkpt lat="42.2654770" lon="-8.6084240">
        <ele>58.4</ele>
        <time>2019-06-21T15:41:00Z</time>
      </trkpt>
      <trkpt lat="42.2656350" lon="-8.6085240">
        <ele>58.4</ele>
        <time>2019-06-21T15:41:03Z</time>
      </trkpt>
      <trkpt lat="42.2659160" lon="-8.6086690">
        <ele>57.8</ele>
        <time>2019-06-21T15:41:08Z</time>
      </trkpt>
      <trkpt lat="42.2660330" lon="-8.6087130">
        <ele>57.6</ele>
        <time>2019-06-21T15:41:10Z</time>
      </trkpt>
      <trkpt lat="42.2664060" lon="-8.6088750">
        <ele>57.2</ele>
        <time>2019-06-21T15:41:17Z</time>
      </trkpt>
      <trkpt lat="42.2666250" lon="-8.6089800">
        <ele>56.8</ele>
        <time>2019-06-21T15:41:21Z</time>
      </trkpt>
      <trkpt lat="42.2667330" lon="-8.6090430">
        <ele>57.0</ele>
        <time>2019-06-21T15:41:23Z</time>
      </trkpt>
      <trkpt lat="42.2670660" lon="-8.6092970">
        <ele>57.0</ele>
        <time>2019-06-21T15:41:30Z</time>
      </trkpt>
      <trkpt lat="42.2672470" lon="-8.6094040">
        <ele>57.8</ele>
        <time>2019-06-21T15:41:34Z</time>
      </trkpt>
      <trkpt lat="42.2673760" lon="-8.6094640">
        <ele>58.0</ele>
        <time>2019-06-21T15:41:37Z</time>
      </trkpt>
      <trkpt lat="42.2676950" lon="-8.6096270">
        <ele>57.4</ele>
        <time>2019-06-21T15:41:44Z</time>
      </trkpt>
      <trkpt lat="42.2679230" lon="-8.6096860">
        <ele>56.8</ele>
        <time>2019-06-21T15:41:48Z</time>
      </trkpt>
      <trkpt lat="42.2679800" lon="-8.6097020">
        <ele>56.4</ele>
        <time>2019-06-21T15:41:49Z</time>
      </trkpt>
      <trkpt lat="42.2680350" lon="-8.6097180">
        <ele>56.4</ele>
        <time>2019-06-21T15:41:50Z</time>
      </trkpt>
      <trkpt lat="42.2683250" lon="-8.6098050">
        <ele>56.6</ele>
        <time>2019-06-21T15:41:56Z</time>
      </trkpt>
      <trkpt lat="42.2686470" lon="-8.6099330">
        <ele>57.0</ele>
        <time>2019-06-21T15:42:03Z</time>
      </trkpt>
      <trkpt lat="42.2689870" lon="-8.6101450">
        <ele>56.6</ele>
        <time>2019-06-21T15:42:10Z</time>
      </trkpt>
      <trkpt lat="42.2692740" lon="-8.6103630">
        <ele>56.4</ele>
        <time>2019-06-21T15:42:16Z</time>
      </trkpt>
      <trkpt lat="42.2695860" lon="-8.6105870">
        <ele>55.8</ele>
        <time>2019-06-21T15:42:22Z</time>
      </trkpt>
      <trkpt lat="42.2697460" lon="-8.6106700">
        <ele>55.4</ele>
        <time>2019-06-21T15:42:25Z</time>
      </trkpt>
      <trkpt lat="42.2699550" lon="-8.6107730">
        <ele>54.8</ele>
        <time>2019-06-21T15:42:29Z</time>
      </trkpt>
      <trkpt lat="42.2700650" lon="-8.6108320">
        <ele>54.4</ele>
        <time>2019-06-21T15:42:31Z</time>
      </trkpt>
      <trkpt lat="42.2704230" lon="-8.6109920">
        <ele>53.4</ele>
        <time>2019-06-21T15:42:37Z</time>
      </trkpt>
      <trkpt lat="42.2706880" lon="-8.6109760">
        <ele>52.6</ele>
        <time>2019-06-21T15:42:41Z</time>
      </trkpt>
      <trkpt lat="42.2707520" lon="-8.6109550">
        <ele>52.6</ele>
        <time>2019-06-21T15:42:42Z</time>
      </trkpt>
      <trkpt lat="42.2708690" lon="-8.6109070">
        <ele>52.2</ele>
        <time>2019-06-21T15:42:44Z</time>
      </trkpt>
      <trkpt lat="42.2709850" lon="-8.6108450">
        <ele>52.0</ele>
        <time>2019-06-21T15:42:46Z</time>
      </trkpt>
      <trkpt lat="42.2712060" lon="-8.6106790">
        <ele>51.2</ele>
        <time>2019-06-21T15:42:50Z</time>
      </trkpt>
      <trkpt lat="42.2713020" lon="-8.6105910">
        <ele>51.2</ele>
        <time>2019-06-21T15:42:52Z</time>
      </trkpt>
      <trkpt lat="42.2715260" lon="-8.6103830">
        <ele>51.8</ele>
        <time>2019-06-21T15:42:58Z</time>
      </trkpt>
      <trkpt lat="42.2715730" lon="-8.6103550">
        <ele>52.2</ele>
        <time>2019-06-21T15:43:00Z</time>
      </trkpt>
      <trkpt lat="42.2716170" lon="-8.6103460">
        <ele>52.6</ele>
        <time>2019-06-21T15:43:02Z</time>
      </trkpt>
      <trkpt lat="42.2717000" lon="-8.6103260">
        <ele>52.2</ele>
        <time>2019-06-21T15:43:05Z</time>
      </trkpt>
      <trkpt lat="42.2717700" lon="-8.6102820">
        <ele>52.0</ele>
        <time>2019-06-21T15:43:08Z</time>
      </trkpt>
      <trkpt lat="42.2719080" lon="-8.6102260">
        <ele>51.4</ele>
        <time>2019-06-21T15:43:12Z</time>
      </trkpt>
      <trkpt lat="42.2719830" lon="-8.6102170">
        <ele>51.2</ele>
        <time>2019-06-21T15:43:14Z</time>
      </trkpt>
      <trkpt lat="42.2720190" lon="-8.6102150">
        <ele>51.0</ele>
        <time>2019-06-21T15:43:15Z</time>
      </trkpt>
      <trkpt lat="42.2721910" lon="-8.6102260">
        <ele>50.2</ele>
        <time>2019-06-21T15:43:19Z</time>
      </trkpt>
      <trkpt lat="42.2724730" lon="-8.6102210">
        <ele>49.0</ele>
        <time>2019-06-21T15:43:24Z</time>
      </trkpt>
      <trkpt lat="42.2725340" lon="-8.6102180">
        <ele>48.8</ele>
        <time>2019-06-21T15:43:25Z</time>
      </trkpt>
      <trkpt lat="42.2727780" lon="-8.6102220">
        <ele>48.0</ele>
        <time>2019-06-21T15:43:29Z</time>
      </trkpt>
      <trkpt lat="42.2730310" lon="-8.6102320">
        <ele>47.4</ele>
        <time>2019-06-21T15:43:33Z</time>
      </trkpt>
      <trkpt lat="42.2732810" lon="-8.6102330">
        <ele>46.8</ele>
        <time>2019-06-21T15:43:37Z</time>
      </trkpt>
      <trkpt lat="42.2733980" lon="-8.6102330">
        <ele>46.4</ele>
        <time>2019-06-21T15:43:39Z</time>
      </trkpt>
      <trkpt lat="42.2735790" lon="-8.6102290">
        <ele>46.0</ele>
        <time>2019-06-21T15:43:42Z</time>
      </trkpt>
      <trkpt lat="42.2737620" lon="-8.6102240">
        <ele>45.4</ele>
        <time>2019-06-21T15:43:45Z</time>
      </trkpt>
      <trkpt lat="42.2738850" lon="-8.6102290">
        <ele>45.2</ele>
        <time>2019-06-21T15:43:47Z</time>
      </trkpt>
      <trkpt lat="42.2742690" lon="-8.6102280">
        <ele>44.4</ele>
        <time>2019-06-21T15:43:53Z</time>
      </trkpt>
      <trkpt lat="42.2743360" lon="-8.6102280">
        <ele>44.2</ele>
        <time>2019-06-21T15:43:54Z</time>
      </trkpt>
      <trkpt lat="42.2745960" lon="-8.6102240">
        <ele>44.0</ele>
        <time>2019-06-21T15:43:58Z</time>
      </trkpt>
      <trkpt lat="42.2748530" lon="-8.6102160">
        <ele>43.6</ele>
        <time>2019-06-21T15:44:02Z</time>
      </trkpt>
      <trkpt lat="42.2749710" lon="-8.6102130">
        <ele>43.4</ele>
        <time>2019-06-21T15:44:04Z</time>
      </trkpt>
      <trkpt lat="42.2752260" lon="-8.6102180">
        <ele>42.8</ele>
        <time>2019-06-21T15:44:08Z</time>
      </trkpt>
      <trkpt lat="42.2754130" lon="-8.6102210">
        <ele>42.4</ele>
        <time>2019-06-21T15:44:11Z</time>
      </trkpt>
      <trkpt lat="42.2757160" lon="-8.6102210">
        <ele>42.0</ele>
        <time>2019-06-21T15:44:16Z</time>
      </trkpt>
      <trkpt lat="42.2761170" lon="-8.6102260">
        <ele>41.4</ele>
        <time>2019-06-21T15:44:23Z</time>
      </trkpt>
      <trkpt lat="42.2762870" lon="-8.6102230">
        <ele>41.4</ele>
        <time>2019-06-21T15:44:26Z</time>
      </trkpt>
      <trkpt lat="42.2763460" lon="-8.6102220">
        <ele>41.2</ele>
        <time>2019-06-21T15:44:27Z</time>
      </trkpt>
      <trkpt lat="42.2765200" lon="-8.6102150">
        <ele>40.6</ele>
        <time>2019-06-21T15:44:30Z</time>
      </trkpt>
      <trkpt lat="42.2768440" lon="-8.6102800">
        <ele>40.2</ele>
        <time>2019-06-21T15:44:36Z</time>
      </trkpt>
      <trkpt lat="42.2768980" lon="-8.6102990">
        <ele>40.2</ele>
        <time>2019-06-21T15:44:37Z</time>
      </trkpt>
      <trkpt lat="42.2769580" lon="-8.6103120">
        <ele>40.0</ele>
        <time>2019-06-21T15:44:38Z</time>
      </trkpt>
      <trkpt lat="42.2770840" lon="-8.6103020">
        <ele>39.8</ele>
        <time>2019-06-21T15:44:40Z</time>
      </trkpt>
      <trkpt lat="42.2772070" lon="-8.6102570">
        <ele>39.6</ele>
        <time>2019-06-21T15:44:42Z</time>
      </trkpt>
      <trkpt lat="42.2772700" lon="-8.6102450">
        <ele>39.4</ele>
        <time>2019-06-21T15:44:43Z</time>
      </trkpt>
      <trkpt lat="42.2773970" lon="-8.6102360">
        <ele>39.2</ele>
        <time>2019-06-21T15:44:45Z</time>
      </trkpt>
      <trkpt lat="42.2774610" lon="-8.6102290">
        <ele>39.0</ele>
        <time>2019-06-21T15:44:46Z</time>
      </trkpt>
      <trkpt lat="42.2777130" lon="-8.6101740">
        <ele>38.6</ele>
        <time>2019-06-21T15:44:50Z</time>
      </trkpt>
      <trkpt lat="42.2777750" lon="-8.6101540">
        <ele>38.6</ele>
        <time>2019-06-21T15:44:51Z</time>
      </trkpt>
      <trkpt lat="42.2780330" lon="-8.6100700">
        <ele>38.2</ele>
        <time>2019-06-21T15:44:55Z</time>
      </trkpt>
      <trkpt lat="42.2781660" lon="-8.6100250">
        <ele>38.0</ele>
        <time>2019-06-21T15:44:57Z</time>
      </trkpt>
      <trkpt lat="42.2782990" lon="-8.6099860">
        <ele>37.6</ele>
        <time>2019-06-21T15:44:59Z</time>
      </trkpt>
      <trkpt lat="42.2784990" lon="-8.6099660">
        <ele>37.2</ele>
        <time>2019-06-21T15:45:02Z</time>
      </trkpt>
      <trkpt lat="42.2786320" lon="-8.6100120">
        <ele>37.0</ele>
        <time>2019-06-21T15:45:04Z</time>
      </trkpt>
      <trkpt lat="42.2786910" lon="-8.6100500">
        <ele>36.8</ele>
        <time>2019-06-21T15:45:05Z</time>
      </trkpt>
      <trkpt lat="42.2788360" lon="-8.6102060">
        <ele>36.0</ele>
        <time>2019-06-21T15:45:08Z</time>
      </trkpt>
      <trkpt lat="42.2788800" lon="-8.6102530">
        <ele>35.8</ele>
        <time>2019-06-21T15:45:09Z</time>
      </trkpt>
      <trkpt lat="42.2789210" lon="-8.6102970">
        <ele>35.6</ele>
        <time>2019-06-21T15:45:10Z</time>
      </trkpt>
      <trkpt lat="42.2789840" lon="-8.6103640">
        <ele>35.6</ele>
        <time>2019-06-21T15:45:12Z</time>
      </trkpt>
      <trkpt lat="42.2790570" lon="-8.6104270">
        <ele>35.2</ele>
        <time>2019-06-21T15:45:15Z</time>
      </trkpt>
      <trkpt lat="42.2791040" lon="-8.6104530">
        <ele>35.0</ele>
        <time>2019-06-21T15:45:17Z</time>
      </trkpt>
      <trkpt lat="42.2791250" lon="-8.6104650">
        <ele>35.0</ele>
        <time>2019-06-21T15:45:18Z</time>
      </trkpt>
      <trkpt lat="42.2791870" lon="-8.6104650">
        <ele>34.6</ele>
        <time>2019-06-21T15:45:21Z</time>
      </trkpt>
      <trkpt lat="42.2792330" lon="-8.6104650">
        <ele>34.2</ele>
        <time>2019-06-21T15:45:23Z</time>
      </trkpt>
      <trkpt lat="42.2792890" lon="-8.6104800">
        <ele>34.0</ele>
        <time>2019-06-21T15:45:25Z</time>
      </trkpt>
      <trkpt lat="42.2793880" lon="-8.6104940">
        <ele>34.2</ele>
        <time>2019-06-21T15:45:28Z</time>
      </trkpt>
      <trkpt lat="42.2796430" lon="-8.6105090">
        <ele>33.8</ele>
        <time>2019-06-21T15:45:35Z</time>
      </trkpt>
      <trkpt lat="42.2797390" lon="-8.6105080">
        <ele>34.0</ele>
        <time>2019-06-21T15:45:38Z</time>
      </trkpt>
      <trkpt lat="42.2798280" lon="-8.6104970">
        <ele>34.0</ele>
        <time>2019-06-21T15:45:41Z</time>
      </trkpt>
      <trkpt lat="42.2800350" lon="-8.6104660">
        <ele>34.0</ele>
        <time>2019-06-21T15:45:47Z</time>
      </trkpt>
      <trkpt lat="42.2800790" lon="-8.6104550">
        <ele>33.8</ele>
        <time>2019-06-21T15:45:48Z</time>
      </trkpt>
      <trkpt lat="42.2801260" lon="-8.6104380">
        <ele>34.0</ele>
        <time>2019-06-21T15:45:49Z</time>
      </trkpt>
      <trkpt lat="42.2803670" lon="-8.6103590">
        <ele>33.8</ele>
        <time>2019-06-21T15:45:54Z</time>
      </trkpt>
      <trkpt lat="42.2805760" lon="-8.6102220">
        <ele>34.0</ele>
        <time>2019-06-21T15:45:59Z</time>
      </trkpt>
      <trkpt lat="42.2806920" lon="-8.6100140">
        <ele>33.8</ele>
        <time>2019-06-21T15:46:04Z</time>
      </trkpt>
      <trkpt lat="42.2807560" lon="-8.6098750">
        <ele>34.2</ele>
        <time>2019-06-21T15:46:08Z</time>
      </trkpt>
      <trkpt lat="42.2807920" lon="-8.6097940">
        <ele>34.4</ele>
        <time>2019-06-21T15:46:10Z</time>
      </trkpt>
      <trkpt lat="42.2809610" lon="-8.6095940">
        <ele>34.8</ele>
        <time>2019-06-21T15:46:16Z</time>
      </trkpt>
      <trkpt lat="42.2811520" lon="-8.6094020">
        <ele>34.6</ele>
        <time>2019-06-21T15:46:22Z</time>
      </trkpt>
      <trkpt lat="42.2813070" lon="-8.6092610">
        <ele>34.4</ele>
        <time>2019-06-21T15:46:27Z</time>
      </trkpt>
      <trkpt lat="42.2814690" lon="-8.6090930">
        <ele>34.2</ele>
        <time>2019-06-21T15:46:33Z</time>
      </trkpt>
      <trkpt lat="42.2814950" lon="-8.6090690">
        <ele>34.2</ele>
        <time>2019-06-21T15:46:34Z</time>
      </trkpt>
      <trkpt lat="42.2816500" lon="-8.6089750">
        <ele>34.4</ele>
        <time>2019-06-21T15:46:41Z</time>
      </trkpt>
      <trkpt lat="42.2818010" lon="-8.6089440">
        <ele>34.0</ele>
        <time>2019-06-21T15:46:46Z</time>
      </trkpt>
      <trkpt lat="42.2818140" lon="-8.6089470">
        <ele>34.0</ele>
        <time>2019-06-21T15:46:47Z</time>
      </trkpt>
      <trkpt lat="42.2818830" lon="-8.6089290">
        <ele>34.0</ele>
        <time>2019-06-21T15:46:51Z</time>
      </trkpt>
      <trkpt lat="42.2819390" lon="-8.6089280">
        <ele>34.4</ele>
        <time>2019-06-21T15:46:54Z</time>
      </trkpt>
      <trkpt lat="42.2819600" lon="-8.6089240">
        <ele>34.6</ele>
        <time>2019-06-21T15:46:55Z</time>
      </trkpt>
      <trkpt lat="42.2820810" lon="-8.6088800">
        <ele>34.0</ele>
        <time>2019-06-21T15:47:00Z</time>
      </trkpt>
      <trkpt lat="42.2822140" lon="-8.6087090">
        <ele>34.2</ele>
        <time>2019-06-21T15:47:06Z</time>
      </trkpt>
      <trkpt lat="42.2822960" lon="-8.6085960">
        <ele>34.4</ele>
        <time>2019-06-21T15:47:11Z</time>
      </trkpt>
      <trkpt lat="42.2823490" lon="-8.6085310">
        <ele>34.8</ele>
        <time>2019-06-21T15:47:14Z</time>
      </trkpt>
      <trkpt lat="42.2823690" lon="-8.6085150">
        <ele>35.0</ele>
        <time>2019-06-21T15:47:15Z</time>
      </trkpt>
      <trkpt lat="42.2823870" lon="-8.6085040">
        <ele>35.4</ele>
        <time>2019-06-21T15:47:16Z</time>
      </trkpt>
      <trkpt lat="42.2824010" lon="-8.6084970">
        <ele>35.6</ele>
        <time>2019-06-21T15:47:17Z</time>
      </trkpt>
      <trkpt lat="42.2826840" lon="-8.6083060">
        <ele>39.0</ele>
        <time>2019-06-21T15:47:32Z</time>
      </trkpt>
      <trkpt lat="42.2827370" lon="-8.6082420">
        <ele>39.6</ele>
        <time>2019-06-21T15:47:35Z</time>
      </trkpt>
      <trkpt lat="42.2827890" lon="-8.6082300">
        <ele>40.0</ele>
        <time>2019-06-21T15:47:38Z</time>
      </trkpt>
      <trkpt lat="42.2828630" lon="-8.6082160">
        <ele>40.0</ele>
        <time>2019-06-21T15:47:41Z</time>
      </trkpt>
      <trkpt lat="42.2829430" lon="-8.6081920">
        <ele>40.0</ele>
        <time>2019-06-21T15:47:44Z</time>
      </trkpt>
      <trkpt lat="42.2831190" lon="-8.6081540">
        <ele>40.4</ele>
        <time>2019-06-21T15:47:51Z</time>
      </trkpt>
      <trkpt lat="42.2832650" lon="-8.6080920">
        <ele>40.8</ele>
        <time>2019-06-21T15:47:56Z</time>
      </trkpt>
      <trkpt lat="42.2833990" lon="-8.6080120">
        <ele>40.4</ele>
        <time>2019-06-21T15:48:02Z</time>
      </trkpt>
      <trkpt lat="42.2835430" lon="-8.6078830">
        <ele>38.8</ele>
        <time>2019-06-21T15:48:08Z</time>
      </trkpt>
      <trkpt lat="42.2836010" lon="-8.6078480">
        <ele>37.4</ele>
        <time>2019-06-21T15:48:10Z</time>
      </trkpt>
      <trkpt lat="42.2836670" lon="-8.6078080">
        <ele>36.4</ele>
        <time>2019-06-21T15:48:13Z</time>
      </trkpt>
      <trkpt lat="42.2836830" lon="-8.6077970">
        <ele>36.2</ele>
        <time>2019-06-21T15:48:14Z</time>
      </trkpt>
      <trkpt lat="42.2837630" lon="-8.6077700">
        <ele>35.8</ele>
        <time>2019-06-21T15:48:17Z</time>
      </trkpt>
      <trkpt lat="42.2838160" lon="-8.6077610">
        <ele>36.2</ele>
        <time>2019-06-21T15:48:19Z</time>
      </trkpt>
      <trkpt lat="42.2839300" lon="-8.6077720">
        <ele>37.4</ele>
        <time>2019-06-21T15:48:23Z</time>
      </trkpt>
      <trkpt lat="42.2839850" lon="-8.6077920">
        <ele>37.8</ele>
        <time>2019-06-21T15:48:25Z</time>
      </trkpt>
      <trkpt lat="42.2840490" lon="-8.6078130">
        <ele>38.6</ele>
        <time>2019-06-21T15:48:28Z</time>
      </trkpt>
      <trkpt lat="42.2840930" lon="-8.6078280">
        <ele>39.0</ele>
        <time>2019-06-21T15:48:30Z</time>
      </trkpt>
      <trkpt lat="42.2841670" lon="-8.6078610">
        <ele>39.8</ele>
        <time>2019-06-21T15:48:34Z</time>
      </trkpt>
      <trkpt lat="42.2841980" lon="-8.6078790">
        <ele>40.4</ele>
        <time>2019-06-21T15:48:36Z</time>
      </trkpt>
      <trkpt lat="42.2842480" lon="-8.6078840">
        <ele>40.8</ele>
        <time>2019-06-21T15:48:39Z</time>
      </trkpt>
      <trkpt lat="42.2843090" lon="-8.6078870">
        <ele>41.8</ele>
        <time>2019-06-21T15:48:43Z</time>
      </trkpt>
      <trkpt lat="42.2843220" lon="-8.6078900">
        <ele>42.0</ele>
        <time>2019-06-21T15:48:44Z</time>
      </trkpt>
      <trkpt lat="42.2843880" lon="-8.6078760">
        <ele>43.0</ele>
        <time>2019-06-21T15:48:49Z</time>
      </trkpt>
      <trkpt lat="42.2844050" lon="-8.6078750">
        <ele>43.2</ele>
        <time>2019-06-21T15:48:50Z</time>
      </trkpt>
      <trkpt lat="42.2844250" lon="-8.6078770">
        <ele>43.4</ele>
        <time>2019-06-21T15:48:51Z</time>
      </trkpt>
      <trkpt lat="42.2844960" lon="-8.6078860">
        <ele>44.4</ele>
        <time>2019-06-21T15:48:55Z</time>
      </trkpt>
      <trkpt lat="42.2845580" lon="-8.6078690">
        <ele>44.8</ele>
        <time>2019-06-21T15:48:58Z</time>
      </trkpt>
      <trkpt lat="42.2845910" lon="-8.6078470">
        <ele>45.4</ele>
        <time>2019-06-21T15:49:00Z</time>
      </trkpt>
      <trkpt lat="42.2846910" lon="-8.6078310">
        <ele>46.2</ele>
        <time>2019-06-21T15:49:05Z</time>
      </trkpt>
      <trkpt lat="42.2847090" lon="-8.6078340">
        <ele>46.4</ele>
        <time>2019-06-21T15:49:06Z</time>
      </trkpt>
      <trkpt lat="42.2847950" lon="-8.6078210">
        <ele>46.6</ele>
        <time>2019-06-21T15:49:10Z</time>
      </trkpt>
      <trkpt lat="42.2849830" lon="-8.6077860">
        <ele>46.6</ele>
        <time>2019-06-21T15:49:17Z</time>
      </trkpt>
      <trkpt lat="42.2851490" lon="-8.6077120">
        <ele>46.6</ele>
        <time>2019-06-21T15:49:23Z</time>
      </trkpt>
      <trkpt lat="42.2853070" lon="-8.6076490">
        <ele>47.2</ele>
        <time>2019-06-21T15:49:29Z</time>
      </trkpt>
      <trkpt lat="42.2853580" lon="-8.6076450">
        <ele>47.8</ele>
        <time>2019-06-21T15:49:31Z</time>
      </trkpt>
      <trkpt lat="42.2855180" lon="-8.6076530">
        <ele>48.8</ele>
        <time>2019-06-21T15:49:37Z</time>
      </trkpt>
      <trkpt lat="42.2856990" lon="-8.6076770">
        <ele>49.8</ele>
        <time>2019-06-21T15:49:44Z</time>
      </trkpt>
      <trkpt lat="42.2857300" lon="-8.6076810">
        <ele>49.8</ele>
        <time>2019-06-21T15:49:45Z</time>
      </trkpt>
      <trkpt lat="42.2859160" lon="-8.6077080">
        <ele>51.0</ele>
        <time>2019-06-21T15:49:52Z</time>
      </trkpt>
      <trkpt lat="42.2860860" lon="-8.6077600">
        <ele>51.4</ele>
        <time>2019-06-21T15:49:59Z</time>
      </trkpt>
      <trkpt lat="42.2861800" lon="-8.6077860">
        <ele>52.0</ele>
        <time>2019-06-21T15:50:03Z</time>
      </trkpt>
      <trkpt lat="42.2862270" lon="-8.6078170">
        <ele>52.0</ele>
        <time>2019-06-21T15:50:05Z</time>
      </trkpt>
      <trkpt lat="42.2864200" lon="-8.6079710">
        <ele>51.4</ele>
        <time>2019-06-21T15:50:10Z</time>
      </trkpt>
      <trkpt lat="42.2865770" lon="-8.6080400">
        <ele>51.0</ele>
        <time>2019-06-21T15:50:13Z</time>
      </trkpt>
      <trkpt lat="42.2867220" lon="-8.6080840">
        <ele>51.0</ele>
        <time>2019-06-21T15:50:16Z</time>
      </trkpt>
      <trkpt lat="42.2869130" lon="-8.6081330">
        <ele>50.2</ele>
        <time>2019-06-21T15:50:20Z</time>
      </trkpt>
      <trkpt lat="42.2869650" lon="-8.6081400">
        <ele>49.8</ele>
        <time>2019-06-21T15:50:21Z</time>
      </trkpt>
      <trkpt lat="42.2870700" lon="-8.6081610">
        <ele>49.2</ele>
        <time>2019-06-21T15:50:23Z</time>
      </trkpt>
      <trkpt lat="42.2871170" lon="-8.6081850">
        <ele>48.6</ele>
        <time>2019-06-21T15:50:24Z</time>
      </trkpt>
      <trkpt lat="42.2872150" lon="-8.6082400">
        <ele>47.2</ele>
        <time>2019-06-21T15:50:26Z</time>
      </trkpt>
      <trkpt lat="42.2872640" lon="-8.6082810">
        <ele>46.4</ele>
        <time>2019-06-21T15:50:27Z</time>
      </trkpt>
      <trkpt lat="42.2873090" lon="-8.6083210">
        <ele>45.8</ele>
        <time>2019-06-21T15:50:28Z</time>
      </trkpt>
      <trkpt lat="42.2873970" lon="-8.6084000">
        <ele>44.4</ele>
        <time>2019-06-21T15:50:30Z</time>
      </trkpt>
      <trkpt lat="42.2874360" lon="-8.6084300">
        <ele>43.2</ele>
        <time>2019-06-21T15:50:31Z</time>
      </trkpt>
      <trkpt lat="42.2874780" lon="-8.6084520">
        <ele>42.4</ele>
        <time>2019-06-21T15:50:32Z</time>
      </trkpt>
      <trkpt lat="42.2875240" lon="-8.6084690">
        <ele>41.4</ele>
        <time>2019-06-21T15:50:33Z</time>
      </trkpt>
      <trkpt lat="42.2875770" lon="-8.6084790">
        <ele>39.4</ele>
        <time>2019-06-21T15:50:34Z</time>
      </trkpt>
      <trkpt lat="42.2876840" lon="-8.6084620">
        <ele>37.6</ele>
        <time>2019-06-21T15:50:36Z</time>
      </trkpt>
      <trkpt lat="42.2877960" lon="-8.6084180">
        <ele>36.4</ele>
        <time>2019-06-21T15:50:38Z</time>
      </trkpt>
      <trkpt lat="42.2879110" lon="-8.6084300">
        <ele>35.8</ele>
        <time>2019-06-21T15:50:40Z</time>
      </trkpt>
      <trkpt lat="42.2879440" lon="-8.6084520">
        <ele>35.4</ele>
        <time>2019-06-21T15:50:41Z</time>
      </trkpt>
      <trkpt lat="42.2879700" lon="-8.6084780">
        <ele>35.2</ele>
        <time>2019-06-21T15:50:42Z</time>
      </trkpt>
      <trkpt lat="42.2879900" lon="-8.6085030">
        <ele>35.0</ele>
        <time>2019-06-21T15:50:43Z</time>
      </trkpt>
      <trkpt lat="42.2880540" lon="-8.6086070">
        <ele>34.8</ele>
        <time>2019-06-21T15:50:49Z</time>
      </trkpt>
      <trkpt lat="42.2880820" lon="-8.6086340">
        <ele>34.8</ele>
        <time>2019-06-21T15:50:51Z</time>
      </trkpt>
      <trkpt lat="42.2881530" lon="-8.6086480">
        <ele>35.0</ele>
        <time>2019-06-21T15:50:54Z</time>
      </trkpt>
      <trkpt lat="42.2882100" lon="-8.6086730">
        <ele>34.8</ele>
        <time>2019-06-21T15:50:59Z</time>
      </trkpt>
      <trkpt lat="42.2882890" lon="-8.6087060">
        <ele>35.0</ele>
        <time>2019-06-21T15:51:04Z</time>
      </trkpt>
      <trkpt lat="42.2883470" lon="-8.6086890">
        <ele>35.2</ele>
        <time>2019-06-21T15:51:06Z</time>
      </trkpt>
      <trkpt lat="42.2884940" lon="-8.6087020">
        <ele>35.6</ele>
        <time>2019-06-21T15:51:10Z</time>
      </trkpt>
      <trkpt lat="42.2886200" lon="-8.6086950">
        <ele>36.2</ele>
        <time>2019-06-21T15:51:14Z</time>
      </trkpt>
      <trkpt lat="42.2887410" lon="-8.6086600">
        <ele>36.2</ele>
        <time>2019-06-21T15:51:18Z</time>
      </trkpt>
      <trkpt lat="42.2888180" lon="-8.6086510">
        <ele>36.2</ele>
        <time>2019-06-21T15:51:20Z</time>
      </trkpt>
      <trkpt lat="42.2889000" lon="-8.6086350">
        <ele>36.2</ele>
        <time>2019-06-21T15:51:22Z</time>
      </trkpt>
      <trkpt lat="42.2890580" lon="-8.6085880">
        <ele>36.0</ele>
        <time>2019-06-21T15:51:26Z</time>
      </trkpt>
      <trkpt lat="42.2893500" lon="-8.6085290">
        <ele>36.4</ele>
        <time>2019-06-21T15:51:33Z</time>
      </trkpt>
      <trkpt lat="42.2895970" lon="-8.6084860">
        <ele>36.4</ele>
        <time>2019-06-21T15:51:39Z</time>
      </trkpt>
      <trkpt lat="42.2897820" lon="-8.6084510">
        <ele>36.8</ele>
        <time>2019-06-21T15:51:44Z</time>
      </trkpt>
      <trkpt lat="42.2900260" lon="-8.6084280">
        <ele>37.2</ele>
        <time>2019-06-21T15:51:51Z</time>
      </trkpt>
      <trkpt lat="42.2900610" lon="-8.6084210">
        <ele>37.2</ele>
        <time>2019-06-21T15:51:52Z</time>
      </trkpt>
      <trkpt lat="42.2902630" lon="-8.6083800">
        <ele>37.6</ele>
        <time>2019-06-21T15:51:58Z</time>
      </trkpt>
      <trkpt lat="42.2904340" lon="-8.6083380">
        <ele>38.2</ele>
        <time>2019-06-21T15:52:02Z</time>
      </trkpt>
      <trkpt lat="42.2905720" lon="-8.6082900">
        <ele>37.6</ele>
        <time>2019-06-21T15:52:05Z</time>
      </trkpt>
      <trkpt lat="42.2906680" lon="-8.6082530">
        <ele>37.2</ele>
        <time>2019-06-21T15:52:07Z</time>
      </trkpt>
      <trkpt lat="42.2909890" lon="-8.6081380">
        <ele>37.2</ele>
        <time>2019-06-21T15:52:13Z</time>
      </trkpt>
      <trkpt lat="42.2914640" lon="-8.6079740">
        <ele>36.6</ele>
        <time>2019-06-21T15:52:21Z</time>
      </trkpt>
      <trkpt lat="42.2918120" lon="-8.6078990">
        <ele>36.2</ele>
        <time>2019-06-21T15:52:27Z</time>
      </trkpt>
      <trkpt lat="42.2919900" lon="-8.6078690">
        <ele>35.6</ele>
        <time>2019-06-21T15:52:30Z</time>
      </trkpt>
      <trkpt lat="42.2924400" lon="-8.6077480">
        <ele>35.2</ele>
        <time>2019-06-21T15:52:37Z</time>
      </trkpt>
      <trkpt lat="42.2925050" lon="-8.6077310">
        <ele>35.0</ele>
        <time>2019-06-21T15:52:38Z</time>
      </trkpt>
      <trkpt lat="42.2930100" lon="-8.6075830">
        <ele>34.2</ele>
        <time>2019-06-21T15:52:46Z</time>
      </trkpt>
      <trkpt lat="42.2930710" lon="-8.6075650">
        <ele>34.0</ele>
        <time>2019-06-21T15:52:47Z</time>
      </trkpt>
      <trkpt lat="42.2933590" lon="-8.6074530">
        <ele>33.6</ele>
        <time>2019-06-21T15:52:52Z</time>
      </trkpt>
      <trkpt lat="42.2934150" lon="-8.6074220">
        <ele>33.8</ele>
        <time>2019-06-21T15:52:53Z</time>
      </trkpt>
      <trkpt lat="42.2936000" lon="-8.6073500">
        <ele>33.8</ele>
        <time>2019-06-21T15:52:56Z</time>
      </trkpt>
      <trkpt lat="42.2937260" lon="-8.6073530">
        <ele>33.8</ele>
        <time>2019-06-21T15:52:58Z</time>
      </trkpt>
      <trkpt lat="42.2939460" lon="-8.6074590">
        <ele>34.6</ele>
        <time>2019-06-21T15:53:02Z</time>
      </trkpt>
      <trkpt lat="42.2940460" lon="-8.6076020">
        <ele>35.0</ele>
        <time>2019-06-21T15:53:05Z</time>
      </trkpt>
      <trkpt lat="42.2940680" lon="-8.6076420">
        <ele>35.2</ele>
        <time>2019-06-21T15:53:06Z</time>
      </trkpt>
      <trkpt lat="42.2941190" lon="-8.6077620">
        <ele>36.0</ele>
        <time>2019-06-21T15:53:10Z</time>
      </trkpt>
      <trkpt lat="42.2941310" lon="-8.6077940">
        <ele>36.2</ele>
        <time>2019-06-21T15:53:11Z</time>
      </trkpt>
      <trkpt lat="42.2941890" lon="-8.6079200">
        <ele>37.4</ele>
        <time>2019-06-21T15:53:15Z</time>
      </trkpt>
      <trkpt lat="42.2942430" lon="-8.6080450">
        <ele>38.6</ele>
        <time>2019-06-21T15:53:19Z</time>
      </trkpt>
      <trkpt lat="42.2943050" lon="-8.6081610">
        <ele>39.4</ele>
        <time>2019-06-21T15:53:23Z</time>
      </trkpt>
      <trkpt lat="42.2943200" lon="-8.6081930">
        <ele>39.6</ele>
        <time>2019-06-21T15:53:24Z</time>
      </trkpt>
      <trkpt lat="42.2943630" lon="-8.6082740">
        <ele>40.4</ele>
        <time>2019-06-21T15:53:27Z</time>
      </trkpt>
      <trkpt lat="42.2943830" lon="-8.6082990">
        <ele>40.8</ele>
        <time>2019-06-21T15:53:28Z</time>
      </trkpt>
      <trkpt lat="42.2944340" lon="-8.6083810">
        <ele>41.4</ele>
        <time>2019-06-21T15:53:31Z</time>
      </trkpt>
      <trkpt lat="42.2944630" lon="-8.6084340">
        <ele>42.0</ele>
        <time>2019-06-21T15:53:33Z</time>
      </trkpt>
      <trkpt lat="42.2944940" lon="-8.6084860">
        <ele>42.6</ele>
        <time>2019-06-21T15:53:35Z</time>
      </trkpt>
      <trkpt lat="42.2945410" lon="-8.6085570">
        <ele>43.2</ele>
        <time>2019-06-21T15:53:38Z</time>
      </trkpt>
      <trkpt lat="42.2945710" lon="-8.6086070">
        <ele>43.6</ele>
        <time>2019-06-21T15:53:40Z</time>
      </trkpt>
      <trkpt lat="42.2945990" lon="-8.6086510">
        <ele>44.4</ele>
        <time>2019-06-21T15:53:42Z</time>
      </trkpt>
      <trkpt lat="42.2946220" lon="-8.6086950">
        <ele>44.8</ele>
        <time>2019-06-21T15:53:44Z</time>
      </trkpt>
      <trkpt lat="42.2946610" lon="-8.6087670">
        <ele>45.6</ele>
        <time>2019-06-21T15:53:47Z</time>
      </trkpt>
      <trkpt lat="42.2947400" lon="-8.6088800">
        <ele>46.6</ele>
        <time>2019-06-21T15:53:52Z</time>
      </trkpt>
      <trkpt lat="42.2947570" lon="-8.6089010">
        <ele>46.8</ele>
        <time>2019-06-21T15:53:53Z</time>
      </trkpt>
      <trkpt lat="42.2948530" lon="-8.6089970">
        <ele>47.4</ele>
        <time>2019-06-21T15:53:58Z</time>
      </trkpt>
      <trkpt lat="42.2949020" lon="-8.6090290">
        <ele>47.6</ele>
        <time>2019-06-21T15:54:00Z</time>
      </trkpt>
      <trkpt lat="42.2949640" lon="-8.6090900">
        <ele>48.0</ele>
        <time>2019-06-21T15:54:03Z</time>
      </trkpt>
      <trkpt lat="42.2950320" lon="-8.6091610">
        <ele>48.4</ele>
        <time>2019-06-21T15:54:06Z</time>
      </trkpt>
      <trkpt lat="42.2952090" lon="-8.6093340">
        <ele>48.8</ele>
        <time>2019-06-21T15:54:13Z</time>
      </trkpt>
      <trkpt lat="42.2953670" lon="-8.6094610">
        <ele>49.0</ele>
        <time>2019-06-21T15:54:19Z</time>
      </trkpt>
      <trkpt lat="42.2953940" lon="-8.6094790">
        <ele>49.2</ele>
        <time>2019-06-21T15:54:20Z</time>
      </trkpt>
      <trkpt lat="42.2955880" lon="-8.6096490">
        <ele>49.8</ele>
        <time>2019-06-21T15:54:28Z</time>
      </trkpt>
      <trkpt lat="42.2956290" lon="-8.6096930">
        <ele>50.2</ele>
        <time>2019-06-21T15:54:30Z</time>
      </trkpt>
      <trkpt lat="42.2957340" lon="-8.6098110">
        <ele>51.2</ele>
        <time>2019-06-21T15:54:35Z</time>
      </trkpt>
      <trkpt lat="42.2957530" lon="-8.6098360">
        <ele>51.4</ele>
        <time>2019-06-21T15:54:36Z</time>
      </trkpt>
      <trkpt lat="42.2959000" lon="-8.6100060">
        <ele>52.2</ele>
        <time>2019-06-21T15:54:43Z</time>
      </trkpt>
      <trkpt lat="42.2959750" lon="-8.6100860">
        <ele>52.2</ele>
        <time>2019-06-21T15:54:46Z</time>
      </trkpt>
      <trkpt lat="42.2961250" lon="-8.6102110">
        <ele>52.4</ele>
        <time>2019-06-21T15:54:51Z</time>
      </trkpt>
      <trkpt lat="42.2963060" lon="-8.6102720">
        <ele>52.0</ele>
        <time>2019-06-21T15:54:56Z</time>
      </trkpt>
      <trkpt lat="42.2964240" lon="-8.6102380">
        <ele>51.4</ele>
        <time>2019-06-21T15:54:59Z</time>
      </trkpt>
      <trkpt lat="42.2964700" lon="-8.6102200">
        <ele>51.2</ele>
        <time>2019-06-21T15:55:00Z</time>
      </trkpt>
      <trkpt lat="42.2965190" lon="-8.6102050">
        <ele>51.0</ele>
        <time>2019-06-21T15:55:01Z</time>
      </trkpt>
      <trkpt lat="42.2966230" lon="-8.6101890">
        <ele>50.8</ele>
        <time>2019-06-21T15:55:03Z</time>
      </trkpt>
      <trkpt lat="42.2968230" lon="-8.6101790">
        <ele>51.6</ele>
        <time>2019-06-21T15:55:07Z</time>
      </trkpt>
      <trkpt lat="42.2970030" lon="-8.6101710">
        <ele>52.4</ele>
        <time>2019-06-21T15:55:11Z</time>
      </trkpt>
      <trkpt lat="42.2971500" lon="-8.6101360">
        <ele>51.8</ele>
        <time>2019-06-21T15:55:14Z</time>
      </trkpt>
      <trkpt lat="42.2972600" lon="-8.6100980">
        <ele>51.2</ele>
        <time>2019-06-21T15:55:16Z</time>
      </trkpt>
      <trkpt lat="42.2975010" lon="-8.6100080">
        <ele>51.0</ele>
        <time>2019-06-21T15:55:20Z</time>
      </trkpt>
      <trkpt lat="42.2976830" lon="-8.6099450">
        <ele>50.2</ele>
        <time>2019-06-21T15:55:23Z</time>
      </trkpt>
      <trkpt lat="42.2979330" lon="-8.6098340">
        <ele>49.4</ele>
        <time>2019-06-21T15:55:27Z</time>
      </trkpt>
      <trkpt lat="42.2981190" lon="-8.6097410">
        <ele>49.2</ele>
        <time>2019-06-21T15:55:30Z</time>
      </trkpt>
      <trkpt lat="42.2983050" lon="-8.6096460">
        <ele>48.8</ele>
        <time>2019-06-21T15:55:33Z</time>
      </trkpt>
      <trkpt lat="42.2985010" lon="-8.6095800">
        <ele>48.4</ele>
        <time>2019-06-21T15:55:36Z</time>
      </trkpt>
      <trkpt lat="42.2985660" lon="-8.6095630">
        <ele>48.2</ele>
        <time>2019-06-21T15:55:37Z</time>
      </trkpt>
      <trkpt lat="42.2986290" lon="-8.6095530">
        <ele>48.0</ele>
        <time>2019-06-21T15:55:38Z</time>
      </trkpt>
      <trkpt lat="42.2988740" lon="-8.6095380">
        <ele>47.6</ele>
        <time>2019-06-21T15:55:42Z</time>
      </trkpt>
      <trkpt lat="42.2989320" lon="-8.6095410">
        <ele>47.4</ele>
        <time>2019-06-21T15:55:43Z</time>
      </trkpt>
      <trkpt lat="42.2992300" lon="-8.6095550">
        <ele>47.2</ele>
        <time>2019-06-21T15:55:48Z</time>
      </trkpt>
      <trkpt lat="42.2992870" lon="-8.6095420">
        <ele>47.4</ele>
        <time>2019-06-21T15:55:49Z</time>
      </trkpt>
      <trkpt lat="42.2994780" lon="-8.6094840">
        <ele>48.0</ele>
        <time>2019-06-21T15:55:53Z</time>
      </trkpt>
      <trkpt lat="42.2995100" lon="-8.6094580">
        <ele>48.4</ele>
        <time>2019-06-21T15:55:54Z</time>
      </trkpt>
      <trkpt lat="42.2995580" lon="-8.6094060">
        <ele>49.0</ele>
        <time>2019-06-21T15:55:56Z</time>
      </trkpt>
      <trkpt lat="42.2995750" lon="-8.6093790">
        <ele>49.2</ele>
        <time>2019-06-21T15:55:57Z</time>
      </trkpt>
      <trkpt lat="42.2996000" lon="-8.6093320">
        <ele>50.0</ele>
        <time>2019-06-21T15:55:59Z</time>
      </trkpt>
      <trkpt lat="42.2996190" lon="-8.6092800">
        <ele>50.4</ele>
        <time>2019-06-21T15:56:01Z</time>
      </trkpt>
      <trkpt lat="42.2996610" lon="-8.6091600">
        <ele>51.0</ele>
        <time>2019-06-21T15:56:06Z</time>
      </trkpt>
      <trkpt lat="42.2996840" lon="-8.6091170">
        <ele>51.4</ele>
        <time>2019-06-21T15:56:08Z</time>
      </trkpt>
      <trkpt lat="42.2997440" lon="-8.6090260">
        <ele>52.6</ele>
        <time>2019-06-21T15:56:12Z</time>
      </trkpt>
      <trkpt lat="42.2998120" lon="-8.6089260">
        <ele>53.4</ele>
        <time>2019-06-21T15:56:16Z</time>
      </trkpt>
      <trkpt lat="42.2998610" lon="-8.6088970">
        <ele>53.6</ele>
        <time>2019-06-21T15:56:18Z</time>
      </trkpt>
      <trkpt lat="42.2999770" lon="-8.6088250">
        <ele>54.6</ele>
        <time>2019-06-21T15:56:23Z</time>
      </trkpt>
      <trkpt lat="42.3000120" lon="-8.6087970">
        <ele>55.2</ele>
        <time>2019-06-21T15:56:25Z</time>
      </trkpt>
      <trkpt lat="42.3000640" lon="-8.6087580">
        <ele>55.6</ele>
        <time>2019-06-21T15:56:28Z</time>
      </trkpt>
      <trkpt lat="42.3001230" lon="-8.6086990">
        <ele>56.8</ele>
        <time>2019-06-21T15:56:32Z</time>
      </trkpt>
      <trkpt lat="42.3001390" lon="-8.6086850">
        <ele>57.0</ele>
        <time>2019-06-21T15:56:33Z</time>
      </trkpt>
      <trkpt lat="42.3001670" lon="-8.6086590">
        <ele>58.0</ele>
        <time>2019-06-21T15:56:35Z</time>
      </trkpt>
      <trkpt lat="42.3002220" lon="-8.6085760">
        <ele>59.0</ele>
        <time>2019-06-21T15:56:40Z</time>
      </trkpt>
      <trkpt lat="42.3002320" lon="-8.6085580">
        <ele>59.4</ele>
        <time>2019-06-21T15:56:41Z</time>
      </trkpt>
      <trkpt lat="42.3002800" lon="-8.6084930">
        <ele>60.0</ele>
        <time>2019-06-21T15:56:45Z</time>
      </trkpt>
      <trkpt lat="42.3003090" lon="-8.6084170">
        <ele>60.8</ele>
        <time>2019-06-21T15:56:49Z</time>
      </trkpt>
      <trkpt lat="42.3003180" lon="-8.6083990">
        <ele>61.2</ele>
        <time>2019-06-21T15:56:50Z</time>
      </trkpt>
      <trkpt lat="42.3003550" lon="-8.6083090">
        <ele>62.4</ele>
        <time>2019-06-21T15:56:55Z</time>
      </trkpt>
      <trkpt lat="42.3003600" lon="-8.6082890">
        <ele>62.6</ele>
        <time>2019-06-21T15:56:56Z</time>
      </trkpt>
      <trkpt lat="42.3003780" lon="-8.6082360">
        <ele>63.6</ele>
        <time>2019-06-21T15:56:59Z</time>
      </trkpt>
      <trkpt lat="42.3004340" lon="-8.6081770">
        <ele>64.6</ele>
        <time>2019-06-21T15:57:04Z</time>
      </trkpt>
      <trkpt lat="42.3004760" lon="-8.6081380">
        <ele>65.4</ele>
        <time>2019-06-21T15:57:08Z</time>
      </trkpt>
      <trkpt lat="42.3004900" lon="-8.6081400">
        <ele>65.8</ele>
        <time>2019-06-21T15:57:09Z</time>
      </trkpt>
      <trkpt lat="42.3005040" lon="-8.6081460">
        <ele>66.0</ele>
        <time>2019-06-21T15:57:10Z</time>
      </trkpt>
      <trkpt lat="42.3006250" lon="-8.6082340">
        <ele>66.0</ele>
        <time>2019-06-21T15:57:16Z</time>
      </trkpt>
      <trkpt lat="42.3006630" lon="-8.6082790">
        <ele>65.6</ele>
        <time>2019-06-21T15:57:17Z</time>
      </trkpt>
      <trkpt lat="42.3007580" lon="-8.6083610">
        <ele>64.2</ele>
        <time>2019-06-21T15:57:19Z</time>
      </trkpt>
      <trkpt lat="42.3008080" lon="-8.6083790">
        <ele>63.2</ele>
        <time>2019-06-21T15:57:20Z</time>
      </trkpt>
      <trkpt lat="42.3009120" lon="-8.6083560">
        <ele>61.6</ele>
        <time>2019-06-21T15:57:22Z</time>
      </trkpt>
      <trkpt lat="42.3009570" lon="-8.6083260">
        <ele>60.4</ele>
        <time>2019-06-21T15:57:23Z</time>
      </trkpt>
      <trkpt lat="42.3009990" lon="-8.6082980">
        <ele>60.2</ele>
        <time>2019-06-21T15:57:24Z</time>
      </trkpt>
      <trkpt lat="42.3010410" lon="-8.6082770">
        <ele>60.2</ele>
        <time>2019-06-21T15:57:25Z</time>
      </trkpt>
      <trkpt lat="42.3010820" lon="-8.6082590">
        <ele>60.4</ele>
        <time>2019-06-21T15:57:26Z</time>
      </trkpt>
      <trkpt lat="42.3012770" lon="-8.6082450">
        <ele>60.4</ele>
        <time>2019-06-21T15:57:31Z</time>
      </trkpt>
      <trkpt lat="42.3014540" lon="-8.6082330">
        <ele>60.6</ele>
        <time>2019-06-21T15:57:35Z</time>
      </trkpt>
      <trkpt lat="42.3015390" lon="-8.6081880">
        <ele>60.6</ele>
        <time>2019-06-21T15:57:37Z</time>
      </trkpt>
      <trkpt lat="42.3016150" lon="-8.6081330">
        <ele>60.8</ele>
        <time>2019-06-21T15:57:39Z</time>
      </trkpt>
      <trkpt lat="42.3017130" lon="-8.6080630">
        <ele>61.4</ele>
        <time>2019-06-21T15:57:42Z</time>
      </trkpt>
      <trkpt lat="42.3017400" lon="-8.6080380">
        <ele>61.8</ele>
        <time>2019-06-21T15:57:43Z</time>
      </trkpt>
      <trkpt lat="42.3018470" lon="-8.6079510">
        <ele>62.6</ele>
        <time>2019-06-21T15:57:47Z</time>
      </trkpt>
      <trkpt lat="42.3018750" lon="-8.6079360">
        <ele>62.8</ele>
        <time>2019-06-21T15:57:48Z</time>
      </trkpt>
      <trkpt lat="42.3020680" lon="-8.6078040">
        <ele>63.8</ele>
        <time>2019-06-21T15:57:54Z</time>
      </trkpt>
      <trkpt lat="42.3021800" lon="-8.6076840">
        <ele>64.2</ele>
        <time>2019-06-21T15:57:59Z</time>
      </trkpt>
      <trkpt lat="42.3022430" lon="-8.6075940">
        <ele>65.0</ele>
        <time>2019-06-21T15:58:03Z</time>
      </trkpt>
      <trkpt lat="42.3022870" lon="-8.6075520">
        <ele>65.2</ele>
        <time>2019-06-21T15:58:05Z</time>
      </trkpt>
      <trkpt lat="42.3023940" lon="-8.6074300">
        <ele>66.0</ele>
        <time>2019-06-21T15:58:11Z</time>
      </trkpt>
      <trkpt lat="42.3024360" lon="-8.6073820">
        <ele>66.2</ele>
        <time>2019-06-21T15:58:13Z</time>
      </trkpt>
      <trkpt lat="42.3025760" lon="-8.6072550">
        <ele>67.2</ele>
        <time>2019-06-21T15:58:19Z</time>
      </trkpt>
      <trkpt lat="42.3026910" lon="-8.6071110">
        <ele>67.4</ele>
        <time>2019-06-21T15:58:25Z</time>
      </trkpt>
      <trkpt lat="42.3027880" lon="-8.6069980">
        <ele>67.8</ele>
        <time>2019-06-21T15:58:31Z</time>
      </trkpt>
      <trkpt lat="42.3028660" lon="-8.6069430">
        <ele>68.2</ele>
        <time>2019-06-21T15:58:35Z</time>
      </trkpt>
      <trkpt lat="42.3028960" lon="-8.6069050">
        <ele>68.2</ele>
        <time>2019-06-21T15:58:37Z</time>
      </trkpt>
      <trkpt lat="42.3030330" lon="-8.6067810">
        <ele>68.4</ele>
        <time>2019-06-21T15:58:44Z</time>
      </trkpt>
      <trkpt lat="42.3031470" lon="-8.6066440">
        <ele>69.0</ele>
        <time>2019-06-21T15:58:50Z</time>
      </trkpt>
      <trkpt lat="42.3032230" lon="-8.6065540">
        <ele>69.4</ele>
        <time>2019-06-21T15:58:54Z</time>
      </trkpt>
      <trkpt lat="42.3032810" lon="-8.6064840">
        <ele>69.6</ele>
        <time>2019-06-21T15:58:57Z</time>
      </trkpt>
      <trkpt lat="42.3033880" lon="-8.6063720">
        <ele>70.2</ele>
        <time>2019-06-21T15:59:03Z</time>
      </trkpt>
      <trkpt lat="42.3034070" lon="-8.6063520">
        <ele>70.6</ele>
        <time>2019-06-21T15:59:04Z</time>
      </trkpt>
      <trkpt lat="42.3035470" lon="-8.6062480">
        <ele>71.0</ele>
        <time>2019-06-21T15:59:10Z</time>
      </trkpt>
      <trkpt lat="42.3036950" lon="-8.6061840">
        <ele>71.0</ele>
        <time>2019-06-21T15:59:16Z</time>
      </trkpt>
      <trkpt lat="42.3038520" lon="-8.6061470">
        <ele>71.6</ele>
        <time>2019-06-21T15:59:22Z</time>
      </trkpt>
      <trkpt lat="42.3038780" lon="-8.6061310">
        <ele>71.6</ele>
        <time>2019-06-21T15:59:23Z</time>
      </trkpt>
      <trkpt lat="42.3039780" lon="-8.6059920">
        <ele>72.8</ele>
        <time>2019-06-21T15:59:29Z</time>
      </trkpt>
      <trkpt lat="42.3040220" lon="-8.6059050">
        <ele>73.4</ele>
        <time>2019-06-21T15:59:33Z</time>
      </trkpt>
      <trkpt lat="42.3040410" lon="-8.6058920">
        <ele>73.6</ele>
        <time>2019-06-21T15:59:34Z</time>
      </trkpt>
      <trkpt lat="42.3041560" lon="-8.6059130">
        <ele>73.6</ele>
        <time>2019-06-21T15:59:39Z</time>
      </trkpt>
      <trkpt lat="42.3041800" lon="-8.6059190">
        <ele>73.8</ele>
        <time>2019-06-21T15:59:40Z</time>
      </trkpt>
      <trkpt lat="42.3043680" lon="-8.6059360">
        <ele>74.8</ele>
        <time>2019-06-21T15:59:48Z</time>
      </trkpt>
      <trkpt lat="42.3043920" lon="-8.6059450">
        <ele>74.8</ele>
        <time>2019-06-21T15:59:49Z</time>
      </trkpt>
      <trkpt lat="42.3045380" lon="-8.6059650">
        <ele>74.8</ele>
        <time>2019-06-21T15:59:55Z</time>
      </trkpt>
      <trkpt lat="42.3047480" lon="-8.6059410">
        <ele>75.8</ele>
        <time>2019-06-21T16:00:04Z</time>
      </trkpt>
      <trkpt lat="42.3047710" lon="-8.6059330">
        <ele>75.8</ele>
        <time>2019-06-21T16:00:05Z</time>
      </trkpt>
      <trkpt lat="42.3048900" lon="-8.6058920">
        <ele>77.2</ele>
        <time>2019-06-21T16:00:11Z</time>
      </trkpt>
      <trkpt lat="42.3049710" lon="-8.6058960">
        <ele>78.4</ele>
        <time>2019-06-21T16:00:16Z</time>
      </trkpt>
      <trkpt lat="42.3049880" lon="-8.6058980">
        <ele>78.6</ele>
        <time>2019-06-21T16:00:17Z</time>
      </trkpt>
      <trkpt lat="42.3051050" lon="-8.6058980">
        <ele>79.4</ele>
        <time>2019-06-21T16:00:24Z</time>
      </trkpt>
      <trkpt lat="42.3052190" lon="-8.6058670">
        <ele>80.2</ele>
        <time>2019-06-21T16:00:29Z</time>
      </trkpt>
      <trkpt lat="42.3052710" lon="-8.6058490">
        <ele>80.4</ele>
        <time>2019-06-21T16:00:31Z</time>
      </trkpt>
      <trkpt lat="42.3052910" lon="-8.6058440">
        <ele>80.6</ele>
        <time>2019-06-21T16:00:32Z</time>
      </trkpt>
      <trkpt lat="42.3053890" lon="-8.6058390">
        <ele>81.6</ele>
        <time>2019-06-21T16:00:36Z</time>
      </trkpt>
      <trkpt lat="42.3054120" lon="-8.6058370">
        <ele>82.0</ele>
        <time>2019-06-21T16:00:37Z</time>
      </trkpt>
      <trkpt lat="42.3054880" lon="-8.6058350">
        <ele>82.6</ele>
        <time>2019-06-21T16:00:40Z</time>
      </trkpt>
      <trkpt lat="42.3055970" lon="-8.6058140">
        <ele>83.4</ele>
        <time>2019-06-21T16:00:45Z</time>
      </trkpt>
      <trkpt lat="42.3056770" lon="-8.6057970">
        <ele>83.8</ele>
        <time>2019-06-21T16:00:48Z</time>
      </trkpt>
      <trkpt lat="42.3058030" lon="-8.6057810">
        <ele>84.6</ele>
        <time>2019-06-21T16:00:53Z</time>
      </trkpt>
      <trkpt lat="42.3058720" lon="-8.6057600">
        <ele>84.8</ele>
        <time>2019-06-21T16:00:56Z</time>
      </trkpt>
      <trkpt lat="42.3059720" lon="-8.6057230">
        <ele>84.8</ele>
        <time>2019-06-21T16:01:00Z</time>
      </trkpt>
      <trkpt lat="42.3061430" lon="-8.6056510">
        <ele>85.8</ele>
        <time>2019-06-21T16:01:06Z</time>
      </trkpt>
      <trkpt lat="42.3062020" lon="-8.6056200">
        <ele>85.8</ele>
        <time>2019-06-21T16:01:08Z</time>
      </trkpt>
      <trkpt lat="42.3063760" lon="-8.6055000">
        <ele>86.0</ele>
        <time>2019-06-21T16:01:15Z</time>
      </trkpt>
      <trkpt lat="42.3064590" lon="-8.6053320">
        <ele>86.6</ele>
        <time>2019-06-21T16:01:21Z</time>
      </trkpt>
      <trkpt lat="42.3064870" lon="-8.6052770">
        <ele>87.0</ele>
        <time>2019-06-21T16:01:23Z</time>
      </trkpt>
      <trkpt lat="42.3065860" lon="-8.6051250">
        <ele>88.0</ele>
        <time>2019-06-21T16:01:29Z</time>
      </trkpt>
      <trkpt lat="42.3066000" lon="-8.6051110">
        <ele>88.2</ele>
        <time>2019-06-21T16:01:30Z</time>
      </trkpt>
      <trkpt lat="42.3066340" lon="-8.6050660">
        <ele>89.0</ele>
        <time>2019-06-21T16:01:33Z</time>
      </trkpt>
      <trkpt lat="42.3066870" lon="-8.6049750">
        <ele>89.8</ele>
        <time>2019-06-21T16:01:39Z</time>
      </trkpt>
      <trkpt lat="42.3067140" lon="-8.6049310">
        <ele>90.0</ele>
        <time>2019-06-21T16:01:42Z</time>
      </trkpt>
      <trkpt lat="42.3067350" lon="-8.6048930">
        <ele>90.4</ele>
        <time>2019-06-21T16:01:45Z</time>
      </trkpt>
      <trkpt lat="42.3067440" lon="-8.6048590">
        <ele>91.0</ele>
        <time>2019-06-21T16:01:47Z</time>
      </trkpt>
      <trkpt lat="42.3067470" lon="-8.6048180">
        <ele>92.0</ele>
        <time>2019-06-21T16:01:49Z</time>
      </trkpt>
      <trkpt lat="42.3067510" lon="-8.6048040">
        <ele>92.2</ele>
        <time>2019-06-21T16:01:50Z</time>
      </trkpt>
      <trkpt lat="42.3067670" lon="-8.6047510">
        <ele>92.6</ele>
        <time>2019-06-21T16:01:53Z</time>
      </trkpt>
      <trkpt lat="42.3067770" lon="-8.6047340">
        <ele>92.8</ele>
        <time>2019-06-21T16:01:54Z</time>
      </trkpt>
      <trkpt lat="42.3067960" lon="-8.6047230">
        <ele>93.2</ele>
        <time>2019-06-21T16:01:55Z</time>
      </trkpt>
      <trkpt lat="42.3068820" lon="-8.6047590">
        <ele>93.0</ele>
        <time>2019-06-21T16:01:58Z</time>
      </trkpt>
      <trkpt lat="42.3069110" lon="-8.6047790">
        <ele>92.8</ele>
        <time>2019-06-21T16:01:59Z</time>
      </trkpt>
      <trkpt lat="42.3070400" lon="-8.6048420">
        <ele>93.0</ele>
        <time>2019-06-21T16:02:04Z</time>
      </trkpt>
      <trkpt lat="42.3071770" lon="-8.6048260">
        <ele>93.2</ele>
        <time>2019-06-21T16:02:10Z</time>
      </trkpt>
      <trkpt lat="42.3072740" lon="-8.6047750">
        <ele>93.8</ele>
        <time>2019-06-21T16:02:15Z</time>
      </trkpt>
      <trkpt lat="42.3073060" lon="-8.6047550">
        <ele>94.0</ele>
        <time>2019-06-21T16:02:17Z</time>
      </trkpt>
      <trkpt lat="42.3073560" lon="-8.6047210">
        <ele>94.2</ele>
        <time>2019-06-21T16:02:20Z</time>
      </trkpt>
      <trkpt lat="42.3074320" lon="-8.6046650">
        <ele>94.8</ele>
        <time>2019-06-21T16:02:25Z</time>
      </trkpt>
      <trkpt lat="42.3075350" lon="-8.6045810">
        <ele>95.2</ele>
        <time>2019-06-21T16:02:31Z</time>
      </trkpt>
      <trkpt lat="42.3075640" lon="-8.6045370">
        <ele>95.8</ele>
        <time>2019-06-21T16:02:33Z</time>
      </trkpt>
      <trkpt lat="42.3076010" lon="-8.6044600">
        <ele>96.4</ele>
        <time>2019-06-21T16:02:36Z</time>
      </trkpt>
      <trkpt lat="42.3076520" lon="-8.6043480">
        <ele>97.0</ele>
        <time>2019-06-21T16:02:40Z</time>
      </trkpt>
      <trkpt lat="42.3077010" lon="-8.6042420">
        <ele>97.4</ele>
        <time>2019-06-21T16:02:44Z</time>
      </trkpt>
      <trkpt lat="42.3077470" lon="-8.6041470">
        <ele>98.0</ele>
        <time>2019-06-21T16:02:48Z</time>
      </trkpt>
      <trkpt lat="42.3077890" lon="-8.6040470">
        <ele>98.6</ele>
        <time>2019-06-21T16:02:52Z</time>
      </trkpt>
      <trkpt lat="42.3078660" lon="-8.6038770">
        <ele>99.6</ele>
        <time>2019-06-21T16:02:59Z</time>
      </trkpt>
      <trkpt lat="42.3079530" lon="-8.6037440">
        <ele>100.2</ele>
        <time>2019-06-21T16:03:05Z</time>
      </trkpt>
      <trkpt lat="42.3079990" lon="-8.6036950">
        <ele>100.4</ele>
        <time>2019-06-21T16:03:08Z</time>
      </trkpt>
      <trkpt lat="42.3080340" lon="-8.6036600">
        <ele>100.2</ele>
        <time>2019-06-21T16:03:10Z</time>
      </trkpt>
      <trkpt lat="42.3080770" lon="-8.6036160">
        <ele>100.2</ele>
        <time>2019-06-21T16:03:12Z</time>
      </trkpt>
      <trkpt lat="42.3082010" lon="-8.6034910">
        <ele>99.4</ele>
        <time>2019-06-21T16:03:17Z</time>
      </trkpt>
      <trkpt lat="42.3084370" lon="-8.6032980">
        <ele>100.2</ele>
        <time>2019-06-21T16:03:25Z</time>
      </trkpt>
      <trkpt lat="42.3084670" lon="-8.6032750">
        <ele>100.2</ele>
        <time>2019-06-21T16:03:26Z</time>
      </trkpt>
      <trkpt lat="42.3085630" lon="-8.6032340">
        <ele>100.6</ele>
        <time>2019-06-21T16:03:29Z</time>
      </trkpt>
      <trkpt lat="42.3086230" lon="-8.6032060">
        <ele>100.8</ele>
        <time>2019-06-21T16:03:31Z</time>
      </trkpt>
      <trkpt lat="42.3086530" lon="-8.6031940">
        <ele>101.0</ele>
        <time>2019-06-21T16:03:32Z</time>
      </trkpt>
      <trkpt lat="42.3088160" lon="-8.6031780">
        <ele>102.0</ele>
        <time>2019-06-21T16:03:38Z</time>
      </trkpt>
      <trkpt lat="42.3089780" lon="-8.6031720">
        <ele>103.2</ele>
        <time>2019-06-21T16:03:44Z</time>
      </trkpt>
      <trkpt lat="42.3090290" lon="-8.6031720">
        <ele>103.4</ele>
        <time>2019-06-21T16:03:46Z</time>
      </trkpt>
      <trkpt lat="42.3091650" lon="-8.6031510">
        <ele>104.2</ele>
        <time>2019-06-21T16:03:51Z</time>
      </trkpt>
      <trkpt lat="42.3091940" lon="-8.6031510">
        <ele>104.4</ele>
        <time>2019-06-21T16:03:52Z</time>
      </trkpt>
      <trkpt lat="42.3093030" lon="-8.6031550">
        <ele>105.4</ele>
        <time>2019-06-21T16:03:56Z</time>
      </trkpt>
      <trkpt lat="42.3093820" lon="-8.6031480">
        <ele>105.8</ele>
        <time>2019-06-21T16:03:59Z</time>
      </trkpt>
      <trkpt lat="42.3094800" lon="-8.6031420">
        <ele>106.4</ele>
        <time>2019-06-21T16:04:03Z</time>
      </trkpt>
      <trkpt lat="42.3095980" lon="-8.6031270">
        <ele>107.4</ele>
        <time>2019-06-21T16:04:08Z</time>
      </trkpt>
      <trkpt lat="42.3096190" lon="-8.6031200">
        <ele>107.4</ele>
        <time>2019-06-21T16:04:09Z</time>
      </trkpt>
      <trkpt lat="42.3097010" lon="-8.6031290">
        <ele>108.6</ele>
        <time>2019-06-21T16:04:13Z</time>
      </trkpt>
      <trkpt lat="42.3097410" lon="-8.6031470">
        <ele>109.0</ele>
        <time>2019-06-21T16:04:15Z</time>
      </trkpt>
      <trkpt lat="42.3097830" lon="-8.6031570">
        <ele>109.6</ele>
        <time>2019-06-21T16:04:17Z</time>
      </trkpt>
      <trkpt lat="42.3098790" lon="-8.6031510">
        <ele>110.2</ele>
        <time>2019-06-21T16:04:22Z</time>
      </trkpt>
      <trkpt lat="42.3099410" lon="-8.6031400">
        <ele>110.6</ele>
        <time>2019-06-21T16:04:25Z</time>
      </trkpt>
      <trkpt lat="42.3100240" lon="-8.6031210">
        <ele>111.4</ele>
        <time>2019-06-21T16:04:29Z</time>
      </trkpt>
      <trkpt lat="42.3100800" lon="-8.6031150">
        <ele>111.8</ele>
        <time>2019-06-21T16:04:32Z</time>
      </trkpt>
      <trkpt lat="42.3101630" lon="-8.6031250">
        <ele>112.6</ele>
        <time>2019-06-21T16:04:37Z</time>
      </trkpt>
      <trkpt lat="42.3101770" lon="-8.6031530">
        <ele>113.0</ele>
        <time>2019-06-21T16:04:39Z</time>
      </trkpt>
      <trkpt lat="42.3102000" lon="-8.6031760">
        <ele>113.4</ele>
        <time>2019-06-21T16:04:41Z</time>
      </trkpt>
      <trkpt lat="42.3102070" lon="-8.6031950">
        <ele>113.6</ele>
        <time>2019-06-21T16:04:42Z</time>
      </trkpt>
      <trkpt lat="42.3102140" lon="-8.6032100">
        <ele>114.0</ele>
        <time>2019-06-21T16:04:43Z</time>
      </trkpt>
      <trkpt lat="42.3102590" lon="-8.6033160">
        <ele>115.0</ele>
        <time>2019-06-21T16:04:49Z</time>
      </trkpt>
      <trkpt lat="42.3102720" lon="-8.6033500">
        <ele>115.2</ele>
        <time>2019-06-21T16:04:51Z</time>
      </trkpt>
      <trkpt lat="42.3103060" lon="-8.6034390">
        <ele>116.0</ele>
        <time>2019-06-21T16:04:56Z</time>
      </trkpt>
      <trkpt lat="42.3103410" lon="-8.6035250">
        <ele>117.2</ele>
        <time>2019-06-21T16:05:01Z</time>
      </trkpt>
      <trkpt lat="42.3103460" lon="-8.6035420">
        <ele>117.2</ele>
        <time>2019-06-21T16:05:02Z</time>
      </trkpt>
      <trkpt lat="42.3103910" lon="-8.6036490">
        <ele>118.2</ele>
        <time>2019-06-21T16:05:08Z</time>
      </trkpt>
      <trkpt lat="42.3104290" lon="-8.6036990">
        <ele>119.0</ele>
        <time>2019-06-21T16:05:12Z</time>
      </trkpt>
      <trkpt lat="42.3104550" lon="-8.6037090">
        <ele>119.4</ele>
        <time>2019-06-21T16:05:14Z</time>
      </trkpt>
      <trkpt lat="42.3105370" lon="-8.6037500">
        <ele>120.6</ele>
        <time>2019-06-21T16:05:20Z</time>
      </trkpt>
      <trkpt lat="42.3105520" lon="-8.6037530">
        <ele>120.6</ele>
        <time>2019-06-21T16:05:21Z</time>
      </trkpt>
      <trkpt lat="42.3105990" lon="-8.6037740">
        <ele>121.6</ele>
        <time>2019-06-21T16:05:24Z</time>
      </trkpt>
      <trkpt lat="42.3106540" lon="-8.6038170">
        <ele>122.2</ele>
        <time>2019-06-21T16:05:28Z</time>
      </trkpt>
      <trkpt lat="42.3106850" lon="-8.6038520">
        <ele>122.6</ele>
        <time>2019-06-21T16:05:31Z</time>
      </trkpt>
      <trkpt lat="42.3107400" lon="-8.6039050">
        <ele>123.8</ele>
        <time>2019-06-21T16:05:36Z</time>
      </trkpt>
      <trkpt lat="42.3107630" lon="-8.6039300">
        <ele>124.2</ele>
        <time>2019-06-21T16:05:38Z</time>
      </trkpt>
      <trkpt lat="42.3107870" lon="-8.6039530">
        <ele>125.0</ele>
        <time>2019-06-21T16:05:40Z</time>
      </trkpt>
      <trkpt lat="42.3108420" lon="-8.6040060">
        <ele>126.2</ele>
        <time>2019-06-21T16:05:45Z</time>
      </trkpt>
      <trkpt lat="42.3108660" lon="-8.6040290">
        <ele>126.6</ele>
        <time>2019-06-21T16:05:47Z</time>
      </trkpt>
      <trkpt lat="42.3108880" lon="-8.6040530">
        <ele>127.2</ele>
        <time>2019-06-21T16:05:49Z</time>
      </trkpt>
      <trkpt lat="42.3109330" lon="-8.6041020">
        <ele>128.2</ele>
        <time>2019-06-21T16:05:53Z</time>
      </trkpt>
      <trkpt lat="42.3109670" lon="-8.6041380">
        <ele>129.0</ele>
        <time>2019-06-21T16:05:56Z</time>
      </trkpt>
      <trkpt lat="42.3109890" lon="-8.6041650">
        <ele>129.4</ele>
        <time>2019-06-21T16:05:58Z</time>
      </trkpt>
      <trkpt lat="42.3110270" lon="-8.6042460">
        <ele>130.6</ele>
        <time>2019-06-21T16:06:03Z</time>
      </trkpt>
      <trkpt lat="42.3110380" lon="-8.6042840">
        <ele>131.0</ele>
        <time>2019-06-21T16:06:05Z</time>
      </trkpt>
      <trkpt lat="42.3110530" lon="-8.6043040">
        <ele>131.4</ele>
        <time>2019-06-21T16:06:06Z</time>
      </trkpt>
      <trkpt lat="42.3110630" lon="-8.6043170">
        <ele>131.6</ele>
        <time>2019-06-21T16:06:07Z</time>
      </trkpt>
      <trkpt lat="42.3110880" lon="-8.6043560">
        <ele>132.2</ele>
        <time>2019-06-21T16:06:10Z</time>
      </trkpt>
      <trkpt lat="42.3111050" lon="-8.6043810">
        <ele>132.8</ele>
        <time>2019-06-21T16:06:12Z</time>
      </trkpt>
      <trkpt lat="42.3111400" lon="-8.6044320">
        <ele>134.0</ele>
        <time>2019-06-21T16:06:16Z</time>
      </trkpt>
      <trkpt lat="42.3111740" lon="-8.6044740">
        <ele>135.2</ele>
        <time>2019-06-21T16:06:20Z</time>
      </trkpt>
      <trkpt lat="42.3111840" lon="-8.6044850">
        <ele>135.6</ele>
        <time>2019-06-21T16:06:21Z</time>
      </trkpt>
      <trkpt lat="42.3112080" lon="-8.6045250">
        <ele>136.4</ele>
        <time>2019-06-21T16:06:24Z</time>
      </trkpt>
      <trkpt lat="42.3112490" lon="-8.6045710">
        <ele>137.6</ele>
        <time>2019-06-21T16:06:28Z</time>
      </trkpt>
      <trkpt lat="42.3112600" lon="-8.6045800">
        <ele>137.8</ele>
        <time>2019-06-21T16:06:29Z</time>
      </trkpt>
      <trkpt lat="42.3113050" lon="-8.6046120">
        <ele>138.6</ele>
        <time>2019-06-21T16:06:33Z</time>
      </trkpt>
      <trkpt lat="42.3113420" lon="-8.6046330">
        <ele>139.8</ele>
        <time>2019-06-21T16:06:36Z</time>
      </trkpt>
      <trkpt lat="42.3113680" lon="-8.6046500">
        <ele>140.4</ele>
        <time>2019-06-21T16:06:38Z</time>
      </trkpt>
      <trkpt lat="42.3113820" lon="-8.6046540">
        <ele>140.8</ele>
        <time>2019-06-21T16:06:39Z</time>
      </trkpt>
      <trkpt lat="42.3113930" lon="-8.6046680">
        <ele>141.0</ele>
        <time>2019-06-21T16:06:40Z</time>
      </trkpt>
      <trkpt lat="42.3114480" lon="-8.6046890">
        <ele>141.6</ele>
        <time>2019-06-21T16:06:44Z</time>
      </trkpt>
      <trkpt lat="42.3114610" lon="-8.6046930">
        <ele>141.8</ele>
        <time>2019-06-21T16:06:45Z</time>
      </trkpt>
      <trkpt lat="42.3114730" lon="-8.6047000">
        <ele>142.0</ele>
        <time>2019-06-21T16:06:46Z</time>
      </trkpt>
      <trkpt lat="42.3115250" lon="-8.6047310">
        <ele>143.0</ele>
        <time>2019-06-21T16:06:50Z</time>
      </trkpt>
      <trkpt lat="42.3115780" lon="-8.6047580">
        <ele>143.8</ele>
        <time>2019-06-21T16:06:54Z</time>
      </trkpt>
      <trkpt lat="42.3115880" lon="-8.6047700">
        <ele>144.0</ele>
        <time>2019-06-21T16:06:55Z</time>
      </trkpt>
      <trkpt lat="42.3116510" lon="-8.6048270">
        <ele>145.6</ele>
        <time>2019-06-21T16:07:00Z</time>
      </trkpt>
      <trkpt lat="42.3116750" lon="-8.6048490">
        <ele>146.0</ele>
        <time>2019-06-21T16:07:02Z</time>
      </trkpt>
      <trkpt lat="42.3116990" lon="-8.6048700">
        <ele>146.6</ele>
        <time>2019-06-21T16:07:04Z</time>
      </trkpt>
      <trkpt lat="42.3117750" lon="-8.6049550">
        <ele>147.6</ele>
        <time>2019-06-21T16:07:11Z</time>
      </trkpt>
      <trkpt lat="42.3117870" lon="-8.6049660">
        <ele>147.6</ele>
        <time>2019-06-21T16:07:12Z</time>
      </trkpt>
      <trkpt lat="42.3118190" lon="-8.6050390">
        <ele>148.4</ele>
        <time>2019-06-21T16:07:17Z</time>
      </trkpt>
      <trkpt lat="42.3118090" lon="-8.6050640">
        <ele>148.4</ele>
        <time>2019-06-21T16:07:18Z</time>
      </trkpt>
      <trkpt lat="42.3118440" lon="-8.6051590">
        <ele>148.2</ele>
        <time>2019-06-21T16:07:22Z</time>
      </trkpt>
      <trkpt lat="42.3118640" lon="-8.6051720">
        <ele>148.2</ele>
        <time>2019-06-21T16:07:23Z</time>
      </trkpt>
      <trkpt lat="42.3119070" lon="-8.6052370">
        <ele>148.0</ele>
        <time>2019-06-21T16:07:26Z</time>
      </trkpt>
      <trkpt lat="42.3119340" lon="-8.6052730">
        <ele>148.0</ele>
        <time>2019-06-21T16:07:28Z</time>
      </trkpt>
      <trkpt lat="42.3119930" lon="-8.6053520">
        <ele>148.2</ele>
        <time>2019-06-21T16:07:33Z</time>
      </trkpt>
      <trkpt lat="42.3120730" lon="-8.6054480">
        <ele>148.2</ele>
        <time>2019-06-21T16:07:39Z</time>
      </trkpt>
      <trkpt lat="42.3120890" lon="-8.6054650">
        <ele>148.2</ele>
        <time>2019-06-21T16:07:40Z</time>
      </trkpt>
      <trkpt lat="42.3121760" lon="-8.6055370">
        <ele>148.0</ele>
        <time>2019-06-21T16:07:45Z</time>
      </trkpt>
      <trkpt lat="42.3122340" lon="-8.6055710">
        <ele>148.2</ele>
        <time>2019-06-21T16:07:48Z</time>
      </trkpt>
      <trkpt lat="42.3122520" lon="-8.6055840">
        <ele>148.4</ele>
        <time>2019-06-21T16:07:49Z</time>
      </trkpt>
      <trkpt lat="42.3123310" lon="-8.6056500">
        <ele>148.6</ele>
        <time>2019-06-21T16:07:54Z</time>
      </trkpt>
      <trkpt lat="42.3123640" lon="-8.6056710">
        <ele>148.8</ele>
        <time>2019-06-21T16:07:56Z</time>
      </trkpt>
      <trkpt lat="42.3123640" lon="-8.6056700">
        <ele>148.8</ele>
        <time>2019-06-21T16:07:58Z</time>
      </trkpt>
      <trkpt lat="42.3124190" lon="-8.6057010">
        <ele>148.8</ele>
        <time>2019-06-21T16:09:04Z</time>
      </trkpt>
      <trkpt lat="42.3124370" lon="-8.6057160">
        <ele>149.0</ele>
        <time>2019-06-21T16:09:05Z</time>
      </trkpt>
      <trkpt lat="42.3124540" lon="-8.6057250">
        <ele>149.0</ele>
        <time>2019-06-21T16:09:06Z</time>
      </trkpt>
      <trkpt lat="42.3125470" lon="-8.6058000">
        <ele>149.0</ele>
        <time>2019-06-21T16:09:12Z</time>
      </trkpt>
      <trkpt lat="42.3126690" lon="-8.6058670">
        <ele>150.0</ele>
        <time>2019-06-21T16:09:19Z</time>
      </trkpt>
      <trkpt lat="42.3126860" lon="-8.6058830">
        <ele>150.0</ele>
        <time>2019-06-21T16:09:20Z</time>
      </trkpt>
      <trkpt lat="42.3128430" lon="-8.6059720">
        <ele>150.4</ele>
        <time>2019-06-21T16:09:28Z</time>
      </trkpt>
      <trkpt lat="42.3129470" lon="-8.6060270">
        <ele>151.0</ele>
        <time>2019-06-21T16:09:33Z</time>
      </trkpt>
      <trkpt lat="42.3130080" lon="-8.6060560">
        <ele>151.0</ele>
        <time>2019-06-21T16:09:36Z</time>
      </trkpt>
      <trkpt lat="42.3130290" lon="-8.6060640">
        <ele>151.2</ele>
        <time>2019-06-21T16:09:37Z</time>
      </trkpt>
      <trkpt lat="42.3131140" lon="-8.6061050">
        <ele>151.8</ele>
        <time>2019-06-21T16:09:41Z</time>
      </trkpt>
      <trkpt lat="42.3131780" lon="-8.6061230">
        <ele>151.8</ele>
        <time>2019-06-21T16:09:44Z</time>
      </trkpt>
      <trkpt lat="42.3131980" lon="-8.6061320">
        <ele>152.2</ele>
        <time>2019-06-21T16:09:45Z</time>
      </trkpt>
      <trkpt lat="42.3132640" lon="-8.6061540">
        <ele>153.4</ele>
        <time>2019-06-21T16:09:49Z</time>
      </trkpt>
      <trkpt lat="42.3133110" lon="-8.6061600">
        <ele>153.6</ele>
        <time>2019-06-21T16:09:51Z</time>
      </trkpt>
      <trkpt lat="42.3134160" lon="-8.6061810">
        <ele>154.2</ele>
        <time>2019-06-21T16:09:56Z</time>
      </trkpt>
      <trkpt lat="42.3134370" lon="-8.6061870">
        <ele>154.4</ele>
        <time>2019-06-21T16:09:57Z</time>
      </trkpt>
      <trkpt lat="42.3134570" lon="-8.6061900">
        <ele>154.6</ele>
        <time>2019-06-21T16:09:58Z</time>
      </trkpt>
      <trkpt lat="42.3135750" lon="-8.6062130">
        <ele>155.6</ele>
        <time>2019-06-21T16:10:04Z</time>
      </trkpt>
      <trkpt lat="42.3135930" lon="-8.6062160">
        <ele>155.8</ele>
        <time>2019-06-21T16:10:05Z</time>
      </trkpt>
      <trkpt lat="42.3137280" lon="-8.6062200">
        <ele>156.8</ele>
        <time>2019-06-21T16:10:12Z</time>
      </trkpt>
      <trkpt lat="42.3138650" lon="-8.6062270">
        <ele>157.4</ele>
        <time>2019-06-21T16:10:18Z</time>
      </trkpt>
      <trkpt lat="42.3139570" lon="-8.6062560">
        <ele>158.0</ele>
        <time>2019-06-21T16:10:22Z</time>
      </trkpt>
      <trkpt lat="42.3140480" lon="-8.6062840">
        <ele>158.4</ele>
        <time>2019-06-21T16:10:26Z</time>
      </trkpt>
      <trkpt lat="42.3141290" lon="-8.6063200">
        <ele>159.2</ele>
        <time>2019-06-21T16:10:30Z</time>
      </trkpt>
      <trkpt lat="42.3141890" lon="-8.6063410">
        <ele>160.0</ele>
        <time>2019-06-21T16:10:33Z</time>
      </trkpt>
      <trkpt lat="42.3142310" lon="-8.6063570">
        <ele>160.2</ele>
        <time>2019-06-21T16:10:35Z</time>
      </trkpt>
      <trkpt lat="42.3143600" lon="-8.6064350">
        <ele>161.0</ele>
        <time>2019-06-21T16:10:42Z</time>
      </trkpt>
      <trkpt lat="42.3143810" lon="-8.6064470">
        <ele>161.2</ele>
        <time>2019-06-21T16:10:43Z</time>
      </trkpt>
      <trkpt lat="42.3145380" lon="-8.6065730">
        <ele>161.6</ele>
        <time>2019-06-21T16:10:50Z</time>
      </trkpt>
      <trkpt lat="42.3146200" lon="-8.6066190">
        <ele>162.4</ele>
        <time>2019-06-21T16:10:54Z</time>
      </trkpt>
      <trkpt lat="42.3146420" lon="-8.6066270">
        <ele>162.6</ele>
        <time>2019-06-21T16:10:55Z</time>
      </trkpt>
      <trkpt lat="42.3147100" lon="-8.6066520">
        <ele>163.4</ele>
        <time>2019-06-21T16:10:59Z</time>
      </trkpt>
      <trkpt lat="42.3147280" lon="-8.6066580">
        <ele>164.0</ele>
        <time>2019-06-21T16:11:00Z</time>
      </trkpt>
      <trkpt lat="42.3148700" lon="-8.6067070">
        <ele>164.8</ele>
        <time>2019-06-21T16:11:07Z</time>
      </trkpt>
      <trkpt lat="42.3149020" lon="-8.6067230">
        <ele>164.8</ele>
        <time>2019-06-21T16:11:08Z</time>
      </trkpt>
      <trkpt lat="42.3150690" lon="-8.6068740">
        <ele>164.2</ele>
        <time>2019-06-21T16:11:13Z</time>
      </trkpt>
      <trkpt lat="42.3152060" lon="-8.6070220">
        <ele>165.6</ele>
        <time>2019-06-21T16:11:18Z</time>
      </trkpt>
      <trkpt lat="42.3153710" lon="-8.6071220">
        <ele>165.6</ele>
        <time>2019-06-21T16:11:24Z</time>
      </trkpt>
      <trkpt lat="42.3155160" lon="-8.6072250">
        <ele>165.8</ele>
        <time>2019-06-21T16:11:29Z</time>
      </trkpt>
      <trkpt lat="42.3155980" lon="-8.6073130">
        <ele>166.2</ele>
        <time>2019-06-21T16:11:32Z</time>
      </trkpt>
      <trkpt lat="42.3158480" lon="-8.6074740">
        <ele>166.4</ele>
        <time>2019-06-21T16:11:39Z</time>
      </trkpt>
      <trkpt lat="42.3159850" lon="-8.6075090">
        <ele>166.8</ele>
        <time>2019-06-21T16:11:43Z</time>
      </trkpt>
      <trkpt lat="42.3160130" lon="-8.6075020">
        <ele>167.0</ele>
        <time>2019-06-21T16:11:44Z</time>
      </trkpt>
      <trkpt lat="42.3161040" lon="-8.6074600">
        <ele>168.4</ele>
        <time>2019-06-21T16:11:48Z</time>
      </trkpt>
      <trkpt lat="42.3161370" lon="-8.6074520">
        <ele>169.0</ele>
        <time>2019-06-21T16:11:50Z</time>
      </trkpt>
      <trkpt lat="42.3161730" lon="-8.6074500">
        <ele>169.4</ele>
        <time>2019-06-21T16:11:52Z</time>
      </trkpt>
      <trkpt lat="42.3162570" lon="-8.6074530">
        <ele>170.8</ele>
        <time>2019-06-21T16:11:56Z</time>
      </trkpt>
      <trkpt lat="42.3162820" lon="-8.6074550">
        <ele>171.2</ele>
        <time>2019-06-21T16:11:57Z</time>
      </trkpt>
      <trkpt lat="42.3163010" lon="-8.6074740">
        <ele>171.4</ele>
        <time>2019-06-21T16:11:58Z</time>
      </trkpt>
      <trkpt lat="42.3163690" lon="-8.6074770">
        <ele>171.6</ele>
        <time>2019-06-21T16:12:01Z</time>
      </trkpt>
      <trkpt lat="42.3165530" lon="-8.6074970">
        <ele>170.8</ele>
        <time>2019-06-21T16:12:06Z</time>
      </trkpt>
      <trkpt lat="42.3166040" lon="-8.6074900">
        <ele>170.6</ele>
        <time>2019-06-21T16:12:07Z</time>
      </trkpt>
      <trkpt lat="42.3167580" lon="-8.6074030">
        <ele>169.8</ele>
        <time>2019-06-21T16:12:10Z</time>
      </trkpt>
      <trkpt lat="42.3168140" lon="-8.6073690">
        <ele>169.6</ele>
        <time>2019-06-21T16:12:11Z</time>
      </trkpt>
      <trkpt lat="42.3170740" lon="-8.6072150">
        <ele>168.8</ele>
        <time>2019-06-21T16:12:16Z</time>
      </trkpt>
      <trkpt lat="42.3172290" lon="-8.6071200">
        <ele>168.6</ele>
        <time>2019-06-21T16:12:19Z</time>
      </trkpt>
      <trkpt lat="42.3173380" lon="-8.6070660">
        <ele>168.0</ele>
        <time>2019-06-21T16:12:21Z</time>
      </trkpt>
      <trkpt lat="42.3173940" lon="-8.6070490">
        <ele>168.0</ele>
        <time>2019-06-21T16:12:22Z</time>
      </trkpt>
      <trkpt lat="42.3176090" lon="-8.6069230">
        <ele>168.0</ele>
        <time>2019-06-21T16:12:26Z</time>
      </trkpt>
      <trkpt lat="42.3176590" lon="-8.6068750">
        <ele>167.8</ele>
        <time>2019-06-21T16:12:27Z</time>
      </trkpt>
      <trkpt lat="42.3177590" lon="-8.6067680">
        <ele>167.4</ele>
        <time>2019-06-21T16:12:29Z</time>
      </trkpt>
      <trkpt lat="42.3178110" lon="-8.6067060">
        <ele>167.2</ele>
        <time>2019-06-21T16:12:30Z</time>
      </trkpt>
      <trkpt lat="42.3179670" lon="-8.6064750">
        <ele>166.4</ele>
        <time>2019-06-21T16:12:33Z</time>
      </trkpt>
      <trkpt lat="42.3180560" lon="-8.6063050">
        <ele>165.6</ele>
        <time>2019-06-21T16:12:35Z</time>
      </trkpt>
      <trkpt lat="42.3181030" lon="-8.6062280">
        <ele>164.2</ele>
        <time>2019-06-21T16:12:36Z</time>
      </trkpt>
      <trkpt lat="42.3182710" lon="-8.6060560">
        <ele>163.2</ele>
        <time>2019-06-21T16:12:39Z</time>
      </trkpt>
      <trkpt lat="42.3184710" lon="-8.6059960">
        <ele>162.2</ele>
        <time>2019-06-21T16:12:42Z</time>
      </trkpt>
      <trkpt lat="42.3185300" lon="-8.6060260">
        <ele>162.0</ele>
        <time>2019-06-21T16:12:43Z</time>
      </trkpt>
      <trkpt lat="42.3186540" lon="-8.6060910">
        <ele>162.0</ele>
        <time>2019-06-21T16:12:45Z</time>
      </trkpt>
      <trkpt lat="42.3188410" lon="-8.6061680">
        <ele>161.6</ele>
        <time>2019-06-21T16:12:48Z</time>
      </trkpt>
      <trkpt lat="42.3189570" lon="-8.6061870">
        <ele>161.6</ele>
        <time>2019-06-21T16:12:50Z</time>
      </trkpt>
      <trkpt lat="42.3192660" lon="-8.6062200">
        <ele>160.8</ele>
        <time>2019-06-21T16:12:55Z</time>
      </trkpt>
      <trkpt lat="42.3193330" lon="-8.6062370">
        <ele>160.6</ele>
        <time>2019-06-21T16:12:56Z</time>
      </trkpt>
      <trkpt lat="42.3194730" lon="-8.6062870">
        <ele>159.8</ele>
        <time>2019-06-21T16:12:58Z</time>
      </trkpt>
      <trkpt lat="42.3195480" lon="-8.6063280">
        <ele>159.4</ele>
        <time>2019-06-21T16:12:59Z</time>
      </trkpt>
      <trkpt lat="42.3196230" lon="-8.6063920">
        <ele>158.4</ele>
        <time>2019-06-21T16:13:00Z</time>
      </trkpt>
      <trkpt lat="42.3197900" lon="-8.6065170">
        <ele>156.6</ele>
        <time>2019-06-21T16:13:02Z</time>
      </trkpt>
      <trkpt lat="42.3198620" lon="-8.6065650">
        <ele>155.6</ele>
        <time>2019-06-21T16:13:03Z</time>
      </trkpt>
      <trkpt lat="42.3199240" lon="-8.6066240">
        <ele>155.0</ele>
        <time>2019-06-21T16:13:04Z</time>
      </trkpt>
      <trkpt lat="42.3199940" lon="-8.6066760">
        <ele>154.2</ele>
        <time>2019-06-21T16:13:05Z</time>
      </trkpt>
      <trkpt lat="42.3201320" lon="-8.6068010">
        <ele>152.6</ele>
        <time>2019-06-21T16:13:07Z</time>
      </trkpt>
      <trkpt lat="42.3201930" lon="-8.6068810">
        <ele>152.2</ele>
        <time>2019-06-21T16:13:08Z</time>
      </trkpt>
      <trkpt lat="42.3202510" lon="-8.6069740">
        <ele>151.4</ele>
        <time>2019-06-21T16:13:09Z</time>
      </trkpt>
      <trkpt lat="42.3203610" lon="-8.6071560">
        <ele>149.4</ele>
        <time>2019-06-21T16:13:11Z</time>
      </trkpt>
      <trkpt lat="42.3204200" lon="-8.6072420">
        <ele>148.4</ele>
        <time>2019-06-21T16:13:12Z</time>
      </trkpt>
      <trkpt lat="42.3204730" lon="-8.6073200">
        <ele>147.2</ele>
        <time>2019-06-21T16:13:13Z</time>
      </trkpt>
      <trkpt lat="42.3205250" lon="-8.6073930">
        <ele>146.0</ele>
        <time>2019-06-21T16:13:14Z</time>
      </trkpt>
      <trkpt lat="42.3205820" lon="-8.6074580">
        <ele>145.0</ele>
        <time>2019-06-21T16:13:15Z</time>
      </trkpt>
      <trkpt lat="42.3206480" lon="-8.6075140">
        <ele>144.2</ele>
        <time>2019-06-21T16:13:16Z</time>
      </trkpt>
      <trkpt lat="42.3207200" lon="-8.6075550">
        <ele>143.4</ele>
        <time>2019-06-21T16:13:17Z</time>
      </trkpt>
      <trkpt lat="42.3208880" lon="-8.6075940">
        <ele>142.4</ele>
        <time>2019-06-21T16:13:19Z</time>
      </trkpt>
      <trkpt lat="42.3209700" lon="-8.6076040">
        <ele>142.0</ele>
        <time>2019-06-21T16:13:20Z</time>
      </trkpt>
      <trkpt lat="42.3210480" lon="-8.6076140">
        <ele>141.4</ele>
        <time>2019-06-21T16:13:21Z</time>
      </trkpt>
      <trkpt lat="42.3211230" lon="-8.6076220">
        <ele>140.8</ele>
        <time>2019-06-21T16:13:22Z</time>
      </trkpt>
      <trkpt lat="42.3211910" lon="-8.6076240">
        <ele>139.8</ele>
        <time>2019-06-21T16:13:23Z</time>
      </trkpt>
      <trkpt lat="42.3212660" lon="-8.6076230">
        <ele>137.8</ele>
        <time>2019-06-21T16:13:24Z</time>
      </trkpt>
      <trkpt lat="42.3213470" lon="-8.6075980">
        <ele>137.0</ele>
        <time>2019-06-21T16:13:25Z</time>
      </trkpt>
      <trkpt lat="42.3214270" lon="-8.6075640">
        <ele>136.6</ele>
        <time>2019-06-21T16:13:26Z</time>
      </trkpt>
      <trkpt lat="42.3215420" lon="-8.6075180">
        <ele>135.0</ele>
        <time>2019-06-21T16:13:28Z</time>
      </trkpt>
      <trkpt lat="42.3215830" lon="-8.6074950">
        <ele>134.4</ele>
        <time>2019-06-21T16:13:29Z</time>
      </trkpt>
      <trkpt lat="42.3216330" lon="-8.6074780">
        <ele>132.2</ele>
        <time>2019-06-21T16:13:30Z</time>
      </trkpt>
      <trkpt lat="42.3218160" lon="-8.6074080">
        <ele>133.4</ele>
        <time>2019-06-21T16:13:33Z</time>
      </trkpt>
      <trkpt lat="42.3218830" lon="-8.6073850">
        <ele>132.0</ele>
        <time>2019-06-21T16:13:34Z</time>
      </trkpt>
      <trkpt lat="42.3220380" lon="-8.6073470">
        <ele>130.0</ele>
        <time>2019-06-21T16:13:36Z</time>
      </trkpt>
      <trkpt lat="42.3221910" lon="-8.6073100">
        <ele>128.2</ele>
        <time>2019-06-21T16:13:38Z</time>
      </trkpt>
      <trkpt lat="42.3222610" lon="-8.6072980">
        <ele>127.6</ele>
        <time>2019-06-21T16:13:39Z</time>
      </trkpt>
      <trkpt lat="42.3223240" lon="-8.6072900">
        <ele>126.8</ele>
        <time>2019-06-21T16:13:40Z</time>
      </trkpt>
      <trkpt lat="42.3224390" lon="-8.6072710">
        <ele>125.2</ele>
        <time>2019-06-21T16:13:42Z</time>
      </trkpt>
      <trkpt lat="42.3224860" lon="-8.6072610">
        <ele>124.6</ele>
        <time>2019-06-21T16:13:43Z</time>
      </trkpt>
      <trkpt lat="42.3225260" lon="-8.6072560">
        <ele>124.0</ele>
        <time>2019-06-21T16:13:44Z</time>
      </trkpt>
      <trkpt lat="42.3225980" lon="-8.6072470">
        <ele>123.0</ele>
        <time>2019-06-21T16:13:46Z</time>
      </trkpt>
      <trkpt lat="42.3226400" lon="-8.6072430">
        <ele>122.6</ele>
        <time>2019-06-21T16:13:47Z</time>
      </trkpt>
      <trkpt lat="42.3226800" lon="-8.6072400">
        <ele>121.2</ele>
        <time>2019-06-21T16:13:48Z</time>
      </trkpt>
      <trkpt lat="42.3227710" lon="-8.6072410">
        <ele>120.0</ele>
        <time>2019-06-21T16:13:50Z</time>
      </trkpt>
      <trkpt lat="42.3228590" lon="-8.6072360">
        <ele>118.8</ele>
        <time>2019-06-21T16:13:52Z</time>
      </trkpt>
      <trkpt lat="42.3229020" lon="-8.6072290">
        <ele>117.6</ele>
        <time>2019-06-21T16:13:53Z</time>
      </trkpt>
      <trkpt lat="42.3229920" lon="-8.6072260">
        <ele>114.8</ele>
        <time>2019-06-21T16:13:55Z</time>
      </trkpt>
      <trkpt lat="42.3231680" lon="-8.6072270">
        <ele>112.6</ele>
        <time>2019-06-21T16:13:59Z</time>
      </trkpt>
      <trkpt lat="42.3232080" lon="-8.6072240">
        <ele>111.6</ele>
        <time>2019-06-21T16:14:00Z</time>
      </trkpt>
      <trkpt lat="42.3232550" lon="-8.6072230">
        <ele>110.8</ele>
        <time>2019-06-21T16:14:01Z</time>
      </trkpt>
      <trkpt lat="42.3233190" lon="-8.6072370">
        <ele>109.4</ele>
        <time>2019-06-21T16:14:02Z</time>
      </trkpt>
      <trkpt lat="42.3234670" lon="-8.6072550">
        <ele>107.8</ele>
        <time>2019-06-21T16:14:04Z</time>
      </trkpt>
      <trkpt lat="42.3235390" lon="-8.6072410">
        <ele>107.4</ele>
        <time>2019-06-21T16:14:05Z</time>
      </trkpt>
      <trkpt lat="42.3237310" lon="-8.6072120">
        <ele>107.4</ele>
        <time>2019-06-21T16:14:08Z</time>
      </trkpt>
      <trkpt lat="42.3240950" lon="-8.6071130">
        <ele>106.6</ele>
        <time>2019-06-21T16:14:14Z</time>
      </trkpt>
      <trkpt lat="42.3243850" lon="-8.6070560">
        <ele>105.2</ele>
        <time>2019-06-21T16:14:18Z</time>
      </trkpt>
      <trkpt lat="42.3245480" lon="-8.6070280">
        <ele>104.4</ele>
        <time>2019-06-21T16:14:20Z</time>
      </trkpt>
      <trkpt lat="42.3246270" lon="-8.6070000">
        <ele>103.8</ele>
        <time>2019-06-21T16:14:21Z</time>
      </trkpt>
      <trkpt lat="42.3247970" lon="-8.6069390">
        <ele>102.4</ele>
        <time>2019-06-21T16:14:23Z</time>
      </trkpt>
      <trkpt lat="42.3249660" lon="-8.6068860">
        <ele>100.8</ele>
        <time>2019-06-21T16:14:25Z</time>
      </trkpt>
      <trkpt lat="42.3251400" lon="-8.6068290">
        <ele>98.8</ele>
        <time>2019-06-21T16:14:27Z</time>
      </trkpt>
      <trkpt lat="42.3252270" lon="-8.6067940">
        <ele>97.6</ele>
        <time>2019-06-21T16:14:28Z</time>
      </trkpt>
      <trkpt lat="42.3253090" lon="-8.6067530">
        <ele>96.4</ele>
        <time>2019-06-21T16:14:29Z</time>
      </trkpt>
      <trkpt lat="42.3254010" lon="-8.6066860">
        <ele>95.2</ele>
        <time>2019-06-21T16:14:30Z</time>
      </trkpt>
      <trkpt lat="42.3254890" lon="-8.6066200">
        <ele>94.2</ele>
        <time>2019-06-21T16:14:31Z</time>
      </trkpt>
      <trkpt lat="42.3256680" lon="-8.6064710">
        <ele>92.2</ele>
        <time>2019-06-21T16:14:33Z</time>
      </trkpt>
      <trkpt lat="42.3258270" lon="-8.6063340">
        <ele>90.2</ele>
        <time>2019-06-21T16:14:35Z</time>
      </trkpt>
      <trkpt lat="42.3258950" lon="-8.6062780">
        <ele>89.0</ele>
        <time>2019-06-21T16:14:36Z</time>
      </trkpt>
      <trkpt lat="42.3259600" lon="-8.6062310">
        <ele>86.4</ele>
        <time>2019-06-21T16:14:37Z</time>
      </trkpt>
      <trkpt lat="42.3260360" lon="-8.6062010">
        <ele>85.4</ele>
        <time>2019-06-21T16:14:38Z</time>
      </trkpt>
      <trkpt lat="42.3261070" lon="-8.6061860">
        <ele>84.2</ele>
        <time>2019-06-21T16:14:39Z</time>
      </trkpt>
      <trkpt lat="42.3261750" lon="-8.6061940">
        <ele>83.4</ele>
        <time>2019-06-21T16:14:40Z</time>
      </trkpt>
      <trkpt lat="42.3262490" lon="-8.6062020">
        <ele>82.2</ele>
        <time>2019-06-21T16:14:41Z</time>
      </trkpt>
      <trkpt lat="42.3263260" lon="-8.6062010">
        <ele>81.2</ele>
        <time>2019-06-21T16:14:42Z</time>
      </trkpt>
      <trkpt lat="42.3264030" lon="-8.6061980">
        <ele>79.6</ele>
        <time>2019-06-21T16:14:43Z</time>
      </trkpt>
      <trkpt lat="42.3264750" lon="-8.6061870">
        <ele>78.4</ele>
        <time>2019-06-21T16:14:44Z</time>
      </trkpt>
      <trkpt lat="42.3265490" lon="-8.6061670">
        <ele>77.2</ele>
        <time>2019-06-21T16:14:45Z</time>
      </trkpt>
      <trkpt lat="42.3266150" lon="-8.6061370">
        <ele>76.0</ele>
        <time>2019-06-21T16:14:46Z</time>
      </trkpt>
      <trkpt lat="42.3266900" lon="-8.6060740">
        <ele>75.0</ele>
        <time>2019-06-21T16:14:47Z</time>
      </trkpt>
      <trkpt lat="42.3267610" lon="-8.6059930">
        <ele>74.2</ele>
        <time>2019-06-21T16:14:48Z</time>
      </trkpt>
      <trkpt lat="42.3268310" lon="-8.6059070">
        <ele>73.2</ele>
        <time>2019-06-21T16:14:49Z</time>
      </trkpt>
      <trkpt lat="42.3269930" lon="-8.6057610">
        <ele>71.6</ele>
        <time>2019-06-21T16:14:51Z</time>
      </trkpt>
      <trkpt lat="42.3270670" lon="-8.6057020">
        <ele>71.2</ele>
        <time>2019-06-21T16:14:52Z</time>
      </trkpt>
      <trkpt lat="42.3271970" lon="-8.6055940">
        <ele>71.4</ele>
        <time>2019-06-21T16:14:55Z</time>
      </trkpt>
      <trkpt lat="42.3272600" lon="-8.6056270">
        <ele>71.2</ele>
        <time>2019-06-21T16:14:58Z</time>
      </trkpt>
      <trkpt lat="42.3271770" lon="-8.6056940">
        <ele>70.6</ele>
        <time>2019-06-21T16:15:01Z</time>
      </trkpt>
      <trkpt lat="42.3271030" lon="-8.6056630">
        <ele>70.8</ele>
        <time>2019-06-21T16:15:04Z</time>
      </trkpt>
      <trkpt lat="42.3270520" lon="-8.6056250">
        <ele>71.4</ele>
        <time>2019-06-21T16:15:08Z</time>
      </trkpt>
      <trkpt lat="42.3270340" lon="-8.6056220">
        <ele>71.4</ele>
        <time>2019-06-21T16:15:10Z</time>
      </trkpt>
      <trkpt lat="42.3271370" lon="-8.6056530">
        <ele>71.8</ele>
        <time>2019-06-21T16:23:13Z</time>
      </trkpt>
      <trkpt lat="42.3271820" lon="-8.6056380">
        <ele>71.8</ele>
        <time>2019-06-21T16:23:15Z</time>
      </trkpt>
      <trkpt lat="42.3273160" lon="-8.6055870">
        <ele>72.0</ele>
        <time>2019-06-21T16:23:20Z</time>
      </trkpt>
      <trkpt lat="42.3273710" lon="-8.6055780">
        <ele>72.4</ele>
        <time>2019-06-21T16:23:22Z</time>
      </trkpt>
      <trkpt lat="42.3273960" lon="-8.6055770">
        <ele>72.6</ele>
        <time>2019-06-21T16:23:23Z</time>
      </trkpt>
      <trkpt lat="42.3274950" lon="-8.6055880">
        <ele>73.0</ele>
        <time>2019-06-21T16:23:27Z</time>
      </trkpt>
      <trkpt lat="42.3276310" lon="-8.6056270">
        <ele>73.6</ele>
        <time>2019-06-21T16:23:32Z</time>
      </trkpt>
      <trkpt lat="42.3277330" lon="-8.6056590">
        <ele>74.2</ele>
        <time>2019-06-21T16:23:36Z</time>
      </trkpt>
      <trkpt lat="42.3278080" lon="-8.6056650">
        <ele>74.6</ele>
        <time>2019-06-21T16:23:39Z</time>
      </trkpt>
      <trkpt lat="42.3278500" lon="-8.6056580">
        <ele>75.0</ele>
        <time>2019-06-21T16:23:41Z</time>
      </trkpt>
      <trkpt lat="42.3279930" lon="-8.6056780">
        <ele>75.6</ele>
        <time>2019-06-21T16:23:47Z</time>
      </trkpt>
      <trkpt lat="42.3280160" lon="-8.6056820">
        <ele>75.8</ele>
        <time>2019-06-21T16:23:48Z</time>
      </trkpt>
      <trkpt lat="42.3281340" lon="-8.6057070">
        <ele>76.6</ele>
        <time>2019-06-21T16:23:53Z</time>
      </trkpt>
      <trkpt lat="42.3282080" lon="-8.6057310">
        <ele>76.8</ele>
        <time>2019-06-21T16:23:56Z</time>
      </trkpt>
      <trkpt lat="42.3282330" lon="-8.6057360">
        <ele>77.0</ele>
        <time>2019-06-21T16:23:57Z</time>
      </trkpt>
      <trkpt lat="42.3283800" lon="-8.6057950">
        <ele>77.6</ele>
        <time>2019-06-21T16:24:03Z</time>
      </trkpt>
      <trkpt lat="42.3284760" lon="-8.6058390">
        <ele>78.0</ele>
        <time>2019-06-21T16:24:07Z</time>
      </trkpt>
      <trkpt lat="42.3285450" lon="-8.6058790">
        <ele>78.2</ele>
        <time>2019-06-21T16:24:10Z</time>
      </trkpt>
      <trkpt lat="42.3286790" lon="-8.6059710">
        <ele>79.2</ele>
        <time>2019-06-21T16:24:16Z</time>
      </trkpt>
      <trkpt lat="42.3287020" lon="-8.6059850">
        <ele>79.2</ele>
        <time>2019-06-21T16:24:17Z</time>
      </trkpt>
      <trkpt lat="42.3288920" lon="-8.6061080">
        <ele>80.2</ele>
        <time>2019-06-21T16:24:25Z</time>
      </trkpt>
      <trkpt lat="42.3289170" lon="-8.6061210">
        <ele>80.2</ele>
        <time>2019-06-21T16:24:26Z</time>
      </trkpt>
      <trkpt lat="42.3290820" lon="-8.6062500">
        <ele>81.0</ele>
        <time>2019-06-21T16:24:33Z</time>
      </trkpt>
      <trkpt lat="42.3291030" lon="-8.6062680">
        <ele>81.2</ele>
        <time>2019-06-21T16:24:34Z</time>
      </trkpt>
      <trkpt lat="42.3292660" lon="-8.6063840">
        <ele>82.2</ele>
        <time>2019-06-21T16:24:41Z</time>
      </trkpt>
      <trkpt lat="42.3292890" lon="-8.6064030">
        <ele>82.6</ele>
        <time>2019-06-21T16:24:42Z</time>
      </trkpt>
      <trkpt lat="42.3294670" lon="-8.6065140">
        <ele>83.4</ele>
        <time>2019-06-21T16:24:49Z</time>
      </trkpt>
      <trkpt lat="42.3295190" lon="-8.6065460">
        <ele>83.6</ele>
        <time>2019-06-21T16:24:51Z</time>
      </trkpt>
      <trkpt lat="42.3296510" lon="-8.6066130">
        <ele>84.4</ele>
        <time>2019-06-21T16:24:56Z</time>
      </trkpt>
      <trkpt lat="42.3297880" lon="-8.6066620">
        <ele>85.0</ele>
        <time>2019-06-21T16:25:01Z</time>
      </trkpt>
      <trkpt lat="42.3298440" lon="-8.6066790">
        <ele>85.6</ele>
        <time>2019-06-21T16:25:03Z</time>
      </trkpt>
      <trkpt lat="42.3300360" lon="-8.6067150">
        <ele>86.6</ele>
        <time>2019-06-21T16:25:10Z</time>
      </trkpt>
      <trkpt lat="42.3302580" lon="-8.6067460">
        <ele>87.6</ele>
        <time>2019-06-21T16:25:18Z</time>
      </trkpt>
      <trkpt lat="42.3302850" lon="-8.6067530">
        <ele>87.6</ele>
        <time>2019-06-21T16:25:19Z</time>
      </trkpt>
      <trkpt lat="42.3304690" lon="-8.6067550">
        <ele>88.0</ele>
        <time>2019-06-21T16:25:25Z</time>
      </trkpt>
      <trkpt lat="42.3305300" lon="-8.6067620">
        <ele>88.6</ele>
        <time>2019-06-21T16:25:27Z</time>
      </trkpt>
      <trkpt lat="42.3307120" lon="-8.6067870">
        <ele>90.0</ele>
        <time>2019-06-21T16:25:33Z</time>
      </trkpt>
      <trkpt lat="42.3307430" lon="-8.6067890">
        <ele>90.2</ele>
        <time>2019-06-21T16:25:34Z</time>
      </trkpt>
      <trkpt lat="42.3308930" lon="-8.6068070">
        <ele>91.0</ele>
        <time>2019-06-21T16:25:39Z</time>
      </trkpt>
      <trkpt lat="42.3310650" lon="-8.6068270">
        <ele>91.4</ele>
        <time>2019-06-21T16:25:45Z</time>
      </trkpt>
      <trkpt lat="42.3312140" lon="-8.6068420">
        <ele>92.0</ele>
        <time>2019-06-21T16:25:50Z</time>
      </trkpt>
      <trkpt lat="42.3313050" lon="-8.6068490">
        <ele>92.4</ele>
        <time>2019-06-21T16:25:53Z</time>
      </trkpt>
      <trkpt lat="42.3316000" lon="-8.6068800">
        <ele>92.8</ele>
        <time>2019-06-21T16:26:01Z</time>
      </trkpt>
      <trkpt lat="42.3318390" lon="-8.6068870">
        <ele>92.4</ele>
        <time>2019-06-21T16:26:07Z</time>
      </trkpt>
      <trkpt lat="42.3318790" lon="-8.6069050">
        <ele>92.4</ele>
        <time>2019-06-21T16:26:08Z</time>
      </trkpt>
      <trkpt lat="42.3319640" lon="-8.6069420">
        <ele>92.4</ele>
        <time>2019-06-21T16:26:10Z</time>
      </trkpt>
      <trkpt lat="42.3321200" lon="-8.6069560">
        <ele>92.0</ele>
        <time>2019-06-21T16:26:13Z</time>
      </trkpt>
      <trkpt lat="42.3321750" lon="-8.6069570">
        <ele>91.4</ele>
        <time>2019-06-21T16:26:14Z</time>
      </trkpt>
      <trkpt lat="42.3322270" lon="-8.6069530">
        <ele>91.0</ele>
        <time>2019-06-21T16:26:15Z</time>
      </trkpt>
      <trkpt lat="42.3323190" lon="-8.6069390">
        <ele>90.4</ele>
        <time>2019-06-21T16:26:17Z</time>
      </trkpt>
      <trkpt lat="42.3323580" lon="-8.6069330">
        <ele>90.2</ele>
        <time>2019-06-21T16:26:18Z</time>
      </trkpt>
      <trkpt lat="42.3324310" lon="-8.6069200">
        <ele>90.0</ele>
        <time>2019-06-21T16:26:20Z</time>
      </trkpt>
      <trkpt lat="42.3325150" lon="-8.6069160">
        <ele>89.2</ele>
        <time>2019-06-21T16:26:23Z</time>
      </trkpt>
      <trkpt lat="42.3325410" lon="-8.6069090">
        <ele>89.2</ele>
        <time>2019-06-21T16:26:24Z</time>
      </trkpt>
      <trkpt lat="42.3326030" lon="-8.6068970">
        <ele>89.4</ele>
        <time>2019-06-21T16:26:26Z</time>
      </trkpt>
      <trkpt lat="42.3327160" lon="-8.6068920">
        <ele>88.8</ele>
        <time>2019-06-21T16:26:29Z</time>
      </trkpt>
      <trkpt lat="42.3328180" lon="-8.6068990">
        <ele>87.8</ele>
        <time>2019-06-21T16:26:32Z</time>
      </trkpt>
      <trkpt lat="42.3328450" lon="-8.6069120">
        <ele>87.6</ele>
        <time>2019-06-21T16:26:33Z</time>
      </trkpt>
      <trkpt lat="42.3328670" lon="-8.6069330">
        <ele>87.4</ele>
        <time>2019-06-21T16:26:34Z</time>
      </trkpt>
      <trkpt lat="42.3329310" lon="-8.6071510">
        <ele>88.0</ele>
        <time>2019-06-21T16:26:40Z</time>
      </trkpt>
      <trkpt lat="42.3330100" lon="-8.6072810">
        <ele>88.0</ele>
        <time>2019-06-21T16:26:44Z</time>
      </trkpt>
      <trkpt lat="42.3330750" lon="-8.6073300">
        <ele>87.8</ele>
        <time>2019-06-21T16:26:46Z</time>
      </trkpt>
      <trkpt lat="42.3331510" lon="-8.6073720">
        <ele>87.8</ele>
        <time>2019-06-21T16:26:48Z</time>
      </trkpt>
      <trkpt lat="42.3331930" lon="-8.6073860">
        <ele>87.8</ele>
        <time>2019-06-21T16:26:49Z</time>
      </trkpt>
      <trkpt lat="42.3334530" lon="-8.6074390">
        <ele>86.8</ele>
        <time>2019-06-21T16:26:54Z</time>
      </trkpt>
      <trkpt lat="42.3338450" lon="-8.6074130">
        <ele>85.6</ele>
        <time>2019-06-21T16:27:00Z</time>
      </trkpt>
      <trkpt lat="42.3339970" lon="-8.6074230">
        <ele>84.6</ele>
        <time>2019-06-21T16:27:02Z</time>
      </trkpt>
      <trkpt lat="42.3341580" lon="-8.6074370">
        <ele>83.6</ele>
        <time>2019-06-21T16:27:04Z</time>
      </trkpt>
      <trkpt lat="42.3343300" lon="-8.6074240">
        <ele>82.2</ele>
        <time>2019-06-21T16:27:06Z</time>
      </trkpt>
      <trkpt lat="42.3344970" lon="-8.6074120">
        <ele>80.8</ele>
        <time>2019-06-21T16:27:08Z</time>
      </trkpt>
      <trkpt lat="42.3345740" lon="-8.6074030">
        <ele>80.4</ele>
        <time>2019-06-21T16:27:09Z</time>
      </trkpt>
      <trkpt lat="42.3346480" lon="-8.6073960">
        <ele>79.6</ele>
        <time>2019-06-21T16:27:10Z</time>
      </trkpt>
      <trkpt lat="42.3347850" lon="-8.6074100">
        <ele>78.2</ele>
        <time>2019-06-21T16:27:12Z</time>
      </trkpt>
      <trkpt lat="42.3348510" lon="-8.6074350">
        <ele>77.8</ele>
        <time>2019-06-21T16:27:13Z</time>
      </trkpt>
      <trkpt lat="42.3349850" lon="-8.6075040">
        <ele>77.0</ele>
        <time>2019-06-21T16:27:15Z</time>
      </trkpt>
      <trkpt lat="42.3350440" lon="-8.6075410">
        <ele>76.6</ele>
        <time>2019-06-21T16:27:16Z</time>
      </trkpt>
      <trkpt lat="42.3350960" lon="-8.6075730">
        <ele>76.2</ele>
        <time>2019-06-21T16:27:17Z</time>
      </trkpt>
      <trkpt lat="42.3352020" lon="-8.6076480">
        <ele>76.0</ele>
        <time>2019-06-21T16:27:20Z</time>
      </trkpt>
      <trkpt lat="42.3352260" lon="-8.6076760">
        <ele>75.8</ele>
        <time>2019-06-21T16:27:21Z</time>
      </trkpt>
      <trkpt lat="42.3352710" lon="-8.6077340">
        <ele>75.2</ele>
        <time>2019-06-21T16:27:23Z</time>
      </trkpt>
      <trkpt lat="42.3352920" lon="-8.6077650">
        <ele>74.6</ele>
        <time>2019-06-21T16:27:24Z</time>
      </trkpt>
      <trkpt lat="42.3353330" lon="-8.6078270">
        <ele>72.6</ele>
        <time>2019-06-21T16:27:26Z</time>
      </trkpt>
      <trkpt lat="42.3353670" lon="-8.6078850">
        <ele>71.0</ele>
        <time>2019-06-21T16:27:28Z</time>
      </trkpt>
      <trkpt lat="42.3353840" lon="-8.6079060">
        <ele>70.2</ele>
        <time>2019-06-21T16:27:29Z</time>
      </trkpt>
      <trkpt lat="42.3354060" lon="-8.6079170">
        <ele>69.6</ele>
        <time>2019-06-21T16:27:30Z</time>
      </trkpt>
      <trkpt lat="42.3354670" lon="-8.6079280">
        <ele>68.0</ele>
        <time>2019-06-21T16:27:32Z</time>
      </trkpt>
      <trkpt lat="42.3355070" lon="-8.6079210">
        <ele>67.0</ele>
        <time>2019-06-21T16:27:33Z</time>
      </trkpt>
      <trkpt lat="42.3355450" lon="-8.6078950">
        <ele>66.2</ele>
        <time>2019-06-21T16:27:34Z</time>
      </trkpt>
      <trkpt lat="42.3356330" lon="-8.6078380">
        <ele>65.6</ele>
        <time>2019-06-21T16:27:36Z</time>
      </trkpt>
      <trkpt lat="42.3357360" lon="-8.6078100">
        <ele>65.0</ele>
        <time>2019-06-21T16:27:38Z</time>
      </trkpt>
      <trkpt lat="42.3357840" lon="-8.6078000">
        <ele>64.8</ele>
        <time>2019-06-21T16:27:39Z</time>
      </trkpt>
      <trkpt lat="42.3358300" lon="-8.6077810">
        <ele>64.4</ele>
        <time>2019-06-21T16:27:40Z</time>
      </trkpt>
      <trkpt lat="42.3358720" lon="-8.6077490">
        <ele>64.2</ele>
        <time>2019-06-21T16:27:41Z</time>
      </trkpt>
      <trkpt lat="42.3359850" lon="-8.6075930">
        <ele>64.4</ele>
        <time>2019-06-21T16:27:45Z</time>
      </trkpt>
      <trkpt lat="42.3360010" lon="-8.6075640">
        <ele>64.6</ele>
        <time>2019-06-21T16:27:46Z</time>
      </trkpt>
      <trkpt lat="42.3360290" lon="-8.6075080">
        <ele>65.2</ele>
        <time>2019-06-21T16:27:48Z</time>
      </trkpt>
      <trkpt lat="42.3360530" lon="-8.6074590">
        <ele>66.2</ele>
        <time>2019-06-21T16:27:50Z</time>
      </trkpt>
      <trkpt lat="42.3360790" lon="-8.6074150">
        <ele>66.8</ele>
        <time>2019-06-21T16:27:52Z</time>
      </trkpt>
      <trkpt lat="42.3360920" lon="-8.6073950">
        <ele>67.0</ele>
        <time>2019-06-21T16:27:53Z</time>
      </trkpt>
      <trkpt lat="42.3361050" lon="-8.6073770">
        <ele>67.2</ele>
        <time>2019-06-21T16:27:54Z</time>
      </trkpt>
      <trkpt lat="42.3361310" lon="-8.6073530">
        <ele>68.0</ele>
        <time>2019-06-21T16:27:56Z</time>
      </trkpt>
      <trkpt lat="42.3361570" lon="-8.6073370">
        <ele>68.4</ele>
        <time>2019-06-21T16:27:58Z</time>
      </trkpt>
      <trkpt lat="42.3361630" lon="-8.6073260">
        <ele>68.6</ele>
        <time>2019-06-21T16:27:59Z</time>
      </trkpt>
      <trkpt lat="42.3361640" lon="-8.6073100">
        <ele>68.6</ele>
        <time>2019-06-21T16:28:00Z</time>
      </trkpt>
      <trkpt lat="42.3361370" lon="-8.6072520">
        <ele>69.2</ele>
        <time>2019-06-21T16:28:03Z</time>
      </trkpt>
      <trkpt lat="42.3360790" lon="-8.6072090">
        <ele>69.6</ele>
        <time>2019-06-21T16:28:07Z</time>
      </trkpt>
      <trkpt lat="42.3360520" lon="-8.6071630">
        <ele>70.0</ele>
        <time>2019-06-21T16:28:10Z</time>
      </trkpt>
      <trkpt lat="42.3361100" lon="-8.6071390">
        <ele>69.6</ele>
        <time>2019-06-21T16:28:13Z</time>
      </trkpt>
      <trkpt lat="42.3361690" lon="-8.6071670">
        <ele>69.2</ele>
        <time>2019-06-21T16:28:15Z</time>
      </trkpt>
      <trkpt lat="42.3362650" lon="-8.6071810">
        <ele>69.0</ele>
        <time>2019-06-21T16:28:18Z</time>
      </trkpt>
      <trkpt lat="42.3363520" lon="-8.6070880">
        <ele>69.4</ele>
        <time>2019-06-21T16:28:22Z</time>
      </trkpt>
      <trkpt lat="42.3363920" lon="-8.6070040">
        <ele>70.0</ele>
        <time>2019-06-21T16:28:27Z</time>
      </trkpt>
      <trkpt lat="42.3364080" lon="-8.6069560">
        <ele>70.6</ele>
        <time>2019-06-21T16:28:30Z</time>
      </trkpt>
      <trkpt lat="42.3364220" lon="-8.6069160">
        <ele>70.8</ele>
        <time>2019-06-21T16:28:32Z</time>
      </trkpt>
      <trkpt lat="42.3364310" lon="-8.6068950">
        <ele>71.0</ele>
        <time>2019-06-21T16:28:33Z</time>
      </trkpt>
      <trkpt lat="42.3364800" lon="-8.6067580">
        <ele>71.8</ele>
        <time>2019-06-21T16:28:40Z</time>
      </trkpt>
      <trkpt lat="42.3364900" lon="-8.6067480">
        <ele>71.8</ele>
        <time>2019-06-21T16:28:41Z</time>
      </trkpt>
      <trkpt lat="42.3365480" lon="-8.6067350">
        <ele>71.8</ele>
        <time>2019-06-21T16:28:45Z</time>
      </trkpt>
      <trkpt lat="42.3366170" lon="-8.6067020">
        <ele>72.4</ele>
        <time>2019-06-21T16:28:51Z</time>
      </trkpt>
      <trkpt lat="42.3366150" lon="-8.6067020">
        <ele>72.4</ele>
        <time>2019-06-21T16:28:52Z</time>
      </trkpt>
      <trkpt lat="42.3366750" lon="-8.6066760">
        <ele>72.6</ele>
        <time>2019-06-21T16:29:38Z</time>
      </trkpt>
      <trkpt lat="42.3366960" lon="-8.6066660">
        <ele>72.6</ele>
        <time>2019-06-21T16:29:39Z</time>
      </trkpt>
      <trkpt lat="42.3367210" lon="-8.6066570">
        <ele>72.6</ele>
        <time>2019-06-21T16:29:40Z</time>
      </trkpt>
      <trkpt lat="42.3367480" lon="-8.6066470">
        <ele>72.8</ele>
        <time>2019-06-21T16:29:41Z</time>
      </trkpt>
      <trkpt lat="42.3369060" lon="-8.6066190">
        <ele>73.4</ele>
        <time>2019-06-21T16:29:46Z</time>
      </trkpt>
      <trkpt lat="42.3371780" lon="-8.6065900">
        <ele>73.8</ele>
        <time>2019-06-21T16:29:53Z</time>
      </trkpt>
      <trkpt lat="42.3373960" lon="-8.6066320">
        <ele>73.8</ele>
        <time>2019-06-21T16:29:59Z</time>
      </trkpt>
      <trkpt lat="42.3374310" lon="-8.6066410">
        <ele>73.8</ele>
        <time>2019-06-21T16:30:00Z</time>
      </trkpt>
      <trkpt lat="42.3375840" lon="-8.6066040">
        <ele>73.8</ele>
        <time>2019-06-21T16:30:04Z</time>
      </trkpt>
      <trkpt lat="42.3378350" lon="-8.6064920">
        <ele>72.8</ele>
        <time>2019-06-21T16:30:09Z</time>
      </trkpt>
      <trkpt lat="42.3378940" lon="-8.6064760">
        <ele>72.8</ele>
        <time>2019-06-21T16:30:10Z</time>
      </trkpt>
      <trkpt lat="42.3379540" lon="-8.6064710">
        <ele>72.2</ele>
        <time>2019-06-21T16:30:11Z</time>
      </trkpt>
      <trkpt lat="42.3380770" lon="-8.6064700">
        <ele>71.6</ele>
        <time>2019-06-21T16:30:13Z</time>
      </trkpt>
      <trkpt lat="42.3381380" lon="-8.6064650">
        <ele>70.8</ele>
        <time>2019-06-21T16:30:14Z</time>
      </trkpt>
      <trkpt lat="42.3381970" lon="-8.6064620">
        <ele>70.2</ele>
        <time>2019-06-21T16:30:15Z</time>
      </trkpt>
      <trkpt lat="42.3383210" lon="-8.6064750">
        <ele>68.6</ele>
        <time>2019-06-21T16:30:17Z</time>
      </trkpt>
      <trkpt lat="42.3384510" lon="-8.6064990">
        <ele>67.6</ele>
        <time>2019-06-21T16:30:19Z</time>
      </trkpt>
      <trkpt lat="42.3385650" lon="-8.6065180">
        <ele>66.4</ele>
        <time>2019-06-21T16:30:21Z</time>
      </trkpt>
      <trkpt lat="42.3386230" lon="-8.6065120">
        <ele>65.6</ele>
        <time>2019-06-21T16:30:22Z</time>
      </trkpt>
      <trkpt lat="42.3386820" lon="-8.6064820">
        <ele>65.2</ele>
        <time>2019-06-21T16:30:23Z</time>
      </trkpt>
      <trkpt lat="42.3388430" lon="-8.6064000">
        <ele>64.8</ele>
        <time>2019-06-21T16:30:26Z</time>
      </trkpt>
      <trkpt lat="42.3389450" lon="-8.6063870">
        <ele>65.2</ele>
        <time>2019-06-21T16:30:28Z</time>
      </trkpt>
      <trkpt lat="42.3391230" lon="-8.6064490">
        <ele>64.8</ele>
        <time>2019-06-21T16:30:32Z</time>
      </trkpt>
      <trkpt lat="42.3391920" lon="-8.6065160">
        <ele>64.8</ele>
        <time>2019-06-21T16:30:34Z</time>
      </trkpt>
      <trkpt lat="42.3392620" lon="-8.6065730">
        <ele>64.8</ele>
        <time>2019-06-21T16:30:36Z</time>
      </trkpt>
      <trkpt lat="42.3393000" lon="-8.6065910">
        <ele>64.8</ele>
        <time>2019-06-21T16:30:37Z</time>
      </trkpt>
      <trkpt lat="42.3395510" lon="-8.6066560">
        <ele>64.8</ele>
        <time>2019-06-21T16:30:43Z</time>
      </trkpt>
      <trkpt lat="42.3396380" lon="-8.6066590">
        <ele>64.8</ele>
        <time>2019-06-21T16:30:45Z</time>
      </trkpt>
      <trkpt lat="42.3397300" lon="-8.6066470">
        <ele>64.6</ele>
        <time>2019-06-21T16:30:47Z</time>
      </trkpt>
      <trkpt lat="42.3398260" lon="-8.6066330">
        <ele>64.2</ele>
        <time>2019-06-21T16:30:49Z</time>
      </trkpt>
      <trkpt lat="42.3398690" lon="-8.6066440">
        <ele>64.0</ele>
        <time>2019-06-21T16:30:50Z</time>
      </trkpt>
      <trkpt lat="42.3400230" lon="-8.6067860">
        <ele>63.4</ele>
        <time>2019-06-21T16:30:54Z</time>
      </trkpt>
      <trkpt lat="42.3400690" lon="-8.6068250">
        <ele>63.2</ele>
        <time>2019-06-21T16:30:55Z</time>
      </trkpt>
      <trkpt lat="42.3401180" lon="-8.6068570">
        <ele>63.0</ele>
        <time>2019-06-21T16:30:56Z</time>
      </trkpt>
      <trkpt lat="42.3402630" lon="-8.6069370">
        <ele>62.4</ele>
        <time>2019-06-21T16:30:59Z</time>
      </trkpt>
      <trkpt lat="42.3403120" lon="-8.6069600">
        <ele>61.8</ele>
        <time>2019-06-21T16:31:00Z</time>
      </trkpt>
      <trkpt lat="42.3403970" lon="-8.6070060">
        <ele>60.2</ele>
        <time>2019-06-21T16:31:02Z</time>
      </trkpt>
      <trkpt lat="42.3404760" lon="-8.6070610">
        <ele>59.6</ele>
        <time>2019-06-21T16:31:04Z</time>
      </trkpt>
      <trkpt lat="42.3405210" lon="-8.6070860">
        <ele>59.2</ele>
        <time>2019-06-21T16:31:05Z</time>
      </trkpt>
      <trkpt lat="42.3407140" lon="-8.6071220">
        <ele>57.8</ele>
        <time>2019-06-21T16:31:09Z</time>
      </trkpt>
      <trkpt lat="42.3407630" lon="-8.6071180">
        <ele>57.4</ele>
        <time>2019-06-21T16:31:10Z</time>
      </trkpt>
      <trkpt lat="42.3408100" lon="-8.6071210">
        <ele>57.0</ele>
        <time>2019-06-21T16:31:11Z</time>
      </trkpt>
      <trkpt lat="42.3408520" lon="-8.6071410">
        <ele>56.6</ele>
        <time>2019-06-21T16:31:12Z</time>
      </trkpt>
      <trkpt lat="42.3408870" lon="-8.6071870">
        <ele>56.4</ele>
        <time>2019-06-21T16:31:13Z</time>
      </trkpt>
      <trkpt lat="42.3409170" lon="-8.6073130">
        <ele>55.8</ele>
        <time>2019-06-21T16:31:15Z</time>
      </trkpt>
      <trkpt lat="42.3409300" lon="-8.6073800">
        <ele>55.4</ele>
        <time>2019-06-21T16:31:16Z</time>
      </trkpt>
      <trkpt lat="42.3409730" lon="-8.6076590">
        <ele>54.4</ele>
        <time>2019-06-21T16:31:20Z</time>
      </trkpt>
      <trkpt lat="42.3409810" lon="-8.6077930">
        <ele>54.4</ele>
        <time>2019-06-21T16:31:22Z</time>
      </trkpt>
      <trkpt lat="42.3409830" lon="-8.6079230">
        <ele>54.0</ele>
        <time>2019-06-21T16:31:24Z</time>
      </trkpt>
      <trkpt lat="42.3410370" lon="-8.6080660">
        <ele>53.6</ele>
        <time>2019-06-21T16:31:27Z</time>
      </trkpt>
      <trkpt lat="42.3411530" lon="-8.6082020">
        <ele>53.6</ele>
        <time>2019-06-21T16:31:31Z</time>
      </trkpt>
      <trkpt lat="42.3411790" lon="-8.6082410">
        <ele>53.6</ele>
        <time>2019-06-21T16:31:32Z</time>
      </trkpt>
      <trkpt lat="42.3413600" lon="-8.6084920">
        <ele>53.2</ele>
        <time>2019-06-21T16:31:38Z</time>
      </trkpt>
      <trkpt lat="42.3413950" lon="-8.6085440">
        <ele>53.0</ele>
        <time>2019-06-21T16:31:39Z</time>
      </trkpt>
      <trkpt lat="42.3414550" lon="-8.6086300">
        <ele>52.2</ele>
        <time>2019-06-21T16:31:41Z</time>
      </trkpt>
      <trkpt lat="42.3414900" lon="-8.6086870">
        <ele>51.6</ele>
        <time>2019-06-21T16:31:43Z</time>
      </trkpt>
      <trkpt lat="42.3416030" lon="-8.6087290">
        <ele>51.2</ele>
        <time>2019-06-21T16:31:47Z</time>
      </trkpt>
      <trkpt lat="42.3417970" lon="-8.6087140">
        <ele>50.4</ele>
        <time>2019-06-21T16:31:52Z</time>
      </trkpt>
      <trkpt lat="42.3418880" lon="-8.6087240">
        <ele>50.2</ele>
        <time>2019-06-21T16:31:54Z</time>
      </trkpt>
      <trkpt lat="42.3420610" lon="-8.6087720">
        <ele>49.2</ele>
        <time>2019-06-21T16:31:58Z</time>
      </trkpt>
      <trkpt lat="42.3420860" lon="-8.6087800">
        <ele>49.0</ele>
        <time>2019-06-21T16:31:59Z</time>
      </trkpt>
      <trkpt lat="42.3421230" lon="-8.6087780">
        <ele>48.4</ele>
        <time>2019-06-21T16:32:02Z</time>
      </trkpt>
      <trkpt lat="42.3421630" lon="-8.6087530">
        <ele>48.4</ele>
        <time>2019-06-21T16:32:06Z</time>
      </trkpt>
      <trkpt lat="42.3421680" lon="-8.6087690">
        <ele>48.4</ele>
        <time>2019-06-21T16:32:07Z</time>
      </trkpt>
      <trkpt lat="42.3422490" lon="-8.6088450">
        <ele>48.6</ele>
        <time>2019-06-21T16:32:11Z</time>
      </trkpt>
      <trkpt lat="42.3422770" lon="-8.6088580">
        <ele>48.6</ele>
        <time>2019-06-21T16:32:12Z</time>
      </trkpt>
      <trkpt lat="42.3424700" lon="-8.6089390">
        <ele>48.6</ele>
        <time>2019-06-21T16:32:18Z</time>
      </trkpt>
      <trkpt lat="42.3427150" lon="-8.6090000">
        <ele>48.4</ele>
        <time>2019-06-21T16:32:24Z</time>
      </trkpt>
      <trkpt lat="42.3428070" lon="-8.6090000">
        <ele>48.2</ele>
        <time>2019-06-21T16:32:26Z</time>
      </trkpt>
      <trkpt lat="42.3430050" lon="-8.6089680">
        <ele>48.0</ele>
        <time>2019-06-21T16:32:30Z</time>
      </trkpt>
      <trkpt lat="42.3431940" lon="-8.6089360">
        <ele>47.8</ele>
        <time>2019-06-21T16:32:34Z</time>
      </trkpt>
      <trkpt lat="42.3432390" lon="-8.6089290">
        <ele>47.6</ele>
        <time>2019-06-21T16:32:35Z</time>
      </trkpt>
      <trkpt lat="42.3433660" lon="-8.6089250">
        <ele>46.2</ele>
        <time>2019-06-21T16:32:38Z</time>
      </trkpt>
      <trkpt lat="42.3433950" lon="-8.6089120">
        <ele>46.0</ele>
        <time>2019-06-21T16:32:39Z</time>
      </trkpt>
      <trkpt lat="42.3434830" lon="-8.6088210">
        <ele>45.0</ele>
        <time>2019-06-21T16:32:42Z</time>
      </trkpt>
      <trkpt lat="42.3435160" lon="-8.6087730">
        <ele>44.6</ele>
        <time>2019-06-21T16:32:43Z</time>
      </trkpt>
      <trkpt lat="42.3435450" lon="-8.6087170">
        <ele>44.0</ele>
        <time>2019-06-21T16:32:44Z</time>
      </trkpt>
      <trkpt lat="42.3436290" lon="-8.6085790">
        <ele>42.6</ele>
        <time>2019-06-21T16:32:46Z</time>
      </trkpt>
      <trkpt lat="42.3437520" lon="-8.6084270">
        <ele>41.0</ele>
        <time>2019-06-21T16:32:48Z</time>
      </trkpt>
      <trkpt lat="42.3438230" lon="-8.6083540">
        <ele>40.2</ele>
        <time>2019-06-21T16:32:49Z</time>
      </trkpt>
      <trkpt lat="42.3438890" lon="-8.6082940">
        <ele>39.6</ele>
        <time>2019-06-21T16:32:50Z</time>
      </trkpt>
      <trkpt lat="42.3439530" lon="-8.6082400">
        <ele>39.2</ele>
        <time>2019-06-21T16:32:51Z</time>
      </trkpt>
      <trkpt lat="42.3440610" lon="-8.6081200">
        <ele>39.0</ele>
        <time>2019-06-21T16:32:53Z</time>
      </trkpt>
      <trkpt lat="42.3441830" lon="-8.6078720">
        <ele>40.0</ele>
        <time>2019-06-21T16:32:57Z</time>
      </trkpt>
      <trkpt lat="42.3442250" lon="-8.6077790">
        <ele>40.8</ele>
        <time>2019-06-21T16:32:59Z</time>
      </trkpt>
      <trkpt lat="42.3442650" lon="-8.6076930">
        <ele>41.4</ele>
        <time>2019-06-21T16:33:01Z</time>
      </trkpt>
      <trkpt lat="42.3443110" lon="-8.6076110">
        <ele>41.8</ele>
        <time>2019-06-21T16:33:03Z</time>
      </trkpt>
      <trkpt lat="42.3443350" lon="-8.6075710">
        <ele>42.0</ele>
        <time>2019-06-21T16:33:04Z</time>
      </trkpt>
      <trkpt lat="42.3443780" lon="-8.6074950">
        <ele>42.4</ele>
        <time>2019-06-21T16:33:06Z</time>
      </trkpt>
      <trkpt lat="42.3444120" lon="-8.6074460">
        <ele>43.2</ele>
        <time>2019-06-21T16:33:08Z</time>
      </trkpt>
      <trkpt lat="42.3444300" lon="-8.6074300">
        <ele>43.6</ele>
        <time>2019-06-21T16:33:09Z</time>
      </trkpt>
      <trkpt lat="42.3444510" lon="-8.6074230">
        <ele>44.0</ele>
        <time>2019-06-21T16:33:10Z</time>
      </trkpt>
      <trkpt lat="42.3445520" lon="-8.6074430">
        <ele>43.6</ele>
        <time>2019-06-21T16:33:13Z</time>
      </trkpt>
      <trkpt lat="42.3447080" lon="-8.6074670">
        <ele>42.2</ele>
        <time>2019-06-21T16:33:16Z</time>
      </trkpt>
      <trkpt lat="42.3447750" lon="-8.6074570">
        <ele>41.8</ele>
        <time>2019-06-21T16:33:17Z</time>
      </trkpt>
      <trkpt lat="42.3448520" lon="-8.6074240">
        <ele>41.4</ele>
        <time>2019-06-21T16:33:18Z</time>
      </trkpt>
      <trkpt lat="42.3449830" lon="-8.6073300">
        <ele>40.2</ele>
        <time>2019-06-21T16:33:20Z</time>
      </trkpt>
      <trkpt lat="42.3450860" lon="-8.6072560">
        <ele>39.0</ele>
        <time>2019-06-21T16:33:22Z</time>
      </trkpt>
      <trkpt lat="42.3452050" lon="-8.6071700">
        <ele>37.8</ele>
        <time>2019-06-21T16:33:26Z</time>
      </trkpt>
      <trkpt lat="42.3452900" lon="-8.6070540">
        <ele>37.4</ele>
        <time>2019-06-21T16:33:31Z</time>
      </trkpt>
      <trkpt lat="42.3452950" lon="-8.6070500">
        <ele>37.0</ele>
        <time>2019-06-21T16:36:49Z</time>
      </trkpt>
      <trkpt lat="42.3453030" lon="-8.6070270">
        <ele>37.0</ele>
        <time>2019-06-21T16:36:50Z</time>
      </trkpt>
      <trkpt lat="42.3453350" lon="-8.6069500">
        <ele>37.2</ele>
        <time>2019-06-21T16:36:53Z</time>
      </trkpt>
      <trkpt lat="42.3453590" lon="-8.6069310">
        <ele>37.2</ele>
        <time>2019-06-21T16:36:54Z</time>
      </trkpt>
      <trkpt lat="42.3454580" lon="-8.6068920">
        <ele>36.8</ele>
        <time>2019-06-21T16:36:57Z</time>
      </trkpt>
      <trkpt lat="42.3455320" lon="-8.6068810">
        <ele>37.0</ele>
        <time>2019-06-21T16:36:59Z</time>
      </trkpt>
      <trkpt lat="42.3456380" lon="-8.6068660">
        <ele>37.0</ele>
        <time>2019-06-21T16:37:02Z</time>
      </trkpt>
      <trkpt lat="42.3457410" lon="-8.6068510">
        <ele>36.8</ele>
        <time>2019-06-21T16:37:05Z</time>
      </trkpt>
      <trkpt lat="42.3457770" lon="-8.6068450">
        <ele>36.6</ele>
        <time>2019-06-21T16:37:06Z</time>
      </trkpt>
      <trkpt lat="42.3458950" lon="-8.6068270">
        <ele>36.6</ele>
        <time>2019-06-21T16:37:09Z</time>
      </trkpt>
      <trkpt lat="42.3460820" lon="-8.6067990">
        <ele>36.4</ele>
        <time>2019-06-21T16:37:14Z</time>
      </trkpt>
      <trkpt lat="42.3462660" lon="-8.6067690">
        <ele>36.0</ele>
        <time>2019-06-21T16:37:19Z</time>
      </trkpt>
      <trkpt lat="42.3464850" lon="-8.6067460">
        <ele>35.6</ele>
        <time>2019-06-21T16:37:27Z</time>
      </trkpt>
      <trkpt lat="42.3466180" lon="-8.6067200">
        <ele>35.0</ele>
        <time>2019-06-21T16:37:31Z</time>
      </trkpt>
      <trkpt lat="42.3466950" lon="-8.6067440">
        <ele>35.0</ele>
        <time>2019-06-21T16:37:34Z</time>
      </trkpt>
      <trkpt lat="42.3468090" lon="-8.6068880">
        <ele>35.0</ele>
        <time>2019-06-21T16:37:40Z</time>
      </trkpt>
      <trkpt lat="42.3469210" lon="-8.6070330">
        <ele>35.0</ele>
        <time>2019-06-21T16:37:46Z</time>
      </trkpt>
      <trkpt lat="42.3469890" lon="-8.6071070">
        <ele>36.6</ele>
        <time>2019-06-21T16:37:51Z</time>
      </trkpt>
      <trkpt lat="42.3470030" lon="-8.6071160">
        <ele>36.8</ele>
        <time>2019-06-21T16:37:52Z</time>
      </trkpt>
      <trkpt lat="42.3470530" lon="-8.6071240">
        <ele>37.2</ele>
        <time>2019-06-21T16:37:55Z</time>
      </trkpt>
      <trkpt lat="42.3470850" lon="-8.6071300">
        <ele>38.0</ele>
        <time>2019-06-21T16:37:57Z</time>
      </trkpt>
      <trkpt lat="42.3471160" lon="-8.6071240">
        <ele>38.4</ele>
        <time>2019-06-21T16:37:59Z</time>
      </trkpt>
      <trkpt lat="42.3471540" lon="-8.6071150">
        <ele>39.0</ele>
        <time>2019-06-21T16:38:02Z</time>
      </trkpt>
      <trkpt lat="42.3472180" lon="-8.6070970">
        <ele>39.8</ele>
        <time>2019-06-21T16:38:06Z</time>
      </trkpt>
      <trkpt lat="42.3472520" lon="-8.6070820">
        <ele>40.0</ele>
        <time>2019-06-21T16:38:08Z</time>
      </trkpt>
      <trkpt lat="42.3472680" lon="-8.6070750">
        <ele>40.0</ele>
        <time>2019-06-21T16:38:09Z</time>
      </trkpt>
      <trkpt lat="42.3473170" lon="-8.6070560">
        <ele>40.2</ele>
        <time>2019-06-21T16:38:12Z</time>
      </trkpt>
      <trkpt lat="42.3473720" lon="-8.6070400">
        <ele>41.0</ele>
        <time>2019-06-21T16:38:16Z</time>
      </trkpt>
      <trkpt lat="42.3473860" lon="-8.6070360">
        <ele>41.0</ele>
        <time>2019-06-21T16:38:17Z</time>
      </trkpt>
      <trkpt lat="42.3474710" lon="-8.6070100">
        <ele>41.6</ele>
        <time>2019-06-21T16:38:23Z</time>
      </trkpt>
      <trkpt lat="42.3474850" lon="-8.6070090">
        <ele>41.8</ele>
        <time>2019-06-21T16:38:24Z</time>
      </trkpt>
      <trkpt lat="42.3475140" lon="-8.6070150">
        <ele>42.2</ele>
        <time>2019-06-21T16:38:26Z</time>
      </trkpt>
      <trkpt lat="42.3475620" lon="-8.6070160">
        <ele>43.0</ele>
        <time>2019-06-21T16:38:30Z</time>
      </trkpt>
      <trkpt lat="42.3475660" lon="-8.6070710">
        <ele>43.0</ele>
        <time>2019-06-21T16:38:35Z</time>
      </trkpt>
      <trkpt lat="42.3475380" lon="-8.6070810">
        <ele>42.8</ele>
        <time>2019-06-21T16:38:37Z</time>
      </trkpt>
      <trkpt lat="42.3474730" lon="-8.6070890">
        <ele>42.2</ele>
        <time>2019-06-21T16:38:39Z</time>
      </trkpt>
      <trkpt lat="42.3472450" lon="-8.6071310">
        <ele>41.0</ele>
        <time>2019-06-21T16:38:44Z</time>
      </trkpt>
      <trkpt lat="42.3472000" lon="-8.6071450">
        <ele>40.6</ele>
        <time>2019-06-21T16:38:45Z</time>
      </trkpt>
      <trkpt lat="42.3470720" lon="-8.6071930">
        <ele>39.8</ele>
        <time>2019-06-21T16:38:48Z</time>
      </trkpt>
      <trkpt lat="42.3469730" lon="-8.6072230">
        <ele>38.6</ele>
        <time>2019-06-21T16:38:51Z</time>
      </trkpt>
      <trkpt lat="42.3469250" lon="-8.6072790">
        <ele>37.6</ele>
        <time>2019-06-21T16:38:54Z</time>
      </trkpt>
      <trkpt lat="42.3469180" lon="-8.6073000">
        <ele>37.4</ele>
        <time>2019-06-21T16:38:55Z</time>
      </trkpt>
      <trkpt lat="42.3470180" lon="-8.6074630">
        <ele>41.2</ele>
        <time>2019-06-21T16:39:32Z</time>
      </trkpt>
      <trkpt lat="42.3470310" lon="-8.6074210">
        <ele>41.8</ele>
        <time>2019-06-21T16:39:35Z</time>
      </trkpt>
      <trkpt lat="42.3470510" lon="-8.6073940">
        <ele>42.2</ele>
        <time>2019-06-21T16:39:38Z</time>
      </trkpt>
      <trkpt lat="42.3470480" lon="-8.6073980">
        <ele>42.4</ele>
        <time>2019-06-21T16:39:39Z</time>
      </trkpt>
      <trkpt lat="42.3471120" lon="-8.6073620">
        <ele>43.0</ele>
        <time>2019-06-21T16:39:47Z</time>
      </trkpt>
      <trkpt lat="42.3471410" lon="-8.6073570">
        <ele>43.2</ele>
        <time>2019-06-21T16:39:49Z</time>
      </trkpt>
      <trkpt lat="42.3471660" lon="-8.6073510">
        <ele>43.6</ele>
        <time>2019-06-21T16:39:51Z</time>
      </trkpt>
      <trkpt lat="42.3472000" lon="-8.6073420">
        <ele>44.6</ele>
        <time>2019-06-21T16:39:54Z</time>
      </trkpt>
      <trkpt lat="42.3472610" lon="-8.6073420">
        <ele>45.0</ele>
        <time>2019-06-21T16:39:58Z</time>
      </trkpt>
      <trkpt lat="42.3473100" lon="-8.6073590">
        <ele>46.0</ele>
        <time>2019-06-21T16:40:01Z</time>
      </trkpt>
      <trkpt lat="42.3473500" lon="-8.6074080">
        <ele>47.0</ele>
        <time>2019-06-21T16:40:06Z</time>
      </trkpt>
      <trkpt lat="42.3473340" lon="-8.6074250">
        <ele>47.6</ele>
        <time>2019-06-21T16:40:10Z</time>
      </trkpt>
      <trkpt lat="42.3473410" lon="-8.6077000">
        <ele>51.8</ele>
        <time>2019-06-21T16:40:29Z</time>
      </trkpt>
      <trkpt lat="42.3473560" lon="-8.6077020">
        <ele>52.0</ele>
        <time>2019-06-21T16:40:30Z</time>
      </trkpt>
      <trkpt lat="42.3474110" lon="-8.6077100">
        <ele>52.8</ele>
        <time>2019-06-21T16:40:35Z</time>
      </trkpt>
      <trkpt lat="42.3474320" lon="-8.6077200">
        <ele>53.2</ele>
        <time>2019-06-21T16:40:37Z</time>
      </trkpt>
      <trkpt lat="42.3474860" lon="-8.6077440">
        <ele>53.8</ele>
        <time>2019-06-21T16:40:41Z</time>
      </trkpt>
      <trkpt lat="42.3475790" lon="-8.6077940">
        <ele>54.4</ele>
        <time>2019-06-21T16:40:48Z</time>
      </trkpt>
      <trkpt lat="42.3476660" lon="-8.6078510">
        <ele>54.4</ele>
        <time>2019-06-21T16:40:54Z</time>
      </trkpt>
      <trkpt lat="42.3477940" lon="-8.6078560">
        <ele>54.2</ele>
        <time>2019-06-21T16:40:58Z</time>
      </trkpt>
      <trkpt lat="42.3479400" lon="-8.6078380">
        <ele>52.6</ele>
        <time>2019-06-21T16:41:02Z</time>
      </trkpt>
      <trkpt lat="42.3480140" lon="-8.6078240">
        <ele>50.6</ele>
        <time>2019-06-21T16:41:04Z</time>
      </trkpt>
      <trkpt lat="42.3480550" lon="-8.6078190">
        <ele>49.8</ele>
        <time>2019-06-21T16:41:05Z</time>
      </trkpt>
      <trkpt lat="42.3480960" lon="-8.6078130">
        <ele>49.4</ele>
        <time>2019-06-21T16:41:06Z</time>
      </trkpt>
      <trkpt lat="42.3481720" lon="-8.6078030">
        <ele>48.0</ele>
        <time>2019-06-21T16:41:08Z</time>
      </trkpt>
      <trkpt lat="42.3482240" lon="-8.6078120">
        <ele>47.0</ele>
        <time>2019-06-21T16:41:10Z</time>
      </trkpt>
      <trkpt lat="42.3482430" lon="-8.6078230">
        <ele>46.8</ele>
        <time>2019-06-21T16:41:11Z</time>
      </trkpt>
      <trkpt lat="42.3482550" lon="-8.6078430">
        <ele>46.4</ele>
        <time>2019-06-21T16:41:12Z</time>
      </trkpt>
      <trkpt lat="42.3482650" lon="-8.6079060">
        <ele>46.0</ele>
        <time>2019-06-21T16:41:14Z</time>
      </trkpt>
      <trkpt lat="42.3482790" lon="-8.6079480">
        <ele>45.8</ele>
        <time>2019-06-21T16:41:15Z</time>
      </trkpt>
      <trkpt lat="42.3483270" lon="-8.6080470">
        <ele>45.2</ele>
        <time>2019-06-21T16:41:17Z</time>
      </trkpt>
      <trkpt lat="42.3483810" lon="-8.6081590">
        <ele>44.4</ele>
        <time>2019-06-21T16:41:19Z</time>
      </trkpt>
      <trkpt lat="42.3484290" lon="-8.6082710">
        <ele>43.4</ele>
        <time>2019-06-21T16:41:21Z</time>
      </trkpt>
      <trkpt lat="42.3484760" lon="-8.6083870">
        <ele>42.4</ele>
        <time>2019-06-21T16:41:23Z</time>
      </trkpt>
      <trkpt lat="42.3485170" lon="-8.6084820">
        <ele>41.2</ele>
        <time>2019-06-21T16:41:25Z</time>
      </trkpt>
      <trkpt lat="42.3485640" lon="-8.6085110">
        <ele>39.8</ele>
        <time>2019-06-21T16:41:27Z</time>
      </trkpt>
      <trkpt lat="42.3486000" lon="-8.6084970">
        <ele>38.8</ele>
        <time>2019-06-21T16:41:28Z</time>
      </trkpt>
      <trkpt lat="42.3486960" lon="-8.6084550">
        <ele>37.4</ele>
        <time>2019-06-21T16:41:30Z</time>
      </trkpt>
      <trkpt lat="42.3487650" lon="-8.6084420">
        <ele>36.6</ele>
        <time>2019-06-21T16:41:31Z</time>
      </trkpt>
      <trkpt lat="42.3488390" lon="-8.6084340">
        <ele>36.2</ele>
        <time>2019-06-21T16:41:32Z</time>
      </trkpt>
      <trkpt lat="42.3491510" lon="-8.6084110">
        <ele>35.0</ele>
        <time>2019-06-21T16:41:36Z</time>
      </trkpt>
      <trkpt lat="42.3493070" lon="-8.6083860">
        <ele>34.4</ele>
        <time>2019-06-21T16:41:38Z</time>
      </trkpt>
      <trkpt lat="42.3494400" lon="-8.6083230">
        <ele>34.0</ele>
        <time>2019-06-21T16:41:40Z</time>
      </trkpt>
      <trkpt lat="42.3496230" lon="-8.6082370">
        <ele>34.0</ele>
        <time>2019-06-21T16:41:43Z</time>
      </trkpt>
      <trkpt lat="42.3497050" lon="-8.6081910">
        <ele>33.8</ele>
        <time>2019-06-21T16:41:45Z</time>
      </trkpt>
      <trkpt lat="42.3497640" lon="-8.6081800">
        <ele>33.4</ele>
        <time>2019-06-21T16:41:47Z</time>
      </trkpt>
      <trkpt lat="42.3497910" lon="-8.6082070">
        <ele>33.6</ele>
        <time>2019-06-21T16:41:49Z</time>
      </trkpt>
      <trkpt lat="42.3498250" lon="-8.6082530">
        <ele>34.2</ele>
        <time>2019-06-21T16:41:52Z</time>
      </trkpt>
      <trkpt lat="42.3498460" lon="-8.6083150">
        <ele>34.6</ele>
        <time>2019-06-21T16:41:55Z</time>
      </trkpt>
      <trkpt lat="42.3498550" lon="-8.6083590">
        <ele>34.6</ele>
        <time>2019-06-21T16:41:57Z</time>
      </trkpt>
      <trkpt lat="42.3498590" lon="-8.6084010">
        <ele>35.0</ele>
        <time>2019-06-21T16:41:59Z</time>
      </trkpt>
      <trkpt lat="42.3498580" lon="-8.6084690">
        <ele>35.4</ele>
        <time>2019-06-21T16:42:02Z</time>
      </trkpt>
      <trkpt lat="42.3498560" lon="-8.6085320">
        <ele>35.8</ele>
        <time>2019-06-21T16:42:05Z</time>
      </trkpt>
      <trkpt lat="42.3498540" lon="-8.6085520">
        <ele>36.0</ele>
        <time>2019-06-21T16:42:06Z</time>
      </trkpt>
      <trkpt lat="42.3498620" lon="-8.6086080">
        <ele>36.6</ele>
        <time>2019-06-21T16:42:09Z</time>
      </trkpt>
      <trkpt lat="42.3498650" lon="-8.6086850">
        <ele>37.2</ele>
        <time>2019-06-21T16:42:13Z</time>
      </trkpt>
      <trkpt lat="42.3498250" lon="-8.6087940">
        <ele>37.4</ele>
        <time>2019-06-21T16:42:18Z</time>
      </trkpt>
      <trkpt lat="42.3498050" lon="-8.6088400">
        <ele>37.6</ele>
        <time>2019-06-21T16:42:20Z</time>
      </trkpt>
      <trkpt lat="42.3497710" lon="-8.6089260">
        <ele>38.2</ele>
        <time>2019-06-21T16:42:24Z</time>
      </trkpt>
      <trkpt lat="42.3497360" lon="-8.6090080">
        <ele>39.2</ele>
        <time>2019-06-21T16:42:28Z</time>
      </trkpt>
      <trkpt lat="42.3497240" lon="-8.6090280">
        <ele>39.4</ele>
        <time>2019-06-21T16:42:29Z</time>
      </trkpt>
      <trkpt lat="42.3497040" lon="-8.6090500">
        <ele>39.6</ele>
        <time>2019-06-21T16:42:31Z</time>
      </trkpt>
      <trkpt lat="42.3496770" lon="-8.6090460">
        <ele>39.8</ele>
        <time>2019-06-21T16:42:33Z</time>
      </trkpt>
      <trkpt lat="42.3496540" lon="-8.6090640">
        <ele>40.0</ele>
        <time>2019-06-21T16:42:35Z</time>
      </trkpt>
      <trkpt lat="42.3496350" lon="-8.6091010">
        <ele>40.4</ele>
        <time>2019-06-21T16:42:38Z</time>
      </trkpt>
      <trkpt lat="42.3496260" lon="-8.6091140">
        <ele>40.6</ele>
        <time>2019-06-21T16:42:39Z</time>
      </trkpt>
      <trkpt lat="42.3496070" lon="-8.6091260">
        <ele>41.2</ele>
        <time>2019-06-21T16:42:41Z</time>
      </trkpt>
      <trkpt lat="42.3495760" lon="-8.6091060">
        <ele>41.2</ele>
        <time>2019-06-21T16:42:44Z</time>
      </trkpt>
      <trkpt lat="42.3495430" lon="-8.6091080">
        <ele>41.6</ele>
        <time>2019-06-21T16:42:46Z</time>
      </trkpt>
      <trkpt lat="42.3494910" lon="-8.6091310">
        <ele>42.4</ele>
        <time>2019-06-21T16:42:50Z</time>
      </trkpt>
      <trkpt lat="42.3494750" lon="-8.6091380">
        <ele>42.6</ele>
        <time>2019-06-21T16:42:51Z</time>
      </trkpt>
      <trkpt lat="42.3494620" lon="-8.6091500">
        <ele>42.8</ele>
        <time>2019-06-21T16:42:52Z</time>
      </trkpt>
      <trkpt lat="42.3494560" lon="-8.6091650">
        <ele>43.0</ele>
        <time>2019-06-21T16:42:53Z</time>
      </trkpt>
      <trkpt lat="42.3494660" lon="-8.6091990">
        <ele>43.0</ele>
        <time>2019-06-21T16:42:55Z</time>
      </trkpt>
      <trkpt lat="42.3495020" lon="-8.6092520">
        <ele>43.8</ele>
        <time>2019-06-21T16:42:59Z</time>
      </trkpt>
      <trkpt lat="42.3495120" lon="-8.6092870">
        <ele>44.4</ele>
        <time>2019-06-21T16:43:01Z</time>
      </trkpt>
      <trkpt lat="42.3495180" lon="-8.6093050">
        <ele>44.8</ele>
        <time>2019-06-21T16:43:02Z</time>
      </trkpt>
      <trkpt lat="42.3495320" lon="-8.6093620">
        <ele>46.2</ele>
        <time>2019-06-21T16:43:05Z</time>
      </trkpt>
      <trkpt lat="42.3495380" lon="-8.6094050">
        <ele>47.4</ele>
        <time>2019-06-21T16:43:08Z</time>
      </trkpt>
      <trkpt lat="42.3495390" lon="-8.6094180">
        <ele>47.8</ele>
        <time>2019-06-21T16:43:09Z</time>
      </trkpt>
      <trkpt lat="42.3495510" lon="-8.6094860">
        <ele>48.4</ele>
        <time>2019-06-21T16:43:13Z</time>
      </trkpt>
      <trkpt lat="42.3495580" lon="-8.6095150">
        <ele>49.0</ele>
        <time>2019-06-21T16:43:15Z</time>
      </trkpt>
      <trkpt lat="42.3495690" lon="-8.6095350">
        <ele>49.4</ele>
        <time>2019-06-21T16:43:17Z</time>
      </trkpt>
      <trkpt lat="42.3495790" lon="-8.6095440">
        <ele>49.6</ele>
        <time>2019-06-21T16:43:18Z</time>
      </trkpt>
      <trkpt lat="42.3496480" lon="-8.6095840">
        <ele>50.0</ele>
        <time>2019-06-21T16:43:24Z</time>
      </trkpt>
      <trkpt lat="42.3497350" lon="-8.6096440">
        <ele>50.4</ele>
        <time>2019-06-21T16:43:31Z</time>
      </trkpt>
      <trkpt lat="42.3497460" lon="-8.6096530">
        <ele>50.6</ele>
        <time>2019-06-21T16:43:32Z</time>
      </trkpt>
      <trkpt lat="42.3497690" lon="-8.6096760">
        <ele>50.8</ele>
        <time>2019-06-21T16:43:34Z</time>
      </trkpt>
      <trkpt lat="42.3498130" lon="-8.6097230">
        <ele>51.8</ele>
        <time>2019-06-21T16:43:38Z</time>
      </trkpt>
      <trkpt lat="42.3498600" lon="-8.6097630">
        <ele>52.8</ele>
        <time>2019-06-21T16:43:42Z</time>
      </trkpt>
      <trkpt lat="42.3498720" lon="-8.6097670">
        <ele>53.0</ele>
        <time>2019-06-21T16:43:43Z</time>
      </trkpt>
      <trkpt lat="42.3499180" lon="-8.6098240">
        <ele>53.8</ele>
        <time>2019-06-21T16:43:48Z</time>
      </trkpt>
      <trkpt lat="42.3499330" lon="-8.6098220">
        <ele>54.0</ele>
        <time>2019-06-21T16:43:49Z</time>
      </trkpt>
      <trkpt lat="42.3499460" lon="-8.6098290">
        <ele>54.0</ele>
        <time>2019-06-21T16:43:50Z</time>
      </trkpt>
      <trkpt lat="42.3499920" lon="-8.6098630">
        <ele>54.6</ele>
        <time>2019-06-21T16:43:54Z</time>
      </trkpt>
      <trkpt lat="42.3500130" lon="-8.6098750">
        <ele>55.0</ele>
        <time>2019-06-21T16:43:56Z</time>
      </trkpt>
      <trkpt lat="42.3500560" lon="-8.6099100">
        <ele>55.8</ele>
        <time>2019-06-21T16:44:01Z</time>
      </trkpt>
      <trkpt lat="42.3500660" lon="-8.6099270">
        <ele>56.0</ele>
        <time>2019-06-21T16:44:02Z</time>
      </trkpt>
      <trkpt lat="42.3500680" lon="-8.6099460">
        <ele>56.2</ele>
        <time>2019-06-21T16:44:03Z</time>
      </trkpt>
      <trkpt lat="42.3500690" lon="-8.6099760">
        <ele>56.8</ele>
        <time>2019-06-21T16:44:05Z</time>
      </trkpt>
      <trkpt lat="42.3500790" lon="-8.6100050">
        <ele>57.2</ele>
        <time>2019-06-21T16:44:07Z</time>
      </trkpt>
      <trkpt lat="42.3500950" lon="-8.6100700">
        <ele>58.2</ele>
        <time>2019-06-21T16:44:11Z</time>
      </trkpt>
      <trkpt lat="42.3501250" lon="-8.6102250">
        <ele>59.0</ele>
        <time>2019-06-21T16:44:19Z</time>
      </trkpt>
      <trkpt lat="42.3501250" lon="-8.6103940">
        <ele>57.8</ele>
        <time>2019-06-21T16:44:24Z</time>
      </trkpt>
      <trkpt lat="42.3501240" lon="-8.6106020">
        <ele>57.2</ele>
        <time>2019-06-21T16:44:29Z</time>
      </trkpt>
      <trkpt lat="42.3501290" lon="-8.6106510">
        <ele>57.0</ele>
        <time>2019-06-21T16:44:30Z</time>
      </trkpt>
      <trkpt lat="42.3501560" lon="-8.6108280">
        <ele>55.6</ele>
        <time>2019-06-21T16:44:34Z</time>
      </trkpt>
      <trkpt lat="42.3501710" lon="-8.6108640">
        <ele>55.6</ele>
        <time>2019-06-21T16:44:35Z</time>
      </trkpt>
      <trkpt lat="42.3502050" lon="-8.6109420">
        <ele>55.8</ele>
        <time>2019-06-21T16:44:37Z</time>
      </trkpt>
      <trkpt lat="42.3502490" lon="-8.6110080">
        <ele>55.4</ele>
        <time>2019-06-21T16:44:39Z</time>
      </trkpt>
      <trkpt lat="42.3503010" lon="-8.6110660">
        <ele>55.0</ele>
        <time>2019-06-21T16:44:41Z</time>
      </trkpt>
      <trkpt lat="42.3503500" lon="-8.6111140">
        <ele>54.6</ele>
        <time>2019-06-21T16:44:43Z</time>
      </trkpt>
      <trkpt lat="42.3503750" lon="-8.6111400">
        <ele>54.4</ele>
        <time>2019-06-21T16:44:44Z</time>
      </trkpt>
      <trkpt lat="42.3504280" lon="-8.6111880">
        <ele>54.2</ele>
        <time>2019-06-21T16:44:46Z</time>
      </trkpt>
      <trkpt lat="42.3504900" lon="-8.6112350">
        <ele>54.2</ele>
        <time>2019-06-21T16:44:48Z</time>
      </trkpt>
      <trkpt lat="42.3505610" lon="-8.6112670">
        <ele>54.0</ele>
        <time>2019-06-21T16:44:50Z</time>
      </trkpt>
      <trkpt lat="42.3506830" lon="-8.6113000">
        <ele>53.6</ele>
        <time>2019-06-21T16:44:53Z</time>
      </trkpt>
      <trkpt lat="42.3507230" lon="-8.6113120">
        <ele>53.6</ele>
        <time>2019-06-21T16:44:54Z</time>
      </trkpt>
      <trkpt lat="42.3508300" lon="-8.6113580">
        <ele>53.2</ele>
        <time>2019-06-21T16:44:58Z</time>
      </trkpt>
      <trkpt lat="42.3508460" lon="-8.6113670">
        <ele>53.0</ele>
        <time>2019-06-21T16:44:59Z</time>
      </trkpt>
      <trkpt lat="42.3508960" lon="-8.6113820">
        <ele>53.0</ele>
        <time>2019-06-21T16:45:03Z</time>
      </trkpt>
      <trkpt lat="42.3509230" lon="-8.6113840">
        <ele>52.8</ele>
        <time>2019-06-21T16:45:05Z</time>
      </trkpt>
      <trkpt lat="42.3509670" lon="-8.6114180">
        <ele>52.6</ele>
        <time>2019-06-21T16:45:40Z</time>
      </trkpt>
      <trkpt lat="42.3509910" lon="-8.6114250">
        <ele>52.4</ele>
        <time>2019-06-21T16:45:41Z</time>
      </trkpt>
      <trkpt lat="42.3511050" lon="-8.6114760">
        <ele>51.4</ele>
        <time>2019-06-21T16:45:44Z</time>
      </trkpt>
      <trkpt lat="42.3511430" lon="-8.6114940">
        <ele>51.4</ele>
        <time>2019-06-21T16:45:45Z</time>
      </trkpt>
      <trkpt lat="42.3512310" lon="-8.6115370">
        <ele>50.2</ele>
        <time>2019-06-21T16:45:48Z</time>
      </trkpt>
      <trkpt lat="42.3512500" lon="-8.6115520">
        <ele>49.4</ele>
        <time>2019-06-21T16:45:49Z</time>
      </trkpt>
      <trkpt lat="42.3512650" lon="-8.6115660">
        <ele>49.0</ele>
        <time>2019-06-21T16:45:50Z</time>
      </trkpt>
      <trkpt lat="42.3513220" lon="-8.6116230">
        <ele>48.0</ele>
        <time>2019-06-21T16:45:53Z</time>
      </trkpt>
      <trkpt lat="42.3513420" lon="-8.6116510">
        <ele>47.8</ele>
        <time>2019-06-21T16:45:54Z</time>
      </trkpt>
      <trkpt lat="42.3513850" lon="-8.6117340">
        <ele>46.6</ele>
        <time>2019-06-21T16:45:58Z</time>
      </trkpt>
      <trkpt lat="42.3513890" lon="-8.6117540">
        <ele>46.4</ele>
        <time>2019-06-21T16:45:59Z</time>
      </trkpt>
      <trkpt lat="42.3513940" lon="-8.6118090">
        <ele>45.2</ele>
        <time>2019-06-21T16:46:01Z</time>
      </trkpt>
      <trkpt lat="42.3513990" lon="-8.6118670">
        <ele>44.0</ele>
        <time>2019-06-21T16:46:03Z</time>
      </trkpt>
      <trkpt lat="42.3514090" lon="-8.6119260">
        <ele>43.0</ele>
        <time>2019-06-21T16:46:05Z</time>
      </trkpt>
      <trkpt lat="42.3514160" lon="-8.6119560">
        <ele>42.4</ele>
        <time>2019-06-21T16:46:06Z</time>
      </trkpt>
      <trkpt lat="42.3514250" lon="-8.6119870">
        <ele>42.0</ele>
        <time>2019-06-21T16:46:07Z</time>
      </trkpt>
      <trkpt lat="42.3514430" lon="-8.6120370">
        <ele>40.6</ele>
        <time>2019-06-21T16:46:09Z</time>
      </trkpt>
      <trkpt lat="42.3514820" lon="-8.6120760">
        <ele>39.6</ele>
        <time>2019-06-21T16:46:11Z</time>
      </trkpt>
      <trkpt lat="42.3515080" lon="-8.6120830">
        <ele>39.2</ele>
        <time>2019-06-21T16:46:12Z</time>
      </trkpt>
      <trkpt lat="42.3515620" lon="-8.6120730">
        <ele>38.0</ele>
        <time>2019-06-21T16:46:14Z</time>
      </trkpt>
      <trkpt lat="42.3516570" lon="-8.6120720">
        <ele>39.2</ele>
        <time>2019-06-21T16:46:17Z</time>
      </trkpt>
      <trkpt lat="42.3516920" lon="-8.6120670">
        <ele>39.0</ele>
        <time>2019-06-21T16:46:18Z</time>
      </trkpt>
      <trkpt lat="42.3517280" lon="-8.6120560">
        <ele>37.2</ele>
        <time>2019-06-21T16:46:19Z</time>
      </trkpt>
      <trkpt lat="42.3518730" lon="-8.6119860">
        <ele>36.6</ele>
        <time>2019-06-21T16:46:23Z</time>
      </trkpt>
      <trkpt lat="42.3520190" lon="-8.6119160">
        <ele>36.2</ele>
        <time>2019-06-21T16:46:27Z</time>
      </trkpt>
      <trkpt lat="42.3520930" lon="-8.6118700">
        <ele>36.0</ele>
        <time>2019-06-21T16:46:29Z</time>
      </trkpt>
      <trkpt lat="42.3522530" lon="-8.6117010">
        <ele>35.4</ele>
        <time>2019-06-21T16:46:35Z</time>
      </trkpt>
      <trkpt lat="42.3523030" lon="-8.6116890">
        <ele>35.2</ele>
        <time>2019-06-21T16:46:37Z</time>
      </trkpt>
      <trkpt lat="42.3523150" lon="-8.6116930">
        <ele>35.2</ele>
        <time>2019-06-21T16:46:39Z</time>
      </trkpt>
      <trkpt lat="42.3523840" lon="-8.6117330">
        <ele>34.8</ele>
        <time>2019-06-21T16:46:46Z</time>
      </trkpt>
      <trkpt lat="42.3524150" lon="-8.6117600">
        <ele>35.0</ele>
        <time>2019-06-21T16:46:48Z</time>
      </trkpt>
      <trkpt lat="42.3524250" lon="-8.6117800">
        <ele>35.0</ele>
        <time>2019-06-21T16:46:49Z</time>
      </trkpt>
      <trkpt lat="42.3524610" lon="-8.6118190">
        <ele>35.0</ele>
        <time>2019-06-21T16:46:52Z</time>
      </trkpt>
      <trkpt lat="42.3524770" lon="-8.6118300">
        <ele>34.8</ele>
        <time>2019-06-21T16:46:53Z</time>
      </trkpt>
      <trkpt lat="42.3526000" lon="-8.6118920">
        <ele>34.2</ele>
        <time>2019-06-21T16:46:58Z</time>
      </trkpt>
      <trkpt lat="42.3526360" lon="-8.6119180">
        <ele>34.2</ele>
        <time>2019-06-21T16:47:00Z</time>
      </trkpt>
      <trkpt lat="42.3526870" lon="-8.6119640">
        <ele>34.2</ele>
        <time>2019-06-21T16:47:04Z</time>
      </trkpt>
      <trkpt lat="42.3527310" lon="-8.6120590">
        <ele>34.4</ele>
        <time>2019-06-21T16:50:55Z</time>
      </trkpt>
      <trkpt lat="42.3527400" lon="-8.6120780">
        <ele>34.6</ele>
        <time>2019-06-21T16:50:56Z</time>
      </trkpt>
      <trkpt lat="42.3527850" lon="-8.6121570">
        <ele>34.8</ele>
        <time>2019-06-21T16:51:00Z</time>
      </trkpt>
      <trkpt lat="42.3528150" lon="-8.6122040">
        <ele>35.0</ele>
        <time>2019-06-21T16:51:03Z</time>
      </trkpt>
      <trkpt lat="42.3528990" lon="-8.6122780">
        <ele>35.2</ele>
        <time>2019-06-21T16:51:10Z</time>
      </trkpt>
      <trkpt lat="42.3529800" lon="-8.6123230">
        <ele>36.0</ele>
        <time>2019-06-21T16:51:15Z</time>
      </trkpt>
      <trkpt lat="42.3529910" lon="-8.6123310">
        <ele>36.2</ele>
        <time>2019-06-21T16:51:16Z</time>
      </trkpt>
      <trkpt lat="42.3530020" lon="-8.6123340">
        <ele>36.4</ele>
        <time>2019-06-21T16:51:17Z</time>
      </trkpt>
      <trkpt lat="42.3530300" lon="-8.6123300">
        <ele>37.0</ele>
        <time>2019-06-21T16:51:20Z</time>
      </trkpt>
      <trkpt lat="42.3530540" lon="-8.6123400">
        <ele>37.2</ele>
        <time>2019-06-21T16:51:22Z</time>
      </trkpt>
      <trkpt lat="42.3530680" lon="-8.6123660">
        <ele>37.6</ele>
        <time>2019-06-21T16:51:24Z</time>
      </trkpt>
      <trkpt lat="42.3530790" lon="-8.6123950">
        <ele>37.6</ele>
        <time>2019-06-21T16:51:26Z</time>
      </trkpt>
      <trkpt lat="42.3530790" lon="-8.6124180">
        <ele>37.8</ele>
        <time>2019-06-21T16:51:28Z</time>
      </trkpt>
      <trkpt lat="42.3530490" lon="-8.6124400">
        <ele>38.2</ele>
        <time>2019-06-21T16:51:31Z</time>
      </trkpt>
      <trkpt lat="42.3530450" lon="-8.6124460">
        <ele>38.2</ele>
        <time>2019-06-21T16:51:32Z</time>
      </trkpt>
      <trkpt lat="42.3530150" lon="-8.6127420">
        <ele>40.4</ele>
        <time>2019-06-21T16:51:58Z</time>
      </trkpt>
      <trkpt lat="42.3530170" lon="-8.6127580">
        <ele>40.6</ele>
        <time>2019-06-21T16:51:59Z</time>
      </trkpt>
      <trkpt lat="42.3530260" lon="-8.6128000">
        <ele>41.0</ele>
        <time>2019-06-21T16:52:05Z</time>
      </trkpt>
      <trkpt lat="42.3530510" lon="-8.6128430">
        <ele>41.0</ele>
        <time>2019-06-21T16:52:12Z</time>
      </trkpt>
      <trkpt lat="42.3530740" lon="-8.6128900">
        <ele>41.0</ele>
        <time>2019-06-21T16:52:14Z</time>
      </trkpt>
      <trkpt lat="42.3531290" lon="-8.6130420">
        <ele>40.6</ele>
        <time>2019-06-21T16:52:19Z</time>
      </trkpt>
      <trkpt lat="42.3531930" lon="-8.6131790">
        <ele>39.8</ele>
        <time>2019-06-21T16:52:23Z</time>
      </trkpt>
      <trkpt lat="42.3532200" lon="-8.6132030">
        <ele>39.4</ele>
        <time>2019-06-21T16:52:24Z</time>
      </trkpt>
      <trkpt lat="42.3532400" lon="-8.6132090">
        <ele>39.4</ele>
        <time>2019-06-21T16:52:25Z</time>
      </trkpt>
      <trkpt lat="42.3532600" lon="-8.6132230">
        <ele>39.6</ele>
        <time>2019-06-21T16:52:26Z</time>
      </trkpt>
      <trkpt lat="42.3532970" lon="-8.6132530">
        <ele>39.8</ele>
        <time>2019-06-21T16:52:28Z</time>
      </trkpt>
      <trkpt lat="42.3533900" lon="-8.6133520">
        <ele>40.0</ele>
        <time>2019-06-21T16:52:33Z</time>
      </trkpt>
      <trkpt lat="42.3535310" lon="-8.6135400">
        <ele>40.0</ele>
        <time>2019-06-21T16:52:40Z</time>
      </trkpt>
      <trkpt lat="42.3536500" lon="-8.6136820">
        <ele>39.6</ele>
        <time>2019-06-21T16:52:45Z</time>
      </trkpt>
      <trkpt lat="42.3537340" lon="-8.6137650">
        <ele>39.4</ele>
        <time>2019-06-21T16:52:48Z</time>
      </trkpt>
      <trkpt lat="42.3537760" lon="-8.6137960">
        <ele>39.2</ele>
        <time>2019-06-21T16:52:49Z</time>
      </trkpt>
      <trkpt lat="42.3539180" lon="-8.6138910">
        <ele>38.6</ele>
        <time>2019-06-21T16:52:52Z</time>
      </trkpt>
      <trkpt lat="42.3539620" lon="-8.6139250">
        <ele>38.4</ele>
        <time>2019-06-21T16:52:53Z</time>
      </trkpt>
      <trkpt lat="42.3541120" lon="-8.6140410">
        <ele>38.0</ele>
        <time>2019-06-21T16:52:56Z</time>
      </trkpt>
      <trkpt lat="42.3541680" lon="-8.6140720">
        <ele>37.6</ele>
        <time>2019-06-21T16:52:57Z</time>
      </trkpt>
      <trkpt lat="42.3542320" lon="-8.6140980">
        <ele>37.2</ele>
        <time>2019-06-21T16:52:58Z</time>
      </trkpt>
      <trkpt lat="42.3545480" lon="-8.6142170">
        <ele>36.2</ele>
        <time>2019-06-21T16:53:03Z</time>
      </trkpt>
      <trkpt lat="42.3547440" lon="-8.6143420">
        <ele>36.4</ele>
        <time>2019-06-21T16:53:07Z</time>
      </trkpt>
      <trkpt lat="42.3547730" lon="-8.6143910">
        <ele>36.4</ele>
        <time>2019-06-21T16:53:08Z</time>
      </trkpt>
      <trkpt lat="42.3548310" lon="-8.6144850">
        <ele>36.2</ele>
        <time>2019-06-21T16:53:10Z</time>
      </trkpt>
      <trkpt lat="42.3548930" lon="-8.6145590">
        <ele>36.6</ele>
        <time>2019-06-21T16:53:13Z</time>
      </trkpt>
      <trkpt lat="42.3549380" lon="-8.6145850">
        <ele>37.4</ele>
        <time>2019-06-21T16:53:16Z</time>
      </trkpt>
      <trkpt lat="42.3549820" lon="-8.6146170">
        <ele>37.8</ele>
        <time>2019-06-21T16:53:19Z</time>
      </trkpt>
      <trkpt lat="42.3550040" lon="-8.6146320">
        <ele>38.2</ele>
        <time>2019-06-21T16:53:21Z</time>
      </trkpt>
      <trkpt lat="42.3550170" lon="-8.6146440">
        <ele>38.6</ele>
        <time>2019-06-21T16:53:22Z</time>
      </trkpt>
      <trkpt lat="42.3550410" lon="-8.6146610">
        <ele>38.8</ele>
        <time>2019-06-21T16:53:24Z</time>
      </trkpt>
      <trkpt lat="42.3560860" lon="-8.6157910">
        <ele>55.8</ele>
        <time>2019-06-21T16:56:22Z</time>
      </trkpt>
      <trkpt lat="42.3560950" lon="-8.6158030">
        <ele>55.6</ele>
        <time>2019-06-21T16:56:23Z</time>
      </trkpt>
      <trkpt lat="42.3561160" lon="-8.6158320">
        <ele>55.8</ele>
        <time>2019-06-21T16:56:25Z</time>
      </trkpt>
      <trkpt lat="42.3561490" lon="-8.6158840">
        <ele>55.8</ele>
        <time>2019-06-21T16:56:31Z</time>
      </trkpt>
      <trkpt lat="42.3572460" lon="-8.6162250">
        <ele>69.0</ele>
        <time>2019-06-21T16:58:30Z</time>
      </trkpt>
      <trkpt lat="42.3573510" lon="-8.6162750">
        <ele>69.2</ele>
        <time>2019-06-21T16:58:36Z</time>
      </trkpt>
      <trkpt lat="42.3574830" lon="-8.6163170">
        <ele>69.6</ele>
        <time>2019-06-21T16:58:42Z</time>
      </trkpt>
      <trkpt lat="42.3576240" lon="-8.6162850">
        <ele>69.0</ele>
        <time>2019-06-21T16:58:47Z</time>
      </trkpt>
      <trkpt lat="42.3577680" lon="-8.6161670">
        <ele>68.8</ele>
        <time>2019-06-21T16:58:52Z</time>
      </trkpt>
      <trkpt lat="42.3577970" lon="-8.6161460">
        <ele>68.8</ele>
        <time>2019-06-21T16:58:53Z</time>
      </trkpt>
      <trkpt lat="42.3578650" lon="-8.6160850">
        <ele>68.6</ele>
        <time>2019-06-21T16:58:56Z</time>
      </trkpt>
      <trkpt lat="42.3579290" lon="-8.6160330">
        <ele>68.8</ele>
        <time>2019-06-21T16:58:59Z</time>
      </trkpt>
      <trkpt lat="42.3579910" lon="-8.6159480">
        <ele>68.8</ele>
        <time>2019-06-21T16:59:04Z</time>
      </trkpt>
      <trkpt lat="42.3580220" lon="-8.6158950">
        <ele>69.0</ele>
        <time>2019-06-21T16:59:06Z</time>
      </trkpt>
      <trkpt lat="42.3580870" lon="-8.6158100">
        <ele>69.6</ele>
        <time>2019-06-21T16:59:10Z</time>
      </trkpt>
      <trkpt lat="42.3581350" lon="-8.6157520">
        <ele>70.0</ele>
        <time>2019-06-21T16:59:13Z</time>
      </trkpt>
      <trkpt lat="42.3582200" lon="-8.6156770">
        <ele>70.4</ele>
        <time>2019-06-21T16:59:17Z</time>
      </trkpt>
      <trkpt lat="42.3583470" lon="-8.6155620">
        <ele>70.8</ele>
        <time>2019-06-21T16:59:23Z</time>
      </trkpt>
      <trkpt lat="42.3584630" lon="-8.6154840">
        <ele>71.2</ele>
        <time>2019-06-21T16:59:28Z</time>
      </trkpt>
      <trkpt lat="42.3584790" lon="-8.6154730">
        <ele>71.4</ele>
        <time>2019-06-21T16:59:29Z</time>
      </trkpt>
      <trkpt lat="42.3585330" lon="-8.6154310">
        <ele>72.4</ele>
        <time>2019-06-21T16:59:32Z</time>
      </trkpt>
      <trkpt lat="42.3585830" lon="-8.6154130">
        <ele>72.8</ele>
        <time>2019-06-21T16:59:35Z</time>
      </trkpt>
      <trkpt lat="42.3586450" lon="-8.6153990">
        <ele>73.6</ele>
        <time>2019-06-21T16:59:40Z</time>
      </trkpt>
      <trkpt lat="42.3586620" lon="-8.6154020">
        <ele>73.8</ele>
        <time>2019-06-21T16:59:41Z</time>
      </trkpt>
      <trkpt lat="42.3586920" lon="-8.6153900">
        <ele>74.4</ele>
        <time>2019-06-21T16:59:43Z</time>
      </trkpt>
      <trkpt lat="42.3587240" lon="-8.6153770">
        <ele>74.6</ele>
        <time>2019-06-21T16:59:45Z</time>
      </trkpt>
      <trkpt lat="42.3587380" lon="-8.6153670">
        <ele>74.6</ele>
        <time>2019-06-21T16:59:46Z</time>
      </trkpt>
      <trkpt lat="42.3588340" lon="-8.6153430">
        <ele>75.6</ele>
        <time>2019-06-21T16:59:52Z</time>
      </trkpt>
      <trkpt lat="42.3588530" lon="-8.6153420">
        <ele>75.6</ele>
        <time>2019-06-21T16:59:53Z</time>
      </trkpt>
      <trkpt lat="42.3589410" lon="-8.6153780">
        <ele>76.2</ele>
        <time>2019-06-21T16:59:59Z</time>
      </trkpt>
      <trkpt lat="42.3590030" lon="-8.6154120">
        <ele>76.6</ele>
        <time>2019-06-21T17:00:03Z</time>
      </trkpt>
      <trkpt lat="42.3590370" lon="-8.6154410">
        <ele>76.6</ele>
        <time>2019-06-21T17:00:05Z</time>
      </trkpt>
      <trkpt lat="42.3591660" lon="-8.6155130">
        <ele>77.4</ele>
        <time>2019-06-21T17:00:12Z</time>
      </trkpt>
      <trkpt lat="42.3592000" lon="-8.6155410">
        <ele>77.6</ele>
        <time>2019-06-21T17:00:14Z</time>
      </trkpt>
      <trkpt lat="42.3592870" lon="-8.6155930">
        <ele>78.2</ele>
        <time>2019-06-21T17:00:19Z</time>
      </trkpt>
      <trkpt lat="42.3593880" lon="-8.6156490">
        <ele>78.8</ele>
        <time>2019-06-21T17:00:24Z</time>
      </trkpt>
      <trkpt lat="42.3594140" lon="-8.6156580">
        <ele>78.6</ele>
        <time>2019-06-21T17:00:25Z</time>
      </trkpt>
      <trkpt lat="42.3596140" lon="-8.6157200">
        <ele>79.0</ele>
        <time>2019-06-21T17:00:33Z</time>
      </trkpt>
      <trkpt lat="42.3598030" lon="-8.6156720">
        <ele>78.8</ele>
        <time>2019-06-21T17:00:39Z</time>
      </trkpt>
      <trkpt lat="42.3599310" lon="-8.6156460">
        <ele>78.8</ele>
        <time>2019-06-21T17:00:43Z</time>
      </trkpt>
      <trkpt lat="42.3600240" lon="-8.6156390">
        <ele>78.8</ele>
        <time>2019-06-21T17:00:46Z</time>
      </trkpt>
      <trkpt lat="42.3602100" lon="-8.6156460">
        <ele>79.8</ele>
        <time>2019-06-21T17:00:53Z</time>
      </trkpt>
      <trkpt lat="42.3602290" lon="-8.6156510">
        <ele>79.8</ele>
        <time>2019-06-21T17:00:54Z</time>
      </trkpt>
      <trkpt lat="42.3602940" lon="-8.6157390">
        <ele>81.0</ele>
        <time>2019-06-21T17:00:59Z</time>
      </trkpt>
      <trkpt lat="42.3603430" lon="-8.6158250">
        <ele>82.2</ele>
        <time>2019-06-21T17:01:04Z</time>
      </trkpt>
      <trkpt lat="42.3603790" lon="-8.6158770">
        <ele>83.2</ele>
        <time>2019-06-21T17:01:07Z</time>
      </trkpt>
      <trkpt lat="42.3603890" lon="-8.6158900">
        <ele>83.4</ele>
        <time>2019-06-21T17:01:08Z</time>
      </trkpt>
      <trkpt lat="42.3604440" lon="-8.6159500">
        <ele>84.6</ele>
        <time>2019-06-21T17:01:13Z</time>
      </trkpt>
      <trkpt lat="42.3604550" lon="-8.6159640">
        <ele>84.8</ele>
        <time>2019-06-21T17:01:14Z</time>
      </trkpt>
      <trkpt lat="42.3604900" lon="-8.6160090">
        <ele>85.6</ele>
        <time>2019-06-21T17:01:18Z</time>
      </trkpt>
      <trkpt lat="42.3605390" lon="-8.6160560">
        <ele>86.2</ele>
        <time>2019-06-21T17:01:22Z</time>
      </trkpt>
      <trkpt lat="42.3606440" lon="-8.6161240">
        <ele>86.8</ele>
        <time>2019-06-21T17:01:28Z</time>
      </trkpt>
      <trkpt lat="42.3606560" lon="-8.6161320">
        <ele>86.8</ele>
        <time>2019-06-21T17:01:29Z</time>
      </trkpt>
      <trkpt lat="42.3607420" lon="-8.6161780">
        <ele>86.8</ele>
        <time>2019-06-21T17:02:08Z</time>
      </trkpt>
      <trkpt lat="42.3608410" lon="-8.6161870">
        <ele>86.8</ele>
        <time>2019-06-21T17:02:12Z</time>
      </trkpt>
      <trkpt lat="42.3608950" lon="-8.6161850">
        <ele>87.0</ele>
        <time>2019-06-21T17:02:14Z</time>
      </trkpt>
      <trkpt lat="42.3610180" lon="-8.6161750">
        <ele>87.6</ele>
        <time>2019-06-21T17:02:19Z</time>
      </trkpt>
      <trkpt lat="42.3610430" lon="-8.6161670">
        <ele>87.6</ele>
        <time>2019-06-21T17:02:20Z</time>
      </trkpt>
      <trkpt lat="42.3610890" lon="-8.6161570">
        <ele>87.8</ele>
        <time>2019-06-21T17:02:22Z</time>
      </trkpt>
      <trkpt lat="42.3612170" lon="-8.6161330">
        <ele>88.0</ele>
        <time>2019-06-21T17:02:27Z</time>
      </trkpt>
      <trkpt lat="42.3613120" lon="-8.6161420">
        <ele>88.8</ele>
        <time>2019-06-21T17:02:32Z</time>
      </trkpt>
      <trkpt lat="42.3613530" lon="-8.6161450">
        <ele>89.2</ele>
        <time>2019-06-21T17:02:34Z</time>
      </trkpt>
      <trkpt lat="42.3614340" lon="-8.6161740">
        <ele>90.0</ele>
        <time>2019-06-21T17:02:38Z</time>
      </trkpt>
      <trkpt lat="42.3614660" lon="-8.6161980">
        <ele>90.2</ele>
        <time>2019-06-21T17:02:40Z</time>
      </trkpt>
      <trkpt lat="42.3615640" lon="-8.6162510">
        <ele>91.0</ele>
        <time>2019-06-21T17:02:45Z</time>
      </trkpt>
      <trkpt lat="42.3615810" lon="-8.6162570">
        <ele>91.2</ele>
        <time>2019-06-21T17:02:46Z</time>
      </trkpt>
      <trkpt lat="42.3616760" lon="-8.6162830">
        <ele>92.0</ele>
        <time>2019-06-21T17:02:52Z</time>
      </trkpt>
      <trkpt lat="42.3616950" lon="-8.6162880">
        <ele>92.2</ele>
        <time>2019-06-21T17:02:53Z</time>
      </trkpt>
      <trkpt lat="42.3617110" lon="-8.6162900">
        <ele>92.4</ele>
        <time>2019-06-21T17:02:54Z</time>
      </trkpt>
      <trkpt lat="42.3618070" lon="-8.6163170">
        <ele>93.2</ele>
        <time>2019-06-21T17:03:00Z</time>
      </trkpt>
      <trkpt lat="42.3618470" lon="-8.6163090">
        <ele>93.4</ele>
        <time>2019-06-21T17:03:02Z</time>
      </trkpt>
      <trkpt lat="42.3619510" lon="-8.6162900">
        <ele>93.6</ele>
        <time>2019-06-21T17:03:06Z</time>
      </trkpt>
      <trkpt lat="42.3621500" lon="-8.6162700">
        <ele>94.2</ele>
        <time>2019-06-21T17:03:13Z</time>
      </trkpt>
      <trkpt lat="42.3622080" lon="-8.6162620">
        <ele>94.4</ele>
        <time>2019-06-21T17:03:16Z</time>
      </trkpt>
      <trkpt lat="42.3622670" lon="-8.6162540">
        <ele>95.0</ele>
        <time>2019-06-21T17:03:19Z</time>
      </trkpt>
      <trkpt lat="42.3624160" lon="-8.6162450">
        <ele>95.4</ele>
        <time>2019-06-21T17:03:26Z</time>
      </trkpt>
      <trkpt lat="42.3624350" lon="-8.6162400">
        <ele>95.6</ele>
        <time>2019-06-21T17:03:27Z</time>
      </trkpt>
      <trkpt lat="42.3625780" lon="-8.6162470">
        <ele>96.4</ele>
        <time>2019-06-21T17:03:35Z</time>
      </trkpt>
      <trkpt lat="42.3626090" lon="-8.6162660">
        <ele>96.8</ele>
        <time>2019-06-21T17:03:37Z</time>
      </trkpt>
      <trkpt lat="42.3626610" lon="-8.6162780">
        <ele>97.2</ele>
        <time>2019-06-21T17:03:40Z</time>
      </trkpt>
      <trkpt lat="42.3626800" lon="-8.6162860">
        <ele>97.2</ele>
        <time>2019-06-21T17:03:41Z</time>
      </trkpt>
      <trkpt lat="42.3627700" lon="-8.6163390">
        <ele>98.0</ele>
        <time>2019-06-21T17:03:47Z</time>
      </trkpt>
      <trkpt lat="42.3628030" lon="-8.6163550">
        <ele>98.2</ele>
        <time>2019-06-21T17:03:49Z</time>
      </trkpt>
      <trkpt lat="42.3628620" lon="-8.6163820">
        <ele>99.0</ele>
        <time>2019-06-21T17:03:53Z</time>
      </trkpt>
      <trkpt lat="42.3629070" lon="-8.6164080">
        <ele>99.6</ele>
        <time>2019-06-21T17:03:56Z</time>
      </trkpt>
      <trkpt lat="42.3629450" lon="-8.6164340">
        <ele>100.2</ele>
        <time>2019-06-21T17:03:59Z</time>
      </trkpt>
      <trkpt lat="42.3630420" lon="-8.6164680">
        <ele>101.0</ele>
        <time>2019-06-21T17:04:05Z</time>
      </trkpt>
      <trkpt lat="42.3630820" lon="-8.6164910">
        <ele>101.2</ele>
        <time>2019-06-21T17:04:08Z</time>
      </trkpt>
      <trkpt lat="42.3631180" lon="-8.6165060">
        <ele>101.8</ele>
        <time>2019-06-21T17:04:11Z</time>
      </trkpt>
      <trkpt lat="42.3631780" lon="-8.6165210">
        <ele>102.4</ele>
        <time>2019-06-21T17:04:16Z</time>
      </trkpt>
      <trkpt lat="42.3631990" lon="-8.6165330">
        <ele>102.8</ele>
        <time>2019-06-21T17:04:18Z</time>
      </trkpt>
      <trkpt lat="42.3632180" lon="-8.6165440">
        <ele>103.4</ele>
        <time>2019-06-21T17:04:20Z</time>
      </trkpt>
      <trkpt lat="42.3632770" lon="-8.6165590">
        <ele>104.4</ele>
        <time>2019-06-21T17:04:25Z</time>
      </trkpt>
      <trkpt lat="42.3633020" lon="-8.6165700">
        <ele>105.0</ele>
        <time>2019-06-21T17:04:27Z</time>
      </trkpt>
      <trkpt lat="42.3633340" lon="-8.6165750">
        <ele>105.4</ele>
        <time>2019-06-21T17:04:30Z</time>
      </trkpt>
      <trkpt lat="42.3633530" lon="-8.6165940">
        <ele>105.8</ele>
        <time>2019-06-21T17:04:32Z</time>
      </trkpt>
      <trkpt lat="42.3633730" lon="-8.6166120">
        <ele>106.0</ele>
        <time>2019-06-21T17:04:34Z</time>
      </trkpt>
      <trkpt lat="42.3634100" lon="-8.6166400">
        <ele>106.6</ele>
        <time>2019-06-21T17:04:37Z</time>
      </trkpt>
      <trkpt lat="42.3634360" lon="-8.6166570">
        <ele>106.8</ele>
        <time>2019-06-21T17:04:39Z</time>
      </trkpt>
      <trkpt lat="42.3634650" lon="-8.6166930">
        <ele>107.0</ele>
        <time>2019-06-21T17:04:42Z</time>
      </trkpt>
      <trkpt lat="42.3635020" lon="-8.6167170">
        <ele>107.4</ele>
        <time>2019-06-21T17:04:45Z</time>
      </trkpt>
      <trkpt lat="42.3635480" lon="-8.6167260">
        <ele>107.6</ele>
        <time>2019-06-21T17:04:48Z</time>
      </trkpt>
      <trkpt lat="42.3636110" lon="-8.6167360">
        <ele>108.8</ele>
        <time>2019-06-21T17:04:53Z</time>
      </trkpt>
      <trkpt lat="42.3636340" lon="-8.6167410">
        <ele>109.0</ele>
        <time>2019-06-21T17:04:55Z</time>
      </trkpt>
      <trkpt lat="42.3636890" lon="-8.6167460">
        <ele>110.0</ele>
        <time>2019-06-21T17:04:59Z</time>
      </trkpt>
      <trkpt lat="42.3638380" lon="-8.6167360">
        <ele>112.0</ele>
        <time>2019-06-21T17:05:09Z</time>
      </trkpt>
      <trkpt lat="42.3638980" lon="-8.6167320">
        <ele>112.6</ele>
        <time>2019-06-21T17:05:13Z</time>
      </trkpt>
      <trkpt lat="42.3639200" lon="-8.6167340">
        <ele>113.0</ele>
        <time>2019-06-21T17:05:15Z</time>
      </trkpt>
      <trkpt lat="42.3639920" lon="-8.6167470">
        <ele>114.2</ele>
        <time>2019-06-21T17:05:20Z</time>
      </trkpt>
      <trkpt lat="42.3640060" lon="-8.6167470">
        <ele>114.4</ele>
        <time>2019-06-21T17:05:21Z</time>
      </trkpt>
      <trkpt lat="42.3640630" lon="-8.6167270">
        <ele>115.2</ele>
        <time>2019-06-21T17:05:25Z</time>
      </trkpt>
      <trkpt lat="42.3640750" lon="-8.6167110">
        <ele>115.4</ele>
        <time>2019-06-21T17:05:26Z</time>
      </trkpt>
      <trkpt lat="42.3640860" lon="-8.6166900">
        <ele>115.6</ele>
        <time>2019-06-21T17:05:27Z</time>
      </trkpt>
      <trkpt lat="42.3641330" lon="-8.6166110">
        <ele>116.6</ele>
        <time>2019-06-21T17:05:31Z</time>
      </trkpt>
      <trkpt lat="42.3641910" lon="-8.6165540">
        <ele>116.8</ele>
        <time>2019-06-21T17:05:35Z</time>
      </trkpt>
      <trkpt lat="42.3643120" lon="-8.6165290">
        <ele>117.2</ele>
        <time>2019-06-21T17:05:41Z</time>
      </trkpt>
      <trkpt lat="42.3643940" lon="-8.6165180">
        <ele>117.6</ele>
        <time>2019-06-21T17:05:46Z</time>
      </trkpt>
      <trkpt lat="42.3644120" lon="-8.6165220">
        <ele>117.8</ele>
        <time>2019-06-21T17:05:47Z</time>
      </trkpt>
      <trkpt lat="42.3645540" lon="-8.6165240">
        <ele>118.6</ele>
        <time>2019-06-21T17:05:54Z</time>
      </trkpt>
      <trkpt lat="42.3645750" lon="-8.6165220">
        <ele>119.0</ele>
        <time>2019-06-21T17:05:55Z</time>
      </trkpt>
      <trkpt lat="42.3647300" lon="-8.6165490">
        <ele>119.6</ele>
        <time>2019-06-21T17:06:03Z</time>
      </trkpt>
      <trkpt lat="42.3648640" lon="-8.6165620">
        <ele>120.0</ele>
        <time>2019-06-21T17:06:09Z</time>
      </trkpt>
      <trkpt lat="42.3649180" lon="-8.6165810">
        <ele>120.4</ele>
        <time>2019-06-21T17:06:12Z</time>
      </trkpt>
      <trkpt lat="42.3650240" lon="-8.6166300">
        <ele>121.6</ele>
        <time>2019-06-21T17:06:19Z</time>
      </trkpt>
      <trkpt lat="42.3650460" lon="-8.6166410">
        <ele>122.2</ele>
        <time>2019-06-21T17:06:21Z</time>
      </trkpt>
      <trkpt lat="42.3650640" lon="-8.6166620">
        <ele>122.6</ele>
        <time>2019-06-21T17:06:23Z</time>
      </trkpt>
      <trkpt lat="42.3650860" lon="-8.6166830">
        <ele>122.8</ele>
        <time>2019-06-21T17:06:25Z</time>
      </trkpt>
      <trkpt lat="42.3651410" lon="-8.6167360">
        <ele>123.8</ele>
        <time>2019-06-21T17:06:29Z</time>
      </trkpt>
      <trkpt lat="42.3651910" lon="-8.6167740">
        <ele>124.6</ele>
        <time>2019-06-21T17:06:33Z</time>
      </trkpt>
      <trkpt lat="42.3652020" lon="-8.6167790">
        <ele>124.8</ele>
        <time>2019-06-21T17:06:34Z</time>
      </trkpt>
      <trkpt lat="42.3652450" lon="-8.6168180">
        <ele>126.0</ele>
        <time>2019-06-21T17:06:38Z</time>
      </trkpt>
      <trkpt lat="42.3652580" lon="-8.6168280">
        <ele>126.2</ele>
        <time>2019-06-21T17:06:39Z</time>
      </trkpt>
      <trkpt lat="42.3653000" lon="-8.6168610">
        <ele>127.6</ele>
        <time>2019-06-21T17:06:43Z</time>
      </trkpt>
      <trkpt lat="42.3653170" lon="-8.6168930">
        <ele>128.0</ele>
        <time>2019-06-21T17:06:45Z</time>
      </trkpt>
      <trkpt lat="42.3653180" lon="-8.6169260">
        <ele>128.4</ele>
        <time>2019-06-21T17:06:47Z</time>
      </trkpt>
      <trkpt lat="42.3653090" lon="-8.6169360">
        <ele>128.6</ele>
        <time>2019-06-21T17:06:48Z</time>
      </trkpt>
      <trkpt lat="42.3652850" lon="-8.6169770">
        <ele>129.4</ele>
        <time>2019-06-21T17:06:51Z</time>
      </trkpt>
      <trkpt lat="42.3652650" lon="-8.6169970">
        <ele>129.8</ele>
        <time>2019-06-21T17:06:53Z</time>
      </trkpt>
      <trkpt lat="42.3652260" lon="-8.6170480">
        <ele>130.8</ele>
        <time>2019-06-21T17:06:57Z</time>
      </trkpt>
      <trkpt lat="42.3651930" lon="-8.6170800">
        <ele>131.8</ele>
        <time>2019-06-21T17:07:00Z</time>
      </trkpt>
      <trkpt lat="42.3651870" lon="-8.6170980">
        <ele>132.0</ele>
        <time>2019-06-21T17:07:01Z</time>
      </trkpt>
      <trkpt lat="42.3651550" lon="-8.6171690">
        <ele>133.2</ele>
        <time>2019-06-21T17:07:06Z</time>
      </trkpt>
      <trkpt lat="42.3651520" lon="-8.6172150">
        <ele>134.0</ele>
        <time>2019-06-21T17:07:08Z</time>
      </trkpt>
      <trkpt lat="42.3651490" lon="-8.6172510">
        <ele>134.4</ele>
        <time>2019-06-21T17:07:10Z</time>
      </trkpt>
      <trkpt lat="42.3651400" lon="-8.6173020">
        <ele>135.0</ele>
        <time>2019-06-21T17:07:13Z</time>
      </trkpt>
      <trkpt lat="42.3651240" lon="-8.6173420">
        <ele>135.6</ele>
        <time>2019-06-21T17:07:15Z</time>
      </trkpt>
      <trkpt lat="42.3651230" lon="-8.6173640">
        <ele>135.8</ele>
        <time>2019-06-21T17:07:16Z</time>
      </trkpt>
      <trkpt lat="42.3650620" lon="-8.6174690">
        <ele>136.4</ele>
        <time>2019-06-21T17:07:22Z</time>
      </trkpt>
      <trkpt lat="42.3650220" lon="-8.6175120">
        <ele>136.6</ele>
        <time>2019-06-21T17:07:25Z</time>
      </trkpt>
      <trkpt lat="42.3649740" lon="-8.6175640">
        <ele>137.0</ele>
        <time>2019-06-21T17:07:29Z</time>
      </trkpt>
      <trkpt lat="42.3648680" lon="-8.6176540">
        <ele>137.4</ele>
        <time>2019-06-21T17:07:36Z</time>
      </trkpt>
      <trkpt lat="42.3648200" lon="-8.6176910">
        <ele>137.6</ele>
        <time>2019-06-21T17:07:39Z</time>
      </trkpt>
      <trkpt lat="42.3647570" lon="-8.6177350">
        <ele>138.0</ele>
        <time>2019-06-21T17:07:43Z</time>
      </trkpt>
      <trkpt lat="42.3646070" lon="-8.6178310">
        <ele>138.8</ele>
        <time>2019-06-21T17:07:51Z</time>
      </trkpt>
      <trkpt lat="42.3645100" lon="-8.6178420">
        <ele>139.2</ele>
        <time>2019-06-21T17:07:56Z</time>
      </trkpt>
      <trkpt lat="42.3644760" lon="-8.6178360">
        <ele>139.4</ele>
        <time>2019-06-21T17:07:58Z</time>
      </trkpt>
      <trkpt lat="42.3644450" lon="-8.6178240">
        <ele>139.4</ele>
        <time>2019-06-21T17:08:00Z</time>
      </trkpt>
      <trkpt lat="42.3644150" lon="-8.6177960">
        <ele>139.6</ele>
        <time>2019-06-21T17:08:03Z</time>
      </trkpt>
      <trkpt lat="42.3644130" lon="-8.6177970">
        <ele>139.6</ele>
        <time>2019-06-21T17:08:04Z</time>
      </trkpt>
      <trkpt lat="42.3643290" lon="-8.6178370">
        <ele>139.4</ele>
        <time>2019-06-21T17:09:34Z</time>
      </trkpt>
      <trkpt lat="42.3643140" lon="-8.6178360">
        <ele>139.6</ele>
        <time>2019-06-21T17:09:35Z</time>
      </trkpt>
      <trkpt lat="42.3642990" lon="-8.6178350">
        <ele>139.6</ele>
        <time>2019-06-21T17:09:36Z</time>
      </trkpt>
      <trkpt lat="42.3642840" lon="-8.6178370">
        <ele>139.8</ele>
        <time>2019-06-21T17:09:37Z</time>
      </trkpt>
      <trkpt lat="42.3642450" lon="-8.6178730">
        <ele>140.2</ele>
        <time>2019-06-21T17:09:41Z</time>
      </trkpt>
      <trkpt lat="42.3642850" lon="-8.6179450">
        <ele>141.0</ele>
        <time>2019-06-21T17:09:45Z</time>
      </trkpt>
      <trkpt lat="42.3643010" lon="-8.6179540">
        <ele>141.2</ele>
        <time>2019-06-21T17:09:46Z</time>
      </trkpt>
      <trkpt lat="42.3643420" lon="-8.6179950">
        <ele>141.8</ele>
        <time>2019-06-21T17:09:49Z</time>
      </trkpt>
      <trkpt lat="42.3643530" lon="-8.6180100">
        <ele>142.0</ele>
        <time>2019-06-21T17:09:50Z</time>
      </trkpt>
      <trkpt lat="42.3643840" lon="-8.6180520">
        <ele>142.8</ele>
        <time>2019-06-21T17:09:53Z</time>
      </trkpt>
      <trkpt lat="42.3643950" lon="-8.6180630">
        <ele>143.0</ele>
        <time>2019-06-21T17:09:54Z</time>
      </trkpt>
      <trkpt lat="42.3644070" lon="-8.6180740">
        <ele>143.4</ele>
        <time>2019-06-21T17:09:55Z</time>
      </trkpt>
      <trkpt lat="42.3644350" lon="-8.6181110">
        <ele>144.2</ele>
        <time>2019-06-21T17:09:58Z</time>
      </trkpt>
      <trkpt lat="42.3644570" lon="-8.6181250">
        <ele>144.6</ele>
        <time>2019-06-21T17:10:00Z</time>
      </trkpt>
      <trkpt lat="42.3644810" lon="-8.6181350">
        <ele>145.0</ele>
        <time>2019-06-21T17:10:02Z</time>
      </trkpt>
      <trkpt lat="42.3645070" lon="-8.6181430">
        <ele>145.4</ele>
        <time>2019-06-21T17:10:04Z</time>
      </trkpt>
      <trkpt lat="42.3645160" lon="-8.6181540">
        <ele>145.6</ele>
        <time>2019-06-21T17:10:05Z</time>
      </trkpt>
      <trkpt lat="42.3645400" lon="-8.6181690">
        <ele>146.0</ele>
        <time>2019-06-21T17:10:07Z</time>
      </trkpt>
      <trkpt lat="42.3645920" lon="-8.6181550">
        <ele>146.2</ele>
        <time>2019-06-21T17:10:11Z</time>
      </trkpt>
      <trkpt lat="42.3646020" lon="-8.6181600">
        <ele>146.4</ele>
        <time>2019-06-21T17:10:12Z</time>
      </trkpt>
      <trkpt lat="42.3646140" lon="-8.6181630">
        <ele>146.6</ele>
        <time>2019-06-21T17:10:13Z</time>
      </trkpt>
      <trkpt lat="42.3647500" lon="-8.6181760">
        <ele>147.2</ele>
        <time>2019-06-21T17:10:21Z</time>
      </trkpt>
      <trkpt lat="42.3647720" lon="-8.6181760">
        <ele>147.4</ele>
        <time>2019-06-21T17:10:22Z</time>
      </trkpt>
      <trkpt lat="42.3648170" lon="-8.6181740">
        <ele>147.6</ele>
        <time>2019-06-21T17:10:24Z</time>
      </trkpt>
      <trkpt lat="42.3648540" lon="-8.6181800">
        <ele>147.8</ele>
        <time>2019-06-21T17:10:26Z</time>
      </trkpt>
      <trkpt lat="42.3649350" lon="-8.6182020">
        <ele>148.4</ele>
        <time>2019-06-21T17:10:30Z</time>
      </trkpt>
      <trkpt lat="42.3650070" lon="-8.6182290">
        <ele>148.8</ele>
        <time>2019-06-21T17:10:34Z</time>
      </trkpt>
      <trkpt lat="42.3650860" lon="-8.6182430">
        <ele>149.2</ele>
        <time>2019-06-21T17:10:38Z</time>
      </trkpt>
      <trkpt lat="42.3651730" lon="-8.6182800">
        <ele>149.8</ele>
        <time>2019-06-21T17:10:43Z</time>
      </trkpt>
      <trkpt lat="42.3651870" lon="-8.6182890">
        <ele>150.2</ele>
        <time>2019-06-21T17:10:44Z</time>
      </trkpt>
      <trkpt lat="42.3652500" lon="-8.6183300">
        <ele>150.8</ele>
        <time>2019-06-21T17:10:48Z</time>
      </trkpt>
      <trkpt lat="42.3653110" lon="-8.6183850">
        <ele>151.6</ele>
        <time>2019-06-21T17:10:52Z</time>
      </trkpt>
      <trkpt lat="42.3653510" lon="-8.6184290">
        <ele>152.0</ele>
        <time>2019-06-21T17:10:55Z</time>
      </trkpt>
      <trkpt lat="42.3654420" lon="-8.6185040">
        <ele>152.8</ele>
        <time>2019-06-21T17:11:01Z</time>
      </trkpt>
      <trkpt lat="42.3654540" lon="-8.6185140">
        <ele>153.2</ele>
        <time>2019-06-21T17:11:02Z</time>
      </trkpt>
      <trkpt lat="42.3655340" lon="-8.6185980">
        <ele>154.2</ele>
        <time>2019-06-21T17:11:08Z</time>
      </trkpt>
      <trkpt lat="42.3655480" lon="-8.6186130">
        <ele>154.2</ele>
        <time>2019-06-21T17:11:09Z</time>
      </trkpt>
      <trkpt lat="42.3656340" lon="-8.6187110">
        <ele>155.2</ele>
        <time>2019-06-21T17:11:16Z</time>
      </trkpt>
      <trkpt lat="42.3657350" lon="-8.6188500">
        <ele>156.2</ele>
        <time>2019-06-21T17:11:24Z</time>
      </trkpt>
      <trkpt lat="42.3657470" lon="-8.6188680">
        <ele>156.2</ele>
        <time>2019-06-21T17:11:25Z</time>
      </trkpt>
      <trkpt lat="42.3658350" lon="-8.6190010">
        <ele>157.2</ele>
        <time>2019-06-21T17:11:32Z</time>
      </trkpt>
      <trkpt lat="42.3659600" lon="-8.6191400">
        <ele>157.6</ele>
        <time>2019-06-21T17:11:40Z</time>
      </trkpt>
      <trkpt lat="42.3660720" lon="-8.6192480">
        <ele>158.2</ele>
        <time>2019-06-21T17:11:46Z</time>
      </trkpt>
      <trkpt lat="42.3661360" lon="-8.6192900">
        <ele>158.6</ele>
        <time>2019-06-21T17:11:49Z</time>
      </trkpt>
      <trkpt lat="42.3662650" lon="-8.6193830">
        <ele>159.6</ele>
        <time>2019-06-21T17:11:56Z</time>
      </trkpt>
      <trkpt lat="42.3663010" lon="-8.6194050">
        <ele>159.8</ele>
        <time>2019-06-21T17:11:58Z</time>
      </trkpt>
      <trkpt lat="42.3663950" lon="-8.6194660">
        <ele>160.6</ele>
        <time>2019-06-21T17:12:03Z</time>
      </trkpt>
      <trkpt lat="42.3664130" lon="-8.6194750">
        <ele>160.6</ele>
        <time>2019-06-21T17:12:04Z</time>
      </trkpt>
      <trkpt lat="42.3664680" lon="-8.6195020">
        <ele>161.6</ele>
        <time>2019-06-21T17:12:07Z</time>
      </trkpt>
      <trkpt lat="42.3665350" lon="-8.6195480">
        <ele>161.8</ele>
        <time>2019-06-21T17:12:11Z</time>
      </trkpt>
      <trkpt lat="42.3665950" lon="-8.6195840">
        <ele>162.6</ele>
        <time>2019-06-21T17:12:15Z</time>
      </trkpt>
      <trkpt lat="42.3666330" lon="-8.6196080">
        <ele>163.0</ele>
        <time>2019-06-21T17:12:17Z</time>
      </trkpt>
      <trkpt lat="42.3666810" lon="-8.6196510">
        <ele>163.6</ele>
        <time>2019-06-21T17:12:20Z</time>
      </trkpt>
      <trkpt lat="42.3667310" lon="-8.6197270">
        <ele>164.2</ele>
        <time>2019-06-21T17:12:24Z</time>
      </trkpt>
      <trkpt lat="42.3667390" lon="-8.6197620">
        <ele>164.6</ele>
        <time>2019-06-21T17:12:26Z</time>
      </trkpt>
      <trkpt lat="42.3667350" lon="-8.6197800">
        <ele>164.8</ele>
        <time>2019-06-21T17:12:27Z</time>
      </trkpt>
      <trkpt lat="42.3667180" lon="-8.6198170">
        <ele>165.2</ele>
        <time>2019-06-21T17:12:29Z</time>
      </trkpt>
      <trkpt lat="42.3666770" lon="-8.6199060">
        <ele>165.8</ele>
        <time>2019-06-21T17:12:33Z</time>
      </trkpt>
      <trkpt lat="42.3666620" lon="-8.6199820">
        <ele>165.8</ele>
        <time>2019-06-21T17:12:36Z</time>
      </trkpt>
      <trkpt lat="42.3666590" lon="-8.6201280">
        <ele>166.2</ele>
        <time>2019-06-21T17:12:41Z</time>
      </trkpt>
      <trkpt lat="42.3666720" lon="-8.6201450">
        <ele>166.4</ele>
        <time>2019-06-21T17:12:42Z</time>
      </trkpt>
      <trkpt lat="42.3667250" lon="-8.6202020">
        <ele>166.2</ele>
        <time>2019-06-21T17:12:45Z</time>
      </trkpt>
      <trkpt lat="42.3668770" lon="-8.6202860">
        <ele>166.6</ele>
        <time>2019-06-21T17:12:51Z</time>
      </trkpt>
      <trkpt lat="42.3669210" lon="-8.6203120">
        <ele>166.8</ele>
        <time>2019-06-21T17:12:53Z</time>
      </trkpt>
      <trkpt lat="42.3669920" lon="-8.6203860">
        <ele>167.8</ele>
        <time>2019-06-21T17:12:57Z</time>
      </trkpt>
      <trkpt lat="42.3670140" lon="-8.6204060">
        <ele>168.0</ele>
        <time>2019-06-21T17:12:58Z</time>
      </trkpt>
      <trkpt lat="42.3671240" lon="-8.6204550">
        <ele>168.4</ele>
        <time>2019-06-21T17:13:02Z</time>
      </trkpt>
      <trkpt lat="42.3672820" lon="-8.6205130">
        <ele>167.8</ele>
        <time>2019-06-21T17:13:07Z</time>
      </trkpt>
      <trkpt lat="42.3674650" lon="-8.6205320">
        <ele>166.0</ele>
        <time>2019-06-21T17:13:11Z</time>
      </trkpt>
      <trkpt lat="42.3675200" lon="-8.6205410">
        <ele>165.0</ele>
        <time>2019-06-21T17:13:12Z</time>
      </trkpt>
      <trkpt lat="42.3675720" lon="-8.6205640">
        <ele>164.0</ele>
        <time>2019-06-21T17:13:13Z</time>
      </trkpt>
      <trkpt lat="42.3676670" lon="-8.6206500">
        <ele>162.2</ele>
        <time>2019-06-21T17:13:15Z</time>
      </trkpt>
      <trkpt lat="42.3677200" lon="-8.6207090">
        <ele>161.2</ele>
        <time>2019-06-21T17:13:16Z</time>
      </trkpt>
      <trkpt lat="42.3677760" lon="-8.6207740">
        <ele>160.2</ele>
        <time>2019-06-21T17:13:17Z</time>
      </trkpt>
      <trkpt lat="42.3678260" lon="-8.6208400">
        <ele>159.0</ele>
        <time>2019-06-21T17:13:18Z</time>
      </trkpt>
      <trkpt lat="42.3678890" lon="-8.6209650">
        <ele>157.2</ele>
        <time>2019-06-21T17:13:20Z</time>
      </trkpt>
      <trkpt lat="42.3679190" lon="-8.6210330">
        <ele>154.0</ele>
        <time>2019-06-21T17:13:21Z</time>
      </trkpt>
      <trkpt lat="42.3679460" lon="-8.6211030">
        <ele>153.8</ele>
        <time>2019-06-21T17:13:22Z</time>
      </trkpt>
      <trkpt lat="42.3680010" lon="-8.6213020">
        <ele>152.4</ele>
        <time>2019-06-21T17:13:25Z</time>
      </trkpt>
      <trkpt lat="42.3680750" lon="-8.6216430">
        <ele>151.2</ele>
        <time>2019-06-21T17:13:29Z</time>
      </trkpt>
      <trkpt lat="42.3680990" lon="-8.6217320">
        <ele>150.2</ele>
        <time>2019-06-21T17:13:30Z</time>
      </trkpt>
      <trkpt lat="42.3681300" lon="-8.6218130">
        <ele>149.0</ele>
        <time>2019-06-21T17:13:31Z</time>
      </trkpt>
      <trkpt lat="42.3681590" lon="-8.6218840">
        <ele>147.8</ele>
        <time>2019-06-21T17:13:32Z</time>
      </trkpt>
      <trkpt lat="42.3681810" lon="-8.6219440">
        <ele>147.2</ele>
        <time>2019-06-21T17:13:33Z</time>
      </trkpt>
      <trkpt lat="42.3681970" lon="-8.6220000">
        <ele>146.6</ele>
        <time>2019-06-21T17:13:34Z</time>
      </trkpt>
      <trkpt lat="42.3682110" lon="-8.6220600">
        <ele>145.4</ele>
        <time>2019-06-21T17:13:35Z</time>
      </trkpt>
      <trkpt lat="42.3682420" lon="-8.6221940">
        <ele>144.0</ele>
        <time>2019-06-21T17:13:37Z</time>
      </trkpt>
      <trkpt lat="42.3682770" lon="-8.6223340">
        <ele>142.0</ele>
        <time>2019-06-21T17:13:39Z</time>
      </trkpt>
      <trkpt lat="42.3682950" lon="-8.6224080">
        <ele>141.0</ele>
        <time>2019-06-21T17:13:40Z</time>
      </trkpt>
      <trkpt lat="42.3683110" lon="-8.6224810">
        <ele>140.0</ele>
        <time>2019-06-21T17:13:41Z</time>
      </trkpt>
      <trkpt lat="42.3683410" lon="-8.6226190">
        <ele>137.6</ele>
        <time>2019-06-21T17:13:43Z</time>
      </trkpt>
      <trkpt lat="42.3683640" lon="-8.6226840">
        <ele>136.4</ele>
        <time>2019-06-21T17:13:44Z</time>
      </trkpt>
      <trkpt lat="42.3683960" lon="-8.6227460">
        <ele>135.6</ele>
        <time>2019-06-21T17:13:45Z</time>
      </trkpt>
      <trkpt lat="42.3684310" lon="-8.6228140">
        <ele>134.8</ele>
        <time>2019-06-21T17:13:46Z</time>
      </trkpt>
      <trkpt lat="42.3685060" lon="-8.6229680">
        <ele>133.2</ele>
        <time>2019-06-21T17:13:48Z</time>
      </trkpt>
      <trkpt lat="42.3685840" lon="-8.6231160">
        <ele>132.4</ele>
        <time>2019-06-21T17:13:50Z</time>
      </trkpt>
      <trkpt lat="42.3686660" lon="-8.6232560">
        <ele>132.0</ele>
        <time>2019-06-21T17:13:52Z</time>
      </trkpt>
      <trkpt lat="42.3687400" lon="-8.6233940">
        <ele>131.8</ele>
        <time>2019-06-21T17:13:54Z</time>
      </trkpt>
      <trkpt lat="42.3687990" lon="-8.6235340">
        <ele>131.6</ele>
        <time>2019-06-21T17:13:56Z</time>
      </trkpt>
      <trkpt lat="42.3689470" lon="-8.6239740">
        <ele>132.0</ele>
        <time>2019-06-21T17:14:03Z</time>
      </trkpt>
      <trkpt lat="42.3689660" lon="-8.6240920">
        <ele>132.2</ele>
        <time>2019-06-21T17:14:05Z</time>
      </trkpt>
      <trkpt lat="42.3689910" lon="-8.6243020">
        <ele>132.8</ele>
        <time>2019-06-21T17:14:09Z</time>
      </trkpt>
      <trkpt lat="42.3690150" lon="-8.6243800">
        <ele>133.2</ele>
        <time>2019-06-21T17:14:11Z</time>
      </trkpt>
      <trkpt lat="42.3690650" lon="-8.6244670">
        <ele>134.4</ele>
        <time>2019-06-21T17:14:14Z</time>
      </trkpt>
      <trkpt lat="42.3691180" lon="-8.6245370">
        <ele>135.4</ele>
        <time>2019-06-21T17:14:17Z</time>
      </trkpt>
      <trkpt lat="42.3691690" lon="-8.6246060">
        <ele>136.8</ele>
        <time>2019-06-21T17:14:20Z</time>
      </trkpt>
      <trkpt lat="42.3691860" lon="-8.6246260">
        <ele>137.0</ele>
        <time>2019-06-21T17:14:21Z</time>
      </trkpt>
      <trkpt lat="42.3692160" lon="-8.6246700">
        <ele>137.6</ele>
        <time>2019-06-21T17:14:23Z</time>
      </trkpt>
      <trkpt lat="42.3692330" lon="-8.6246920">
        <ele>137.8</ele>
        <time>2019-06-21T17:14:24Z</time>
      </trkpt>
      <trkpt lat="42.3692910" lon="-8.6247830">
        <ele>138.6</ele>
        <time>2019-06-21T17:14:28Z</time>
      </trkpt>
      <trkpt lat="42.3693050" lon="-8.6248090">
        <ele>138.8</ele>
        <time>2019-06-21T17:14:29Z</time>
      </trkpt>
      <trkpt lat="42.3693180" lon="-8.6248400">
        <ele>139.0</ele>
        <time>2019-06-21T17:14:30Z</time>
      </trkpt>
      <trkpt lat="42.3693840" lon="-8.6250060">
        <ele>139.0</ele>
        <time>2019-06-21T17:14:34Z</time>
      </trkpt>
      <trkpt lat="42.3694250" lon="-8.6251020">
        <ele>139.0</ele>
        <time>2019-06-21T17:14:36Z</time>
      </trkpt>
      <trkpt lat="42.3695220" lon="-8.6252340">
        <ele>138.4</ele>
        <time>2019-06-21T17:14:39Z</time>
      </trkpt>
      <trkpt lat="42.3696900" lon="-8.6253830">
        <ele>137.6</ele>
        <time>2019-06-21T17:14:43Z</time>
      </trkpt>
      <trkpt lat="42.3698410" lon="-8.6254780">
        <ele>137.0</ele>
        <time>2019-06-21T17:14:46Z</time>
      </trkpt>
      <trkpt lat="42.3699480" lon="-8.6255460">
        <ele>136.6</ele>
        <time>2019-06-21T17:14:48Z</time>
      </trkpt>
      <trkpt lat="42.3702120" lon="-8.6256980">
        <ele>136.0</ele>
        <time>2019-06-21T17:14:53Z</time>
      </trkpt>
      <trkpt lat="42.3703150" lon="-8.6257400">
        <ele>136.0</ele>
        <time>2019-06-21T17:14:55Z</time>
      </trkpt>
      <trkpt lat="42.3704190" lon="-8.6257700">
        <ele>135.6</ele>
        <time>2019-06-21T17:14:57Z</time>
      </trkpt>
      <trkpt lat="42.3704700" lon="-8.6257920">
        <ele>135.4</ele>
        <time>2019-06-21T17:14:58Z</time>
      </trkpt>
      <trkpt lat="42.3705190" lon="-8.6258240">
        <ele>135.2</ele>
        <time>2019-06-21T17:14:59Z</time>
      </trkpt>
      <trkpt lat="42.3706220" lon="-8.6259620">
        <ele>135.4</ele>
        <time>2019-06-21T17:15:02Z</time>
      </trkpt>
      <trkpt lat="42.3706580" lon="-8.6260080">
        <ele>135.4</ele>
        <time>2019-06-21T17:15:03Z</time>
      </trkpt>
      <trkpt lat="42.3707310" lon="-8.6260810">
        <ele>135.0</ele>
        <time>2019-06-21T17:15:05Z</time>
      </trkpt>
      <trkpt lat="42.3707680" lon="-8.6260980">
        <ele>134.6</ele>
        <time>2019-06-21T17:15:06Z</time>
      </trkpt>
      <trkpt lat="42.3708090" lon="-8.6260990">
        <ele>134.2</ele>
        <time>2019-06-21T17:15:07Z</time>
      </trkpt>
      <trkpt lat="42.3708860" lon="-8.6260750">
        <ele>133.6</ele>
        <time>2019-06-21T17:15:09Z</time>
      </trkpt>
      <trkpt lat="42.3709830" lon="-8.6260510">
        <ele>133.6</ele>
        <time>2019-06-21T17:15:12Z</time>
      </trkpt>
      <trkpt lat="42.3710990" lon="-8.6260130">
        <ele>133.8</ele>
        <time>2019-06-21T17:15:16Z</time>
      </trkpt>
      <trkpt lat="42.3712410" lon="-8.6259630">
        <ele>134.0</ele>
        <time>2019-06-21T17:15:20Z</time>
      </trkpt>
      <trkpt lat="42.3713650" lon="-8.6259160">
        <ele>134.6</ele>
        <time>2019-06-21T17:15:24Z</time>
      </trkpt>
      <trkpt lat="42.3714490" lon="-8.6258810">
        <ele>135.2</ele>
        <time>2019-06-21T17:15:27Z</time>
      </trkpt>
      <trkpt lat="42.3716710" lon="-8.6257200">
        <ele>134.6</ele>
        <time>2019-06-21T17:15:34Z</time>
      </trkpt>
      <trkpt lat="42.3719260" lon="-8.6254940">
        <ele>134.4</ele>
        <time>2019-06-21T17:15:41Z</time>
      </trkpt>
      <trkpt lat="42.3721420" lon="-8.6252880">
        <ele>134.8</ele>
        <time>2019-06-21T17:15:48Z</time>
      </trkpt>
      <trkpt lat="42.3721690" lon="-8.6252560">
        <ele>134.8</ele>
        <time>2019-06-21T17:15:49Z</time>
      </trkpt>
      <trkpt lat="42.3723180" lon="-8.6251040">
        <ele>135.2</ele>
        <time>2019-06-21T17:15:54Z</time>
      </trkpt>
      <trkpt lat="42.3723740" lon="-8.6250480">
        <ele>135.8</ele>
        <time>2019-06-21T17:15:56Z</time>
      </trkpt>
      <trkpt lat="42.3724550" lon="-8.6249650">
        <ele>136.2</ele>
        <time>2019-06-21T17:15:59Z</time>
      </trkpt>
      <trkpt lat="42.3726030" lon="-8.6248590">
        <ele>136.6</ele>
        <time>2019-06-21T17:16:04Z</time>
      </trkpt>
      <trkpt lat="42.3727050" lon="-8.6248030">
        <ele>136.6</ele>
        <time>2019-06-21T17:16:07Z</time>
      </trkpt>
      <trkpt lat="42.3728930" lon="-8.6248020">
        <ele>136.6</ele>
        <time>2019-06-21T17:16:12Z</time>
      </trkpt>
      <trkpt lat="42.3729740" lon="-8.6248520">
        <ele>136.8</ele>
        <time>2019-06-21T17:16:14Z</time>
      </trkpt>
      <trkpt lat="42.3732180" lon="-8.6250100">
        <ele>136.6</ele>
        <time>2019-06-21T17:16:20Z</time>
      </trkpt>
      <trkpt lat="42.3734630" lon="-8.6251760">
        <ele>137.8</ele>
        <time>2019-06-21T17:16:27Z</time>
      </trkpt>
      <trkpt lat="42.3734940" lon="-8.6252000">
        <ele>138.2</ele>
        <time>2019-06-21T17:16:28Z</time>
      </trkpt>
      <trkpt lat="42.3737260" lon="-8.6253420">
        <ele>138.8</ele>
        <time>2019-06-21T17:16:35Z</time>
      </trkpt>
      <trkpt lat="42.3737610" lon="-8.6253590">
        <ele>139.0</ele>
        <time>2019-06-21T17:16:36Z</time>
      </trkpt>
      <trkpt lat="42.3738410" lon="-8.6253820">
        <ele>139.0</ele>
        <time>2019-06-21T17:16:38Z</time>
      </trkpt>
      <trkpt lat="42.3739740" lon="-8.6253850">
        <ele>138.8</ele>
        <time>2019-06-21T17:16:41Z</time>
      </trkpt>
      <trkpt lat="42.3741830" lon="-8.6253690">
        <ele>137.8</ele>
        <time>2019-06-21T17:16:45Z</time>
      </trkpt>
      <trkpt lat="42.3742980" lon="-8.6253480">
        <ele>137.4</ele>
        <time>2019-06-21T17:16:47Z</time>
      </trkpt>
      <trkpt lat="42.3743570" lon="-8.6253440">
        <ele>137.2</ele>
        <time>2019-06-21T17:16:48Z</time>
      </trkpt>
      <trkpt lat="42.3744760" lon="-8.6253960">
        <ele>136.4</ele>
        <time>2019-06-21T17:16:50Z</time>
      </trkpt>
      <trkpt lat="42.3747160" lon="-8.6256370">
        <ele>135.2</ele>
        <time>2019-06-21T17:16:54Z</time>
      </trkpt>
      <trkpt lat="42.3748700" lon="-8.6257330">
        <ele>133.6</ele>
        <time>2019-06-21T17:16:56Z</time>
      </trkpt>
      <trkpt lat="42.3749520" lon="-8.6257770">
        <ele>132.8</ele>
        <time>2019-06-21T17:16:57Z</time>
      </trkpt>
      <trkpt lat="42.3750360" lon="-8.6258190">
        <ele>132.0</ele>
        <time>2019-06-21T17:16:58Z</time>
      </trkpt>
      <trkpt lat="42.3751980" lon="-8.6259330">
        <ele>130.8</ele>
        <time>2019-06-21T17:17:00Z</time>
      </trkpt>
      <trkpt lat="42.3753520" lon="-8.6260910">
        <ele>129.4</ele>
        <time>2019-06-21T17:17:02Z</time>
      </trkpt>
      <trkpt lat="42.3755090" lon="-8.6262540">
        <ele>128.2</ele>
        <time>2019-06-21T17:17:04Z</time>
      </trkpt>
      <trkpt lat="42.3756770" lon="-8.6264060">
        <ele>127.0</ele>
        <time>2019-06-21T17:17:06Z</time>
      </trkpt>
      <trkpt lat="42.3758480" lon="-8.6265750">
        <ele>125.6</ele>
        <time>2019-06-21T17:17:08Z</time>
      </trkpt>
      <trkpt lat="42.3759370" lon="-8.6266590">
        <ele>123.8</ele>
        <time>2019-06-21T17:17:09Z</time>
      </trkpt>
      <trkpt lat="42.3761170" lon="-8.6268200">
        <ele>122.0</ele>
        <time>2019-06-21T17:17:11Z</time>
      </trkpt>
      <trkpt lat="42.3762940" lon="-8.6269540">
        <ele>120.4</ele>
        <time>2019-06-21T17:17:13Z</time>
      </trkpt>
      <trkpt lat="42.3764590" lon="-8.6270400">
        <ele>119.6</ele>
        <time>2019-06-21T17:17:15Z</time>
      </trkpt>
      <trkpt lat="42.3765400" lon="-8.6270500">
        <ele>119.4</ele>
        <time>2019-06-21T17:17:16Z</time>
      </trkpt>
      <trkpt lat="42.3767930" lon="-8.6270180">
        <ele>120.0</ele>
        <time>2019-06-21T17:17:20Z</time>
      </trkpt>
      <trkpt lat="42.3769140" lon="-8.6269850">
        <ele>120.4</ele>
        <time>2019-06-21T17:17:23Z</time>
      </trkpt>
      <trkpt lat="42.3769890" lon="-8.6269730">
        <ele>121.0</ele>
        <time>2019-06-21T17:17:25Z</time>
      </trkpt>
      <trkpt lat="42.3770980" lon="-8.6269540">
        <ele>121.6</ele>
        <time>2019-06-21T17:17:28Z</time>
      </trkpt>
      <trkpt lat="42.3772250" lon="-8.6269590">
        <ele>122.8</ele>
        <time>2019-06-21T17:17:32Z</time>
      </trkpt>
      <trkpt lat="42.3772530" lon="-8.6269660">
        <ele>123.0</ele>
        <time>2019-06-21T17:17:33Z</time>
      </trkpt>
      <trkpt lat="42.3773180" lon="-8.6270240">
        <ele>123.8</ele>
        <time>2019-06-21T17:17:36Z</time>
      </trkpt>
      <trkpt lat="42.3773520" lon="-8.6270790">
        <ele>124.0</ele>
        <time>2019-06-21T17:17:38Z</time>
      </trkpt>
      <trkpt lat="42.3774810" lon="-8.6272170">
        <ele>123.8</ele>
        <time>2019-06-21T17:17:43Z</time>
      </trkpt>
      <trkpt lat="42.3775210" lon="-8.6272280">
        <ele>123.6</ele>
        <time>2019-06-21T17:17:44Z</time>
      </trkpt>
      <trkpt lat="42.3777620" lon="-8.6272060">
        <ele>122.6</ele>
        <time>2019-06-21T17:17:49Z</time>
      </trkpt>
      <trkpt lat="42.3779270" lon="-8.6271860">
        <ele>122.2</ele>
        <time>2019-06-21T17:17:52Z</time>
      </trkpt>
      <trkpt lat="42.3780460" lon="-8.6271930">
        <ele>121.6</ele>
        <time>2019-06-21T17:17:54Z</time>
      </trkpt>
      <trkpt lat="42.3781080" lon="-8.6271980">
        <ele>121.4</ele>
        <time>2019-06-21T17:17:55Z</time>
      </trkpt>
      <trkpt lat="42.3783050" lon="-8.6272290">
        <ele>120.4</ele>
        <time>2019-06-21T17:17:58Z</time>
      </trkpt>
      <trkpt lat="42.3783730" lon="-8.6272490">
        <ele>120.0</ele>
        <time>2019-06-21T17:17:59Z</time>
      </trkpt>
      <trkpt lat="42.3785100" lon="-8.6273120">
        <ele>119.0</ele>
        <time>2019-06-21T17:18:01Z</time>
      </trkpt>
      <trkpt lat="42.3786320" lon="-8.6273970">
        <ele>117.8</ele>
        <time>2019-06-21T17:18:03Z</time>
      </trkpt>
      <trkpt lat="42.3787290" lon="-8.6274840">
        <ele>116.4</ele>
        <time>2019-06-21T17:18:05Z</time>
      </trkpt>
      <trkpt lat="42.3787730" lon="-8.6275330">
        <ele>115.8</ele>
        <time>2019-06-21T17:18:06Z</time>
      </trkpt>
      <trkpt lat="42.3788130" lon="-8.6275850">
        <ele>115.4</ele>
        <time>2019-06-21T17:18:07Z</time>
      </trkpt>
      <trkpt lat="42.3788890" lon="-8.6276720">
        <ele>114.4</ele>
        <time>2019-06-21T17:18:09Z</time>
      </trkpt>
      <trkpt lat="42.3789220" lon="-8.6277010">
        <ele>113.8</ele>
        <time>2019-06-21T17:18:10Z</time>
      </trkpt>
      <trkpt lat="42.3789690" lon="-8.6277420">
        <ele>112.6</ele>
        <time>2019-06-21T17:18:12Z</time>
      </trkpt>
      <trkpt lat="42.3790140" lon="-8.6277740">
        <ele>111.8</ele>
        <time>2019-06-21T17:18:14Z</time>
      </trkpt>
      <trkpt lat="42.3790400" lon="-8.6277960">
        <ele>111.6</ele>
        <time>2019-06-21T17:18:15Z</time>
      </trkpt>
      <trkpt lat="42.3790890" lon="-8.6278700">
        <ele>111.0</ele>
        <time>2019-06-21T17:18:18Z</time>
      </trkpt>
      <trkpt lat="42.3790920" lon="-8.6278840">
        <ele>110.4</ele>
        <time>2019-06-21T17:18:20Z</time>
      </trkpt>
      <trkpt lat="42.3791100" lon="-8.6279330">
        <ele>110.0</ele>
        <time>2019-06-21T17:18:29Z</time>
      </trkpt>
      <trkpt lat="42.3791610" lon="-8.6281030">
        <ele>109.4</ele>
        <time>2019-06-21T17:18:33Z</time>
      </trkpt>
      <trkpt lat="42.3791760" lon="-8.6281640">
        <ele>109.4</ele>
        <time>2019-06-21T17:18:34Z</time>
      </trkpt>
      <trkpt lat="42.3792590" lon="-8.6284290">
        <ele>108.2</ele>
        <time>2019-06-21T17:18:38Z</time>
      </trkpt>
      <trkpt lat="42.3792860" lon="-8.6284910">
        <ele>107.8</ele>
        <time>2019-06-21T17:18:39Z</time>
      </trkpt>
      <trkpt lat="42.3793270" lon="-8.6285860">
        <ele>106.8</ele>
        <time>2019-06-21T17:18:41Z</time>
      </trkpt>
      <trkpt lat="42.3793360" lon="-8.6286110">
        <ele>106.4</ele>
        <time>2019-06-21T17:18:42Z</time>
      </trkpt>
      <trkpt lat="42.3793490" lon="-8.6286500">
        <ele>105.8</ele>
        <time>2019-06-21T17:18:44Z</time>
      </trkpt>
      <trkpt lat="42.3793610" lon="-8.6286750">
        <ele>105.2</ele>
        <time>2019-06-21T17:18:46Z</time>
      </trkpt>
      <trkpt lat="42.3793890" lon="-8.6286980">
        <ele>105.2</ele>
        <time>2019-06-21T17:18:48Z</time>
      </trkpt>
      <trkpt lat="42.3793830" lon="-8.6287550">
        <ele>105.2</ele>
        <time>2019-06-21T17:18:50Z</time>
      </trkpt>
      <trkpt lat="42.3793900" lon="-8.6287860">
        <ele>105.0</ele>
        <time>2019-06-21T17:18:51Z</time>
      </trkpt>
      <trkpt lat="42.3794710" lon="-8.6288890">
        <ele>104.6</ele>
        <time>2019-06-21T17:18:54Z</time>
      </trkpt>
      <trkpt lat="42.3795100" lon="-8.6289300">
        <ele>104.4</ele>
        <time>2019-06-21T17:18:55Z</time>
      </trkpt>
      <trkpt lat="42.3796760" lon="-8.6291160">
        <ele>103.6</ele>
        <time>2019-06-21T17:18:59Z</time>
      </trkpt>
      <trkpt lat="42.3797290" lon="-8.6291580">
        <ele>103.2</ele>
        <time>2019-06-21T17:19:00Z</time>
      </trkpt>
      <trkpt lat="42.3799100" lon="-8.6292310">
        <ele>102.8</ele>
        <time>2019-06-21T17:19:03Z</time>
      </trkpt>
      <trkpt lat="42.3799720" lon="-8.6292520">
        <ele>102.6</ele>
        <time>2019-06-21T17:19:04Z</time>
      </trkpt>
      <trkpt lat="42.3800350" lon="-8.6292750">
        <ele>102.4</ele>
        <time>2019-06-21T17:19:05Z</time>
      </trkpt>
      <trkpt lat="42.3802890" lon="-8.6293760">
        <ele>101.2</ele>
        <time>2019-06-21T17:19:09Z</time>
      </trkpt>
      <trkpt lat="42.3804780" lon="-8.6294670">
        <ele>100.6</ele>
        <time>2019-06-21T17:19:12Z</time>
      </trkpt>
      <trkpt lat="42.3806170" lon="-8.6295280">
        <ele>100.0</ele>
        <time>2019-06-21T17:19:14Z</time>
      </trkpt>
      <trkpt lat="42.3808310" lon="-8.6295830">
        <ele>99.0</ele>
        <time>2019-06-21T17:19:17Z</time>
      </trkpt>
      <trkpt lat="42.3809010" lon="-8.6295830">
        <ele>98.4</ele>
        <time>2019-06-21T17:19:18Z</time>
      </trkpt>
      <trkpt lat="42.3810370" lon="-8.6295430">
        <ele>97.4</ele>
        <time>2019-06-21T17:19:20Z</time>
      </trkpt>
      <trkpt lat="42.3813310" lon="-8.6294920">
        <ele>96.4</ele>
        <time>2019-06-21T17:19:25Z</time>
      </trkpt>
      <trkpt lat="42.3815750" lon="-8.6294640">
        <ele>95.2</ele>
        <time>2019-06-21T17:19:29Z</time>
      </trkpt>
      <trkpt lat="42.3816370" lon="-8.6294700">
        <ele>95.0</ele>
        <time>2019-06-21T17:19:30Z</time>
      </trkpt>
      <trkpt lat="42.3817030" lon="-8.6294820">
        <ele>94.6</ele>
        <time>2019-06-21T17:19:31Z</time>
      </trkpt>
      <trkpt lat="42.3818240" lon="-8.6295070">
        <ele>93.2</ele>
        <time>2019-06-21T17:19:33Z</time>
      </trkpt>
      <trkpt lat="42.3818780" lon="-8.6295190">
        <ele>90.8</ele>
        <time>2019-06-21T17:19:34Z</time>
      </trkpt>
      <trkpt lat="42.3819880" lon="-8.6295340">
        <ele>90.8</ele>
        <time>2019-06-21T17:19:36Z</time>
      </trkpt>
      <trkpt lat="42.3820420" lon="-8.6295380">
        <ele>92.6</ele>
        <time>2019-06-21T17:19:37Z</time>
      </trkpt>
      <trkpt lat="42.3821520" lon="-8.6295580">
        <ele>91.4</ele>
        <time>2019-06-21T17:19:39Z</time>
      </trkpt>
      <trkpt lat="42.3823400" lon="-8.6295810">
        <ele>90.4</ele>
        <time>2019-06-21T17:19:42Z</time>
      </trkpt>
      <trkpt lat="42.3826040" lon="-8.6295990">
        <ele>89.0</ele>
        <time>2019-06-21T17:19:46Z</time>
      </trkpt>
      <trkpt lat="42.3826540" lon="-8.6295980">
        <ele>87.6</ele>
        <time>2019-06-21T17:19:47Z</time>
      </trkpt>
      <trkpt lat="42.3827040" lon="-8.6296010">
        <ele>87.6</ele>
        <time>2019-06-21T17:19:48Z</time>
      </trkpt>
      <trkpt lat="42.3829590" lon="-8.6296400">
        <ele>87.4</ele>
        <time>2019-06-21T17:19:53Z</time>
      </trkpt>
      <trkpt lat="42.3831720" lon="-8.6297340">
        <ele>86.2</ele>
        <time>2019-06-21T17:19:57Z</time>
      </trkpt>
      <trkpt lat="42.3832240" lon="-8.6297560">
        <ele>85.8</ele>
        <time>2019-06-21T17:19:58Z</time>
      </trkpt>
      <trkpt lat="42.3834070" lon="-8.6298770">
        <ele>85.8</ele>
        <time>2019-06-21T17:20:02Z</time>
      </trkpt>
      <trkpt lat="42.3834530" lon="-8.6299200">
        <ele>84.6</ele>
        <time>2019-06-21T17:20:03Z</time>
      </trkpt>
      <trkpt lat="42.3835280" lon="-8.6300080">
        <ele>83.0</ele>
        <time>2019-06-21T17:20:05Z</time>
      </trkpt>
      <trkpt lat="42.3835950" lon="-8.6300570">
        <ele>81.8</ele>
        <time>2019-06-21T17:20:07Z</time>
      </trkpt>
      <trkpt lat="42.3836330" lon="-8.6300570">
        <ele>81.2</ele>
        <time>2019-06-21T17:20:08Z</time>
      </trkpt>
      <trkpt lat="42.3836740" lon="-8.6300450">
        <ele>80.8</ele>
        <time>2019-06-21T17:20:09Z</time>
      </trkpt>
      <trkpt lat="42.3837150" lon="-8.6300260">
        <ele>79.8</ele>
        <time>2019-06-21T17:20:10Z</time>
      </trkpt>
      <trkpt lat="42.3837590" lon="-8.6300040">
        <ele>78.6</ele>
        <time>2019-06-21T17:20:11Z</time>
      </trkpt>
      <trkpt lat="42.3838060" lon="-8.6299780">
        <ele>77.4</ele>
        <time>2019-06-21T17:20:12Z</time>
      </trkpt>
      <trkpt lat="42.3838570" lon="-8.6299570">
        <ele>76.2</ele>
        <time>2019-06-21T17:20:13Z</time>
      </trkpt>
      <trkpt lat="42.3839530" lon="-8.6299390">
        <ele>74.2</ele>
        <time>2019-06-21T17:20:15Z</time>
      </trkpt>
      <trkpt lat="42.3840570" lon="-8.6300220">
        <ele>73.2</ele>
        <time>2019-06-21T17:20:17Z</time>
      </trkpt>
      <trkpt lat="42.3841120" lon="-8.6300840">
        <ele>73.0</ele>
        <time>2019-06-21T17:20:18Z</time>
      </trkpt>
      <trkpt lat="42.3842910" lon="-8.6302650">
        <ele>71.8</ele>
        <time>2019-06-21T17:20:21Z</time>
      </trkpt>
      <trkpt lat="42.3843520" lon="-8.6303250">
        <ele>71.6</ele>
        <time>2019-06-21T17:20:22Z</time>
      </trkpt>
      <trkpt lat="42.3845040" lon="-8.6304730">
        <ele>70.8</ele>
        <time>2019-06-21T17:20:25Z</time>
      </trkpt>
      <trkpt lat="42.3845370" lon="-8.6305040">
        <ele>70.4</ele>
        <time>2019-06-21T17:20:26Z</time>
      </trkpt>
      <trkpt lat="42.3846210" lon="-8.6305380">
        <ele>69.6</ele>
        <time>2019-06-21T17:20:28Z</time>
      </trkpt>
      <trkpt lat="42.3846680" lon="-8.6305470">
        <ele>69.4</ele>
        <time>2019-06-21T17:20:29Z</time>
      </trkpt>
      <trkpt lat="42.3847650" lon="-8.6305500">
        <ele>69.0</ele>
        <time>2019-06-21T17:20:31Z</time>
      </trkpt>
      <trkpt lat="42.3849400" lon="-8.6305040">
        <ele>68.8</ele>
        <time>2019-06-21T17:20:35Z</time>
      </trkpt>
      <trkpt lat="42.3850660" lon="-8.6304710">
        <ele>68.6</ele>
        <time>2019-06-21T17:20:38Z</time>
      </trkpt>
      <trkpt lat="42.3852380" lon="-8.6304270">
        <ele>68.8</ele>
        <time>2019-06-21T17:20:42Z</time>
      </trkpt>
    </trkseg>
  </trk>
</gpx>
